<?xml version="1.0" encoding="UTF-8" standalone="no" ?>
<gpx xmlns="http://www.topografix.com/GPX/1/1" xmlns:xsi="http://www.w3.org/2001/XMLSchema-instance" xsi:schemaLocation="http://www.topografix.com/GPX/1/1 http://www.topografix.com/GPX/1/1/gpx.xsd" version="1.1" creator="VisuGPX - https://www.visugpx.com">
  <metadata>
    <name>Transvolcanique2013</name>
    <desc><![CDATA[Transvolcanique 2013]]></desc>
  </metadata>
  <trk>
    <name><![CDATA[23-SEP-13 10:54:10 AM]]></name>
    <trkseg>
      <trkpt lat="45.82227" lon="3.0783">
        <ele>379</ele>
        <time>2013-09-21T06:45:29Z</time>
      </trkpt>
      <trkpt lat="45.82227" lon="3.0783">
        <ele>379</ele>
        <time>2013-09-21T06:45:30Z</time>
      </trkpt>
      <trkpt lat="45.82227" lon="3.07829">
        <ele>379</ele>
        <time>2013-09-21T06:45:42Z</time>
      </trkpt>
      <trkpt lat="45.82227" lon="3.07829">
        <ele>379</ele>
        <time>2013-09-21T06:45:43Z</time>
      </trkpt>
      <trkpt lat="45.82227" lon="3.07829">
        <ele>379</ele>
        <time>2013-09-21T06:45:45Z</time>
      </trkpt>
      <trkpt lat="45.82227" lon="3.0783">
        <ele>379</ele>
        <time>2013-09-21T06:45:46Z</time>
      </trkpt>
      <trkpt lat="45.82227" lon="3.0783">
        <ele>379</ele>
        <time>2013-09-21T06:45:48Z</time>
      </trkpt>
      <trkpt lat="45.82227" lon="3.0783">
        <ele>379</ele>
        <time>2013-09-21T06:45:50Z</time>
      </trkpt>
      <trkpt lat="45.82227" lon="3.0783">
        <ele>379</ele>
        <time>2013-09-21T06:45:52Z</time>
      </trkpt>
      <trkpt lat="45.82228" lon="3.0783">
        <ele>379</ele>
        <time>2013-09-21T06:45:54Z</time>
      </trkpt>
      <trkpt lat="45.82228" lon="3.07831">
        <ele>379</ele>
        <time>2013-09-21T06:45:56Z</time>
      </trkpt>
      <trkpt lat="45.82229" lon="3.07831">
        <ele>378</ele>
        <time>2013-09-21T06:45:58Z</time>
      </trkpt>
      <trkpt lat="45.82229" lon="3.07831">
        <ele>378</ele>
        <time>2013-09-21T06:46:00Z</time>
      </trkpt>
      <trkpt lat="45.82229" lon="3.0783">
        <ele>378</ele>
        <time>2013-09-21T06:46:02Z</time>
      </trkpt>
      <trkpt lat="45.8223" lon="3.0783">
        <ele>378</ele>
        <time>2013-09-21T06:46:04Z</time>
      </trkpt>
      <trkpt lat="45.8223" lon="3.0783">
        <ele>378</ele>
        <time>2013-09-21T06:46:06Z</time>
      </trkpt>
      <trkpt lat="45.8223" lon="3.0783">
        <ele>378</ele>
        <time>2013-09-21T06:46:09Z</time>
      </trkpt>
      <trkpt lat="45.8223" lon="3.0783">
        <ele>378</ele>
        <time>2013-09-21T06:46:12Z</time>
      </trkpt>
      <trkpt lat="45.8223" lon="3.07831">
        <ele>378</ele>
        <time>2013-09-21T06:46:15Z</time>
      </trkpt>
      <trkpt lat="45.82229" lon="3.07831">
        <ele>378</ele>
        <time>2013-09-21T06:46:18Z</time>
      </trkpt>
      <trkpt lat="45.82229" lon="3.0783">
        <ele>378</ele>
        <time>2013-09-21T06:46:22Z</time>
      </trkpt>
      <trkpt lat="45.82229" lon="3.0783">
        <ele>378</ele>
        <time>2013-09-21T06:46:26Z</time>
      </trkpt>
      <trkpt lat="45.8223" lon="3.07832">
        <ele>378</ele>
        <time>2013-09-21T06:46:31Z</time>
      </trkpt>
      <trkpt lat="45.82229" lon="3.07833">
        <ele>378</ele>
        <time>2013-09-21T06:46:37Z</time>
      </trkpt>
      <trkpt lat="45.82228" lon="3.07833">
        <ele>379</ele>
        <time>2013-09-21T06:46:41Z</time>
      </trkpt>
      <trkpt lat="45.82227" lon="3.07834">
        <ele>378</ele>
        <time>2013-09-21T06:46:45Z</time>
      </trkpt>
      <trkpt lat="45.82227" lon="3.07833">
        <ele>379</ele>
        <time>2013-09-21T06:46:53Z</time>
      </trkpt>
      <trkpt lat="45.82227" lon="3.0783">
        <ele>379</ele>
        <time>2013-09-21T06:47:01Z</time>
      </trkpt>
      <trkpt lat="45.82226" lon="3.0783">
        <ele>379</ele>
        <time>2013-09-21T06:47:13Z</time>
      </trkpt>
      <trkpt lat="45.82226" lon="3.0783">
        <ele>379</ele>
        <time>2013-09-21T06:47:36Z</time>
      </trkpt>
      <trkpt lat="45.82227" lon="3.0783">
        <ele>379</ele>
        <time>2013-09-21T06:48:05Z</time>
      </trkpt>
      <trkpt lat="45.82227" lon="3.0783">
        <ele>379</ele>
        <time>2013-09-21T06:48:27Z</time>
      </trkpt>
      <trkpt lat="45.82227" lon="3.0783">
        <ele>379</ele>
        <time>2013-09-21T06:48:49Z</time>
      </trkpt>
      <trkpt lat="45.82227" lon="3.0783">
        <ele>379</ele>
        <time>2013-09-21T06:49:15Z</time>
      </trkpt>
      <trkpt lat="45.82227" lon="3.0783">
        <ele>379</ele>
        <time>2013-09-21T06:49:39Z</time>
      </trkpt>
      <trkpt lat="45.82227" lon="3.0783">
        <ele>379</ele>
        <time>2013-09-21T06:50:10Z</time>
      </trkpt>
      <trkpt lat="45.82227" lon="3.0783">
        <ele>379</ele>
        <time>2013-09-21T06:50:43Z</time>
      </trkpt>
      <trkpt lat="45.82227" lon="3.07829">
        <ele>379</ele>
        <time>2013-09-21T06:51:12Z</time>
      </trkpt>
      <trkpt lat="45.82227" lon="3.07829">
        <ele>379</ele>
        <time>2013-09-21T06:51:40Z</time>
      </trkpt>
      <trkpt lat="45.82227" lon="3.07829">
        <ele>379</ele>
        <time>2013-09-21T06:52:11Z</time>
      </trkpt>
      <trkpt lat="45.82227" lon="3.07829">
        <ele>379</ele>
        <time>2013-09-21T06:52:45Z</time>
      </trkpt>
      <trkpt lat="45.82227" lon="3.07829">
        <ele>379</ele>
        <time>2013-09-21T06:53:11Z</time>
      </trkpt>
      <trkpt lat="45.82227" lon="3.07829">
        <ele>379</ele>
        <time>2013-09-21T06:53:34Z</time>
      </trkpt>
      <trkpt lat="45.82227" lon="3.07829">
        <ele>379</ele>
        <time>2013-09-21T06:54:05Z</time>
      </trkpt>
      <trkpt lat="45.82227" lon="3.07829">
        <ele>379</ele>
        <time>2013-09-21T06:54:33Z</time>
      </trkpt>
      <trkpt lat="45.82227" lon="3.07829">
        <ele>379</ele>
        <time>2013-09-21T06:54:54Z</time>
      </trkpt>
      <trkpt lat="45.82227" lon="3.07829">
        <ele>379</ele>
        <time>2013-09-21T06:54:55Z</time>
      </trkpt>
      <trkpt lat="45.82228" lon="3.0783">
        <ele>379</ele>
        <time>2013-09-21T06:55:21Z</time>
      </trkpt>
      <trkpt lat="45.82228" lon="3.07831">
        <ele>379</ele>
        <time>2013-09-21T06:55:50Z</time>
      </trkpt>
      <trkpt lat="45.82228" lon="3.07831">
        <ele>379</ele>
        <time>2013-09-21T06:56:18Z</time>
      </trkpt>
      <trkpt lat="45.82228" lon="3.07831">
        <ele>379</ele>
        <time>2013-09-21T06:56:47Z</time>
      </trkpt>
      <trkpt lat="45.82228" lon="3.07831">
        <ele>379</ele>
        <time>2013-09-21T06:57:19Z</time>
      </trkpt>
      <trkpt lat="45.82228" lon="3.07831">
        <ele>379</ele>
        <time>2013-09-21T06:57:43Z</time>
      </trkpt>
      <trkpt lat="45.82228" lon="3.07832">
        <ele>379</ele>
        <time>2013-09-21T06:58:23Z</time>
      </trkpt>
      <trkpt lat="45.82228" lon="3.07832">
        <ele>379</ele>
        <time>2013-09-21T06:58:49Z</time>
      </trkpt>
      <trkpt lat="45.82229" lon="3.07832">
        <ele>378</ele>
        <time>2013-09-21T06:59:14Z</time>
      </trkpt>
      <trkpt lat="45.8223" lon="3.07838">
        <ele>378</ele>
        <time>2013-09-21T06:59:20Z</time>
      </trkpt>
      <trkpt lat="45.82243" lon="3.07863">
        <ele>378</ele>
        <time>2013-09-21T06:59:38Z</time>
      </trkpt>
      <trkpt lat="45.82254" lon="3.0789">
        <ele>376</ele>
        <time>2013-09-21T06:59:53Z</time>
      </trkpt>
      <trkpt lat="45.82274" lon="3.07933">
        <ele>376</ele>
        <time>2013-09-21T07:00:08Z</time>
      </trkpt>
      <trkpt lat="45.823" lon="3.08">
        <ele>375</ele>
        <time>2013-09-21T07:00:24Z</time>
      </trkpt>
      <trkpt lat="45.82322" lon="3.08064">
        <ele>375</ele>
        <time>2013-09-21T07:00:38Z</time>
      </trkpt>
      <trkpt lat="45.82348" lon="3.08126">
        <ele>374</ele>
        <time>2013-09-21T07:00:52Z</time>
      </trkpt>
      <trkpt lat="45.82376" lon="3.08202">
        <ele>373</ele>
        <time>2013-09-21T07:01:07Z</time>
      </trkpt>
      <trkpt lat="45.82405" lon="3.08291">
        <ele>372</ele>
        <time>2013-09-21T07:01:22Z</time>
      </trkpt>
      <trkpt lat="45.82455" lon="3.08371">
        <ele>371</ele>
        <time>2013-09-21T07:01:37Z</time>
      </trkpt>
      <trkpt lat="45.82508" lon="3.0846">
        <ele>369</ele>
        <time>2013-09-21T07:01:51Z</time>
      </trkpt>
      <trkpt lat="45.82541" lon="3.08506">
        <ele>372</ele>
        <time>2013-09-21T07:02:01Z</time>
      </trkpt>
      <trkpt lat="45.82562" lon="3.08518">
        <ele>371</ele>
        <time>2013-09-21T07:02:07Z</time>
      </trkpt>
      <trkpt lat="45.82626" lon="3.08524">
        <ele>367</ele>
        <time>2013-09-21T07:02:20Z</time>
      </trkpt>
      <trkpt lat="45.82632" lon="3.08525">
        <ele>367</ele>
        <time>2013-09-21T07:02:21Z</time>
      </trkpt>
      <trkpt lat="45.82658" lon="3.08517">
        <ele>366</ele>
        <time>2013-09-21T07:02:26Z</time>
      </trkpt>
      <trkpt lat="45.82676" lon="3.08512">
        <ele>364</ele>
        <time>2013-09-21T07:02:29Z</time>
      </trkpt>
      <trkpt lat="45.82695" lon="3.08485">
        <ele>365</ele>
        <time>2013-09-21T07:02:34Z</time>
      </trkpt>
      <trkpt lat="45.82729" lon="3.08449">
        <ele>366</ele>
        <time>2013-09-21T07:02:43Z</time>
      </trkpt>
      <trkpt lat="45.82752" lon="3.08453">
        <ele>367</ele>
        <time>2013-09-21T07:02:48Z</time>
      </trkpt>
      <trkpt lat="45.82804" lon="3.08444">
        <ele>368</ele>
        <time>2013-09-21T07:03:05Z</time>
      </trkpt>
      <trkpt lat="45.82815" lon="3.08435">
        <ele>369</ele>
        <time>2013-09-21T07:03:14Z</time>
      </trkpt>
      <trkpt lat="45.82817" lon="3.08434">
        <ele>369</ele>
        <time>2013-09-21T07:03:16Z</time>
      </trkpt>
      <trkpt lat="45.82848" lon="3.08421">
        <ele>371</ele>
        <time>2013-09-21T07:03:30Z</time>
      </trkpt>
      <trkpt lat="45.82852" lon="3.0842">
        <ele>371</ele>
        <time>2013-09-21T07:03:31Z</time>
      </trkpt>
      <trkpt lat="45.82907" lon="3.08389">
        <ele>374</ele>
        <time>2013-09-21T07:03:47Z</time>
      </trkpt>
      <trkpt lat="45.82958" lon="3.08341">
        <ele>376</ele>
        <time>2013-09-21T07:04:02Z</time>
      </trkpt>
      <trkpt lat="45.8298" lon="3.08322">
        <ele>377</ele>
        <time>2013-09-21T07:04:08Z</time>
      </trkpt>
      <trkpt lat="45.83006" lon="3.08322">
        <ele>377</ele>
        <time>2013-09-21T07:04:14Z</time>
      </trkpt>
      <trkpt lat="45.83032" lon="3.08308">
        <ele>378</ele>
        <time>2013-09-21T07:04:20Z</time>
      </trkpt>
      <trkpt lat="45.83041" lon="3.0823">
        <ele>379</ele>
        <time>2013-09-21T07:04:35Z</time>
      </trkpt>
      <trkpt lat="45.83016" lon="3.08161">
        <ele>380</ele>
        <time>2013-09-21T07:04:47Z</time>
      </trkpt>
      <trkpt lat="45.82999" lon="3.08072">
        <ele>382</ele>
        <time>2013-09-21T07:05:04Z</time>
      </trkpt>
      <trkpt lat="45.82983" lon="3.07993">
        <ele>388</ele>
        <time>2013-09-21T07:05:23Z</time>
      </trkpt>
      <trkpt lat="45.82969" lon="3.07944">
        <ele>388</ele>
        <time>2013-09-21T07:05:36Z</time>
      </trkpt>
      <trkpt lat="45.82948" lon="3.07877">
        <ele>392</ele>
        <time>2013-09-21T07:05:53Z</time>
      </trkpt>
      <trkpt lat="45.82927" lon="3.07804">
        <ele>396</ele>
        <time>2013-09-21T07:06:09Z</time>
      </trkpt>
      <trkpt lat="45.82912" lon="3.07734">
        <ele>397</ele>
        <time>2013-09-21T07:06:26Z</time>
      </trkpt>
      <trkpt lat="45.82859" lon="3.07732">
        <ele>396</ele>
        <time>2013-09-21T07:06:41Z</time>
      </trkpt>
      <trkpt lat="45.82825" lon="3.0768">
        <ele>394</ele>
        <time>2013-09-21T07:06:56Z</time>
      </trkpt>
      <trkpt lat="45.82772" lon="3.07583">
        <ele>398</ele>
        <time>2013-09-21T07:07:12Z</time>
      </trkpt>
      <trkpt lat="45.82724" lon="3.07499">
        <ele>398</ele>
        <time>2013-09-21T07:07:30Z</time>
      </trkpt>
      <trkpt lat="45.82718" lon="3.0749">
        <ele>398</ele>
        <time>2013-09-21T07:07:32Z</time>
      </trkpt>
      <trkpt lat="45.82707" lon="3.0746">
        <ele>398</ele>
        <time>2013-09-21T07:07:37Z</time>
      </trkpt>
      <trkpt lat="45.827" lon="3.07351">
        <ele>400</ele>
        <time>2013-09-21T07:07:51Z</time>
      </trkpt>
      <trkpt lat="45.82699" lon="3.07303">
        <ele>400</ele>
        <time>2013-09-21T07:07:57Z</time>
      </trkpt>
      <trkpt lat="45.827" lon="3.07281">
        <ele>400</ele>
        <time>2013-09-21T07:08:00Z</time>
      </trkpt>
      <trkpt lat="45.82708" lon="3.07251">
        <ele>400</ele>
        <time>2013-09-21T07:08:04Z</time>
      </trkpt>
      <trkpt lat="45.82734" lon="3.07169">
        <ele>403</ele>
        <time>2013-09-21T07:08:18Z</time>
      </trkpt>
      <trkpt lat="45.82725" lon="3.07105">
        <ele>406</ele>
        <time>2013-09-21T07:08:33Z</time>
      </trkpt>
      <trkpt lat="45.82715" lon="3.07052">
        <ele>409</ele>
        <time>2013-09-21T07:08:46Z</time>
      </trkpt>
      <trkpt lat="45.82694" lon="3.06997">
        <ele>413</ele>
        <time>2013-09-21T07:09:01Z</time>
      </trkpt>
      <trkpt lat="45.827" lon="3.06948">
        <ele>414</ele>
        <time>2013-09-21T07:09:14Z</time>
      </trkpt>
      <trkpt lat="45.82717" lon="3.06918">
        <ele>415</ele>
        <time>2013-09-21T07:09:26Z</time>
      </trkpt>
      <trkpt lat="45.82736" lon="3.06886">
        <ele>419</ele>
        <time>2013-09-21T07:09:40Z</time>
      </trkpt>
      <trkpt lat="45.82768" lon="3.06845">
        <ele>421</ele>
        <time>2013-09-21T07:09:56Z</time>
      </trkpt>
      <trkpt lat="45.82805" lon="3.06767">
        <ele>424</ele>
        <time>2013-09-21T07:10:15Z</time>
      </trkpt>
      <trkpt lat="45.82837" lon="3.06692">
        <ele>428</ele>
        <time>2013-09-21T07:10:35Z</time>
      </trkpt>
      <trkpt lat="45.82856" lon="3.06639">
        <ele>430</ele>
        <time>2013-09-21T07:10:51Z</time>
      </trkpt>
      <trkpt lat="45.82871" lon="3.06598">
        <ele>432</ele>
        <time>2013-09-21T07:11:06Z</time>
      </trkpt>
      <trkpt lat="45.82879" lon="3.06579">
        <ele>434</ele>
        <time>2013-09-21T07:11:13Z</time>
      </trkpt>
      <trkpt lat="45.829" lon="3.06559">
        <ele>435</ele>
        <time>2013-09-21T07:11:27Z</time>
      </trkpt>
      <trkpt lat="45.82921" lon="3.06551">
        <ele>440</ele>
        <time>2013-09-21T07:11:38Z</time>
      </trkpt>
      <trkpt lat="45.82959" lon="3.06538">
        <ele>441</ele>
        <time>2013-09-21T07:11:55Z</time>
      </trkpt>
      <trkpt lat="45.83006" lon="3.06559">
        <ele>445</ele>
        <time>2013-09-21T07:12:13Z</time>
      </trkpt>
      <trkpt lat="45.83047" lon="3.06564">
        <ele>447</ele>
        <time>2013-09-21T07:12:28Z</time>
      </trkpt>
      <trkpt lat="45.83091" lon="3.06552">
        <ele>452</ele>
        <time>2013-09-21T07:12:46Z</time>
      </trkpt>
      <trkpt lat="45.83114" lon="3.06554">
        <ele>452</ele>
        <time>2013-09-21T07:12:56Z</time>
      </trkpt>
      <trkpt lat="45.83153" lon="3.06535">
        <ele>454</ele>
        <time>2013-09-21T07:13:11Z</time>
      </trkpt>
      <trkpt lat="45.83191" lon="3.06559">
        <ele>458</ele>
        <time>2013-09-21T07:13:25Z</time>
      </trkpt>
      <trkpt lat="45.83225" lon="3.06559">
        <ele>460</ele>
        <time>2013-09-21T07:13:39Z</time>
      </trkpt>
      <trkpt lat="45.83249" lon="3.06545">
        <ele>460</ele>
        <time>2013-09-21T07:13:50Z</time>
      </trkpt>
      <trkpt lat="45.83296" lon="3.06534">
        <ele>465</ele>
        <time>2013-09-21T07:14:08Z</time>
      </trkpt>
      <trkpt lat="45.83344" lon="3.06539">
        <ele>470</ele>
        <time>2013-09-21T07:14:26Z</time>
      </trkpt>
      <trkpt lat="45.83381" lon="3.06528">
        <ele>472</ele>
        <time>2013-09-21T07:14:42Z</time>
      </trkpt>
      <trkpt lat="45.83411" lon="3.06509">
        <ele>475</ele>
        <time>2013-09-21T07:14:57Z</time>
      </trkpt>
      <trkpt lat="45.83438" lon="3.06495">
        <ele>480</ele>
        <time>2013-09-21T07:15:11Z</time>
      </trkpt>
      <trkpt lat="45.8346" lon="3.06475">
        <ele>482</ele>
        <time>2013-09-21T07:15:24Z</time>
      </trkpt>
      <trkpt lat="45.8349" lon="3.06442">
        <ele>483</ele>
        <time>2013-09-21T07:15:40Z</time>
      </trkpt>
      <trkpt lat="45.83516" lon="3.06406">
        <ele>486</ele>
        <time>2013-09-21T07:15:54Z</time>
      </trkpt>
      <trkpt lat="45.83545" lon="3.06358">
        <ele>487</ele>
        <time>2013-09-21T07:16:10Z</time>
      </trkpt>
      <trkpt lat="45.83573" lon="3.0631">
        <ele>489</ele>
        <time>2013-09-21T07:16:26Z</time>
      </trkpt>
      <trkpt lat="45.83587" lon="3.06265">
        <ele>493</ele>
        <time>2013-09-21T07:16:40Z</time>
      </trkpt>
      <trkpt lat="45.83583" lon="3.06201">
        <ele>493</ele>
        <time>2013-09-21T07:16:54Z</time>
      </trkpt>
      <trkpt lat="45.83593" lon="3.06163">
        <ele>497</ele>
        <time>2013-09-21T07:17:04Z</time>
      </trkpt>
      <trkpt lat="45.83627" lon="3.06153">
        <ele>499</ele>
        <time>2013-09-21T07:17:18Z</time>
      </trkpt>
      <trkpt lat="45.83663" lon="3.0614">
        <ele>499</ele>
        <time>2013-09-21T07:17:31Z</time>
      </trkpt>
      <trkpt lat="45.83707" lon="3.06113">
        <ele>500</ele>
        <time>2013-09-21T07:17:44Z</time>
      </trkpt>
      <trkpt lat="45.83751" lon="3.0606">
        <ele>503</ele>
        <time>2013-09-21T07:18:01Z</time>
      </trkpt>
      <trkpt lat="45.83792" lon="3.06025">
        <ele>504</ele>
        <time>2013-09-21T07:18:17Z</time>
      </trkpt>
      <trkpt lat="45.83791" lon="3.06028">
        <ele>504</ele>
        <time>2013-09-21T07:18:32Z</time>
      </trkpt>
      <trkpt lat="45.83791" lon="3.06028">
        <ele>504</ele>
        <time>2013-09-21T07:18:58Z</time>
      </trkpt>
      <trkpt lat="45.83791" lon="3.06028">
        <ele>504</ele>
        <time>2013-09-21T07:19:00Z</time>
      </trkpt>
      <trkpt lat="45.83789" lon="3.06029">
        <ele>504</ele>
        <time>2013-09-21T07:19:18Z</time>
      </trkpt>
      <trkpt lat="45.83789" lon="3.06029">
        <ele>504</ele>
        <time>2013-09-21T07:19:29Z</time>
      </trkpt>
      <trkpt lat="45.83789" lon="3.06026">
        <ele>504</ele>
        <time>2013-09-21T07:19:34Z</time>
      </trkpt>
      <trkpt lat="45.8381" lon="3.05987">
        <ele>505</ele>
        <time>2013-09-21T07:19:47Z</time>
      </trkpt>
      <trkpt lat="45.83826" lon="3.0595">
        <ele>506</ele>
        <time>2013-09-21T07:19:55Z</time>
      </trkpt>
      <trkpt lat="45.83848" lon="3.05915">
        <ele>508</ele>
        <time>2013-09-21T07:20:03Z</time>
      </trkpt>
      <trkpt lat="45.8388" lon="3.05899">
        <ele>508</ele>
        <time>2013-09-21T07:20:11Z</time>
      </trkpt>
      <trkpt lat="45.83943" lon="3.059">
        <ele>510</ele>
        <time>2013-09-21T07:20:27Z</time>
      </trkpt>
      <trkpt lat="45.84008" lon="3.05917">
        <ele>512</ele>
        <time>2013-09-21T07:20:43Z</time>
      </trkpt>
      <trkpt lat="45.8407" lon="3.05901">
        <ele>512</ele>
        <time>2013-09-21T07:20:59Z</time>
      </trkpt>
      <trkpt lat="45.84083" lon="3.05851">
        <ele>515</ele>
        <time>2013-09-21T07:21:12Z</time>
      </trkpt>
      <trkpt lat="45.84069" lon="3.05794">
        <ele>516</ele>
        <time>2013-09-21T07:21:25Z</time>
      </trkpt>
      <trkpt lat="45.84082" lon="3.05714">
        <ele>517</ele>
        <time>2013-09-21T07:21:43Z</time>
      </trkpt>
      <trkpt lat="45.84084" lon="3.05634">
        <ele>519</ele>
        <time>2013-09-21T07:22:00Z</time>
      </trkpt>
      <trkpt lat="45.84089" lon="3.05549">
        <ele>521</ele>
        <time>2013-09-21T07:22:16Z</time>
      </trkpt>
      <trkpt lat="45.84092" lon="3.0544">
        <ele>521</ele>
        <time>2013-09-21T07:22:35Z</time>
      </trkpt>
      <trkpt lat="45.84097" lon="3.05336">
        <ele>523</ele>
        <time>2013-09-21T07:22:53Z</time>
      </trkpt>
      <trkpt lat="45.84086" lon="3.05217">
        <ele>525</ele>
        <time>2013-09-21T07:23:16Z</time>
      </trkpt>
      <trkpt lat="45.84086" lon="3.0514">
        <ele>526</ele>
        <time>2013-09-21T07:23:32Z</time>
      </trkpt>
      <trkpt lat="45.84095" lon="3.05063">
        <ele>528</ele>
        <time>2013-09-21T07:23:49Z</time>
      </trkpt>
      <trkpt lat="45.84101" lon="3.04975">
        <ele>530</ele>
        <time>2013-09-21T07:24:08Z</time>
      </trkpt>
      <trkpt lat="45.84095" lon="3.04889">
        <ele>532</ele>
        <time>2013-09-21T07:24:27Z</time>
      </trkpt>
      <trkpt lat="45.8409" lon="3.04858">
        <ele>533</ele>
        <time>2013-09-21T07:24:38Z</time>
      </trkpt>
      <trkpt lat="45.84081" lon="3.04801">
        <ele>535</ele>
        <time>2013-09-21T07:24:53Z</time>
      </trkpt>
      <trkpt lat="45.84078" lon="3.04759">
        <ele>536</ele>
        <time>2013-09-21T07:25:08Z</time>
      </trkpt>
      <trkpt lat="45.84077" lon="3.04739">
        <ele>537</ele>
        <time>2013-09-21T07:25:23Z</time>
      </trkpt>
      <trkpt lat="45.84078" lon="3.04738">
        <ele>537</ele>
        <time>2013-09-21T07:25:30Z</time>
      </trkpt>
      <trkpt lat="45.84056" lon="3.0474">
        <ele>537</ele>
        <time>2013-09-21T07:25:39Z</time>
      </trkpt>
      <trkpt lat="45.83988" lon="3.04783">
        <ele>535</ele>
        <time>2013-09-21T07:25:53Z</time>
      </trkpt>
      <trkpt lat="45.83973" lon="3.04793">
        <ele>535</ele>
        <time>2013-09-21T07:25:56Z</time>
      </trkpt>
      <trkpt lat="45.83956" lon="3.04786">
        <ele>535</ele>
        <time>2013-09-21T07:26:02Z</time>
      </trkpt>
      <trkpt lat="45.83955" lon="3.04775">
        <ele>535</ele>
        <time>2013-09-21T07:26:05Z</time>
      </trkpt>
      <trkpt lat="45.83947" lon="3.04698">
        <ele>536</ele>
        <time>2013-09-21T07:26:21Z</time>
      </trkpt>
      <trkpt lat="45.83957" lon="3.04631">
        <ele>538</ele>
        <time>2013-09-21T07:26:35Z</time>
      </trkpt>
      <trkpt lat="45.83963" lon="3.04576">
        <ele>542</ele>
        <time>2013-09-21T07:26:48Z</time>
      </trkpt>
      <trkpt lat="45.8396" lon="3.04541">
        <ele>543</ele>
        <time>2013-09-21T07:26:58Z</time>
      </trkpt>
      <trkpt lat="45.83968" lon="3.04487">
        <ele>547</ele>
        <time>2013-09-21T07:27:11Z</time>
      </trkpt>
      <trkpt lat="45.83958" lon="3.0442">
        <ele>549</ele>
        <time>2013-09-21T07:27:28Z</time>
      </trkpt>
      <trkpt lat="45.83943" lon="3.04386">
        <ele>552</ele>
        <time>2013-09-21T07:27:40Z</time>
      </trkpt>
      <trkpt lat="45.83954" lon="3.04336">
        <ele>553</ele>
        <time>2013-09-21T07:27:53Z</time>
      </trkpt>
      <trkpt lat="45.83985" lon="3.043">
        <ele>559</ele>
        <time>2013-09-21T07:28:07Z</time>
      </trkpt>
      <trkpt lat="45.84024" lon="3.04283">
        <ele>561</ele>
        <time>2013-09-21T07:28:22Z</time>
      </trkpt>
      <trkpt lat="45.8406" lon="3.04254">
        <ele>563</ele>
        <time>2013-09-21T07:28:38Z</time>
      </trkpt>
      <trkpt lat="45.84078" lon="3.04205">
        <ele>568</ele>
        <time>2013-09-21T07:28:53Z</time>
      </trkpt>
      <trkpt lat="45.8406" lon="3.04162">
        <ele>571</ele>
        <time>2013-09-21T07:29:06Z</time>
      </trkpt>
      <trkpt lat="45.84027" lon="3.04089">
        <ele>570</ele>
        <time>2013-09-21T07:29:24Z</time>
      </trkpt>
      <trkpt lat="45.8401" lon="3.04004">
        <ele>571</ele>
        <time>2013-09-21T07:29:42Z</time>
      </trkpt>
      <trkpt lat="45.84002" lon="3.03936">
        <ele>576</ele>
        <time>2013-09-21T07:29:58Z</time>
      </trkpt>
      <trkpt lat="45.83987" lon="3.03916">
        <ele>579</ele>
        <time>2013-09-21T07:30:08Z</time>
      </trkpt>
      <trkpt lat="45.83971" lon="3.03885">
        <ele>581</ele>
        <time>2013-09-21T07:30:21Z</time>
      </trkpt>
      <trkpt lat="45.83977" lon="3.03829">
        <ele>586</ele>
        <time>2013-09-21T07:30:37Z</time>
      </trkpt>
      <trkpt lat="45.83986" lon="3.03776">
        <ele>588</ele>
        <time>2013-09-21T07:30:53Z</time>
      </trkpt>
      <trkpt lat="45.84005" lon="3.03728">
        <ele>591</ele>
        <time>2013-09-21T07:31:09Z</time>
      </trkpt>
      <trkpt lat="45.84024" lon="3.03693">
        <ele>593</ele>
        <time>2013-09-21T07:31:23Z</time>
      </trkpt>
      <trkpt lat="45.84039" lon="3.03657">
        <ele>596</ele>
        <time>2013-09-21T07:31:38Z</time>
      </trkpt>
      <trkpt lat="45.84054" lon="3.03618">
        <ele>598</ele>
        <time>2013-09-21T07:31:54Z</time>
      </trkpt>
      <trkpt lat="45.84067" lon="3.03581">
        <ele>601</ele>
        <time>2013-09-21T07:32:09Z</time>
      </trkpt>
      <trkpt lat="45.84076" lon="3.03545">
        <ele>602</ele>
        <time>2013-09-21T07:32:23Z</time>
      </trkpt>
      <trkpt lat="45.84098" lon="3.03503">
        <ele>604</ele>
        <time>2013-09-21T07:32:39Z</time>
      </trkpt>
      <trkpt lat="45.84106" lon="3.03454">
        <ele>607</ele>
        <time>2013-09-21T07:32:53Z</time>
      </trkpt>
      <trkpt lat="45.84103" lon="3.03422">
        <ele>607</ele>
        <time>2013-09-21T07:33:02Z</time>
      </trkpt>
      <trkpt lat="45.84108" lon="3.03365">
        <ele>610</ele>
        <time>2013-09-21T07:33:18Z</time>
      </trkpt>
      <trkpt lat="45.84125" lon="3.03312">
        <ele>613</ele>
        <time>2013-09-21T07:33:35Z</time>
      </trkpt>
      <trkpt lat="45.84143" lon="3.03263">
        <ele>615</ele>
        <time>2013-09-21T07:33:52Z</time>
      </trkpt>
      <trkpt lat="45.84156" lon="3.03227">
        <ele>618</ele>
        <time>2013-09-21T07:34:06Z</time>
      </trkpt>
      <trkpt lat="45.84155" lon="3.03187">
        <ele>619</ele>
        <time>2013-09-21T07:34:19Z</time>
      </trkpt>
      <trkpt lat="45.84155" lon="3.03123">
        <ele>620</ele>
        <time>2013-09-21T07:34:34Z</time>
      </trkpt>
      <trkpt lat="45.84162" lon="3.03057">
        <ele>621</ele>
        <time>2013-09-21T07:34:48Z</time>
      </trkpt>
      <trkpt lat="45.84171" lon="3.02976">
        <ele>625</ele>
        <time>2013-09-21T07:35:04Z</time>
      </trkpt>
      <trkpt lat="45.84175" lon="3.029">
        <ele>626</ele>
        <time>2013-09-21T07:35:21Z</time>
      </trkpt>
      <trkpt lat="45.84187" lon="3.02841">
        <ele>628</ele>
        <time>2013-09-21T07:35:34Z</time>
      </trkpt>
      <trkpt lat="45.84201" lon="3.02775">
        <ele>631</ele>
        <time>2013-09-21T07:35:49Z</time>
      </trkpt>
      <trkpt lat="45.84211" lon="3.02702">
        <ele>635</ele>
        <time>2013-09-21T07:36:05Z</time>
      </trkpt>
      <trkpt lat="45.84226" lon="3.02644">
        <ele>637</ele>
        <time>2013-09-21T07:36:20Z</time>
      </trkpt>
      <trkpt lat="45.84248" lon="3.02588">
        <ele>637</ele>
        <time>2013-09-21T07:36:35Z</time>
      </trkpt>
      <trkpt lat="45.84275" lon="3.0252">
        <ele>639</ele>
        <time>2013-09-21T07:36:52Z</time>
      </trkpt>
      <trkpt lat="45.84305" lon="3.02542">
        <ele>640</ele>
        <time>2013-09-21T07:37:03Z</time>
      </trkpt>
      <trkpt lat="45.84348" lon="3.02558">
        <ele>643</ele>
        <time>2013-09-21T07:37:18Z</time>
      </trkpt>
      <trkpt lat="45.8437" lon="3.02533">
        <ele>644</ele>
        <time>2013-09-21T07:37:31Z</time>
      </trkpt>
      <trkpt lat="45.84388" lon="3.02513">
        <ele>645</ele>
        <time>2013-09-21T07:37:43Z</time>
      </trkpt>
      <trkpt lat="45.84418" lon="3.02495">
        <ele>650</ele>
        <time>2013-09-21T07:37:58Z</time>
      </trkpt>
      <trkpt lat="45.8443" lon="3.02432">
        <ele>653</ele>
        <time>2013-09-21T07:38:18Z</time>
      </trkpt>
      <trkpt lat="45.84424" lon="3.02376">
        <ele>656</ele>
        <time>2013-09-21T07:38:35Z</time>
      </trkpt>
      <trkpt lat="45.84415" lon="3.02306">
        <ele>661</ele>
        <time>2013-09-21T07:38:54Z</time>
      </trkpt>
      <trkpt lat="45.84418" lon="3.02249">
        <ele>664</ele>
        <time>2013-09-21T07:39:10Z</time>
      </trkpt>
      <trkpt lat="45.84423" lon="3.02204">
        <ele>669</ele>
        <time>2013-09-21T07:39:23Z</time>
      </trkpt>
      <trkpt lat="45.84425" lon="3.02202">
        <ele>670</ele>
        <time>2013-09-21T07:39:24Z</time>
      </trkpt>
      <trkpt lat="45.84437" lon="3.02199">
        <ele>670</ele>
        <time>2013-09-21T07:39:29Z</time>
      </trkpt>
      <trkpt lat="45.84472" lon="3.02188">
        <ele>670</ele>
        <time>2013-09-21T07:39:45Z</time>
      </trkpt>
      <trkpt lat="45.84502" lon="3.02155">
        <ele>674</ele>
        <time>2013-09-21T07:39:59Z</time>
      </trkpt>
      <trkpt lat="45.8452" lon="3.02132">
        <ele>676</ele>
        <time>2013-09-21T07:40:11Z</time>
      </trkpt>
      <trkpt lat="45.84535" lon="3.02108">
        <ele>678</ele>
        <time>2013-09-21T07:40:23Z</time>
      </trkpt>
      <trkpt lat="45.84541" lon="3.02078">
        <ele>684</ele>
        <time>2013-09-21T07:40:37Z</time>
      </trkpt>
      <trkpt lat="45.84543" lon="3.02045">
        <ele>685</ele>
        <time>2013-09-21T07:40:51Z</time>
      </trkpt>
      <trkpt lat="45.84554" lon="3.0201">
        <ele>687</ele>
        <time>2013-09-21T07:41:07Z</time>
      </trkpt>
      <trkpt lat="45.84569" lon="3.01976">
        <ele>692</ele>
        <time>2013-09-21T07:41:21Z</time>
      </trkpt>
      <trkpt lat="45.84573" lon="3.01945">
        <ele>694</ele>
        <time>2013-09-21T07:41:35Z</time>
      </trkpt>
      <trkpt lat="45.84576" lon="3.01906">
        <ele>698</ele>
        <time>2013-09-21T07:41:51Z</time>
      </trkpt>
      <trkpt lat="45.84577" lon="3.0187">
        <ele>700</ele>
        <time>2013-09-21T07:42:05Z</time>
      </trkpt>
      <trkpt lat="45.84573" lon="3.01833">
        <ele>703</ele>
        <time>2013-09-21T07:42:21Z</time>
      </trkpt>
      <trkpt lat="45.84569" lon="3.01798">
        <ele>706</ele>
        <time>2013-09-21T07:42:36Z</time>
      </trkpt>
      <trkpt lat="45.84561" lon="3.01752">
        <ele>708</ele>
        <time>2013-09-21T07:42:53Z</time>
      </trkpt>
      <trkpt lat="45.8456" lon="3.01708">
        <ele>712</ele>
        <time>2013-09-21T07:43:09Z</time>
      </trkpt>
      <trkpt lat="45.84546" lon="3.01654">
        <ele>717</ele>
        <time>2013-09-21T07:43:23Z</time>
      </trkpt>
      <trkpt lat="45.84533" lon="3.01588">
        <ele>718</ele>
        <time>2013-09-21T07:43:41Z</time>
      </trkpt>
      <trkpt lat="45.84495" lon="3.01566">
        <ele>720</ele>
        <time>2013-09-21T07:43:54Z</time>
      </trkpt>
      <trkpt lat="45.84481" lon="3.01516">
        <ele>724</ele>
        <time>2013-09-21T07:44:07Z</time>
      </trkpt>
      <trkpt lat="45.84493" lon="3.01511">
        <ele>724</ele>
        <time>2013-09-21T07:44:11Z</time>
      </trkpt>
      <trkpt lat="45.84531" lon="3.01504">
        <ele>724</ele>
        <time>2013-09-21T07:44:27Z</time>
      </trkpt>
      <trkpt lat="45.84552" lon="3.01497">
        <ele>729</ele>
        <time>2013-09-21T07:44:39Z</time>
      </trkpt>
      <trkpt lat="45.84561" lon="3.01467">
        <ele>730</ele>
        <time>2013-09-21T07:44:53Z</time>
      </trkpt>
      <trkpt lat="45.84567" lon="3.01431">
        <ele>732</ele>
        <time>2013-09-21T07:45:10Z</time>
      </trkpt>
      <trkpt lat="45.84571" lon="3.01395">
        <ele>735</ele>
        <time>2013-09-21T07:45:26Z</time>
      </trkpt>
      <trkpt lat="45.84564" lon="3.01357">
        <ele>737</ele>
        <time>2013-09-21T07:45:43Z</time>
      </trkpt>
      <trkpt lat="45.84573" lon="3.01325">
        <ele>741</ele>
        <time>2013-09-21T07:45:58Z</time>
      </trkpt>
      <trkpt lat="45.84575" lon="3.01287">
        <ele>743</ele>
        <time>2013-09-21T07:46:15Z</time>
      </trkpt>
      <trkpt lat="45.84575" lon="3.01262">
        <ele>745</ele>
        <time>2013-09-21T07:46:24Z</time>
      </trkpt>
      <trkpt lat="45.84567" lon="3.01222">
        <ele>748</ele>
        <time>2013-09-21T07:46:39Z</time>
      </trkpt>
      <trkpt lat="45.84567" lon="3.01177">
        <ele>749</ele>
        <time>2013-09-21T07:46:54Z</time>
      </trkpt>
      <trkpt lat="45.84572" lon="3.01137">
        <ele>751</ele>
        <time>2013-09-21T07:47:07Z</time>
      </trkpt>
      <trkpt lat="45.8458" lon="3.01087">
        <ele>753</ele>
        <time>2013-09-21T07:47:23Z</time>
      </trkpt>
      <trkpt lat="45.84584" lon="3.0104">
        <ele>756</ele>
        <time>2013-09-21T07:47:37Z</time>
      </trkpt>
      <trkpt lat="45.84601" lon="3.00982">
        <ele>757</ele>
        <time>2013-09-21T07:47:52Z</time>
      </trkpt>
      <trkpt lat="45.8459" lon="3.0093">
        <ele>757</ele>
        <time>2013-09-21T07:48:05Z</time>
      </trkpt>
      <trkpt lat="45.84586" lon="3.00881">
        <ele>759</ele>
        <time>2013-09-21T07:48:20Z</time>
      </trkpt>
      <trkpt lat="45.84593" lon="3.00819">
        <ele>762</ele>
        <time>2013-09-21T07:48:36Z</time>
      </trkpt>
      <trkpt lat="45.84604" lon="3.00758">
        <ele>763</ele>
        <time>2013-09-21T07:48:53Z</time>
      </trkpt>
      <trkpt lat="45.84615" lon="3.00713">
        <ele>766</ele>
        <time>2013-09-21T07:49:09Z</time>
      </trkpt>
      <trkpt lat="45.84622" lon="3.00664">
        <ele>768</ele>
        <time>2013-09-21T07:49:24Z</time>
      </trkpt>
      <trkpt lat="45.84627" lon="3.00621">
        <ele>769</ele>
        <time>2013-09-21T07:49:38Z</time>
      </trkpt>
      <trkpt lat="45.8463" lon="3.00601">
        <ele>770</ele>
        <time>2013-09-21T07:49:44Z</time>
      </trkpt>
      <trkpt lat="45.8463" lon="3.00594">
        <ele>770</ele>
        <time>2013-09-21T07:49:46Z</time>
      </trkpt>
      <trkpt lat="45.84636" lon="3.00566">
        <ele>772</ele>
        <time>2013-09-21T07:49:57Z</time>
      </trkpt>
      <trkpt lat="45.84638" lon="3.00567">
        <ele>772</ele>
        <time>2013-09-21T07:50:14Z</time>
      </trkpt>
      <trkpt lat="45.84638" lon="3.00567">
        <ele>772</ele>
        <time>2013-09-21T07:50:49Z</time>
      </trkpt>
      <trkpt lat="45.84638" lon="3.00568">
        <ele>772</ele>
        <time>2013-09-21T07:51:00Z</time>
      </trkpt>
      <trkpt lat="45.84635" lon="3.0057">
        <ele>772</ele>
        <time>2013-09-21T07:51:05Z</time>
      </trkpt>
      <trkpt lat="45.84632" lon="3.00568">
        <ele>772</ele>
        <time>2013-09-21T07:51:11Z</time>
      </trkpt>
      <trkpt lat="45.84633" lon="3.00543">
        <ele>773</ele>
        <time>2013-09-21T07:51:21Z</time>
      </trkpt>
      <trkpt lat="45.84635" lon="3.0049">
        <ele>775</ele>
        <time>2013-09-21T07:51:40Z</time>
      </trkpt>
      <trkpt lat="45.84638" lon="3.00434">
        <ele>777</ele>
        <time>2013-09-21T07:51:57Z</time>
      </trkpt>
      <trkpt lat="45.84644" lon="3.00373">
        <ele>781</ele>
        <time>2013-09-21T07:52:15Z</time>
      </trkpt>
      <trkpt lat="45.84658" lon="3.00332">
        <ele>785</ele>
        <time>2013-09-21T07:52:30Z</time>
      </trkpt>
      <trkpt lat="45.84672" lon="3.00287">
        <ele>792</ele>
        <time>2013-09-21T07:52:47Z</time>
      </trkpt>
      <trkpt lat="45.84687" lon="3.00245">
        <ele>795</ele>
        <time>2013-09-21T07:53:02Z</time>
      </trkpt>
      <trkpt lat="45.847" lon="3.002">
        <ele>797</ele>
        <time>2013-09-21T07:53:17Z</time>
      </trkpt>
      <trkpt lat="45.8471" lon="3.00153">
        <ele>800</ele>
        <time>2013-09-21T07:53:33Z</time>
      </trkpt>
      <trkpt lat="45.84726" lon="3.00099">
        <ele>801</ele>
        <time>2013-09-21T07:53:49Z</time>
      </trkpt>
      <trkpt lat="45.84731" lon="3.00058">
        <ele>803</ele>
        <time>2013-09-21T07:54:05Z</time>
      </trkpt>
      <trkpt lat="45.84737" lon="3.00012">
        <ele>804</ele>
        <time>2013-09-21T07:54:20Z</time>
      </trkpt>
      <trkpt lat="45.84742" lon="2.99956">
        <ele>806</ele>
        <time>2013-09-21T07:54:35Z</time>
      </trkpt>
      <trkpt lat="45.84736" lon="2.99901">
        <ele>809</ele>
        <time>2013-09-21T07:54:51Z</time>
      </trkpt>
      <trkpt lat="45.84731" lon="2.99852">
        <ele>811</ele>
        <time>2013-09-21T07:55:06Z</time>
      </trkpt>
      <trkpt lat="45.84732" lon="2.9981">
        <ele>813</ele>
        <time>2013-09-21T07:55:20Z</time>
      </trkpt>
      <trkpt lat="45.84741" lon="2.99761">
        <ele>813</ele>
        <time>2013-09-21T07:55:34Z</time>
      </trkpt>
      <trkpt lat="45.84759" lon="2.99708">
        <ele>814</ele>
        <time>2013-09-21T07:55:49Z</time>
      </trkpt>
      <trkpt lat="45.84769" lon="2.9965">
        <ele>816</ele>
        <time>2013-09-21T07:56:04Z</time>
      </trkpt>
      <trkpt lat="45.84778" lon="2.99595">
        <ele>817</ele>
        <time>2013-09-21T07:56:19Z</time>
      </trkpt>
      <trkpt lat="45.84805" lon="2.99547">
        <ele>822</ele>
        <time>2013-09-21T07:56:34Z</time>
      </trkpt>
      <trkpt lat="45.84792" lon="2.99503">
        <ele>823</ele>
        <time>2013-09-21T07:56:47Z</time>
      </trkpt>
      <trkpt lat="45.84765" lon="2.9947">
        <ele>828</ele>
        <time>2013-09-21T07:57:02Z</time>
      </trkpt>
      <trkpt lat="45.84736" lon="2.99439">
        <ele>830</ele>
        <time>2013-09-21T07:57:19Z</time>
      </trkpt>
      <trkpt lat="45.84706" lon="2.99409">
        <ele>834</ele>
        <time>2013-09-21T07:57:35Z</time>
      </trkpt>
      <trkpt lat="45.84676" lon="2.99376">
        <ele>835</ele>
        <time>2013-09-21T07:57:51Z</time>
      </trkpt>
      <trkpt lat="45.84652" lon="2.99349">
        <ele>834</ele>
        <time>2013-09-21T07:58:06Z</time>
      </trkpt>
      <trkpt lat="45.84634" lon="2.99327">
        <ele>838</ele>
        <time>2013-09-21T07:58:21Z</time>
      </trkpt>
      <trkpt lat="45.84615" lon="2.9931">
        <ele>837</ele>
        <time>2013-09-21T07:58:28Z</time>
      </trkpt>
      <trkpt lat="45.84611" lon="2.99272">
        <ele>839</ele>
        <time>2013-09-21T07:58:43Z</time>
      </trkpt>
      <trkpt lat="45.8461" lon="2.99231">
        <ele>843</ele>
        <time>2013-09-21T07:59:01Z</time>
      </trkpt>
      <trkpt lat="45.84614" lon="2.99186">
        <ele>845</ele>
        <time>2013-09-21T07:59:18Z</time>
      </trkpt>
      <trkpt lat="45.84617" lon="2.9914">
        <ele>847</ele>
        <time>2013-09-21T07:59:34Z</time>
      </trkpt>
      <trkpt lat="45.84619" lon="2.991">
        <ele>848</ele>
        <time>2013-09-21T07:59:47Z</time>
      </trkpt>
      <trkpt lat="45.84621" lon="2.99063">
        <ele>849</ele>
        <time>2013-09-21T08:00:00Z</time>
      </trkpt>
      <trkpt lat="45.8462" lon="2.99039">
        <ele>850</ele>
        <time>2013-09-21T08:00:11Z</time>
      </trkpt>
      <trkpt lat="45.84627" lon="2.99">
        <ele>850</ele>
        <time>2013-09-21T08:00:25Z</time>
      </trkpt>
      <trkpt lat="45.8463" lon="2.98957">
        <ele>852</ele>
        <time>2013-09-21T08:00:40Z</time>
      </trkpt>
      <trkpt lat="45.84633" lon="2.98917">
        <ele>853</ele>
        <time>2013-09-21T08:00:55Z</time>
      </trkpt>
      <trkpt lat="45.84634" lon="2.98865">
        <ele>854</ele>
        <time>2013-09-21T08:01:11Z</time>
      </trkpt>
      <trkpt lat="45.8464" lon="2.9882">
        <ele>856</ele>
        <time>2013-09-21T08:01:24Z</time>
      </trkpt>
      <trkpt lat="45.84641" lon="2.98787">
        <ele>856</ele>
        <time>2013-09-21T08:01:37Z</time>
      </trkpt>
      <trkpt lat="45.84646" lon="2.98738">
        <ele>858</ele>
        <time>2013-09-21T08:01:51Z</time>
      </trkpt>
      <trkpt lat="45.84646" lon="2.98701">
        <ele>858</ele>
        <time>2013-09-21T08:02:05Z</time>
      </trkpt>
      <trkpt lat="45.84647" lon="2.98683">
        <ele>858</ele>
        <time>2013-09-21T08:02:20Z</time>
      </trkpt>
      <trkpt lat="45.84649" lon="2.98658">
        <ele>860</ele>
        <time>2013-09-21T08:02:33Z</time>
      </trkpt>
      <trkpt lat="45.84653" lon="2.98606">
        <ele>861</ele>
        <time>2013-09-21T08:02:49Z</time>
      </trkpt>
      <trkpt lat="45.84657" lon="2.98564">
        <ele>862</ele>
        <time>2013-09-21T08:03:04Z</time>
      </trkpt>
      <trkpt lat="45.8466" lon="2.9852">
        <ele>863</ele>
        <time>2013-09-21T08:03:19Z</time>
      </trkpt>
      <trkpt lat="45.84662" lon="2.98477">
        <ele>864</ele>
        <time>2013-09-21T08:03:35Z</time>
      </trkpt>
      <trkpt lat="45.84666" lon="2.98434">
        <ele>865</ele>
        <time>2013-09-21T08:03:50Z</time>
      </trkpt>
      <trkpt lat="45.84669" lon="2.98384">
        <ele>867</ele>
        <time>2013-09-21T08:04:06Z</time>
      </trkpt>
      <trkpt lat="45.84671" lon="2.98346">
        <ele>868</ele>
        <time>2013-09-21T08:04:20Z</time>
      </trkpt>
      <trkpt lat="45.84674" lon="2.98301">
        <ele>870</ele>
        <time>2013-09-21T08:04:36Z</time>
      </trkpt>
      <trkpt lat="45.84677" lon="2.98261">
        <ele>871</ele>
        <time>2013-09-21T08:04:49Z</time>
      </trkpt>
      <trkpt lat="45.84681" lon="2.98217">
        <ele>874</ele>
        <time>2013-09-21T08:05:03Z</time>
      </trkpt>
      <trkpt lat="45.84684" lon="2.98166">
        <ele>876</ele>
        <time>2013-09-21T08:05:20Z</time>
      </trkpt>
      <trkpt lat="45.84682" lon="2.98126">
        <ele>876</ele>
        <time>2013-09-21T08:05:35Z</time>
      </trkpt>
      <trkpt lat="45.84684" lon="2.98115">
        <ele>876</ele>
        <time>2013-09-21T08:05:41Z</time>
      </trkpt>
      <trkpt lat="45.84686" lon="2.98103">
        <ele>876</ele>
        <time>2013-09-21T08:05:45Z</time>
      </trkpt>
      <trkpt lat="45.84697" lon="2.98068">
        <ele>876</ele>
        <time>2013-09-21T08:06:01Z</time>
      </trkpt>
      <trkpt lat="45.84736" lon="2.98093">
        <ele>875</ele>
        <time>2013-09-21T08:06:13Z</time>
      </trkpt>
      <trkpt lat="45.84794" lon="2.98128">
        <ele>872</ele>
        <time>2013-09-21T08:06:28Z</time>
      </trkpt>
      <trkpt lat="45.84864" lon="2.98171">
        <ele>872</ele>
        <time>2013-09-21T08:06:43Z</time>
      </trkpt>
      <trkpt lat="45.84885" lon="2.98166">
        <ele>872</ele>
        <time>2013-09-21T08:06:48Z</time>
      </trkpt>
      <trkpt lat="45.84897" lon="2.98104">
        <ele>873</ele>
        <time>2013-09-21T08:07:02Z</time>
      </trkpt>
      <trkpt lat="45.84912" lon="2.98069">
        <ele>874</ele>
        <time>2013-09-21T08:07:15Z</time>
      </trkpt>
      <trkpt lat="45.84921" lon="2.98049">
        <ele>877</ele>
        <time>2013-09-21T08:07:25Z</time>
      </trkpt>
      <trkpt lat="45.84924" lon="2.98022">
        <ele>877</ele>
        <time>2013-09-21T08:07:37Z</time>
      </trkpt>
      <trkpt lat="45.84931" lon="2.98009">
        <ele>877</ele>
        <time>2013-09-21T08:07:42Z</time>
      </trkpt>
      <trkpt lat="45.84967" lon="2.97955">
        <ele>880</ele>
        <time>2013-09-21T08:07:59Z</time>
      </trkpt>
      <trkpt lat="45.85008" lon="2.97907">
        <ele>881</ele>
        <time>2013-09-21T08:08:16Z</time>
      </trkpt>
      <trkpt lat="45.85053" lon="2.97879">
        <ele>882</ele>
        <time>2013-09-21T08:08:29Z</time>
      </trkpt>
      <trkpt lat="45.85083" lon="2.9787">
        <ele>882</ele>
        <time>2013-09-21T08:08:41Z</time>
      </trkpt>
      <trkpt lat="45.85111" lon="2.97867">
        <ele>886</ele>
        <time>2013-09-21T08:08:57Z</time>
      </trkpt>
      <trkpt lat="45.85115" lon="2.97854">
        <ele>886</ele>
        <time>2013-09-21T08:09:06Z</time>
      </trkpt>
      <trkpt lat="45.85108" lon="2.97846">
        <ele>885</ele>
        <time>2013-09-21T08:09:10Z</time>
      </trkpt>
      <trkpt lat="45.85075" lon="2.97824">
        <ele>884</ele>
        <time>2013-09-21T08:09:25Z</time>
      </trkpt>
      <trkpt lat="45.85038" lon="2.9781">
        <ele>885</ele>
        <time>2013-09-21T08:09:38Z</time>
      </trkpt>
      <trkpt lat="45.85004" lon="2.97817">
        <ele>884</ele>
        <time>2013-09-21T08:09:53Z</time>
      </trkpt>
      <trkpt lat="45.84968" lon="2.97843">
        <ele>884</ele>
        <time>2013-09-21T08:10:10Z</time>
      </trkpt>
      <trkpt lat="45.8494" lon="2.97875">
        <ele>884</ele>
        <time>2013-09-21T08:10:26Z</time>
      </trkpt>
      <trkpt lat="45.84903" lon="2.97884">
        <ele>886</ele>
        <time>2013-09-21T08:10:40Z</time>
      </trkpt>
      <trkpt lat="45.84879" lon="2.97874">
        <ele>887</ele>
        <time>2013-09-21T08:10:49Z</time>
      </trkpt>
      <trkpt lat="45.84848" lon="2.97873">
        <ele>888</ele>
        <time>2013-09-21T08:11:04Z</time>
      </trkpt>
      <trkpt lat="45.84801" lon="2.97889">
        <ele>888</ele>
        <time>2013-09-21T08:11:22Z</time>
      </trkpt>
      <trkpt lat="45.84762" lon="2.97879">
        <ele>889</ele>
        <time>2013-09-21T08:11:35Z</time>
      </trkpt>
      <trkpt lat="45.84725" lon="2.97857">
        <ele>890</ele>
        <time>2013-09-21T08:11:51Z</time>
      </trkpt>
      <trkpt lat="45.84709" lon="2.9783">
        <ele>897</ele>
        <time>2013-09-21T08:12:03Z</time>
      </trkpt>
      <trkpt lat="45.8472" lon="2.97823">
        <ele>898</ele>
        <time>2013-09-21T08:12:09Z</time>
      </trkpt>
      <trkpt lat="45.84726" lon="2.97824">
        <ele>897</ele>
        <time>2013-09-21T08:12:11Z</time>
      </trkpt>
      <trkpt lat="45.84764" lon="2.97814">
        <ele>898</ele>
        <time>2013-09-21T08:12:25Z</time>
      </trkpt>
      <trkpt lat="45.84786" lon="2.97774">
        <ele>901</ele>
        <time>2013-09-21T08:12:42Z</time>
      </trkpt>
      <trkpt lat="45.84813" lon="2.97726">
        <ele>909</ele>
        <time>2013-09-21T08:13:01Z</time>
      </trkpt>
      <trkpt lat="45.84843" lon="2.97696">
        <ele>909</ele>
        <time>2013-09-21T08:13:20Z</time>
      </trkpt>
      <trkpt lat="45.84858" lon="2.97685">
        <ele>910</ele>
        <time>2013-09-21T08:13:29Z</time>
      </trkpt>
      <trkpt lat="45.84889" lon="2.97667">
        <ele>911</ele>
        <time>2013-09-21T08:13:46Z</time>
      </trkpt>
      <trkpt lat="45.84916" lon="2.97648">
        <ele>919</ele>
        <time>2013-09-21T08:14:01Z</time>
      </trkpt>
      <trkpt lat="45.84944" lon="2.97641">
        <ele>918</ele>
        <time>2013-09-21T08:14:16Z</time>
      </trkpt>
      <trkpt lat="45.84975" lon="2.97631">
        <ele>918</ele>
        <time>2013-09-21T08:14:33Z</time>
      </trkpt>
      <trkpt lat="45.85003" lon="2.97604">
        <ele>919</ele>
        <time>2013-09-21T08:14:48Z</time>
      </trkpt>
      <trkpt lat="45.85024" lon="2.97584">
        <ele>920</ele>
        <time>2013-09-21T08:15:02Z</time>
      </trkpt>
      <trkpt lat="45.85051" lon="2.9757">
        <ele>932</ele>
        <time>2013-09-21T08:15:18Z</time>
      </trkpt>
      <trkpt lat="45.85079" lon="2.97559">
        <ele>932</ele>
        <time>2013-09-21T08:15:34Z</time>
      </trkpt>
      <trkpt lat="45.85108" lon="2.97565">
        <ele>936</ele>
        <time>2013-09-21T08:15:49Z</time>
      </trkpt>
      <trkpt lat="45.85136" lon="2.97582">
        <ele>937</ele>
        <time>2013-09-21T08:16:05Z</time>
      </trkpt>
      <trkpt lat="45.85163" lon="2.97588">
        <ele>933</ele>
        <time>2013-09-21T08:16:21Z</time>
      </trkpt>
      <trkpt lat="45.85192" lon="2.97598">
        <ele>933</ele>
        <time>2013-09-21T08:16:37Z</time>
      </trkpt>
      <trkpt lat="45.85218" lon="2.97597">
        <ele>934</ele>
        <time>2013-09-21T08:16:52Z</time>
      </trkpt>
      <trkpt lat="45.85233" lon="2.97602">
        <ele>935</ele>
        <time>2013-09-21T08:17:08Z</time>
      </trkpt>
      <trkpt lat="45.85239" lon="2.97601">
        <ele>936</ele>
        <time>2013-09-21T08:17:22Z</time>
      </trkpt>
      <trkpt lat="45.85243" lon="2.97597">
        <ele>937</ele>
        <time>2013-09-21T08:17:33Z</time>
      </trkpt>
      <trkpt lat="45.85233" lon="2.97573">
        <ele>945</ele>
        <time>2013-09-21T08:17:45Z</time>
      </trkpt>
      <trkpt lat="45.85229" lon="2.97565">
        <ele>946</ele>
        <time>2013-09-21T08:17:49Z</time>
      </trkpt>
      <trkpt lat="45.85219" lon="2.97549">
        <ele>948</ele>
        <time>2013-09-21T08:18:00Z</time>
      </trkpt>
      <trkpt lat="45.85207" lon="2.97531">
        <ele>950</ele>
        <time>2013-09-21T08:18:11Z</time>
      </trkpt>
      <trkpt lat="45.85198" lon="2.97514">
        <ele>951</ele>
        <time>2013-09-21T08:18:22Z</time>
      </trkpt>
      <trkpt lat="45.85189" lon="2.97494">
        <ele>963</ele>
        <time>2013-09-21T08:18:34Z</time>
      </trkpt>
      <trkpt lat="45.8518" lon="2.97484">
        <ele>963</ele>
        <time>2013-09-21T08:18:43Z</time>
      </trkpt>
      <trkpt lat="45.85164" lon="2.97464">
        <ele>962</ele>
        <time>2013-09-21T08:18:58Z</time>
      </trkpt>
      <trkpt lat="45.85163" lon="2.97453">
        <ele>964</ele>
        <time>2013-09-21T08:19:04Z</time>
      </trkpt>
      <trkpt lat="45.85148" lon="2.97425">
        <ele>968</ele>
        <time>2013-09-21T08:19:17Z</time>
      </trkpt>
      <trkpt lat="45.85141" lon="2.97411">
        <ele>980</ele>
        <time>2013-09-21T08:19:25Z</time>
      </trkpt>
      <trkpt lat="45.8513" lon="2.97391">
        <ele>981</ele>
        <time>2013-09-21T08:19:37Z</time>
      </trkpt>
      <trkpt lat="45.85116" lon="2.9738">
        <ele>982</ele>
        <time>2013-09-21T08:19:48Z</time>
      </trkpt>
      <trkpt lat="45.85102" lon="2.97367">
        <ele>984</ele>
        <time>2013-09-21T08:20:00Z</time>
      </trkpt>
      <trkpt lat="45.85088" lon="2.97355">
        <ele>986</ele>
        <time>2013-09-21T08:20:13Z</time>
      </trkpt>
      <trkpt lat="45.85088" lon="2.9735">
        <ele>987</ele>
        <time>2013-09-21T08:20:15Z</time>
      </trkpt>
      <trkpt lat="45.8509" lon="2.9733">
        <ele>993</ele>
        <time>2013-09-21T08:20:25Z</time>
      </trkpt>
      <trkpt lat="45.85096" lon="2.97313">
        <ele>995</ele>
        <time>2013-09-21T08:20:35Z</time>
      </trkpt>
      <trkpt lat="45.85113" lon="2.97292">
        <ele>997</ele>
        <time>2013-09-21T08:20:50Z</time>
      </trkpt>
      <trkpt lat="45.85123" lon="2.97279">
        <ele>998</ele>
        <time>2013-09-21T08:21:01Z</time>
      </trkpt>
      <trkpt lat="45.85141" lon="2.97261">
        <ele>999</ele>
        <time>2013-09-21T08:21:16Z</time>
      </trkpt>
      <trkpt lat="45.85158" lon="2.97227">
        <ele>1004</ele>
        <time>2013-09-21T08:21:32Z</time>
      </trkpt>
      <trkpt lat="45.85186" lon="2.97179">
        <ele>1004</ele>
        <time>2013-09-21T08:21:48Z</time>
      </trkpt>
      <trkpt lat="45.85203" lon="2.97148">
        <ele>1006</ele>
        <time>2013-09-21T08:22:02Z</time>
      </trkpt>
      <trkpt lat="45.85213" lon="2.97107">
        <ele>1006</ele>
        <time>2013-09-21T08:22:16Z</time>
      </trkpt>
      <trkpt lat="45.85213" lon="2.97093">
        <ele>1007</ele>
        <time>2013-09-21T08:22:20Z</time>
      </trkpt>
      <trkpt lat="45.8523" lon="2.97051">
        <ele>1010</ele>
        <time>2013-09-21T08:22:36Z</time>
      </trkpt>
      <trkpt lat="45.85231" lon="2.97046">
        <ele>1010</ele>
        <time>2013-09-21T08:22:39Z</time>
      </trkpt>
      <trkpt lat="45.85236" lon="2.97004">
        <ele>1010</ele>
        <time>2013-09-21T08:22:55Z</time>
      </trkpt>
      <trkpt lat="45.85245" lon="2.96949">
        <ele>1015</ele>
        <time>2013-09-21T08:23:12Z</time>
      </trkpt>
      <trkpt lat="45.85246" lon="2.96908">
        <ele>1017</ele>
        <time>2013-09-21T08:23:29Z</time>
      </trkpt>
      <trkpt lat="45.85234" lon="2.96872">
        <ele>1020</ele>
        <time>2013-09-21T08:23:44Z</time>
      </trkpt>
      <trkpt lat="45.8523" lon="2.96828">
        <ele>1022</ele>
        <time>2013-09-21T08:23:59Z</time>
      </trkpt>
      <trkpt lat="45.85243" lon="2.96781">
        <ele>1023</ele>
        <time>2013-09-21T08:24:14Z</time>
      </trkpt>
      <trkpt lat="45.85244" lon="2.96778">
        <ele>1023</ele>
        <time>2013-09-21T08:24:15Z</time>
      </trkpt>
      <trkpt lat="45.85284" lon="2.96717">
        <ele>1016</ele>
        <time>2013-09-21T08:24:31Z</time>
      </trkpt>
      <trkpt lat="45.85299" lon="2.96652">
        <ele>1017</ele>
        <time>2013-09-21T08:24:46Z</time>
      </trkpt>
      <trkpt lat="45.85295" lon="2.96636">
        <ele>1018</ele>
        <time>2013-09-21T08:24:51Z</time>
      </trkpt>
      <trkpt lat="45.85266" lon="2.96602">
        <ele>1021</ele>
        <time>2013-09-21T08:25:04Z</time>
      </trkpt>
      <trkpt lat="45.85244" lon="2.96551">
        <ele>1032</ele>
        <time>2013-09-21T08:25:19Z</time>
      </trkpt>
      <trkpt lat="45.85228" lon="2.96508">
        <ele>1033</ele>
        <time>2013-09-21T08:25:34Z</time>
      </trkpt>
      <trkpt lat="45.85209" lon="2.96469">
        <ele>1036</ele>
        <time>2013-09-21T08:25:49Z</time>
      </trkpt>
      <trkpt lat="45.85189" lon="2.96436">
        <ele>1037</ele>
        <time>2013-09-21T08:26:05Z</time>
      </trkpt>
      <trkpt lat="45.85164" lon="2.96404">
        <ele>1039</ele>
        <time>2013-09-21T08:26:20Z</time>
      </trkpt>
      <trkpt lat="45.8512" lon="2.96358">
        <ele>1040</ele>
        <time>2013-09-21T08:26:36Z</time>
      </trkpt>
      <trkpt lat="45.85103" lon="2.96337">
        <ele>1039</ele>
        <time>2013-09-21T08:26:41Z</time>
      </trkpt>
      <trkpt lat="45.85086" lon="2.96313">
        <ele>1036</ele>
        <time>2013-09-21T08:26:45Z</time>
      </trkpt>
      <trkpt lat="45.85075" lon="2.96298">
        <ele>1037</ele>
        <time>2013-09-21T08:26:47Z</time>
      </trkpt>
      <trkpt lat="45.85046" lon="2.96233">
        <ele>1025</ele>
        <time>2013-09-21T08:26:51Z</time>
      </trkpt>
      <trkpt lat="45.85032" lon="2.96205">
        <ele>1024</ele>
        <time>2013-09-21T08:26:54Z</time>
      </trkpt>
      <trkpt lat="45.85021" lon="2.96191">
        <ele>1022</ele>
        <time>2013-09-21T08:26:56Z</time>
      </trkpt>
      <trkpt lat="45.84972" lon="2.96147">
        <ele>1014</ele>
        <time>2013-09-21T08:27:03Z</time>
      </trkpt>
      <trkpt lat="45.84929" lon="2.96099">
        <ele>1010</ele>
        <time>2013-09-21T08:27:09Z</time>
      </trkpt>
      <trkpt lat="45.84901" lon="2.96067">
        <ele>1006</ele>
        <time>2013-09-21T08:27:13Z</time>
      </trkpt>
      <trkpt lat="45.84895" lon="2.96059">
        <ele>1005</ele>
        <time>2013-09-21T08:27:14Z</time>
      </trkpt>
      <trkpt lat="45.84877" lon="2.96019">
        <ele>1004</ele>
        <time>2013-09-21T08:27:18Z</time>
      </trkpt>
      <trkpt lat="45.84869" lon="2.95985">
        <ele>1001</ele>
        <time>2013-09-21T08:27:21Z</time>
      </trkpt>
      <trkpt lat="45.84858" lon="2.95902">
        <ele>997</ele>
        <time>2013-09-21T08:27:28Z</time>
      </trkpt>
      <trkpt lat="45.84836" lon="2.95795">
        <ele>993</ele>
        <time>2013-09-21T08:27:40Z</time>
      </trkpt>
      <trkpt lat="45.84821" lon="2.95715">
        <ele>990</ele>
        <time>2013-09-21T08:27:48Z</time>
      </trkpt>
      <trkpt lat="45.8481" lon="2.95636">
        <ele>990</ele>
        <time>2013-09-21T08:28:00Z</time>
      </trkpt>
      <trkpt lat="45.84806" lon="2.95618">
        <ele>990</ele>
        <time>2013-09-21T08:28:03Z</time>
      </trkpt>
      <trkpt lat="45.84802" lon="2.95597">
        <ele>989</ele>
        <time>2013-09-21T08:28:06Z</time>
      </trkpt>
      <trkpt lat="45.84798" lon="2.95582">
        <ele>989</ele>
        <time>2013-09-21T08:28:08Z</time>
      </trkpt>
      <trkpt lat="45.8476" lon="2.95504">
        <ele>988</ele>
        <time>2013-09-21T08:28:20Z</time>
      </trkpt>
      <trkpt lat="45.84702" lon="2.95419">
        <ele>989</ele>
        <time>2013-09-21T08:28:34Z</time>
      </trkpt>
      <trkpt lat="45.8468" lon="2.95385">
        <ele>989</ele>
        <time>2013-09-21T08:28:39Z</time>
      </trkpt>
      <trkpt lat="45.84631" lon="2.95256">
        <ele>987</ele>
        <time>2013-09-21T08:28:53Z</time>
      </trkpt>
      <trkpt lat="45.84621" lon="2.95225">
        <ele>987</ele>
        <time>2013-09-21T08:28:56Z</time>
      </trkpt>
      <trkpt lat="45.84613" lon="2.9519">
        <ele>986</ele>
        <time>2013-09-21T08:28:59Z</time>
      </trkpt>
      <trkpt lat="45.84607" lon="2.95163">
        <ele>983</ele>
        <time>2013-09-21T08:29:01Z</time>
      </trkpt>
      <trkpt lat="45.84594" lon="2.95064">
        <ele>978</ele>
        <time>2013-09-21T08:29:09Z</time>
      </trkpt>
      <trkpt lat="45.84591" lon="2.95051">
        <ele>978</ele>
        <time>2013-09-21T08:29:10Z</time>
      </trkpt>
      <trkpt lat="45.84582" lon="2.95013">
        <ele>974</ele>
        <time>2013-09-21T08:29:13Z</time>
      </trkpt>
      <trkpt lat="45.84556" lon="2.94913">
        <ele>971</ele>
        <time>2013-09-21T08:29:20Z</time>
      </trkpt>
      <trkpt lat="45.84529" lon="2.94854">
        <ele>968</ele>
        <time>2013-09-21T08:29:25Z</time>
      </trkpt>
      <trkpt lat="45.84505" lon="2.94781">
        <ele>962</ele>
        <time>2013-09-21T08:29:31Z</time>
      </trkpt>
      <trkpt lat="45.84502" lon="2.94668">
        <ele>957</ele>
        <time>2013-09-21T08:29:40Z</time>
      </trkpt>
      <trkpt lat="45.84497" lon="2.94561">
        <ele>957</ele>
        <time>2013-09-21T08:29:49Z</time>
      </trkpt>
      <trkpt lat="45.84483" lon="2.94448">
        <ele>955</ele>
        <time>2013-09-21T08:29:59Z</time>
      </trkpt>
      <trkpt lat="45.84482" lon="2.94438">
        <ele>955</ele>
        <time>2013-09-21T08:30:00Z</time>
      </trkpt>
      <trkpt lat="45.84478" lon="2.94419">
        <ele>955</ele>
        <time>2013-09-21T08:30:02Z</time>
      </trkpt>
      <trkpt lat="45.8447" lon="2.94295">
        <ele>952</ele>
        <time>2013-09-21T08:30:14Z</time>
      </trkpt>
      <trkpt lat="45.84435" lon="2.94136">
        <ele>949</ele>
        <time>2013-09-21T08:30:29Z</time>
      </trkpt>
      <trkpt lat="45.84388" lon="2.93944">
        <ele>947</ele>
        <time>2013-09-21T08:30:47Z</time>
      </trkpt>
      <trkpt lat="45.84404" lon="2.93908">
        <ele>947</ele>
        <time>2013-09-21T08:30:53Z</time>
      </trkpt>
      <trkpt lat="45.84491" lon="2.93863">
        <ele>947</ele>
        <time>2013-09-21T08:31:09Z</time>
      </trkpt>
      <trkpt lat="45.84596" lon="2.93802">
        <ele>945</ele>
        <time>2013-09-21T08:31:26Z</time>
      </trkpt>
      <trkpt lat="45.84625" lon="2.93791">
        <ele>944</ele>
        <time>2013-09-21T08:31:30Z</time>
      </trkpt>
      <trkpt lat="45.84679" lon="2.93753">
        <ele>943</ele>
        <time>2013-09-21T08:31:37Z</time>
      </trkpt>
      <trkpt lat="45.84705" lon="2.93722">
        <ele>939</ele>
        <time>2013-09-21T08:31:41Z</time>
      </trkpt>
      <trkpt lat="45.84724" lon="2.93682">
        <ele>938</ele>
        <time>2013-09-21T08:31:45Z</time>
      </trkpt>
      <trkpt lat="45.84735" lon="2.93663">
        <ele>935</ele>
        <time>2013-09-21T08:31:47Z</time>
      </trkpt>
      <trkpt lat="45.84747" lon="2.93646">
        <ele>935</ele>
        <time>2013-09-21T08:31:49Z</time>
      </trkpt>
      <trkpt lat="45.84768" lon="2.93618">
        <ele>934</ele>
        <time>2013-09-21T08:31:52Z</time>
      </trkpt>
      <trkpt lat="45.84786" lon="2.93587">
        <ele>934</ele>
        <time>2013-09-21T08:31:55Z</time>
      </trkpt>
      <trkpt lat="45.84791" lon="2.93576">
        <ele>933</ele>
        <time>2013-09-21T08:31:56Z</time>
      </trkpt>
      <trkpt lat="45.84816" lon="2.9351">
        <ele>931</ele>
        <time>2013-09-21T08:32:01Z</time>
      </trkpt>
      <trkpt lat="45.84841" lon="2.93455">
        <ele>925</ele>
        <time>2013-09-21T08:32:05Z</time>
      </trkpt>
      <trkpt lat="45.84857" lon="2.93411">
        <ele>921</ele>
        <time>2013-09-21T08:32:08Z</time>
      </trkpt>
      <trkpt lat="45.84861" lon="2.93395">
        <ele>921</ele>
        <time>2013-09-21T08:32:09Z</time>
      </trkpt>
      <trkpt lat="45.84868" lon="2.93364">
        <ele>920</ele>
        <time>2013-09-21T08:32:11Z</time>
      </trkpt>
      <trkpt lat="45.84888" lon="2.93271">
        <ele>917</ele>
        <time>2013-09-21T08:32:17Z</time>
      </trkpt>
      <trkpt lat="45.84941" lon="2.93115">
        <ele>912</ele>
        <time>2013-09-21T08:32:29Z</time>
      </trkpt>
      <trkpt lat="45.84945" lon="2.93103">
        <ele>912</ele>
        <time>2013-09-21T08:32:30Z</time>
      </trkpt>
      <trkpt lat="45.84965" lon="2.93052">
        <ele>908</ele>
        <time>2013-09-21T08:32:34Z</time>
      </trkpt>
      <trkpt lat="45.84988" lon="2.93002">
        <ele>906</ele>
        <time>2013-09-21T08:32:38Z</time>
      </trkpt>
      <trkpt lat="45.85016" lon="2.92899">
        <ele>903</ele>
        <time>2013-09-21T08:32:45Z</time>
      </trkpt>
      <trkpt lat="45.85019" lon="2.92884">
        <ele>903</ele>
        <time>2013-09-21T08:32:46Z</time>
      </trkpt>
      <trkpt lat="45.85068" lon="2.92714">
        <ele>899</ele>
        <time>2013-09-21T08:32:59Z</time>
      </trkpt>
      <trkpt lat="45.85083" lon="2.92677">
        <ele>899</ele>
        <time>2013-09-21T08:33:02Z</time>
      </trkpt>
      <trkpt lat="45.85136" lon="2.92617">
        <ele>899</ele>
        <time>2013-09-21T08:33:10Z</time>
      </trkpt>
      <trkpt lat="45.85152" lon="2.926">
        <ele>898</ele>
        <time>2013-09-21T08:33:15Z</time>
      </trkpt>
      <trkpt lat="45.85141" lon="2.92589">
        <ele>898</ele>
        <time>2013-09-21T08:33:21Z</time>
      </trkpt>
      <trkpt lat="45.85131" lon="2.92593">
        <ele>898</ele>
        <time>2013-09-21T08:33:23Z</time>
      </trkpt>
      <trkpt lat="45.8511" lon="2.92567">
        <ele>896</ele>
        <time>2013-09-21T08:33:29Z</time>
      </trkpt>
      <trkpt lat="45.8511" lon="2.92557">
        <ele>896</ele>
        <time>2013-09-21T08:33:30Z</time>
      </trkpt>
      <trkpt lat="45.85104" lon="2.92516">
        <ele>896</ele>
        <time>2013-09-21T08:33:34Z</time>
      </trkpt>
      <trkpt lat="45.85059" lon="2.92412">
        <ele>895</ele>
        <time>2013-09-21T08:33:46Z</time>
      </trkpt>
      <trkpt lat="45.85051" lon="2.92396">
        <ele>894</ele>
        <time>2013-09-21T08:33:48Z</time>
      </trkpt>
      <trkpt lat="45.85025" lon="2.92279">
        <ele>892</ele>
        <time>2013-09-21T08:33:59Z</time>
      </trkpt>
      <trkpt lat="45.8502" lon="2.92217">
        <ele>890</ele>
        <time>2013-09-21T08:34:04Z</time>
      </trkpt>
      <trkpt lat="45.84999" lon="2.92157">
        <ele>888</ele>
        <time>2013-09-21T08:34:10Z</time>
      </trkpt>
      <trkpt lat="45.84983" lon="2.92147">
        <ele>888</ele>
        <time>2013-09-21T08:34:12Z</time>
      </trkpt>
      <trkpt lat="45.84953" lon="2.92119">
        <ele>887</ele>
        <time>2013-09-21T08:34:16Z</time>
      </trkpt>
      <trkpt lat="45.84947" lon="2.9211">
        <ele>887</ele>
        <time>2013-09-21T08:34:17Z</time>
      </trkpt>
      <trkpt lat="45.84918" lon="2.92009">
        <ele>884</ele>
        <time>2013-09-21T08:34:26Z</time>
      </trkpt>
      <trkpt lat="45.849" lon="2.9197">
        <ele>882</ele>
        <time>2013-09-21T08:34:30Z</time>
      </trkpt>
      <trkpt lat="45.84887" lon="2.91955">
        <ele>882</ele>
        <time>2013-09-21T08:34:32Z</time>
      </trkpt>
      <trkpt lat="45.84876" lon="2.91922">
        <ele>881</ele>
        <time>2013-09-21T08:34:36Z</time>
      </trkpt>
      <trkpt lat="45.84892" lon="2.91833">
        <ele>881</ele>
        <time>2013-09-21T08:34:45Z</time>
      </trkpt>
      <trkpt lat="45.84882" lon="2.91794">
        <ele>881</ele>
        <time>2013-09-21T08:34:50Z</time>
      </trkpt>
      <trkpt lat="45.84803" lon="2.91694">
        <ele>880</ele>
        <time>2013-09-21T08:35:05Z</time>
      </trkpt>
      <trkpt lat="45.8477" lon="2.91625">
        <ele>879</ele>
        <time>2013-09-21T08:35:16Z</time>
      </trkpt>
      <trkpt lat="45.84746" lon="2.91588">
        <ele>879</ele>
        <time>2013-09-21T08:35:28Z</time>
      </trkpt>
      <trkpt lat="45.84721" lon="2.91561">
        <ele>878</ele>
        <time>2013-09-21T08:35:40Z</time>
      </trkpt>
      <trkpt lat="45.84707" lon="2.91532">
        <ele>878</ele>
        <time>2013-09-21T08:35:51Z</time>
      </trkpt>
      <trkpt lat="45.8469" lon="2.9149">
        <ele>878</ele>
        <time>2013-09-21T08:36:05Z</time>
      </trkpt>
      <trkpt lat="45.84681" lon="2.91454">
        <ele>879</ele>
        <time>2013-09-21T08:36:16Z</time>
      </trkpt>
      <trkpt lat="45.84676" lon="2.91396">
        <ele>877</ele>
        <time>2013-09-21T08:36:26Z</time>
      </trkpt>
      <trkpt lat="45.84662" lon="2.9133">
        <ele>872</ele>
        <time>2013-09-21T08:36:37Z</time>
      </trkpt>
      <trkpt lat="45.84649" lon="2.91316">
        <ele>870</ele>
        <time>2013-09-21T08:36:40Z</time>
      </trkpt>
      <trkpt lat="45.84611" lon="2.9127">
        <ele>866</ele>
        <time>2013-09-21T08:36:50Z</time>
      </trkpt>
      <trkpt lat="45.84575" lon="2.91234">
        <ele>861</ele>
        <time>2013-09-21T08:37:02Z</time>
      </trkpt>
      <trkpt lat="45.84581" lon="2.91182">
        <ele>859</ele>
        <time>2013-09-21T08:37:08Z</time>
      </trkpt>
      <trkpt lat="45.84596" lon="2.91141">
        <ele>859</ele>
        <time>2013-09-21T08:37:12Z</time>
      </trkpt>
      <trkpt lat="45.84637" lon="2.90983">
        <ele>857</ele>
        <time>2013-09-21T08:37:26Z</time>
      </trkpt>
      <trkpt lat="45.84644" lon="2.90896">
        <ele>856</ele>
        <time>2013-09-21T08:37:34Z</time>
      </trkpt>
      <trkpt lat="45.84619" lon="2.90786">
        <ele>854</ele>
        <time>2013-09-21T08:37:44Z</time>
      </trkpt>
      <trkpt lat="45.84623" lon="2.90705">
        <ele>851</ele>
        <time>2013-09-21T08:37:51Z</time>
      </trkpt>
      <trkpt lat="45.84619" lon="2.90647">
        <ele>848</ele>
        <time>2013-09-21T08:37:55Z</time>
      </trkpt>
      <trkpt lat="45.84618" lon="2.90588">
        <ele>847</ele>
        <time>2013-09-21T08:37:59Z</time>
      </trkpt>
      <trkpt lat="45.84621" lon="2.90573">
        <ele>845</ele>
        <time>2013-09-21T08:38:00Z</time>
      </trkpt>
      <trkpt lat="45.84634" lon="2.90506">
        <ele>844</ele>
        <time>2013-09-21T08:38:04Z</time>
      </trkpt>
      <trkpt lat="45.84638" lon="2.90471">
        <ele>842</ele>
        <time>2013-09-21T08:38:06Z</time>
      </trkpt>
      <trkpt lat="45.84633" lon="2.90385">
        <ele>838</ele>
        <time>2013-09-21T08:38:11Z</time>
      </trkpt>
      <trkpt lat="45.84628" lon="2.90351">
        <ele>838</ele>
        <time>2013-09-21T08:38:13Z</time>
      </trkpt>
      <trkpt lat="45.84576" lon="2.90205">
        <ele>828</ele>
        <time>2013-09-21T08:38:23Z</time>
      </trkpt>
      <trkpt lat="45.84565" lon="2.90169">
        <ele>828</ele>
        <time>2013-09-21T08:38:27Z</time>
      </trkpt>
      <trkpt lat="45.84579" lon="2.90134">
        <ele>827</ele>
        <time>2013-09-21T08:38:33Z</time>
      </trkpt>
      <trkpt lat="45.84641" lon="2.90093">
        <ele>826</ele>
        <time>2013-09-21T08:38:43Z</time>
      </trkpt>
      <trkpt lat="45.84659" lon="2.90056">
        <ele>826</ele>
        <time>2013-09-21T08:38:50Z</time>
      </trkpt>
      <trkpt lat="45.84683" lon="2.90004">
        <ele>824</ele>
        <time>2013-09-21T08:38:59Z</time>
      </trkpt>
      <trkpt lat="45.84688" lon="2.89989">
        <ele>822</ele>
        <time>2013-09-21T08:39:01Z</time>
      </trkpt>
      <trkpt lat="45.84691" lon="2.89961">
        <ele>821</ele>
        <time>2013-09-21T08:39:05Z</time>
      </trkpt>
      <trkpt lat="45.84691" lon="2.8994">
        <ele>821</ele>
        <time>2013-09-21T08:39:08Z</time>
      </trkpt>
      <trkpt lat="45.84692" lon="2.89933">
        <ele>821</ele>
        <time>2013-09-21T08:39:09Z</time>
      </trkpt>
      <trkpt lat="45.84707" lon="2.89896">
        <ele>815</ele>
        <time>2013-09-21T08:39:14Z</time>
      </trkpt>
      <trkpt lat="45.84735" lon="2.8984">
        <ele>812</ele>
        <time>2013-09-21T08:39:20Z</time>
      </trkpt>
      <trkpt lat="45.84758" lon="2.89808">
        <ele>809</ele>
        <time>2013-09-21T08:39:24Z</time>
      </trkpt>
      <trkpt lat="45.84821" lon="2.89762">
        <ele>809</ele>
        <time>2013-09-21T08:39:34Z</time>
      </trkpt>
      <trkpt lat="45.84837" lon="2.89726">
        <ele>809</ele>
        <time>2013-09-21T08:39:40Z</time>
      </trkpt>
      <trkpt lat="45.84832" lon="2.89673">
        <ele>808</ele>
        <time>2013-09-21T08:39:46Z</time>
      </trkpt>
      <trkpt lat="45.84828" lon="2.89642">
        <ele>808</ele>
        <time>2013-09-21T08:39:50Z</time>
      </trkpt>
      <trkpt lat="45.84834" lon="2.89609">
        <ele>811</ele>
        <time>2013-09-21T08:39:56Z</time>
      </trkpt>
      <trkpt lat="45.84847" lon="2.89561">
        <ele>813</ele>
        <time>2013-09-21T08:40:09Z</time>
      </trkpt>
      <trkpt lat="45.84863" lon="2.89491">
        <ele>815</ele>
        <time>2013-09-21T08:40:26Z</time>
      </trkpt>
      <trkpt lat="45.84862" lon="2.89487">
        <ele>815</ele>
        <time>2013-09-21T08:40:27Z</time>
      </trkpt>
      <trkpt lat="45.84843" lon="2.89481">
        <ele>815</ele>
        <time>2013-09-21T08:40:33Z</time>
      </trkpt>
      <trkpt lat="45.84819" lon="2.89488">
        <ele>813</ele>
        <time>2013-09-21T08:40:46Z</time>
      </trkpt>
      <trkpt lat="45.84818" lon="2.89488">
        <ele>813</ele>
        <time>2013-09-21T08:41:00Z</time>
      </trkpt>
      <trkpt lat="45.84818" lon="2.89488">
        <ele>813</ele>
        <time>2013-09-21T08:41:04Z</time>
      </trkpt>
      <trkpt lat="45.84813" lon="2.8949">
        <ele>813</ele>
        <time>2013-09-21T08:41:12Z</time>
      </trkpt>
      <trkpt lat="45.84805" lon="2.89493">
        <ele>813</ele>
        <time>2013-09-21T08:41:24Z</time>
      </trkpt>
      <trkpt lat="45.84795" lon="2.895">
        <ele>812</ele>
        <time>2013-09-21T08:41:37Z</time>
      </trkpt>
      <trkpt lat="45.84792" lon="2.89501">
        <ele>811</ele>
        <time>2013-09-21T08:41:41Z</time>
      </trkpt>
      <trkpt lat="45.84783" lon="2.89505">
        <ele>810</ele>
        <time>2013-09-21T08:41:52Z</time>
      </trkpt>
      <trkpt lat="45.84779" lon="2.89508">
        <ele>810</ele>
        <time>2013-09-21T08:42:09Z</time>
      </trkpt>
      <trkpt lat="45.8478" lon="2.89506">
        <ele>810</ele>
        <time>2013-09-21T08:42:28Z</time>
      </trkpt>
      <trkpt lat="45.84772" lon="2.89507">
        <ele>810</ele>
        <time>2013-09-21T08:42:40Z</time>
      </trkpt>
      <trkpt lat="45.84768" lon="2.89505">
        <ele>810</ele>
        <time>2013-09-21T08:42:44Z</time>
      </trkpt>
      <trkpt lat="45.84764" lon="2.89505">
        <ele>810</ele>
        <time>2013-09-21T08:42:55Z</time>
      </trkpt>
      <trkpt lat="45.84764" lon="2.89505">
        <ele>810</ele>
        <time>2013-09-21T08:43:12Z</time>
      </trkpt>
      <trkpt lat="45.84764" lon="2.89505">
        <ele>810</ele>
        <time>2013-09-21T08:43:27Z</time>
      </trkpt>
      <trkpt lat="45.84763" lon="2.89504">
        <ele>810</ele>
        <time>2013-09-21T08:43:42Z</time>
      </trkpt>
      <trkpt lat="45.84763" lon="2.89505">
        <ele>810</ele>
        <time>2013-09-21T08:43:57Z</time>
      </trkpt>
      <trkpt lat="45.84763" lon="2.8951">
        <ele>810</ele>
        <time>2013-09-21T08:44:09Z</time>
      </trkpt>
      <trkpt lat="45.84768" lon="2.8951">
        <ele>810</ele>
        <time>2013-09-21T08:44:27Z</time>
      </trkpt>
      <trkpt lat="45.84776" lon="2.89507">
        <ele>810</ele>
        <time>2013-09-21T08:44:40Z</time>
      </trkpt>
      <trkpt lat="45.8478" lon="2.89507">
        <ele>810</ele>
        <time>2013-09-21T08:44:53Z</time>
      </trkpt>
      <trkpt lat="45.84783" lon="2.89504">
        <ele>811</ele>
        <time>2013-09-21T08:45:07Z</time>
      </trkpt>
      <trkpt lat="45.84789" lon="2.895">
        <ele>812</ele>
        <time>2013-09-21T08:45:21Z</time>
      </trkpt>
      <trkpt lat="45.84795" lon="2.89497">
        <ele>812</ele>
        <time>2013-09-21T08:45:36Z</time>
      </trkpt>
      <trkpt lat="45.84803" lon="2.89493">
        <ele>812</ele>
        <time>2013-09-21T08:45:48Z</time>
      </trkpt>
      <trkpt lat="45.84814" lon="2.89483">
        <ele>813</ele>
        <time>2013-09-21T08:46:01Z</time>
      </trkpt>
      <trkpt lat="45.84823" lon="2.89483">
        <ele>813</ele>
        <time>2013-09-21T08:46:15Z</time>
      </trkpt>
      <trkpt lat="45.84824" lon="2.89483">
        <ele>813</ele>
        <time>2013-09-21T08:46:16Z</time>
      </trkpt>
      <trkpt lat="45.84827" lon="2.89483">
        <ele>813</ele>
        <time>2013-09-21T08:46:20Z</time>
      </trkpt>
      <trkpt lat="45.84833" lon="2.89481">
        <ele>813</ele>
        <time>2013-09-21T08:46:25Z</time>
      </trkpt>
      <trkpt lat="45.84855" lon="2.8948">
        <ele>815</ele>
        <time>2013-09-21T08:46:40Z</time>
      </trkpt>
      <trkpt lat="45.8488" lon="2.89452">
        <ele>815</ele>
        <time>2013-09-21T08:46:53Z</time>
      </trkpt>
      <trkpt lat="45.84897" lon="2.89385">
        <ele>816</ele>
        <time>2013-09-21T08:47:08Z</time>
      </trkpt>
      <trkpt lat="45.8493" lon="2.89354">
        <ele>816</ele>
        <time>2013-09-21T08:47:18Z</time>
      </trkpt>
      <trkpt lat="45.84989" lon="2.89334">
        <ele>815</ele>
        <time>2013-09-21T08:47:30Z</time>
      </trkpt>
      <trkpt lat="45.84998" lon="2.89329">
        <ele>815</ele>
        <time>2013-09-21T08:47:32Z</time>
      </trkpt>
      <trkpt lat="45.85038" lon="2.89316">
        <ele>814</ele>
        <time>2013-09-21T08:47:42Z</time>
      </trkpt>
      <trkpt lat="45.85048" lon="2.89324">
        <ele>814</ele>
        <time>2013-09-21T08:47:46Z</time>
      </trkpt>
      <trkpt lat="45.85059" lon="2.89336">
        <ele>813</ele>
        <time>2013-09-21T08:47:50Z</time>
      </trkpt>
      <trkpt lat="45.85071" lon="2.89327">
        <ele>814</ele>
        <time>2013-09-21T08:47:54Z</time>
      </trkpt>
      <trkpt lat="45.85128" lon="2.89269">
        <ele>811</ele>
        <time>2013-09-21T08:48:10Z</time>
      </trkpt>
      <trkpt lat="45.85137" lon="2.89259">
        <ele>811</ele>
        <time>2013-09-21T08:48:13Z</time>
      </trkpt>
      <trkpt lat="45.85155" lon="2.89252">
        <ele>810</ele>
        <time>2013-09-21T08:48:17Z</time>
      </trkpt>
      <trkpt lat="45.85231" lon="2.89227">
        <ele>807</ele>
        <time>2013-09-21T08:48:29Z</time>
      </trkpt>
      <trkpt lat="45.85239" lon="2.89225">
        <ele>807</ele>
        <time>2013-09-21T08:48:30Z</time>
      </trkpt>
      <trkpt lat="45.85265" lon="2.89225">
        <ele>804</ele>
        <time>2013-09-21T08:48:33Z</time>
      </trkpt>
      <trkpt lat="45.85304" lon="2.89231">
        <ele>802</ele>
        <time>2013-09-21T08:48:37Z</time>
      </trkpt>
      <trkpt lat="45.85315" lon="2.89232">
        <ele>802</ele>
        <time>2013-09-21T08:48:38Z</time>
      </trkpt>
      <trkpt lat="45.85336" lon="2.89234">
        <ele>799</ele>
        <time>2013-09-21T08:48:40Z</time>
      </trkpt>
      <trkpt lat="45.85357" lon="2.89238">
        <ele>799</ele>
        <time>2013-09-21T08:48:42Z</time>
      </trkpt>
      <trkpt lat="45.85377" lon="2.8924">
        <ele>799</ele>
        <time>2013-09-21T08:48:44Z</time>
      </trkpt>
      <trkpt lat="45.85396" lon="2.8924">
        <ele>798</ele>
        <time>2013-09-21T08:48:46Z</time>
      </trkpt>
      <trkpt lat="45.85421" lon="2.89227">
        <ele>798</ele>
        <time>2013-09-21T08:48:49Z</time>
      </trkpt>
      <trkpt lat="45.85531" lon="2.89159">
        <ele>794</ele>
        <time>2013-09-21T08:49:04Z</time>
      </trkpt>
      <trkpt lat="45.85575" lon="2.89145">
        <ele>793</ele>
        <time>2013-09-21T08:49:10Z</time>
      </trkpt>
      <trkpt lat="45.85617" lon="2.89115">
        <ele>792</ele>
        <time>2013-09-21T08:49:16Z</time>
      </trkpt>
      <trkpt lat="45.85646" lon="2.89097">
        <ele>791</ele>
        <time>2013-09-21T08:49:20Z</time>
      </trkpt>
      <trkpt lat="45.85679" lon="2.89072">
        <ele>789</ele>
        <time>2013-09-21T08:49:24Z</time>
      </trkpt>
      <trkpt lat="45.85698" lon="2.89061">
        <ele>788</ele>
        <time>2013-09-21T08:49:26Z</time>
      </trkpt>
      <trkpt lat="45.85718" lon="2.89053">
        <ele>787</ele>
        <time>2013-09-21T08:49:28Z</time>
      </trkpt>
      <trkpt lat="45.85749" lon="2.89039">
        <ele>787</ele>
        <time>2013-09-21T08:49:31Z</time>
      </trkpt>
      <trkpt lat="45.85773" lon="2.89033">
        <ele>781</ele>
        <time>2013-09-21T08:49:33Z</time>
      </trkpt>
      <trkpt lat="45.85808" lon="2.89029">
        <ele>779</ele>
        <time>2013-09-21T08:49:36Z</time>
      </trkpt>
      <trkpt lat="45.85856" lon="2.89014">
        <ele>773</ele>
        <time>2013-09-21T08:49:40Z</time>
      </trkpt>
      <trkpt lat="45.85875" lon="2.88994">
        <ele>774</ele>
        <time>2013-09-21T08:49:42Z</time>
      </trkpt>
      <trkpt lat="45.85891" lon="2.88971">
        <ele>774</ele>
        <time>2013-09-21T08:49:44Z</time>
      </trkpt>
      <trkpt lat="45.85901" lon="2.88958">
        <ele>774</ele>
        <time>2013-09-21T08:49:45Z</time>
      </trkpt>
      <trkpt lat="45.85909" lon="2.8895">
        <ele>773</ele>
        <time>2013-09-21T08:49:46Z</time>
      </trkpt>
      <trkpt lat="45.8596" lon="2.88926">
        <ele>766</ele>
        <time>2013-09-21T08:49:51Z</time>
      </trkpt>
      <trkpt lat="45.86022" lon="2.88933">
        <ele>760</ele>
        <time>2013-09-21T08:49:56Z</time>
      </trkpt>
      <trkpt lat="45.86045" lon="2.88929">
        <ele>759</ele>
        <time>2013-09-21T08:49:58Z</time>
      </trkpt>
      <trkpt lat="45.86089" lon="2.88939">
        <ele>755</ele>
        <time>2013-09-21T08:50:02Z</time>
      </trkpt>
      <trkpt lat="45.861" lon="2.88944">
        <ele>756</ele>
        <time>2013-09-21T08:50:03Z</time>
      </trkpt>
      <trkpt lat="45.86153" lon="2.88935">
        <ele>756</ele>
        <time>2013-09-21T08:50:10Z</time>
      </trkpt>
      <trkpt lat="45.86167" lon="2.88918">
        <ele>757</ele>
        <time>2013-09-21T08:50:14Z</time>
      </trkpt>
      <trkpt lat="45.8618" lon="2.889">
        <ele>760</ele>
        <time>2013-09-21T08:50:22Z</time>
      </trkpt>
      <trkpt lat="45.86184" lon="2.88893">
        <ele>760</ele>
        <time>2013-09-21T08:50:26Z</time>
      </trkpt>
      <trkpt lat="45.86203" lon="2.88864">
        <ele>762</ele>
        <time>2013-09-21T08:50:41Z</time>
      </trkpt>
      <trkpt lat="45.86227" lon="2.88833">
        <ele>765</ele>
        <time>2013-09-21T08:50:58Z</time>
      </trkpt>
      <trkpt lat="45.86257" lon="2.88806">
        <ele>773</ele>
        <time>2013-09-21T08:51:14Z</time>
      </trkpt>
      <trkpt lat="45.86279" lon="2.88784">
        <ele>774</ele>
        <time>2013-09-21T08:51:28Z</time>
      </trkpt>
      <trkpt lat="45.8629" lon="2.88765">
        <ele>774</ele>
        <time>2013-09-21T08:51:42Z</time>
      </trkpt>
      <trkpt lat="45.86289" lon="2.88765">
        <ele>774</ele>
        <time>2013-09-21T08:51:56Z</time>
      </trkpt>
      <trkpt lat="45.86287" lon="2.88768">
        <ele>774</ele>
        <time>2013-09-21T08:52:09Z</time>
      </trkpt>
      <trkpt lat="45.86287" lon="2.88768">
        <ele>774</ele>
        <time>2013-09-21T08:52:36Z</time>
      </trkpt>
      <trkpt lat="45.86287" lon="2.88768">
        <ele>774</ele>
        <time>2013-09-21T08:52:58Z</time>
      </trkpt>
      <trkpt lat="45.86287" lon="2.88768">
        <ele>774</ele>
        <time>2013-09-21T08:53:25Z</time>
      </trkpt>
      <trkpt lat="45.86289" lon="2.88766">
        <ele>774</ele>
        <time>2013-09-21T08:53:41Z</time>
      </trkpt>
      <trkpt lat="45.86291" lon="2.88767">
        <ele>774</ele>
        <time>2013-09-21T08:54:06Z</time>
      </trkpt>
      <trkpt lat="45.86307" lon="2.88753">
        <ele>776</ele>
        <time>2013-09-21T08:54:21Z</time>
      </trkpt>
      <trkpt lat="45.86324" lon="2.88732">
        <ele>777</ele>
        <time>2013-09-21T08:54:36Z</time>
      </trkpt>
      <trkpt lat="45.86351" lon="2.88702">
        <ele>781</ele>
        <time>2013-09-21T08:54:53Z</time>
      </trkpt>
      <trkpt lat="45.86414" lon="2.88628">
        <ele>782</ele>
        <time>2013-09-21T08:55:21Z</time>
      </trkpt>
      <trkpt lat="45.86444" lon="2.88597">
        <ele>787</ele>
        <time>2013-09-21T08:55:37Z</time>
      </trkpt>
      <trkpt lat="45.86466" lon="2.88584">
        <ele>789</ele>
        <time>2013-09-21T08:55:49Z</time>
      </trkpt>
      <trkpt lat="45.86496" lon="2.88565">
        <ele>790</ele>
        <time>2013-09-21T08:56:05Z</time>
      </trkpt>
      <trkpt lat="45.86539" lon="2.88538">
        <ele>797</ele>
        <time>2013-09-21T08:56:23Z</time>
      </trkpt>
      <trkpt lat="45.8657" lon="2.88492">
        <ele>799</ele>
        <time>2013-09-21T08:56:40Z</time>
      </trkpt>
      <trkpt lat="45.86582" lon="2.88414">
        <ele>803</ele>
        <time>2013-09-21T08:57:00Z</time>
      </trkpt>
      <trkpt lat="45.86573" lon="2.88337">
        <ele>803</ele>
        <time>2013-09-21T08:57:13Z</time>
      </trkpt>
      <trkpt lat="45.86568" lon="2.88323">
        <ele>804</ele>
        <time>2013-09-21T08:57:15Z</time>
      </trkpt>
      <trkpt lat="45.86533" lon="2.88248">
        <ele>806</ele>
        <time>2013-09-21T08:57:32Z</time>
      </trkpt>
      <trkpt lat="45.86546" lon="2.88208">
        <ele>807</ele>
        <time>2013-09-21T08:57:47Z</time>
      </trkpt>
      <trkpt lat="45.86585" lon="2.88225">
        <ele>813</ele>
        <time>2013-09-21T08:58:04Z</time>
      </trkpt>
      <trkpt lat="45.86607" lon="2.88219">
        <ele>815</ele>
        <time>2013-09-21T08:58:18Z</time>
      </trkpt>
      <trkpt lat="45.8663" lon="2.88206">
        <ele>817</ele>
        <time>2013-09-21T08:58:32Z</time>
      </trkpt>
      <trkpt lat="45.86651" lon="2.88161">
        <ele>820</ele>
        <time>2013-09-21T08:58:50Z</time>
      </trkpt>
      <trkpt lat="45.86653" lon="2.88084">
        <ele>821</ele>
        <time>2013-09-21T08:59:07Z</time>
      </trkpt>
      <trkpt lat="45.86656" lon="2.88033">
        <ele>820</ele>
        <time>2013-09-21T08:59:16Z</time>
      </trkpt>
      <trkpt lat="45.86673" lon="2.8799">
        <ele>824</ele>
        <time>2013-09-21T08:59:24Z</time>
      </trkpt>
      <trkpt lat="45.86692" lon="2.87878">
        <ele>822</ele>
        <time>2013-09-21T08:59:39Z</time>
      </trkpt>
      <trkpt lat="45.86701" lon="2.87772">
        <ele>821</ele>
        <time>2013-09-21T08:59:52Z</time>
      </trkpt>
      <trkpt lat="45.86701" lon="2.87764">
        <ele>821</ele>
        <time>2013-09-21T08:59:53Z</time>
      </trkpt>
      <trkpt lat="45.867" lon="2.87741">
        <ele>821</ele>
        <time>2013-09-21T08:59:56Z</time>
      </trkpt>
      <trkpt lat="45.86692" lon="2.87609">
        <ele>822</ele>
        <time>2013-09-21T09:00:14Z</time>
      </trkpt>
      <trkpt lat="45.86692" lon="2.87603">
        <ele>822</ele>
        <time>2013-09-21T09:00:15Z</time>
      </trkpt>
      <trkpt lat="45.86691" lon="2.8759">
        <ele>822</ele>
        <time>2013-09-21T09:00:17Z</time>
      </trkpt>
      <trkpt lat="45.86672" lon="2.87505">
        <ele>820</ele>
        <time>2013-09-21T09:00:30Z</time>
      </trkpt>
      <trkpt lat="45.86667" lon="2.87489">
        <ele>820</ele>
        <time>2013-09-21T09:00:32Z</time>
      </trkpt>
      <trkpt lat="45.8665" lon="2.87365">
        <ele>812</ele>
        <time>2013-09-21T09:00:43Z</time>
      </trkpt>
      <trkpt lat="45.86641" lon="2.87243">
        <ele>807</ele>
        <time>2013-09-21T09:00:53Z</time>
      </trkpt>
      <trkpt lat="45.86639" lon="2.87218">
        <ele>806</ele>
        <time>2013-09-21T09:00:55Z</time>
      </trkpt>
      <trkpt lat="45.86645" lon="2.87181">
        <ele>805</ele>
        <time>2013-09-21T09:00:58Z</time>
      </trkpt>
      <trkpt lat="45.86672" lon="2.87161">
        <ele>803</ele>
        <time>2013-09-21T09:01:02Z</time>
      </trkpt>
      <trkpt lat="45.86732" lon="2.87159">
        <ele>801</ele>
        <time>2013-09-21T09:01:08Z</time>
      </trkpt>
      <trkpt lat="45.86762" lon="2.87155">
        <ele>800</ele>
        <time>2013-09-21T09:01:11Z</time>
      </trkpt>
      <trkpt lat="45.86801" lon="2.87164">
        <ele>797</ele>
        <time>2013-09-21T09:01:15Z</time>
      </trkpt>
      <trkpt lat="45.8684" lon="2.87174">
        <ele>799</ele>
        <time>2013-09-21T09:01:20Z</time>
      </trkpt>
      <trkpt lat="45.86855" lon="2.87163">
        <ele>798</ele>
        <time>2013-09-21T09:01:22Z</time>
      </trkpt>
      <trkpt lat="45.86888" lon="2.87103">
        <ele>799</ele>
        <time>2013-09-21T09:01:28Z</time>
      </trkpt>
      <trkpt lat="45.86897" lon="2.86987">
        <ele>796</ele>
        <time>2013-09-21T09:01:39Z</time>
      </trkpt>
      <trkpt lat="45.86897" lon="2.86875">
        <ele>794</ele>
        <time>2013-09-21T09:01:51Z</time>
      </trkpt>
      <trkpt lat="45.86898" lon="2.86831">
        <ele>794</ele>
        <time>2013-09-21T09:01:55Z</time>
      </trkpt>
      <trkpt lat="45.86908" lon="2.86757">
        <ele>793</ele>
        <time>2013-09-21T09:02:03Z</time>
      </trkpt>
      <trkpt lat="45.86906" lon="2.86701">
        <ele>791</ele>
        <time>2013-09-21T09:02:08Z</time>
      </trkpt>
      <trkpt lat="45.86883" lon="2.86605">
        <ele>790</ele>
        <time>2013-09-21T09:02:19Z</time>
      </trkpt>
      <trkpt lat="45.86882" lon="2.86573">
        <ele>789</ele>
        <time>2013-09-21T09:02:23Z</time>
      </trkpt>
      <trkpt lat="45.86895" lon="2.865">
        <ele>787</ele>
        <time>2013-09-21T09:02:31Z</time>
      </trkpt>
      <trkpt lat="45.86898" lon="2.86489">
        <ele>787</ele>
        <time>2013-09-21T09:02:32Z</time>
      </trkpt>
      <trkpt lat="45.86951" lon="2.86397">
        <ele>784</ele>
        <time>2013-09-21T09:02:43Z</time>
      </trkpt>
      <trkpt lat="45.87007" lon="2.86329">
        <ele>788</ele>
        <time>2013-09-21T09:02:53Z</time>
      </trkpt>
      <trkpt lat="45.87027" lon="2.86284">
        <ele>792</ele>
        <time>2013-09-21T09:02:59Z</time>
      </trkpt>
      <trkpt lat="45.87028" lon="2.86174">
        <ele>792</ele>
        <time>2013-09-21T09:03:14Z</time>
      </trkpt>
      <trkpt lat="45.87006" lon="2.86136">
        <ele>792</ele>
        <time>2013-09-21T09:03:25Z</time>
      </trkpt>
      <trkpt lat="45.87001" lon="2.86127">
        <ele>792</ele>
        <time>2013-09-21T09:03:29Z</time>
      </trkpt>
      <trkpt lat="45.87009" lon="2.86119">
        <ele>793</ele>
        <time>2013-09-21T09:03:35Z</time>
      </trkpt>
      <trkpt lat="45.87042" lon="2.86108">
        <ele>795</ele>
        <time>2013-09-21T09:03:52Z</time>
      </trkpt>
      <trkpt lat="45.87075" lon="2.86089">
        <ele>798</ele>
        <time>2013-09-21T09:04:10Z</time>
      </trkpt>
      <trkpt lat="45.87106" lon="2.86072">
        <ele>803</ele>
        <time>2013-09-21T09:04:27Z</time>
      </trkpt>
      <trkpt lat="45.87136" lon="2.86059">
        <ele>806</ele>
        <time>2013-09-21T09:04:43Z</time>
      </trkpt>
      <trkpt lat="45.8716" lon="2.86033">
        <ele>806</ele>
        <time>2013-09-21T09:04:58Z</time>
      </trkpt>
      <trkpt lat="45.87177" lon="2.86016">
        <ele>811</ele>
        <time>2013-09-21T09:05:12Z</time>
      </trkpt>
      <trkpt lat="45.87195" lon="2.86014">
        <ele>811</ele>
        <time>2013-09-21T09:05:27Z</time>
      </trkpt>
      <trkpt lat="45.8722" lon="2.86019">
        <ele>813</ele>
        <time>2013-09-21T09:05:42Z</time>
      </trkpt>
      <trkpt lat="45.87225" lon="2.85992">
        <ele>810</ele>
        <time>2013-09-21T09:05:47Z</time>
      </trkpt>
      <trkpt lat="45.87241" lon="2.8593">
        <ele>809</ele>
        <time>2013-09-21T09:05:55Z</time>
      </trkpt>
      <trkpt lat="45.87243" lon="2.85921">
        <ele>810</ele>
        <time>2013-09-21T09:05:56Z</time>
      </trkpt>
      <trkpt lat="45.87265" lon="2.859">
        <ele>809</ele>
        <time>2013-09-21T09:06:01Z</time>
      </trkpt>
      <trkpt lat="45.87327" lon="2.85897">
        <ele>807</ele>
        <time>2013-09-21T09:06:11Z</time>
      </trkpt>
      <trkpt lat="45.8737" lon="2.85887">
        <ele>803</ele>
        <time>2013-09-21T09:06:17Z</time>
      </trkpt>
      <trkpt lat="45.87401" lon="2.85864">
        <ele>801</ele>
        <time>2013-09-21T09:06:21Z</time>
      </trkpt>
      <trkpt lat="45.87446" lon="2.85829">
        <ele>797</ele>
        <time>2013-09-21T09:06:26Z</time>
      </trkpt>
      <trkpt lat="45.87466" lon="2.85815">
        <ele>796</ele>
        <time>2013-09-21T09:06:28Z</time>
      </trkpt>
      <trkpt lat="45.87513" lon="2.85781">
        <ele>791</ele>
        <time>2013-09-21T09:06:33Z</time>
      </trkpt>
      <trkpt lat="45.87569" lon="2.8576">
        <ele>789</ele>
        <time>2013-09-21T09:06:39Z</time>
      </trkpt>
      <trkpt lat="45.87597" lon="2.85712">
        <ele>785</ele>
        <time>2013-09-21T09:06:45Z</time>
      </trkpt>
      <trkpt lat="45.87608" lon="2.8555">
        <ele>785</ele>
        <time>2013-09-21T09:07:00Z</time>
      </trkpt>
      <trkpt lat="45.87626" lon="2.85426">
        <ele>784</ele>
        <time>2013-09-21T09:07:14Z</time>
      </trkpt>
      <trkpt lat="45.87628" lon="2.85418">
        <ele>784</ele>
        <time>2013-09-21T09:07:15Z</time>
      </trkpt>
      <trkpt lat="45.87685" lon="2.85286">
        <ele>782</ele>
        <time>2013-09-21T09:07:32Z</time>
      </trkpt>
      <trkpt lat="45.87711" lon="2.8518">
        <ele>782</ele>
        <time>2013-09-21T09:07:45Z</time>
      </trkpt>
      <trkpt lat="45.87716" lon="2.85127">
        <ele>779</ele>
        <time>2013-09-21T09:07:51Z</time>
      </trkpt>
      <trkpt lat="45.87717" lon="2.85068">
        <ele>774</ele>
        <time>2013-09-21T09:07:56Z</time>
      </trkpt>
      <trkpt lat="45.87711" lon="2.85002">
        <ele>772</ele>
        <time>2013-09-21T09:08:01Z</time>
      </trkpt>
      <trkpt lat="45.87709" lon="2.84988">
        <ele>770</ele>
        <time>2013-09-21T09:08:02Z</time>
      </trkpt>
      <trkpt lat="45.87705" lon="2.84948">
        <ele>770</ele>
        <time>2013-09-21T09:08:05Z</time>
      </trkpt>
      <trkpt lat="45.87695" lon="2.84918">
        <ele>769</ele>
        <time>2013-09-21T09:08:08Z</time>
      </trkpt>
      <trkpt lat="45.8769" lon="2.84911">
        <ele>769</ele>
        <time>2013-09-21T09:08:09Z</time>
      </trkpt>
      <trkpt lat="45.87656" lon="2.84866">
        <ele>763</ele>
        <time>2013-09-21T09:08:15Z</time>
      </trkpt>
      <trkpt lat="45.87641" lon="2.8483">
        <ele>766</ele>
        <time>2013-09-21T09:08:19Z</time>
      </trkpt>
      <trkpt lat="45.87608" lon="2.84786">
        <ele>763</ele>
        <time>2013-09-21T09:08:26Z</time>
      </trkpt>
      <trkpt lat="45.87595" lon="2.84773">
        <ele>763</ele>
        <time>2013-09-21T09:08:28Z</time>
      </trkpt>
      <trkpt lat="45.87572" lon="2.84751">
        <ele>759</ele>
        <time>2013-09-21T09:08:31Z</time>
      </trkpt>
      <trkpt lat="45.87549" lon="2.84725">
        <ele>757</ele>
        <time>2013-09-21T09:08:34Z</time>
      </trkpt>
      <trkpt lat="45.87531" lon="2.84693">
        <ele>755</ele>
        <time>2013-09-21T09:08:37Z</time>
      </trkpt>
      <trkpt lat="45.8752" lon="2.84673">
        <ele>754</ele>
        <time>2013-09-21T09:08:39Z</time>
      </trkpt>
      <trkpt lat="45.87517" lon="2.84664">
        <ele>752</ele>
        <time>2013-09-21T09:08:40Z</time>
      </trkpt>
      <trkpt lat="45.87505" lon="2.84656">
        <ele>752</ele>
        <time>2013-09-21T09:08:44Z</time>
      </trkpt>
      <trkpt lat="45.87498" lon="2.84668">
        <ele>751</ele>
        <time>2013-09-21T09:08:47Z</time>
      </trkpt>
      <trkpt lat="45.87478" lon="2.84683">
        <ele>748</ele>
        <time>2013-09-21T09:08:51Z</time>
      </trkpt>
      <trkpt lat="45.87472" lon="2.84685">
        <ele>747</ele>
        <time>2013-09-21T09:08:52Z</time>
      </trkpt>
      <trkpt lat="45.87439" lon="2.84693">
        <ele>745</ele>
        <time>2013-09-21T09:08:58Z</time>
      </trkpt>
      <trkpt lat="45.87423" lon="2.84689">
        <ele>744</ele>
        <time>2013-09-21T09:09:01Z</time>
      </trkpt>
      <trkpt lat="45.87395" lon="2.84674">
        <ele>738</ele>
        <time>2013-09-21T09:09:06Z</time>
      </trkpt>
      <trkpt lat="45.87366" lon="2.84674">
        <ele>735</ele>
        <time>2013-09-21T09:09:13Z</time>
      </trkpt>
      <trkpt lat="45.8735" lon="2.84673">
        <ele>733</ele>
        <time>2013-09-21T09:09:16Z</time>
      </trkpt>
      <trkpt lat="45.87329" lon="2.84665">
        <ele>730</ele>
        <time>2013-09-21T09:09:19Z</time>
      </trkpt>
      <trkpt lat="45.87323" lon="2.84661">
        <ele>728</ele>
        <time>2013-09-21T09:09:20Z</time>
      </trkpt>
      <trkpt lat="45.87303" lon="2.84641">
        <ele>724</ele>
        <time>2013-09-21T09:09:24Z</time>
      </trkpt>
      <trkpt lat="45.87281" lon="2.84605">
        <ele>723</ele>
        <time>2013-09-21T09:09:29Z</time>
      </trkpt>
      <trkpt lat="45.87262" lon="2.84589">
        <ele>721</ele>
        <time>2013-09-21T09:09:33Z</time>
      </trkpt>
      <trkpt lat="45.87244" lon="2.84587">
        <ele>715</ele>
        <time>2013-09-21T09:09:36Z</time>
      </trkpt>
      <trkpt lat="45.87215" lon="2.84592">
        <ele>707</ele>
        <time>2013-09-21T09:09:40Z</time>
      </trkpt>
      <trkpt lat="45.87211" lon="2.84594">
        <ele>706</ele>
        <time>2013-09-21T09:09:41Z</time>
      </trkpt>
      <trkpt lat="45.87201" lon="2.84597">
        <ele>704</ele>
        <time>2013-09-21T09:09:43Z</time>
      </trkpt>
      <trkpt lat="45.87191" lon="2.84599">
        <ele>703</ele>
        <time>2013-09-21T09:09:45Z</time>
      </trkpt>
      <trkpt lat="45.87179" lon="2.84601">
        <ele>702</ele>
        <time>2013-09-21T09:09:47Z</time>
      </trkpt>
      <trkpt lat="45.87153" lon="2.84593">
        <ele>690</ele>
        <time>2013-09-21T09:09:51Z</time>
      </trkpt>
      <trkpt lat="45.87131" lon="2.84581">
        <ele>691</ele>
        <time>2013-09-21T09:09:54Z</time>
      </trkpt>
      <trkpt lat="45.87109" lon="2.8457">
        <ele>687</ele>
        <time>2013-09-21T09:09:57Z</time>
      </trkpt>
      <trkpt lat="45.87089" lon="2.84555">
        <ele>686</ele>
        <time>2013-09-21T09:10:00Z</time>
      </trkpt>
      <trkpt lat="45.87071" lon="2.8454">
        <ele>668</ele>
        <time>2013-09-21T09:10:03Z</time>
      </trkpt>
      <trkpt lat="45.87058" lon="2.8453">
        <ele>667</ele>
        <time>2013-09-21T09:10:05Z</time>
      </trkpt>
      <trkpt lat="45.87035" lon="2.84507">
        <ele>663</ele>
        <time>2013-09-21T09:10:09Z</time>
      </trkpt>
      <trkpt lat="45.87025" lon="2.84493">
        <ele>663</ele>
        <time>2013-09-21T09:10:11Z</time>
      </trkpt>
      <trkpt lat="45.87017" lon="2.84476">
        <ele>663</ele>
        <time>2013-09-21T09:10:13Z</time>
      </trkpt>
      <trkpt lat="45.87013" lon="2.84433">
        <ele>663</ele>
        <time>2013-09-21T09:10:17Z</time>
      </trkpt>
      <trkpt lat="45.87015" lon="2.8441">
        <ele>660</ele>
        <time>2013-09-21T09:10:19Z</time>
      </trkpt>
      <trkpt lat="45.87016" lon="2.84399">
        <ele>660</ele>
        <time>2013-09-21T09:10:20Z</time>
      </trkpt>
      <trkpt lat="45.87022" lon="2.84356">
        <ele>658</ele>
        <time>2013-09-21T09:10:24Z</time>
      </trkpt>
      <trkpt lat="45.87028" lon="2.84332">
        <ele>649</ele>
        <time>2013-09-21T09:10:26Z</time>
      </trkpt>
      <trkpt lat="45.87034" lon="2.84312">
        <ele>649</ele>
        <time>2013-09-21T09:10:28Z</time>
      </trkpt>
      <trkpt lat="45.87039" lon="2.84296">
        <ele>649</ele>
        <time>2013-09-21T09:10:29Z</time>
      </trkpt>
      <trkpt lat="45.87044" lon="2.84284">
        <ele>648</ele>
        <time>2013-09-21T09:10:30Z</time>
      </trkpt>
      <trkpt lat="45.87053" lon="2.84239">
        <ele>642</ele>
        <time>2013-09-21T09:10:34Z</time>
      </trkpt>
      <trkpt lat="45.8705" lon="2.84216">
        <ele>641</ele>
        <time>2013-09-21T09:10:37Z</time>
      </trkpt>
      <trkpt lat="45.87048" lon="2.84209">
        <ele>641</ele>
        <time>2013-09-21T09:10:38Z</time>
      </trkpt>
      <trkpt lat="45.87045" lon="2.84204">
        <ele>640</ele>
        <time>2013-09-21T09:10:39Z</time>
      </trkpt>
      <trkpt lat="45.8704" lon="2.84199">
        <ele>640</ele>
        <time>2013-09-21T09:10:40Z</time>
      </trkpt>
      <trkpt lat="45.87038" lon="2.84197">
        <ele>640</ele>
        <time>2013-09-21T09:10:41Z</time>
      </trkpt>
      <trkpt lat="45.8702" lon="2.84189">
        <ele>638</ele>
        <time>2013-09-21T09:10:45Z</time>
      </trkpt>
      <trkpt lat="45.87018" lon="2.84187">
        <ele>637</ele>
        <time>2013-09-21T09:10:46Z</time>
      </trkpt>
      <trkpt lat="45.86992" lon="2.84203">
        <ele>628</ele>
        <time>2013-09-21T09:10:49Z</time>
      </trkpt>
      <trkpt lat="45.86958" lon="2.8425">
        <ele>626</ele>
        <time>2013-09-21T09:10:59Z</time>
      </trkpt>
      <trkpt lat="45.86945" lon="2.84262">
        <ele>627</ele>
        <time>2013-09-21T09:11:01Z</time>
      </trkpt>
      <trkpt lat="45.8693" lon="2.84276">
        <ele>626</ele>
        <time>2013-09-21T09:11:04Z</time>
      </trkpt>
      <trkpt lat="45.86904" lon="2.84286">
        <ele>614</ele>
        <time>2013-09-21T09:11:07Z</time>
      </trkpt>
      <trkpt lat="45.86896" lon="2.84288">
        <ele>614</ele>
        <time>2013-09-21T09:11:08Z</time>
      </trkpt>
      <trkpt lat="45.86876" lon="2.8429">
        <ele>612</ele>
        <time>2013-09-21T09:11:10Z</time>
      </trkpt>
      <trkpt lat="45.86866" lon="2.84291">
        <ele>611</ele>
        <time>2013-09-21T09:11:11Z</time>
      </trkpt>
      <trkpt lat="45.8684" lon="2.84291">
        <ele>608</ele>
        <time>2013-09-21T09:11:14Z</time>
      </trkpt>
      <trkpt lat="45.86831" lon="2.8429">
        <ele>597</ele>
        <time>2013-09-21T09:11:16Z</time>
      </trkpt>
      <trkpt lat="45.86821" lon="2.84289">
        <ele>597</ele>
        <time>2013-09-21T09:11:17Z</time>
      </trkpt>
      <trkpt lat="45.86812" lon="2.84287">
        <ele>596</ele>
        <time>2013-09-21T09:11:18Z</time>
      </trkpt>
      <trkpt lat="45.86794" lon="2.84281">
        <ele>595</ele>
        <time>2013-09-21T09:11:21Z</time>
      </trkpt>
      <trkpt lat="45.86787" lon="2.84278">
        <ele>594</ele>
        <time>2013-09-21T09:11:22Z</time>
      </trkpt>
      <trkpt lat="45.86757" lon="2.84254">
        <ele>588</ele>
        <time>2013-09-21T09:11:26Z</time>
      </trkpt>
      <trkpt lat="45.86728" lon="2.8424">
        <ele>589</ele>
        <time>2013-09-21T09:11:29Z</time>
      </trkpt>
      <trkpt lat="45.86708" lon="2.84243">
        <ele>591</ele>
        <time>2013-09-21T09:11:31Z</time>
      </trkpt>
      <trkpt lat="45.86682" lon="2.84234">
        <ele>592</ele>
        <time>2013-09-21T09:11:34Z</time>
      </trkpt>
      <trkpt lat="45.86677" lon="2.84223">
        <ele>592</ele>
        <time>2013-09-21T09:11:35Z</time>
      </trkpt>
      <trkpt lat="45.86676" lon="2.84213">
        <ele>592</ele>
        <time>2013-09-21T09:11:36Z</time>
      </trkpt>
      <trkpt lat="45.86669" lon="2.84194">
        <ele>594</ele>
        <time>2013-09-21T09:11:38Z</time>
      </trkpt>
      <trkpt lat="45.86663" lon="2.84153">
        <ele>607</ele>
        <time>2013-09-21T09:11:43Z</time>
      </trkpt>
      <trkpt lat="45.86681" lon="2.84118">
        <ele>594</ele>
        <time>2013-09-21T09:11:47Z</time>
      </trkpt>
      <trkpt lat="45.86686" lon="2.8409">
        <ele>595</ele>
        <time>2013-09-21T09:11:54Z</time>
      </trkpt>
      <trkpt lat="45.86679" lon="2.84096">
        <ele>596</ele>
        <time>2013-09-21T09:11:59Z</time>
      </trkpt>
      <trkpt lat="45.86674" lon="2.84095">
        <ele>596</ele>
        <time>2013-09-21T09:12:04Z</time>
      </trkpt>
      <trkpt lat="45.8667" lon="2.84087">
        <ele>598</ele>
        <time>2013-09-21T09:12:07Z</time>
      </trkpt>
      <trkpt lat="45.86671" lon="2.84067">
        <ele>596</ele>
        <time>2013-09-21T09:12:11Z</time>
      </trkpt>
      <trkpt lat="45.86664" lon="2.83991">
        <ele>595</ele>
        <time>2013-09-21T09:12:27Z</time>
      </trkpt>
      <trkpt lat="45.86671" lon="2.83965">
        <ele>593</ele>
        <time>2013-09-21T09:12:39Z</time>
      </trkpt>
      <trkpt lat="45.8666" lon="2.8393">
        <ele>593</ele>
        <time>2013-09-21T09:12:53Z</time>
      </trkpt>
      <trkpt lat="45.86638" lon="2.83909">
        <ele>591</ele>
        <time>2013-09-21T09:13:06Z</time>
      </trkpt>
      <trkpt lat="45.86585" lon="2.83902">
        <ele>594</ele>
        <time>2013-09-21T09:13:23Z</time>
      </trkpt>
      <trkpt lat="45.86539" lon="2.83922">
        <ele>603</ele>
        <time>2013-09-21T09:13:41Z</time>
      </trkpt>
      <trkpt lat="45.86496" lon="2.83944">
        <ele>605</ele>
        <time>2013-09-21T09:13:58Z</time>
      </trkpt>
      <trkpt lat="45.86449" lon="2.83958">
        <ele>608</ele>
        <time>2013-09-21T09:14:15Z</time>
      </trkpt>
      <trkpt lat="45.86407" lon="2.83974">
        <ele>613</ele>
        <time>2013-09-21T09:14:33Z</time>
      </trkpt>
      <trkpt lat="45.86373" lon="2.83972">
        <ele>613</ele>
        <time>2013-09-21T09:14:48Z</time>
      </trkpt>
      <trkpt lat="45.86342" lon="2.83964">
        <ele>613</ele>
        <time>2013-09-21T09:15:03Z</time>
      </trkpt>
      <trkpt lat="45.86332" lon="2.83917">
        <ele>605</ele>
        <time>2013-09-21T09:15:16Z</time>
      </trkpt>
      <trkpt lat="45.86307" lon="2.83812">
        <ele>597</ele>
        <time>2013-09-21T09:15:29Z</time>
      </trkpt>
      <trkpt lat="45.863" lon="2.8379">
        <ele>597</ele>
        <time>2013-09-21T09:15:32Z</time>
      </trkpt>
      <trkpt lat="45.86288" lon="2.83771">
        <ele>598</ele>
        <time>2013-09-21T09:15:35Z</time>
      </trkpt>
      <trkpt lat="45.8625" lon="2.83732">
        <ele>609</ele>
        <time>2013-09-21T09:15:43Z</time>
      </trkpt>
      <trkpt lat="45.86227" lon="2.83687">
        <ele>613</ele>
        <time>2013-09-21T09:15:57Z</time>
      </trkpt>
      <trkpt lat="45.86228" lon="2.83641">
        <ele>615</ele>
        <time>2013-09-21T09:16:12Z</time>
      </trkpt>
      <trkpt lat="45.86214" lon="2.83598">
        <ele>617</ele>
        <time>2013-09-21T09:16:23Z</time>
      </trkpt>
      <trkpt lat="45.86218" lon="2.83559">
        <ele>622</ele>
        <time>2013-09-21T09:16:40Z</time>
      </trkpt>
      <trkpt lat="45.86223" lon="2.83525">
        <ele>623</ele>
        <time>2013-09-21T09:16:56Z</time>
      </trkpt>
      <trkpt lat="45.86212" lon="2.83492">
        <ele>631</ele>
        <time>2013-09-21T09:17:12Z</time>
      </trkpt>
      <trkpt lat="45.86193" lon="2.83461">
        <ele>634</ele>
        <time>2013-09-21T09:17:26Z</time>
      </trkpt>
      <trkpt lat="45.86193" lon="2.83439">
        <ele>636</ele>
        <time>2013-09-21T09:17:37Z</time>
      </trkpt>
      <trkpt lat="45.86195" lon="2.83424">
        <ele>637</ele>
        <time>2013-09-21T09:17:46Z</time>
      </trkpt>
      <trkpt lat="45.86197" lon="2.83405">
        <ele>642</ele>
        <time>2013-09-21T09:17:56Z</time>
      </trkpt>
      <trkpt lat="45.86197" lon="2.83396">
        <ele>642</ele>
        <time>2013-09-21T09:18:01Z</time>
      </trkpt>
      <trkpt lat="45.86196" lon="2.83383">
        <ele>643</ele>
        <time>2013-09-21T09:18:10Z</time>
      </trkpt>
      <trkpt lat="45.86192" lon="2.83358">
        <ele>644</ele>
        <time>2013-09-21T09:18:29Z</time>
      </trkpt>
      <trkpt lat="45.86195" lon="2.83318">
        <ele>645</ele>
        <time>2013-09-21T09:18:45Z</time>
      </trkpt>
      <trkpt lat="45.86193" lon="2.83276">
        <ele>646</ele>
        <time>2013-09-21T09:19:00Z</time>
      </trkpt>
      <trkpt lat="45.86192" lon="2.83223">
        <ele>646</ele>
        <time>2013-09-21T09:19:16Z</time>
      </trkpt>
      <trkpt lat="45.86194" lon="2.8313">
        <ele>648</ele>
        <time>2013-09-21T09:19:34Z</time>
      </trkpt>
      <trkpt lat="45.86218" lon="2.83053">
        <ele>652</ele>
        <time>2013-09-21T09:19:51Z</time>
      </trkpt>
      <trkpt lat="45.86223" lon="2.83008">
        <ele>653</ele>
        <time>2013-09-21T09:20:06Z</time>
      </trkpt>
      <trkpt lat="45.86189" lon="2.82992">
        <ele>653</ele>
        <time>2013-09-21T09:20:21Z</time>
      </trkpt>
      <trkpt lat="45.86132" lon="2.82957">
        <ele>655</ele>
        <time>2013-09-21T09:20:39Z</time>
      </trkpt>
      <trkpt lat="45.86096" lon="2.82925">
        <ele>657</ele>
        <time>2013-09-21T09:20:54Z</time>
      </trkpt>
      <trkpt lat="45.86095" lon="2.82915">
        <ele>660</ele>
        <time>2013-09-21T09:21:06Z</time>
      </trkpt>
      <trkpt lat="45.86095" lon="2.82913">
        <ele>660</ele>
        <time>2013-09-21T09:21:25Z</time>
      </trkpt>
      <trkpt lat="45.86095" lon="2.82913">
        <ele>660</ele>
        <time>2013-09-21T09:21:58Z</time>
      </trkpt>
      <trkpt lat="45.86095" lon="2.82918">
        <ele>658</ele>
        <time>2013-09-21T09:22:17Z</time>
      </trkpt>
      <trkpt lat="45.86095" lon="2.82919">
        <ele>657</ele>
        <time>2013-09-21T09:22:28Z</time>
      </trkpt>
      <trkpt lat="45.86103" lon="2.82921">
        <ele>657</ele>
        <time>2013-09-21T09:22:35Z</time>
      </trkpt>
      <trkpt lat="45.86116" lon="2.82891">
        <ele>662</ele>
        <time>2013-09-21T09:22:50Z</time>
      </trkpt>
      <trkpt lat="45.86131" lon="2.82852">
        <ele>665</ele>
        <time>2013-09-21T09:23:09Z</time>
      </trkpt>
      <trkpt lat="45.86163" lon="2.82822">
        <ele>673</ele>
        <time>2013-09-21T09:23:24Z</time>
      </trkpt>
      <trkpt lat="45.86203" lon="2.828">
        <ele>674</ele>
        <time>2013-09-21T09:23:38Z</time>
      </trkpt>
      <trkpt lat="45.86231" lon="2.8277">
        <ele>676</ele>
        <time>2013-09-21T09:23:53Z</time>
      </trkpt>
      <trkpt lat="45.86247" lon="2.82746">
        <ele>682</ele>
        <time>2013-09-21T09:24:05Z</time>
      </trkpt>
      <trkpt lat="45.86256" lon="2.82731">
        <ele>678</ele>
        <time>2013-09-21T09:24:13Z</time>
      </trkpt>
      <trkpt lat="45.86271" lon="2.82686">
        <ele>683</ele>
        <time>2013-09-21T09:24:30Z</time>
      </trkpt>
      <trkpt lat="45.86293" lon="2.82638">
        <ele>687</ele>
        <time>2013-09-21T09:24:46Z</time>
      </trkpt>
      <trkpt lat="45.86319" lon="2.82574">
        <ele>688</ele>
        <time>2013-09-21T09:25:01Z</time>
      </trkpt>
      <trkpt lat="45.86342" lon="2.82501">
        <ele>685</ele>
        <time>2013-09-21T09:25:16Z</time>
      </trkpt>
      <trkpt lat="45.86388" lon="2.82456">
        <ele>680</ele>
        <time>2013-09-21T09:25:30Z</time>
      </trkpt>
      <trkpt lat="45.86436" lon="2.82388">
        <ele>668</ele>
        <time>2013-09-21T09:25:44Z</time>
      </trkpt>
      <trkpt lat="45.8644" lon="2.82362">
        <ele>667</ele>
        <time>2013-09-21T09:25:48Z</time>
      </trkpt>
      <trkpt lat="45.8644" lon="2.82357">
        <ele>667</ele>
        <time>2013-09-21T09:25:49Z</time>
      </trkpt>
      <trkpt lat="45.86447" lon="2.82361">
        <ele>667</ele>
        <time>2013-09-21T09:25:54Z</time>
      </trkpt>
      <trkpt lat="45.8645" lon="2.82369">
        <ele>666</ele>
        <time>2013-09-21T09:25:55Z</time>
      </trkpt>
      <trkpt lat="45.86459" lon="2.82384">
        <ele>666</ele>
        <time>2013-09-21T09:25:57Z</time>
      </trkpt>
      <trkpt lat="45.86472" lon="2.82402">
        <ele>664</ele>
        <time>2013-09-21T09:25:59Z</time>
      </trkpt>
      <trkpt lat="45.86501" lon="2.82433">
        <ele>655</ele>
        <time>2013-09-21T09:26:03Z</time>
      </trkpt>
      <trkpt lat="45.8657" lon="2.82466">
        <ele>651</ele>
        <time>2013-09-21T09:26:06Z</time>
      </trkpt>
      <trkpt lat="45.86576" lon="2.82474">
        <ele>651</ele>
        <time>2013-09-21T09:26:07Z</time>
      </trkpt>
      <trkpt lat="45.86593" lon="2.82502">
        <ele>648</ele>
        <time>2013-09-21T09:26:11Z</time>
      </trkpt>
      <trkpt lat="45.86616" lon="2.825">
        <ele>646</ele>
        <time>2013-09-21T09:26:16Z</time>
      </trkpt>
      <trkpt lat="45.8663" lon="2.82486">
        <ele>646</ele>
        <time>2013-09-21T09:26:19Z</time>
      </trkpt>
      <trkpt lat="45.86646" lon="2.82444">
        <ele>644</ele>
        <time>2013-09-21T09:26:25Z</time>
      </trkpt>
      <trkpt lat="45.86661" lon="2.82329">
        <ele>639</ele>
        <time>2013-09-21T09:26:36Z</time>
      </trkpt>
      <trkpt lat="45.86668" lon="2.82221">
        <ele>630</ele>
        <time>2013-09-21T09:26:45Z</time>
      </trkpt>
      <trkpt lat="45.86669" lon="2.82209">
        <ele>629</ele>
        <time>2013-09-21T09:26:46Z</time>
      </trkpt>
      <trkpt lat="45.8667" lon="2.82182">
        <ele>630</ele>
        <time>2013-09-21T09:26:48Z</time>
      </trkpt>
      <trkpt lat="45.8667" lon="2.82155">
        <ele>628</ele>
        <time>2013-09-21T09:26:50Z</time>
      </trkpt>
      <trkpt lat="45.86666" lon="2.82112">
        <ele>632</ele>
        <time>2013-09-21T09:26:53Z</time>
      </trkpt>
      <trkpt lat="45.8666" lon="2.82083">
        <ele>628</ele>
        <time>2013-09-21T09:26:55Z</time>
      </trkpt>
      <trkpt lat="45.86651" lon="2.82058">
        <ele>629</ele>
        <time>2013-09-21T09:26:57Z</time>
      </trkpt>
      <trkpt lat="45.86637" lon="2.82039">
        <ele>630</ele>
        <time>2013-09-21T09:26:59Z</time>
      </trkpt>
      <trkpt lat="45.86621" lon="2.82025">
        <ele>631</ele>
        <time>2013-09-21T09:27:01Z</time>
      </trkpt>
      <trkpt lat="45.86597" lon="2.81976">
        <ele>634</ele>
        <time>2013-09-21T09:27:07Z</time>
      </trkpt>
      <trkpt lat="45.86596" lon="2.81967">
        <ele>635</ele>
        <time>2013-09-21T09:27:09Z</time>
      </trkpt>
      <trkpt lat="45.86579" lon="2.81965">
        <ele>641</ele>
        <time>2013-09-21T09:27:16Z</time>
      </trkpt>
      <trkpt lat="45.86536" lon="2.81985">
        <ele>642</ele>
        <time>2013-09-21T09:27:34Z</time>
      </trkpt>
      <trkpt lat="45.86507" lon="2.81993">
        <ele>642</ele>
        <time>2013-09-21T09:27:47Z</time>
      </trkpt>
      <trkpt lat="45.86506" lon="2.81971">
        <ele>643</ele>
        <time>2013-09-21T09:27:58Z</time>
      </trkpt>
      <trkpt lat="45.86519" lon="2.81946">
        <ele>645</ele>
        <time>2013-09-21T09:28:13Z</time>
      </trkpt>
      <trkpt lat="45.86535" lon="2.81917">
        <ele>646</ele>
        <time>2013-09-21T09:28:30Z</time>
      </trkpt>
      <trkpt lat="45.86541" lon="2.81907">
        <ele>652</ele>
        <time>2013-09-21T09:28:36Z</time>
      </trkpt>
      <trkpt lat="45.86564" lon="2.81878">
        <ele>652</ele>
        <time>2013-09-21T09:28:53Z</time>
      </trkpt>
      <trkpt lat="45.86584" lon="2.81854">
        <ele>646</ele>
        <time>2013-09-21T09:29:08Z</time>
      </trkpt>
      <trkpt lat="45.86587" lon="2.81836">
        <ele>651</ele>
        <time>2013-09-21T09:29:21Z</time>
      </trkpt>
      <trkpt lat="45.86565" lon="2.81825">
        <ele>651</ele>
        <time>2013-09-21T09:29:37Z</time>
      </trkpt>
      <trkpt lat="45.86562" lon="2.81824">
        <ele>651</ele>
        <time>2013-09-21T09:29:39Z</time>
      </trkpt>
      <trkpt lat="45.86528" lon="2.81813">
        <ele>651</ele>
        <time>2013-09-21T09:29:57Z</time>
      </trkpt>
      <trkpt lat="45.86497" lon="2.81808">
        <ele>658</ele>
        <time>2013-09-21T09:30:15Z</time>
      </trkpt>
      <trkpt lat="45.86459" lon="2.81792">
        <ele>658</ele>
        <time>2013-09-21T09:30:28Z</time>
      </trkpt>
      <trkpt lat="45.86416" lon="2.81759">
        <ele>664</ele>
        <time>2013-09-21T09:30:43Z</time>
      </trkpt>
      <trkpt lat="45.86376" lon="2.81719">
        <ele>657</ele>
        <time>2013-09-21T09:30:55Z</time>
      </trkpt>
      <trkpt lat="45.86365" lon="2.81704">
        <ele>656</ele>
        <time>2013-09-21T09:30:59Z</time>
      </trkpt>
      <trkpt lat="45.86348" lon="2.81678">
        <ele>652</ele>
        <time>2013-09-21T09:31:04Z</time>
      </trkpt>
      <trkpt lat="45.86331" lon="2.81654">
        <ele>648</ele>
        <time>2013-09-21T09:31:09Z</time>
      </trkpt>
      <trkpt lat="45.86323" lon="2.81642">
        <ele>648</ele>
        <time>2013-09-21T09:31:11Z</time>
      </trkpt>
      <trkpt lat="45.86284" lon="2.81591">
        <ele>645</ele>
        <time>2013-09-21T09:31:18Z</time>
      </trkpt>
      <trkpt lat="45.86258" lon="2.81566">
        <ele>640</ele>
        <time>2013-09-21T09:31:21Z</time>
      </trkpt>
      <trkpt lat="45.86233" lon="2.81545">
        <ele>645</ele>
        <time>2013-09-21T09:31:25Z</time>
      </trkpt>
      <trkpt lat="45.86215" lon="2.81525">
        <ele>645</ele>
        <time>2013-09-21T09:31:29Z</time>
      </trkpt>
      <trkpt lat="45.86215" lon="2.81525">
        <ele>645</ele>
        <time>2013-09-21T09:31:31Z</time>
      </trkpt>
      <trkpt lat="45.86217" lon="2.81532">
        <ele>645</ele>
        <time>2013-09-21T09:31:34Z</time>
      </trkpt>
      <trkpt lat="45.86226" lon="2.81532">
        <ele>645</ele>
        <time>2013-09-21T09:31:36Z</time>
      </trkpt>
      <trkpt lat="45.86245" lon="2.81523">
        <ele>644</ele>
        <time>2013-09-21T09:31:41Z</time>
      </trkpt>
      <trkpt lat="45.86245" lon="2.81514">
        <ele>643</ele>
        <time>2013-09-21T09:31:42Z</time>
      </trkpt>
      <trkpt lat="45.8624" lon="2.81503">
        <ele>643</ele>
        <time>2013-09-21T09:31:44Z</time>
      </trkpt>
      <trkpt lat="45.86236" lon="2.81497">
        <ele>646</ele>
        <time>2013-09-21T09:31:46Z</time>
      </trkpt>
      <trkpt lat="45.86163" lon="2.81462">
        <ele>651</ele>
        <time>2013-09-21T09:32:01Z</time>
      </trkpt>
      <trkpt lat="45.86128" lon="2.81453">
        <ele>653</ele>
        <time>2013-09-21T09:32:14Z</time>
      </trkpt>
      <trkpt lat="45.8611" lon="2.81447">
        <ele>653</ele>
        <time>2013-09-21T09:32:20Z</time>
      </trkpt>
      <trkpt lat="45.86105" lon="2.81444">
        <ele>654</ele>
        <time>2013-09-21T09:32:23Z</time>
      </trkpt>
      <trkpt lat="45.86085" lon="2.81439">
        <ele>655</ele>
        <time>2013-09-21T09:32:33Z</time>
      </trkpt>
      <trkpt lat="45.86054" lon="2.81439">
        <ele>657</ele>
        <time>2013-09-21T09:32:46Z</time>
      </trkpt>
      <trkpt lat="45.86046" lon="2.81435">
        <ele>658</ele>
        <time>2013-09-21T09:32:53Z</time>
      </trkpt>
      <trkpt lat="45.86041" lon="2.81434">
        <ele>658</ele>
        <time>2013-09-21T09:32:57Z</time>
      </trkpt>
      <trkpt lat="45.86034" lon="2.81418">
        <ele>659</ele>
        <time>2013-09-21T09:33:13Z</time>
      </trkpt>
      <trkpt lat="45.86041" lon="2.8142">
        <ele>658</ele>
        <time>2013-09-21T09:33:17Z</time>
      </trkpt>
      <trkpt lat="45.86055" lon="2.81419">
        <ele>658</ele>
        <time>2013-09-21T09:33:21Z</time>
      </trkpt>
      <trkpt lat="45.86094" lon="2.81401">
        <ele>665</ele>
        <time>2013-09-21T09:33:40Z</time>
      </trkpt>
      <trkpt lat="45.8614" lon="2.81393">
        <ele>670</ele>
        <time>2013-09-21T09:33:56Z</time>
      </trkpt>
      <trkpt lat="45.86164" lon="2.814">
        <ele>667</ele>
        <time>2013-09-21T09:34:11Z</time>
      </trkpt>
      <trkpt lat="45.86182" lon="2.81403">
        <ele>666</ele>
        <time>2013-09-21T09:34:21Z</time>
      </trkpt>
      <trkpt lat="45.86187" lon="2.81407">
        <ele>666</ele>
        <time>2013-09-21T09:34:25Z</time>
      </trkpt>
      <trkpt lat="45.86194" lon="2.81408">
        <ele>667</ele>
        <time>2013-09-21T09:34:30Z</time>
      </trkpt>
      <trkpt lat="45.86208" lon="2.81414">
        <ele>667</ele>
        <time>2013-09-21T09:34:39Z</time>
      </trkpt>
      <trkpt lat="45.86233" lon="2.81432">
        <ele>655</ele>
        <time>2013-09-21T09:34:56Z</time>
      </trkpt>
      <trkpt lat="45.86242" lon="2.81436">
        <ele>655</ele>
        <time>2013-09-21T09:35:00Z</time>
      </trkpt>
      <trkpt lat="45.86264" lon="2.81397">
        <ele>660</ele>
        <time>2013-09-21T09:35:18Z</time>
      </trkpt>
      <trkpt lat="45.86265" lon="2.81388">
        <ele>660</ele>
        <time>2013-09-21T09:35:23Z</time>
      </trkpt>
      <trkpt lat="45.86263" lon="2.8138">
        <ele>661</ele>
        <time>2013-09-21T09:35:28Z</time>
      </trkpt>
      <trkpt lat="45.86264" lon="2.81375">
        <ele>661</ele>
        <time>2013-09-21T09:35:33Z</time>
      </trkpt>
      <trkpt lat="45.86255" lon="2.8134">
        <ele>668</ele>
        <time>2013-09-21T09:35:51Z</time>
      </trkpt>
      <trkpt lat="45.86256" lon="2.81328">
        <ele>670</ele>
        <time>2013-09-21T09:36:01Z</time>
      </trkpt>
      <trkpt lat="45.86256" lon="2.81323">
        <ele>670</ele>
        <time>2013-09-21T09:36:04Z</time>
      </trkpt>
      <trkpt lat="45.86248" lon="2.81302">
        <ele>679</ele>
        <time>2013-09-21T09:36:22Z</time>
      </trkpt>
      <trkpt lat="45.86247" lon="2.81301">
        <ele>679</ele>
        <time>2013-09-21T09:36:25Z</time>
      </trkpt>
      <trkpt lat="45.86239" lon="2.8128">
        <ele>680</ele>
        <time>2013-09-21T09:36:36Z</time>
      </trkpt>
      <trkpt lat="45.86237" lon="2.81273">
        <ele>680</ele>
        <time>2013-09-21T09:36:55Z</time>
      </trkpt>
      <trkpt lat="45.86236" lon="2.81268">
        <ele>679</ele>
        <time>2013-09-21T09:37:17Z</time>
      </trkpt>
      <trkpt lat="45.86239" lon="2.8124">
        <ele>681</ele>
        <time>2013-09-21T09:37:34Z</time>
      </trkpt>
      <trkpt lat="45.86238" lon="2.8123">
        <ele>683</ele>
        <time>2013-09-21T09:37:39Z</time>
      </trkpt>
      <trkpt lat="45.86237" lon="2.81218">
        <ele>685</ele>
        <time>2013-09-21T09:37:48Z</time>
      </trkpt>
      <trkpt lat="45.86237" lon="2.81213">
        <ele>686</ele>
        <time>2013-09-21T09:37:51Z</time>
      </trkpt>
      <trkpt lat="45.86234" lon="2.81188">
        <ele>686</ele>
        <time>2013-09-21T09:38:09Z</time>
      </trkpt>
      <trkpt lat="45.86234" lon="2.81187">
        <ele>686</ele>
        <time>2013-09-21T09:38:10Z</time>
      </trkpt>
      <trkpt lat="45.86234" lon="2.8118">
        <ele>685</ele>
        <time>2013-09-21T09:38:14Z</time>
      </trkpt>
      <trkpt lat="45.86229" lon="2.81167">
        <ele>688</ele>
        <time>2013-09-21T09:38:32Z</time>
      </trkpt>
      <trkpt lat="45.86224" lon="2.81155">
        <ele>690</ele>
        <time>2013-09-21T09:38:45Z</time>
      </trkpt>
      <trkpt lat="45.86222" lon="2.81124">
        <ele>693</ele>
        <time>2013-09-21T09:39:02Z</time>
      </trkpt>
      <trkpt lat="45.86219" lon="2.81085">
        <ele>693</ele>
        <time>2013-09-21T09:39:17Z</time>
      </trkpt>
      <trkpt lat="45.8622" lon="2.81085">
        <ele>692</ele>
        <time>2013-09-21T09:39:35Z</time>
      </trkpt>
      <trkpt lat="45.8622" lon="2.81085">
        <ele>692</ele>
        <time>2013-09-21T09:39:41Z</time>
      </trkpt>
      <trkpt lat="45.86218" lon="2.8108">
        <ele>693</ele>
        <time>2013-09-21T09:39:44Z</time>
      </trkpt>
      <trkpt lat="45.86211" lon="2.81044">
        <ele>695</ele>
        <time>2013-09-21T09:39:59Z</time>
      </trkpt>
      <trkpt lat="45.8621" lon="2.8104">
        <ele>695</ele>
        <time>2013-09-21T09:40:13Z</time>
      </trkpt>
      <trkpt lat="45.86205" lon="2.81037">
        <ele>696</ele>
        <time>2013-09-21T09:40:16Z</time>
      </trkpt>
      <trkpt lat="45.86195" lon="2.80998">
        <ele>698</ele>
        <time>2013-09-21T09:40:32Z</time>
      </trkpt>
      <trkpt lat="45.86195" lon="2.80992">
        <ele>698</ele>
        <time>2013-09-21T09:40:34Z</time>
      </trkpt>
      <trkpt lat="45.86191" lon="2.80957">
        <ele>698</ele>
        <time>2013-09-21T09:40:51Z</time>
      </trkpt>
      <trkpt lat="45.86186" lon="2.80927">
        <ele>701</ele>
        <time>2013-09-21T09:41:05Z</time>
      </trkpt>
      <trkpt lat="45.86185" lon="2.80919">
        <ele>702</ele>
        <time>2013-09-21T09:41:11Z</time>
      </trkpt>
      <trkpt lat="45.86186" lon="2.80894">
        <ele>702</ele>
        <time>2013-09-21T09:41:20Z</time>
      </trkpt>
      <trkpt lat="45.86185" lon="2.8086">
        <ele>703</ele>
        <time>2013-09-21T09:41:35Z</time>
      </trkpt>
      <trkpt lat="45.86181" lon="2.80842">
        <ele>707</ele>
        <time>2013-09-21T09:41:44Z</time>
      </trkpt>
      <trkpt lat="45.86189" lon="2.80799">
        <ele>707</ele>
        <time>2013-09-21T09:42:01Z</time>
      </trkpt>
      <trkpt lat="45.86209" lon="2.80766">
        <ele>704</ele>
        <time>2013-09-21T09:42:17Z</time>
      </trkpt>
      <trkpt lat="45.86212" lon="2.80752">
        <ele>704</ele>
        <time>2013-09-21T09:42:25Z</time>
      </trkpt>
      <trkpt lat="45.86217" lon="2.80714">
        <ele>704</ele>
        <time>2013-09-21T09:42:36Z</time>
      </trkpt>
      <trkpt lat="45.86217" lon="2.80709">
        <ele>704</ele>
        <time>2013-09-21T09:42:38Z</time>
      </trkpt>
      <trkpt lat="45.86209" lon="2.80679">
        <ele>705</ele>
        <time>2013-09-21T09:42:53Z</time>
      </trkpt>
      <trkpt lat="45.86189" lon="2.80659">
        <ele>707</ele>
        <time>2013-09-21T09:43:09Z</time>
      </trkpt>
      <trkpt lat="45.86168" lon="2.80636">
        <ele>707</ele>
        <time>2013-09-21T09:43:27Z</time>
      </trkpt>
      <trkpt lat="45.86145" lon="2.80612">
        <ele>714</ele>
        <time>2013-09-21T09:43:43Z</time>
      </trkpt>
      <trkpt lat="45.86123" lon="2.80587">
        <ele>716</ele>
        <time>2013-09-21T09:43:56Z</time>
      </trkpt>
      <trkpt lat="45.86107" lon="2.80568">
        <ele>713</ele>
        <time>2013-09-21T09:44:10Z</time>
      </trkpt>
      <trkpt lat="45.86088" lon="2.80559">
        <ele>714</ele>
        <time>2013-09-21T09:44:23Z</time>
      </trkpt>
      <trkpt lat="45.86073" lon="2.80552">
        <ele>720</ele>
        <time>2013-09-21T09:44:36Z</time>
      </trkpt>
      <trkpt lat="45.86056" lon="2.80543">
        <ele>720</ele>
        <time>2013-09-21T09:44:50Z</time>
      </trkpt>
      <trkpt lat="45.86023" lon="2.80524">
        <ele>721</ele>
        <time>2013-09-21T09:45:05Z</time>
      </trkpt>
      <trkpt lat="45.85981" lon="2.80494">
        <ele>723</ele>
        <time>2013-09-21T09:45:21Z</time>
      </trkpt>
      <trkpt lat="45.85958" lon="2.80481">
        <ele>725</ele>
        <time>2013-09-21T09:45:35Z</time>
      </trkpt>
      <trkpt lat="45.85931" lon="2.80465">
        <ele>726</ele>
        <time>2013-09-21T09:45:51Z</time>
      </trkpt>
      <trkpt lat="45.85898" lon="2.80452">
        <ele>732</ele>
        <time>2013-09-21T09:46:05Z</time>
      </trkpt>
      <trkpt lat="45.85859" lon="2.80434">
        <ele>733</ele>
        <time>2013-09-21T09:46:20Z</time>
      </trkpt>
      <trkpt lat="45.85822" lon="2.80418">
        <ele>735</ele>
        <time>2013-09-21T09:46:34Z</time>
      </trkpt>
      <trkpt lat="45.85807" lon="2.80427">
        <ele>737</ele>
        <time>2013-09-21T09:46:43Z</time>
      </trkpt>
      <trkpt lat="45.85778" lon="2.80442">
        <ele>738</ele>
        <time>2013-09-21T09:46:58Z</time>
      </trkpt>
      <trkpt lat="45.85752" lon="2.80459">
        <ele>739</ele>
        <time>2013-09-21T09:47:13Z</time>
      </trkpt>
      <trkpt lat="45.85716" lon="2.80471">
        <ele>743</ele>
        <time>2013-09-21T09:47:30Z</time>
      </trkpt>
      <trkpt lat="45.85688" lon="2.80485">
        <ele>745</ele>
        <time>2013-09-21T09:47:46Z</time>
      </trkpt>
      <trkpt lat="45.85672" lon="2.80491">
        <ele>746</ele>
        <time>2013-09-21T09:47:58Z</time>
      </trkpt>
      <trkpt lat="45.85654" lon="2.80504">
        <ele>751</ele>
        <time>2013-09-21T09:48:12Z</time>
      </trkpt>
      <trkpt lat="45.85629" lon="2.80509">
        <ele>754</ele>
        <time>2013-09-21T09:48:28Z</time>
      </trkpt>
      <trkpt lat="45.85621" lon="2.80505">
        <ele>754</ele>
        <time>2013-09-21T09:48:29Z</time>
      </trkpt>
      <trkpt lat="45.85607" lon="2.80506">
        <ele>755</ele>
        <time>2013-09-21T09:48:34Z</time>
      </trkpt>
      <trkpt lat="45.85589" lon="2.80505">
        <ele>756</ele>
        <time>2013-09-21T09:48:44Z</time>
      </trkpt>
      <trkpt lat="45.85557" lon="2.80495">
        <ele>759</ele>
        <time>2013-09-21T09:49:00Z</time>
      </trkpt>
      <trkpt lat="45.85529" lon="2.80481">
        <ele>760</ele>
        <time>2013-09-21T09:49:13Z</time>
      </trkpt>
      <trkpt lat="45.8551" lon="2.80449">
        <ele>761</ele>
        <time>2013-09-21T09:49:25Z</time>
      </trkpt>
      <trkpt lat="45.8549" lon="2.80393">
        <ele>763</ele>
        <time>2013-09-21T09:49:37Z</time>
      </trkpt>
      <trkpt lat="45.85465" lon="2.80318">
        <ele>762</ele>
        <time>2013-09-21T09:49:53Z</time>
      </trkpt>
      <trkpt lat="45.85446" lon="2.80252">
        <ele>762</ele>
        <time>2013-09-21T09:50:07Z</time>
      </trkpt>
      <trkpt lat="45.85441" lon="2.8023">
        <ele>762</ele>
        <time>2013-09-21T09:50:19Z</time>
      </trkpt>
      <trkpt lat="45.8544" lon="2.80231">
        <ele>762</ele>
        <time>2013-09-21T09:50:33Z</time>
      </trkpt>
      <trkpt lat="45.8544" lon="2.80232">
        <ele>762</ele>
        <time>2013-09-21T09:50:50Z</time>
      </trkpt>
      <trkpt lat="45.8544" lon="2.80232">
        <ele>762</ele>
        <time>2013-09-21T09:51:18Z</time>
      </trkpt>
      <trkpt lat="45.85439" lon="2.80233">
        <ele>762</ele>
        <time>2013-09-21T09:51:34Z</time>
      </trkpt>
      <trkpt lat="45.85439" lon="2.80233">
        <ele>762</ele>
        <time>2013-09-21T09:51:57Z</time>
      </trkpt>
      <trkpt lat="45.85439" lon="2.80233">
        <ele>762</ele>
        <time>2013-09-21T09:52:24Z</time>
      </trkpt>
      <trkpt lat="45.8544" lon="2.80233">
        <ele>762</ele>
        <time>2013-09-21T09:52:44Z</time>
      </trkpt>
      <trkpt lat="45.8544" lon="2.80233">
        <ele>762</ele>
        <time>2013-09-21T09:53:12Z</time>
      </trkpt>
      <trkpt lat="45.8544" lon="2.80233">
        <ele>762</ele>
        <time>2013-09-21T09:53:36Z</time>
      </trkpt>
      <trkpt lat="45.8544" lon="2.80233">
        <ele>762</ele>
        <time>2013-09-21T09:54:09Z</time>
      </trkpt>
      <trkpt lat="45.8544" lon="2.80234">
        <ele>762</ele>
        <time>2013-09-21T09:54:43Z</time>
      </trkpt>
      <trkpt lat="45.8544" lon="2.80234">
        <ele>762</ele>
        <time>2013-09-21T09:55:04Z</time>
      </trkpt>
      <trkpt lat="45.85439" lon="2.80235">
        <ele>762</ele>
        <time>2013-09-21T09:55:21Z</time>
      </trkpt>
      <trkpt lat="45.8544" lon="2.80235">
        <ele>762</ele>
        <time>2013-09-21T09:55:42Z</time>
      </trkpt>
      <trkpt lat="45.8544" lon="2.80236">
        <ele>762</ele>
        <time>2013-09-21T09:56:01Z</time>
      </trkpt>
      <trkpt lat="45.8544" lon="2.80239">
        <ele>762</ele>
        <time>2013-09-21T09:56:15Z</time>
      </trkpt>
      <trkpt lat="45.85436" lon="2.80257">
        <ele>762</ele>
        <time>2013-09-21T09:56:21Z</time>
      </trkpt>
      <trkpt lat="45.85425" lon="2.80342">
        <ele>763</ele>
        <time>2013-09-21T09:56:34Z</time>
      </trkpt>
      <trkpt lat="45.85412" lon="2.80453">
        <ele>764</ele>
        <time>2013-09-21T09:56:52Z</time>
      </trkpt>
      <trkpt lat="45.85394" lon="2.80543">
        <ele>767</ele>
        <time>2013-09-21T09:57:10Z</time>
      </trkpt>
      <trkpt lat="45.85362" lon="2.80537">
        <ele>767</ele>
        <time>2013-09-21T09:57:20Z</time>
      </trkpt>
      <trkpt lat="45.85309" lon="2.80517">
        <ele>770</ele>
        <time>2013-09-21T09:57:38Z</time>
      </trkpt>
      <trkpt lat="45.85262" lon="2.805">
        <ele>773</ele>
        <time>2013-09-21T09:57:56Z</time>
      </trkpt>
      <trkpt lat="45.85214" lon="2.80479">
        <ele>776</ele>
        <time>2013-09-21T09:58:14Z</time>
      </trkpt>
      <trkpt lat="45.85161" lon="2.8046">
        <ele>779</ele>
        <time>2013-09-21T09:58:32Z</time>
      </trkpt>
      <trkpt lat="45.85112" lon="2.80444">
        <ele>779</ele>
        <time>2013-09-21T09:58:46Z</time>
      </trkpt>
      <trkpt lat="45.85105" lon="2.80436">
        <ele>779</ele>
        <time>2013-09-21T09:58:48Z</time>
      </trkpt>
      <trkpt lat="45.85098" lon="2.80397">
        <ele>778</ele>
        <time>2013-09-21T09:58:54Z</time>
      </trkpt>
      <trkpt lat="45.85081" lon="2.80303">
        <ele>779</ele>
        <time>2013-09-21T09:59:08Z</time>
      </trkpt>
      <trkpt lat="45.8503" lon="2.8023">
        <ele>779</ele>
        <time>2013-09-21T09:59:23Z</time>
      </trkpt>
      <trkpt lat="45.84978" lon="2.80165">
        <ele>782</ele>
        <time>2013-09-21T09:59:39Z</time>
      </trkpt>
      <trkpt lat="45.84946" lon="2.80121">
        <ele>782</ele>
        <time>2013-09-21T09:59:53Z</time>
      </trkpt>
      <trkpt lat="45.84903" lon="2.80048">
        <ele>784</ele>
        <time>2013-09-21T10:00:10Z</time>
      </trkpt>
      <trkpt lat="45.84846" lon="2.79952">
        <ele>785</ele>
        <time>2013-09-21T10:00:30Z</time>
      </trkpt>
      <trkpt lat="45.84798" lon="2.79941">
        <ele>789</ele>
        <time>2013-09-21T10:00:43Z</time>
      </trkpt>
      <trkpt lat="45.84744" lon="2.79927">
        <ele>793</ele>
        <time>2013-09-21T10:00:59Z</time>
      </trkpt>
      <trkpt lat="45.84716" lon="2.79881">
        <ele>793</ele>
        <time>2013-09-21T10:01:11Z</time>
      </trkpt>
      <trkpt lat="45.84691" lon="2.79828">
        <ele>791</ele>
        <time>2013-09-21T10:01:21Z</time>
      </trkpt>
      <trkpt lat="45.84678" lon="2.7978">
        <ele>789</ele>
        <time>2013-09-21T10:01:27Z</time>
      </trkpt>
      <trkpt lat="45.84675" lon="2.7975">
        <ele>788</ele>
        <time>2013-09-21T10:01:30Z</time>
      </trkpt>
      <trkpt lat="45.84671" lon="2.79691">
        <ele>785</ele>
        <time>2013-09-21T10:01:35Z</time>
      </trkpt>
      <trkpt lat="45.84662" lon="2.79604">
        <ele>784</ele>
        <time>2013-09-21T10:01:43Z</time>
      </trkpt>
      <trkpt lat="45.84671" lon="2.79486">
        <ele>778</ele>
        <time>2013-09-21T10:01:55Z</time>
      </trkpt>
      <trkpt lat="45.84677" lon="2.79373">
        <ele>774</ele>
        <time>2013-09-21T10:02:05Z</time>
      </trkpt>
      <trkpt lat="45.84684" lon="2.79229">
        <ele>772</ele>
        <time>2013-09-21T10:02:18Z</time>
      </trkpt>
      <trkpt lat="45.84689" lon="2.79128">
        <ele>769</ele>
        <time>2013-09-21T10:02:27Z</time>
      </trkpt>
      <trkpt lat="45.84723" lon="2.79">
        <ele>765</ele>
        <time>2013-09-21T10:02:39Z</time>
      </trkpt>
      <trkpt lat="45.84726" lon="2.78988">
        <ele>765</ele>
        <time>2013-09-21T10:02:40Z</time>
      </trkpt>
      <trkpt lat="45.84768" lon="2.78933">
        <ele>764</ele>
        <time>2013-09-21T10:02:47Z</time>
      </trkpt>
      <trkpt lat="45.84847" lon="2.78878">
        <ele>763</ele>
        <time>2013-09-21T10:03:01Z</time>
      </trkpt>
      <trkpt lat="45.84855" lon="2.78869">
        <ele>763</ele>
        <time>2013-09-21T10:03:03Z</time>
      </trkpt>
      <trkpt lat="45.84851" lon="2.78842">
        <ele>763</ele>
        <time>2013-09-21T10:03:11Z</time>
      </trkpt>
      <trkpt lat="45.84845" lon="2.78842">
        <ele>763</ele>
        <time>2013-09-21T10:03:13Z</time>
      </trkpt>
      <trkpt lat="45.84836" lon="2.78845">
        <ele>763</ele>
        <time>2013-09-21T10:03:24Z</time>
      </trkpt>
      <trkpt lat="45.84837" lon="2.78843">
        <ele>763</ele>
        <time>2013-09-21T10:03:40Z</time>
      </trkpt>
      <trkpt lat="45.84836" lon="2.78841">
        <ele>763</ele>
        <time>2013-09-21T10:03:56Z</time>
      </trkpt>
      <trkpt lat="45.84836" lon="2.78841">
        <ele>763</ele>
        <time>2013-09-21T10:04:18Z</time>
      </trkpt>
      <trkpt lat="45.84836" lon="2.7884">
        <ele>763</ele>
        <time>2013-09-21T10:04:32Z</time>
      </trkpt>
      <trkpt lat="45.84837" lon="2.7884">
        <ele>763</ele>
        <time>2013-09-21T10:04:48Z</time>
      </trkpt>
      <trkpt lat="45.84837" lon="2.78845">
        <ele>763</ele>
        <time>2013-09-21T10:05:00Z</time>
      </trkpt>
      <trkpt lat="45.84835" lon="2.78841">
        <ele>763</ele>
        <time>2013-09-21T10:05:15Z</time>
      </trkpt>
      <trkpt lat="45.84838" lon="2.78846">
        <ele>763</ele>
        <time>2013-09-21T10:05:27Z</time>
      </trkpt>
      <trkpt lat="45.84835" lon="2.78848">
        <ele>763</ele>
        <time>2013-09-21T10:05:42Z</time>
      </trkpt>
      <trkpt lat="45.84835" lon="2.78848">
        <ele>763</ele>
        <time>2013-09-21T10:05:59Z</time>
      </trkpt>
      <trkpt lat="45.84837" lon="2.78849">
        <ele>763</ele>
        <time>2013-09-21T10:06:05Z</time>
      </trkpt>
      <trkpt lat="45.8485" lon="2.78851">
        <ele>763</ele>
        <time>2013-09-21T10:06:12Z</time>
      </trkpt>
      <trkpt lat="45.84864" lon="2.78844">
        <ele>763</ele>
        <time>2013-09-21T10:06:24Z</time>
      </trkpt>
      <trkpt lat="45.84839" lon="2.78787">
        <ele>758</ele>
        <time>2013-09-21T10:06:37Z</time>
      </trkpt>
      <trkpt lat="45.84794" lon="2.7875">
        <ele>752</ele>
        <time>2013-09-21T10:06:47Z</time>
      </trkpt>
      <trkpt lat="45.84708" lon="2.78741">
        <ele>755</ele>
        <time>2013-09-21T10:07:03Z</time>
      </trkpt>
      <trkpt lat="45.84631" lon="2.78697">
        <ele>757</ele>
        <time>2013-09-21T10:07:19Z</time>
      </trkpt>
      <trkpt lat="45.84585" lon="2.78672">
        <ele>757</ele>
        <time>2013-09-21T10:07:28Z</time>
      </trkpt>
      <trkpt lat="45.84575" lon="2.78668">
        <ele>759</ele>
        <time>2013-09-21T10:07:30Z</time>
      </trkpt>
      <trkpt lat="45.84559" lon="2.78664">
        <ele>756</ele>
        <time>2013-09-21T10:07:34Z</time>
      </trkpt>
      <trkpt lat="45.84508" lon="2.78622">
        <ele>755</ele>
        <time>2013-09-21T10:07:44Z</time>
      </trkpt>
      <trkpt lat="45.84498" lon="2.78614">
        <ele>756</ele>
        <time>2013-09-21T10:07:46Z</time>
      </trkpt>
      <trkpt lat="45.84461" lon="2.78593">
        <ele>755</ele>
        <time>2013-09-21T10:07:52Z</time>
      </trkpt>
      <trkpt lat="45.84419" lon="2.78579">
        <ele>750</ele>
        <time>2013-09-21T10:07:57Z</time>
      </trkpt>
      <trkpt lat="45.84383" lon="2.7857">
        <ele>749</ele>
        <time>2013-09-21T10:08:01Z</time>
      </trkpt>
      <trkpt lat="45.84375" lon="2.78569">
        <ele>749</ele>
        <time>2013-09-21T10:08:02Z</time>
      </trkpt>
      <trkpt lat="45.84362" lon="2.78566">
        <ele>750</ele>
        <time>2013-09-21T10:08:04Z</time>
      </trkpt>
      <trkpt lat="45.84356" lon="2.78562">
        <ele>750</ele>
        <time>2013-09-21T10:08:05Z</time>
      </trkpt>
      <trkpt lat="45.84339" lon="2.78566">
        <ele>751</ele>
        <time>2013-09-21T10:08:11Z</time>
      </trkpt>
      <trkpt lat="45.84333" lon="2.78588">
        <ele>756</ele>
        <time>2013-09-21T10:08:21Z</time>
      </trkpt>
      <trkpt lat="45.84333" lon="2.78608">
        <ele>762</ele>
        <time>2013-09-21T10:08:33Z</time>
      </trkpt>
      <trkpt lat="45.84335" lon="2.78626">
        <ele>758</ele>
        <time>2013-09-21T10:08:43Z</time>
      </trkpt>
      <trkpt lat="45.84336" lon="2.78635">
        <ele>759</ele>
        <time>2013-09-21T10:08:47Z</time>
      </trkpt>
      <trkpt lat="45.84335" lon="2.78672">
        <ele>764</ele>
        <time>2013-09-21T10:09:03Z</time>
      </trkpt>
      <trkpt lat="45.84318" lon="2.78707">
        <ele>770</ele>
        <time>2013-09-21T10:09:19Z</time>
      </trkpt>
      <trkpt lat="45.843" lon="2.7874">
        <ele>772</ele>
        <time>2013-09-21T10:09:37Z</time>
      </trkpt>
      <trkpt lat="45.84279" lon="2.78769">
        <ele>774</ele>
        <time>2013-09-21T10:09:54Z</time>
      </trkpt>
      <trkpt lat="45.8426" lon="2.78795">
        <ele>775</ele>
        <time>2013-09-21T10:10:10Z</time>
      </trkpt>
      <trkpt lat="45.84237" lon="2.78833">
        <ele>777</ele>
        <time>2013-09-21T10:10:28Z</time>
      </trkpt>
      <trkpt lat="45.8423" lon="2.78874">
        <ele>779</ele>
        <time>2013-09-21T10:10:45Z</time>
      </trkpt>
      <trkpt lat="45.84226" lon="2.78901">
        <ele>779</ele>
        <time>2013-09-21T10:10:58Z</time>
      </trkpt>
      <trkpt lat="45.84222" lon="2.78949">
        <ele>780</ele>
        <time>2013-09-21T10:11:15Z</time>
      </trkpt>
      <trkpt lat="45.842" lon="2.78998">
        <ele>781</ele>
        <time>2013-09-21T10:11:31Z</time>
      </trkpt>
      <trkpt lat="45.84153" lon="2.79043">
        <ele>785</ele>
        <time>2013-09-21T10:11:46Z</time>
      </trkpt>
      <trkpt lat="45.84113" lon="2.79064">
        <ele>787</ele>
        <time>2013-09-21T10:12:03Z</time>
      </trkpt>
      <trkpt lat="45.84086" lon="2.79073">
        <ele>789</ele>
        <time>2013-09-21T10:12:18Z</time>
      </trkpt>
      <trkpt lat="45.84046" lon="2.79088">
        <ele>793</ele>
        <time>2013-09-21T10:12:37Z</time>
      </trkpt>
      <trkpt lat="45.84012" lon="2.79105">
        <ele>794</ele>
        <time>2013-09-21T10:12:55Z</time>
      </trkpt>
      <trkpt lat="45.83983" lon="2.79127">
        <ele>798</ele>
        <time>2013-09-21T10:13:12Z</time>
      </trkpt>
      <trkpt lat="45.83958" lon="2.79145">
        <ele>799</ele>
        <time>2013-09-21T10:13:28Z</time>
      </trkpt>
      <trkpt lat="45.83939" lon="2.79159">
        <ele>800</ele>
        <time>2013-09-21T10:13:41Z</time>
      </trkpt>
      <trkpt lat="45.83905" lon="2.79182">
        <ele>806</ele>
        <time>2013-09-21T10:14:02Z</time>
      </trkpt>
      <trkpt lat="45.83869" lon="2.79214">
        <ele>810</ele>
        <time>2013-09-21T10:14:25Z</time>
      </trkpt>
      <trkpt lat="45.83843" lon="2.79233">
        <ele>812</ele>
        <time>2013-09-21T10:14:42Z</time>
      </trkpt>
      <trkpt lat="45.83815" lon="2.7925">
        <ele>815</ele>
        <time>2013-09-21T10:15:00Z</time>
      </trkpt>
      <trkpt lat="45.83782" lon="2.79266">
        <ele>818</ele>
        <time>2013-09-21T10:15:19Z</time>
      </trkpt>
      <trkpt lat="45.83759" lon="2.79292">
        <ele>819</ele>
        <time>2013-09-21T10:15:33Z</time>
      </trkpt>
      <trkpt lat="45.83733" lon="2.79319">
        <ele>821</ele>
        <time>2013-09-21T10:15:49Z</time>
      </trkpt>
      <trkpt lat="45.83704" lon="2.7935">
        <ele>824</ele>
        <time>2013-09-21T10:16:05Z</time>
      </trkpt>
      <trkpt lat="45.83672" lon="2.79388">
        <ele>825</ele>
        <time>2013-09-21T10:16:23Z</time>
      </trkpt>
      <trkpt lat="45.83639" lon="2.79417">
        <ele>829</ele>
        <time>2013-09-21T10:16:38Z</time>
      </trkpt>
      <trkpt lat="45.83587" lon="2.79455">
        <ele>829</ele>
        <time>2013-09-21T10:16:55Z</time>
      </trkpt>
      <trkpt lat="45.8354" lon="2.79496">
        <ele>827</ele>
        <time>2013-09-21T10:17:08Z</time>
      </trkpt>
      <trkpt lat="45.8348" lon="2.79558">
        <ele>830</ele>
        <time>2013-09-21T10:17:25Z</time>
      </trkpt>
      <trkpt lat="45.83476" lon="2.7956">
        <ele>830</ele>
        <time>2013-09-21T10:17:26Z</time>
      </trkpt>
      <trkpt lat="45.83381" lon="2.79596">
        <ele>832</ele>
        <time>2013-09-21T10:17:48Z</time>
      </trkpt>
      <trkpt lat="45.83297" lon="2.79617">
        <ele>830</ele>
        <time>2013-09-21T10:18:03Z</time>
      </trkpt>
      <trkpt lat="45.83232" lon="2.79633">
        <ele>827</ele>
        <time>2013-09-21T10:18:14Z</time>
      </trkpt>
      <trkpt lat="45.83215" lon="2.79615">
        <ele>826</ele>
        <time>2013-09-21T10:18:19Z</time>
      </trkpt>
      <trkpt lat="45.83206" lon="2.79555">
        <ele>823</ele>
        <time>2013-09-21T10:18:25Z</time>
      </trkpt>
      <trkpt lat="45.83193" lon="2.79483">
        <ele>818</ele>
        <time>2013-09-21T10:18:31Z</time>
      </trkpt>
      <trkpt lat="45.83191" lon="2.79469">
        <ele>817</ele>
        <time>2013-09-21T10:18:32Z</time>
      </trkpt>
      <trkpt lat="45.83194" lon="2.79398">
        <ele>810</ele>
        <time>2013-09-21T10:18:37Z</time>
      </trkpt>
      <trkpt lat="45.83195" lon="2.79386">
        <ele>810</ele>
        <time>2013-09-21T10:18:38Z</time>
      </trkpt>
      <trkpt lat="45.83195" lon="2.79352">
        <ele>808</ele>
        <time>2013-09-21T10:18:41Z</time>
      </trkpt>
      <trkpt lat="45.83184" lon="2.79319">
        <ele>802</ele>
        <time>2013-09-21T10:18:45Z</time>
      </trkpt>
      <trkpt lat="45.83159" lon="2.79295">
        <ele>796</ele>
        <time>2013-09-21T10:18:49Z</time>
      </trkpt>
      <trkpt lat="45.83126" lon="2.79296">
        <ele>794</ele>
        <time>2013-09-21T10:18:53Z</time>
      </trkpt>
      <trkpt lat="45.83116" lon="2.79301">
        <ele>794</ele>
        <time>2013-09-21T10:18:54Z</time>
      </trkpt>
      <trkpt lat="45.83056" lon="2.7936">
        <ele>795</ele>
        <time>2013-09-21T10:19:00Z</time>
      </trkpt>
      <trkpt lat="45.83045" lon="2.79369">
        <ele>794</ele>
        <time>2013-09-21T10:19:01Z</time>
      </trkpt>
      <trkpt lat="45.83024" lon="2.79383">
        <ele>794</ele>
        <time>2013-09-21T10:19:03Z</time>
      </trkpt>
      <trkpt lat="45.82996" lon="2.79391">
        <ele>788</ele>
        <time>2013-09-21T10:19:07Z</time>
      </trkpt>
      <trkpt lat="45.8299" lon="2.79361">
        <ele>785</ele>
        <time>2013-09-21T10:19:12Z</time>
      </trkpt>
      <trkpt lat="45.83007" lon="2.79323">
        <ele>783</ele>
        <time>2013-09-21T10:19:16Z</time>
      </trkpt>
      <trkpt lat="45.83026" lon="2.7929">
        <ele>783</ele>
        <time>2013-09-21T10:19:19Z</time>
      </trkpt>
      <trkpt lat="45.83038" lon="2.79254">
        <ele>781</ele>
        <time>2013-09-21T10:19:22Z</time>
      </trkpt>
      <trkpt lat="45.83039" lon="2.79219">
        <ele>777</ele>
        <time>2013-09-21T10:19:25Z</time>
      </trkpt>
      <trkpt lat="45.83035" lon="2.79204">
        <ele>778</ele>
        <time>2013-09-21T10:19:27Z</time>
      </trkpt>
      <trkpt lat="45.82996" lon="2.792">
        <ele>778</ele>
        <time>2013-09-21T10:19:33Z</time>
      </trkpt>
      <trkpt lat="45.82933" lon="2.79204">
        <ele>778</ele>
        <time>2013-09-21T10:19:46Z</time>
      </trkpt>
      <trkpt lat="45.82904" lon="2.79204">
        <ele>780</ele>
        <time>2013-09-21T10:19:58Z</time>
      </trkpt>
      <trkpt lat="45.82877" lon="2.79211">
        <ele>781</ele>
        <time>2013-09-21T10:20:11Z</time>
      </trkpt>
      <trkpt lat="45.82833" lon="2.79224">
        <ele>783</ele>
        <time>2013-09-21T10:20:25Z</time>
      </trkpt>
      <trkpt lat="45.82789" lon="2.79225">
        <ele>785</ele>
        <time>2013-09-21T10:20:38Z</time>
      </trkpt>
      <trkpt lat="45.82739" lon="2.79224">
        <ele>788</ele>
        <time>2013-09-21T10:20:54Z</time>
      </trkpt>
      <trkpt lat="45.82673" lon="2.79228">
        <ele>789</ele>
        <time>2013-09-21T10:21:09Z</time>
      </trkpt>
      <trkpt lat="45.82614" lon="2.79255">
        <ele>788</ele>
        <time>2013-09-21T10:21:25Z</time>
      </trkpt>
      <trkpt lat="45.82555" lon="2.79269">
        <ele>790</ele>
        <time>2013-09-21T10:21:39Z</time>
      </trkpt>
      <trkpt lat="45.82525" lon="2.79235">
        <ele>794</ele>
        <time>2013-09-21T10:21:52Z</time>
      </trkpt>
      <trkpt lat="45.82494" lon="2.79241">
        <ele>793</ele>
        <time>2013-09-21T10:22:05Z</time>
      </trkpt>
      <trkpt lat="45.82489" lon="2.79252">
        <ele>792</ele>
        <time>2013-09-21T10:22:07Z</time>
      </trkpt>
      <trkpt lat="45.82439" lon="2.79289">
        <ele>793</ele>
        <time>2013-09-21T10:22:22Z</time>
      </trkpt>
      <trkpt lat="45.82365" lon="2.79307">
        <ele>800</ele>
        <time>2013-09-21T10:22:45Z</time>
      </trkpt>
      <trkpt lat="45.82328" lon="2.7935">
        <ele>801</ele>
        <time>2013-09-21T10:22:53Z</time>
      </trkpt>
      <trkpt lat="45.82302" lon="2.79361">
        <ele>801</ele>
        <time>2013-09-21T10:22:57Z</time>
      </trkpt>
      <trkpt lat="45.8223" lon="2.79368">
        <ele>805</ele>
        <time>2013-09-21T10:23:10Z</time>
      </trkpt>
      <trkpt lat="45.82175" lon="2.79369">
        <ele>806</ele>
        <time>2013-09-21T10:23:24Z</time>
      </trkpt>
      <trkpt lat="45.82143" lon="2.79368">
        <ele>807</ele>
        <time>2013-09-21T10:23:36Z</time>
      </trkpt>
      <trkpt lat="45.82114" lon="2.7936">
        <ele>807</ele>
        <time>2013-09-21T10:23:48Z</time>
      </trkpt>
      <trkpt lat="45.82099" lon="2.79333">
        <ele>811</ele>
        <time>2013-09-21T10:24:02Z</time>
      </trkpt>
      <trkpt lat="45.82091" lon="2.7931">
        <ele>812</ele>
        <time>2013-09-21T10:24:14Z</time>
      </trkpt>
      <trkpt lat="45.82083" lon="2.79285">
        <ele>814</ele>
        <time>2013-09-21T10:24:27Z</time>
      </trkpt>
      <trkpt lat="45.82076" lon="2.79251">
        <ele>815</ele>
        <time>2013-09-21T10:24:44Z</time>
      </trkpt>
      <trkpt lat="45.82072" lon="2.79225">
        <ele>819</ele>
        <time>2013-09-21T10:24:57Z</time>
      </trkpt>
      <trkpt lat="45.82071" lon="2.79186">
        <ele>822</ele>
        <time>2013-09-21T10:25:14Z</time>
      </trkpt>
      <trkpt lat="45.82072" lon="2.79146">
        <ele>826</ele>
        <time>2013-09-21T10:25:31Z</time>
      </trkpt>
      <trkpt lat="45.82068" lon="2.79101">
        <ele>827</ele>
        <time>2013-09-21T10:25:49Z</time>
      </trkpt>
      <trkpt lat="45.8205" lon="2.7904">
        <ele>829</ele>
        <time>2013-09-21T10:26:09Z</time>
      </trkpt>
      <trkpt lat="45.82031" lon="2.78985">
        <ele>831</ele>
        <time>2013-09-21T10:26:26Z</time>
      </trkpt>
      <trkpt lat="45.82011" lon="2.78927">
        <ele>833</ele>
        <time>2013-09-21T10:26:45Z</time>
      </trkpt>
      <trkpt lat="45.81985" lon="2.78856">
        <ele>835</ele>
        <time>2013-09-21T10:27:08Z</time>
      </trkpt>
      <trkpt lat="45.81962" lon="2.78781">
        <ele>838</ele>
        <time>2013-09-21T10:27:28Z</time>
      </trkpt>
      <trkpt lat="45.81931" lon="2.78686">
        <ele>845</ele>
        <time>2013-09-21T10:27:51Z</time>
      </trkpt>
      <trkpt lat="45.81909" lon="2.78626">
        <ele>851</ele>
        <time>2013-09-21T10:28:09Z</time>
      </trkpt>
      <trkpt lat="45.81894" lon="2.78574">
        <ele>856</ele>
        <time>2013-09-21T10:28:25Z</time>
      </trkpt>
      <trkpt lat="45.8188" lon="2.78523">
        <ele>857</ele>
        <time>2013-09-21T10:28:41Z</time>
      </trkpt>
      <trkpt lat="45.81864" lon="2.7848">
        <ele>861</ele>
        <time>2013-09-21T10:28:58Z</time>
      </trkpt>
      <trkpt lat="45.8185" lon="2.78443">
        <ele>862</ele>
        <time>2013-09-21T10:29:12Z</time>
      </trkpt>
      <trkpt lat="45.81833" lon="2.78401">
        <ele>866</ele>
        <time>2013-09-21T10:29:26Z</time>
      </trkpt>
      <trkpt lat="45.81831" lon="2.78396">
        <ele>866</ele>
        <time>2013-09-21T10:29:40Z</time>
      </trkpt>
      <trkpt lat="45.8183" lon="2.78395">
        <ele>866</ele>
        <time>2013-09-21T10:29:58Z</time>
      </trkpt>
      <trkpt lat="45.8183" lon="2.78395">
        <ele>866</ele>
        <time>2013-09-21T10:30:25Z</time>
      </trkpt>
      <trkpt lat="45.81831" lon="2.78395">
        <ele>866</ele>
        <time>2013-09-21T10:31:03Z</time>
      </trkpt>
      <trkpt lat="45.8183" lon="2.78394">
        <ele>866</ele>
        <time>2013-09-21T10:31:30Z</time>
      </trkpt>
      <trkpt lat="45.81829" lon="2.78393">
        <ele>866</ele>
        <time>2013-09-21T10:31:53Z</time>
      </trkpt>
      <trkpt lat="45.81828" lon="2.78391">
        <ele>866</ele>
        <time>2013-09-21T10:31:55Z</time>
      </trkpt>
      <trkpt lat="45.81826" lon="2.78386">
        <ele>866</ele>
        <time>2013-09-21T10:32:07Z</time>
      </trkpt>
      <trkpt lat="45.81808" lon="2.78346">
        <ele>867</ele>
        <time>2013-09-21T10:32:23Z</time>
      </trkpt>
      <trkpt lat="45.81773" lon="2.78261">
        <ele>863</ele>
        <time>2013-09-21T10:32:38Z</time>
      </trkpt>
      <trkpt lat="45.81805" lon="2.78218">
        <ele>861</ele>
        <time>2013-09-21T10:32:49Z</time>
      </trkpt>
      <trkpt lat="45.8186" lon="2.7817">
        <ele>863</ele>
        <time>2013-09-21T10:33:06Z</time>
      </trkpt>
      <trkpt lat="45.81907" lon="2.78105">
        <ele>861</ele>
        <time>2013-09-21T10:33:20Z</time>
      </trkpt>
      <trkpt lat="45.81925" lon="2.78077">
        <ele>860</ele>
        <time>2013-09-21T10:33:24Z</time>
      </trkpt>
      <trkpt lat="45.8197" lon="2.77984">
        <ele>852</ele>
        <time>2013-09-21T10:33:34Z</time>
      </trkpt>
      <trkpt lat="45.81994" lon="2.77953">
        <ele>851</ele>
        <time>2013-09-21T10:33:38Z</time>
      </trkpt>
      <trkpt lat="45.82006" lon="2.77941">
        <ele>849</ele>
        <time>2013-09-21T10:33:40Z</time>
      </trkpt>
      <trkpt lat="45.82014" lon="2.77922">
        <ele>848</ele>
        <time>2013-09-21T10:33:43Z</time>
      </trkpt>
      <trkpt lat="45.82008" lon="2.77907">
        <ele>847</ele>
        <time>2013-09-21T10:33:46Z</time>
      </trkpt>
      <trkpt lat="45.82003" lon="2.77898">
        <ele>847</ele>
        <time>2013-09-21T10:33:48Z</time>
      </trkpt>
      <trkpt lat="45.81966" lon="2.77811">
        <ele>846</ele>
        <time>2013-09-21T10:34:01Z</time>
      </trkpt>
      <trkpt lat="45.81959" lon="2.77796">
        <ele>846</ele>
        <time>2013-09-21T10:34:03Z</time>
      </trkpt>
      <trkpt lat="45.81939" lon="2.77777">
        <ele>846</ele>
        <time>2013-09-21T10:34:07Z</time>
      </trkpt>
      <trkpt lat="45.81923" lon="2.77767">
        <ele>847</ele>
        <time>2013-09-21T10:34:10Z</time>
      </trkpt>
      <trkpt lat="45.81855" lon="2.77677">
        <ele>847</ele>
        <time>2013-09-21T10:34:26Z</time>
      </trkpt>
      <trkpt lat="45.81816" lon="2.77596">
        <ele>842</ele>
        <time>2013-09-21T10:34:35Z</time>
      </trkpt>
      <trkpt lat="45.81795" lon="2.77552">
        <ele>838</ele>
        <time>2013-09-21T10:34:39Z</time>
      </trkpt>
      <trkpt lat="45.81782" lon="2.77529">
        <ele>838</ele>
        <time>2013-09-21T10:34:41Z</time>
      </trkpt>
      <trkpt lat="45.81767" lon="2.77508">
        <ele>837</ele>
        <time>2013-09-21T10:34:43Z</time>
      </trkpt>
      <trkpt lat="45.81742" lon="2.7748">
        <ele>835</ele>
        <time>2013-09-21T10:34:46Z</time>
      </trkpt>
      <trkpt lat="45.81733" lon="2.77471">
        <ele>835</ele>
        <time>2013-09-21T10:34:47Z</time>
      </trkpt>
      <trkpt lat="45.817" lon="2.77461">
        <ele>835</ele>
        <time>2013-09-21T10:34:51Z</time>
      </trkpt>
      <trkpt lat="45.81586" lon="2.775">
        <ele>835</ele>
        <time>2013-09-21T10:35:07Z</time>
      </trkpt>
      <trkpt lat="45.8147" lon="2.77538">
        <ele>832</ele>
        <time>2013-09-21T10:35:22Z</time>
      </trkpt>
      <trkpt lat="45.81427" lon="2.77557">
        <ele>831</ele>
        <time>2013-09-21T10:35:28Z</time>
      </trkpt>
      <trkpt lat="45.81392" lon="2.77564">
        <ele>830</ele>
        <time>2013-09-21T10:35:32Z</time>
      </trkpt>
      <trkpt lat="45.81382" lon="2.77564">
        <ele>830</ele>
        <time>2013-09-21T10:35:33Z</time>
      </trkpt>
      <trkpt lat="45.81334" lon="2.77557">
        <ele>830</ele>
        <time>2013-09-21T10:35:38Z</time>
      </trkpt>
      <trkpt lat="45.81309" lon="2.77563">
        <ele>832</ele>
        <time>2013-09-21T10:35:42Z</time>
      </trkpt>
      <trkpt lat="45.81292" lon="2.77573">
        <ele>833</ele>
        <time>2013-09-21T10:35:46Z</time>
      </trkpt>
      <trkpt lat="45.81276" lon="2.77577">
        <ele>834</ele>
        <time>2013-09-21T10:35:50Z</time>
      </trkpt>
      <trkpt lat="45.81262" lon="2.77581">
        <ele>836</ele>
        <time>2013-09-21T10:35:53Z</time>
      </trkpt>
      <trkpt lat="45.81189" lon="2.77562">
        <ele>834</ele>
        <time>2013-09-21T10:36:06Z</time>
      </trkpt>
      <trkpt lat="45.81108" lon="2.77549">
        <ele>831</ele>
        <time>2013-09-21T10:36:20Z</time>
      </trkpt>
      <trkpt lat="45.81052" lon="2.77548">
        <ele>832</ele>
        <time>2013-09-21T10:36:35Z</time>
      </trkpt>
      <trkpt lat="45.80998" lon="2.77527">
        <ele>837</ele>
        <time>2013-09-21T10:36:48Z</time>
      </trkpt>
      <trkpt lat="45.80941" lon="2.77498">
        <ele>837</ele>
        <time>2013-09-21T10:37:02Z</time>
      </trkpt>
      <trkpt lat="45.80903" lon="2.77478">
        <ele>841</ele>
        <time>2013-09-21T10:37:17Z</time>
      </trkpt>
      <trkpt lat="45.80862" lon="2.77462">
        <ele>842</ele>
        <time>2013-09-21T10:37:32Z</time>
      </trkpt>
      <trkpt lat="45.80811" lon="2.77452">
        <ele>844</ele>
        <time>2013-09-21T10:37:47Z</time>
      </trkpt>
      <trkpt lat="45.80765" lon="2.77411">
        <ele>844</ele>
        <time>2013-09-21T10:38:01Z</time>
      </trkpt>
      <trkpt lat="45.80745" lon="2.77388">
        <ele>848</ele>
        <time>2013-09-21T10:38:15Z</time>
      </trkpt>
      <trkpt lat="45.80722" lon="2.77366">
        <ele>849</ele>
        <time>2013-09-21T10:38:31Z</time>
      </trkpt>
      <trkpt lat="45.80701" lon="2.7735">
        <ele>850</ele>
        <time>2013-09-21T10:38:45Z</time>
      </trkpt>
      <trkpt lat="45.80674" lon="2.77337">
        <ele>853</ele>
        <time>2013-09-21T10:39:02Z</time>
      </trkpt>
      <trkpt lat="45.80651" lon="2.77358">
        <ele>856</ele>
        <time>2013-09-21T10:39:19Z</time>
      </trkpt>
      <trkpt lat="45.80632" lon="2.77373">
        <ele>857</ele>
        <time>2013-09-21T10:39:31Z</time>
      </trkpt>
      <trkpt lat="45.80605" lon="2.77398">
        <ele>859</ele>
        <time>2013-09-21T10:39:48Z</time>
      </trkpt>
      <trkpt lat="45.80574" lon="2.77411">
        <ele>862</ele>
        <time>2013-09-21T10:40:04Z</time>
      </trkpt>
      <trkpt lat="45.80535" lon="2.77394">
        <ele>864</ele>
        <time>2013-09-21T10:40:20Z</time>
      </trkpt>
      <trkpt lat="45.80485" lon="2.77371">
        <ele>867</ele>
        <time>2013-09-21T10:40:35Z</time>
      </trkpt>
      <trkpt lat="45.80454" lon="2.77329">
        <ele>868</ele>
        <time>2013-09-21T10:40:50Z</time>
      </trkpt>
      <trkpt lat="45.8042" lon="2.7727">
        <ele>868</ele>
        <time>2013-09-21T10:41:09Z</time>
      </trkpt>
      <trkpt lat="45.8038" lon="2.77213">
        <ele>871</ele>
        <time>2013-09-21T10:41:29Z</time>
      </trkpt>
      <trkpt lat="45.80348" lon="2.77165">
        <ele>872</ele>
        <time>2013-09-21T10:41:46Z</time>
      </trkpt>
      <trkpt lat="45.80312" lon="2.77126">
        <ele>876</ele>
        <time>2013-09-21T10:42:02Z</time>
      </trkpt>
      <trkpt lat="45.80272" lon="2.771">
        <ele>878</ele>
        <time>2013-09-21T10:42:19Z</time>
      </trkpt>
      <trkpt lat="45.8023" lon="2.77095">
        <ele>882</ele>
        <time>2013-09-21T10:42:37Z</time>
      </trkpt>
      <trkpt lat="45.80187" lon="2.7709">
        <ele>885</ele>
        <time>2013-09-21T10:42:56Z</time>
      </trkpt>
      <trkpt lat="45.8014" lon="2.77087">
        <ele>888</ele>
        <time>2013-09-21T10:43:14Z</time>
      </trkpt>
      <trkpt lat="45.80108" lon="2.77082">
        <ele>889</ele>
        <time>2013-09-21T10:43:29Z</time>
      </trkpt>
      <trkpt lat="45.80072" lon="2.77104">
        <ele>891</ele>
        <time>2013-09-21T10:43:44Z</time>
      </trkpt>
      <trkpt lat="45.80036" lon="2.7713">
        <ele>892</ele>
        <time>2013-09-21T10:43:59Z</time>
      </trkpt>
      <trkpt lat="45.79993" lon="2.771">
        <ele>893</ele>
        <time>2013-09-21T10:44:14Z</time>
      </trkpt>
      <trkpt lat="45.79948" lon="2.77081">
        <ele>896</ele>
        <time>2013-09-21T10:44:31Z</time>
      </trkpt>
      <trkpt lat="45.79907" lon="2.7712">
        <ele>895</ele>
        <time>2013-09-21T10:44:46Z</time>
      </trkpt>
      <trkpt lat="45.79898" lon="2.77174">
        <ele>894</ele>
        <time>2013-09-21T10:44:57Z</time>
      </trkpt>
      <trkpt lat="45.799" lon="2.7718">
        <ele>895</ele>
        <time>2013-09-21T10:44:58Z</time>
      </trkpt>
      <trkpt lat="45.79936" lon="2.77277">
        <ele>896</ele>
        <time>2013-09-21T10:45:13Z</time>
      </trkpt>
      <trkpt lat="45.79957" lon="2.77357">
        <ele>896</ele>
        <time>2013-09-21T10:45:28Z</time>
      </trkpt>
      <trkpt lat="45.79973" lon="2.77431">
        <ele>896</ele>
        <time>2013-09-21T10:45:43Z</time>
      </trkpt>
      <trkpt lat="45.79964" lon="2.77515">
        <ele>895</ele>
        <time>2013-09-21T10:45:56Z</time>
      </trkpt>
      <trkpt lat="45.79963" lon="2.77538">
        <ele>895</ele>
        <time>2013-09-21T10:45:59Z</time>
      </trkpt>
      <trkpt lat="45.79958" lon="2.77622">
        <ele>893</ele>
        <time>2013-09-21T10:46:10Z</time>
      </trkpt>
      <trkpt lat="45.79952" lon="2.77646">
        <ele>893</ele>
        <time>2013-09-21T10:46:13Z</time>
      </trkpt>
      <trkpt lat="45.79937" lon="2.77671">
        <ele>894</ele>
        <time>2013-09-21T10:46:17Z</time>
      </trkpt>
      <trkpt lat="45.79918" lon="2.77688">
        <ele>894</ele>
        <time>2013-09-21T10:46:21Z</time>
      </trkpt>
      <trkpt lat="45.79841" lon="2.77749">
        <ele>895</ele>
        <time>2013-09-21T10:46:37Z</time>
      </trkpt>
      <trkpt lat="45.79773" lon="2.77803">
        <ele>897</ele>
        <time>2013-09-21T10:46:54Z</time>
      </trkpt>
      <trkpt lat="45.79745" lon="2.77817">
        <ele>898</ele>
        <time>2013-09-21T10:47:01Z</time>
      </trkpt>
      <trkpt lat="45.79728" lon="2.77811">
        <ele>898</ele>
        <time>2013-09-21T10:47:05Z</time>
      </trkpt>
      <trkpt lat="45.79651" lon="2.77756">
        <ele>896</ele>
        <time>2013-09-21T10:47:19Z</time>
      </trkpt>
      <trkpt lat="45.79612" lon="2.77739">
        <ele>894</ele>
        <time>2013-09-21T10:47:25Z</time>
      </trkpt>
      <trkpt lat="45.79521" lon="2.77726">
        <ele>894</ele>
        <time>2013-09-21T10:47:40Z</time>
      </trkpt>
      <trkpt lat="45.79443" lon="2.77698">
        <ele>893</ele>
        <time>2013-09-21T10:47:53Z</time>
      </trkpt>
      <trkpt lat="45.79373" lon="2.77695">
        <ele>893</ele>
        <time>2013-09-21T10:48:05Z</time>
      </trkpt>
      <trkpt lat="45.79288" lon="2.77705">
        <ele>892</ele>
        <time>2013-09-21T10:48:19Z</time>
      </trkpt>
      <trkpt lat="45.79277" lon="2.7771">
        <ele>892</ele>
        <time>2013-09-21T10:48:21Z</time>
      </trkpt>
      <trkpt lat="45.79209" lon="2.77764">
        <ele>892</ele>
        <time>2013-09-21T10:48:34Z</time>
      </trkpt>
      <trkpt lat="45.79164" lon="2.77796">
        <ele>891</ele>
        <time>2013-09-21T10:48:42Z</time>
      </trkpt>
      <trkpt lat="45.79123" lon="2.77808">
        <ele>891</ele>
        <time>2013-09-21T10:48:49Z</time>
      </trkpt>
      <trkpt lat="45.7905" lon="2.77793">
        <ele>892</ele>
        <time>2013-09-21T10:49:02Z</time>
      </trkpt>
      <trkpt lat="45.79005" lon="2.77779">
        <ele>892</ele>
        <time>2013-09-21T10:49:10Z</time>
      </trkpt>
      <trkpt lat="45.78946" lon="2.77736">
        <ele>891</ele>
        <time>2013-09-21T10:49:22Z</time>
      </trkpt>
      <trkpt lat="45.7889" lon="2.7765">
        <ele>893</ele>
        <time>2013-09-21T10:49:38Z</time>
      </trkpt>
      <trkpt lat="45.78839" lon="2.77592">
        <ele>894</ele>
        <time>2013-09-21T10:49:54Z</time>
      </trkpt>
      <trkpt lat="45.78799" lon="2.77532">
        <ele>895</ele>
        <time>2013-09-21T10:50:09Z</time>
      </trkpt>
      <trkpt lat="45.78751" lon="2.77475">
        <ele>895</ele>
        <time>2013-09-21T10:50:24Z</time>
      </trkpt>
      <trkpt lat="45.78698" lon="2.77415">
        <ele>897</ele>
        <time>2013-09-21T10:50:40Z</time>
      </trkpt>
      <trkpt lat="45.78638" lon="2.77333">
        <ele>897</ele>
        <time>2013-09-21T10:50:58Z</time>
      </trkpt>
      <trkpt lat="45.78629" lon="2.77326">
        <ele>896</ele>
        <time>2013-09-21T10:51:00Z</time>
      </trkpt>
      <trkpt lat="45.78608" lon="2.7732">
        <ele>895</ele>
        <time>2013-09-21T10:51:05Z</time>
      </trkpt>
      <trkpt lat="45.78573" lon="2.77331">
        <ele>893</ele>
        <time>2013-09-21T10:51:12Z</time>
      </trkpt>
      <trkpt lat="45.7857" lon="2.77324">
        <ele>893</ele>
        <time>2013-09-21T10:51:13Z</time>
      </trkpt>
      <trkpt lat="45.78564" lon="2.77301">
        <ele>891</ele>
        <time>2013-09-21T10:51:15Z</time>
      </trkpt>
      <trkpt lat="45.78526" lon="2.77279">
        <ele>889</ele>
        <time>2013-09-21T10:51:20Z</time>
      </trkpt>
      <trkpt lat="45.78508" lon="2.77271">
        <ele>888</ele>
        <time>2013-09-21T10:51:22Z</time>
      </trkpt>
      <trkpt lat="45.78439" lon="2.7721">
        <ele>883</ele>
        <time>2013-09-21T10:51:32Z</time>
      </trkpt>
      <trkpt lat="45.78428" lon="2.77199">
        <ele>883</ele>
        <time>2013-09-21T10:51:34Z</time>
      </trkpt>
      <trkpt lat="45.78354" lon="2.77179">
        <ele>883</ele>
        <time>2013-09-21T10:51:46Z</time>
      </trkpt>
      <trkpt lat="45.78278" lon="2.77137">
        <ele>885</ele>
        <time>2013-09-21T10:51:57Z</time>
      </trkpt>
      <trkpt lat="45.78192" lon="2.77048">
        <ele>886</ele>
        <time>2013-09-21T10:52:15Z</time>
      </trkpt>
      <trkpt lat="45.78167" lon="2.77022">
        <ele>886</ele>
        <time>2013-09-21T10:52:20Z</time>
      </trkpt>
      <trkpt lat="45.78109" lon="2.77001">
        <ele>884</ele>
        <time>2013-09-21T10:52:29Z</time>
      </trkpt>
      <trkpt lat="45.77998" lon="2.76994">
        <ele>883</ele>
        <time>2013-09-21T10:52:44Z</time>
      </trkpt>
      <trkpt lat="45.77881" lon="2.76989">
        <ele>881</ele>
        <time>2013-09-21T10:53:02Z</time>
      </trkpt>
      <trkpt lat="45.77852" lon="2.76992">
        <ele>881</ele>
        <time>2013-09-21T10:53:07Z</time>
      </trkpt>
      <trkpt lat="45.77823" lon="2.76956">
        <ele>879</ele>
        <time>2013-09-21T10:53:14Z</time>
      </trkpt>
      <trkpt lat="45.77791" lon="2.76821">
        <ele>879</ele>
        <time>2013-09-21T10:53:31Z</time>
      </trkpt>
      <trkpt lat="45.77773" lon="2.76745">
        <ele>876</ele>
        <time>2013-09-21T10:53:39Z</time>
      </trkpt>
      <trkpt lat="45.77764" lon="2.7671">
        <ele>875</ele>
        <time>2013-09-21T10:53:42Z</time>
      </trkpt>
      <trkpt lat="45.77748" lon="2.7665">
        <ele>872</ele>
        <time>2013-09-21T10:53:47Z</time>
      </trkpt>
      <trkpt lat="45.77738" lon="2.76614">
        <ele>871</ele>
        <time>2013-09-21T10:53:50Z</time>
      </trkpt>
      <trkpt lat="45.7772" lon="2.76555">
        <ele>869</ele>
        <time>2013-09-21T10:53:55Z</time>
      </trkpt>
      <trkpt lat="45.77702" lon="2.76494">
        <ele>866</ele>
        <time>2013-09-21T10:54:00Z</time>
      </trkpt>
      <trkpt lat="45.77686" lon="2.76442">
        <ele>865</ele>
        <time>2013-09-21T10:54:04Z</time>
      </trkpt>
      <trkpt lat="45.77676" lon="2.76413">
        <ele>862</ele>
        <time>2013-09-21T10:54:06Z</time>
      </trkpt>
      <trkpt lat="45.7765" lon="2.76325">
        <ele>857</ele>
        <time>2013-09-21T10:54:12Z</time>
      </trkpt>
      <trkpt lat="45.77646" lon="2.76314">
        <ele>856</ele>
        <time>2013-09-21T10:54:13Z</time>
      </trkpt>
      <trkpt lat="45.7763" lon="2.76277">
        <ele>856</ele>
        <time>2013-09-21T10:54:17Z</time>
      </trkpt>
      <trkpt lat="45.77628" lon="2.76224">
        <ele>857</ele>
        <time>2013-09-21T10:54:24Z</time>
      </trkpt>
      <trkpt lat="45.77628" lon="2.76155">
        <ele>859</ele>
        <time>2013-09-21T10:54:38Z</time>
      </trkpt>
      <trkpt lat="45.77626" lon="2.76083">
        <ele>862</ele>
        <time>2013-09-21T10:54:55Z</time>
      </trkpt>
      <trkpt lat="45.77623" lon="2.76008">
        <ele>862</ele>
        <time>2013-09-21T10:55:12Z</time>
      </trkpt>
      <trkpt lat="45.77622" lon="2.75921">
        <ele>864</ele>
        <time>2013-09-21T10:55:32Z</time>
      </trkpt>
      <trkpt lat="45.77619" lon="2.75854">
        <ele>867</ele>
        <time>2013-09-21T10:55:48Z</time>
      </trkpt>
      <trkpt lat="45.77614" lon="2.75768">
        <ele>871</ele>
        <time>2013-09-21T10:56:07Z</time>
      </trkpt>
      <trkpt lat="45.77612" lon="2.75694">
        <ele>875</ele>
        <time>2013-09-21T10:56:24Z</time>
      </trkpt>
      <trkpt lat="45.776" lon="2.75666">
        <ele>877</ele>
        <time>2013-09-21T10:56:34Z</time>
      </trkpt>
      <trkpt lat="45.77559" lon="2.75729">
        <ele>872</ele>
        <time>2013-09-21T10:56:45Z</time>
      </trkpt>
      <trkpt lat="45.77504" lon="2.75823">
        <ele>869</ele>
        <time>2013-09-21T10:56:55Z</time>
      </trkpt>
      <trkpt lat="45.77499" lon="2.75831">
        <ele>868</ele>
        <time>2013-09-21T10:56:56Z</time>
      </trkpt>
      <trkpt lat="45.77467" lon="2.75834">
        <ele>867</ele>
        <time>2013-09-21T10:57:02Z</time>
      </trkpt>
      <trkpt lat="45.77456" lon="2.75808">
        <ele>868</ele>
        <time>2013-09-21T10:57:05Z</time>
      </trkpt>
      <trkpt lat="45.77418" lon="2.75682">
        <ele>868</ele>
        <time>2013-09-21T10:57:18Z</time>
      </trkpt>
      <trkpt lat="45.77406" lon="2.75574">
        <ele>865</ele>
        <time>2013-09-21T10:57:29Z</time>
      </trkpt>
      <trkpt lat="45.77385" lon="2.75554">
        <ele>864</ele>
        <time>2013-09-21T10:57:36Z</time>
      </trkpt>
      <trkpt lat="45.77379" lon="2.75557">
        <ele>864</ele>
        <time>2013-09-21T10:57:37Z</time>
      </trkpt>
      <trkpt lat="45.77275" lon="2.75619">
        <ele>860</ele>
        <time>2013-09-21T10:57:51Z</time>
      </trkpt>
      <trkpt lat="45.77268" lon="2.75624">
        <ele>860</ele>
        <time>2013-09-21T10:57:52Z</time>
      </trkpt>
      <trkpt lat="45.77196" lon="2.75674">
        <ele>859</ele>
        <time>2013-09-21T10:58:02Z</time>
      </trkpt>
      <trkpt lat="45.77175" lon="2.75702">
        <ele>858</ele>
        <time>2013-09-21T10:58:06Z</time>
      </trkpt>
      <trkpt lat="45.77134" lon="2.75855">
        <ele>854</ele>
        <time>2013-09-21T10:58:21Z</time>
      </trkpt>
      <trkpt lat="45.77095" lon="2.75901">
        <ele>854</ele>
        <time>2013-09-21T10:58:29Z</time>
      </trkpt>
      <trkpt lat="45.77091" lon="2.75895">
        <ele>854</ele>
        <time>2013-09-21T10:58:30Z</time>
      </trkpt>
      <trkpt lat="45.77044" lon="2.75875">
        <ele>851</ele>
        <time>2013-09-21T10:58:37Z</time>
      </trkpt>
      <trkpt lat="45.76932" lon="2.75917">
        <ele>850</ele>
        <time>2013-09-21T10:58:53Z</time>
      </trkpt>
      <trkpt lat="45.76898" lon="2.75948">
        <ele>850</ele>
        <time>2013-09-21T10:58:59Z</time>
      </trkpt>
      <trkpt lat="45.76842" lon="2.76032">
        <ele>852</ele>
        <time>2013-09-21T10:59:14Z</time>
      </trkpt>
      <trkpt lat="45.76839" lon="2.76037">
        <ele>852</ele>
        <time>2013-09-21T10:59:15Z</time>
      </trkpt>
      <trkpt lat="45.76812" lon="2.76049">
        <ele>852</ele>
        <time>2013-09-21T10:59:22Z</time>
      </trkpt>
      <trkpt lat="45.7674" lon="2.75985">
        <ele>849</ele>
        <time>2013-09-21T10:59:35Z</time>
      </trkpt>
      <trkpt lat="45.76729" lon="2.75971">
        <ele>849</ele>
        <time>2013-09-21T10:59:37Z</time>
      </trkpt>
      <trkpt lat="45.76713" lon="2.75926">
        <ele>848</ele>
        <time>2013-09-21T10:59:42Z</time>
      </trkpt>
      <trkpt lat="45.76709" lon="2.75874">
        <ele>847</ele>
        <time>2013-09-21T10:59:48Z</time>
      </trkpt>
      <trkpt lat="45.76711" lon="2.7583">
        <ele>847</ele>
        <time>2013-09-21T10:59:54Z</time>
      </trkpt>
      <trkpt lat="45.767" lon="2.75801">
        <ele>847</ele>
        <time>2013-09-21T10:59:59Z</time>
      </trkpt>
      <trkpt lat="45.76677" lon="2.75777">
        <ele>847</ele>
        <time>2013-09-21T11:00:05Z</time>
      </trkpt>
      <trkpt lat="45.76663" lon="2.75751">
        <ele>847</ele>
        <time>2013-09-21T11:00:11Z</time>
      </trkpt>
      <trkpt lat="45.76662" lon="2.75714">
        <ele>847</ele>
        <time>2013-09-21T11:00:24Z</time>
      </trkpt>
      <trkpt lat="45.76663" lon="2.75709">
        <ele>847</ele>
        <time>2013-09-21T11:00:28Z</time>
      </trkpt>
      <trkpt lat="45.76666" lon="2.75706">
        <ele>847</ele>
        <time>2013-09-21T11:00:30Z</time>
      </trkpt>
      <trkpt lat="45.76669" lon="2.75688">
        <ele>847</ele>
        <time>2013-09-21T11:00:41Z</time>
      </trkpt>
      <trkpt lat="45.7667" lon="2.75687">
        <ele>847</ele>
        <time>2013-09-21T11:00:55Z</time>
      </trkpt>
      <trkpt lat="45.7667" lon="2.75687">
        <ele>847</ele>
        <time>2013-09-21T11:01:10Z</time>
      </trkpt>
      <trkpt lat="45.76668" lon="2.75678">
        <ele>847</ele>
        <time>2013-09-21T11:01:24Z</time>
      </trkpt>
      <trkpt lat="45.76668" lon="2.75678">
        <ele>847</ele>
        <time>2013-09-21T11:01:41Z</time>
      </trkpt>
      <trkpt lat="45.76668" lon="2.75673">
        <ele>847</ele>
        <time>2013-09-21T11:01:57Z</time>
      </trkpt>
      <trkpt lat="45.76667" lon="2.75673">
        <ele>847</ele>
        <time>2013-09-21T11:02:09Z</time>
      </trkpt>
      <trkpt lat="45.76668" lon="2.75679">
        <ele>847</ele>
        <time>2013-09-21T11:02:20Z</time>
      </trkpt>
      <trkpt lat="45.76661" lon="2.75693">
        <ele>847</ele>
        <time>2013-09-21T11:02:37Z</time>
      </trkpt>
      <trkpt lat="45.76656" lon="2.75708">
        <ele>847</ele>
        <time>2013-09-21T11:02:53Z</time>
      </trkpt>
      <trkpt lat="45.76654" lon="2.75709">
        <ele>847</ele>
        <time>2013-09-21T11:03:07Z</time>
      </trkpt>
      <trkpt lat="45.76648" lon="2.75715">
        <ele>847</ele>
        <time>2013-09-21T11:03:23Z</time>
      </trkpt>
      <trkpt lat="45.76648" lon="2.75715">
        <ele>847</ele>
        <time>2013-09-21T11:03:45Z</time>
      </trkpt>
      <trkpt lat="45.7665" lon="2.75708">
        <ele>847</ele>
        <time>2013-09-21T11:04:06Z</time>
      </trkpt>
      <trkpt lat="45.76653" lon="2.75707">
        <ele>847</ele>
        <time>2013-09-21T11:04:30Z</time>
      </trkpt>
      <trkpt lat="45.76653" lon="2.75707">
        <ele>847</ele>
        <time>2013-09-21T11:04:52Z</time>
      </trkpt>
      <trkpt lat="45.76653" lon="2.75707">
        <ele>847</ele>
        <time>2013-09-21T11:05:19Z</time>
      </trkpt>
      <trkpt lat="45.76653" lon="2.75708">
        <ele>847</ele>
        <time>2013-09-21T11:05:42Z</time>
      </trkpt>
      <trkpt lat="45.76653" lon="2.75708">
        <ele>847</ele>
        <time>2013-09-21T11:06:02Z</time>
      </trkpt>
      <trkpt lat="45.76648" lon="2.75696">
        <ele>847</ele>
        <time>2013-09-21T11:06:19Z</time>
      </trkpt>
      <trkpt lat="45.76641" lon="2.75691">
        <ele>847</ele>
        <time>2013-09-21T11:06:34Z</time>
      </trkpt>
      <trkpt lat="45.76641" lon="2.75691">
        <ele>847</ele>
        <time>2013-09-21T11:06:59Z</time>
      </trkpt>
      <trkpt lat="45.76641" lon="2.75691">
        <ele>847</ele>
        <time>2013-09-21T11:07:25Z</time>
      </trkpt>
      <trkpt lat="45.7664" lon="2.75691">
        <ele>847</ele>
        <time>2013-09-21T11:08:01Z</time>
      </trkpt>
      <trkpt lat="45.76641" lon="2.7569">
        <ele>847</ele>
        <time>2013-09-21T11:08:38Z</time>
      </trkpt>
      <trkpt lat="45.76641" lon="2.7569">
        <ele>847</ele>
        <time>2013-09-21T11:09:14Z</time>
      </trkpt>
      <trkpt lat="45.76641" lon="2.7569">
        <ele>847</ele>
        <time>2013-09-21T11:09:44Z</time>
      </trkpt>
      <trkpt lat="45.76642" lon="2.75689">
        <ele>847</ele>
        <time>2013-09-21T11:10:15Z</time>
      </trkpt>
      <trkpt lat="45.76644" lon="2.75688">
        <ele>847</ele>
        <time>2013-09-21T11:10:50Z</time>
      </trkpt>
      <trkpt lat="45.76644" lon="2.75688">
        <ele>847</ele>
        <time>2013-09-21T11:11:22Z</time>
      </trkpt>
      <trkpt lat="45.76643" lon="2.75688">
        <ele>847</ele>
        <time>2013-09-21T11:11:51Z</time>
      </trkpt>
      <trkpt lat="45.76643" lon="2.75688">
        <ele>847</ele>
        <time>2013-09-21T11:12:22Z</time>
      </trkpt>
      <trkpt lat="45.76643" lon="2.75688">
        <ele>847</ele>
        <time>2013-09-21T11:12:57Z</time>
      </trkpt>
      <trkpt lat="45.76642" lon="2.75687">
        <ele>847</ele>
        <time>2013-09-21T11:13:28Z</time>
      </trkpt>
      <trkpt lat="45.7664" lon="2.75684">
        <ele>847</ele>
        <time>2013-09-21T11:13:34Z</time>
      </trkpt>
      <trkpt lat="45.76635" lon="2.75682">
        <ele>847</ele>
        <time>2013-09-21T11:14:06Z</time>
      </trkpt>
      <trkpt lat="45.76635" lon="2.75682">
        <ele>847</ele>
        <time>2013-09-21T11:14:39Z</time>
      </trkpt>
      <trkpt lat="45.76635" lon="2.75682">
        <ele>847</ele>
        <time>2013-09-21T11:15:07Z</time>
      </trkpt>
      <trkpt lat="45.76635" lon="2.75682">
        <ele>847</ele>
        <time>2013-09-21T11:15:38Z</time>
      </trkpt>
      <trkpt lat="45.76635" lon="2.75682">
        <ele>847</ele>
        <time>2013-09-21T11:16:08Z</time>
      </trkpt>
      <trkpt lat="45.76635" lon="2.75682">
        <ele>847</ele>
        <time>2013-09-21T11:16:41Z</time>
      </trkpt>
      <trkpt lat="45.76635" lon="2.75682">
        <ele>847</ele>
        <time>2013-09-21T11:17:12Z</time>
      </trkpt>
      <trkpt lat="45.76635" lon="2.75682">
        <ele>847</ele>
        <time>2013-09-21T11:17:44Z</time>
      </trkpt>
      <trkpt lat="45.76635" lon="2.75682">
        <ele>847</ele>
        <time>2013-09-21T11:18:16Z</time>
      </trkpt>
      <trkpt lat="45.76634" lon="2.75681">
        <ele>847</ele>
        <time>2013-09-21T11:18:51Z</time>
      </trkpt>
      <trkpt lat="45.76634" lon="2.75681">
        <ele>847</ele>
        <time>2013-09-21T11:19:22Z</time>
      </trkpt>
      <trkpt lat="45.76634" lon="2.75681">
        <ele>847</ele>
        <time>2013-09-21T11:19:53Z</time>
      </trkpt>
      <trkpt lat="45.76634" lon="2.75681">
        <ele>847</ele>
        <time>2013-09-21T11:20:26Z</time>
      </trkpt>
      <trkpt lat="45.76634" lon="2.75681">
        <ele>847</ele>
        <time>2013-09-21T11:20:59Z</time>
      </trkpt>
      <trkpt lat="45.76634" lon="2.75681">
        <ele>847</ele>
        <time>2013-09-21T11:21:32Z</time>
      </trkpt>
      <trkpt lat="45.76634" lon="2.75681">
        <ele>847</ele>
        <time>2013-09-21T11:22:03Z</time>
      </trkpt>
      <trkpt lat="45.76634" lon="2.75681">
        <ele>847</ele>
        <time>2013-09-21T11:22:33Z</time>
      </trkpt>
      <trkpt lat="45.76634" lon="2.75681">
        <ele>847</ele>
        <time>2013-09-21T11:23:07Z</time>
      </trkpt>
      <trkpt lat="45.76634" lon="2.75681">
        <ele>847</ele>
        <time>2013-09-21T11:23:40Z</time>
      </trkpt>
      <trkpt lat="45.76634" lon="2.75681">
        <ele>847</ele>
        <time>2013-09-21T11:24:13Z</time>
      </trkpt>
      <trkpt lat="45.76634" lon="2.75682">
        <ele>847</ele>
        <time>2013-09-21T11:24:48Z</time>
      </trkpt>
      <trkpt lat="45.76634" lon="2.75682">
        <ele>847</ele>
        <time>2013-09-21T11:25:23Z</time>
      </trkpt>
      <trkpt lat="45.76634" lon="2.75681">
        <ele>847</ele>
        <time>2013-09-21T11:25:57Z</time>
      </trkpt>
      <trkpt lat="45.76634" lon="2.75682">
        <ele>847</ele>
        <time>2013-09-21T11:26:29Z</time>
      </trkpt>
      <trkpt lat="45.76634" lon="2.75682">
        <ele>847</ele>
        <time>2013-09-21T11:27:03Z</time>
      </trkpt>
      <trkpt lat="45.76634" lon="2.75682">
        <ele>847</ele>
        <time>2013-09-21T11:27:35Z</time>
      </trkpt>
      <trkpt lat="45.76634" lon="2.75681">
        <ele>847</ele>
        <time>2013-09-21T11:28:01Z</time>
      </trkpt>
      <trkpt lat="45.76634" lon="2.75681">
        <ele>847</ele>
        <time>2013-09-21T11:28:26Z</time>
      </trkpt>
      <trkpt lat="45.76634" lon="2.75682">
        <ele>847</ele>
        <time>2013-09-21T11:28:53Z</time>
      </trkpt>
      <trkpt lat="45.76634" lon="2.75682">
        <ele>847</ele>
        <time>2013-09-21T11:29:23Z</time>
      </trkpt>
      <trkpt lat="45.76636" lon="2.7568">
        <ele>847</ele>
        <time>2013-09-21T11:29:40Z</time>
      </trkpt>
      <trkpt lat="45.7664" lon="2.75684">
        <ele>847</ele>
        <time>2013-09-21T11:29:49Z</time>
      </trkpt>
      <trkpt lat="45.76651" lon="2.75685">
        <ele>847</ele>
        <time>2013-09-21T11:30:07Z</time>
      </trkpt>
      <trkpt lat="45.76655" lon="2.75684">
        <ele>847</ele>
        <time>2013-09-21T11:30:21Z</time>
      </trkpt>
      <trkpt lat="45.76655" lon="2.75684">
        <ele>847</ele>
        <time>2013-09-21T11:30:40Z</time>
      </trkpt>
      <trkpt lat="45.76655" lon="2.75683">
        <ele>847</ele>
        <time>2013-09-21T11:30:58Z</time>
      </trkpt>
      <trkpt lat="45.76647" lon="2.75687">
        <ele>847</ele>
        <time>2013-09-21T11:31:14Z</time>
      </trkpt>
      <trkpt lat="45.76636" lon="2.75682">
        <ele>847</ele>
        <time>2013-09-21T11:31:29Z</time>
      </trkpt>
      <trkpt lat="45.76633" lon="2.75682">
        <ele>847</ele>
        <time>2013-09-21T11:31:40Z</time>
      </trkpt>
      <trkpt lat="45.76631" lon="2.7568">
        <ele>847</ele>
        <time>2013-09-21T11:31:54Z</time>
      </trkpt>
      <trkpt lat="45.76627" lon="2.7568">
        <ele>847</ele>
        <time>2013-09-21T11:32:05Z</time>
      </trkpt>
      <trkpt lat="45.76625" lon="2.75679">
        <ele>847</ele>
        <time>2013-09-21T11:32:18Z</time>
      </trkpt>
      <trkpt lat="45.76625" lon="2.75679">
        <ele>847</ele>
        <time>2013-09-21T11:32:47Z</time>
      </trkpt>
      <trkpt lat="45.76625" lon="2.75679">
        <ele>847</ele>
        <time>2013-09-21T11:33:14Z</time>
      </trkpt>
      <trkpt lat="45.76625" lon="2.75679">
        <ele>847</ele>
        <time>2013-09-21T11:33:39Z</time>
      </trkpt>
      <trkpt lat="45.76625" lon="2.75679">
        <ele>847</ele>
        <time>2013-09-21T11:34:13Z</time>
      </trkpt>
      <trkpt lat="45.76625" lon="2.75679">
        <ele>847</ele>
        <time>2013-09-21T11:34:34Z</time>
      </trkpt>
      <trkpt lat="45.76625" lon="2.75679">
        <ele>847</ele>
        <time>2013-09-21T11:35:07Z</time>
      </trkpt>
      <trkpt lat="45.76625" lon="2.75679">
        <ele>847</ele>
        <time>2013-09-21T11:35:31Z</time>
      </trkpt>
      <trkpt lat="45.76625" lon="2.75679">
        <ele>847</ele>
        <time>2013-09-21T11:36:08Z</time>
      </trkpt>
      <trkpt lat="45.76625" lon="2.75678">
        <ele>847</ele>
        <time>2013-09-21T11:36:36Z</time>
      </trkpt>
      <trkpt lat="45.76625" lon="2.75678">
        <ele>847</ele>
        <time>2013-09-21T11:36:54Z</time>
      </trkpt>
      <trkpt lat="45.76625" lon="2.75678">
        <ele>847</ele>
        <time>2013-09-21T11:36:55Z</time>
      </trkpt>
      <trkpt lat="45.76625" lon="2.75678">
        <ele>847</ele>
        <time>2013-09-21T11:36:57Z</time>
      </trkpt>
      <trkpt lat="45.76625" lon="2.75678">
        <ele>847</ele>
        <time>2013-09-21T11:36:58Z</time>
      </trkpt>
      <trkpt lat="45.76625" lon="2.75678">
        <ele>847</ele>
        <time>2013-09-21T11:37:28Z</time>
      </trkpt>
      <trkpt lat="45.76625" lon="2.75678">
        <ele>847</ele>
        <time>2013-09-21T11:37:31Z</time>
      </trkpt>
      <trkpt lat="45.76625" lon="2.75678">
        <ele>847</ele>
        <time>2013-09-21T11:37:32Z</time>
      </trkpt>
      <trkpt lat="45.76625" lon="2.75678">
        <ele>847</ele>
        <time>2013-09-21T11:37:33Z</time>
      </trkpt>
      <trkpt lat="45.76625" lon="2.75679">
        <ele>847</ele>
        <time>2013-09-21T11:37:40Z</time>
      </trkpt>
      <trkpt lat="45.76625" lon="2.75679">
        <ele>847</ele>
        <time>2013-09-21T11:37:41Z</time>
      </trkpt>
      <trkpt lat="45.76625" lon="2.75679">
        <ele>847</ele>
        <time>2013-09-21T11:38:19Z</time>
      </trkpt>
      <trkpt lat="45.76625" lon="2.75679">
        <ele>847</ele>
        <time>2013-09-21T11:38:53Z</time>
      </trkpt>
      <trkpt lat="45.76625" lon="2.75679">
        <ele>847</ele>
        <time>2013-09-21T11:39:32Z</time>
      </trkpt>
      <trkpt lat="45.76625" lon="2.75679">
        <ele>847</ele>
        <time>2013-09-21T11:40:05Z</time>
      </trkpt>
      <trkpt lat="45.76625" lon="2.75679">
        <ele>847</ele>
        <time>2013-09-21T11:40:42Z</time>
      </trkpt>
      <trkpt lat="45.76625" lon="2.7568">
        <ele>847</ele>
        <time>2013-09-21T11:41:10Z</time>
      </trkpt>
      <trkpt lat="45.76625" lon="2.7568">
        <ele>847</ele>
        <time>2013-09-21T11:41:11Z</time>
      </trkpt>
      <trkpt lat="45.76625" lon="2.7568">
        <ele>847</ele>
        <time>2013-09-21T11:41:33Z</time>
      </trkpt>
      <trkpt lat="45.76625" lon="2.7568">
        <ele>847</ele>
        <time>2013-09-21T11:42:01Z</time>
      </trkpt>
      <trkpt lat="45.76625" lon="2.75679">
        <ele>847</ele>
        <time>2013-09-21T11:42:28Z</time>
      </trkpt>
      <trkpt lat="45.76625" lon="2.75679">
        <ele>847</ele>
        <time>2013-09-21T11:42:50Z</time>
      </trkpt>
      <trkpt lat="45.76625" lon="2.75679">
        <ele>847</ele>
        <time>2013-09-21T11:43:26Z</time>
      </trkpt>
      <trkpt lat="45.76625" lon="2.75679">
        <ele>847</ele>
        <time>2013-09-21T11:43:57Z</time>
      </trkpt>
      <trkpt lat="45.76625" lon="2.75679">
        <ele>847</ele>
        <time>2013-09-21T11:43:58Z</time>
      </trkpt>
      <trkpt lat="45.76625" lon="2.75679">
        <ele>847</ele>
        <time>2013-09-21T11:43:59Z</time>
      </trkpt>
      <trkpt lat="45.76625" lon="2.75679">
        <ele>847</ele>
        <time>2013-09-21T11:44:02Z</time>
      </trkpt>
      <trkpt lat="45.76625" lon="2.75679">
        <ele>847</ele>
        <time>2013-09-21T11:44:11Z</time>
      </trkpt>
      <trkpt lat="45.76625" lon="2.75679">
        <ele>847</ele>
        <time>2013-09-21T11:44:33Z</time>
      </trkpt>
      <trkpt lat="45.76625" lon="2.75679">
        <ele>847</ele>
        <time>2013-09-21T11:44:59Z</time>
      </trkpt>
      <trkpt lat="45.76625" lon="2.75679">
        <ele>847</ele>
        <time>2013-09-21T11:45:14Z</time>
      </trkpt>
      <trkpt lat="45.76625" lon="2.75679">
        <ele>847</ele>
        <time>2013-09-21T11:45:42Z</time>
      </trkpt>
      <trkpt lat="45.76625" lon="2.75679">
        <ele>847</ele>
        <time>2013-09-21T11:46:07Z</time>
      </trkpt>
      <trkpt lat="45.76626" lon="2.75678">
        <ele>847</ele>
        <time>2013-09-21T11:46:39Z</time>
      </trkpt>
      <trkpt lat="45.76626" lon="2.75678">
        <ele>847</ele>
        <time>2013-09-21T11:47:11Z</time>
      </trkpt>
      <trkpt lat="45.76626" lon="2.75678">
        <ele>847</ele>
        <time>2013-09-21T11:47:42Z</time>
      </trkpt>
      <trkpt lat="45.76625" lon="2.75677">
        <ele>847</ele>
        <time>2013-09-21T11:47:59Z</time>
      </trkpt>
      <trkpt lat="45.76626" lon="2.75677">
        <ele>847</ele>
        <time>2013-09-21T11:48:16Z</time>
      </trkpt>
      <trkpt lat="45.76626" lon="2.75677">
        <ele>847</ele>
        <time>2013-09-21T11:48:44Z</time>
      </trkpt>
      <trkpt lat="45.76626" lon="2.75677">
        <ele>847</ele>
        <time>2013-09-21T11:49:12Z</time>
      </trkpt>
      <trkpt lat="45.76627" lon="2.75678">
        <ele>847</ele>
        <time>2013-09-21T11:49:31Z</time>
      </trkpt>
      <trkpt lat="45.76627" lon="2.75678">
        <ele>847</ele>
        <time>2013-09-21T11:49:57Z</time>
      </trkpt>
      <trkpt lat="45.76627" lon="2.75678">
        <ele>847</ele>
        <time>2013-09-21T11:50:27Z</time>
      </trkpt>
      <trkpt lat="45.76627" lon="2.75678">
        <ele>847</ele>
        <time>2013-09-21T11:50:56Z</time>
      </trkpt>
      <trkpt lat="45.76628" lon="2.75678">
        <ele>847</ele>
        <time>2013-09-21T11:51:29Z</time>
      </trkpt>
      <trkpt lat="45.76628" lon="2.75678">
        <ele>847</ele>
        <time>2013-09-21T11:51:57Z</time>
      </trkpt>
      <trkpt lat="45.76628" lon="2.75678">
        <ele>847</ele>
        <time>2013-09-21T11:52:31Z</time>
      </trkpt>
      <trkpt lat="45.76628" lon="2.75678">
        <ele>847</ele>
        <time>2013-09-21T11:52:58Z</time>
      </trkpt>
      <trkpt lat="45.76628" lon="2.75678">
        <ele>847</ele>
        <time>2013-09-21T11:53:27Z</time>
      </trkpt>
      <trkpt lat="45.76627" lon="2.75679">
        <ele>847</ele>
        <time>2013-09-21T11:53:48Z</time>
      </trkpt>
      <trkpt lat="45.76632" lon="2.75679">
        <ele>847</ele>
        <time>2013-09-21T11:54:01Z</time>
      </trkpt>
      <trkpt lat="45.76634" lon="2.75683">
        <ele>847</ele>
        <time>2013-09-21T11:54:14Z</time>
      </trkpt>
      <trkpt lat="45.76643" lon="2.75687">
        <ele>847</ele>
        <time>2013-09-21T11:54:29Z</time>
      </trkpt>
      <trkpt lat="45.76647" lon="2.75692">
        <ele>847</ele>
        <time>2013-09-21T11:54:47Z</time>
      </trkpt>
      <trkpt lat="45.76653" lon="2.75686">
        <ele>847</ele>
        <time>2013-09-21T11:55:01Z</time>
      </trkpt>
      <trkpt lat="45.76652" lon="2.75685">
        <ele>847</ele>
        <time>2013-09-21T11:55:08Z</time>
      </trkpt>
      <trkpt lat="45.76651" lon="2.75694">
        <ele>847</ele>
        <time>2013-09-21T11:55:26Z</time>
      </trkpt>
      <trkpt lat="45.76643" lon="2.75709">
        <ele>847</ele>
        <time>2013-09-21T11:55:43Z</time>
      </trkpt>
      <trkpt lat="45.76643" lon="2.75714">
        <ele>847</ele>
        <time>2013-09-21T11:56:00Z</time>
      </trkpt>
      <trkpt lat="45.76637" lon="2.75717">
        <ele>847</ele>
        <time>2013-09-21T11:56:16Z</time>
      </trkpt>
      <trkpt lat="45.7664" lon="2.7572">
        <ele>847</ele>
        <time>2013-09-21T11:56:18Z</time>
      </trkpt>
      <trkpt lat="45.76651" lon="2.75719">
        <ele>847</ele>
        <time>2013-09-21T11:56:34Z</time>
      </trkpt>
      <trkpt lat="45.76658" lon="2.75711">
        <ele>847</ele>
        <time>2013-09-21T11:56:45Z</time>
      </trkpt>
      <trkpt lat="45.76659" lon="2.75706">
        <ele>847</ele>
        <time>2013-09-21T11:57:02Z</time>
      </trkpt>
      <trkpt lat="45.76659" lon="2.75706">
        <ele>847</ele>
        <time>2013-09-21T11:57:21Z</time>
      </trkpt>
      <trkpt lat="45.76661" lon="2.75701">
        <ele>847</ele>
        <time>2013-09-21T11:57:38Z</time>
      </trkpt>
      <trkpt lat="45.76661" lon="2.75701">
        <ele>847</ele>
        <time>2013-09-21T11:57:39Z</time>
      </trkpt>
      <trkpt lat="45.76673" lon="2.75692">
        <ele>847</ele>
        <time>2013-09-21T11:57:55Z</time>
      </trkpt>
      <trkpt lat="45.76675" lon="2.7569">
        <ele>847</ele>
        <time>2013-09-21T11:58:07Z</time>
      </trkpt>
      <trkpt lat="45.76679" lon="2.75684">
        <ele>847</ele>
        <time>2013-09-21T11:58:20Z</time>
      </trkpt>
      <trkpt lat="45.76678" lon="2.7568">
        <ele>847</ele>
        <time>2013-09-21T11:58:37Z</time>
      </trkpt>
      <trkpt lat="45.76674" lon="2.75669">
        <ele>847</ele>
        <time>2013-09-21T11:58:41Z</time>
      </trkpt>
      <trkpt lat="45.76674" lon="2.75666">
        <ele>847</ele>
        <time>2013-09-21T11:58:58Z</time>
      </trkpt>
      <trkpt lat="45.76678" lon="2.75678">
        <ele>847</ele>
        <time>2013-09-21T11:59:13Z</time>
      </trkpt>
      <trkpt lat="45.76678" lon="2.75678">
        <ele>847</ele>
        <time>2013-09-21T11:59:42Z</time>
      </trkpt>
      <trkpt lat="45.76678" lon="2.75678">
        <ele>847</ele>
        <time>2013-09-21T12:00:13Z</time>
      </trkpt>
      <trkpt lat="45.76674" lon="2.7568">
        <ele>847</ele>
        <time>2013-09-21T12:00:38Z</time>
      </trkpt>
      <trkpt lat="45.76674" lon="2.75685">
        <ele>847</ele>
        <time>2013-09-21T12:00:50Z</time>
      </trkpt>
      <trkpt lat="45.76671" lon="2.75667">
        <ele>847</ele>
        <time>2013-09-21T12:01:08Z</time>
      </trkpt>
      <trkpt lat="45.76672" lon="2.75664">
        <ele>847</ele>
        <time>2013-09-21T12:01:24Z</time>
      </trkpt>
      <trkpt lat="45.76672" lon="2.75664">
        <ele>847</ele>
        <time>2013-09-21T12:01:49Z</time>
      </trkpt>
      <trkpt lat="45.76672" lon="2.75664">
        <ele>847</ele>
        <time>2013-09-21T12:02:14Z</time>
      </trkpt>
      <trkpt lat="45.76672" lon="2.75664">
        <ele>847</ele>
        <time>2013-09-21T12:02:32Z</time>
      </trkpt>
      <trkpt lat="45.76669" lon="2.75673">
        <ele>847</ele>
        <time>2013-09-21T12:02:48Z</time>
      </trkpt>
      <trkpt lat="45.76666" lon="2.75693">
        <ele>847</ele>
        <time>2013-09-21T12:03:11Z</time>
      </trkpt>
      <trkpt lat="45.76664" lon="2.75705">
        <ele>847</ele>
        <time>2013-09-21T12:03:29Z</time>
      </trkpt>
      <trkpt lat="45.76664" lon="2.75707">
        <ele>847</ele>
        <time>2013-09-21T12:03:36Z</time>
      </trkpt>
      <trkpt lat="45.76664" lon="2.75722">
        <ele>847</ele>
        <time>2013-09-21T12:03:41Z</time>
      </trkpt>
      <trkpt lat="45.76665" lon="2.75757">
        <ele>847</ele>
        <time>2013-09-21T12:04:02Z</time>
      </trkpt>
      <trkpt lat="45.76663" lon="2.75757">
        <ele>847</ele>
        <time>2013-09-21T12:04:04Z</time>
      </trkpt>
      <trkpt lat="45.76645" lon="2.75736">
        <ele>847</ele>
        <time>2013-09-21T12:04:22Z</time>
      </trkpt>
      <trkpt lat="45.76608" lon="2.75698">
        <ele>847</ele>
        <time>2013-09-21T12:04:38Z</time>
      </trkpt>
      <trkpt lat="45.76572" lon="2.75716">
        <ele>847</ele>
        <time>2013-09-21T12:04:50Z</time>
      </trkpt>
      <trkpt lat="45.76586" lon="2.75788">
        <ele>847</ele>
        <time>2013-09-21T12:05:01Z</time>
      </trkpt>
      <trkpt lat="45.76584" lon="2.75876">
        <ele>848</ele>
        <time>2013-09-21T12:05:18Z</time>
      </trkpt>
      <trkpt lat="45.76565" lon="2.75946">
        <ele>849</ele>
        <time>2013-09-21T12:05:35Z</time>
      </trkpt>
      <trkpt lat="45.76547" lon="2.76064">
        <ele>849</ele>
        <time>2013-09-21T12:05:55Z</time>
      </trkpt>
      <trkpt lat="45.76532" lon="2.76076">
        <ele>849</ele>
        <time>2013-09-21T12:06:01Z</time>
      </trkpt>
      <trkpt lat="45.76517" lon="2.76068">
        <ele>849</ele>
        <time>2013-09-21T12:06:05Z</time>
      </trkpt>
      <trkpt lat="45.76482" lon="2.76058">
        <ele>852</ele>
        <time>2013-09-21T12:06:21Z</time>
      </trkpt>
      <trkpt lat="45.76436" lon="2.76049">
        <ele>854</ele>
        <time>2013-09-21T12:06:43Z</time>
      </trkpt>
      <trkpt lat="45.76373" lon="2.76038">
        <ele>856</ele>
        <time>2013-09-21T12:07:04Z</time>
      </trkpt>
      <trkpt lat="45.76312" lon="2.76027">
        <ele>856</ele>
        <time>2013-09-21T12:07:23Z</time>
      </trkpt>
      <trkpt lat="45.76273" lon="2.76016">
        <ele>857</ele>
        <time>2013-09-21T12:07:36Z</time>
      </trkpt>
      <trkpt lat="45.7622" lon="2.76005">
        <ele>858</ele>
        <time>2013-09-21T12:07:53Z</time>
      </trkpt>
      <trkpt lat="45.76187" lon="2.75998">
        <ele>856</ele>
        <time>2013-09-21T12:08:07Z</time>
      </trkpt>
      <trkpt lat="45.76187" lon="2.75998">
        <ele>856</ele>
        <time>2013-09-21T12:08:23Z</time>
      </trkpt>
      <trkpt lat="45.76187" lon="2.75998">
        <ele>856</ele>
        <time>2013-09-21T12:08:59Z</time>
      </trkpt>
      <trkpt lat="45.76186" lon="2.75997">
        <ele>856</ele>
        <time>2013-09-21T12:09:18Z</time>
      </trkpt>
      <trkpt lat="45.76183" lon="2.75998">
        <ele>856</ele>
        <time>2013-09-21T12:09:25Z</time>
      </trkpt>
      <trkpt lat="45.76145" lon="2.75986">
        <ele>857</ele>
        <time>2013-09-21T12:09:39Z</time>
      </trkpt>
      <trkpt lat="45.76097" lon="2.75937">
        <ele>857</ele>
        <time>2013-09-21T12:09:51Z</time>
      </trkpt>
      <trkpt lat="45.76043" lon="2.75848">
        <ele>858</ele>
        <time>2013-09-21T12:10:06Z</time>
      </trkpt>
      <trkpt lat="45.76" lon="2.75778">
        <ele>856</ele>
        <time>2013-09-21T12:10:21Z</time>
      </trkpt>
      <trkpt lat="45.75949" lon="2.75698">
        <ele>856</ele>
        <time>2013-09-21T12:10:38Z</time>
      </trkpt>
      <trkpt lat="45.75895" lon="2.75611">
        <ele>855</ele>
        <time>2013-09-21T12:10:53Z</time>
      </trkpt>
      <trkpt lat="45.75837" lon="2.75517">
        <ele>855</ele>
        <time>2013-09-21T12:11:09Z</time>
      </trkpt>
      <trkpt lat="45.75811" lon="2.75477">
        <ele>857</ele>
        <time>2013-09-21T12:11:20Z</time>
      </trkpt>
      <trkpt lat="45.75798" lon="2.75454">
        <ele>857</ele>
        <time>2013-09-21T12:11:25Z</time>
      </trkpt>
      <trkpt lat="45.75786" lon="2.75434">
        <ele>857</ele>
        <time>2013-09-21T12:11:29Z</time>
      </trkpt>
      <trkpt lat="45.7576" lon="2.75396">
        <ele>857</ele>
        <time>2013-09-21T12:11:37Z</time>
      </trkpt>
      <trkpt lat="45.75718" lon="2.75325">
        <ele>861</ele>
        <time>2013-09-21T12:11:52Z</time>
      </trkpt>
      <trkpt lat="45.75696" lon="2.75289">
        <ele>862</ele>
        <time>2013-09-21T12:12:06Z</time>
      </trkpt>
      <trkpt lat="45.75677" lon="2.75256">
        <ele>864</ele>
        <time>2013-09-21T12:12:22Z</time>
      </trkpt>
      <trkpt lat="45.75653" lon="2.75213">
        <ele>870</ele>
        <time>2013-09-21T12:12:40Z</time>
      </trkpt>
      <trkpt lat="45.75637" lon="2.75185">
        <ele>871</ele>
        <time>2013-09-21T12:12:54Z</time>
      </trkpt>
      <trkpt lat="45.7563" lon="2.7516">
        <ele>874</ele>
        <time>2013-09-21T12:13:07Z</time>
      </trkpt>
      <trkpt lat="45.75619" lon="2.75125">
        <ele>875</ele>
        <time>2013-09-21T12:13:25Z</time>
      </trkpt>
      <trkpt lat="45.75609" lon="2.7509">
        <ele>876</ele>
        <time>2013-09-21T12:13:41Z</time>
      </trkpt>
      <trkpt lat="45.75589" lon="2.75046">
        <ele>878</ele>
        <time>2013-09-21T12:13:56Z</time>
      </trkpt>
      <trkpt lat="45.75562" lon="2.74991">
        <ele>880</ele>
        <time>2013-09-21T12:14:07Z</time>
      </trkpt>
      <trkpt lat="45.75551" lon="2.7497">
        <ele>880</ele>
        <time>2013-09-21T12:14:11Z</time>
      </trkpt>
      <trkpt lat="45.75532" lon="2.7494">
        <ele>880</ele>
        <time>2013-09-21T12:14:17Z</time>
      </trkpt>
      <trkpt lat="45.75498" lon="2.74847">
        <ele>882</ele>
        <time>2013-09-21T12:14:35Z</time>
      </trkpt>
      <trkpt lat="45.75482" lon="2.74776">
        <ele>883</ele>
        <time>2013-09-21T12:14:46Z</time>
      </trkpt>
      <trkpt lat="45.75469" lon="2.74759">
        <ele>883</ele>
        <time>2013-09-21T12:14:51Z</time>
      </trkpt>
      <trkpt lat="45.75431" lon="2.74737">
        <ele>884</ele>
        <time>2013-09-21T12:15:07Z</time>
      </trkpt>
      <trkpt lat="45.75389" lon="2.74762">
        <ele>886</ele>
        <time>2013-09-21T12:15:18Z</time>
      </trkpt>
      <trkpt lat="45.7538" lon="2.74771">
        <ele>886</ele>
        <time>2013-09-21T12:15:20Z</time>
      </trkpt>
      <trkpt lat="45.75341" lon="2.74795">
        <ele>886</ele>
        <time>2013-09-21T12:15:28Z</time>
      </trkpt>
      <trkpt lat="45.75318" lon="2.74791">
        <ele>887</ele>
        <time>2013-09-21T12:15:33Z</time>
      </trkpt>
      <trkpt lat="45.75305" lon="2.74788">
        <ele>887</ele>
        <time>2013-09-21T12:15:36Z</time>
      </trkpt>
      <trkpt lat="45.75291" lon="2.74789">
        <ele>887</ele>
        <time>2013-09-21T12:15:39Z</time>
      </trkpt>
      <trkpt lat="45.75207" lon="2.74825">
        <ele>889</ele>
        <time>2013-09-21T12:15:58Z</time>
      </trkpt>
      <trkpt lat="45.75166" lon="2.7488">
        <ele>891</ele>
        <time>2013-09-21T12:16:14Z</time>
      </trkpt>
      <trkpt lat="45.75132" lon="2.74943">
        <ele>891</ele>
        <time>2013-09-21T12:16:29Z</time>
      </trkpt>
      <trkpt lat="45.75089" lon="2.75015">
        <ele>893</ele>
        <time>2013-09-21T12:16:48Z</time>
      </trkpt>
      <trkpt lat="45.75037" lon="2.75065">
        <ele>896</ele>
        <time>2013-09-21T12:17:05Z</time>
      </trkpt>
      <trkpt lat="45.74981" lon="2.7512">
        <ele>900</ele>
        <time>2013-09-21T12:17:25Z</time>
      </trkpt>
      <trkpt lat="45.74928" lon="2.75167">
        <ele>902</ele>
        <time>2013-09-21T12:17:46Z</time>
      </trkpt>
      <trkpt lat="45.74901" lon="2.75231">
        <ele>903</ele>
        <time>2013-09-21T12:18:05Z</time>
      </trkpt>
      <trkpt lat="45.74873" lon="2.75318">
        <ele>905</ele>
        <time>2013-09-21T12:18:26Z</time>
      </trkpt>
      <trkpt lat="45.74843" lon="2.7539">
        <ele>906</ele>
        <time>2013-09-21T12:18:45Z</time>
      </trkpt>
      <trkpt lat="45.7481" lon="2.75456">
        <ele>909</ele>
        <time>2013-09-21T12:19:04Z</time>
      </trkpt>
      <trkpt lat="45.74762" lon="2.75508">
        <ele>910</ele>
        <time>2013-09-21T12:19:24Z</time>
      </trkpt>
      <trkpt lat="45.74705" lon="2.75542">
        <ele>911</ele>
        <time>2013-09-21T12:19:45Z</time>
      </trkpt>
      <trkpt lat="45.74696" lon="2.75544">
        <ele>911</ele>
        <time>2013-09-21T12:19:48Z</time>
      </trkpt>
      <trkpt lat="45.74687" lon="2.75552">
        <ele>911</ele>
        <time>2013-09-21T12:19:51Z</time>
      </trkpt>
      <trkpt lat="45.74636" lon="2.75633">
        <ele>910</ele>
        <time>2013-09-21T12:20:06Z</time>
      </trkpt>
      <trkpt lat="45.74581" lon="2.75727">
        <ele>908</ele>
        <time>2013-09-21T12:20:22Z</time>
      </trkpt>
      <trkpt lat="45.74544" lon="2.75792">
        <ele>911</ele>
        <time>2013-09-21T12:20:37Z</time>
      </trkpt>
      <trkpt lat="45.74518" lon="2.75836">
        <ele>913</ele>
        <time>2013-09-21T12:20:52Z</time>
      </trkpt>
      <trkpt lat="45.74494" lon="2.75884">
        <ele>913</ele>
        <time>2013-09-21T12:21:09Z</time>
      </trkpt>
      <trkpt lat="45.74467" lon="2.75941">
        <ele>915</ele>
        <time>2013-09-21T12:21:22Z</time>
      </trkpt>
      <trkpt lat="45.74423" lon="2.76035">
        <ele>917</ele>
        <time>2013-09-21T12:21:39Z</time>
      </trkpt>
      <trkpt lat="45.7439" lon="2.76102">
        <ele>920</ele>
        <time>2013-09-21T12:21:56Z</time>
      </trkpt>
      <trkpt lat="45.74368" lon="2.76148">
        <ele>921</ele>
        <time>2013-09-21T12:22:11Z</time>
      </trkpt>
      <trkpt lat="45.74343" lon="2.76202">
        <ele>923</ele>
        <time>2013-09-21T12:22:28Z</time>
      </trkpt>
      <trkpt lat="45.74297" lon="2.76294">
        <ele>923</ele>
        <time>2013-09-21T12:22:48Z</time>
      </trkpt>
      <trkpt lat="45.74248" lon="2.76397">
        <ele>921</ele>
        <time>2013-09-21T12:23:04Z</time>
      </trkpt>
      <trkpt lat="45.74226" lon="2.76445">
        <ele>922</ele>
        <time>2013-09-21T12:23:14Z</time>
      </trkpt>
      <trkpt lat="45.74221" lon="2.76469">
        <ele>922</ele>
        <time>2013-09-21T12:23:18Z</time>
      </trkpt>
      <trkpt lat="45.7422" lon="2.76518">
        <ele>923</ele>
        <time>2013-09-21T12:23:25Z</time>
      </trkpt>
      <trkpt lat="45.7421" lon="2.76549">
        <ele>923</ele>
        <time>2013-09-21T12:23:31Z</time>
      </trkpt>
      <trkpt lat="45.74127" lon="2.76607">
        <ele>924</ele>
        <time>2013-09-21T12:23:50Z</time>
      </trkpt>
      <trkpt lat="45.74046" lon="2.76673">
        <ele>925</ele>
        <time>2013-09-21T12:24:10Z</time>
      </trkpt>
      <trkpt lat="45.74003" lon="2.76697">
        <ele>924</ele>
        <time>2013-09-21T12:24:19Z</time>
      </trkpt>
      <trkpt lat="45.73982" lon="2.76681">
        <ele>923</ele>
        <time>2013-09-21T12:24:24Z</time>
      </trkpt>
      <trkpt lat="45.73916" lon="2.76564">
        <ele>917</ele>
        <time>2013-09-21T12:24:40Z</time>
      </trkpt>
      <trkpt lat="45.73877" lon="2.76503">
        <ele>916</ele>
        <time>2013-09-21T12:24:48Z</time>
      </trkpt>
      <trkpt lat="45.73805" lon="2.76433">
        <ele>915</ele>
        <time>2013-09-21T12:25:00Z</time>
      </trkpt>
      <trkpt lat="45.73784" lon="2.76405">
        <ele>915</ele>
        <time>2013-09-21T12:25:04Z</time>
      </trkpt>
      <trkpt lat="45.7377" lon="2.7637">
        <ele>914</ele>
        <time>2013-09-21T12:25:08Z</time>
      </trkpt>
      <trkpt lat="45.73734" lon="2.76244">
        <ele>915</ele>
        <time>2013-09-21T12:25:24Z</time>
      </trkpt>
      <trkpt lat="45.73714" lon="2.76186">
        <ele>915</ele>
        <time>2013-09-21T12:25:32Z</time>
      </trkpt>
      <trkpt lat="45.73676" lon="2.7613">
        <ele>914</ele>
        <time>2013-09-21T12:25:41Z</time>
      </trkpt>
      <trkpt lat="45.73645" lon="2.76113">
        <ele>913</ele>
        <time>2013-09-21T12:25:46Z</time>
      </trkpt>
      <trkpt lat="45.73561" lon="2.76099">
        <ele>914</ele>
        <time>2013-09-21T12:26:00Z</time>
      </trkpt>
      <trkpt lat="45.73523" lon="2.76091">
        <ele>913</ele>
        <time>2013-09-21T12:26:07Z</time>
      </trkpt>
      <trkpt lat="45.73499" lon="2.76098">
        <ele>912</ele>
        <time>2013-09-21T12:26:12Z</time>
      </trkpt>
      <trkpt lat="45.73418" lon="2.76137">
        <ele>909</ele>
        <time>2013-09-21T12:26:25Z</time>
      </trkpt>
      <trkpt lat="45.73387" lon="2.76151">
        <ele>905</ele>
        <time>2013-09-21T12:26:29Z</time>
      </trkpt>
      <trkpt lat="45.73362" lon="2.76163">
        <ele>903</ele>
        <time>2013-09-21T12:26:32Z</time>
      </trkpt>
      <trkpt lat="45.73328" lon="2.76179">
        <ele>897</ele>
        <time>2013-09-21T12:26:36Z</time>
      </trkpt>
      <trkpt lat="45.73312" lon="2.76186">
        <ele>895</ele>
        <time>2013-09-21T12:26:38Z</time>
      </trkpt>
      <trkpt lat="45.73287" lon="2.76225">
        <ele>892</ele>
        <time>2013-09-21T12:26:43Z</time>
      </trkpt>
      <trkpt lat="45.73286" lon="2.76236">
        <ele>892</ele>
        <time>2013-09-21T12:26:44Z</time>
      </trkpt>
      <trkpt lat="45.73286" lon="2.7626">
        <ele>889</ele>
        <time>2013-09-21T12:26:46Z</time>
      </trkpt>
      <trkpt lat="45.7329" lon="2.76285">
        <ele>889</ele>
        <time>2013-09-21T12:26:48Z</time>
      </trkpt>
      <trkpt lat="45.73303" lon="2.76353">
        <ele>888</ele>
        <time>2013-09-21T12:26:53Z</time>
      </trkpt>
      <trkpt lat="45.73308" lon="2.76382">
        <ele>888</ele>
        <time>2013-09-21T12:26:55Z</time>
      </trkpt>
      <trkpt lat="45.73314" lon="2.76409">
        <ele>888</ele>
        <time>2013-09-21T12:26:59Z</time>
      </trkpt>
      <trkpt lat="45.73313" lon="2.76406">
        <ele>888</ele>
        <time>2013-09-21T12:27:01Z</time>
      </trkpt>
      <trkpt lat="45.73312" lon="2.76397">
        <ele>888</ele>
        <time>2013-09-21T12:27:03Z</time>
      </trkpt>
      <trkpt lat="45.73303" lon="2.76365">
        <ele>887</ele>
        <time>2013-09-21T12:27:08Z</time>
      </trkpt>
      <trkpt lat="45.73277" lon="2.76306">
        <ele>887</ele>
        <time>2013-09-21T12:27:15Z</time>
      </trkpt>
      <trkpt lat="45.73273" lon="2.76297">
        <ele>887</ele>
        <time>2013-09-21T12:27:16Z</time>
      </trkpt>
      <trkpt lat="45.73261" lon="2.76266">
        <ele>886</ele>
        <time>2013-09-21T12:27:19Z</time>
      </trkpt>
      <trkpt lat="45.73253" lon="2.76244">
        <ele>886</ele>
        <time>2013-09-21T12:27:21Z</time>
      </trkpt>
      <trkpt lat="45.73248" lon="2.76224">
        <ele>881</ele>
        <time>2013-09-21T12:27:23Z</time>
      </trkpt>
      <trkpt lat="45.73242" lon="2.76206">
        <ele>881</ele>
        <time>2013-09-21T12:27:25Z</time>
      </trkpt>
      <trkpt lat="45.73234" lon="2.76187">
        <ele>882</ele>
        <time>2013-09-21T12:27:27Z</time>
      </trkpt>
      <trkpt lat="45.73225" lon="2.76172">
        <ele>882</ele>
        <time>2013-09-21T12:27:29Z</time>
      </trkpt>
      <trkpt lat="45.73219" lon="2.76158">
        <ele>882</ele>
        <time>2013-09-21T12:27:31Z</time>
      </trkpt>
      <trkpt lat="45.73215" lon="2.76151">
        <ele>882</ele>
        <time>2013-09-21T12:27:32Z</time>
      </trkpt>
      <trkpt lat="45.73174" lon="2.76128">
        <ele>878</ele>
        <time>2013-09-21T12:27:37Z</time>
      </trkpt>
      <trkpt lat="45.73151" lon="2.7611">
        <ele>868</ele>
        <time>2013-09-21T12:27:41Z</time>
      </trkpt>
      <trkpt lat="45.73119" lon="2.76082">
        <ele>862</ele>
        <time>2013-09-21T12:27:47Z</time>
      </trkpt>
      <trkpt lat="45.73116" lon="2.7608">
        <ele>862</ele>
        <time>2013-09-21T12:27:48Z</time>
      </trkpt>
      <trkpt lat="45.73102" lon="2.76065">
        <ele>860</ele>
        <time>2013-09-21T12:27:52Z</time>
      </trkpt>
      <trkpt lat="45.73091" lon="2.7605">
        <ele>860</ele>
        <time>2013-09-21T12:27:56Z</time>
      </trkpt>
      <trkpt lat="45.73068" lon="2.76028">
        <ele>849</ele>
        <time>2013-09-21T12:28:06Z</time>
      </trkpt>
      <trkpt lat="45.73052" lon="2.76021">
        <ele>848</ele>
        <time>2013-09-21T12:28:13Z</time>
      </trkpt>
      <trkpt lat="45.73031" lon="2.76026">
        <ele>846</ele>
        <time>2013-09-21T12:28:23Z</time>
      </trkpt>
      <trkpt lat="45.73029" lon="2.76028">
        <ele>846</ele>
        <time>2013-09-21T12:28:24Z</time>
      </trkpt>
      <trkpt lat="45.73024" lon="2.76029">
        <ele>845</ele>
        <time>2013-09-21T12:28:27Z</time>
      </trkpt>
      <trkpt lat="45.73001" lon="2.76026">
        <ele>843</ele>
        <time>2013-09-21T12:28:40Z</time>
      </trkpt>
      <trkpt lat="45.72997" lon="2.76027">
        <ele>840</ele>
        <time>2013-09-21T12:28:42Z</time>
      </trkpt>
      <trkpt lat="45.72975" lon="2.76021">
        <ele>840</ele>
        <time>2013-09-21T12:28:49Z</time>
      </trkpt>
      <trkpt lat="45.72955" lon="2.76021">
        <ele>840</ele>
        <time>2013-09-21T12:28:59Z</time>
      </trkpt>
      <trkpt lat="45.7293" lon="2.76015">
        <ele>837</ele>
        <time>2013-09-21T12:29:15Z</time>
      </trkpt>
      <trkpt lat="45.72899" lon="2.75982">
        <ele>833</ele>
        <time>2013-09-21T12:29:32Z</time>
      </trkpt>
      <trkpt lat="45.72884" lon="2.75974">
        <ele>834</ele>
        <time>2013-09-21T12:29:40Z</time>
      </trkpt>
      <trkpt lat="45.72846" lon="2.75951">
        <ele>832</ele>
        <time>2013-09-21T12:29:54Z</time>
      </trkpt>
      <trkpt lat="45.72793" lon="2.75931">
        <ele>829</ele>
        <time>2013-09-21T12:30:09Z</time>
      </trkpt>
      <trkpt lat="45.72735" lon="2.75915">
        <ele>819</ele>
        <time>2013-09-21T12:30:25Z</time>
      </trkpt>
      <trkpt lat="45.72664" lon="2.75885">
        <ele>819</ele>
        <time>2013-09-21T12:30:42Z</time>
      </trkpt>
      <trkpt lat="45.72605" lon="2.75887">
        <ele>818</ele>
        <time>2013-09-21T12:30:55Z</time>
      </trkpt>
      <trkpt lat="45.72534" lon="2.75904">
        <ele>810</ele>
        <time>2013-09-21T12:31:11Z</time>
      </trkpt>
      <trkpt lat="45.72485" lon="2.75942">
        <ele>806</ele>
        <time>2013-09-21T12:31:26Z</time>
      </trkpt>
      <trkpt lat="45.72442" lon="2.75971">
        <ele>805</ele>
        <time>2013-09-21T12:31:41Z</time>
      </trkpt>
      <trkpt lat="45.72395" lon="2.7601">
        <ele>798</ele>
        <time>2013-09-21T12:31:56Z</time>
      </trkpt>
      <trkpt lat="45.72397" lon="2.76065">
        <ele>799</ele>
        <time>2013-09-21T12:32:08Z</time>
      </trkpt>
      <trkpt lat="45.72422" lon="2.76132">
        <ele>810</ele>
        <time>2013-09-21T12:32:21Z</time>
      </trkpt>
      <trkpt lat="45.72486" lon="2.76202">
        <ele>809</ele>
        <time>2013-09-21T12:32:36Z</time>
      </trkpt>
      <trkpt lat="45.72529" lon="2.76248">
        <ele>824</ele>
        <time>2013-09-21T12:32:52Z</time>
      </trkpt>
      <trkpt lat="45.72562" lon="2.76307">
        <ele>819</ele>
        <time>2013-09-21T12:33:06Z</time>
      </trkpt>
      <trkpt lat="45.72568" lon="2.76383">
        <ele>808</ele>
        <time>2013-09-21T12:33:21Z</time>
      </trkpt>
      <trkpt lat="45.72571" lon="2.7643">
        <ele>806</ele>
        <time>2013-09-21T12:33:34Z</time>
      </trkpt>
      <trkpt lat="45.72595" lon="2.76508">
        <ele>825</ele>
        <time>2013-09-21T12:33:50Z</time>
      </trkpt>
      <trkpt lat="45.72583" lon="2.7656">
        <ele>810</ele>
        <time>2013-09-21T12:34:02Z</time>
      </trkpt>
      <trkpt lat="45.72559" lon="2.76607">
        <ele>819</ele>
        <time>2013-09-21T12:34:16Z</time>
      </trkpt>
      <trkpt lat="45.72509" lon="2.76631">
        <ele>814</ele>
        <time>2013-09-21T12:34:32Z</time>
      </trkpt>
      <trkpt lat="45.72459" lon="2.76676">
        <ele>810</ele>
        <time>2013-09-21T12:34:50Z</time>
      </trkpt>
      <trkpt lat="45.72417" lon="2.76721">
        <ele>807</ele>
        <time>2013-09-21T12:35:05Z</time>
      </trkpt>
      <trkpt lat="45.72433" lon="2.76795">
        <ele>812</ele>
        <time>2013-09-21T12:35:19Z</time>
      </trkpt>
      <trkpt lat="45.72452" lon="2.76884">
        <ele>809</ele>
        <time>2013-09-21T12:35:34Z</time>
      </trkpt>
      <trkpt lat="45.72474" lon="2.76943">
        <ele>806</ele>
        <time>2013-09-21T12:35:47Z</time>
      </trkpt>
      <trkpt lat="45.72517" lon="2.77012">
        <ele>817</ele>
        <time>2013-09-21T12:36:03Z</time>
      </trkpt>
      <trkpt lat="45.72551" lon="2.77086">
        <ele>811</ele>
        <time>2013-09-21T12:36:21Z</time>
      </trkpt>
      <trkpt lat="45.72561" lon="2.77156">
        <ele>809</ele>
        <time>2013-09-21T12:36:37Z</time>
      </trkpt>
      <trkpt lat="45.726" lon="2.77218">
        <ele>811</ele>
        <time>2013-09-21T12:36:52Z</time>
      </trkpt>
      <trkpt lat="45.72651" lon="2.77264">
        <ele>799</ele>
        <time>2013-09-21T12:37:07Z</time>
      </trkpt>
      <trkpt lat="45.72694" lon="2.77286">
        <ele>804</ele>
        <time>2013-09-21T12:37:21Z</time>
      </trkpt>
      <trkpt lat="45.72748" lon="2.77294">
        <ele>806</ele>
        <time>2013-09-21T12:37:36Z</time>
      </trkpt>
      <trkpt lat="45.7278" lon="2.77316">
        <ele>815</ele>
        <time>2013-09-21T12:37:50Z</time>
      </trkpt>
      <trkpt lat="45.7281" lon="2.77382">
        <ele>804</ele>
        <time>2013-09-21T12:38:05Z</time>
      </trkpt>
      <trkpt lat="45.72841" lon="2.77432">
        <ele>813</ele>
        <time>2013-09-21T12:38:18Z</time>
      </trkpt>
      <trkpt lat="45.72875" lon="2.77515">
        <ele>808</ele>
        <time>2013-09-21T12:38:34Z</time>
      </trkpt>
      <trkpt lat="45.72886" lon="2.77591">
        <ele>804</ele>
        <time>2013-09-21T12:38:48Z</time>
      </trkpt>
      <trkpt lat="45.72887" lon="2.77679">
        <ele>799</ele>
        <time>2013-09-21T12:39:03Z</time>
      </trkpt>
      <trkpt lat="45.72909" lon="2.77761">
        <ele>804</ele>
        <time>2013-09-21T12:39:18Z</time>
      </trkpt>
      <trkpt lat="45.72952" lon="2.77782">
        <ele>810</ele>
        <time>2013-09-21T12:39:31Z</time>
      </trkpt>
      <trkpt lat="45.73037" lon="2.7777">
        <ele>819</ele>
        <time>2013-09-21T12:39:49Z</time>
      </trkpt>
      <trkpt lat="45.73087" lon="2.77776">
        <ele>828</ele>
        <time>2013-09-21T12:40:03Z</time>
      </trkpt>
      <trkpt lat="45.73073" lon="2.77796">
        <ele>819</ele>
        <time>2013-09-21T12:40:17Z</time>
      </trkpt>
      <trkpt lat="45.73024" lon="2.77877">
        <ele>809</ele>
        <time>2013-09-21T12:40:34Z</time>
      </trkpt>
      <trkpt lat="45.73024" lon="2.77993">
        <ele>805</ele>
        <time>2013-09-21T12:40:51Z</time>
      </trkpt>
      <trkpt lat="45.7306" lon="2.78093">
        <ele>798</ele>
        <time>2013-09-21T12:41:06Z</time>
      </trkpt>
      <trkpt lat="45.73077" lon="2.7813">
        <ele>796</ele>
        <time>2013-09-21T12:41:12Z</time>
      </trkpt>
      <trkpt lat="45.73108" lon="2.78179">
        <ele>802</ele>
        <time>2013-09-21T12:41:21Z</time>
      </trkpt>
      <trkpt lat="45.73149" lon="2.78232">
        <ele>804</ele>
        <time>2013-09-21T12:41:36Z</time>
      </trkpt>
      <trkpt lat="45.73168" lon="2.7825">
        <ele>806</ele>
        <time>2013-09-21T12:41:42Z</time>
      </trkpt>
      <trkpt lat="45.73201" lon="2.7827">
        <ele>803</ele>
        <time>2013-09-21T12:41:51Z</time>
      </trkpt>
      <trkpt lat="45.73222" lon="2.7827">
        <ele>804</ele>
        <time>2013-09-21T12:41:56Z</time>
      </trkpt>
      <trkpt lat="45.73225" lon="2.78279">
        <ele>803</ele>
        <time>2013-09-21T12:42:02Z</time>
      </trkpt>
      <trkpt lat="45.73188" lon="2.78306">
        <ele>801</ele>
        <time>2013-09-21T12:42:15Z</time>
      </trkpt>
      <trkpt lat="45.73183" lon="2.78308">
        <ele>801</ele>
        <time>2013-09-21T12:42:16Z</time>
      </trkpt>
      <trkpt lat="45.73165" lon="2.78308">
        <ele>796</ele>
        <time>2013-09-21T12:42:20Z</time>
      </trkpt>
      <trkpt lat="45.73143" lon="2.78306">
        <ele>794</ele>
        <time>2013-09-21T12:42:23Z</time>
      </trkpt>
      <trkpt lat="45.73127" lon="2.78296">
        <ele>793</ele>
        <time>2013-09-21T12:42:26Z</time>
      </trkpt>
      <trkpt lat="45.73112" lon="2.78274">
        <ele>793</ele>
        <time>2013-09-21T12:42:29Z</time>
      </trkpt>
      <trkpt lat="45.7309" lon="2.78238">
        <ele>796</ele>
        <time>2013-09-21T12:42:33Z</time>
      </trkpt>
      <trkpt lat="45.73071" lon="2.78209">
        <ele>786</ele>
        <time>2013-09-21T12:42:36Z</time>
      </trkpt>
      <trkpt lat="45.73054" lon="2.78179">
        <ele>786</ele>
        <time>2013-09-21T12:42:39Z</time>
      </trkpt>
      <trkpt lat="45.7303" lon="2.78135">
        <ele>790</ele>
        <time>2013-09-21T12:42:43Z</time>
      </trkpt>
      <trkpt lat="45.73009" lon="2.78105">
        <ele>789</ele>
        <time>2013-09-21T12:42:46Z</time>
      </trkpt>
      <trkpt lat="45.72988" lon="2.78086">
        <ele>780</ele>
        <time>2013-09-21T12:42:49Z</time>
      </trkpt>
      <trkpt lat="45.72966" lon="2.78068">
        <ele>779</ele>
        <time>2013-09-21T12:42:52Z</time>
      </trkpt>
      <trkpt lat="45.7296" lon="2.78066">
        <ele>778</ele>
        <time>2013-09-21T12:42:53Z</time>
      </trkpt>
      <trkpt lat="45.72929" lon="2.78073">
        <ele>770</ele>
        <time>2013-09-21T12:42:56Z</time>
      </trkpt>
      <trkpt lat="45.72918" lon="2.78083">
        <ele>763</ele>
        <time>2013-09-21T12:42:59Z</time>
      </trkpt>
      <trkpt lat="45.72916" lon="2.78083">
        <ele>762</ele>
        <time>2013-09-21T12:43:00Z</time>
      </trkpt>
      <trkpt lat="45.72903" lon="2.78079">
        <ele>762</ele>
        <time>2013-09-21T12:43:04Z</time>
      </trkpt>
      <trkpt lat="45.72875" lon="2.7805">
        <ele>761</ele>
        <time>2013-09-21T12:43:12Z</time>
      </trkpt>
      <trkpt lat="45.72869" lon="2.78045">
        <ele>761</ele>
        <time>2013-09-21T12:43:23Z</time>
      </trkpt>
      <trkpt lat="45.72866" lon="2.78044">
        <ele>761</ele>
        <time>2013-09-21T12:43:35Z</time>
      </trkpt>
      <trkpt lat="45.72861" lon="2.78044">
        <ele>760</ele>
        <time>2013-09-21T12:43:40Z</time>
      </trkpt>
      <trkpt lat="45.72854" lon="2.78047">
        <ele>760</ele>
        <time>2013-09-21T12:43:47Z</time>
      </trkpt>
      <trkpt lat="45.72852" lon="2.78062">
        <ele>760</ele>
        <time>2013-09-21T12:43:55Z</time>
      </trkpt>
      <trkpt lat="45.72884" lon="2.78116">
        <ele>762</ele>
        <time>2013-09-21T12:44:09Z</time>
      </trkpt>
      <trkpt lat="45.72937" lon="2.78198">
        <ele>761</ele>
        <time>2013-09-21T12:44:24Z</time>
      </trkpt>
      <trkpt lat="45.72962" lon="2.78242">
        <ele>762</ele>
        <time>2013-09-21T12:44:37Z</time>
      </trkpt>
      <trkpt lat="45.72974" lon="2.78314">
        <ele>755</ele>
        <time>2013-09-21T12:44:53Z</time>
      </trkpt>
      <trkpt lat="45.72962" lon="2.78377">
        <ele>753</ele>
        <time>2013-09-21T12:45:08Z</time>
      </trkpt>
      <trkpt lat="45.72952" lon="2.78422">
        <ele>755</ele>
        <time>2013-09-21T12:45:20Z</time>
      </trkpt>
      <trkpt lat="45.72955" lon="2.78453">
        <ele>755</ele>
        <time>2013-09-21T12:45:32Z</time>
      </trkpt>
      <trkpt lat="45.72949" lon="2.78471">
        <ele>757</ele>
        <time>2013-09-21T12:45:44Z</time>
      </trkpt>
      <trkpt lat="45.72948" lon="2.78474">
        <ele>757</ele>
        <time>2013-09-21T12:45:46Z</time>
      </trkpt>
      <trkpt lat="45.72939" lon="2.78488">
        <ele>759</ele>
        <time>2013-09-21T12:45:59Z</time>
      </trkpt>
      <trkpt lat="45.72931" lon="2.78483">
        <ele>760</ele>
        <time>2013-09-21T12:46:07Z</time>
      </trkpt>
      <trkpt lat="45.72912" lon="2.78471">
        <ele>770</ele>
        <time>2013-09-21T12:46:20Z</time>
      </trkpt>
      <trkpt lat="45.72888" lon="2.78456">
        <ele>771</ele>
        <time>2013-09-21T12:46:38Z</time>
      </trkpt>
      <trkpt lat="45.72865" lon="2.78447">
        <ele>773</ele>
        <time>2013-09-21T12:46:53Z</time>
      </trkpt>
      <trkpt lat="45.72849" lon="2.7844">
        <ele>774</ele>
        <time>2013-09-21T12:47:05Z</time>
      </trkpt>
      <trkpt lat="45.72832" lon="2.78436">
        <ele>783</ele>
        <time>2013-09-21T12:47:18Z</time>
      </trkpt>
      <trkpt lat="45.72811" lon="2.78428">
        <ele>784</ele>
        <time>2013-09-21T12:47:33Z</time>
      </trkpt>
      <trkpt lat="45.72803" lon="2.78425">
        <ele>786</ele>
        <time>2013-09-21T12:47:39Z</time>
      </trkpt>
      <trkpt lat="45.72791" lon="2.78418">
        <ele>787</ele>
        <time>2013-09-21T12:47:47Z</time>
      </trkpt>
      <trkpt lat="45.72783" lon="2.78415">
        <ele>784</ele>
        <time>2013-09-21T12:47:51Z</time>
      </trkpt>
      <trkpt lat="45.72755" lon="2.78403">
        <ele>788</ele>
        <time>2013-09-21T12:48:06Z</time>
      </trkpt>
      <trkpt lat="45.72735" lon="2.78396">
        <ele>792</ele>
        <time>2013-09-21T12:48:20Z</time>
      </trkpt>
      <trkpt lat="45.72709" lon="2.78394">
        <ele>793</ele>
        <time>2013-09-21T12:48:36Z</time>
      </trkpt>
      <trkpt lat="45.72692" lon="2.78398">
        <ele>795</ele>
        <time>2013-09-21T12:48:47Z</time>
      </trkpt>
      <trkpt lat="45.72673" lon="2.78406">
        <ele>798</ele>
        <time>2013-09-21T12:49:01Z</time>
      </trkpt>
      <trkpt lat="45.72646" lon="2.78414">
        <ele>802</ele>
        <time>2013-09-21T12:49:19Z</time>
      </trkpt>
      <trkpt lat="45.72625" lon="2.78424">
        <ele>807</ele>
        <time>2013-09-21T12:49:34Z</time>
      </trkpt>
      <trkpt lat="45.72609" lon="2.78456">
        <ele>809</ele>
        <time>2013-09-21T12:49:51Z</time>
      </trkpt>
      <trkpt lat="45.72623" lon="2.78504">
        <ele>812</ele>
        <time>2013-09-21T12:50:08Z</time>
      </trkpt>
      <trkpt lat="45.72619" lon="2.78556">
        <ele>812</ele>
        <time>2013-09-21T12:50:23Z</time>
      </trkpt>
      <trkpt lat="45.72604" lon="2.78574">
        <ele>813</ele>
        <time>2013-09-21T12:50:31Z</time>
      </trkpt>
      <trkpt lat="45.7258" lon="2.78554">
        <ele>815</ele>
        <time>2013-09-21T12:50:43Z</time>
      </trkpt>
      <trkpt lat="45.72546" lon="2.78507">
        <ele>816</ele>
        <time>2013-09-21T12:51:00Z</time>
      </trkpt>
      <trkpt lat="45.72514" lon="2.78491">
        <ele>819</ele>
        <time>2013-09-21T12:51:16Z</time>
      </trkpt>
      <trkpt lat="45.72487" lon="2.7849">
        <ele>823</ele>
        <time>2013-09-21T12:51:33Z</time>
      </trkpt>
      <trkpt lat="45.7248" lon="2.78489">
        <ele>824</ele>
        <time>2013-09-21T12:51:37Z</time>
      </trkpt>
      <trkpt lat="45.72454" lon="2.78487">
        <ele>826</ele>
        <time>2013-09-21T12:51:52Z</time>
      </trkpt>
      <trkpt lat="45.72447" lon="2.78487">
        <ele>827</ele>
        <time>2013-09-21T12:51:56Z</time>
      </trkpt>
      <trkpt lat="45.72427" lon="2.78484">
        <ele>828</ele>
        <time>2013-09-21T12:52:11Z</time>
      </trkpt>
      <trkpt lat="45.72421" lon="2.78485">
        <ele>828</ele>
        <time>2013-09-21T12:52:16Z</time>
      </trkpt>
      <trkpt lat="45.72417" lon="2.78484">
        <ele>829</ele>
        <time>2013-09-21T12:52:19Z</time>
      </trkpt>
      <trkpt lat="45.72408" lon="2.78481">
        <ele>834</ele>
        <time>2013-09-21T12:52:27Z</time>
      </trkpt>
      <trkpt lat="45.72384" lon="2.78482">
        <ele>836</ele>
        <time>2013-09-21T12:52:41Z</time>
      </trkpt>
      <trkpt lat="45.7236" lon="2.78485">
        <ele>838</ele>
        <time>2013-09-21T12:52:55Z</time>
      </trkpt>
      <trkpt lat="45.72327" lon="2.78496">
        <ele>844</ele>
        <time>2013-09-21T12:53:13Z</time>
      </trkpt>
      <trkpt lat="45.72304" lon="2.78509">
        <ele>845</ele>
        <time>2013-09-21T12:53:29Z</time>
      </trkpt>
      <trkpt lat="45.72275" lon="2.78517">
        <ele>848</ele>
        <time>2013-09-21T12:53:44Z</time>
      </trkpt>
      <trkpt lat="45.72242" lon="2.78518">
        <ele>854</ele>
        <time>2013-09-21T12:54:01Z</time>
      </trkpt>
      <trkpt lat="45.72211" lon="2.78519">
        <ele>855</ele>
        <time>2013-09-21T12:54:19Z</time>
      </trkpt>
      <trkpt lat="45.72183" lon="2.78518">
        <ele>857</ele>
        <time>2013-09-21T12:54:35Z</time>
      </trkpt>
      <trkpt lat="45.72157" lon="2.78533">
        <ele>860</ele>
        <time>2013-09-21T12:54:50Z</time>
      </trkpt>
      <trkpt lat="45.72123" lon="2.78552">
        <ele>861</ele>
        <time>2013-09-21T12:55:10Z</time>
      </trkpt>
      <trkpt lat="45.72098" lon="2.78561">
        <ele>862</ele>
        <time>2013-09-21T12:55:27Z</time>
      </trkpt>
      <trkpt lat="45.72093" lon="2.78561">
        <ele>862</ele>
        <time>2013-09-21T12:55:42Z</time>
      </trkpt>
      <trkpt lat="45.72092" lon="2.78563">
        <ele>862</ele>
        <time>2013-09-21T12:55:46Z</time>
      </trkpt>
      <trkpt lat="45.72086" lon="2.78562">
        <ele>862</ele>
        <time>2013-09-21T12:55:50Z</time>
      </trkpt>
      <trkpt lat="45.72076" lon="2.78564">
        <ele>862</ele>
        <time>2013-09-21T12:55:56Z</time>
      </trkpt>
      <trkpt lat="45.72055" lon="2.78567">
        <ele>862</ele>
        <time>2013-09-21T12:56:12Z</time>
      </trkpt>
      <trkpt lat="45.72054" lon="2.78567">
        <ele>862</ele>
        <time>2013-09-21T12:56:21Z</time>
      </trkpt>
      <trkpt lat="45.72009" lon="2.78567">
        <ele>861</ele>
        <time>2013-09-21T12:56:34Z</time>
      </trkpt>
      <trkpt lat="45.71967" lon="2.78561">
        <ele>857</ele>
        <time>2013-09-21T12:56:42Z</time>
      </trkpt>
      <trkpt lat="45.71957" lon="2.78558">
        <ele>856</ele>
        <time>2013-09-21T12:56:44Z</time>
      </trkpt>
      <trkpt lat="45.71938" lon="2.78546">
        <ele>856</ele>
        <time>2013-09-21T12:56:48Z</time>
      </trkpt>
      <trkpt lat="45.71933" lon="2.78542">
        <ele>856</ele>
        <time>2013-09-21T12:56:49Z</time>
      </trkpt>
      <trkpt lat="45.71899" lon="2.7854">
        <ele>850</ele>
        <time>2013-09-21T12:56:53Z</time>
      </trkpt>
      <trkpt lat="45.71859" lon="2.7855">
        <ele>849</ele>
        <time>2013-09-21T12:56:57Z</time>
      </trkpt>
      <trkpt lat="45.71755" lon="2.78528">
        <ele>846</ele>
        <time>2013-09-21T12:57:08Z</time>
      </trkpt>
      <trkpt lat="45.71748" lon="2.78524">
        <ele>845</ele>
        <time>2013-09-21T12:57:09Z</time>
      </trkpt>
      <trkpt lat="45.71734" lon="2.7852">
        <ele>845</ele>
        <time>2013-09-21T12:57:11Z</time>
      </trkpt>
      <trkpt lat="45.71653" lon="2.7852">
        <ele>847</ele>
        <time>2013-09-21T12:57:23Z</time>
      </trkpt>
      <trkpt lat="45.71609" lon="2.78561">
        <ele>848</ele>
        <time>2013-09-21T12:57:35Z</time>
      </trkpt>
      <trkpt lat="45.7157" lon="2.78589">
        <ele>850</ele>
        <time>2013-09-21T12:57:47Z</time>
      </trkpt>
      <trkpt lat="45.71555" lon="2.78606">
        <ele>851</ele>
        <time>2013-09-21T12:57:51Z</time>
      </trkpt>
      <trkpt lat="45.71514" lon="2.78673">
        <ele>851</ele>
        <time>2013-09-21T12:58:07Z</time>
      </trkpt>
      <trkpt lat="45.7151" lon="2.78663">
        <ele>852</ele>
        <time>2013-09-21T12:58:12Z</time>
      </trkpt>
      <trkpt lat="45.71542" lon="2.78577">
        <ele>853</ele>
        <time>2013-09-21T12:58:29Z</time>
      </trkpt>
      <trkpt lat="45.71557" lon="2.78519">
        <ele>853</ele>
        <time>2013-09-21T12:58:42Z</time>
      </trkpt>
      <trkpt lat="45.71573" lon="2.78434">
        <ele>856</ele>
        <time>2013-09-21T12:59:00Z</time>
      </trkpt>
      <trkpt lat="45.71591" lon="2.78357">
        <ele>856</ele>
        <time>2013-09-21T12:59:18Z</time>
      </trkpt>
      <trkpt lat="45.71612" lon="2.78296">
        <ele>859</ele>
        <time>2013-09-21T12:59:34Z</time>
      </trkpt>
      <trkpt lat="45.71645" lon="2.78241">
        <ele>859</ele>
        <time>2013-09-21T12:59:47Z</time>
      </trkpt>
      <trkpt lat="45.71658" lon="2.78208">
        <ele>859</ele>
        <time>2013-09-21T12:59:52Z</time>
      </trkpt>
      <trkpt lat="45.71657" lon="2.78187">
        <ele>858</ele>
        <time>2013-09-21T12:59:55Z</time>
      </trkpt>
      <trkpt lat="45.71637" lon="2.78133">
        <ele>858</ele>
        <time>2013-09-21T13:00:05Z</time>
      </trkpt>
      <trkpt lat="45.71615" lon="2.78067">
        <ele>856</ele>
        <time>2013-09-21T13:00:20Z</time>
      </trkpt>
      <trkpt lat="45.71583" lon="2.78031">
        <ele>862</ele>
        <time>2013-09-21T13:00:32Z</time>
      </trkpt>
      <trkpt lat="45.7155" lon="2.77997">
        <ele>857</ele>
        <time>2013-09-21T13:00:44Z</time>
      </trkpt>
      <trkpt lat="45.71511" lon="2.77961">
        <ele>858</ele>
        <time>2013-09-21T13:00:57Z</time>
      </trkpt>
      <trkpt lat="45.7146" lon="2.77933">
        <ele>865</ele>
        <time>2013-09-21T13:01:12Z</time>
      </trkpt>
      <trkpt lat="45.71401" lon="2.779">
        <ele>860</ele>
        <time>2013-09-21T13:01:26Z</time>
      </trkpt>
      <trkpt lat="45.71347" lon="2.77889">
        <ele>857</ele>
        <time>2013-09-21T13:01:40Z</time>
      </trkpt>
      <trkpt lat="45.71329" lon="2.77897">
        <ele>858</ele>
        <time>2013-09-21T13:01:45Z</time>
      </trkpt>
      <trkpt lat="45.7131" lon="2.77912">
        <ele>858</ele>
        <time>2013-09-21T13:01:49Z</time>
      </trkpt>
      <trkpt lat="45.71279" lon="2.77937">
        <ele>865</ele>
        <time>2013-09-21T13:01:55Z</time>
      </trkpt>
      <trkpt lat="45.71267" lon="2.7794">
        <ele>865</ele>
        <time>2013-09-21T13:01:59Z</time>
      </trkpt>
      <trkpt lat="45.71253" lon="2.77935">
        <ele>864</ele>
        <time>2013-09-21T13:02:07Z</time>
      </trkpt>
      <trkpt lat="45.7124" lon="2.77916">
        <ele>861</ele>
        <time>2013-09-21T13:02:22Z</time>
      </trkpt>
      <trkpt lat="45.71223" lon="2.77904">
        <ele>862</ele>
        <time>2013-09-21T13:02:37Z</time>
      </trkpt>
      <trkpt lat="45.71197" lon="2.77892">
        <ele>863</ele>
        <time>2013-09-21T13:02:53Z</time>
      </trkpt>
      <trkpt lat="45.71155" lon="2.77869">
        <ele>869</ele>
        <time>2013-09-21T13:03:06Z</time>
      </trkpt>
      <trkpt lat="45.7111" lon="2.77857">
        <ele>871</ele>
        <time>2013-09-21T13:03:22Z</time>
      </trkpt>
      <trkpt lat="45.71069" lon="2.7785">
        <ele>874</ele>
        <time>2013-09-21T13:03:37Z</time>
      </trkpt>
      <trkpt lat="45.71055" lon="2.77856">
        <ele>876</ele>
        <time>2013-09-21T13:03:45Z</time>
      </trkpt>
      <trkpt lat="45.71041" lon="2.77863">
        <ele>877</ele>
        <time>2013-09-21T13:03:54Z</time>
      </trkpt>
      <trkpt lat="45.71008" lon="2.77868">
        <ele>877</ele>
        <time>2013-09-21T13:04:11Z</time>
      </trkpt>
      <trkpt lat="45.70967" lon="2.77868">
        <ele>879</ele>
        <time>2013-09-21T13:04:26Z</time>
      </trkpt>
      <trkpt lat="45.70925" lon="2.77864">
        <ele>878</ele>
        <time>2013-09-21T13:04:40Z</time>
      </trkpt>
      <trkpt lat="45.70872" lon="2.77854">
        <ele>879</ele>
        <time>2013-09-21T13:04:56Z</time>
      </trkpt>
      <trkpt lat="45.70816" lon="2.77849">
        <ele>878</ele>
        <time>2013-09-21T13:05:11Z</time>
      </trkpt>
      <trkpt lat="45.70799" lon="2.7785">
        <ele>879</ele>
        <time>2013-09-21T13:05:15Z</time>
      </trkpt>
      <trkpt lat="45.70752" lon="2.77822">
        <ele>873</ele>
        <time>2013-09-21T13:05:26Z</time>
      </trkpt>
      <trkpt lat="45.70739" lon="2.77811">
        <ele>871</ele>
        <time>2013-09-21T13:05:28Z</time>
      </trkpt>
      <trkpt lat="45.70718" lon="2.77791">
        <ele>869</ele>
        <time>2013-09-21T13:05:31Z</time>
      </trkpt>
      <trkpt lat="45.70696" lon="2.77767">
        <ele>867</ele>
        <time>2013-09-21T13:05:34Z</time>
      </trkpt>
      <trkpt lat="45.70633" lon="2.77759">
        <ele>866</ele>
        <time>2013-09-21T13:05:41Z</time>
      </trkpt>
      <trkpt lat="45.70613" lon="2.77768">
        <ele>867</ele>
        <time>2013-09-21T13:05:44Z</time>
      </trkpt>
      <trkpt lat="45.70592" lon="2.77774">
        <ele>866</ele>
        <time>2013-09-21T13:05:48Z</time>
      </trkpt>
      <trkpt lat="45.7055" lon="2.77802">
        <ele>866</ele>
        <time>2013-09-21T13:05:59Z</time>
      </trkpt>
      <trkpt lat="45.70514" lon="2.77829">
        <ele>868</ele>
        <time>2013-09-21T13:06:14Z</time>
      </trkpt>
      <trkpt lat="45.70469" lon="2.77856">
        <ele>873</ele>
        <time>2013-09-21T13:06:30Z</time>
      </trkpt>
      <trkpt lat="45.70436" lon="2.77872">
        <ele>874</ele>
        <time>2013-09-21T13:06:37Z</time>
      </trkpt>
      <trkpt lat="45.70382" lon="2.779">
        <ele>874</ele>
        <time>2013-09-21T13:06:50Z</time>
      </trkpt>
      <trkpt lat="45.70342" lon="2.77911">
        <ele>874</ele>
        <time>2013-09-21T13:06:58Z</time>
      </trkpt>
      <trkpt lat="45.70261" lon="2.77894">
        <ele>877</ele>
        <time>2013-09-21T13:07:15Z</time>
      </trkpt>
      <trkpt lat="45.70241" lon="2.77877">
        <ele>880</ele>
        <time>2013-09-21T13:07:28Z</time>
      </trkpt>
      <trkpt lat="45.70218" lon="2.77856">
        <ele>880</ele>
        <time>2013-09-21T13:07:44Z</time>
      </trkpt>
      <trkpt lat="45.70192" lon="2.77841">
        <ele>881</ele>
        <time>2013-09-21T13:07:59Z</time>
      </trkpt>
      <trkpt lat="45.7015" lon="2.77825">
        <ele>879</ele>
        <time>2013-09-21T13:08:15Z</time>
      </trkpt>
      <trkpt lat="45.70104" lon="2.77813">
        <ele>879</ele>
        <time>2013-09-21T13:08:29Z</time>
      </trkpt>
      <trkpt lat="45.70077" lon="2.7783">
        <ele>883</ele>
        <time>2013-09-21T13:08:38Z</time>
      </trkpt>
      <trkpt lat="45.70056" lon="2.77856">
        <ele>887</ele>
        <time>2013-09-21T13:08:53Z</time>
      </trkpt>
      <trkpt lat="45.7003" lon="2.77856">
        <ele>887</ele>
        <time>2013-09-21T13:09:01Z</time>
      </trkpt>
      <trkpt lat="45.70012" lon="2.77868">
        <ele>887</ele>
        <time>2013-09-21T13:09:05Z</time>
      </trkpt>
      <trkpt lat="45.69978" lon="2.77887">
        <ele>889</ele>
        <time>2013-09-21T13:09:18Z</time>
      </trkpt>
      <trkpt lat="45.69939" lon="2.77885">
        <ele>890</ele>
        <time>2013-09-21T13:09:33Z</time>
      </trkpt>
      <trkpt lat="45.69913" lon="2.7792">
        <ele>894</ele>
        <time>2013-09-21T13:09:48Z</time>
      </trkpt>
      <trkpt lat="45.69899" lon="2.77947">
        <ele>896</ele>
        <time>2013-09-21T13:10:00Z</time>
      </trkpt>
      <trkpt lat="45.69881" lon="2.77994">
        <ele>897</ele>
        <time>2013-09-21T13:10:20Z</time>
      </trkpt>
      <trkpt lat="45.69867" lon="2.78031">
        <ele>901</ele>
        <time>2013-09-21T13:10:37Z</time>
      </trkpt>
      <trkpt lat="45.69855" lon="2.78069">
        <ele>903</ele>
        <time>2013-09-21T13:10:54Z</time>
      </trkpt>
      <trkpt lat="45.6983" lon="2.78075">
        <ele>906</ele>
        <time>2013-09-21T13:11:08Z</time>
      </trkpt>
      <trkpt lat="45.69785" lon="2.78058">
        <ele>907</ele>
        <time>2013-09-21T13:11:25Z</time>
      </trkpt>
      <trkpt lat="45.6974" lon="2.78039">
        <ele>910</ele>
        <time>2013-09-21T13:11:42Z</time>
      </trkpt>
      <trkpt lat="45.69701" lon="2.78021">
        <ele>910</ele>
        <time>2013-09-21T13:11:58Z</time>
      </trkpt>
      <trkpt lat="45.69659" lon="2.77997">
        <ele>911</ele>
        <time>2013-09-21T13:12:14Z</time>
      </trkpt>
      <trkpt lat="45.69603" lon="2.77958">
        <ele>911</ele>
        <time>2013-09-21T13:12:33Z</time>
      </trkpt>
      <trkpt lat="45.69533" lon="2.77919">
        <ele>914</ele>
        <time>2013-09-21T13:12:53Z</time>
      </trkpt>
      <trkpt lat="45.69483" lon="2.77938">
        <ele>914</ele>
        <time>2013-09-21T13:13:09Z</time>
      </trkpt>
      <trkpt lat="45.69439" lon="2.78004">
        <ele>916</ele>
        <time>2013-09-21T13:13:28Z</time>
      </trkpt>
      <trkpt lat="45.69395" lon="2.78029">
        <ele>917</ele>
        <time>2013-09-21T13:13:44Z</time>
      </trkpt>
      <trkpt lat="45.69323" lon="2.78009">
        <ele>919</ele>
        <time>2013-09-21T13:14:03Z</time>
      </trkpt>
      <trkpt lat="45.69237" lon="2.77986">
        <ele>921</ele>
        <time>2013-09-21T13:14:25Z</time>
      </trkpt>
      <trkpt lat="45.69165" lon="2.77967">
        <ele>923</ele>
        <time>2013-09-21T13:14:43Z</time>
      </trkpt>
      <trkpt lat="45.69089" lon="2.77929">
        <ele>922</ele>
        <time>2013-09-21T13:15:03Z</time>
      </trkpt>
      <trkpt lat="45.69029" lon="2.77914">
        <ele>922</ele>
        <time>2013-09-21T13:15:20Z</time>
      </trkpt>
      <trkpt lat="45.68977" lon="2.77926">
        <ele>928</ele>
        <time>2013-09-21T13:15:38Z</time>
      </trkpt>
      <trkpt lat="45.68941" lon="2.77937">
        <ele>931</ele>
        <time>2013-09-21T13:15:53Z</time>
      </trkpt>
      <trkpt lat="45.689" lon="2.77933">
        <ele>934</ele>
        <time>2013-09-21T13:16:09Z</time>
      </trkpt>
      <trkpt lat="45.68844" lon="2.77925">
        <ele>934</ele>
        <time>2013-09-21T13:16:26Z</time>
      </trkpt>
      <trkpt lat="45.68785" lon="2.77916">
        <ele>931</ele>
        <time>2013-09-21T13:16:43Z</time>
      </trkpt>
      <trkpt lat="45.68745" lon="2.77904">
        <ele>932</ele>
        <time>2013-09-21T13:16:52Z</time>
      </trkpt>
      <trkpt lat="45.68697" lon="2.77891">
        <ele>931</ele>
        <time>2013-09-21T13:17:02Z</time>
      </trkpt>
      <trkpt lat="45.68618" lon="2.77873">
        <ele>930</ele>
        <time>2013-09-21T13:17:16Z</time>
      </trkpt>
      <trkpt lat="45.68592" lon="2.77863">
        <ele>929</ele>
        <time>2013-09-21T13:17:20Z</time>
      </trkpt>
      <trkpt lat="45.68553" lon="2.77845">
        <ele>929</ele>
        <time>2013-09-21T13:17:26Z</time>
      </trkpt>
      <trkpt lat="45.68504" lon="2.7781">
        <ele>923</ele>
        <time>2013-09-21T13:17:33Z</time>
      </trkpt>
      <trkpt lat="45.68421" lon="2.77757">
        <ele>921</ele>
        <time>2013-09-21T13:17:43Z</time>
      </trkpt>
      <trkpt lat="45.68314" lon="2.77723">
        <ele>918</ele>
        <time>2013-09-21T13:17:56Z</time>
      </trkpt>
      <trkpt lat="45.6827" lon="2.77719">
        <ele>919</ele>
        <time>2013-09-21T13:18:02Z</time>
      </trkpt>
      <trkpt lat="45.68256" lon="2.7772">
        <ele>919</ele>
        <time>2013-09-21T13:18:04Z</time>
      </trkpt>
      <trkpt lat="45.68237" lon="2.77726">
        <ele>920</ele>
        <time>2013-09-21T13:18:07Z</time>
      </trkpt>
      <trkpt lat="45.68213" lon="2.77726">
        <ele>920</ele>
        <time>2013-09-21T13:18:12Z</time>
      </trkpt>
      <trkpt lat="45.68205" lon="2.77722">
        <ele>920</ele>
        <time>2013-09-21T13:18:14Z</time>
      </trkpt>
      <trkpt lat="45.68176" lon="2.77697">
        <ele>919</ele>
        <time>2013-09-21T13:18:19Z</time>
      </trkpt>
      <trkpt lat="45.68166" lon="2.77682">
        <ele>920</ele>
        <time>2013-09-21T13:18:21Z</time>
      </trkpt>
      <trkpt lat="45.68144" lon="2.77625">
        <ele>916</ele>
        <time>2013-09-21T13:18:27Z</time>
      </trkpt>
      <trkpt lat="45.6814" lon="2.77615">
        <ele>915</ele>
        <time>2013-09-21T13:18:28Z</time>
      </trkpt>
      <trkpt lat="45.68119" lon="2.77579">
        <ele>911</ele>
        <time>2013-09-21T13:18:32Z</time>
      </trkpt>
      <trkpt lat="45.68088" lon="2.77543">
        <ele>911</ele>
        <time>2013-09-21T13:18:36Z</time>
      </trkpt>
      <trkpt lat="45.68048" lon="2.7751">
        <ele>910</ele>
        <time>2013-09-21T13:18:41Z</time>
      </trkpt>
      <trkpt lat="45.68027" lon="2.7749">
        <ele>906</ele>
        <time>2013-09-21T13:18:44Z</time>
      </trkpt>
      <trkpt lat="45.67997" lon="2.7747">
        <ele>905</ele>
        <time>2013-09-21T13:18:48Z</time>
      </trkpt>
      <trkpt lat="45.67965" lon="2.77453">
        <ele>905</ele>
        <time>2013-09-21T13:18:52Z</time>
      </trkpt>
      <trkpt lat="45.67924" lon="2.77391">
        <ele>905</ele>
        <time>2013-09-21T13:19:00Z</time>
      </trkpt>
      <trkpt lat="45.67923" lon="2.77384">
        <ele>905</ele>
        <time>2013-09-21T13:19:01Z</time>
      </trkpt>
      <trkpt lat="45.67921" lon="2.77366">
        <ele>906</ele>
        <time>2013-09-21T13:19:05Z</time>
      </trkpt>
      <trkpt lat="45.67936" lon="2.77344">
        <ele>907</ele>
        <time>2013-09-21T13:19:18Z</time>
      </trkpt>
      <trkpt lat="45.67937" lon="2.77339">
        <ele>907</ele>
        <time>2013-09-21T13:19:20Z</time>
      </trkpt>
      <trkpt lat="45.67939" lon="2.77327">
        <ele>908</ele>
        <time>2013-09-21T13:19:25Z</time>
      </trkpt>
      <trkpt lat="45.67934" lon="2.77331">
        <ele>908</ele>
        <time>2013-09-21T13:19:31Z</time>
      </trkpt>
      <trkpt lat="45.67913" lon="2.77364">
        <ele>910</ele>
        <time>2013-09-21T13:19:43Z</time>
      </trkpt>
      <trkpt lat="45.67891" lon="2.77348">
        <ele>911</ele>
        <time>2013-09-21T13:19:55Z</time>
      </trkpt>
      <trkpt lat="45.67861" lon="2.77324">
        <ele>915</ele>
        <time>2013-09-21T13:20:11Z</time>
      </trkpt>
      <trkpt lat="45.67832" lon="2.77308">
        <ele>921</ele>
        <time>2013-09-21T13:20:25Z</time>
      </trkpt>
      <trkpt lat="45.67806" lon="2.77271">
        <ele>923</ele>
        <time>2013-09-21T13:20:42Z</time>
      </trkpt>
      <trkpt lat="45.67791" lon="2.77232">
        <ele>922</ele>
        <time>2013-09-21T13:20:57Z</time>
      </trkpt>
      <trkpt lat="45.67771" lon="2.77198">
        <ele>922</ele>
        <time>2013-09-21T13:21:12Z</time>
      </trkpt>
      <trkpt lat="45.67733" lon="2.77164">
        <ele>924</ele>
        <time>2013-09-21T13:21:28Z</time>
      </trkpt>
      <trkpt lat="45.67689" lon="2.77132">
        <ele>925</ele>
        <time>2013-09-21T13:21:44Z</time>
      </trkpt>
      <trkpt lat="45.67637" lon="2.77109">
        <ele>929</ele>
        <time>2013-09-21T13:22:01Z</time>
      </trkpt>
      <trkpt lat="45.67626" lon="2.77112">
        <ele>930</ele>
        <time>2013-09-21T13:22:05Z</time>
      </trkpt>
      <trkpt lat="45.67615" lon="2.77131">
        <ele>931</ele>
        <time>2013-09-21T13:22:13Z</time>
      </trkpt>
      <trkpt lat="45.67613" lon="2.77161">
        <ele>932</ele>
        <time>2013-09-21T13:22:27Z</time>
      </trkpt>
      <trkpt lat="45.6764" lon="2.77196">
        <ele>937</ele>
        <time>2013-09-21T13:22:47Z</time>
      </trkpt>
      <trkpt lat="45.67666" lon="2.77221">
        <ele>938</ele>
        <time>2013-09-21T13:23:06Z</time>
      </trkpt>
      <trkpt lat="45.67675" lon="2.77254">
        <ele>937</ele>
        <time>2013-09-21T13:23:22Z</time>
      </trkpt>
      <trkpt lat="45.6764" lon="2.77262">
        <ele>941</ele>
        <time>2013-09-21T13:23:39Z</time>
      </trkpt>
      <trkpt lat="45.67585" lon="2.77261">
        <ele>944</ele>
        <time>2013-09-21T13:24:02Z</time>
      </trkpt>
      <trkpt lat="45.67529" lon="2.77258">
        <ele>947</ele>
        <time>2013-09-21T13:24:23Z</time>
      </trkpt>
      <trkpt lat="45.67477" lon="2.77246">
        <ele>949</ele>
        <time>2013-09-21T13:24:41Z</time>
      </trkpt>
      <trkpt lat="45.67431" lon="2.77233">
        <ele>949</ele>
        <time>2013-09-21T13:24:57Z</time>
      </trkpt>
      <trkpt lat="45.67359" lon="2.77222">
        <ele>952</ele>
        <time>2013-09-21T13:25:21Z</time>
      </trkpt>
      <trkpt lat="45.67304" lon="2.77219">
        <ele>955</ele>
        <time>2013-09-21T13:25:41Z</time>
      </trkpt>
      <trkpt lat="45.67248" lon="2.77201">
        <ele>958</ele>
        <time>2013-09-21T13:26:00Z</time>
      </trkpt>
      <trkpt lat="45.67201" lon="2.77182">
        <ele>959</ele>
        <time>2013-09-21T13:26:16Z</time>
      </trkpt>
      <trkpt lat="45.67152" lon="2.77165">
        <ele>959</ele>
        <time>2013-09-21T13:26:31Z</time>
      </trkpt>
      <trkpt lat="45.67101" lon="2.77134">
        <ele>959</ele>
        <time>2013-09-21T13:26:48Z</time>
      </trkpt>
      <trkpt lat="45.6705" lon="2.77106">
        <ele>962</ele>
        <time>2013-09-21T13:27:05Z</time>
      </trkpt>
      <trkpt lat="45.66991" lon="2.77073">
        <ele>962</ele>
        <time>2013-09-21T13:27:23Z</time>
      </trkpt>
      <trkpt lat="45.66926" lon="2.77067">
        <ele>965</ele>
        <time>2013-09-21T13:27:42Z</time>
      </trkpt>
      <trkpt lat="45.66881" lon="2.77062">
        <ele>968</ele>
        <time>2013-09-21T13:27:55Z</time>
      </trkpt>
      <trkpt lat="45.66876" lon="2.77061">
        <ele>968</ele>
        <time>2013-09-21T13:27:56Z</time>
      </trkpt>
      <trkpt lat="45.66856" lon="2.77044">
        <ele>967</ele>
        <time>2013-09-21T13:28:00Z</time>
      </trkpt>
      <trkpt lat="45.66835" lon="2.77025">
        <ele>966</ele>
        <time>2013-09-21T13:28:05Z</time>
      </trkpt>
      <trkpt lat="45.66823" lon="2.77">
        <ele>966</ele>
        <time>2013-09-21T13:28:11Z</time>
      </trkpt>
      <trkpt lat="45.66823" lon="2.76974">
        <ele>966</ele>
        <time>2013-09-21T13:28:20Z</time>
      </trkpt>
      <trkpt lat="45.66823" lon="2.76974">
        <ele>966</ele>
        <time>2013-09-21T13:28:21Z</time>
      </trkpt>
      <trkpt lat="45.66819" lon="2.76965">
        <ele>966</ele>
        <time>2013-09-21T13:28:25Z</time>
      </trkpt>
      <trkpt lat="45.66808" lon="2.76934">
        <ele>966</ele>
        <time>2013-09-21T13:28:30Z</time>
      </trkpt>
      <trkpt lat="45.66774" lon="2.76915">
        <ele>972</ele>
        <time>2013-09-21T13:28:38Z</time>
      </trkpt>
      <trkpt lat="45.66744" lon="2.7692">
        <ele>972</ele>
        <time>2013-09-21T13:28:50Z</time>
      </trkpt>
      <trkpt lat="45.66734" lon="2.76919">
        <ele>972</ele>
        <time>2013-09-21T13:28:56Z</time>
      </trkpt>
      <trkpt lat="45.66714" lon="2.76916">
        <ele>974</ele>
        <time>2013-09-21T13:29:08Z</time>
      </trkpt>
      <trkpt lat="45.66696" lon="2.76912">
        <ele>974</ele>
        <time>2013-09-21T13:29:18Z</time>
      </trkpt>
      <trkpt lat="45.66687" lon="2.76903">
        <ele>974</ele>
        <time>2013-09-21T13:29:27Z</time>
      </trkpt>
      <trkpt lat="45.66683" lon="2.7687">
        <ele>975</ele>
        <time>2013-09-21T13:29:44Z</time>
      </trkpt>
      <trkpt lat="45.6668" lon="2.76835">
        <ele>976</ele>
        <time>2013-09-21T13:30:00Z</time>
      </trkpt>
      <trkpt lat="45.66676" lon="2.76799">
        <ele>979</ele>
        <time>2013-09-21T13:30:16Z</time>
      </trkpt>
      <trkpt lat="45.66659" lon="2.76771">
        <ele>979</ele>
        <time>2013-09-21T13:30:24Z</time>
      </trkpt>
      <trkpt lat="45.66597" lon="2.76708">
        <ele>981</ele>
        <time>2013-09-21T13:30:37Z</time>
      </trkpt>
      <trkpt lat="45.66561" lon="2.7668">
        <ele>979</ele>
        <time>2013-09-21T13:30:43Z</time>
      </trkpt>
      <trkpt lat="45.66527" lon="2.76692">
        <ele>977</ele>
        <time>2013-09-21T13:30:49Z</time>
      </trkpt>
      <trkpt lat="45.66514" lon="2.76722">
        <ele>976</ele>
        <time>2013-09-21T13:30:52Z</time>
      </trkpt>
      <trkpt lat="45.66476" lon="2.76742">
        <ele>974</ele>
        <time>2013-09-21T13:30:58Z</time>
      </trkpt>
      <trkpt lat="45.6643" lon="2.76715">
        <ele>975</ele>
        <time>2013-09-21T13:31:07Z</time>
      </trkpt>
      <trkpt lat="45.66371" lon="2.76705">
        <ele>977</ele>
        <time>2013-09-21T13:31:21Z</time>
      </trkpt>
      <trkpt lat="45.66324" lon="2.76703">
        <ele>980</ele>
        <time>2013-09-21T13:31:36Z</time>
      </trkpt>
      <trkpt lat="45.66272" lon="2.76701">
        <ele>981</ele>
        <time>2013-09-21T13:31:52Z</time>
      </trkpt>
      <trkpt lat="45.66226" lon="2.76708">
        <ele>985</ele>
        <time>2013-09-21T13:32:07Z</time>
      </trkpt>
      <trkpt lat="45.66168" lon="2.76726">
        <ele>986</ele>
        <time>2013-09-21T13:32:24Z</time>
      </trkpt>
      <trkpt lat="45.66119" lon="2.76746">
        <ele>990</ele>
        <time>2013-09-21T13:32:40Z</time>
      </trkpt>
      <trkpt lat="45.66075" lon="2.76781">
        <ele>992</ele>
        <time>2013-09-21T13:32:56Z</time>
      </trkpt>
      <trkpt lat="45.66015" lon="2.76819">
        <ele>994</ele>
        <time>2013-09-21T13:33:17Z</time>
      </trkpt>
      <trkpt lat="45.65964" lon="2.76858">
        <ele>997</ele>
        <time>2013-09-21T13:33:34Z</time>
      </trkpt>
      <trkpt lat="45.65927" lon="2.76907">
        <ele>997</ele>
        <time>2013-09-21T13:33:49Z</time>
      </trkpt>
      <trkpt lat="45.65887" lon="2.76949">
        <ele>999</ele>
        <time>2013-09-21T13:34:05Z</time>
      </trkpt>
      <trkpt lat="45.65864" lon="2.76996">
        <ele>999</ele>
        <time>2013-09-21T13:34:20Z</time>
      </trkpt>
      <trkpt lat="45.65849" lon="2.77034">
        <ele>1002</ele>
        <time>2013-09-21T13:34:38Z</time>
      </trkpt>
      <trkpt lat="45.65845" lon="2.7706">
        <ele>1003</ele>
        <time>2013-09-21T13:34:52Z</time>
      </trkpt>
      <trkpt lat="45.65849" lon="2.77088">
        <ele>1006</ele>
        <time>2013-09-21T13:35:07Z</time>
      </trkpt>
      <trkpt lat="45.65851" lon="2.77117">
        <ele>1007</ele>
        <time>2013-09-21T13:35:22Z</time>
      </trkpt>
      <trkpt lat="45.65855" lon="2.7716">
        <ele>1008</ele>
        <time>2013-09-21T13:35:41Z</time>
      </trkpt>
      <trkpt lat="45.6586" lon="2.77194">
        <ele>1013</ele>
        <time>2013-09-21T13:35:57Z</time>
      </trkpt>
      <trkpt lat="45.65863" lon="2.77234">
        <ele>1015</ele>
        <time>2013-09-21T13:36:16Z</time>
      </trkpt>
      <trkpt lat="45.65866" lon="2.77262">
        <ele>1020</ele>
        <time>2013-09-21T13:36:31Z</time>
      </trkpt>
      <trkpt lat="45.65867" lon="2.77284">
        <ele>1020</ele>
        <time>2013-09-21T13:36:43Z</time>
      </trkpt>
      <trkpt lat="45.65869" lon="2.77313">
        <ele>1021</ele>
        <time>2013-09-21T13:36:58Z</time>
      </trkpt>
      <trkpt lat="45.65875" lon="2.77371">
        <ele>1025</ele>
        <time>2013-09-21T13:37:23Z</time>
      </trkpt>
      <trkpt lat="45.65866" lon="2.77416">
        <ele>1026</ele>
        <time>2013-09-21T13:37:37Z</time>
      </trkpt>
      <trkpt lat="45.65831" lon="2.77412">
        <ele>1028</ele>
        <time>2013-09-21T13:37:52Z</time>
      </trkpt>
      <trkpt lat="45.6579" lon="2.77419">
        <ele>1030</ele>
        <time>2013-09-21T13:38:08Z</time>
      </trkpt>
      <trkpt lat="45.65762" lon="2.77445">
        <ele>1031</ele>
        <time>2013-09-21T13:38:22Z</time>
      </trkpt>
      <trkpt lat="45.65734" lon="2.77481">
        <ele>1035</ele>
        <time>2013-09-21T13:38:38Z</time>
      </trkpt>
      <trkpt lat="45.6569" lon="2.77494">
        <ele>1037</ele>
        <time>2013-09-21T13:38:55Z</time>
      </trkpt>
      <trkpt lat="45.65649" lon="2.77503">
        <ele>1042</ele>
        <time>2013-09-21T13:39:11Z</time>
      </trkpt>
      <trkpt lat="45.65616" lon="2.77528">
        <ele>1045</ele>
        <time>2013-09-21T13:39:25Z</time>
      </trkpt>
      <trkpt lat="45.65591" lon="2.77563">
        <ele>1047</ele>
        <time>2013-09-21T13:39:39Z</time>
      </trkpt>
      <trkpt lat="45.65582" lon="2.77619">
        <ele>1050</ele>
        <time>2013-09-21T13:39:52Z</time>
      </trkpt>
      <trkpt lat="45.65563" lon="2.77702">
        <ele>1047</ele>
        <time>2013-09-21T13:40:11Z</time>
      </trkpt>
      <trkpt lat="45.65533" lon="2.77742">
        <ele>1049</ele>
        <time>2013-09-21T13:40:25Z</time>
      </trkpt>
      <trkpt lat="45.65512" lon="2.77793">
        <ele>1049</ele>
        <time>2013-09-21T13:40:38Z</time>
      </trkpt>
      <trkpt lat="45.65495" lon="2.77878">
        <ele>1050</ele>
        <time>2013-09-21T13:40:56Z</time>
      </trkpt>
      <trkpt lat="45.65478" lon="2.77933">
        <ele>1048</ele>
        <time>2013-09-21T13:41:07Z</time>
      </trkpt>
      <trkpt lat="45.65472" lon="2.77958">
        <ele>1048</ele>
        <time>2013-09-21T13:41:11Z</time>
      </trkpt>
      <trkpt lat="45.65474" lon="2.77986">
        <ele>1047</ele>
        <time>2013-09-21T13:41:15Z</time>
      </trkpt>
      <trkpt lat="45.6548" lon="2.78012">
        <ele>1044</ele>
        <time>2013-09-21T13:41:18Z</time>
      </trkpt>
      <trkpt lat="45.65482" lon="2.78069">
        <ele>1042</ele>
        <time>2013-09-21T13:41:22Z</time>
      </trkpt>
      <trkpt lat="45.65479" lon="2.781">
        <ele>1039</ele>
        <time>2013-09-21T13:41:24Z</time>
      </trkpt>
      <trkpt lat="45.65478" lon="2.78116">
        <ele>1038</ele>
        <time>2013-09-21T13:41:25Z</time>
      </trkpt>
      <trkpt lat="45.65479" lon="2.78147">
        <ele>1037</ele>
        <time>2013-09-21T13:41:27Z</time>
      </trkpt>
      <trkpt lat="45.6548" lon="2.7816">
        <ele>1037</ele>
        <time>2013-09-21T13:41:28Z</time>
      </trkpt>
      <trkpt lat="45.65482" lon="2.78179">
        <ele>1033</ele>
        <time>2013-09-21T13:41:30Z</time>
      </trkpt>
      <trkpt lat="45.65478" lon="2.78202">
        <ele>1032</ele>
        <time>2013-09-21T13:41:34Z</time>
      </trkpt>
      <trkpt lat="45.65461" lon="2.7822">
        <ele>1030</ele>
        <time>2013-09-21T13:41:39Z</time>
      </trkpt>
      <trkpt lat="45.65444" lon="2.78257">
        <ele>1023</ele>
        <time>2013-09-21T13:41:46Z</time>
      </trkpt>
      <trkpt lat="45.65431" lon="2.78257">
        <ele>1022</ele>
        <time>2013-09-21T13:41:50Z</time>
      </trkpt>
      <trkpt lat="45.65409" lon="2.78238">
        <ele>1023</ele>
        <time>2013-09-21T13:41:55Z</time>
      </trkpt>
      <trkpt lat="45.6539" lon="2.78234">
        <ele>1023</ele>
        <time>2013-09-21T13:41:58Z</time>
      </trkpt>
      <trkpt lat="45.65379" lon="2.78234">
        <ele>1022</ele>
        <time>2013-09-21T13:42:00Z</time>
      </trkpt>
      <trkpt lat="45.65374" lon="2.78235">
        <ele>1022</ele>
        <time>2013-09-21T13:42:01Z</time>
      </trkpt>
      <trkpt lat="45.65368" lon="2.7827">
        <ele>1014</ele>
        <time>2013-09-21T13:42:06Z</time>
      </trkpt>
      <trkpt lat="45.6536" lon="2.7834">
        <ele>1005</ele>
        <time>2013-09-21T13:42:12Z</time>
      </trkpt>
      <trkpt lat="45.65353" lon="2.7837">
        <ele>1005</ele>
        <time>2013-09-21T13:42:15Z</time>
      </trkpt>
      <trkpt lat="45.65325" lon="2.7839">
        <ele>1003</ele>
        <time>2013-09-21T13:42:19Z</time>
      </trkpt>
      <trkpt lat="45.65299" lon="2.78401">
        <ele>1002</ele>
        <time>2013-09-21T13:42:23Z</time>
      </trkpt>
      <trkpt lat="45.65287" lon="2.78422">
        <ele>1002</ele>
        <time>2013-09-21T13:42:27Z</time>
      </trkpt>
      <trkpt lat="45.65277" lon="2.78473">
        <ele>1003</ele>
        <time>2013-09-21T13:42:40Z</time>
      </trkpt>
      <trkpt lat="45.65266" lon="2.78511">
        <ele>1004</ele>
        <time>2013-09-21T13:42:55Z</time>
      </trkpt>
      <trkpt lat="45.65252" lon="2.78563">
        <ele>1005</ele>
        <time>2013-09-21T13:43:13Z</time>
      </trkpt>
      <trkpt lat="45.65228" lon="2.78619">
        <ele>1009</ele>
        <time>2013-09-21T13:43:30Z</time>
      </trkpt>
      <trkpt lat="45.6519" lon="2.78673">
        <ele>1010</ele>
        <time>2013-09-21T13:43:48Z</time>
      </trkpt>
      <trkpt lat="45.65163" lon="2.78721">
        <ele>1015</ele>
        <time>2013-09-21T13:44:02Z</time>
      </trkpt>
      <trkpt lat="45.65134" lon="2.78759">
        <ele>1010</ele>
        <time>2013-09-21T13:44:16Z</time>
      </trkpt>
      <trkpt lat="45.65095" lon="2.78791">
        <ele>1010</ele>
        <time>2013-09-21T13:44:29Z</time>
      </trkpt>
      <trkpt lat="45.65051" lon="2.78825">
        <ele>1018</ele>
        <time>2013-09-21T13:44:42Z</time>
      </trkpt>
      <trkpt lat="45.65016" lon="2.78888">
        <ele>1010</ele>
        <time>2013-09-21T13:44:57Z</time>
      </trkpt>
      <trkpt lat="45.65011" lon="2.78902">
        <ele>1010</ele>
        <time>2013-09-21T13:45:00Z</time>
      </trkpt>
      <trkpt lat="45.64988" lon="2.78976">
        <ele>1010</ele>
        <time>2013-09-21T13:45:14Z</time>
      </trkpt>
      <trkpt lat="45.64962" lon="2.7902">
        <ele>1003</ele>
        <time>2013-09-21T13:45:23Z</time>
      </trkpt>
      <trkpt lat="45.64944" lon="2.79054">
        <ele>1001</ele>
        <time>2013-09-21T13:45:29Z</time>
      </trkpt>
      <trkpt lat="45.64926" lon="2.7907">
        <ele>1000</ele>
        <time>2013-09-21T13:45:33Z</time>
      </trkpt>
      <trkpt lat="45.64906" lon="2.79084">
        <ele>996</ele>
        <time>2013-09-21T13:45:37Z</time>
      </trkpt>
      <trkpt lat="45.64883" lon="2.79092">
        <ele>995</ele>
        <time>2013-09-21T13:45:41Z</time>
      </trkpt>
      <trkpt lat="45.64845" lon="2.79095">
        <ele>998</ele>
        <time>2013-09-21T13:45:47Z</time>
      </trkpt>
      <trkpt lat="45.64804" lon="2.79112">
        <ele>997</ele>
        <time>2013-09-21T13:45:53Z</time>
      </trkpt>
      <trkpt lat="45.6476" lon="2.79144">
        <ele>994</ele>
        <time>2013-09-21T13:45:59Z</time>
      </trkpt>
      <trkpt lat="45.64743" lon="2.79155">
        <ele>995</ele>
        <time>2013-09-21T13:46:01Z</time>
      </trkpt>
      <trkpt lat="45.64715" lon="2.79187">
        <ele>988</ele>
        <time>2013-09-21T13:46:05Z</time>
      </trkpt>
      <trkpt lat="45.64696" lon="2.79218">
        <ele>987</ele>
        <time>2013-09-21T13:46:08Z</time>
      </trkpt>
      <trkpt lat="45.64675" lon="2.79245">
        <ele>985</ele>
        <time>2013-09-21T13:46:11Z</time>
      </trkpt>
      <trkpt lat="45.64667" lon="2.79261">
        <ele>983</ele>
        <time>2013-09-21T13:46:13Z</time>
      </trkpt>
      <trkpt lat="45.64674" lon="2.79285">
        <ele>982</ele>
        <time>2013-09-21T13:46:16Z</time>
      </trkpt>
      <trkpt lat="45.64697" lon="2.7931">
        <ele>981</ele>
        <time>2013-09-21T13:46:20Z</time>
      </trkpt>
      <trkpt lat="45.64712" lon="2.79354">
        <ele>979</ele>
        <time>2013-09-21T13:46:25Z</time>
      </trkpt>
      <trkpt lat="45.64706" lon="2.79435">
        <ele>977</ele>
        <time>2013-09-21T13:46:33Z</time>
      </trkpt>
      <trkpt lat="45.64716" lon="2.79493">
        <ele>977</ele>
        <time>2013-09-21T13:46:39Z</time>
      </trkpt>
      <trkpt lat="45.6471" lon="2.7958">
        <ele>979</ele>
        <time>2013-09-21T13:46:48Z</time>
      </trkpt>
      <trkpt lat="45.64698" lon="2.79602">
        <ele>982</ele>
        <time>2013-09-21T13:46:51Z</time>
      </trkpt>
      <trkpt lat="45.64691" lon="2.7967">
        <ele>985</ele>
        <time>2013-09-21T13:47:02Z</time>
      </trkpt>
      <trkpt lat="45.64696" lon="2.79714">
        <ele>985</ele>
        <time>2013-09-21T13:47:15Z</time>
      </trkpt>
      <trkpt lat="45.64706" lon="2.79763">
        <ele>987</ele>
        <time>2013-09-21T13:47:31Z</time>
      </trkpt>
      <trkpt lat="45.6474" lon="2.79794">
        <ele>988</ele>
        <time>2013-09-21T13:47:48Z</time>
      </trkpt>
      <trkpt lat="45.64768" lon="2.79804">
        <ele>990</ele>
        <time>2013-09-21T13:48:01Z</time>
      </trkpt>
      <trkpt lat="45.64812" lon="2.79802">
        <ele>991</ele>
        <time>2013-09-21T13:48:17Z</time>
      </trkpt>
      <trkpt lat="45.64869" lon="2.79789">
        <ele>991</ele>
        <time>2013-09-21T13:48:31Z</time>
      </trkpt>
      <trkpt lat="45.64938" lon="2.79794">
        <ele>988</ele>
        <time>2013-09-21T13:48:44Z</time>
      </trkpt>
      <trkpt lat="45.64983" lon="2.79807">
        <ele>987</ele>
        <time>2013-09-21T13:48:52Z</time>
      </trkpt>
      <trkpt lat="45.64994" lon="2.7983">
        <ele>984</ele>
        <time>2013-09-21T13:48:58Z</time>
      </trkpt>
      <trkpt lat="45.64973" lon="2.79886">
        <ele>988</ele>
        <time>2013-09-21T13:49:14Z</time>
      </trkpt>
      <trkpt lat="45.64955" lon="2.79908">
        <ele>989</ele>
        <time>2013-09-21T13:49:27Z</time>
      </trkpt>
      <trkpt lat="45.64934" lon="2.7993">
        <ele>994</ele>
        <time>2013-09-21T13:49:44Z</time>
      </trkpt>
      <trkpt lat="45.64912" lon="2.7995">
        <ele>997</ele>
        <time>2013-09-21T13:50:03Z</time>
      </trkpt>
      <trkpt lat="45.64894" lon="2.7997">
        <ele>998</ele>
        <time>2013-09-21T13:50:19Z</time>
      </trkpt>
      <trkpt lat="45.64873" lon="2.79994">
        <ele>999</ele>
        <time>2013-09-21T13:50:36Z</time>
      </trkpt>
      <trkpt lat="45.64856" lon="2.80015">
        <ele>1005</ele>
        <time>2013-09-21T13:50:50Z</time>
      </trkpt>
      <trkpt lat="45.64836" lon="2.8004">
        <ele>1006</ele>
        <time>2013-09-21T13:51:09Z</time>
      </trkpt>
      <trkpt lat="45.64817" lon="2.80063">
        <ele>1010</ele>
        <time>2013-09-21T13:51:28Z</time>
      </trkpt>
      <trkpt lat="45.648" lon="2.80083">
        <ele>1011</ele>
        <time>2013-09-21T13:51:42Z</time>
      </trkpt>
      <trkpt lat="45.64787" lon="2.80098">
        <ele>1018</ele>
        <time>2013-09-21T13:51:53Z</time>
      </trkpt>
      <trkpt lat="45.64781" lon="2.80103">
        <ele>1018</ele>
        <time>2013-09-21T13:51:58Z</time>
      </trkpt>
      <trkpt lat="45.64759" lon="2.80114">
        <ele>1019</ele>
        <time>2013-09-21T13:52:11Z</time>
      </trkpt>
      <trkpt lat="45.64752" lon="2.80131">
        <ele>1020</ele>
        <time>2013-09-21T13:52:21Z</time>
      </trkpt>
      <trkpt lat="45.64756" lon="2.80164">
        <ele>1024</ele>
        <time>2013-09-21T13:52:37Z</time>
      </trkpt>
      <trkpt lat="45.64766" lon="2.80202">
        <ele>1030</ele>
        <time>2013-09-21T13:52:52Z</time>
      </trkpt>
      <trkpt lat="45.64769" lon="2.80211">
        <ele>1030</ele>
        <time>2013-09-21T13:52:56Z</time>
      </trkpt>
      <trkpt lat="45.64759" lon="2.80234">
        <ele>1033</ele>
        <time>2013-09-21T13:53:12Z</time>
      </trkpt>
      <trkpt lat="45.64739" lon="2.80245">
        <ele>1034</ele>
        <time>2013-09-21T13:53:27Z</time>
      </trkpt>
      <trkpt lat="45.6472" lon="2.8026">
        <ele>1039</ele>
        <time>2013-09-21T13:53:42Z</time>
      </trkpt>
      <trkpt lat="45.64704" lon="2.80274">
        <ele>1040</ele>
        <time>2013-09-21T13:53:55Z</time>
      </trkpt>
      <trkpt lat="45.64685" lon="2.80288">
        <ele>1041</ele>
        <time>2013-09-21T13:54:06Z</time>
      </trkpt>
      <trkpt lat="45.64669" lon="2.80305">
        <ele>1042</ele>
        <time>2013-09-21T13:54:20Z</time>
      </trkpt>
      <trkpt lat="45.64653" lon="2.80334">
        <ele>1048</ele>
        <time>2013-09-21T13:54:36Z</time>
      </trkpt>
      <trkpt lat="45.6464" lon="2.80353">
        <ele>1049</ele>
        <time>2013-09-21T13:54:49Z</time>
      </trkpt>
      <trkpt lat="45.64633" lon="2.80361">
        <ele>1050</ele>
        <time>2013-09-21T13:54:55Z</time>
      </trkpt>
      <trkpt lat="45.64626" lon="2.80365">
        <ele>1050</ele>
        <time>2013-09-21T13:55:00Z</time>
      </trkpt>
      <trkpt lat="45.64599" lon="2.8038">
        <ele>1051</ele>
        <time>2013-09-21T13:55:18Z</time>
      </trkpt>
      <trkpt lat="45.64576" lon="2.80393">
        <ele>1055</ele>
        <time>2013-09-21T13:55:34Z</time>
      </trkpt>
      <trkpt lat="45.64549" lon="2.80408">
        <ele>1056</ele>
        <time>2013-09-21T13:55:51Z</time>
      </trkpt>
      <trkpt lat="45.64521" lon="2.80424">
        <ele>1060</ele>
        <time>2013-09-21T13:56:07Z</time>
      </trkpt>
      <trkpt lat="45.64494" lon="2.80429">
        <ele>1064</ele>
        <time>2013-09-21T13:56:22Z</time>
      </trkpt>
      <trkpt lat="45.64465" lon="2.8043">
        <ele>1067</ele>
        <time>2013-09-21T13:56:39Z</time>
      </trkpt>
      <trkpt lat="45.64446" lon="2.8042">
        <ele>1069</ele>
        <time>2013-09-21T13:56:53Z</time>
      </trkpt>
      <trkpt lat="45.64425" lon="2.80385">
        <ele>1065</ele>
        <time>2013-09-21T13:57:12Z</time>
      </trkpt>
      <trkpt lat="45.64397" lon="2.80371">
        <ele>1073</ele>
        <time>2013-09-21T13:57:28Z</time>
      </trkpt>
      <trkpt lat="45.64366" lon="2.80361">
        <ele>1076</ele>
        <time>2013-09-21T13:57:45Z</time>
      </trkpt>
      <trkpt lat="45.64337" lon="2.80354">
        <ele>1077</ele>
        <time>2013-09-21T13:58:02Z</time>
      </trkpt>
      <trkpt lat="45.64308" lon="2.80345">
        <ele>1087</ele>
        <time>2013-09-21T13:58:18Z</time>
      </trkpt>
      <trkpt lat="45.64281" lon="2.8034">
        <ele>1090</ele>
        <time>2013-09-21T13:58:33Z</time>
      </trkpt>
      <trkpt lat="45.64251" lon="2.80343">
        <ele>1090</ele>
        <time>2013-09-21T13:58:50Z</time>
      </trkpt>
      <trkpt lat="45.64223" lon="2.80346">
        <ele>1098</ele>
        <time>2013-09-21T13:59:04Z</time>
      </trkpt>
      <trkpt lat="45.64198" lon="2.8035">
        <ele>1100</ele>
        <time>2013-09-21T13:59:18Z</time>
      </trkpt>
      <trkpt lat="45.64161" lon="2.80354">
        <ele>1100</ele>
        <time>2013-09-21T13:59:37Z</time>
      </trkpt>
      <trkpt lat="45.64126" lon="2.80352">
        <ele>1101</ele>
        <time>2013-09-21T13:59:52Z</time>
      </trkpt>
      <trkpt lat="45.64098" lon="2.80357">
        <ele>1099</ele>
        <time>2013-09-21T14:00:05Z</time>
      </trkpt>
      <trkpt lat="45.64056" lon="2.80372">
        <ele>1099</ele>
        <time>2013-09-21T14:00:23Z</time>
      </trkpt>
      <trkpt lat="45.64022" lon="2.80384">
        <ele>1099</ele>
        <time>2013-09-21T14:00:38Z</time>
      </trkpt>
      <trkpt lat="45.63989" lon="2.80408">
        <ele>1098</ele>
        <time>2013-09-21T14:00:56Z</time>
      </trkpt>
      <trkpt lat="45.63961" lon="2.80439">
        <ele>1108</ele>
        <time>2013-09-21T14:01:12Z</time>
      </trkpt>
      <trkpt lat="45.63937" lon="2.80473">
        <ele>1110</ele>
        <time>2013-09-21T14:01:27Z</time>
      </trkpt>
      <trkpt lat="45.63905" lon="2.80495">
        <ele>1107</ele>
        <time>2013-09-21T14:01:42Z</time>
      </trkpt>
      <trkpt lat="45.63873" lon="2.80504">
        <ele>1111</ele>
        <time>2013-09-21T14:01:57Z</time>
      </trkpt>
      <trkpt lat="45.63846" lon="2.80539">
        <ele>1111</ele>
        <time>2013-09-21T14:02:13Z</time>
      </trkpt>
      <trkpt lat="45.63812" lon="2.80559">
        <ele>1110</ele>
        <time>2013-09-21T14:02:28Z</time>
      </trkpt>
      <trkpt lat="45.63779" lon="2.80564">
        <ele>1110</ele>
        <time>2013-09-21T14:02:44Z</time>
      </trkpt>
      <trkpt lat="45.6375" lon="2.80577">
        <ele>1113</ele>
        <time>2013-09-21T14:02:59Z</time>
      </trkpt>
      <trkpt lat="45.63735" lon="2.80608">
        <ele>1114</ele>
        <time>2013-09-21T14:03:12Z</time>
      </trkpt>
      <trkpt lat="45.6371" lon="2.80658">
        <ele>1116</ele>
        <time>2013-09-21T14:03:29Z</time>
      </trkpt>
      <trkpt lat="45.63686" lon="2.80674">
        <ele>1121</ele>
        <time>2013-09-21T14:03:43Z</time>
      </trkpt>
      <trkpt lat="45.63656" lon="2.80682">
        <ele>1123</ele>
        <time>2013-09-21T14:03:58Z</time>
      </trkpt>
      <trkpt lat="45.63632" lon="2.80693">
        <ele>1124</ele>
        <time>2013-09-21T14:04:14Z</time>
      </trkpt>
      <trkpt lat="45.63593" lon="2.80713">
        <ele>1126</ele>
        <time>2013-09-21T14:04:31Z</time>
      </trkpt>
      <trkpt lat="45.63549" lon="2.80721">
        <ele>1124</ele>
        <time>2013-09-21T14:04:46Z</time>
      </trkpt>
      <trkpt lat="45.63507" lon="2.80737">
        <ele>1126</ele>
        <time>2013-09-21T14:05:04Z</time>
      </trkpt>
      <trkpt lat="45.63465" lon="2.8075">
        <ele>1123</ele>
        <time>2013-09-21T14:05:19Z</time>
      </trkpt>
      <trkpt lat="45.63407" lon="2.80778">
        <ele>1129</ele>
        <time>2013-09-21T14:05:34Z</time>
      </trkpt>
      <trkpt lat="45.63397" lon="2.80782">
        <ele>1129</ele>
        <time>2013-09-21T14:05:36Z</time>
      </trkpt>
      <trkpt lat="45.63367" lon="2.80799">
        <ele>1129</ele>
        <time>2013-09-21T14:05:42Z</time>
      </trkpt>
      <trkpt lat="45.63293" lon="2.80834">
        <ele>1129</ele>
        <time>2013-09-21T14:05:53Z</time>
      </trkpt>
      <trkpt lat="45.63226" lon="2.8087">
        <ele>1126</ele>
        <time>2013-09-21T14:06:02Z</time>
      </trkpt>
      <trkpt lat="45.63206" lon="2.80881">
        <ele>1126</ele>
        <time>2013-09-21T14:06:05Z</time>
      </trkpt>
      <trkpt lat="45.63122" lon="2.8093">
        <ele>1126</ele>
        <time>2013-09-21T14:06:18Z</time>
      </trkpt>
      <trkpt lat="45.63037" lon="2.80971">
        <ele>1124</ele>
        <time>2013-09-21T14:06:33Z</time>
      </trkpt>
      <trkpt lat="45.63005" lon="2.80978">
        <ele>1126</ele>
        <time>2013-09-21T14:06:40Z</time>
      </trkpt>
      <trkpt lat="45.62996" lon="2.80971">
        <ele>1126</ele>
        <time>2013-09-21T14:06:44Z</time>
      </trkpt>
      <trkpt lat="45.62982" lon="2.80957">
        <ele>1124</ele>
        <time>2013-09-21T14:06:50Z</time>
      </trkpt>
      <trkpt lat="45.62977" lon="2.80953">
        <ele>1124</ele>
        <time>2013-09-21T14:06:58Z</time>
      </trkpt>
      <trkpt lat="45.62972" lon="2.80954">
        <ele>1124</ele>
        <time>2013-09-21T14:07:02Z</time>
      </trkpt>
      <trkpt lat="45.62954" lon="2.80962">
        <ele>1125</ele>
        <time>2013-09-21T14:07:15Z</time>
      </trkpt>
      <trkpt lat="45.62952" lon="2.80962">
        <ele>1125</ele>
        <time>2013-09-21T14:07:16Z</time>
      </trkpt>
      <trkpt lat="45.62936" lon="2.80971">
        <ele>1127</ele>
        <time>2013-09-21T14:07:27Z</time>
      </trkpt>
      <trkpt lat="45.62932" lon="2.80974">
        <ele>1127</ele>
        <time>2013-09-21T14:07:30Z</time>
      </trkpt>
      <trkpt lat="45.62915" lon="2.80985">
        <ele>1131</ele>
        <time>2013-09-21T14:07:39Z</time>
      </trkpt>
      <trkpt lat="45.62888" lon="2.81005">
        <ele>1138</ele>
        <time>2013-09-21T14:07:53Z</time>
      </trkpt>
      <trkpt lat="45.62866" lon="2.81041">
        <ele>1140</ele>
        <time>2013-09-21T14:08:08Z</time>
      </trkpt>
      <trkpt lat="45.62851" lon="2.81074">
        <ele>1141</ele>
        <time>2013-09-21T14:08:23Z</time>
      </trkpt>
      <trkpt lat="45.62835" lon="2.81096">
        <ele>1146</ele>
        <time>2013-09-21T14:08:36Z</time>
      </trkpt>
      <trkpt lat="45.62818" lon="2.81122">
        <ele>1146</ele>
        <time>2013-09-21T14:08:50Z</time>
      </trkpt>
      <trkpt lat="45.62808" lon="2.81154">
        <ele>1149</ele>
        <time>2013-09-21T14:09:06Z</time>
      </trkpt>
      <trkpt lat="45.62798" lon="2.81178">
        <ele>1155</ele>
        <time>2013-09-21T14:09:23Z</time>
      </trkpt>
      <trkpt lat="45.62796" lon="2.81191">
        <ele>1155</ele>
        <time>2013-09-21T14:09:39Z</time>
      </trkpt>
      <trkpt lat="45.62796" lon="2.81198">
        <ele>1155</ele>
        <time>2013-09-21T14:09:49Z</time>
      </trkpt>
      <trkpt lat="45.62794" lon="2.81208">
        <ele>1156</ele>
        <time>2013-09-21T14:09:55Z</time>
      </trkpt>
      <trkpt lat="45.62789" lon="2.81239">
        <ele>1157</ele>
        <time>2013-09-21T14:10:11Z</time>
      </trkpt>
      <trkpt lat="45.62775" lon="2.81263">
        <ele>1163</ele>
        <time>2013-09-21T14:10:24Z</time>
      </trkpt>
      <trkpt lat="45.6276" lon="2.81278">
        <ele>1164</ele>
        <time>2013-09-21T14:10:40Z</time>
      </trkpt>
      <trkpt lat="45.62754" lon="2.81296">
        <ele>1166</ele>
        <time>2013-09-21T14:10:56Z</time>
      </trkpt>
      <trkpt lat="45.62772" lon="2.81314">
        <ele>1168</ele>
        <time>2013-09-21T14:11:12Z</time>
      </trkpt>
      <trkpt lat="45.62792" lon="2.81328">
        <ele>1168</ele>
        <time>2013-09-21T14:11:27Z</time>
      </trkpt>
      <trkpt lat="45.62799" lon="2.81339">
        <ele>1169</ele>
        <time>2013-09-21T14:11:34Z</time>
      </trkpt>
      <trkpt lat="45.62789" lon="2.81358">
        <ele>1170</ele>
        <time>2013-09-21T14:11:50Z</time>
      </trkpt>
      <trkpt lat="45.62782" lon="2.81371">
        <ele>1170</ele>
        <time>2013-09-21T14:12:00Z</time>
      </trkpt>
      <trkpt lat="45.62766" lon="2.81376">
        <ele>1171</ele>
        <time>2013-09-21T14:12:14Z</time>
      </trkpt>
      <trkpt lat="45.62758" lon="2.81374">
        <ele>1171</ele>
        <time>2013-09-21T14:12:26Z</time>
      </trkpt>
      <trkpt lat="45.62751" lon="2.81372">
        <ele>1171</ele>
        <time>2013-09-21T14:12:42Z</time>
      </trkpt>
      <trkpt lat="45.62737" lon="2.81369">
        <ele>1182</ele>
        <time>2013-09-21T14:12:55Z</time>
      </trkpt>
      <trkpt lat="45.62735" lon="2.81369">
        <ele>1182</ele>
        <time>2013-09-21T14:12:57Z</time>
      </trkpt>
      <trkpt lat="45.62729" lon="2.81369">
        <ele>1183</ele>
        <time>2013-09-21T14:13:13Z</time>
      </trkpt>
      <trkpt lat="45.62719" lon="2.81368">
        <ele>1184</ele>
        <time>2013-09-21T14:13:20Z</time>
      </trkpt>
      <trkpt lat="45.62697" lon="2.81362">
        <ele>1186</ele>
        <time>2013-09-21T14:13:36Z</time>
      </trkpt>
      <trkpt lat="45.62681" lon="2.81356">
        <ele>1187</ele>
        <time>2013-09-21T14:13:53Z</time>
      </trkpt>
      <trkpt lat="45.62666" lon="2.81355">
        <ele>1196</ele>
        <time>2013-09-21T14:14:09Z</time>
      </trkpt>
      <trkpt lat="45.62655" lon="2.81354">
        <ele>1197</ele>
        <time>2013-09-21T14:14:25Z</time>
      </trkpt>
      <trkpt lat="45.62641" lon="2.8135">
        <ele>1198</ele>
        <time>2013-09-21T14:14:42Z</time>
      </trkpt>
      <trkpt lat="45.62641" lon="2.8135">
        <ele>1198</ele>
        <time>2013-09-21T14:15:01Z</time>
      </trkpt>
      <trkpt lat="45.62641" lon="2.8135">
        <ele>1198</ele>
        <time>2013-09-21T14:15:25Z</time>
      </trkpt>
      <trkpt lat="45.62641" lon="2.8135">
        <ele>1198</ele>
        <time>2013-09-21T14:15:30Z</time>
      </trkpt>
      <trkpt lat="45.62641" lon="2.8135">
        <ele>1198</ele>
        <time>2013-09-21T14:15:33Z</time>
      </trkpt>
      <trkpt lat="45.62641" lon="2.8135">
        <ele>1198</ele>
        <time>2013-09-21T14:16:01Z</time>
      </trkpt>
      <trkpt lat="45.62641" lon="2.8135">
        <ele>1198</ele>
        <time>2013-09-21T14:16:43Z</time>
      </trkpt>
      <trkpt lat="45.62641" lon="2.8135">
        <ele>1198</ele>
        <time>2013-09-21T14:17:22Z</time>
      </trkpt>
      <trkpt lat="45.6264" lon="2.8135">
        <ele>1199</ele>
        <time>2013-09-21T14:17:59Z</time>
      </trkpt>
      <trkpt lat="45.6264" lon="2.8135">
        <ele>1199</ele>
        <time>2013-09-21T14:18:36Z</time>
      </trkpt>
      <trkpt lat="45.6264" lon="2.81351">
        <ele>1199</ele>
        <time>2013-09-21T14:19:09Z</time>
      </trkpt>
      <trkpt lat="45.6264" lon="2.81351">
        <ele>1199</ele>
        <time>2013-09-21T14:19:46Z</time>
      </trkpt>
      <trkpt lat="45.6264" lon="2.81351">
        <ele>1199</ele>
        <time>2013-09-21T14:20:16Z</time>
      </trkpt>
      <trkpt lat="45.6264" lon="2.81351">
        <ele>1199</ele>
        <time>2013-09-21T14:20:36Z</time>
      </trkpt>
      <trkpt lat="45.6264" lon="2.81351">
        <ele>1199</ele>
        <time>2013-09-21T14:21:13Z</time>
      </trkpt>
      <trkpt lat="45.6264" lon="2.81351">
        <ele>1199</ele>
        <time>2013-09-21T14:21:51Z</time>
      </trkpt>
      <trkpt lat="45.62639" lon="2.8135">
        <ele>1199</ele>
        <time>2013-09-21T14:22:29Z</time>
      </trkpt>
      <trkpt lat="45.6264" lon="2.8135">
        <ele>1199</ele>
        <time>2013-09-21T14:23:06Z</time>
      </trkpt>
      <trkpt lat="45.62639" lon="2.81351">
        <ele>1199</ele>
        <time>2013-09-21T14:23:35Z</time>
      </trkpt>
      <trkpt lat="45.62639" lon="2.8135">
        <ele>1199</ele>
        <time>2013-09-21T14:23:52Z</time>
      </trkpt>
      <trkpt lat="45.62639" lon="2.8135">
        <ele>1199</ele>
        <time>2013-09-21T14:24:09Z</time>
      </trkpt>
      <trkpt lat="45.62639" lon="2.8135">
        <ele>1199</ele>
        <time>2013-09-21T14:24:24Z</time>
      </trkpt>
      <trkpt lat="45.62639" lon="2.8135">
        <ele>1199</ele>
        <time>2013-09-21T14:24:47Z</time>
      </trkpt>
      <trkpt lat="45.62639" lon="2.8135">
        <ele>1199</ele>
        <time>2013-09-21T14:25:18Z</time>
      </trkpt>
      <trkpt lat="45.62639" lon="2.8135">
        <ele>1199</ele>
        <time>2013-09-21T14:25:52Z</time>
      </trkpt>
      <trkpt lat="45.62639" lon="2.81351">
        <ele>1199</ele>
        <time>2013-09-21T14:26:12Z</time>
      </trkpt>
      <trkpt lat="45.62639" lon="2.81351">
        <ele>1199</ele>
        <time>2013-09-21T14:26:25Z</time>
      </trkpt>
      <trkpt lat="45.62639" lon="2.81351">
        <ele>1199</ele>
        <time>2013-09-21T14:26:48Z</time>
      </trkpt>
      <trkpt lat="45.62637" lon="2.81351">
        <ele>1199</ele>
        <time>2013-09-21T14:27:05Z</time>
      </trkpt>
      <trkpt lat="45.62636" lon="2.81351">
        <ele>1199</ele>
        <time>2013-09-21T14:27:10Z</time>
      </trkpt>
      <trkpt lat="45.62631" lon="2.81352">
        <ele>1200</ele>
        <time>2013-09-21T14:27:26Z</time>
      </trkpt>
      <trkpt lat="45.62629" lon="2.81354">
        <ele>1200</ele>
        <time>2013-09-21T14:27:28Z</time>
      </trkpt>
      <trkpt lat="45.62599" lon="2.81362">
        <ele>1203</ele>
        <time>2013-09-21T14:27:43Z</time>
      </trkpt>
      <trkpt lat="45.62585" lon="2.81395">
        <ele>1208</ele>
        <time>2013-09-21T14:27:58Z</time>
      </trkpt>
      <trkpt lat="45.62587" lon="2.81416">
        <ele>1214</ele>
        <time>2013-09-21T14:28:14Z</time>
      </trkpt>
      <trkpt lat="45.62596" lon="2.81441">
        <ele>1214</ele>
        <time>2013-09-21T14:28:29Z</time>
      </trkpt>
      <trkpt lat="45.62606" lon="2.81455">
        <ele>1214</ele>
        <time>2013-09-21T14:28:39Z</time>
      </trkpt>
      <trkpt lat="45.62624" lon="2.81482">
        <ele>1212</ele>
        <time>2013-09-21T14:28:57Z</time>
      </trkpt>
      <trkpt lat="45.62626" lon="2.81492">
        <ele>1212</ele>
        <time>2013-09-21T14:29:04Z</time>
      </trkpt>
      <trkpt lat="45.62616" lon="2.81495">
        <ele>1215</ele>
        <time>2013-09-21T14:29:16Z</time>
      </trkpt>
      <trkpt lat="45.62613" lon="2.81493">
        <ele>1216</ele>
        <time>2013-09-21T14:29:20Z</time>
      </trkpt>
      <trkpt lat="45.62602" lon="2.81492">
        <ele>1219</ele>
        <time>2013-09-21T14:29:33Z</time>
      </trkpt>
      <trkpt lat="45.62587" lon="2.81483">
        <ele>1221</ele>
        <time>2013-09-21T14:29:47Z</time>
      </trkpt>
      <trkpt lat="45.62586" lon="2.81484">
        <ele>1221</ele>
        <time>2013-09-21T14:29:53Z</time>
      </trkpt>
      <trkpt lat="45.62582" lon="2.81483">
        <ele>1230</ele>
        <time>2013-09-21T14:29:56Z</time>
      </trkpt>
      <trkpt lat="45.62579" lon="2.81481">
        <ele>1230</ele>
        <time>2013-09-21T14:29:59Z</time>
      </trkpt>
      <trkpt lat="45.62561" lon="2.81472">
        <ele>1230</ele>
        <time>2013-09-21T14:30:16Z</time>
      </trkpt>
      <trkpt lat="45.62549" lon="2.81468">
        <ele>1231</ele>
        <time>2013-09-21T14:30:32Z</time>
      </trkpt>
      <trkpt lat="45.62549" lon="2.81468">
        <ele>1231</ele>
        <time>2013-09-21T14:30:35Z</time>
      </trkpt>
      <trkpt lat="45.62536" lon="2.81471">
        <ele>1232</ele>
        <time>2013-09-21T14:30:53Z</time>
      </trkpt>
      <trkpt lat="45.62532" lon="2.81471">
        <ele>1233</ele>
        <time>2013-09-21T14:31:08Z</time>
      </trkpt>
      <trkpt lat="45.62531" lon="2.81472">
        <ele>1233</ele>
        <time>2013-09-21T14:31:12Z</time>
      </trkpt>
      <trkpt lat="45.62524" lon="2.81478">
        <ele>1235</ele>
        <time>2013-09-21T14:31:17Z</time>
      </trkpt>
      <trkpt lat="45.62511" lon="2.81483">
        <ele>1238</ele>
        <time>2013-09-21T14:31:24Z</time>
      </trkpt>
      <trkpt lat="45.62495" lon="2.81486">
        <ele>1245</ele>
        <time>2013-09-21T14:31:37Z</time>
      </trkpt>
      <trkpt lat="45.62493" lon="2.81486">
        <ele>1245</ele>
        <time>2013-09-21T14:31:43Z</time>
      </trkpt>
      <trkpt lat="45.62486" lon="2.81489">
        <ele>1245</ele>
        <time>2013-09-21T14:31:51Z</time>
      </trkpt>
      <trkpt lat="45.62478" lon="2.8149">
        <ele>1245</ele>
        <time>2013-09-21T14:31:58Z</time>
      </trkpt>
      <trkpt lat="45.6247" lon="2.81494">
        <ele>1245</ele>
        <time>2013-09-21T14:32:11Z</time>
      </trkpt>
      <trkpt lat="45.62463" lon="2.81497">
        <ele>1245</ele>
        <time>2013-09-21T14:32:25Z</time>
      </trkpt>
      <trkpt lat="45.62438" lon="2.81516">
        <ele>1255</ele>
        <time>2013-09-21T14:32:37Z</time>
      </trkpt>
      <trkpt lat="45.62431" lon="2.81543">
        <ele>1256</ele>
        <time>2013-09-21T14:32:53Z</time>
      </trkpt>
      <trkpt lat="45.62419" lon="2.81566">
        <ele>1257</ele>
        <time>2013-09-21T14:33:07Z</time>
      </trkpt>
      <trkpt lat="45.62405" lon="2.81588">
        <ele>1256</ele>
        <time>2013-09-21T14:33:21Z</time>
      </trkpt>
      <trkpt lat="45.62383" lon="2.81604">
        <ele>1255</ele>
        <time>2013-09-21T14:33:36Z</time>
      </trkpt>
      <trkpt lat="45.62363" lon="2.816">
        <ele>1256</ele>
        <time>2013-09-21T14:33:48Z</time>
      </trkpt>
      <trkpt lat="45.62362" lon="2.81599">
        <ele>1256</ele>
        <time>2013-09-21T14:33:49Z</time>
      </trkpt>
      <trkpt lat="45.62331" lon="2.81587">
        <ele>1262</ele>
        <time>2013-09-21T14:34:04Z</time>
      </trkpt>
      <trkpt lat="45.62301" lon="2.81565">
        <ele>1267</ele>
        <time>2013-09-21T14:34:17Z</time>
      </trkpt>
      <trkpt lat="45.6228" lon="2.81539">
        <ele>1268</ele>
        <time>2013-09-21T14:34:31Z</time>
      </trkpt>
      <trkpt lat="45.62258" lon="2.81511">
        <ele>1270</ele>
        <time>2013-09-21T14:34:45Z</time>
      </trkpt>
      <trkpt lat="45.62241" lon="2.81482">
        <ele>1275</ele>
        <time>2013-09-21T14:35:00Z</time>
      </trkpt>
      <trkpt lat="45.62221" lon="2.81472">
        <ele>1277</ele>
        <time>2013-09-21T14:35:14Z</time>
      </trkpt>
      <trkpt lat="45.62207" lon="2.8149">
        <ele>1277</ele>
        <time>2013-09-21T14:35:27Z</time>
      </trkpt>
      <trkpt lat="45.62206" lon="2.8152">
        <ele>1275</ele>
        <time>2013-09-21T14:35:43Z</time>
      </trkpt>
      <trkpt lat="45.62208" lon="2.81553">
        <ele>1275</ele>
        <time>2013-09-21T14:35:59Z</time>
      </trkpt>
      <trkpt lat="45.62203" lon="2.81588">
        <ele>1276</ele>
        <time>2013-09-21T14:36:14Z</time>
      </trkpt>
      <trkpt lat="45.62184" lon="2.81614">
        <ele>1277</ele>
        <time>2013-09-21T14:36:31Z</time>
      </trkpt>
      <trkpt lat="45.62181" lon="2.81619">
        <ele>1277</ele>
        <time>2013-09-21T14:36:35Z</time>
      </trkpt>
      <trkpt lat="45.6215" lon="2.81631">
        <ele>1285</ele>
        <time>2013-09-21T14:36:51Z</time>
      </trkpt>
      <trkpt lat="45.62117" lon="2.81646">
        <ele>1286</ele>
        <time>2013-09-21T14:37:05Z</time>
      </trkpt>
      <trkpt lat="45.62082" lon="2.8168">
        <ele>1288</ele>
        <time>2013-09-21T14:37:21Z</time>
      </trkpt>
      <trkpt lat="45.62079" lon="2.81682">
        <ele>1288</ele>
        <time>2013-09-21T14:37:34Z</time>
      </trkpt>
      <trkpt lat="45.62079" lon="2.81682">
        <ele>1288</ele>
        <time>2013-09-21T14:38:03Z</time>
      </trkpt>
      <trkpt lat="45.62079" lon="2.81682">
        <ele>1288</ele>
        <time>2013-09-21T14:38:30Z</time>
      </trkpt>
      <trkpt lat="45.62079" lon="2.81682">
        <ele>1288</ele>
        <time>2013-09-21T14:38:58Z</time>
      </trkpt>
      <trkpt lat="45.6207" lon="2.81685">
        <ele>1288</ele>
        <time>2013-09-21T14:39:04Z</time>
      </trkpt>
      <trkpt lat="45.62019" lon="2.8172">
        <ele>1287</ele>
        <time>2013-09-21T14:39:22Z</time>
      </trkpt>
      <trkpt lat="45.61977" lon="2.81726">
        <ele>1283</ele>
        <time>2013-09-21T14:39:34Z</time>
      </trkpt>
      <trkpt lat="45.61981" lon="2.81727">
        <ele>1284</ele>
        <time>2013-09-21T14:39:49Z</time>
      </trkpt>
      <trkpt lat="45.61981" lon="2.81727">
        <ele>1284</ele>
        <time>2013-09-21T14:40:10Z</time>
      </trkpt>
      <trkpt lat="45.61982" lon="2.81727">
        <ele>1284</ele>
        <time>2013-09-21T14:40:38Z</time>
      </trkpt>
      <trkpt lat="45.61982" lon="2.81727">
        <ele>1284</ele>
        <time>2013-09-21T14:40:48Z</time>
      </trkpt>
      <trkpt lat="45.61981" lon="2.81729">
        <ele>1284</ele>
        <time>2013-09-21T14:40:51Z</time>
      </trkpt>
      <trkpt lat="45.61973" lon="2.81742">
        <ele>1283</ele>
        <time>2013-09-21T14:40:56Z</time>
      </trkpt>
      <trkpt lat="45.61956" lon="2.81812">
        <ele>1277</ele>
        <time>2013-09-21T14:41:04Z</time>
      </trkpt>
      <trkpt lat="45.61953" lon="2.81824">
        <ele>1276</ele>
        <time>2013-09-21T14:41:05Z</time>
      </trkpt>
      <trkpt lat="45.61937" lon="2.81912">
        <ele>1272</ele>
        <time>2013-09-21T14:41:13Z</time>
      </trkpt>
      <trkpt lat="45.61938" lon="2.81957">
        <ele>1270</ele>
        <time>2013-09-21T14:41:17Z</time>
      </trkpt>
      <trkpt lat="45.61964" lon="2.82001">
        <ele>1266</ele>
        <time>2013-09-21T14:41:22Z</time>
      </trkpt>
      <trkpt lat="45.61998" lon="2.82023">
        <ele>1268</ele>
        <time>2013-09-21T14:41:26Z</time>
      </trkpt>
      <trkpt lat="45.62042" lon="2.82048">
        <ele>1267</ele>
        <time>2013-09-21T14:41:32Z</time>
      </trkpt>
      <trkpt lat="45.62062" lon="2.82066">
        <ele>1267</ele>
        <time>2013-09-21T14:41:38Z</time>
      </trkpt>
      <trkpt lat="45.62059" lon="2.82077">
        <ele>1267</ele>
        <time>2013-09-21T14:41:42Z</time>
      </trkpt>
      <trkpt lat="45.6203" lon="2.82112">
        <ele>1266</ele>
        <time>2013-09-21T14:41:50Z</time>
      </trkpt>
      <trkpt lat="45.62016" lon="2.8216">
        <ele>1266</ele>
        <time>2013-09-21T14:41:56Z</time>
      </trkpt>
      <trkpt lat="45.62012" lon="2.82178">
        <ele>1268</ele>
        <time>2013-09-21T14:41:58Z</time>
      </trkpt>
      <trkpt lat="45.61972" lon="2.82272">
        <ele>1265</ele>
        <time>2013-09-21T14:42:09Z</time>
      </trkpt>
      <trkpt lat="45.61953" lon="2.82303">
        <ele>1264</ele>
        <time>2013-09-21T14:42:13Z</time>
      </trkpt>
      <trkpt lat="45.61856" lon="2.82384">
        <ele>1260</ele>
        <time>2013-09-21T14:42:29Z</time>
      </trkpt>
      <trkpt lat="45.61752" lon="2.82433">
        <ele>1255</ele>
        <time>2013-09-21T14:42:44Z</time>
      </trkpt>
      <trkpt lat="45.61633" lon="2.82473">
        <ele>1250</ele>
        <time>2013-09-21T14:43:01Z</time>
      </trkpt>
      <trkpt lat="45.61528" lon="2.82521">
        <ele>1252</ele>
        <time>2013-09-21T14:43:17Z</time>
      </trkpt>
      <trkpt lat="45.61438" lon="2.82568">
        <ele>1249</ele>
        <time>2013-09-21T14:43:32Z</time>
      </trkpt>
      <trkpt lat="45.61331" lon="2.82626">
        <ele>1250</ele>
        <time>2013-09-21T14:43:51Z</time>
      </trkpt>
      <trkpt lat="45.61278" lon="2.82642">
        <ele>1250</ele>
        <time>2013-09-21T14:44:00Z</time>
      </trkpt>
      <trkpt lat="45.61253" lon="2.82637">
        <ele>1250</ele>
        <time>2013-09-21T14:44:04Z</time>
      </trkpt>
      <trkpt lat="45.61208" lon="2.82609">
        <ele>1252</ele>
        <time>2013-09-21T14:44:12Z</time>
      </trkpt>
      <trkpt lat="45.61195" lon="2.82545">
        <ele>1249</ele>
        <time>2013-09-21T14:44:20Z</time>
      </trkpt>
      <trkpt lat="45.61198" lon="2.82518">
        <ele>1249</ele>
        <time>2013-09-21T14:44:23Z</time>
      </trkpt>
      <trkpt lat="45.61174" lon="2.82454">
        <ele>1247</ele>
        <time>2013-09-21T14:44:32Z</time>
      </trkpt>
      <trkpt lat="45.61126" lon="2.82445">
        <ele>1247</ele>
        <time>2013-09-21T14:44:40Z</time>
      </trkpt>
      <trkpt lat="45.61037" lon="2.82491">
        <ele>1244</ele>
        <time>2013-09-21T14:44:52Z</time>
      </trkpt>
      <trkpt lat="45.60936" lon="2.82516">
        <ele>1245</ele>
        <time>2013-09-21T14:45:04Z</time>
      </trkpt>
      <trkpt lat="45.60911" lon="2.82525">
        <ele>1244</ele>
        <time>2013-09-21T14:45:07Z</time>
      </trkpt>
      <trkpt lat="45.6086" lon="2.82538">
        <ele>1245</ele>
        <time>2013-09-21T14:45:13Z</time>
      </trkpt>
      <trkpt lat="45.60825" lon="2.82534">
        <ele>1245</ele>
        <time>2013-09-21T14:45:17Z</time>
      </trkpt>
      <trkpt lat="45.60753" lon="2.82517">
        <ele>1244</ele>
        <time>2013-09-21T14:45:26Z</time>
      </trkpt>
      <trkpt lat="45.60745" lon="2.82515">
        <ele>1244</ele>
        <time>2013-09-21T14:45:27Z</time>
      </trkpt>
      <trkpt lat="45.60713" lon="2.82513">
        <ele>1246</ele>
        <time>2013-09-21T14:45:31Z</time>
      </trkpt>
      <trkpt lat="45.60598" lon="2.82555">
        <ele>1244</ele>
        <time>2013-09-21T14:45:45Z</time>
      </trkpt>
      <trkpt lat="45.60497" lon="2.8258">
        <ele>1240</ele>
        <time>2013-09-21T14:45:57Z</time>
      </trkpt>
      <trkpt lat="45.60406" lon="2.82564">
        <ele>1244</ele>
        <time>2013-09-21T14:46:08Z</time>
      </trkpt>
      <trkpt lat="45.60356" lon="2.82541">
        <ele>1243</ele>
        <time>2013-09-21T14:46:14Z</time>
      </trkpt>
      <trkpt lat="45.60272" lon="2.82551">
        <ele>1236</ele>
        <time>2013-09-21T14:46:23Z</time>
      </trkpt>
      <trkpt lat="45.60228" lon="2.82554">
        <ele>1229</ele>
        <time>2013-09-21T14:46:28Z</time>
      </trkpt>
      <trkpt lat="45.60161" lon="2.82543">
        <ele>1212</ele>
        <time>2013-09-21T14:46:35Z</time>
      </trkpt>
      <trkpt lat="45.6014" lon="2.82545">
        <ele>1210</ele>
        <time>2013-09-21T14:46:37Z</time>
      </trkpt>
      <trkpt lat="45.60095" lon="2.82606">
        <ele>1211</ele>
        <time>2013-09-21T14:46:43Z</time>
      </trkpt>
      <trkpt lat="45.60081" lon="2.82664">
        <ele>1205</ele>
        <time>2013-09-21T14:46:47Z</time>
      </trkpt>
      <trkpt lat="45.6004" lon="2.82701">
        <ele>1209</ele>
        <time>2013-09-21T14:46:52Z</time>
      </trkpt>
      <trkpt lat="45.59988" lon="2.82662">
        <ele>1202</ele>
        <time>2013-09-21T14:46:58Z</time>
      </trkpt>
      <trkpt lat="45.59975" lon="2.82642">
        <ele>1203</ele>
        <time>2013-09-21T14:47:00Z</time>
      </trkpt>
      <trkpt lat="45.59959" lon="2.82627">
        <ele>1203</ele>
        <time>2013-09-21T14:47:02Z</time>
      </trkpt>
      <trkpt lat="45.59839" lon="2.82547">
        <ele>1201</ele>
        <time>2013-09-21T14:47:16Z</time>
      </trkpt>
      <trkpt lat="45.59753" lon="2.82465">
        <ele>1196</ele>
        <time>2013-09-21T14:47:29Z</time>
      </trkpt>
      <trkpt lat="45.59653" lon="2.82359">
        <ele>1198</ele>
        <time>2013-09-21T14:47:44Z</time>
      </trkpt>
      <trkpt lat="45.59553" lon="2.82254">
        <ele>1199</ele>
        <time>2013-09-21T14:47:59Z</time>
      </trkpt>
      <trkpt lat="45.59496" lon="2.82192">
        <ele>1189</ele>
        <time>2013-09-21T14:48:08Z</time>
      </trkpt>
      <trkpt lat="45.59475" lon="2.82178">
        <ele>1188</ele>
        <time>2013-09-21T14:48:11Z</time>
      </trkpt>
      <trkpt lat="45.59431" lon="2.82195">
        <ele>1186</ele>
        <time>2013-09-21T14:48:17Z</time>
      </trkpt>
      <trkpt lat="45.5942" lon="2.82258">
        <ele>1188</ele>
        <time>2013-09-21T14:48:23Z</time>
      </trkpt>
      <trkpt lat="45.59427" lon="2.82325">
        <ele>1188</ele>
        <time>2013-09-21T14:48:30Z</time>
      </trkpt>
      <trkpt lat="45.59444" lon="2.82427">
        <ele>1182</ele>
        <time>2013-09-21T14:48:43Z</time>
      </trkpt>
      <trkpt lat="45.5944" lon="2.82426">
        <ele>1181</ele>
        <time>2013-09-21T14:48:47Z</time>
      </trkpt>
      <trkpt lat="45.5943" lon="2.82401">
        <ele>1184</ele>
        <time>2013-09-21T14:48:53Z</time>
      </trkpt>
      <trkpt lat="45.59424" lon="2.82386">
        <ele>1186</ele>
        <time>2013-09-21T14:48:55Z</time>
      </trkpt>
      <trkpt lat="45.59399" lon="2.82338">
        <ele>1171</ele>
        <time>2013-09-21T14:49:01Z</time>
      </trkpt>
      <trkpt lat="45.59382" lon="2.82298">
        <ele>1167</ele>
        <time>2013-09-21T14:49:05Z</time>
      </trkpt>
      <trkpt lat="45.5937" lon="2.82265">
        <ele>1165</ele>
        <time>2013-09-21T14:49:08Z</time>
      </trkpt>
      <trkpt lat="45.59367" lon="2.82253">
        <ele>1164</ele>
        <time>2013-09-21T14:49:09Z</time>
      </trkpt>
      <trkpt lat="45.59363" lon="2.82197">
        <ele>1163</ele>
        <time>2013-09-21T14:49:13Z</time>
      </trkpt>
      <trkpt lat="45.59361" lon="2.82187">
        <ele>1162</ele>
        <time>2013-09-21T14:49:14Z</time>
      </trkpt>
      <trkpt lat="45.59348" lon="2.82151">
        <ele>1155</ele>
        <time>2013-09-21T14:49:18Z</time>
      </trkpt>
      <trkpt lat="45.59337" lon="2.82124">
        <ele>1155</ele>
        <time>2013-09-21T14:49:21Z</time>
      </trkpt>
      <trkpt lat="45.59326" lon="2.82093">
        <ele>1140</ele>
        <time>2013-09-21T14:49:24Z</time>
      </trkpt>
      <trkpt lat="45.59321" lon="2.82045">
        <ele>1131</ele>
        <time>2013-09-21T14:49:28Z</time>
      </trkpt>
      <trkpt lat="45.59316" lon="2.82008">
        <ele>1130</ele>
        <time>2013-09-21T14:49:31Z</time>
      </trkpt>
      <trkpt lat="45.59313" lon="2.81984">
        <ele>1123</ele>
        <time>2013-09-21T14:49:33Z</time>
      </trkpt>
      <trkpt lat="45.59316" lon="2.81946">
        <ele>1120</ele>
        <time>2013-09-21T14:49:36Z</time>
      </trkpt>
      <trkpt lat="45.59318" lon="2.81937">
        <ele>1120</ele>
        <time>2013-09-21T14:49:37Z</time>
      </trkpt>
      <trkpt lat="45.59311" lon="2.81909">
        <ele>1113</ele>
        <time>2013-09-21T14:49:44Z</time>
      </trkpt>
      <trkpt lat="45.59308" lon="2.81912">
        <ele>1113</ele>
        <time>2013-09-21T14:49:45Z</time>
      </trkpt>
      <trkpt lat="45.59304" lon="2.81916">
        <ele>1113</ele>
        <time>2013-09-21T14:49:46Z</time>
      </trkpt>
      <trkpt lat="45.593" lon="2.81921">
        <ele>1118</ele>
        <time>2013-09-21T14:49:47Z</time>
      </trkpt>
      <trkpt lat="45.59295" lon="2.81927">
        <ele>1117</ele>
        <time>2013-09-21T14:49:48Z</time>
      </trkpt>
      <trkpt lat="45.5929" lon="2.81934">
        <ele>1117</ele>
        <time>2013-09-21T14:49:49Z</time>
      </trkpt>
      <trkpt lat="45.59285" lon="2.81943">
        <ele>1117</ele>
        <time>2013-09-21T14:49:50Z</time>
      </trkpt>
      <trkpt lat="45.59281" lon="2.81952">
        <ele>1117</ele>
        <time>2013-09-21T14:49:51Z</time>
      </trkpt>
      <trkpt lat="45.59278" lon="2.81961">
        <ele>1117</ele>
        <time>2013-09-21T14:49:52Z</time>
      </trkpt>
      <trkpt lat="45.59264" lon="2.82014">
        <ele>1120</ele>
        <time>2013-09-21T14:49:57Z</time>
      </trkpt>
      <trkpt lat="45.59262" lon="2.82024">
        <ele>1121</ele>
        <time>2013-09-21T14:49:58Z</time>
      </trkpt>
      <trkpt lat="45.5926" lon="2.82032">
        <ele>1122</ele>
        <time>2013-09-21T14:49:59Z</time>
      </trkpt>
      <trkpt lat="45.59257" lon="2.82037">
        <ele>1122</ele>
        <time>2013-09-21T14:50:00Z</time>
      </trkpt>
      <trkpt lat="45.59253" lon="2.82039">
        <ele>1122</ele>
        <time>2013-09-21T14:50:01Z</time>
      </trkpt>
      <trkpt lat="45.5925" lon="2.82038">
        <ele>1115</ele>
        <time>2013-09-21T14:50:02Z</time>
      </trkpt>
      <trkpt lat="45.59247" lon="2.82036">
        <ele>1115</ele>
        <time>2013-09-21T14:50:03Z</time>
      </trkpt>
      <trkpt lat="45.59245" lon="2.82034">
        <ele>1115</ele>
        <time>2013-09-21T14:50:04Z</time>
      </trkpt>
      <trkpt lat="45.59244" lon="2.82031">
        <ele>1114</ele>
        <time>2013-09-21T14:50:05Z</time>
      </trkpt>
      <trkpt lat="45.59243" lon="2.82026">
        <ele>1114</ele>
        <time>2013-09-21T14:50:06Z</time>
      </trkpt>
      <trkpt lat="45.59225" lon="2.8195">
        <ele>1109</ele>
        <time>2013-09-21T14:50:14Z</time>
      </trkpt>
      <trkpt lat="45.59211" lon="2.81899">
        <ele>1106</ele>
        <time>2013-09-21T14:50:18Z</time>
      </trkpt>
      <trkpt lat="45.59197" lon="2.81841">
        <ele>1105</ele>
        <time>2013-09-21T14:50:22Z</time>
      </trkpt>
      <trkpt lat="45.59193" lon="2.81787">
        <ele>1099</ele>
        <time>2013-09-21T14:50:25Z</time>
      </trkpt>
      <trkpt lat="45.59193" lon="2.81736">
        <ele>1090</ele>
        <time>2013-09-21T14:50:28Z</time>
      </trkpt>
      <trkpt lat="45.59194" lon="2.81722">
        <ele>1089</ele>
        <time>2013-09-21T14:50:29Z</time>
      </trkpt>
      <trkpt lat="45.59193" lon="2.81686">
        <ele>1087</ele>
        <time>2013-09-21T14:50:32Z</time>
      </trkpt>
      <trkpt lat="45.59188" lon="2.81666">
        <ele>1081</ele>
        <time>2013-09-21T14:50:34Z</time>
      </trkpt>
      <trkpt lat="45.59169" lon="2.81622">
        <ele>1079</ele>
        <time>2013-09-21T14:50:38Z</time>
      </trkpt>
      <trkpt lat="45.59164" lon="2.81612">
        <ele>1086</ele>
        <time>2013-09-21T14:50:39Z</time>
      </trkpt>
      <trkpt lat="45.59151" lon="2.81591">
        <ele>1085</ele>
        <time>2013-09-21T14:50:41Z</time>
      </trkpt>
      <trkpt lat="45.59136" lon="2.81565">
        <ele>1080</ele>
        <time>2013-09-21T14:50:43Z</time>
      </trkpt>
      <trkpt lat="45.59116" lon="2.81536">
        <ele>1079</ele>
        <time>2013-09-21T14:50:46Z</time>
      </trkpt>
      <trkpt lat="45.59104" lon="2.81523">
        <ele>1079</ele>
        <time>2013-09-21T14:50:48Z</time>
      </trkpt>
      <trkpt lat="45.59055" lon="2.81482">
        <ele>1075</ele>
        <time>2013-09-21T14:50:55Z</time>
      </trkpt>
      <trkpt lat="45.59024" lon="2.81434">
        <ele>1071</ele>
        <time>2013-09-21T14:51:00Z</time>
      </trkpt>
      <trkpt lat="45.59019" lon="2.81423">
        <ele>1069</ele>
        <time>2013-09-21T14:51:01Z</time>
      </trkpt>
      <trkpt lat="45.59005" lon="2.81387">
        <ele>1063</ele>
        <time>2013-09-21T14:51:04Z</time>
      </trkpt>
      <trkpt lat="45.58998" lon="2.81369">
        <ele>1064</ele>
        <time>2013-09-21T14:51:06Z</time>
      </trkpt>
      <trkpt lat="45.58991" lon="2.81348">
        <ele>1063</ele>
        <time>2013-09-21T14:51:11Z</time>
      </trkpt>
      <trkpt lat="45.58992" lon="2.81349">
        <ele>1063</ele>
        <time>2013-09-21T14:51:15Z</time>
      </trkpt>
      <trkpt lat="45.58993" lon="2.81353">
        <ele>1063</ele>
        <time>2013-09-21T14:51:27Z</time>
      </trkpt>
      <trkpt lat="45.58989" lon="2.8135">
        <ele>1063</ele>
        <time>2013-09-21T14:51:31Z</time>
      </trkpt>
      <trkpt lat="45.58981" lon="2.81349">
        <ele>1063</ele>
        <time>2013-09-21T14:51:34Z</time>
      </trkpt>
      <trkpt lat="45.58965" lon="2.81365">
        <ele>1065</ele>
        <time>2013-09-21T14:51:38Z</time>
      </trkpt>
      <trkpt lat="45.58955" lon="2.81371">
        <ele>1065</ele>
        <time>2013-09-21T14:51:40Z</time>
      </trkpt>
      <trkpt lat="45.58931" lon="2.81378">
        <ele>1067</ele>
        <time>2013-09-21T14:51:45Z</time>
      </trkpt>
      <trkpt lat="45.58875" lon="2.81405">
        <ele>1074</ele>
        <time>2013-09-21T14:51:58Z</time>
      </trkpt>
      <trkpt lat="45.58871" lon="2.8141">
        <ele>1074</ele>
        <time>2013-09-21T14:52:09Z</time>
      </trkpt>
      <trkpt lat="45.58866" lon="2.81413">
        <ele>1075</ele>
        <time>2013-09-21T14:52:24Z</time>
      </trkpt>
      <trkpt lat="45.58863" lon="2.81408">
        <ele>1075</ele>
        <time>2013-09-21T14:52:26Z</time>
      </trkpt>
      <trkpt lat="45.58858" lon="2.81401">
        <ele>1075</ele>
        <time>2013-09-21T14:52:30Z</time>
      </trkpt>
      <trkpt lat="45.58855" lon="2.81399">
        <ele>1075</ele>
        <time>2013-09-21T14:52:35Z</time>
      </trkpt>
      <trkpt lat="45.58853" lon="2.81398">
        <ele>1075</ele>
        <time>2013-09-21T14:52:37Z</time>
      </trkpt>
      <trkpt lat="45.58837" lon="2.81391">
        <ele>1075</ele>
        <time>2013-09-21T14:52:51Z</time>
      </trkpt>
      <trkpt lat="45.58837" lon="2.81391">
        <ele>1075</ele>
        <time>2013-09-21T14:52:53Z</time>
      </trkpt>
      <trkpt lat="45.58832" lon="2.81392">
        <ele>1081</ele>
        <time>2013-09-21T14:53:06Z</time>
      </trkpt>
      <trkpt lat="45.5883" lon="2.81396">
        <ele>1081</ele>
        <time>2013-09-21T14:53:15Z</time>
      </trkpt>
      <trkpt lat="45.58829" lon="2.81397">
        <ele>1081</ele>
        <time>2013-09-21T14:53:17Z</time>
      </trkpt>
      <trkpt lat="45.58804" lon="2.81428">
        <ele>1091</ele>
        <time>2013-09-21T14:53:33Z</time>
      </trkpt>
      <trkpt lat="45.58803" lon="2.81456">
        <ele>1095</ele>
        <time>2013-09-21T14:53:46Z</time>
      </trkpt>
      <trkpt lat="45.58802" lon="2.8146">
        <ele>1096</ele>
        <time>2013-09-21T14:54:00Z</time>
      </trkpt>
      <trkpt lat="45.58801" lon="2.81461">
        <ele>1096</ele>
        <time>2013-09-21T14:54:06Z</time>
      </trkpt>
      <trkpt lat="45.588" lon="2.81464">
        <ele>1097</ele>
        <time>2013-09-21T14:54:31Z</time>
      </trkpt>
      <trkpt lat="45.58801" lon="2.81465">
        <ele>1097</ele>
        <time>2013-09-21T14:55:01Z</time>
      </trkpt>
      <trkpt lat="45.58801" lon="2.81465">
        <ele>1097</ele>
        <time>2013-09-21T14:55:27Z</time>
      </trkpt>
      <trkpt lat="45.58802" lon="2.81465">
        <ele>1097</ele>
        <time>2013-09-21T14:55:56Z</time>
      </trkpt>
      <trkpt lat="45.58802" lon="2.81465">
        <ele>1097</ele>
        <time>2013-09-21T14:56:24Z</time>
      </trkpt>
      <trkpt lat="45.58802" lon="2.81466">
        <ele>1097</ele>
        <time>2013-09-21T14:56:32Z</time>
      </trkpt>
      <trkpt lat="45.58802" lon="2.81471">
        <ele>1098</ele>
        <time>2013-09-21T14:56:47Z</time>
      </trkpt>
      <trkpt lat="45.58801" lon="2.81472">
        <ele>1098</ele>
        <time>2013-09-21T14:57:03Z</time>
      </trkpt>
      <trkpt lat="45.58801" lon="2.81472">
        <ele>1098</ele>
        <time>2013-09-21T14:57:19Z</time>
      </trkpt>
      <trkpt lat="45.58794" lon="2.81465">
        <ele>1097</ele>
        <time>2013-09-21T14:57:30Z</time>
      </trkpt>
      <trkpt lat="45.58777" lon="2.81425">
        <ele>1094</ele>
        <time>2013-09-21T14:57:46Z</time>
      </trkpt>
      <trkpt lat="45.58773" lon="2.814">
        <ele>1085</ele>
        <time>2013-09-21T14:57:55Z</time>
      </trkpt>
      <trkpt lat="45.58765" lon="2.81362">
        <ele>1082</ele>
        <time>2013-09-21T14:58:09Z</time>
      </trkpt>
      <trkpt lat="45.58776" lon="2.8132">
        <ele>1078</ele>
        <time>2013-09-21T14:58:22Z</time>
      </trkpt>
      <trkpt lat="45.58783" lon="2.81306">
        <ele>1078</ele>
        <time>2013-09-21T14:58:25Z</time>
      </trkpt>
      <trkpt lat="45.58796" lon="2.81282">
        <ele>1077</ele>
        <time>2013-09-21T14:58:28Z</time>
      </trkpt>
      <trkpt lat="45.58811" lon="2.81188">
        <ele>1071</ele>
        <time>2013-09-21T14:58:38Z</time>
      </trkpt>
      <trkpt lat="45.58814" lon="2.81129">
        <ele>1069</ele>
        <time>2013-09-21T14:58:43Z</time>
      </trkpt>
      <trkpt lat="45.58822" lon="2.81091">
        <ele>1064</ele>
        <time>2013-09-21T14:58:47Z</time>
      </trkpt>
      <trkpt lat="45.58835" lon="2.81009">
        <ele>1056</ele>
        <time>2013-09-21T14:58:54Z</time>
      </trkpt>
      <trkpt lat="45.58836" lon="2.80985">
        <ele>1055</ele>
        <time>2013-09-21T14:58:56Z</time>
      </trkpt>
      <trkpt lat="45.58835" lon="2.80948">
        <ele>1054</ele>
        <time>2013-09-21T14:58:59Z</time>
      </trkpt>
      <trkpt lat="45.58842" lon="2.80887">
        <ele>1057</ele>
        <time>2013-09-21T14:59:05Z</time>
      </trkpt>
      <trkpt lat="45.58854" lon="2.80873">
        <ele>1057</ele>
        <time>2013-09-21T14:59:08Z</time>
      </trkpt>
      <trkpt lat="45.58863" lon="2.80838">
        <ele>1058</ele>
        <time>2013-09-21T14:59:19Z</time>
      </trkpt>
      <trkpt lat="45.58861" lon="2.80805">
        <ele>1063</ele>
        <time>2013-09-21T14:59:29Z</time>
      </trkpt>
      <trkpt lat="45.58857" lon="2.80764">
        <ele>1065</ele>
        <time>2013-09-21T14:59:37Z</time>
      </trkpt>
      <trkpt lat="45.58853" lon="2.80735">
        <ele>1065</ele>
        <time>2013-09-21T14:59:41Z</time>
      </trkpt>
      <trkpt lat="45.58842" lon="2.80635">
        <ele>1055</ele>
        <time>2013-09-21T14:59:51Z</time>
      </trkpt>
      <trkpt lat="45.58836" lon="2.80583">
        <ele>1051</ele>
        <time>2013-09-21T14:59:55Z</time>
      </trkpt>
      <trkpt lat="45.58831" lon="2.80537">
        <ele>1057</ele>
        <time>2013-09-21T14:59:58Z</time>
      </trkpt>
      <trkpt lat="45.58833" lon="2.80487">
        <ele>1044</ele>
        <time>2013-09-21T15:00:01Z</time>
      </trkpt>
      <trkpt lat="45.58833" lon="2.80469">
        <ele>1046</ele>
        <time>2013-09-21T15:00:02Z</time>
      </trkpt>
      <trkpt lat="45.58828" lon="2.80394">
        <ele>1036</ele>
        <time>2013-09-21T15:00:06Z</time>
      </trkpt>
      <trkpt lat="45.5883" lon="2.80359">
        <ele>1033</ele>
        <time>2013-09-21T15:00:08Z</time>
      </trkpt>
      <trkpt lat="45.5882" lon="2.80267">
        <ele>1025</ele>
        <time>2013-09-21T15:00:14Z</time>
      </trkpt>
      <trkpt lat="45.5881" lon="2.80245">
        <ele>1020</ele>
        <time>2013-09-21T15:00:16Z</time>
      </trkpt>
      <trkpt lat="45.58764" lon="2.8018">
        <ele>1017</ele>
        <time>2013-09-21T15:00:23Z</time>
      </trkpt>
      <trkpt lat="45.58717" lon="2.80156">
        <ele>1011</ele>
        <time>2013-09-21T15:00:28Z</time>
      </trkpt>
      <trkpt lat="45.58629" lon="2.80171">
        <ele>1015</ele>
        <time>2013-09-21T15:00:38Z</time>
      </trkpt>
      <trkpt lat="45.58606" lon="2.80179">
        <ele>1013</ele>
        <time>2013-09-21T15:00:41Z</time>
      </trkpt>
      <trkpt lat="45.58535" lon="2.80238">
        <ele>1006</ele>
        <time>2013-09-21T15:00:51Z</time>
      </trkpt>
      <trkpt lat="45.58485" lon="2.80274">
        <ele>1007</ele>
        <time>2013-09-21T15:00:58Z</time>
      </trkpt>
      <trkpt lat="45.58435" lon="2.8031">
        <ele>1007</ele>
        <time>2013-09-21T15:01:05Z</time>
      </trkpt>
      <trkpt lat="45.58395" lon="2.80337">
        <ele>1010</ele>
        <time>2013-09-21T15:01:10Z</time>
      </trkpt>
      <trkpt lat="45.58318" lon="2.80377">
        <ele>1002</ele>
        <time>2013-09-21T15:01:19Z</time>
      </trkpt>
      <trkpt lat="45.58289" lon="2.80391">
        <ele>1002</ele>
        <time>2013-09-21T15:01:23Z</time>
      </trkpt>
      <trkpt lat="45.58283" lon="2.80396">
        <ele>1002</ele>
        <time>2013-09-21T15:01:24Z</time>
      </trkpt>
      <trkpt lat="45.58278" lon="2.80402">
        <ele>1001</ele>
        <time>2013-09-21T15:01:25Z</time>
      </trkpt>
      <trkpt lat="45.58254" lon="2.80435">
        <ele>1008</ele>
        <time>2013-09-21T15:01:31Z</time>
      </trkpt>
      <trkpt lat="45.58238" lon="2.80459">
        <ele>1005</ele>
        <time>2013-09-21T15:01:36Z</time>
      </trkpt>
      <trkpt lat="45.58182" lon="2.80526">
        <ele>1013</ele>
        <time>2013-09-21T15:01:54Z</time>
      </trkpt>
      <trkpt lat="45.58134" lon="2.80576">
        <ele>1010</ele>
        <time>2013-09-21T15:02:10Z</time>
      </trkpt>
      <trkpt lat="45.58091" lon="2.80611">
        <ele>1019</ele>
        <time>2013-09-21T15:02:25Z</time>
      </trkpt>
      <trkpt lat="45.58047" lon="2.80646">
        <ele>1017</ele>
        <time>2013-09-21T15:02:41Z</time>
      </trkpt>
      <trkpt lat="45.57999" lon="2.80672">
        <ele>1019</ele>
        <time>2013-09-21T15:02:58Z</time>
      </trkpt>
      <trkpt lat="45.57974" lon="2.80683">
        <ele>1022</ele>
        <time>2013-09-21T15:03:09Z</time>
      </trkpt>
      <trkpt lat="45.5793" lon="2.80701">
        <ele>1022</ele>
        <time>2013-09-21T15:03:24Z</time>
      </trkpt>
      <trkpt lat="45.57879" lon="2.80735">
        <ele>1020</ele>
        <time>2013-09-21T15:03:42Z</time>
      </trkpt>
      <trkpt lat="45.57834" lon="2.80777">
        <ele>1027</ele>
        <time>2013-09-21T15:04:00Z</time>
      </trkpt>
      <trkpt lat="45.57795" lon="2.80817">
        <ele>1026</ele>
        <time>2013-09-21T15:04:16Z</time>
      </trkpt>
      <trkpt lat="45.57761" lon="2.80851">
        <ele>1034</ele>
        <time>2013-09-21T15:04:29Z</time>
      </trkpt>
      <trkpt lat="45.57719" lon="2.80895">
        <ele>1033</ele>
        <time>2013-09-21T15:04:47Z</time>
      </trkpt>
      <trkpt lat="45.57676" lon="2.80933">
        <ele>1042</ele>
        <time>2013-09-21T15:05:03Z</time>
      </trkpt>
      <trkpt lat="45.57659" lon="2.80912">
        <ele>1031</ele>
        <time>2013-09-21T15:05:14Z</time>
      </trkpt>
      <trkpt lat="45.57655" lon="2.80828">
        <ele>1026</ele>
        <time>2013-09-21T15:05:22Z</time>
      </trkpt>
      <trkpt lat="45.57633" lon="2.80796">
        <ele>1026</ele>
        <time>2013-09-21T15:05:30Z</time>
      </trkpt>
      <trkpt lat="45.57612" lon="2.80812">
        <ele>1027</ele>
        <time>2013-09-21T15:05:37Z</time>
      </trkpt>
      <trkpt lat="45.57573" lon="2.80855">
        <ele>1032</ele>
        <time>2013-09-21T15:05:54Z</time>
      </trkpt>
      <trkpt lat="45.57526" lon="2.80884">
        <ele>1034</ele>
        <time>2013-09-21T15:06:12Z</time>
      </trkpt>
      <trkpt lat="45.57487" lon="2.80902">
        <ele>1037</ele>
        <time>2013-09-21T15:06:28Z</time>
      </trkpt>
      <trkpt lat="45.57449" lon="2.80922">
        <ele>1040</ele>
        <time>2013-09-21T15:06:44Z</time>
      </trkpt>
      <trkpt lat="45.57411" lon="2.80945">
        <ele>1043</ele>
        <time>2013-09-21T15:07:01Z</time>
      </trkpt>
      <trkpt lat="45.57373" lon="2.80973">
        <ele>1044</ele>
        <time>2013-09-21T15:07:18Z</time>
      </trkpt>
      <trkpt lat="45.57349" lon="2.80967">
        <ele>1045</ele>
        <time>2013-09-21T15:07:30Z</time>
      </trkpt>
      <trkpt lat="45.57336" lon="2.8096">
        <ele>1044</ele>
        <time>2013-09-21T15:07:43Z</time>
      </trkpt>
      <trkpt lat="45.5733" lon="2.80952">
        <ele>1045</ele>
        <time>2013-09-21T15:07:56Z</time>
      </trkpt>
      <trkpt lat="45.57329" lon="2.80948">
        <ele>1045</ele>
        <time>2013-09-21T15:08:09Z</time>
      </trkpt>
      <trkpt lat="45.57325" lon="2.80951">
        <ele>1045</ele>
        <time>2013-09-21T15:08:21Z</time>
      </trkpt>
      <trkpt lat="45.57325" lon="2.80952">
        <ele>1045</ele>
        <time>2013-09-21T15:08:32Z</time>
      </trkpt>
      <trkpt lat="45.57324" lon="2.80952">
        <ele>1045</ele>
        <time>2013-09-21T15:08:45Z</time>
      </trkpt>
      <trkpt lat="45.57324" lon="2.80951">
        <ele>1045</ele>
        <time>2013-09-21T15:09:04Z</time>
      </trkpt>
      <trkpt lat="45.57323" lon="2.80951">
        <ele>1045</ele>
        <time>2013-09-21T15:09:25Z</time>
      </trkpt>
      <trkpt lat="45.57323" lon="2.80951">
        <ele>1045</ele>
        <time>2013-09-21T15:09:40Z</time>
      </trkpt>
      <trkpt lat="45.57324" lon="2.80952">
        <ele>1045</ele>
        <time>2013-09-21T15:09:52Z</time>
      </trkpt>
      <trkpt lat="45.57331" lon="2.80951">
        <ele>1045</ele>
        <time>2013-09-21T15:10:07Z</time>
      </trkpt>
      <trkpt lat="45.57331" lon="2.80951">
        <ele>1045</ele>
        <time>2013-09-21T15:10:25Z</time>
      </trkpt>
      <trkpt lat="45.57331" lon="2.80951">
        <ele>1045</ele>
        <time>2013-09-21T15:10:44Z</time>
      </trkpt>
      <trkpt lat="45.57329" lon="2.80948">
        <ele>1045</ele>
        <time>2013-09-21T15:11:01Z</time>
      </trkpt>
      <trkpt lat="45.57327" lon="2.8095">
        <ele>1045</ele>
        <time>2013-09-21T15:11:15Z</time>
      </trkpt>
      <trkpt lat="45.57326" lon="2.8095">
        <ele>1045</ele>
        <time>2013-09-21T15:11:29Z</time>
      </trkpt>
      <trkpt lat="45.57326" lon="2.8095">
        <ele>1045</ele>
        <time>2013-09-21T15:11:48Z</time>
      </trkpt>
      <trkpt lat="45.57325" lon="2.80951">
        <ele>1045</ele>
        <time>2013-09-21T15:12:08Z</time>
      </trkpt>
      <trkpt lat="45.57327" lon="2.80951">
        <ele>1045</ele>
        <time>2013-09-21T15:12:24Z</time>
      </trkpt>
      <trkpt lat="45.57327" lon="2.8095">
        <ele>1045</ele>
        <time>2013-09-21T15:12:41Z</time>
      </trkpt>
      <trkpt lat="45.57327" lon="2.80951">
        <ele>1045</ele>
        <time>2013-09-21T15:13:03Z</time>
      </trkpt>
      <trkpt lat="45.57327" lon="2.8095">
        <ele>1045</ele>
        <time>2013-09-21T15:13:17Z</time>
      </trkpt>
      <trkpt lat="45.57327" lon="2.80951">
        <ele>1045</ele>
        <time>2013-09-21T15:13:45Z</time>
      </trkpt>
      <trkpt lat="45.57327" lon="2.80951">
        <ele>1045</ele>
        <time>2013-09-21T15:14:02Z</time>
      </trkpt>
      <trkpt lat="45.57327" lon="2.80951">
        <ele>1045</ele>
        <time>2013-09-21T15:14:27Z</time>
      </trkpt>
      <trkpt lat="45.57327" lon="2.80951">
        <ele>1045</ele>
        <time>2013-09-21T15:14:32Z</time>
      </trkpt>
      <trkpt lat="45.54507" lon="2.81601">
        <ele>1292</ele>
        <time>2013-09-22T06:07:22Z</time>
      </trkpt>
      <trkpt lat="45.54507" lon="2.81601">
        <ele>1292</ele>
        <time>2013-09-22T06:07:28Z</time>
      </trkpt>
      <trkpt lat="45.54507" lon="2.81602">
        <ele>1292</ele>
        <time>2013-09-22T06:07:31Z</time>
      </trkpt>
      <trkpt lat="45.54508" lon="2.816">
        <ele>1292</ele>
        <time>2013-09-22T06:07:34Z</time>
      </trkpt>
      <trkpt lat="45.54508" lon="2.81599">
        <ele>1292</ele>
        <time>2013-09-22T06:07:37Z</time>
      </trkpt>
      <trkpt lat="45.54508" lon="2.81601">
        <ele>1292</ele>
        <time>2013-09-22T06:07:40Z</time>
      </trkpt>
      <trkpt lat="45.54507" lon="2.81604">
        <ele>1292</ele>
        <time>2013-09-22T06:07:43Z</time>
      </trkpt>
      <trkpt lat="45.54507" lon="2.81608">
        <ele>1292</ele>
        <time>2013-09-22T06:07:46Z</time>
      </trkpt>
      <trkpt lat="45.54506" lon="2.81616">
        <ele>1292</ele>
        <time>2013-09-22T06:07:51Z</time>
      </trkpt>
      <trkpt lat="45.54506" lon="2.81622">
        <ele>1293</ele>
        <time>2013-09-22T06:07:55Z</time>
      </trkpt>
      <trkpt lat="45.54506" lon="2.81623">
        <ele>1293</ele>
        <time>2013-09-22T06:07:56Z</time>
      </trkpt>
      <trkpt lat="45.54506" lon="2.81626">
        <ele>1293</ele>
        <time>2013-09-22T06:07:58Z</time>
      </trkpt>
      <trkpt lat="45.54506" lon="2.81628">
        <ele>1293</ele>
        <time>2013-09-22T06:08:00Z</time>
      </trkpt>
      <trkpt lat="45.54506" lon="2.81636">
        <ele>1293</ele>
        <time>2013-09-22T06:08:06Z</time>
      </trkpt>
      <trkpt lat="45.54507" lon="2.81641">
        <ele>1294</ele>
        <time>2013-09-22T06:08:10Z</time>
      </trkpt>
      <trkpt lat="45.54507" lon="2.81646">
        <ele>1294</ele>
        <time>2013-09-22T06:08:13Z</time>
      </trkpt>
      <trkpt lat="45.5451" lon="2.81651">
        <ele>1294</ele>
        <time>2013-09-22T06:08:18Z</time>
      </trkpt>
      <trkpt lat="45.54511" lon="2.81652">
        <ele>1294</ele>
        <time>2013-09-22T06:08:19Z</time>
      </trkpt>
      <trkpt lat="45.54517" lon="2.81661">
        <ele>1294</ele>
        <time>2013-09-22T06:08:28Z</time>
      </trkpt>
      <trkpt lat="45.54519" lon="2.81665">
        <ele>1294</ele>
        <time>2013-09-22T06:08:49Z</time>
      </trkpt>
      <trkpt lat="45.54523" lon="2.81669">
        <ele>1297</ele>
        <time>2013-09-22T06:08:57Z</time>
      </trkpt>
      <trkpt lat="45.54556" lon="2.81662">
        <ele>1290</ele>
        <time>2013-09-22T06:09:05Z</time>
      </trkpt>
      <trkpt lat="45.54573" lon="2.81659">
        <ele>1289</ele>
        <time>2013-09-22T06:09:08Z</time>
      </trkpt>
      <trkpt lat="45.54586" lon="2.81658">
        <ele>1286</ele>
        <time>2013-09-22T06:09:09Z</time>
      </trkpt>
      <trkpt lat="45.54657" lon="2.81652">
        <ele>1283</ele>
        <time>2013-09-22T06:09:13Z</time>
      </trkpt>
      <trkpt lat="45.54678" lon="2.81646">
        <ele>1280</ele>
        <time>2013-09-22T06:09:15Z</time>
      </trkpt>
      <trkpt lat="45.54735" lon="2.81627">
        <ele>1278</ele>
        <time>2013-09-22T06:09:20Z</time>
      </trkpt>
      <trkpt lat="45.5477" lon="2.81614">
        <ele>1273</ele>
        <time>2013-09-22T06:09:23Z</time>
      </trkpt>
      <trkpt lat="45.54805" lon="2.816">
        <ele>1271</ele>
        <time>2013-09-22T06:09:26Z</time>
      </trkpt>
      <trkpt lat="45.54815" lon="2.81596">
        <ele>1270</ele>
        <time>2013-09-22T06:09:27Z</time>
      </trkpt>
      <trkpt lat="45.5485" lon="2.81583">
        <ele>1264</ele>
        <time>2013-09-22T06:09:30Z</time>
      </trkpt>
      <trkpt lat="45.54913" lon="2.81564">
        <ele>1261</ele>
        <time>2013-09-22T06:09:34Z</time>
      </trkpt>
      <trkpt lat="45.5492" lon="2.81563">
        <ele>1258</ele>
        <time>2013-09-22T06:09:35Z</time>
      </trkpt>
      <trkpt lat="45.54976" lon="2.81545">
        <ele>1255</ele>
        <time>2013-09-22T06:09:39Z</time>
      </trkpt>
      <trkpt lat="45.55008" lon="2.81525">
        <ele>1251</ele>
        <time>2013-09-22T06:09:42Z</time>
      </trkpt>
      <trkpt lat="45.55046" lon="2.81514">
        <ele>1250</ele>
        <time>2013-09-22T06:09:44Z</time>
      </trkpt>
      <trkpt lat="45.55078" lon="2.81518">
        <ele>1248</ele>
        <time>2013-09-22T06:09:46Z</time>
      </trkpt>
      <trkpt lat="45.55156" lon="2.81523">
        <ele>1239</ele>
        <time>2013-09-22T06:09:52Z</time>
      </trkpt>
      <trkpt lat="45.55169" lon="2.81518">
        <ele>1232</ele>
        <time>2013-09-22T06:09:53Z</time>
      </trkpt>
      <trkpt lat="45.55199" lon="2.81504">
        <ele>1231</ele>
        <time>2013-09-22T06:09:55Z</time>
      </trkpt>
      <trkpt lat="45.55213" lon="2.815">
        <ele>1226</ele>
        <time>2013-09-22T06:09:56Z</time>
      </trkpt>
      <trkpt lat="45.55283" lon="2.81511">
        <ele>1222</ele>
        <time>2013-09-22T06:10:01Z</time>
      </trkpt>
      <trkpt lat="45.55331" lon="2.81557">
        <ele>1220</ele>
        <time>2013-09-22T06:10:05Z</time>
      </trkpt>
      <trkpt lat="45.55353" lon="2.8158">
        <ele>1214</ele>
        <time>2013-09-22T06:10:07Z</time>
      </trkpt>
      <trkpt lat="45.55393" lon="2.81619">
        <ele>1213</ele>
        <time>2013-09-22T06:10:11Z</time>
      </trkpt>
      <trkpt lat="45.55404" lon="2.81626">
        <ele>1213</ele>
        <time>2013-09-22T06:10:12Z</time>
      </trkpt>
      <trkpt lat="45.55415" lon="2.81632">
        <ele>1212</ele>
        <time>2013-09-22T06:10:13Z</time>
      </trkpt>
      <trkpt lat="45.55425" lon="2.81634">
        <ele>1206</ele>
        <time>2013-09-22T06:10:14Z</time>
      </trkpt>
      <trkpt lat="45.55435" lon="2.81636">
        <ele>1206</ele>
        <time>2013-09-22T06:10:15Z</time>
      </trkpt>
      <trkpt lat="45.55449" lon="2.81636">
        <ele>1205</ele>
        <time>2013-09-22T06:10:16Z</time>
      </trkpt>
      <trkpt lat="45.55461" lon="2.81635">
        <ele>1204</ele>
        <time>2013-09-22T06:10:17Z</time>
      </trkpt>
      <trkpt lat="45.55502" lon="2.8163">
        <ele>1197</ele>
        <time>2013-09-22T06:10:20Z</time>
      </trkpt>
      <trkpt lat="45.55532" lon="2.81627">
        <ele>1195</ele>
        <time>2013-09-22T06:10:23Z</time>
      </trkpt>
      <trkpt lat="45.55597" lon="2.81618">
        <ele>1190</ele>
        <time>2013-09-22T06:10:28Z</time>
      </trkpt>
      <trkpt lat="45.55605" lon="2.81616">
        <ele>1190</ele>
        <time>2013-09-22T06:10:29Z</time>
      </trkpt>
      <trkpt lat="45.55628" lon="2.81608">
        <ele>1189</ele>
        <time>2013-09-22T06:10:31Z</time>
      </trkpt>
      <trkpt lat="45.55644" lon="2.81598">
        <ele>1188</ele>
        <time>2013-09-22T06:10:32Z</time>
      </trkpt>
      <trkpt lat="45.55655" lon="2.81589">
        <ele>1187</ele>
        <time>2013-09-22T06:10:33Z</time>
      </trkpt>
      <trkpt lat="45.55664" lon="2.81578">
        <ele>1184</ele>
        <time>2013-09-22T06:10:34Z</time>
      </trkpt>
      <trkpt lat="45.55673" lon="2.81565">
        <ele>1183</ele>
        <time>2013-09-22T06:10:35Z</time>
      </trkpt>
      <trkpt lat="45.55736" lon="2.81452">
        <ele>1174</ele>
        <time>2013-09-22T06:10:42Z</time>
      </trkpt>
      <trkpt lat="45.55809" lon="2.81405">
        <ele>1165</ele>
        <time>2013-09-22T06:10:48Z</time>
      </trkpt>
      <trkpt lat="45.56024" lon="2.81412">
        <ele>1150</ele>
        <time>2013-09-22T06:11:03Z</time>
      </trkpt>
      <trkpt lat="45.56053" lon="2.81424">
        <ele>1155</ele>
        <time>2013-09-22T06:11:05Z</time>
      </trkpt>
      <trkpt lat="45.56099" lon="2.8144">
        <ele>1151</ele>
        <time>2013-09-22T06:11:08Z</time>
      </trkpt>
      <trkpt lat="45.5617" lon="2.81438">
        <ele>1144</ele>
        <time>2013-09-22T06:11:13Z</time>
      </trkpt>
      <trkpt lat="45.56186" lon="2.81432">
        <ele>1144</ele>
        <time>2013-09-22T06:11:14Z</time>
      </trkpt>
      <trkpt lat="45.562" lon="2.81429">
        <ele>1145</ele>
        <time>2013-09-22T06:11:15Z</time>
      </trkpt>
      <trkpt lat="45.56241" lon="2.81418">
        <ele>1137</ele>
        <time>2013-09-22T06:11:18Z</time>
      </trkpt>
      <trkpt lat="45.56296" lon="2.81411">
        <ele>1124</ele>
        <time>2013-09-22T06:11:22Z</time>
      </trkpt>
      <trkpt lat="45.56325" lon="2.8141">
        <ele>1123</ele>
        <time>2013-09-22T06:11:24Z</time>
      </trkpt>
      <trkpt lat="45.56342" lon="2.81409">
        <ele>1121</ele>
        <time>2013-09-22T06:11:25Z</time>
      </trkpt>
      <trkpt lat="45.56383" lon="2.81408">
        <ele>1117</ele>
        <time>2013-09-22T06:11:28Z</time>
      </trkpt>
      <trkpt lat="45.56408" lon="2.81407">
        <ele>1118</ele>
        <time>2013-09-22T06:11:30Z</time>
      </trkpt>
      <trkpt lat="45.56452" lon="2.81408">
        <ele>1114</ele>
        <time>2013-09-22T06:11:33Z</time>
      </trkpt>
      <trkpt lat="45.56493" lon="2.81408">
        <ele>1115</ele>
        <time>2013-09-22T06:11:36Z</time>
      </trkpt>
      <trkpt lat="45.56511" lon="2.81408">
        <ele>1112</ele>
        <time>2013-09-22T06:11:37Z</time>
      </trkpt>
      <trkpt lat="45.56587" lon="2.81409">
        <ele>1106</ele>
        <time>2013-09-22T06:11:42Z</time>
      </trkpt>
      <trkpt lat="45.56608" lon="2.81408">
        <ele>1103</ele>
        <time>2013-09-22T06:11:44Z</time>
      </trkpt>
      <trkpt lat="45.56629" lon="2.81403">
        <ele>1100</ele>
        <time>2013-09-22T06:11:45Z</time>
      </trkpt>
      <trkpt lat="45.5664" lon="2.81394">
        <ele>1100</ele>
        <time>2013-09-22T06:11:46Z</time>
      </trkpt>
      <trkpt lat="45.56652" lon="2.81381">
        <ele>1098</ele>
        <time>2013-09-22T06:11:47Z</time>
      </trkpt>
      <trkpt lat="45.56661" lon="2.81367">
        <ele>1096</ele>
        <time>2013-09-22T06:11:48Z</time>
      </trkpt>
      <trkpt lat="45.56672" lon="2.81348">
        <ele>1091</ele>
        <time>2013-09-22T06:11:49Z</time>
      </trkpt>
      <trkpt lat="45.56719" lon="2.81305">
        <ele>1085</ele>
        <time>2013-09-22T06:11:53Z</time>
      </trkpt>
      <trkpt lat="45.56736" lon="2.81293">
        <ele>1084</ele>
        <time>2013-09-22T06:11:55Z</time>
      </trkpt>
      <trkpt lat="45.56792" lon="2.81277">
        <ele>1081</ele>
        <time>2013-09-22T06:11:59Z</time>
      </trkpt>
      <trkpt lat="45.56832" lon="2.81272">
        <ele>1080</ele>
        <time>2013-09-22T06:12:02Z</time>
      </trkpt>
      <trkpt lat="45.5688" lon="2.81281">
        <ele>1076</ele>
        <time>2013-09-22T06:12:06Z</time>
      </trkpt>
      <trkpt lat="45.56906" lon="2.8129">
        <ele>1076</ele>
        <time>2013-09-22T06:12:08Z</time>
      </trkpt>
      <trkpt lat="45.56934" lon="2.8129">
        <ele>1072</ele>
        <time>2013-09-22T06:12:10Z</time>
      </trkpt>
      <trkpt lat="45.56946" lon="2.81285">
        <ele>1072</ele>
        <time>2013-09-22T06:12:11Z</time>
      </trkpt>
      <trkpt lat="45.56983" lon="2.81266">
        <ele>1069</ele>
        <time>2013-09-22T06:12:14Z</time>
      </trkpt>
      <trkpt lat="45.57028" lon="2.81246">
        <ele>1062</ele>
        <time>2013-09-22T06:12:18Z</time>
      </trkpt>
      <trkpt lat="45.57049" lon="2.81233">
        <ele>1061</ele>
        <time>2013-09-22T06:12:20Z</time>
      </trkpt>
      <trkpt lat="45.57095" lon="2.81184">
        <ele>1059</ele>
        <time>2013-09-22T06:12:25Z</time>
      </trkpt>
      <trkpt lat="45.57113" lon="2.81168">
        <ele>1059</ele>
        <time>2013-09-22T06:12:27Z</time>
      </trkpt>
      <trkpt lat="45.57147" lon="2.81141">
        <ele>1055</ele>
        <time>2013-09-22T06:12:31Z</time>
      </trkpt>
      <trkpt lat="45.57165" lon="2.81129">
        <ele>1055</ele>
        <time>2013-09-22T06:12:33Z</time>
      </trkpt>
      <trkpt lat="45.57197" lon="2.81106">
        <ele>1053</ele>
        <time>2013-09-22T06:12:38Z</time>
      </trkpt>
      <trkpt lat="45.57206" lon="2.81104">
        <ele>1053</ele>
        <time>2013-09-22T06:12:39Z</time>
      </trkpt>
      <trkpt lat="45.57238" lon="2.81071">
        <ele>1050</ele>
        <time>2013-09-22T06:12:47Z</time>
      </trkpt>
      <trkpt lat="45.57237" lon="2.8106">
        <ele>1050</ele>
        <time>2013-09-22T06:12:48Z</time>
      </trkpt>
      <trkpt lat="45.57235" lon="2.81031">
        <ele>1049</ele>
        <time>2013-09-22T06:12:53Z</time>
      </trkpt>
      <trkpt lat="45.57227" lon="2.81013">
        <ele>1049</ele>
        <time>2013-09-22T06:12:57Z</time>
      </trkpt>
      <trkpt lat="45.57226" lon="2.81007">
        <ele>1049</ele>
        <time>2013-09-22T06:12:59Z</time>
      </trkpt>
      <trkpt lat="45.57232" lon="2.80999">
        <ele>1048</ele>
        <time>2013-09-22T06:13:02Z</time>
      </trkpt>
      <trkpt lat="45.57262" lon="2.80979">
        <ele>1046</ele>
        <time>2013-09-22T06:13:09Z</time>
      </trkpt>
      <trkpt lat="45.57283" lon="2.80959">
        <ele>1046</ele>
        <time>2013-09-22T06:13:14Z</time>
      </trkpt>
      <trkpt lat="45.57293" lon="2.80949">
        <ele>1046</ele>
        <time>2013-09-22T06:13:17Z</time>
      </trkpt>
      <trkpt lat="45.57303" lon="2.80935">
        <ele>1045</ele>
        <time>2013-09-22T06:13:27Z</time>
      </trkpt>
      <trkpt lat="45.57303" lon="2.80935">
        <ele>1045</ele>
        <time>2013-09-22T06:13:45Z</time>
      </trkpt>
      <trkpt lat="45.57307" lon="2.80939">
        <ele>1045</ele>
        <time>2013-09-22T06:13:51Z</time>
      </trkpt>
      <trkpt lat="45.57332" lon="2.80987">
        <ele>1048</ele>
        <time>2013-09-22T06:14:06Z</time>
      </trkpt>
      <trkpt lat="45.57347" lon="2.81033">
        <ele>1049</ele>
        <time>2013-09-22T06:14:19Z</time>
      </trkpt>
      <trkpt lat="45.57381" lon="2.8105">
        <ele>1049</ele>
        <time>2013-09-22T06:14:32Z</time>
      </trkpt>
      <trkpt lat="45.57398" lon="2.81041">
        <ele>1048</ele>
        <time>2013-09-22T06:14:47Z</time>
      </trkpt>
      <trkpt lat="45.57438" lon="2.81022">
        <ele>1046</ele>
        <time>2013-09-22T06:14:59Z</time>
      </trkpt>
      <trkpt lat="45.5749" lon="2.80999">
        <ele>1042</ele>
        <time>2013-09-22T06:15:10Z</time>
      </trkpt>
      <trkpt lat="45.57542" lon="2.80976">
        <ele>1039</ele>
        <time>2013-09-22T06:15:18Z</time>
      </trkpt>
      <trkpt lat="45.5762" lon="2.80939">
        <ele>1039</ele>
        <time>2013-09-22T06:15:28Z</time>
      </trkpt>
      <trkpt lat="45.57626" lon="2.80934">
        <ele>1038</ele>
        <time>2013-09-22T06:15:29Z</time>
      </trkpt>
      <trkpt lat="45.57659" lon="2.80915">
        <ele>1031</ele>
        <time>2013-09-22T06:15:33Z</time>
      </trkpt>
      <trkpt lat="45.57706" lon="2.80877">
        <ele>1031</ele>
        <time>2013-09-22T06:15:39Z</time>
      </trkpt>
      <trkpt lat="45.57729" lon="2.80856">
        <ele>1031</ele>
        <time>2013-09-22T06:15:42Z</time>
      </trkpt>
      <trkpt lat="45.57802" lon="2.80783">
        <ele>1024</ele>
        <time>2013-09-22T06:15:52Z</time>
      </trkpt>
      <trkpt lat="45.57868" lon="2.80721">
        <ele>1019</ele>
        <time>2013-09-22T06:16:01Z</time>
      </trkpt>
      <trkpt lat="45.57895" lon="2.80704">
        <ele>1019</ele>
        <time>2013-09-22T06:16:04Z</time>
      </trkpt>
      <trkpt lat="45.57917" lon="2.80692">
        <ele>1018</ele>
        <time>2013-09-22T06:16:07Z</time>
      </trkpt>
      <trkpt lat="45.57941" lon="2.80659">
        <ele>1014</ele>
        <time>2013-09-22T06:16:11Z</time>
      </trkpt>
      <trkpt lat="45.57952" lon="2.80635">
        <ele>1014</ele>
        <time>2013-09-22T06:16:13Z</time>
      </trkpt>
      <trkpt lat="45.5798" lon="2.80573">
        <ele>1010</ele>
        <time>2013-09-22T06:16:19Z</time>
      </trkpt>
      <trkpt lat="45.57985" lon="2.8056">
        <ele>1010</ele>
        <time>2013-09-22T06:16:20Z</time>
      </trkpt>
      <trkpt lat="45.58004" lon="2.80482">
        <ele>1007</ele>
        <time>2013-09-22T06:16:26Z</time>
      </trkpt>
      <trkpt lat="45.58017" lon="2.80386">
        <ele>1005</ele>
        <time>2013-09-22T06:16:33Z</time>
      </trkpt>
      <trkpt lat="45.58044" lon="2.80313">
        <ele>1004</ele>
        <time>2013-09-22T06:16:39Z</time>
      </trkpt>
      <trkpt lat="45.5807" lon="2.80279">
        <ele>1004</ele>
        <time>2013-09-22T06:16:43Z</time>
      </trkpt>
      <trkpt lat="45.58093" lon="2.80271">
        <ele>1000</ele>
        <time>2013-09-22T06:16:46Z</time>
      </trkpt>
      <trkpt lat="45.58188" lon="2.80288">
        <ele>995</ele>
        <time>2013-09-22T06:16:58Z</time>
      </trkpt>
      <trkpt lat="45.58285" lon="2.80269">
        <ele>993</ele>
        <time>2013-09-22T06:17:11Z</time>
      </trkpt>
      <trkpt lat="45.58299" lon="2.80263">
        <ele>993</ele>
        <time>2013-09-22T06:17:13Z</time>
      </trkpt>
      <trkpt lat="45.58304" lon="2.80256">
        <ele>993</ele>
        <time>2013-09-22T06:17:14Z</time>
      </trkpt>
      <trkpt lat="45.58308" lon="2.80246">
        <ele>991</ele>
        <time>2013-09-22T06:17:15Z</time>
      </trkpt>
      <trkpt lat="45.58311" lon="2.80236">
        <ele>991</ele>
        <time>2013-09-22T06:17:16Z</time>
      </trkpt>
      <trkpt lat="45.58315" lon="2.80214">
        <ele>991</ele>
        <time>2013-09-22T06:17:18Z</time>
      </trkpt>
      <trkpt lat="45.58319" lon="2.80205">
        <ele>991</ele>
        <time>2013-09-22T06:17:19Z</time>
      </trkpt>
      <trkpt lat="45.58324" lon="2.80198">
        <ele>991</ele>
        <time>2013-09-22T06:17:20Z</time>
      </trkpt>
      <trkpt lat="45.58396" lon="2.8015">
        <ele>990</ele>
        <time>2013-09-22T06:17:30Z</time>
      </trkpt>
      <trkpt lat="45.58444" lon="2.80102">
        <ele>988</ele>
        <time>2013-09-22T06:17:37Z</time>
      </trkpt>
      <trkpt lat="45.58452" lon="2.80097">
        <ele>988</ele>
        <time>2013-09-22T06:17:38Z</time>
      </trkpt>
      <trkpt lat="45.5846" lon="2.80093">
        <ele>988</ele>
        <time>2013-09-22T06:17:39Z</time>
      </trkpt>
      <trkpt lat="45.58469" lon="2.8009">
        <ele>987</ele>
        <time>2013-09-22T06:17:40Z</time>
      </trkpt>
      <trkpt lat="45.58477" lon="2.80088">
        <ele>987</ele>
        <time>2013-09-22T06:17:41Z</time>
      </trkpt>
      <trkpt lat="45.58535" lon="2.80065">
        <ele>984</ele>
        <time>2013-09-22T06:17:48Z</time>
      </trkpt>
      <trkpt lat="45.58542" lon="2.80058">
        <ele>984</ele>
        <time>2013-09-22T06:17:49Z</time>
      </trkpt>
      <trkpt lat="45.58555" lon="2.80044">
        <ele>984</ele>
        <time>2013-09-22T06:17:51Z</time>
      </trkpt>
      <trkpt lat="45.58566" lon="2.8003">
        <ele>983</ele>
        <time>2013-09-22T06:17:53Z</time>
      </trkpt>
      <trkpt lat="45.58569" lon="2.80022">
        <ele>983</ele>
        <time>2013-09-22T06:17:54Z</time>
      </trkpt>
      <trkpt lat="45.5857" lon="2.80017">
        <ele>983</ele>
        <time>2013-09-22T06:17:55Z</time>
      </trkpt>
      <trkpt lat="45.58571" lon="2.80013">
        <ele>982</ele>
        <time>2013-09-22T06:17:56Z</time>
      </trkpt>
      <trkpt lat="45.58571" lon="2.80011">
        <ele>982</ele>
        <time>2013-09-22T06:17:57Z</time>
      </trkpt>
      <trkpt lat="45.5857" lon="2.80009">
        <ele>982</ele>
        <time>2013-09-22T06:17:58Z</time>
      </trkpt>
      <trkpt lat="45.58569" lon="2.8001">
        <ele>982</ele>
        <time>2013-09-22T06:17:59Z</time>
      </trkpt>
      <trkpt lat="45.58569" lon="2.80011">
        <ele>982</ele>
        <time>2013-09-22T06:18:00Z</time>
      </trkpt>
      <trkpt lat="45.58568" lon="2.80013">
        <ele>983</ele>
        <time>2013-09-22T06:18:01Z</time>
      </trkpt>
      <trkpt lat="45.58567" lon="2.80016">
        <ele>983</ele>
        <time>2013-09-22T06:18:02Z</time>
      </trkpt>
      <trkpt lat="45.58566" lon="2.80018">
        <ele>983</ele>
        <time>2013-09-22T06:18:03Z</time>
      </trkpt>
      <trkpt lat="45.58566" lon="2.80021">
        <ele>983</ele>
        <time>2013-09-22T06:18:04Z</time>
      </trkpt>
      <trkpt lat="45.58566" lon="2.80025">
        <ele>983</ele>
        <time>2013-09-22T06:18:05Z</time>
      </trkpt>
      <trkpt lat="45.58566" lon="2.80028">
        <ele>983</ele>
        <time>2013-09-22T06:18:06Z</time>
      </trkpt>
      <trkpt lat="45.58567" lon="2.80032">
        <ele>983</ele>
        <time>2013-09-22T06:18:07Z</time>
      </trkpt>
      <trkpt lat="45.5857" lon="2.80034">
        <ele>983</ele>
        <time>2013-09-22T06:18:10Z</time>
      </trkpt>
      <trkpt lat="45.58575" lon="2.80017">
        <ele>983</ele>
        <time>2013-09-22T06:18:14Z</time>
      </trkpt>
      <trkpt lat="45.58577" lon="2.80005">
        <ele>982</ele>
        <time>2013-09-22T06:18:16Z</time>
      </trkpt>
      <trkpt lat="45.58579" lon="2.79992">
        <ele>982</ele>
        <time>2013-09-22T06:18:18Z</time>
      </trkpt>
      <trkpt lat="45.58597" lon="2.79939">
        <ele>981</ele>
        <time>2013-09-22T06:18:26Z</time>
      </trkpt>
      <trkpt lat="45.586" lon="2.79934">
        <ele>981</ele>
        <time>2013-09-22T06:18:27Z</time>
      </trkpt>
      <trkpt lat="45.58612" lon="2.79913">
        <ele>980</ele>
        <time>2013-09-22T06:18:32Z</time>
      </trkpt>
      <trkpt lat="45.58624" lon="2.79893">
        <ele>980</ele>
        <time>2013-09-22T06:18:36Z</time>
      </trkpt>
      <trkpt lat="45.58639" lon="2.79859">
        <ele>980</ele>
        <time>2013-09-22T06:18:42Z</time>
      </trkpt>
      <trkpt lat="45.58642" lon="2.79852">
        <ele>980</ele>
        <time>2013-09-22T06:18:43Z</time>
      </trkpt>
      <trkpt lat="45.58644" lon="2.79844">
        <ele>980</ele>
        <time>2013-09-22T06:18:44Z</time>
      </trkpt>
      <trkpt lat="45.58646" lon="2.79836">
        <ele>979</ele>
        <time>2013-09-22T06:18:45Z</time>
      </trkpt>
      <trkpt lat="45.58648" lon="2.79829">
        <ele>979</ele>
        <time>2013-09-22T06:18:46Z</time>
      </trkpt>
      <trkpt lat="45.58654" lon="2.79785">
        <ele>979</ele>
        <time>2013-09-22T06:18:52Z</time>
      </trkpt>
      <trkpt lat="45.58654" lon="2.79776">
        <ele>978</ele>
        <time>2013-09-22T06:18:53Z</time>
      </trkpt>
      <trkpt lat="45.58652" lon="2.79767">
        <ele>978</ele>
        <time>2013-09-22T06:18:54Z</time>
      </trkpt>
      <trkpt lat="45.58649" lon="2.79759">
        <ele>978</ele>
        <time>2013-09-22T06:18:55Z</time>
      </trkpt>
      <trkpt lat="45.58633" lon="2.79721">
        <ele>980</ele>
        <time>2013-09-22T06:19:00Z</time>
      </trkpt>
      <trkpt lat="45.58632" lon="2.79713">
        <ele>980</ele>
        <time>2013-09-22T06:19:01Z</time>
      </trkpt>
      <trkpt lat="45.58627" lon="2.79677">
        <ele>981</ele>
        <time>2013-09-22T06:19:05Z</time>
      </trkpt>
      <trkpt lat="45.58626" lon="2.79668">
        <ele>981</ele>
        <time>2013-09-22T06:19:06Z</time>
      </trkpt>
      <trkpt lat="45.5863" lon="2.79607">
        <ele>984</ele>
        <time>2013-09-22T06:19:13Z</time>
      </trkpt>
      <trkpt lat="45.58656" lon="2.79484">
        <ele>979</ele>
        <time>2013-09-22T06:19:26Z</time>
      </trkpt>
      <trkpt lat="45.58679" lon="2.79408">
        <ele>972</ele>
        <time>2013-09-22T06:19:36Z</time>
      </trkpt>
      <trkpt lat="45.58698" lon="2.79363">
        <ele>973</ele>
        <time>2013-09-22T06:19:42Z</time>
      </trkpt>
      <trkpt lat="45.58701" lon="2.79356">
        <ele>973</ele>
        <time>2013-09-22T06:19:43Z</time>
      </trkpt>
      <trkpt lat="45.58705" lon="2.7934">
        <ele>973</ele>
        <time>2013-09-22T06:19:45Z</time>
      </trkpt>
      <trkpt lat="45.58705" lon="2.79331">
        <ele>974</ele>
        <time>2013-09-22T06:19:46Z</time>
      </trkpt>
      <trkpt lat="45.58706" lon="2.79288">
        <ele>974</ele>
        <time>2013-09-22T06:19:50Z</time>
      </trkpt>
      <trkpt lat="45.58707" lon="2.79277">
        <ele>974</ele>
        <time>2013-09-22T06:19:51Z</time>
      </trkpt>
      <trkpt lat="45.5872" lon="2.7921">
        <ele>972</ele>
        <time>2013-09-22T06:19:59Z</time>
      </trkpt>
      <trkpt lat="45.58723" lon="2.79203">
        <ele>972</ele>
        <time>2013-09-22T06:20:00Z</time>
      </trkpt>
      <trkpt lat="45.58725" lon="2.79197">
        <ele>972</ele>
        <time>2013-09-22T06:20:01Z</time>
      </trkpt>
      <trkpt lat="45.58727" lon="2.79191">
        <ele>972</ele>
        <time>2013-09-22T06:20:02Z</time>
      </trkpt>
      <trkpt lat="45.5873" lon="2.79184">
        <ele>971</ele>
        <time>2013-09-22T06:20:03Z</time>
      </trkpt>
      <trkpt lat="45.58735" lon="2.79174">
        <ele>970</ele>
        <time>2013-09-22T06:20:05Z</time>
      </trkpt>
      <trkpt lat="45.58738" lon="2.79159">
        <ele>968</ele>
        <time>2013-09-22T06:20:08Z</time>
      </trkpt>
      <trkpt lat="45.58737" lon="2.79144">
        <ele>968</ele>
        <time>2013-09-22T06:20:11Z</time>
      </trkpt>
      <trkpt lat="45.58734" lon="2.79133">
        <ele>968</ele>
        <time>2013-09-22T06:20:19Z</time>
      </trkpt>
      <trkpt lat="45.58734" lon="2.79128">
        <ele>967</ele>
        <time>2013-09-22T06:20:22Z</time>
      </trkpt>
      <trkpt lat="45.58739" lon="2.79111">
        <ele>966</ele>
        <time>2013-09-22T06:20:28Z</time>
      </trkpt>
      <trkpt lat="45.58741" lon="2.79107">
        <ele>966</ele>
        <time>2013-09-22T06:20:30Z</time>
      </trkpt>
      <trkpt lat="45.58738" lon="2.791">
        <ele>965</ele>
        <time>2013-09-22T06:20:34Z</time>
      </trkpt>
      <trkpt lat="45.58729" lon="2.79053">
        <ele>963</ele>
        <time>2013-09-22T06:20:44Z</time>
      </trkpt>
      <trkpt lat="45.58728" lon="2.79041">
        <ele>963</ele>
        <time>2013-09-22T06:20:46Z</time>
      </trkpt>
      <trkpt lat="45.58728" lon="2.78984">
        <ele>959</ele>
        <time>2013-09-22T06:20:52Z</time>
      </trkpt>
      <trkpt lat="45.58728" lon="2.78978">
        <ele>959</ele>
        <time>2013-09-22T06:20:53Z</time>
      </trkpt>
      <trkpt lat="45.58725" lon="2.78971">
        <ele>959</ele>
        <time>2013-09-22T06:20:54Z</time>
      </trkpt>
      <trkpt lat="45.58713" lon="2.78946">
        <ele>958</ele>
        <time>2013-09-22T06:20:58Z</time>
      </trkpt>
      <trkpt lat="45.58704" lon="2.78902">
        <ele>955</ele>
        <time>2013-09-22T06:21:03Z</time>
      </trkpt>
      <trkpt lat="45.58703" lon="2.78894">
        <ele>955</ele>
        <time>2013-09-22T06:21:04Z</time>
      </trkpt>
      <trkpt lat="45.58709" lon="2.7886">
        <ele>955</ele>
        <time>2013-09-22T06:21:09Z</time>
      </trkpt>
      <trkpt lat="45.58703" lon="2.78828">
        <ele>955</ele>
        <time>2013-09-22T06:21:14Z</time>
      </trkpt>
      <trkpt lat="45.58703" lon="2.78823">
        <ele>955</ele>
        <time>2013-09-22T06:21:15Z</time>
      </trkpt>
      <trkpt lat="45.58704" lon="2.78805">
        <ele>955</ele>
        <time>2013-09-22T06:21:17Z</time>
      </trkpt>
      <trkpt lat="45.58707" lon="2.78781">
        <ele>955</ele>
        <time>2013-09-22T06:21:20Z</time>
      </trkpt>
      <trkpt lat="45.58709" lon="2.78773">
        <ele>955</ele>
        <time>2013-09-22T06:21:21Z</time>
      </trkpt>
      <trkpt lat="45.58721" lon="2.78731">
        <ele>955</ele>
        <time>2013-09-22T06:21:26Z</time>
      </trkpt>
      <trkpt lat="45.58751" lon="2.78683">
        <ele>959</ele>
        <time>2013-09-22T06:21:34Z</time>
      </trkpt>
      <trkpt lat="45.5876" lon="2.78639">
        <ele>961</ele>
        <time>2013-09-22T06:21:39Z</time>
      </trkpt>
      <trkpt lat="45.58766" lon="2.7861">
        <ele>961</ele>
        <time>2013-09-22T06:21:43Z</time>
      </trkpt>
      <trkpt lat="45.58769" lon="2.78597">
        <ele>961</ele>
        <time>2013-09-22T06:21:45Z</time>
      </trkpt>
      <trkpt lat="45.58771" lon="2.78561">
        <ele>963</ele>
        <time>2013-09-22T06:21:53Z</time>
      </trkpt>
      <trkpt lat="45.58761" lon="2.78542">
        <ele>963</ele>
        <time>2013-09-22T06:22:03Z</time>
      </trkpt>
      <trkpt lat="45.58754" lon="2.78534">
        <ele>962</ele>
        <time>2013-09-22T06:22:08Z</time>
      </trkpt>
      <trkpt lat="45.58732" lon="2.78524">
        <ele>954</ele>
        <time>2013-09-22T06:22:19Z</time>
      </trkpt>
      <trkpt lat="45.58709" lon="2.78503">
        <ele>954</ele>
        <time>2013-09-22T06:22:33Z</time>
      </trkpt>
      <trkpt lat="45.58685" lon="2.78489">
        <ele>952</ele>
        <time>2013-09-22T06:22:46Z</time>
      </trkpt>
      <trkpt lat="45.5867" lon="2.78461">
        <ele>950</ele>
        <time>2013-09-22T06:23:00Z</time>
      </trkpt>
      <trkpt lat="45.5867" lon="2.78416">
        <ele>945</ele>
        <time>2013-09-22T06:23:10Z</time>
      </trkpt>
      <trkpt lat="45.5867" lon="2.78402">
        <ele>945</ele>
        <time>2013-09-22T06:23:12Z</time>
      </trkpt>
      <trkpt lat="45.58673" lon="2.78392">
        <ele>945</ele>
        <time>2013-09-22T06:23:14Z</time>
      </trkpt>
      <trkpt lat="45.58674" lon="2.78369">
        <ele>944</ele>
        <time>2013-09-22T06:23:16Z</time>
      </trkpt>
      <trkpt lat="45.58675" lon="2.78349">
        <ele>943</ele>
        <time>2013-09-22T06:23:18Z</time>
      </trkpt>
      <trkpt lat="45.58675" lon="2.78328">
        <ele>940</ele>
        <time>2013-09-22T06:23:20Z</time>
      </trkpt>
      <trkpt lat="45.58696" lon="2.78202">
        <ele>944</ele>
        <time>2013-09-22T06:23:33Z</time>
      </trkpt>
      <trkpt lat="45.58721" lon="2.78137">
        <ele>944</ele>
        <time>2013-09-22T06:23:41Z</time>
      </trkpt>
      <trkpt lat="45.58733" lon="2.78117">
        <ele>942</ele>
        <time>2013-09-22T06:23:44Z</time>
      </trkpt>
      <trkpt lat="45.58757" lon="2.78082">
        <ele>933</ele>
        <time>2013-09-22T06:23:49Z</time>
      </trkpt>
      <trkpt lat="45.58769" lon="2.78051">
        <ele>939</ele>
        <time>2013-09-22T06:23:53Z</time>
      </trkpt>
      <trkpt lat="45.58773" lon="2.77986">
        <ele>938</ele>
        <time>2013-09-22T06:24:00Z</time>
      </trkpt>
      <trkpt lat="45.58769" lon="2.77956">
        <ele>938</ele>
        <time>2013-09-22T06:24:05Z</time>
      </trkpt>
      <trkpt lat="45.58752" lon="2.77927">
        <ele>932</ele>
        <time>2013-09-22T06:24:09Z</time>
      </trkpt>
      <trkpt lat="45.58747" lon="2.77899">
        <ele>937</ele>
        <time>2013-09-22T06:24:13Z</time>
      </trkpt>
      <trkpt lat="45.58746" lon="2.77886">
        <ele>940</ele>
        <time>2013-09-22T06:24:15Z</time>
      </trkpt>
      <trkpt lat="45.58746" lon="2.77857">
        <ele>938</ele>
        <time>2013-09-22T06:24:20Z</time>
      </trkpt>
      <trkpt lat="45.58759" lon="2.77838">
        <ele>931</ele>
        <time>2013-09-22T06:24:24Z</time>
      </trkpt>
      <trkpt lat="45.58777" lon="2.77801">
        <ele>931</ele>
        <time>2013-09-22T06:24:29Z</time>
      </trkpt>
      <trkpt lat="45.58791" lon="2.77779">
        <ele>931</ele>
        <time>2013-09-22T06:24:33Z</time>
      </trkpt>
      <trkpt lat="45.58805" lon="2.7776">
        <ele>931</ele>
        <time>2013-09-22T06:24:36Z</time>
      </trkpt>
      <trkpt lat="45.58815" lon="2.77736">
        <ele>927</ele>
        <time>2013-09-22T06:24:42Z</time>
      </trkpt>
      <trkpt lat="45.58831" lon="2.77727">
        <ele>926</ele>
        <time>2013-09-22T06:24:51Z</time>
      </trkpt>
      <trkpt lat="45.5886" lon="2.77712">
        <ele>931</ele>
        <time>2013-09-22T06:25:06Z</time>
      </trkpt>
      <trkpt lat="45.58876" lon="2.77702">
        <ele>933</ele>
        <time>2013-09-22T06:25:17Z</time>
      </trkpt>
      <trkpt lat="45.58881" lon="2.77695">
        <ele>933</ele>
        <time>2013-09-22T06:25:27Z</time>
      </trkpt>
      <trkpt lat="45.58879" lon="2.77686">
        <ele>932</ele>
        <time>2013-09-22T06:25:33Z</time>
      </trkpt>
      <trkpt lat="45.58878" lon="2.77679">
        <ele>932</ele>
        <time>2013-09-22T06:25:37Z</time>
      </trkpt>
      <trkpt lat="45.5887" lon="2.77651">
        <ele>927</ele>
        <time>2013-09-22T06:25:52Z</time>
      </trkpt>
      <trkpt lat="45.5887" lon="2.77639">
        <ele>927</ele>
        <time>2013-09-22T06:25:58Z</time>
      </trkpt>
      <trkpt lat="45.5889" lon="2.77617">
        <ele>930</ele>
        <time>2013-09-22T06:26:07Z</time>
      </trkpt>
      <trkpt lat="45.58899" lon="2.77592">
        <ele>932</ele>
        <time>2013-09-22T06:26:22Z</time>
      </trkpt>
      <trkpt lat="45.58902" lon="2.77589">
        <ele>933</ele>
        <time>2013-09-22T06:26:26Z</time>
      </trkpt>
      <trkpt lat="45.58926" lon="2.77585">
        <ele>939</ele>
        <time>2013-09-22T06:26:41Z</time>
      </trkpt>
      <trkpt lat="45.58938" lon="2.7755">
        <ele>937</ele>
        <time>2013-09-22T06:26:55Z</time>
      </trkpt>
      <trkpt lat="45.58941" lon="2.77543">
        <ele>937</ele>
        <time>2013-09-22T06:26:57Z</time>
      </trkpt>
      <trkpt lat="45.58943" lon="2.77539">
        <ele>937</ele>
        <time>2013-09-22T06:26:58Z</time>
      </trkpt>
      <trkpt lat="45.58949" lon="2.7753">
        <ele>937</ele>
        <time>2013-09-22T06:27:02Z</time>
      </trkpt>
      <trkpt lat="45.58952" lon="2.77533">
        <ele>937</ele>
        <time>2013-09-22T06:27:05Z</time>
      </trkpt>
      <trkpt lat="45.58961" lon="2.77528">
        <ele>937</ele>
        <time>2013-09-22T06:27:10Z</time>
      </trkpt>
      <trkpt lat="45.5897" lon="2.77519">
        <ele>937</ele>
        <time>2013-09-22T06:27:13Z</time>
      </trkpt>
      <trkpt lat="45.58973" lon="2.77515">
        <ele>936</ele>
        <time>2013-09-22T06:27:14Z</time>
      </trkpt>
      <trkpt lat="45.58984" lon="2.77503">
        <ele>936</ele>
        <time>2013-09-22T06:27:17Z</time>
      </trkpt>
      <trkpt lat="45.58994" lon="2.7748">
        <ele>932</ele>
        <time>2013-09-22T06:27:20Z</time>
      </trkpt>
      <trkpt lat="45.58996" lon="2.77441">
        <ele>928</ele>
        <time>2013-09-22T06:27:22Z</time>
      </trkpt>
      <trkpt lat="45.58985" lon="2.77422">
        <ele>926</ele>
        <time>2013-09-22T06:27:23Z</time>
      </trkpt>
      <trkpt lat="45.58978" lon="2.77406">
        <ele>920</ele>
        <time>2013-09-22T06:27:24Z</time>
      </trkpt>
      <trkpt lat="45.58976" lon="2.77397">
        <ele>920</ele>
        <time>2013-09-22T06:27:25Z</time>
      </trkpt>
      <trkpt lat="45.58972" lon="2.77389">
        <ele>919</ele>
        <time>2013-09-22T06:27:26Z</time>
      </trkpt>
      <trkpt lat="45.58966" lon="2.77383">
        <ele>919</ele>
        <time>2013-09-22T06:27:27Z</time>
      </trkpt>
      <trkpt lat="45.58961" lon="2.77378">
        <ele>918</ele>
        <time>2013-09-22T06:27:28Z</time>
      </trkpt>
      <trkpt lat="45.58955" lon="2.77375">
        <ele>918</ele>
        <time>2013-09-22T06:27:29Z</time>
      </trkpt>
      <trkpt lat="45.58941" lon="2.77373">
        <ele>918</ele>
        <time>2013-09-22T06:27:31Z</time>
      </trkpt>
      <trkpt lat="45.58928" lon="2.77375">
        <ele>918</ele>
        <time>2013-09-22T06:27:33Z</time>
      </trkpt>
      <trkpt lat="45.58923" lon="2.77374">
        <ele>918</ele>
        <time>2013-09-22T06:27:34Z</time>
      </trkpt>
      <trkpt lat="45.5892" lon="2.77372">
        <ele>918</ele>
        <time>2013-09-22T06:27:35Z</time>
      </trkpt>
      <trkpt lat="45.58916" lon="2.77368">
        <ele>922</ele>
        <time>2013-09-22T06:27:36Z</time>
      </trkpt>
      <trkpt lat="45.58912" lon="2.77363">
        <ele>922</ele>
        <time>2013-09-22T06:27:37Z</time>
      </trkpt>
      <trkpt lat="45.5891" lon="2.77358">
        <ele>921</ele>
        <time>2013-09-22T06:27:38Z</time>
      </trkpt>
      <trkpt lat="45.58908" lon="2.77353">
        <ele>920</ele>
        <time>2013-09-22T06:27:39Z</time>
      </trkpt>
      <trkpt lat="45.58906" lon="2.77347">
        <ele>919</ele>
        <time>2013-09-22T06:27:40Z</time>
      </trkpt>
      <trkpt lat="45.58906" lon="2.77322">
        <ele>919</ele>
        <time>2013-09-22T06:27:49Z</time>
      </trkpt>
      <trkpt lat="45.5891" lon="2.7732">
        <ele>918</ele>
        <time>2013-09-22T06:27:51Z</time>
      </trkpt>
      <trkpt lat="45.58916" lon="2.77316">
        <ele>918</ele>
        <time>2013-09-22T06:28:01Z</time>
      </trkpt>
      <trkpt lat="45.58917" lon="2.77316">
        <ele>910</ele>
        <time>2013-09-22T06:28:09Z</time>
      </trkpt>
      <trkpt lat="45.58922" lon="2.77314">
        <ele>910</ele>
        <time>2013-09-22T06:28:24Z</time>
      </trkpt>
      <trkpt lat="45.58923" lon="2.77313">
        <ele>910</ele>
        <time>2013-09-22T06:28:36Z</time>
      </trkpt>
      <trkpt lat="45.58922" lon="2.77314">
        <ele>910</ele>
        <time>2013-09-22T06:28:42Z</time>
      </trkpt>
      <trkpt lat="45.58921" lon="2.77313">
        <ele>910</ele>
        <time>2013-09-22T06:28:56Z</time>
      </trkpt>
      <trkpt lat="45.58921" lon="2.77313">
        <ele>910</ele>
        <time>2013-09-22T06:29:06Z</time>
      </trkpt>
      <trkpt lat="45.58921" lon="2.77312">
        <ele>910</ele>
        <time>2013-09-22T06:29:25Z</time>
      </trkpt>
      <trkpt lat="45.58923" lon="2.77313">
        <ele>910</ele>
        <time>2013-09-22T06:29:54Z</time>
      </trkpt>
      <trkpt lat="45.58923" lon="2.77313">
        <ele>910</ele>
        <time>2013-09-22T06:30:19Z</time>
      </trkpt>
      <trkpt lat="45.58925" lon="2.77312">
        <ele>910</ele>
        <time>2013-09-22T06:30:45Z</time>
      </trkpt>
      <trkpt lat="45.58925" lon="2.77312">
        <ele>910</ele>
        <time>2013-09-22T06:31:07Z</time>
      </trkpt>
      <trkpt lat="45.58926" lon="2.77312">
        <ele>910</ele>
        <time>2013-09-22T06:31:31Z</time>
      </trkpt>
      <trkpt lat="45.58927" lon="2.77312">
        <ele>910</ele>
        <time>2013-09-22T06:31:57Z</time>
      </trkpt>
      <trkpt lat="45.58929" lon="2.77312">
        <ele>910</ele>
        <time>2013-09-22T06:32:19Z</time>
      </trkpt>
      <trkpt lat="45.58929" lon="2.77312">
        <ele>910</ele>
        <time>2013-09-22T06:32:42Z</time>
      </trkpt>
      <trkpt lat="45.58929" lon="2.77312">
        <ele>910</ele>
        <time>2013-09-22T06:33:05Z</time>
      </trkpt>
      <trkpt lat="45.5893" lon="2.77312">
        <ele>910</ele>
        <time>2013-09-22T06:33:27Z</time>
      </trkpt>
      <trkpt lat="45.58931" lon="2.77313">
        <ele>910</ele>
        <time>2013-09-22T06:33:41Z</time>
      </trkpt>
      <trkpt lat="45.58931" lon="2.77313">
        <ele>910</ele>
        <time>2013-09-22T06:34:02Z</time>
      </trkpt>
      <trkpt lat="45.58932" lon="2.77313">
        <ele>910</ele>
        <time>2013-09-22T06:34:22Z</time>
      </trkpt>
      <trkpt lat="45.58933" lon="2.77313">
        <ele>910</ele>
        <time>2013-09-22T06:34:40Z</time>
      </trkpt>
      <trkpt lat="45.58934" lon="2.77314">
        <ele>910</ele>
        <time>2013-09-22T06:35:05Z</time>
      </trkpt>
      <trkpt lat="45.58937" lon="2.77314">
        <ele>910</ele>
        <time>2013-09-22T06:35:25Z</time>
      </trkpt>
      <trkpt lat="45.58938" lon="2.77314">
        <ele>910</ele>
        <time>2013-09-22T06:35:44Z</time>
      </trkpt>
      <trkpt lat="45.58938" lon="2.77314">
        <ele>910</ele>
        <time>2013-09-22T06:36:07Z</time>
      </trkpt>
      <trkpt lat="45.58939" lon="2.77315">
        <ele>910</ele>
        <time>2013-09-22T06:36:13Z</time>
      </trkpt>
      <trkpt lat="45.58939" lon="2.77315">
        <ele>910</ele>
        <time>2013-09-22T06:36:33Z</time>
      </trkpt>
      <trkpt lat="45.58939" lon="2.77315">
        <ele>910</ele>
        <time>2013-09-22T06:36:52Z</time>
      </trkpt>
      <trkpt lat="45.58938" lon="2.77314">
        <ele>910</ele>
        <time>2013-09-22T06:37:17Z</time>
      </trkpt>
      <trkpt lat="45.58937" lon="2.77314">
        <ele>910</ele>
        <time>2013-09-22T06:37:39Z</time>
      </trkpt>
      <trkpt lat="45.58937" lon="2.77314">
        <ele>910</ele>
        <time>2013-09-22T06:38:06Z</time>
      </trkpt>
      <trkpt lat="45.58937" lon="2.77314">
        <ele>910</ele>
        <time>2013-09-22T06:38:32Z</time>
      </trkpt>
      <trkpt lat="45.58937" lon="2.77315">
        <ele>910</ele>
        <time>2013-09-22T06:38:56Z</time>
      </trkpt>
      <trkpt lat="45.58937" lon="2.77315">
        <ele>910</ele>
        <time>2013-09-22T06:39:20Z</time>
      </trkpt>
      <trkpt lat="45.58933" lon="2.77313">
        <ele>910</ele>
        <time>2013-09-22T06:39:44Z</time>
      </trkpt>
      <trkpt lat="45.58933" lon="2.77313">
        <ele>910</ele>
        <time>2013-09-22T06:40:10Z</time>
      </trkpt>
      <trkpt lat="45.58932" lon="2.77313">
        <ele>910</ele>
        <time>2013-09-22T06:40:40Z</time>
      </trkpt>
      <trkpt lat="45.58932" lon="2.77313">
        <ele>910</ele>
        <time>2013-09-22T06:41:06Z</time>
      </trkpt>
      <trkpt lat="45.58931" lon="2.77313">
        <ele>910</ele>
        <time>2013-09-22T06:41:31Z</time>
      </trkpt>
      <trkpt lat="45.58931" lon="2.77313">
        <ele>910</ele>
        <time>2013-09-22T06:42:05Z</time>
      </trkpt>
      <trkpt lat="45.58931" lon="2.77313">
        <ele>910</ele>
        <time>2013-09-22T06:42:31Z</time>
      </trkpt>
      <trkpt lat="45.58931" lon="2.77315">
        <ele>910</ele>
        <time>2013-09-22T06:43:00Z</time>
      </trkpt>
      <trkpt lat="45.58931" lon="2.77315">
        <ele>910</ele>
        <time>2013-09-22T06:43:27Z</time>
      </trkpt>
      <trkpt lat="45.58931" lon="2.77315">
        <ele>910</ele>
        <time>2013-09-22T06:43:53Z</time>
      </trkpt>
      <trkpt lat="45.58931" lon="2.77315">
        <ele>910</ele>
        <time>2013-09-22T06:44:20Z</time>
      </trkpt>
      <trkpt lat="45.58931" lon="2.77315">
        <ele>910</ele>
        <time>2013-09-22T06:44:49Z</time>
      </trkpt>
      <trkpt lat="45.58931" lon="2.77315">
        <ele>910</ele>
        <time>2013-09-22T06:45:21Z</time>
      </trkpt>
      <trkpt lat="45.58931" lon="2.77315">
        <ele>910</ele>
        <time>2013-09-22T06:45:47Z</time>
      </trkpt>
      <trkpt lat="45.58925" lon="2.77314">
        <ele>910</ele>
        <time>2013-09-22T06:46:09Z</time>
      </trkpt>
      <trkpt lat="45.58921" lon="2.7731">
        <ele>910</ele>
        <time>2013-09-22T06:46:27Z</time>
      </trkpt>
      <trkpt lat="45.58921" lon="2.7731">
        <ele>910</ele>
        <time>2013-09-22T06:46:42Z</time>
      </trkpt>
      <trkpt lat="45.58921" lon="2.7731">
        <ele>910</ele>
        <time>2013-09-22T06:46:59Z</time>
      </trkpt>
      <trkpt lat="45.58921" lon="2.7731">
        <ele>910</ele>
        <time>2013-09-22T06:47:00Z</time>
      </trkpt>
      <trkpt lat="45.58921" lon="2.7731">
        <ele>910</ele>
        <time>2013-09-22T06:47:01Z</time>
      </trkpt>
      <trkpt lat="45.58921" lon="2.7731">
        <ele>910</ele>
        <time>2013-09-22T06:47:02Z</time>
      </trkpt>
      <trkpt lat="45.58917" lon="2.77309">
        <ele>910</ele>
        <time>2013-09-22T06:47:10Z</time>
      </trkpt>
      <trkpt lat="45.58917" lon="2.77309">
        <ele>910</ele>
        <time>2013-09-22T06:47:31Z</time>
      </trkpt>
      <trkpt lat="45.58916" lon="2.7731">
        <ele>920</ele>
        <time>2013-09-22T06:47:53Z</time>
      </trkpt>
      <trkpt lat="45.5892" lon="2.77317">
        <ele>910</ele>
        <time>2013-09-22T06:48:06Z</time>
      </trkpt>
      <trkpt lat="45.58916" lon="2.77311">
        <ele>919</ele>
        <time>2013-09-22T06:48:11Z</time>
      </trkpt>
      <trkpt lat="45.5891" lon="2.77296">
        <ele>921</ele>
        <time>2013-09-22T06:48:18Z</time>
      </trkpt>
      <trkpt lat="45.58906" lon="2.77277">
        <ele>921</ele>
        <time>2013-09-22T06:48:23Z</time>
      </trkpt>
      <trkpt lat="45.58904" lon="2.77199">
        <ele>922</ele>
        <time>2013-09-22T06:48:39Z</time>
      </trkpt>
      <trkpt lat="45.58937" lon="2.77123">
        <ele>906</ele>
        <time>2013-09-22T06:48:55Z</time>
      </trkpt>
      <trkpt lat="45.58933" lon="2.76962">
        <ele>903</ele>
        <time>2013-09-22T06:49:08Z</time>
      </trkpt>
      <trkpt lat="45.58984" lon="2.76843">
        <ele>896</ele>
        <time>2013-09-22T06:49:18Z</time>
      </trkpt>
      <trkpt lat="45.58986" lon="2.76832">
        <ele>895</ele>
        <time>2013-09-22T06:49:19Z</time>
      </trkpt>
      <trkpt lat="45.58998" lon="2.7673">
        <ele>893</ele>
        <time>2013-09-22T06:49:29Z</time>
      </trkpt>
      <trkpt lat="45.58997" lon="2.7669">
        <ele>893</ele>
        <time>2013-09-22T06:49:33Z</time>
      </trkpt>
      <trkpt lat="45.59" lon="2.76681">
        <ele>892</ele>
        <time>2013-09-22T06:49:34Z</time>
      </trkpt>
      <trkpt lat="45.59005" lon="2.76673">
        <ele>892</ele>
        <time>2013-09-22T06:49:35Z</time>
      </trkpt>
      <trkpt lat="45.5901" lon="2.76668">
        <ele>892</ele>
        <time>2013-09-22T06:49:36Z</time>
      </trkpt>
      <trkpt lat="45.59015" lon="2.76662">
        <ele>891</ele>
        <time>2013-09-22T06:49:37Z</time>
      </trkpt>
      <trkpt lat="45.59022" lon="2.76657">
        <ele>892</ele>
        <time>2013-09-22T06:49:38Z</time>
      </trkpt>
      <trkpt lat="45.59028" lon="2.76651">
        <ele>892</ele>
        <time>2013-09-22T06:49:39Z</time>
      </trkpt>
      <trkpt lat="45.59032" lon="2.76643">
        <ele>892</ele>
        <time>2013-09-22T06:49:40Z</time>
      </trkpt>
      <trkpt lat="45.59035" lon="2.76635">
        <ele>892</ele>
        <time>2013-09-22T06:49:41Z</time>
      </trkpt>
      <trkpt lat="45.59038" lon="2.76627">
        <ele>892</ele>
        <time>2013-09-22T06:49:42Z</time>
      </trkpt>
      <trkpt lat="45.59038" lon="2.76617">
        <ele>892</ele>
        <time>2013-09-22T06:49:43Z</time>
      </trkpt>
      <trkpt lat="45.59037" lon="2.76608">
        <ele>891</ele>
        <time>2013-09-22T06:49:44Z</time>
      </trkpt>
      <trkpt lat="45.59036" lon="2.766">
        <ele>891</ele>
        <time>2013-09-22T06:49:45Z</time>
      </trkpt>
      <trkpt lat="45.59033" lon="2.76591">
        <ele>891</ele>
        <time>2013-09-22T06:49:46Z</time>
      </trkpt>
      <trkpt lat="45.5903" lon="2.76583">
        <ele>890</ele>
        <time>2013-09-22T06:49:47Z</time>
      </trkpt>
      <trkpt lat="45.59024" lon="2.76567">
        <ele>889</ele>
        <time>2013-09-22T06:49:49Z</time>
      </trkpt>
      <trkpt lat="45.59024" lon="2.76559">
        <ele>889</ele>
        <time>2013-09-22T06:49:50Z</time>
      </trkpt>
      <trkpt lat="45.59026" lon="2.76551">
        <ele>889</ele>
        <time>2013-09-22T06:49:51Z</time>
      </trkpt>
      <trkpt lat="45.59031" lon="2.76544">
        <ele>889</ele>
        <time>2013-09-22T06:49:52Z</time>
      </trkpt>
      <trkpt lat="45.59045" lon="2.76543">
        <ele>890</ele>
        <time>2013-09-22T06:49:55Z</time>
      </trkpt>
      <trkpt lat="45.59053" lon="2.76547">
        <ele>890</ele>
        <time>2013-09-22T06:49:57Z</time>
      </trkpt>
      <trkpt lat="45.59092" lon="2.7656">
        <ele>893</ele>
        <time>2013-09-22T06:50:09Z</time>
      </trkpt>
      <trkpt lat="45.59121" lon="2.76564">
        <ele>894</ele>
        <time>2013-09-22T06:50:20Z</time>
      </trkpt>
      <trkpt lat="45.59126" lon="2.76561">
        <ele>895</ele>
        <time>2013-09-22T06:50:22Z</time>
      </trkpt>
      <trkpt lat="45.59132" lon="2.76544">
        <ele>895</ele>
        <time>2013-09-22T06:50:28Z</time>
      </trkpt>
      <trkpt lat="45.5916" lon="2.76531">
        <ele>895</ele>
        <time>2013-09-22T06:50:39Z</time>
      </trkpt>
      <trkpt lat="45.59165" lon="2.76531">
        <ele>896</ele>
        <time>2013-09-22T06:50:41Z</time>
      </trkpt>
      <trkpt lat="45.59165" lon="2.76537">
        <ele>896</ele>
        <time>2013-09-22T06:50:45Z</time>
      </trkpt>
      <trkpt lat="45.59158" lon="2.76576">
        <ele>897</ele>
        <time>2013-09-22T06:50:58Z</time>
      </trkpt>
      <trkpt lat="45.59152" lon="2.76602">
        <ele>897</ele>
        <time>2013-09-22T06:51:06Z</time>
      </trkpt>
      <trkpt lat="45.59163" lon="2.76614">
        <ele>898</ele>
        <time>2013-09-22T06:51:21Z</time>
      </trkpt>
      <trkpt lat="45.59195" lon="2.76644">
        <ele>903</ele>
        <time>2013-09-22T06:51:36Z</time>
      </trkpt>
      <trkpt lat="45.592" lon="2.76647">
        <ele>904</ele>
        <time>2013-09-22T06:51:38Z</time>
      </trkpt>
      <trkpt lat="45.59221" lon="2.7665">
        <ele>905</ele>
        <time>2013-09-22T06:51:47Z</time>
      </trkpt>
      <trkpt lat="45.59229" lon="2.76649">
        <ele>906</ele>
        <time>2013-09-22T06:51:52Z</time>
      </trkpt>
      <trkpt lat="45.59259" lon="2.76654">
        <ele>915</ele>
        <time>2013-09-22T06:52:08Z</time>
      </trkpt>
      <trkpt lat="45.59303" lon="2.76653">
        <ele>923</ele>
        <time>2013-09-22T06:52:22Z</time>
      </trkpt>
      <trkpt lat="45.5931" lon="2.76643">
        <ele>924</ele>
        <time>2013-09-22T06:52:29Z</time>
      </trkpt>
      <trkpt lat="45.59335" lon="2.76621">
        <ele>936</ele>
        <time>2013-09-22T06:52:45Z</time>
      </trkpt>
      <trkpt lat="45.59358" lon="2.766">
        <ele>934</ele>
        <time>2013-09-22T06:53:00Z</time>
      </trkpt>
      <trkpt lat="45.5937" lon="2.76589">
        <ele>936</ele>
        <time>2013-09-22T06:53:08Z</time>
      </trkpt>
      <trkpt lat="45.59396" lon="2.76575">
        <ele>928</ele>
        <time>2013-09-22T06:53:24Z</time>
      </trkpt>
      <trkpt lat="45.59426" lon="2.76551">
        <ele>935</ele>
        <time>2013-09-22T06:53:43Z</time>
      </trkpt>
      <trkpt lat="45.59446" lon="2.76513">
        <ele>933</ele>
        <time>2013-09-22T06:53:57Z</time>
      </trkpt>
      <trkpt lat="45.59467" lon="2.76445">
        <ele>928</ele>
        <time>2013-09-22T06:54:15Z</time>
      </trkpt>
      <trkpt lat="45.59473" lon="2.76429">
        <ele>929</ele>
        <time>2013-09-22T06:54:20Z</time>
      </trkpt>
      <trkpt lat="45.59487" lon="2.76431">
        <ele>930</ele>
        <time>2013-09-22T06:54:25Z</time>
      </trkpt>
      <trkpt lat="45.59505" lon="2.7645">
        <ele>946</ele>
        <time>2013-09-22T06:54:38Z</time>
      </trkpt>
      <trkpt lat="45.59525" lon="2.7647">
        <ele>949</ele>
        <time>2013-09-22T06:54:56Z</time>
      </trkpt>
      <trkpt lat="45.59539" lon="2.76487">
        <ele>952</ele>
        <time>2013-09-22T06:55:11Z</time>
      </trkpt>
      <trkpt lat="45.59548" lon="2.765">
        <ele>957</ele>
        <time>2013-09-22T06:55:22Z</time>
      </trkpt>
      <trkpt lat="45.59557" lon="2.76519">
        <ele>959</ele>
        <time>2013-09-22T06:55:38Z</time>
      </trkpt>
      <trkpt lat="45.59557" lon="2.76529">
        <ele>959</ele>
        <time>2013-09-22T06:55:46Z</time>
      </trkpt>
      <trkpt lat="45.59557" lon="2.76535">
        <ele>959</ele>
        <time>2013-09-22T06:55:49Z</time>
      </trkpt>
      <trkpt lat="45.59557" lon="2.76538">
        <ele>959</ele>
        <time>2013-09-22T06:55:52Z</time>
      </trkpt>
      <trkpt lat="45.5956" lon="2.76548">
        <ele>960</ele>
        <time>2013-09-22T06:55:57Z</time>
      </trkpt>
      <trkpt lat="45.59564" lon="2.76576">
        <ele>963</ele>
        <time>2013-09-22T06:56:14Z</time>
      </trkpt>
      <trkpt lat="45.59559" lon="2.7658">
        <ele>962</ele>
        <time>2013-09-22T06:56:22Z</time>
      </trkpt>
      <trkpt lat="45.5956" lon="2.76585">
        <ele>969</ele>
        <time>2013-09-22T06:56:26Z</time>
      </trkpt>
      <trkpt lat="45.59559" lon="2.76603">
        <ele>970</ele>
        <time>2013-09-22T06:56:32Z</time>
      </trkpt>
      <trkpt lat="45.59559" lon="2.76618">
        <ele>971</ele>
        <time>2013-09-22T06:56:40Z</time>
      </trkpt>
      <trkpt lat="45.5956" lon="2.76622">
        <ele>971</ele>
        <time>2013-09-22T06:56:43Z</time>
      </trkpt>
      <trkpt lat="45.5956" lon="2.76625">
        <ele>972</ele>
        <time>2013-09-22T06:56:45Z</time>
      </trkpt>
      <trkpt lat="45.59566" lon="2.76662">
        <ele>976</ele>
        <time>2013-09-22T06:57:01Z</time>
      </trkpt>
      <trkpt lat="45.59571" lon="2.76691">
        <ele>984</ele>
        <time>2013-09-22T06:57:14Z</time>
      </trkpt>
      <trkpt lat="45.59575" lon="2.76718">
        <ele>986</ele>
        <time>2013-09-22T06:57:29Z</time>
      </trkpt>
      <trkpt lat="45.59575" lon="2.76722">
        <ele>986</ele>
        <time>2013-09-22T06:57:31Z</time>
      </trkpt>
      <trkpt lat="45.59576" lon="2.76741">
        <ele>987</ele>
        <time>2013-09-22T06:57:50Z</time>
      </trkpt>
      <trkpt lat="45.59577" lon="2.76755">
        <ele>990</ele>
        <time>2013-09-22T06:57:59Z</time>
      </trkpt>
      <trkpt lat="45.59586" lon="2.76781">
        <ele>996</ele>
        <time>2013-09-22T06:58:16Z</time>
      </trkpt>
      <trkpt lat="45.59588" lon="2.76786">
        <ele>997</ele>
        <time>2013-09-22T06:58:18Z</time>
      </trkpt>
      <trkpt lat="45.59593" lon="2.76794">
        <ele>998</ele>
        <time>2013-09-22T06:58:24Z</time>
      </trkpt>
      <trkpt lat="45.59599" lon="2.76803">
        <ele>998</ele>
        <time>2013-09-22T06:58:35Z</time>
      </trkpt>
      <trkpt lat="45.59607" lon="2.7681">
        <ele>999</ele>
        <time>2013-09-22T06:58:45Z</time>
      </trkpt>
      <trkpt lat="45.5961" lon="2.76812">
        <ele>999</ele>
        <time>2013-09-22T06:58:49Z</time>
      </trkpt>
      <trkpt lat="45.5962" lon="2.76823">
        <ele>1000</ele>
        <time>2013-09-22T06:59:04Z</time>
      </trkpt>
      <trkpt lat="45.59633" lon="2.76847">
        <ele>1003</ele>
        <time>2013-09-22T06:59:18Z</time>
      </trkpt>
      <trkpt lat="45.59638" lon="2.76851">
        <ele>1004</ele>
        <time>2013-09-22T06:59:22Z</time>
      </trkpt>
      <trkpt lat="45.59652" lon="2.76865">
        <ele>1005</ele>
        <time>2013-09-22T06:59:36Z</time>
      </trkpt>
      <trkpt lat="45.59658" lon="2.76869">
        <ele>1005</ele>
        <time>2013-09-22T06:59:42Z</time>
      </trkpt>
      <trkpt lat="45.59668" lon="2.76867">
        <ele>1012</ele>
        <time>2013-09-22T06:59:57Z</time>
      </trkpt>
      <trkpt lat="45.59677" lon="2.76881">
        <ele>1013</ele>
        <time>2013-09-22T07:00:13Z</time>
      </trkpt>
      <trkpt lat="45.59671" lon="2.76881">
        <ele>1013</ele>
        <time>2013-09-22T07:00:19Z</time>
      </trkpt>
      <trkpt lat="45.59663" lon="2.76882">
        <ele>1006</ele>
        <time>2013-09-22T07:00:29Z</time>
      </trkpt>
      <trkpt lat="45.59654" lon="2.76882">
        <ele>1005</ele>
        <time>2013-09-22T07:00:36Z</time>
      </trkpt>
      <trkpt lat="45.59652" lon="2.76887">
        <ele>1006</ele>
        <time>2013-09-22T07:00:48Z</time>
      </trkpt>
      <trkpt lat="45.59647" lon="2.76901">
        <ele>1006</ele>
        <time>2013-09-22T07:00:54Z</time>
      </trkpt>
      <trkpt lat="45.59635" lon="2.76919">
        <ele>1012</ele>
        <time>2013-09-22T07:01:04Z</time>
      </trkpt>
      <trkpt lat="45.59636" lon="2.76949">
        <ele>1014</ele>
        <time>2013-09-22T07:01:21Z</time>
      </trkpt>
      <trkpt lat="45.59645" lon="2.76976">
        <ele>1015</ele>
        <time>2013-09-22T07:01:36Z</time>
      </trkpt>
      <trkpt lat="45.59647" lon="2.76997">
        <ele>1016</ele>
        <time>2013-09-22T07:01:51Z</time>
      </trkpt>
      <trkpt lat="45.59638" lon="2.77013">
        <ele>1023</ele>
        <time>2013-09-22T07:02:04Z</time>
      </trkpt>
      <trkpt lat="45.59634" lon="2.77018">
        <ele>1023</ele>
        <time>2013-09-22T07:02:10Z</time>
      </trkpt>
      <trkpt lat="45.59635" lon="2.77042">
        <ele>1025</ele>
        <time>2013-09-22T07:02:26Z</time>
      </trkpt>
      <trkpt lat="45.59639" lon="2.7707">
        <ele>1026</ele>
        <time>2013-09-22T07:02:43Z</time>
      </trkpt>
      <trkpt lat="45.59639" lon="2.77072">
        <ele>1026</ele>
        <time>2013-09-22T07:02:44Z</time>
      </trkpt>
      <trkpt lat="45.59639" lon="2.77074">
        <ele>1027</ele>
        <time>2013-09-22T07:02:46Z</time>
      </trkpt>
      <trkpt lat="45.59641" lon="2.77079">
        <ele>1027</ele>
        <time>2013-09-22T07:02:50Z</time>
      </trkpt>
      <trkpt lat="45.59644" lon="2.77087">
        <ele>1033</ele>
        <time>2013-09-22T07:02:59Z</time>
      </trkpt>
      <trkpt lat="45.59647" lon="2.77096">
        <ele>1033</ele>
        <time>2013-09-22T07:03:06Z</time>
      </trkpt>
      <trkpt lat="45.59653" lon="2.77115">
        <ele>1035</ele>
        <time>2013-09-22T07:03:13Z</time>
      </trkpt>
      <trkpt lat="45.59656" lon="2.77122">
        <ele>1035</ele>
        <time>2013-09-22T07:03:20Z</time>
      </trkpt>
      <trkpt lat="45.59659" lon="2.7714">
        <ele>1037</ele>
        <time>2013-09-22T07:03:32Z</time>
      </trkpt>
      <trkpt lat="45.59664" lon="2.77151">
        <ele>1037</ele>
        <time>2013-09-22T07:03:40Z</time>
      </trkpt>
      <trkpt lat="45.59666" lon="2.77161">
        <ele>1037</ele>
        <time>2013-09-22T07:03:45Z</time>
      </trkpt>
      <trkpt lat="45.59677" lon="2.77181">
        <ele>1041</ele>
        <time>2013-09-22T07:04:00Z</time>
      </trkpt>
      <trkpt lat="45.59687" lon="2.77198">
        <ele>1043</ele>
        <time>2013-09-22T07:04:12Z</time>
      </trkpt>
      <trkpt lat="45.597" lon="2.77223">
        <ele>1045</ele>
        <time>2013-09-22T07:04:27Z</time>
      </trkpt>
      <trkpt lat="45.59715" lon="2.77246">
        <ele>1046</ele>
        <time>2013-09-22T07:04:42Z</time>
      </trkpt>
      <trkpt lat="45.59728" lon="2.77263">
        <ele>1053</ele>
        <time>2013-09-22T07:04:57Z</time>
      </trkpt>
      <trkpt lat="45.59733" lon="2.77269">
        <ele>1053</ele>
        <time>2013-09-22T07:05:07Z</time>
      </trkpt>
      <trkpt lat="45.59738" lon="2.77277">
        <ele>1054</ele>
        <time>2013-09-22T07:05:13Z</time>
      </trkpt>
      <trkpt lat="45.59743" lon="2.77285">
        <ele>1054</ele>
        <time>2013-09-22T07:05:20Z</time>
      </trkpt>
      <trkpt lat="45.59745" lon="2.77294">
        <ele>1055</ele>
        <time>2013-09-22T07:05:26Z</time>
      </trkpt>
      <trkpt lat="45.59749" lon="2.77303">
        <ele>1056</ele>
        <time>2013-09-22T07:05:45Z</time>
      </trkpt>
      <trkpt lat="45.59749" lon="2.77303">
        <ele>1056</ele>
        <time>2013-09-22T07:06:08Z</time>
      </trkpt>
      <trkpt lat="45.59752" lon="2.77306">
        <ele>1066</ele>
        <time>2013-09-22T07:06:30Z</time>
      </trkpt>
      <trkpt lat="45.59757" lon="2.77316">
        <ele>1066</ele>
        <time>2013-09-22T07:06:49Z</time>
      </trkpt>
      <trkpt lat="45.59757" lon="2.77317">
        <ele>1066</ele>
        <time>2013-09-22T07:06:54Z</time>
      </trkpt>
      <trkpt lat="45.5976" lon="2.77314">
        <ele>1066</ele>
        <time>2013-09-22T07:07:00Z</time>
      </trkpt>
      <trkpt lat="45.59767" lon="2.77308">
        <ele>1067</ele>
        <time>2013-09-22T07:07:09Z</time>
      </trkpt>
      <trkpt lat="45.59787" lon="2.77286">
        <ele>1068</ele>
        <time>2013-09-22T07:07:26Z</time>
      </trkpt>
      <trkpt lat="45.59789" lon="2.77284">
        <ele>1068</ele>
        <time>2013-09-22T07:07:29Z</time>
      </trkpt>
      <trkpt lat="45.59796" lon="2.77273">
        <ele>1069</ele>
        <time>2013-09-22T07:07:40Z</time>
      </trkpt>
      <trkpt lat="45.59813" lon="2.77253">
        <ele>1072</ele>
        <time>2013-09-22T07:07:56Z</time>
      </trkpt>
      <trkpt lat="45.59819" lon="2.77242">
        <ele>1070</ele>
        <time>2013-09-22T07:08:09Z</time>
      </trkpt>
      <trkpt lat="45.59821" lon="2.77237">
        <ele>1070</ele>
        <time>2013-09-22T07:08:24Z</time>
      </trkpt>
      <trkpt lat="45.59821" lon="2.77234">
        <ele>1069</ele>
        <time>2013-09-22T07:08:31Z</time>
      </trkpt>
      <trkpt lat="45.59822" lon="2.77232">
        <ele>1069</ele>
        <time>2013-09-22T07:08:39Z</time>
      </trkpt>
      <trkpt lat="45.59822" lon="2.77232">
        <ele>1069</ele>
        <time>2013-09-22T07:08:47Z</time>
      </trkpt>
      <trkpt lat="45.59824" lon="2.77229">
        <ele>1069</ele>
        <time>2013-09-22T07:08:51Z</time>
      </trkpt>
      <trkpt lat="45.59831" lon="2.77215">
        <ele>1067</ele>
        <time>2013-09-22T07:09:03Z</time>
      </trkpt>
      <trkpt lat="45.59832" lon="2.77213">
        <ele>1067</ele>
        <time>2013-09-22T07:09:04Z</time>
      </trkpt>
      <trkpt lat="45.59836" lon="2.77206">
        <ele>1087</ele>
        <time>2013-09-22T07:09:08Z</time>
      </trkpt>
      <trkpt lat="45.59841" lon="2.77193">
        <ele>1086</ele>
        <time>2013-09-22T07:09:15Z</time>
      </trkpt>
      <trkpt lat="45.59842" lon="2.77191">
        <ele>1086</ele>
        <time>2013-09-22T07:09:17Z</time>
      </trkpt>
      <trkpt lat="45.59852" lon="2.77178">
        <ele>1086</ele>
        <time>2013-09-22T07:09:25Z</time>
      </trkpt>
      <trkpt lat="45.5987" lon="2.77157">
        <ele>1087</ele>
        <time>2013-09-22T07:09:39Z</time>
      </trkpt>
      <trkpt lat="45.59884" lon="2.77134">
        <ele>1089</ele>
        <time>2013-09-22T07:09:56Z</time>
      </trkpt>
      <trkpt lat="45.59895" lon="2.77123">
        <ele>1090</ele>
        <time>2013-09-22T07:10:09Z</time>
      </trkpt>
      <trkpt lat="45.59907" lon="2.77107">
        <ele>1092</ele>
        <time>2013-09-22T07:10:25Z</time>
      </trkpt>
      <trkpt lat="45.59917" lon="2.77096">
        <ele>1108</ele>
        <time>2013-09-22T07:10:39Z</time>
      </trkpt>
      <trkpt lat="45.59926" lon="2.7709">
        <ele>1108</ele>
        <time>2013-09-22T07:10:51Z</time>
      </trkpt>
      <trkpt lat="45.59929" lon="2.77085">
        <ele>1108</ele>
        <time>2013-09-22T07:10:55Z</time>
      </trkpt>
      <trkpt lat="45.59936" lon="2.77078">
        <ele>1105</ele>
        <time>2013-09-22T07:11:11Z</time>
      </trkpt>
      <trkpt lat="45.59946" lon="2.77069">
        <ele>1108</ele>
        <time>2013-09-22T07:11:26Z</time>
      </trkpt>
      <trkpt lat="45.59952" lon="2.77064">
        <ele>1109</ele>
        <time>2013-09-22T07:11:33Z</time>
      </trkpt>
      <trkpt lat="45.59961" lon="2.77052">
        <ele>1111</ele>
        <time>2013-09-22T07:11:48Z</time>
      </trkpt>
      <trkpt lat="45.59962" lon="2.77049">
        <ele>1111</ele>
        <time>2013-09-22T07:11:52Z</time>
      </trkpt>
      <trkpt lat="45.59963" lon="2.77045">
        <ele>1110</ele>
        <time>2013-09-22T07:11:55Z</time>
      </trkpt>
      <trkpt lat="45.59969" lon="2.77037">
        <ele>1111</ele>
        <time>2013-09-22T07:12:03Z</time>
      </trkpt>
      <trkpt lat="45.59983" lon="2.77025">
        <ele>1112</ele>
        <time>2013-09-22T07:12:19Z</time>
      </trkpt>
      <trkpt lat="45.59985" lon="2.77021">
        <ele>1113</ele>
        <time>2013-09-22T07:12:23Z</time>
      </trkpt>
      <trkpt lat="45.60004" lon="2.77012">
        <ele>1126</ele>
        <time>2013-09-22T07:12:39Z</time>
      </trkpt>
      <trkpt lat="45.60007" lon="2.7701">
        <ele>1125</ele>
        <time>2013-09-22T07:12:46Z</time>
      </trkpt>
      <trkpt lat="45.60029" lon="2.76993">
        <ele>1118</ele>
        <time>2013-09-22T07:13:02Z</time>
      </trkpt>
      <trkpt lat="45.60038" lon="2.76981">
        <ele>1119</ele>
        <time>2013-09-22T07:13:10Z</time>
      </trkpt>
      <trkpt lat="45.60056" lon="2.76963">
        <ele>1119</ele>
        <time>2013-09-22T07:13:22Z</time>
      </trkpt>
      <trkpt lat="45.60093" lon="2.76956">
        <ele>1132</ele>
        <time>2013-09-22T07:13:37Z</time>
      </trkpt>
      <trkpt lat="45.60104" lon="2.76959">
        <ele>1134</ele>
        <time>2013-09-22T07:13:43Z</time>
      </trkpt>
      <trkpt lat="45.6013" lon="2.7695">
        <ele>1135</ele>
        <time>2013-09-22T07:14:00Z</time>
      </trkpt>
      <trkpt lat="45.60131" lon="2.76948">
        <ele>1135</ele>
        <time>2013-09-22T07:14:02Z</time>
      </trkpt>
      <trkpt lat="45.60148" lon="2.76941">
        <ele>1135</ele>
        <time>2013-09-22T07:14:15Z</time>
      </trkpt>
      <trkpt lat="45.60173" lon="2.76928">
        <ele>1139</ele>
        <time>2013-09-22T07:14:31Z</time>
      </trkpt>
      <trkpt lat="45.60197" lon="2.76926">
        <ele>1143</ele>
        <time>2013-09-22T07:14:45Z</time>
      </trkpt>
      <trkpt lat="45.60218" lon="2.76934">
        <ele>1146</ele>
        <time>2013-09-22T07:14:59Z</time>
      </trkpt>
      <trkpt lat="45.60227" lon="2.76938">
        <ele>1146</ele>
        <time>2013-09-22T07:15:03Z</time>
      </trkpt>
      <trkpt lat="45.60255" lon="2.76934">
        <ele>1149</ele>
        <time>2013-09-22T07:15:20Z</time>
      </trkpt>
      <trkpt lat="45.60275" lon="2.76943">
        <ele>1156</ele>
        <time>2013-09-22T07:15:32Z</time>
      </trkpt>
      <trkpt lat="45.60291" lon="2.76927">
        <ele>1155</ele>
        <time>2013-09-22T07:15:44Z</time>
      </trkpt>
      <trkpt lat="45.60301" lon="2.76921">
        <ele>1156</ele>
        <time>2013-09-22T07:15:59Z</time>
      </trkpt>
      <trkpt lat="45.60305" lon="2.76923">
        <ele>1156</ele>
        <time>2013-09-22T07:16:08Z</time>
      </trkpt>
      <trkpt lat="45.60315" lon="2.7694">
        <ele>1158</ele>
        <time>2013-09-22T07:16:25Z</time>
      </trkpt>
      <trkpt lat="45.60318" lon="2.76945">
        <ele>1160</ele>
        <time>2013-09-22T07:16:31Z</time>
      </trkpt>
      <trkpt lat="45.60328" lon="2.76949">
        <ele>1161</ele>
        <time>2013-09-22T07:16:49Z</time>
      </trkpt>
      <trkpt lat="45.60333" lon="2.7695">
        <ele>1161</ele>
        <time>2013-09-22T07:16:57Z</time>
      </trkpt>
      <trkpt lat="45.60341" lon="2.76958">
        <ele>1171</ele>
        <time>2013-09-22T07:17:14Z</time>
      </trkpt>
      <trkpt lat="45.60342" lon="2.76957">
        <ele>1171</ele>
        <time>2013-09-22T07:17:17Z</time>
      </trkpt>
      <trkpt lat="45.60362" lon="2.76949">
        <ele>1170</ele>
        <time>2013-09-22T07:17:31Z</time>
      </trkpt>
      <trkpt lat="45.60387" lon="2.7694">
        <ele>1170</ele>
        <time>2013-09-22T07:17:45Z</time>
      </trkpt>
      <trkpt lat="45.60407" lon="2.76928">
        <ele>1169</ele>
        <time>2013-09-22T07:17:58Z</time>
      </trkpt>
      <trkpt lat="45.60409" lon="2.76923">
        <ele>1168</ele>
        <time>2013-09-22T07:17:59Z</time>
      </trkpt>
      <trkpt lat="45.60423" lon="2.769">
        <ele>1166</ele>
        <time>2013-09-22T07:18:03Z</time>
      </trkpt>
      <trkpt lat="45.60436" lon="2.76881">
        <ele>1165</ele>
        <time>2013-09-22T07:18:07Z</time>
      </trkpt>
      <trkpt lat="45.60448" lon="2.76866">
        <ele>1165</ele>
        <time>2013-09-22T07:18:10Z</time>
      </trkpt>
      <trkpt lat="45.60477" lon="2.76833">
        <ele>1169</ele>
        <time>2013-09-22T07:18:23Z</time>
      </trkpt>
      <trkpt lat="45.60456" lon="2.76821">
        <ele>1167</ele>
        <time>2013-09-22T07:18:33Z</time>
      </trkpt>
      <trkpt lat="45.60434" lon="2.76786">
        <ele>1167</ele>
        <time>2013-09-22T07:18:49Z</time>
      </trkpt>
      <trkpt lat="45.60433" lon="2.76783">
        <ele>1167</ele>
        <time>2013-09-22T07:18:50Z</time>
      </trkpt>
      <trkpt lat="45.60423" lon="2.76753">
        <ele>1165</ele>
        <time>2013-09-22T07:19:06Z</time>
      </trkpt>
      <trkpt lat="45.60411" lon="2.76739">
        <ele>1167</ele>
        <time>2013-09-22T07:19:21Z</time>
      </trkpt>
      <trkpt lat="45.6041" lon="2.76738">
        <ele>1167</ele>
        <time>2013-09-22T07:19:22Z</time>
      </trkpt>
      <trkpt lat="45.60406" lon="2.76734">
        <ele>1168</ele>
        <time>2013-09-22T07:19:26Z</time>
      </trkpt>
      <trkpt lat="45.60384" lon="2.76726">
        <ele>1170</ele>
        <time>2013-09-22T07:19:42Z</time>
      </trkpt>
      <trkpt lat="45.60357" lon="2.76712">
        <ele>1170</ele>
        <time>2013-09-22T07:19:58Z</time>
      </trkpt>
      <trkpt lat="45.6034" lon="2.76704">
        <ele>1172</ele>
        <time>2013-09-22T07:20:09Z</time>
      </trkpt>
      <trkpt lat="45.60338" lon="2.76704">
        <ele>1172</ele>
        <time>2013-09-22T07:20:10Z</time>
      </trkpt>
      <trkpt lat="45.60337" lon="2.76704">
        <ele>1172</ele>
        <time>2013-09-22T07:20:11Z</time>
      </trkpt>
      <trkpt lat="45.60331" lon="2.76696">
        <ele>1168</ele>
        <time>2013-09-22T07:20:17Z</time>
      </trkpt>
      <trkpt lat="45.60328" lon="2.76693">
        <ele>1169</ele>
        <time>2013-09-22T07:20:21Z</time>
      </trkpt>
      <trkpt lat="45.60327" lon="2.7669">
        <ele>1170</ele>
        <time>2013-09-22T07:20:23Z</time>
      </trkpt>
      <trkpt lat="45.60323" lon="2.76681">
        <ele>1172</ele>
        <time>2013-09-22T07:20:26Z</time>
      </trkpt>
      <trkpt lat="45.60322" lon="2.7668">
        <ele>1173</ele>
        <time>2013-09-22T07:20:27Z</time>
      </trkpt>
      <trkpt lat="45.60195" lon="2.76703">
        <ele>1148</ele>
        <time>2013-09-22T07:20:28Z</time>
      </trkpt>
      <trkpt lat="45.6018" lon="2.76698">
        <ele>1149</ele>
        <time>2013-09-22T07:20:31Z</time>
      </trkpt>
      <trkpt lat="45.60156" lon="2.76686">
        <ele>1142</ele>
        <time>2013-09-22T07:20:36Z</time>
      </trkpt>
      <trkpt lat="45.60133" lon="2.76678">
        <ele>1139</ele>
        <time>2013-09-22T07:20:40Z</time>
      </trkpt>
      <trkpt lat="45.60112" lon="2.76673">
        <ele>1136</ele>
        <time>2013-09-22T07:20:43Z</time>
      </trkpt>
      <trkpt lat="45.60091" lon="2.7667">
        <ele>1137</ele>
        <time>2013-09-22T07:20:46Z</time>
      </trkpt>
      <trkpt lat="45.60063" lon="2.76663">
        <ele>1136</ele>
        <time>2013-09-22T07:20:50Z</time>
      </trkpt>
      <trkpt lat="45.60049" lon="2.76662">
        <ele>1134</ele>
        <time>2013-09-22T07:20:52Z</time>
      </trkpt>
      <trkpt lat="45.60016" lon="2.76653">
        <ele>1129</ele>
        <time>2013-09-22T07:21:00Z</time>
      </trkpt>
      <trkpt lat="45.60011" lon="2.7665">
        <ele>1129</ele>
        <time>2013-09-22T07:21:03Z</time>
      </trkpt>
      <trkpt lat="45.6001" lon="2.76647">
        <ele>1129</ele>
        <time>2013-09-22T07:21:09Z</time>
      </trkpt>
      <trkpt lat="45.60007" lon="2.76642">
        <ele>1130</ele>
        <time>2013-09-22T07:21:22Z</time>
      </trkpt>
      <trkpt lat="45.60001" lon="2.76631">
        <ele>1131</ele>
        <time>2013-09-22T07:21:38Z</time>
      </trkpt>
      <trkpt lat="45.59992" lon="2.76619">
        <ele>1119</ele>
        <time>2013-09-22T07:21:54Z</time>
      </trkpt>
      <trkpt lat="45.5999" lon="2.76613">
        <ele>1119</ele>
        <time>2013-09-22T07:22:07Z</time>
      </trkpt>
      <trkpt lat="45.59988" lon="2.7661">
        <ele>1119</ele>
        <time>2013-09-22T07:22:31Z</time>
      </trkpt>
      <trkpt lat="45.59986" lon="2.76607">
        <ele>1120</ele>
        <time>2013-09-22T07:22:36Z</time>
      </trkpt>
      <trkpt lat="45.59978" lon="2.766">
        <ele>1119</ele>
        <time>2013-09-22T07:22:43Z</time>
      </trkpt>
      <trkpt lat="45.59974" lon="2.76593">
        <ele>1119</ele>
        <time>2013-09-22T07:22:46Z</time>
      </trkpt>
      <trkpt lat="45.59971" lon="2.76568">
        <ele>1117</ele>
        <time>2013-09-22T07:22:57Z</time>
      </trkpt>
      <trkpt lat="45.5997" lon="2.7656">
        <ele>1116</ele>
        <time>2013-09-22T07:23:03Z</time>
      </trkpt>
      <trkpt lat="45.59967" lon="2.76547">
        <ele>1115</ele>
        <time>2013-09-22T07:23:10Z</time>
      </trkpt>
      <trkpt lat="45.59969" lon="2.7654">
        <ele>1115</ele>
        <time>2013-09-22T07:23:14Z</time>
      </trkpt>
      <trkpt lat="45.59969" lon="2.76529">
        <ele>1115</ele>
        <time>2013-09-22T07:23:19Z</time>
      </trkpt>
      <trkpt lat="45.5997" lon="2.76509">
        <ele>1115</ele>
        <time>2013-09-22T07:23:28Z</time>
      </trkpt>
      <trkpt lat="45.5997" lon="2.76507">
        <ele>1115</ele>
        <time>2013-09-22T07:23:29Z</time>
      </trkpt>
      <trkpt lat="45.59975" lon="2.76483">
        <ele>1109</ele>
        <time>2013-09-22T07:23:36Z</time>
      </trkpt>
      <trkpt lat="45.59974" lon="2.76479">
        <ele>1109</ele>
        <time>2013-09-22T07:23:37Z</time>
      </trkpt>
      <trkpt lat="45.59969" lon="2.76451">
        <ele>1105</ele>
        <time>2013-09-22T07:23:43Z</time>
      </trkpt>
      <trkpt lat="45.59973" lon="2.76423">
        <ele>1105</ele>
        <time>2013-09-22T07:23:47Z</time>
      </trkpt>
      <trkpt lat="45.59975" lon="2.76402">
        <ele>1097</ele>
        <time>2013-09-22T07:23:52Z</time>
      </trkpt>
      <trkpt lat="45.59975" lon="2.76398">
        <ele>1097</ele>
        <time>2013-09-22T07:23:53Z</time>
      </trkpt>
      <trkpt lat="45.59986" lon="2.76347">
        <ele>1094</ele>
        <time>2013-09-22T07:23:59Z</time>
      </trkpt>
      <trkpt lat="45.5999" lon="2.76326">
        <ele>1090</ele>
        <time>2013-09-22T07:24:02Z</time>
      </trkpt>
      <trkpt lat="45.59999" lon="2.76285">
        <ele>1082</ele>
        <time>2013-09-22T07:24:07Z</time>
      </trkpt>
      <trkpt lat="45.60003" lon="2.76276">
        <ele>1094</ele>
        <time>2013-09-22T07:24:08Z</time>
      </trkpt>
      <trkpt lat="45.60017" lon="2.76252">
        <ele>1092</ele>
        <time>2013-09-22T07:24:12Z</time>
      </trkpt>
      <trkpt lat="45.60036" lon="2.76243">
        <ele>1091</ele>
        <time>2013-09-22T07:24:15Z</time>
      </trkpt>
      <trkpt lat="45.60086" lon="2.76216">
        <ele>1110</ele>
        <time>2013-09-22T07:24:27Z</time>
      </trkpt>
      <trkpt lat="45.60075" lon="2.76209">
        <ele>1095</ele>
        <time>2013-09-22T07:24:40Z</time>
      </trkpt>
      <trkpt lat="45.60073" lon="2.76206">
        <ele>1094</ele>
        <time>2013-09-22T07:24:42Z</time>
      </trkpt>
      <trkpt lat="45.60059" lon="2.76196">
        <ele>1093</ele>
        <time>2013-09-22T07:24:52Z</time>
      </trkpt>
      <trkpt lat="45.60049" lon="2.76174">
        <ele>1091</ele>
        <time>2013-09-22T07:25:07Z</time>
      </trkpt>
      <trkpt lat="45.6004" lon="2.76149">
        <ele>1090</ele>
        <time>2013-09-22T07:25:20Z</time>
      </trkpt>
      <trkpt lat="45.60036" lon="2.76142">
        <ele>1090</ele>
        <time>2013-09-22T07:25:25Z</time>
      </trkpt>
      <trkpt lat="45.60031" lon="2.76103">
        <ele>1090</ele>
        <time>2013-09-22T07:25:38Z</time>
      </trkpt>
      <trkpt lat="45.60045" lon="2.76053">
        <ele>1095</ele>
        <time>2013-09-22T07:25:53Z</time>
      </trkpt>
      <trkpt lat="45.60056" lon="2.76017">
        <ele>1097</ele>
        <time>2013-09-22T07:26:07Z</time>
      </trkpt>
      <trkpt lat="45.60069" lon="2.75978">
        <ele>1098</ele>
        <time>2013-09-22T07:26:21Z</time>
      </trkpt>
      <trkpt lat="45.60083" lon="2.75935">
        <ele>1098</ele>
        <time>2013-09-22T07:26:36Z</time>
      </trkpt>
      <trkpt lat="45.60106" lon="2.75888">
        <ele>1109</ele>
        <time>2013-09-22T07:26:49Z</time>
      </trkpt>
      <trkpt lat="45.60126" lon="2.75836">
        <ele>1111</ele>
        <time>2013-09-22T07:27:04Z</time>
      </trkpt>
      <trkpt lat="45.60132" lon="2.75781">
        <ele>1107</ele>
        <time>2013-09-22T07:27:19Z</time>
      </trkpt>
      <trkpt lat="45.60159" lon="2.75705">
        <ele>1106</ele>
        <time>2013-09-22T07:27:34Z</time>
      </trkpt>
      <trkpt lat="45.60172" lon="2.75676">
        <ele>1117</ele>
        <time>2013-09-22T07:27:39Z</time>
      </trkpt>
      <trkpt lat="45.60178" lon="2.75657">
        <ele>1119</ele>
        <time>2013-09-22T07:27:50Z</time>
      </trkpt>
      <trkpt lat="45.60141" lon="2.75639">
        <ele>1105</ele>
        <time>2013-09-22T07:28:06Z</time>
      </trkpt>
      <trkpt lat="45.60138" lon="2.75631">
        <ele>1105</ele>
        <time>2013-09-22T07:28:10Z</time>
      </trkpt>
      <trkpt lat="45.60131" lon="2.75619">
        <ele>1104</ele>
        <time>2013-09-22T07:28:27Z</time>
      </trkpt>
      <trkpt lat="45.60132" lon="2.756">
        <ele>1106</ele>
        <time>2013-09-22T07:28:35Z</time>
      </trkpt>
      <trkpt lat="45.60132" lon="2.75595">
        <ele>1106</ele>
        <time>2013-09-22T07:28:46Z</time>
      </trkpt>
      <trkpt lat="45.60138" lon="2.75573">
        <ele>1113</ele>
        <time>2013-09-22T07:29:02Z</time>
      </trkpt>
      <trkpt lat="45.60142" lon="2.75549">
        <ele>1113</ele>
        <time>2013-09-22T07:29:16Z</time>
      </trkpt>
      <trkpt lat="45.60143" lon="2.75533">
        <ele>1114</ele>
        <time>2013-09-22T07:29:24Z</time>
      </trkpt>
      <trkpt lat="45.60145" lon="2.75521">
        <ele>1115</ele>
        <time>2013-09-22T07:29:30Z</time>
      </trkpt>
      <trkpt lat="45.60147" lon="2.75489">
        <ele>1119</ele>
        <time>2013-09-22T07:29:47Z</time>
      </trkpt>
      <trkpt lat="45.6015" lon="2.7545">
        <ele>1119</ele>
        <time>2013-09-22T07:30:03Z</time>
      </trkpt>
      <trkpt lat="45.60157" lon="2.75416">
        <ele>1125</ele>
        <time>2013-09-22T07:30:17Z</time>
      </trkpt>
      <trkpt lat="45.60153" lon="2.75365">
        <ele>1121</ele>
        <time>2013-09-22T07:30:30Z</time>
      </trkpt>
      <trkpt lat="45.60148" lon="2.75313">
        <ele>1122</ele>
        <time>2013-09-22T07:30:41Z</time>
      </trkpt>
      <trkpt lat="45.6015" lon="2.75246">
        <ele>1125</ele>
        <time>2013-09-22T07:30:52Z</time>
      </trkpt>
      <trkpt lat="45.6014" lon="2.75172">
        <ele>1122</ele>
        <time>2013-09-22T07:31:06Z</time>
      </trkpt>
      <trkpt lat="45.60149" lon="2.75165">
        <ele>1126</ele>
        <time>2013-09-22T07:31:12Z</time>
      </trkpt>
      <trkpt lat="45.60161" lon="2.75164">
        <ele>1129</ele>
        <time>2013-09-22T07:31:20Z</time>
      </trkpt>
      <trkpt lat="45.60187" lon="2.75161">
        <ele>1135</ele>
        <time>2013-09-22T07:31:36Z</time>
      </trkpt>
      <trkpt lat="45.60214" lon="2.75158">
        <ele>1139</ele>
        <time>2013-09-22T07:31:52Z</time>
      </trkpt>
      <trkpt lat="45.60238" lon="2.75155">
        <ele>1142</ele>
        <time>2013-09-22T07:32:08Z</time>
      </trkpt>
      <trkpt lat="45.60254" lon="2.75154">
        <ele>1148</ele>
        <time>2013-09-22T07:32:20Z</time>
      </trkpt>
      <trkpt lat="45.60257" lon="2.75152">
        <ele>1149</ele>
        <time>2013-09-22T07:32:22Z</time>
      </trkpt>
      <trkpt lat="45.60259" lon="2.75136">
        <ele>1150</ele>
        <time>2013-09-22T07:32:27Z</time>
      </trkpt>
      <trkpt lat="45.60263" lon="2.75076">
        <ele>1146</ele>
        <time>2013-09-22T07:32:37Z</time>
      </trkpt>
      <trkpt lat="45.60292" lon="2.75044">
        <ele>1150</ele>
        <time>2013-09-22T07:32:47Z</time>
      </trkpt>
      <trkpt lat="45.60303" lon="2.75043">
        <ele>1151</ele>
        <time>2013-09-22T07:32:51Z</time>
      </trkpt>
      <trkpt lat="45.60329" lon="2.75034">
        <ele>1152</ele>
        <time>2013-09-22T07:33:05Z</time>
      </trkpt>
      <trkpt lat="45.60354" lon="2.75024">
        <ele>1159</ele>
        <time>2013-09-22T07:33:21Z</time>
      </trkpt>
      <trkpt lat="45.60362" lon="2.75025">
        <ele>1159</ele>
        <time>2013-09-22T07:33:27Z</time>
      </trkpt>
      <trkpt lat="45.60377" lon="2.75048">
        <ele>1161</ele>
        <time>2013-09-22T07:33:43Z</time>
      </trkpt>
      <trkpt lat="45.60382" lon="2.75057">
        <ele>1162</ele>
        <time>2013-09-22T07:33:52Z</time>
      </trkpt>
      <trkpt lat="45.60399" lon="2.75066">
        <ele>1164</ele>
        <time>2013-09-22T07:34:08Z</time>
      </trkpt>
      <trkpt lat="45.60415" lon="2.75072">
        <ele>1167</ele>
        <time>2013-09-22T07:34:23Z</time>
      </trkpt>
      <trkpt lat="45.60435" lon="2.75079">
        <ele>1173</ele>
        <time>2013-09-22T07:34:39Z</time>
      </trkpt>
      <trkpt lat="45.60446" lon="2.75085">
        <ele>1179</ele>
        <time>2013-09-22T07:34:48Z</time>
      </trkpt>
      <trkpt lat="45.60447" lon="2.75086">
        <ele>1179</ele>
        <time>2013-09-22T07:34:49Z</time>
      </trkpt>
      <trkpt lat="45.60463" lon="2.7509">
        <ele>1182</ele>
        <time>2013-09-22T07:35:04Z</time>
      </trkpt>
      <trkpt lat="45.60467" lon="2.75096">
        <ele>1182</ele>
        <time>2013-09-22T07:35:09Z</time>
      </trkpt>
      <trkpt lat="45.60469" lon="2.75103">
        <ele>1182</ele>
        <time>2013-09-22T07:35:14Z</time>
      </trkpt>
      <trkpt lat="45.60479" lon="2.75108">
        <ele>1183</ele>
        <time>2013-09-22T07:35:22Z</time>
      </trkpt>
      <trkpt lat="45.60482" lon="2.75112">
        <ele>1184</ele>
        <time>2013-09-22T07:35:26Z</time>
      </trkpt>
      <trkpt lat="45.60483" lon="2.75113">
        <ele>1184</ele>
        <time>2013-09-22T07:35:27Z</time>
      </trkpt>
      <trkpt lat="45.60485" lon="2.75116">
        <ele>1184</ele>
        <time>2013-09-22T07:35:29Z</time>
      </trkpt>
      <trkpt lat="45.60486" lon="2.75121">
        <ele>1184</ele>
        <time>2013-09-22T07:35:31Z</time>
      </trkpt>
      <trkpt lat="45.60493" lon="2.75145">
        <ele>1187</ele>
        <time>2013-09-22T07:35:44Z</time>
      </trkpt>
      <trkpt lat="45.60493" lon="2.7516">
        <ele>1190</ele>
        <time>2013-09-22T07:35:52Z</time>
      </trkpt>
      <trkpt lat="45.60497" lon="2.75172">
        <ele>1193</ele>
        <time>2013-09-22T07:36:07Z</time>
      </trkpt>
      <trkpt lat="45.60496" lon="2.75187">
        <ele>1192</ele>
        <time>2013-09-22T07:36:21Z</time>
      </trkpt>
      <trkpt lat="45.60499" lon="2.75199">
        <ele>1192</ele>
        <time>2013-09-22T07:36:38Z</time>
      </trkpt>
      <trkpt lat="45.60499" lon="2.75205">
        <ele>1192</ele>
        <time>2013-09-22T07:36:52Z</time>
      </trkpt>
      <trkpt lat="45.60498" lon="2.75215">
        <ele>1193</ele>
        <time>2013-09-22T07:37:08Z</time>
      </trkpt>
      <trkpt lat="45.60498" lon="2.75222">
        <ele>1194</ele>
        <time>2013-09-22T07:37:22Z</time>
      </trkpt>
      <trkpt lat="45.60503" lon="2.75245">
        <ele>1206</ele>
        <time>2013-09-22T07:37:36Z</time>
      </trkpt>
      <trkpt lat="45.60505" lon="2.75263">
        <ele>1214</ele>
        <time>2013-09-22T07:37:52Z</time>
      </trkpt>
      <trkpt lat="45.60506" lon="2.75268">
        <ele>1217</ele>
        <time>2013-09-22T07:37:59Z</time>
      </trkpt>
      <trkpt lat="45.60509" lon="2.75276">
        <ele>1220</ele>
        <time>2013-09-22T07:38:16Z</time>
      </trkpt>
      <trkpt lat="45.60511" lon="2.75291">
        <ele>1223</ele>
        <time>2013-09-22T07:38:30Z</time>
      </trkpt>
      <trkpt lat="45.60511" lon="2.753">
        <ele>1224</ele>
        <time>2013-09-22T07:38:46Z</time>
      </trkpt>
      <trkpt lat="45.6051" lon="2.75315">
        <ele>1225</ele>
        <time>2013-09-22T07:39:02Z</time>
      </trkpt>
      <trkpt lat="45.6051" lon="2.75325">
        <ele>1224</ele>
        <time>2013-09-22T07:39:16Z</time>
      </trkpt>
      <trkpt lat="45.60507" lon="2.75326">
        <ele>1224</ele>
        <time>2013-09-22T07:39:21Z</time>
      </trkpt>
      <trkpt lat="45.60499" lon="2.75344">
        <ele>1219</ele>
        <time>2013-09-22T07:39:34Z</time>
      </trkpt>
      <trkpt lat="45.60493" lon="2.75385">
        <ele>1220</ele>
        <time>2013-09-22T07:39:52Z</time>
      </trkpt>
      <trkpt lat="45.60489" lon="2.75416">
        <ele>1226</ele>
        <time>2013-09-22T07:40:09Z</time>
      </trkpt>
      <trkpt lat="45.60484" lon="2.7545">
        <ele>1225</ele>
        <time>2013-09-22T07:40:26Z</time>
      </trkpt>
      <trkpt lat="45.60479" lon="2.75475">
        <ele>1225</ele>
        <time>2013-09-22T07:40:40Z</time>
      </trkpt>
      <trkpt lat="45.60479" lon="2.75479">
        <ele>1226</ele>
        <time>2013-09-22T07:40:52Z</time>
      </trkpt>
      <trkpt lat="45.60478" lon="2.75481">
        <ele>1226</ele>
        <time>2013-09-22T07:41:16Z</time>
      </trkpt>
      <trkpt lat="45.60478" lon="2.75481">
        <ele>1226</ele>
        <time>2013-09-22T07:41:35Z</time>
      </trkpt>
      <trkpt lat="45.60478" lon="2.75481">
        <ele>1226</ele>
        <time>2013-09-22T07:41:37Z</time>
      </trkpt>
      <trkpt lat="45.60479" lon="2.75481">
        <ele>1226</ele>
        <time>2013-09-22T07:41:59Z</time>
      </trkpt>
      <trkpt lat="45.60479" lon="2.75481">
        <ele>1226</ele>
        <time>2013-09-22T07:42:01Z</time>
      </trkpt>
      <trkpt lat="45.60476" lon="2.75483">
        <ele>1225</ele>
        <time>2013-09-22T07:42:05Z</time>
      </trkpt>
      <trkpt lat="45.60478" lon="2.75515">
        <ele>1226</ele>
        <time>2013-09-22T07:42:21Z</time>
      </trkpt>
      <trkpt lat="45.60485" lon="2.75546">
        <ele>1224</ele>
        <time>2013-09-22T07:42:38Z</time>
      </trkpt>
      <trkpt lat="45.60491" lon="2.75564">
        <ele>1225</ele>
        <time>2013-09-22T07:42:54Z</time>
      </trkpt>
      <trkpt lat="45.60491" lon="2.75564">
        <ele>1225</ele>
        <time>2013-09-22T07:43:10Z</time>
      </trkpt>
      <trkpt lat="45.60491" lon="2.75565">
        <ele>1225</ele>
        <time>2013-09-22T07:43:28Z</time>
      </trkpt>
      <trkpt lat="45.60507" lon="2.75585">
        <ele>1234</ele>
        <time>2013-09-22T07:43:44Z</time>
      </trkpt>
      <trkpt lat="45.60521" lon="2.75603">
        <ele>1239</ele>
        <time>2013-09-22T07:44:00Z</time>
      </trkpt>
      <trkpt lat="45.60534" lon="2.75623">
        <ele>1241</ele>
        <time>2013-09-22T07:44:16Z</time>
      </trkpt>
      <trkpt lat="45.60544" lon="2.75646">
        <ele>1242</ele>
        <time>2013-09-22T07:44:33Z</time>
      </trkpt>
      <trkpt lat="45.60552" lon="2.75667">
        <ele>1243</ele>
        <time>2013-09-22T07:44:46Z</time>
      </trkpt>
      <trkpt lat="45.60557" lon="2.75682">
        <ele>1243</ele>
        <time>2013-09-22T07:44:55Z</time>
      </trkpt>
      <trkpt lat="45.60564" lon="2.75707">
        <ele>1244</ele>
        <time>2013-09-22T07:45:10Z</time>
      </trkpt>
      <trkpt lat="45.60563" lon="2.75715">
        <ele>1244</ele>
        <time>2013-09-22T07:45:14Z</time>
      </trkpt>
      <trkpt lat="45.6056" lon="2.75744">
        <ele>1245</ele>
        <time>2013-09-22T07:45:32Z</time>
      </trkpt>
      <trkpt lat="45.6056" lon="2.75746">
        <ele>1245</ele>
        <time>2013-09-22T07:45:33Z</time>
      </trkpt>
      <trkpt lat="45.60559" lon="2.75756">
        <ele>1247</ele>
        <time>2013-09-22T07:45:39Z</time>
      </trkpt>
      <trkpt lat="45.60561" lon="2.75784">
        <ele>1247</ele>
        <time>2013-09-22T07:45:54Z</time>
      </trkpt>
      <trkpt lat="45.60563" lon="2.75803">
        <ele>1248</ele>
        <time>2013-09-22T07:46:03Z</time>
      </trkpt>
      <trkpt lat="45.60564" lon="2.75806">
        <ele>1248</ele>
        <time>2013-09-22T07:46:05Z</time>
      </trkpt>
      <trkpt lat="45.60565" lon="2.75824">
        <ele>1251</ele>
        <time>2013-09-22T07:46:15Z</time>
      </trkpt>
      <trkpt lat="45.60568" lon="2.75838">
        <ele>1254</ele>
        <time>2013-09-22T07:46:23Z</time>
      </trkpt>
      <trkpt lat="45.60568" lon="2.75846">
        <ele>1253</ele>
        <time>2013-09-22T07:46:27Z</time>
      </trkpt>
      <trkpt lat="45.60571" lon="2.75877">
        <ele>1251</ele>
        <time>2013-09-22T07:46:44Z</time>
      </trkpt>
      <trkpt lat="45.60571" lon="2.75879">
        <ele>1252</ele>
        <time>2013-09-22T07:46:45Z</time>
      </trkpt>
      <trkpt lat="45.60578" lon="2.75909">
        <ele>1257</ele>
        <time>2013-09-22T07:47:01Z</time>
      </trkpt>
      <trkpt lat="45.60578" lon="2.75917">
        <ele>1259</ele>
        <time>2013-09-22T07:47:07Z</time>
      </trkpt>
      <trkpt lat="45.60578" lon="2.75923">
        <ele>1257</ele>
        <time>2013-09-22T07:47:10Z</time>
      </trkpt>
      <trkpt lat="45.6058" lon="2.75933">
        <ele>1254</ele>
        <time>2013-09-22T07:47:15Z</time>
      </trkpt>
      <trkpt lat="45.60583" lon="2.75944">
        <ele>1252</ele>
        <time>2013-09-22T07:47:21Z</time>
      </trkpt>
      <trkpt lat="45.6059" lon="2.75976">
        <ele>1268</ele>
        <time>2013-09-22T07:47:39Z</time>
      </trkpt>
      <trkpt lat="45.60591" lon="2.75984">
        <ele>1266</ele>
        <time>2013-09-22T07:47:44Z</time>
      </trkpt>
      <trkpt lat="45.60592" lon="2.75989">
        <ele>1266</ele>
        <time>2013-09-22T07:47:47Z</time>
      </trkpt>
      <trkpt lat="45.606" lon="2.76016">
        <ele>1267</ele>
        <time>2013-09-22T07:48:03Z</time>
      </trkpt>
      <trkpt lat="45.60601" lon="2.7604">
        <ele>1268</ele>
        <time>2013-09-22T07:48:19Z</time>
      </trkpt>
      <trkpt lat="45.60601" lon="2.76054">
        <ele>1268</ele>
        <time>2013-09-22T07:48:26Z</time>
      </trkpt>
      <trkpt lat="45.60605" lon="2.76076">
        <ele>1266</ele>
        <time>2013-09-22T07:48:34Z</time>
      </trkpt>
      <trkpt lat="45.60603" lon="2.76129">
        <ele>1267</ele>
        <time>2013-09-22T07:48:47Z</time>
      </trkpt>
      <trkpt lat="45.60593" lon="2.76208">
        <ele>1266</ele>
        <time>2013-09-22T07:49:02Z</time>
      </trkpt>
      <trkpt lat="45.60593" lon="2.76281">
        <ele>1265</ele>
        <time>2013-09-22T07:49:17Z</time>
      </trkpt>
      <trkpt lat="45.60588" lon="2.76346">
        <ele>1262</ele>
        <time>2013-09-22T07:49:32Z</time>
      </trkpt>
      <trkpt lat="45.60584" lon="2.76399">
        <ele>1265</ele>
        <time>2013-09-22T07:49:49Z</time>
      </trkpt>
      <trkpt lat="45.60567" lon="2.76451">
        <ele>1256</ele>
        <time>2013-09-22T07:50:03Z</time>
      </trkpt>
      <trkpt lat="45.6055" lon="2.76491">
        <ele>1256</ele>
        <time>2013-09-22T07:50:14Z</time>
      </trkpt>
      <trkpt lat="45.6055" lon="2.76512">
        <ele>1256</ele>
        <time>2013-09-22T07:50:22Z</time>
      </trkpt>
      <trkpt lat="45.60558" lon="2.76518">
        <ele>1256</ele>
        <time>2013-09-22T07:50:28Z</time>
      </trkpt>
      <trkpt lat="45.60578" lon="2.76504">
        <ele>1261</ele>
        <time>2013-09-22T07:50:43Z</time>
      </trkpt>
      <trkpt lat="45.60597" lon="2.76479">
        <ele>1267</ele>
        <time>2013-09-22T07:51:00Z</time>
      </trkpt>
      <trkpt lat="45.60614" lon="2.76452">
        <ele>1269</ele>
        <time>2013-09-22T07:51:18Z</time>
      </trkpt>
      <trkpt lat="45.60617" lon="2.76448">
        <ele>1270</ele>
        <time>2013-09-22T07:51:21Z</time>
      </trkpt>
      <trkpt lat="45.6063" lon="2.76419">
        <ele>1272</ele>
        <time>2013-09-22T07:51:38Z</time>
      </trkpt>
      <trkpt lat="45.60637" lon="2.76403">
        <ele>1273</ele>
        <time>2013-09-22T07:51:47Z</time>
      </trkpt>
      <trkpt lat="45.60645" lon="2.76371">
        <ele>1273</ele>
        <time>2013-09-22T07:52:05Z</time>
      </trkpt>
      <trkpt lat="45.60653" lon="2.76331">
        <ele>1277</ele>
        <time>2013-09-22T07:52:26Z</time>
      </trkpt>
      <trkpt lat="45.60662" lon="2.76293">
        <ele>1275</ele>
        <time>2013-09-22T07:52:46Z</time>
      </trkpt>
      <trkpt lat="45.60667" lon="2.76263">
        <ele>1289</ele>
        <time>2013-09-22T07:53:02Z</time>
      </trkpt>
      <trkpt lat="45.60673" lon="2.76233">
        <ele>1292</ele>
        <time>2013-09-22T07:53:18Z</time>
      </trkpt>
      <trkpt lat="45.60681" lon="2.76199">
        <ele>1295</ele>
        <time>2013-09-22T07:53:36Z</time>
      </trkpt>
      <trkpt lat="45.60694" lon="2.76163">
        <ele>1297</ele>
        <time>2013-09-22T07:53:56Z</time>
      </trkpt>
      <trkpt lat="45.60706" lon="2.7613">
        <ele>1302</ele>
        <time>2013-09-22T07:54:14Z</time>
      </trkpt>
      <trkpt lat="45.60714" lon="2.76096">
        <ele>1304</ele>
        <time>2013-09-22T07:54:31Z</time>
      </trkpt>
      <trkpt lat="45.60721" lon="2.76055">
        <ele>1306</ele>
        <time>2013-09-22T07:54:50Z</time>
      </trkpt>
      <trkpt lat="45.60725" lon="2.76018">
        <ele>1307</ele>
        <time>2013-09-22T07:55:07Z</time>
      </trkpt>
      <trkpt lat="45.60729" lon="2.75982">
        <ele>1308</ele>
        <time>2013-09-22T07:55:23Z</time>
      </trkpt>
      <trkpt lat="45.60732" lon="2.75942">
        <ele>1308</ele>
        <time>2013-09-22T07:55:42Z</time>
      </trkpt>
      <trkpt lat="45.60733" lon="2.75903">
        <ele>1309</ele>
        <time>2013-09-22T07:55:59Z</time>
      </trkpt>
      <trkpt lat="45.60733" lon="2.75868">
        <ele>1307</ele>
        <time>2013-09-22T07:56:15Z</time>
      </trkpt>
      <trkpt lat="45.60737" lon="2.75827">
        <ele>1311</ele>
        <time>2013-09-22T07:56:32Z</time>
      </trkpt>
      <trkpt lat="45.60738" lon="2.75798">
        <ele>1307</ele>
        <time>2013-09-22T07:56:44Z</time>
      </trkpt>
      <trkpt lat="45.60737" lon="2.75764">
        <ele>1308</ele>
        <time>2013-09-22T07:56:56Z</time>
      </trkpt>
      <trkpt lat="45.60737" lon="2.75764">
        <ele>1308</ele>
        <time>2013-09-22T07:57:04Z</time>
      </trkpt>
      <trkpt lat="45.60737" lon="2.75764">
        <ele>1308</ele>
        <time>2013-09-22T07:57:06Z</time>
      </trkpt>
      <trkpt lat="45.60737" lon="2.75764">
        <ele>1308</ele>
        <time>2013-09-22T07:57:11Z</time>
      </trkpt>
      <trkpt lat="45.60737" lon="2.75764">
        <ele>1308</ele>
        <time>2013-09-22T07:57:13Z</time>
      </trkpt>
      <trkpt lat="45.60737" lon="2.75764">
        <ele>1308</ele>
        <time>2013-09-22T07:57:35Z</time>
      </trkpt>
      <trkpt lat="45.60737" lon="2.75764">
        <ele>1308</ele>
        <time>2013-09-22T07:57:55Z</time>
      </trkpt>
      <trkpt lat="45.60739" lon="2.75758">
        <ele>1309</ele>
        <time>2013-09-22T07:57:59Z</time>
      </trkpt>
      <trkpt lat="45.6076" lon="2.75698">
        <ele>1311</ele>
        <time>2013-09-22T07:58:12Z</time>
      </trkpt>
      <trkpt lat="45.60823" lon="2.75685">
        <ele>1310</ele>
        <time>2013-09-22T07:58:20Z</time>
      </trkpt>
      <trkpt lat="45.60865" lon="2.75712">
        <ele>1308</ele>
        <time>2013-09-22T07:58:26Z</time>
      </trkpt>
      <trkpt lat="45.60937" lon="2.75762">
        <ele>1309</ele>
        <time>2013-09-22T07:58:40Z</time>
      </trkpt>
      <trkpt lat="45.61015" lon="2.75812">
        <ele>1306</ele>
        <time>2013-09-22T07:58:59Z</time>
      </trkpt>
      <trkpt lat="45.6104" lon="2.75828">
        <ele>1304</ele>
        <time>2013-09-22T07:59:05Z</time>
      </trkpt>
      <trkpt lat="45.61119" lon="2.75876">
        <ele>1311</ele>
        <time>2013-09-22T07:59:23Z</time>
      </trkpt>
      <trkpt lat="45.61132" lon="2.75885">
        <ele>1311</ele>
        <time>2013-09-22T07:59:26Z</time>
      </trkpt>
      <trkpt lat="45.61207" lon="2.75933">
        <ele>1314</ele>
        <time>2013-09-22T07:59:47Z</time>
      </trkpt>
      <trkpt lat="45.61263" lon="2.75984">
        <ele>1311</ele>
        <time>2013-09-22T08:00:07Z</time>
      </trkpt>
      <trkpt lat="45.61274" lon="2.75999">
        <ele>1310</ele>
        <time>2013-09-22T08:00:12Z</time>
      </trkpt>
      <trkpt lat="45.61313" lon="2.76066">
        <ele>1318</ele>
        <time>2013-09-22T08:00:34Z</time>
      </trkpt>
      <trkpt lat="45.61345" lon="2.76125">
        <ele>1317</ele>
        <time>2013-09-22T08:00:53Z</time>
      </trkpt>
      <trkpt lat="45.61375" lon="2.76179">
        <ele>1321</ele>
        <time>2013-09-22T08:01:10Z</time>
      </trkpt>
      <trkpt lat="45.61409" lon="2.76242">
        <ele>1321</ele>
        <time>2013-09-22T08:01:28Z</time>
      </trkpt>
      <trkpt lat="45.61448" lon="2.76308">
        <ele>1321</ele>
        <time>2013-09-22T08:01:45Z</time>
      </trkpt>
      <trkpt lat="45.61501" lon="2.76405">
        <ele>1321</ele>
        <time>2013-09-22T08:02:07Z</time>
      </trkpt>
      <trkpt lat="45.61543" lon="2.7648">
        <ele>1325</ele>
        <time>2013-09-22T08:02:25Z</time>
      </trkpt>
      <trkpt lat="45.616" lon="2.76559">
        <ele>1326</ele>
        <time>2013-09-22T08:02:47Z</time>
      </trkpt>
      <trkpt lat="45.61649" lon="2.76625">
        <ele>1328</ele>
        <time>2013-09-22T08:03:04Z</time>
      </trkpt>
      <trkpt lat="45.61672" lon="2.76655">
        <ele>1322</ele>
        <time>2013-09-22T08:03:11Z</time>
      </trkpt>
      <trkpt lat="45.6168" lon="2.76678">
        <ele>1325</ele>
        <time>2013-09-22T08:03:15Z</time>
      </trkpt>
      <trkpt lat="45.61694" lon="2.76722">
        <ele>1325</ele>
        <time>2013-09-22T08:03:27Z</time>
      </trkpt>
      <trkpt lat="45.61728" lon="2.76785">
        <ele>1327</ele>
        <time>2013-09-22T08:03:44Z</time>
      </trkpt>
      <trkpt lat="45.61755" lon="2.76839">
        <ele>1326</ele>
        <time>2013-09-22T08:03:59Z</time>
      </trkpt>
      <trkpt lat="45.6176" lon="2.76873">
        <ele>1326</ele>
        <time>2013-09-22T08:04:11Z</time>
      </trkpt>
      <trkpt lat="45.61759" lon="2.76907">
        <ele>1328</ele>
        <time>2013-09-22T08:04:25Z</time>
      </trkpt>
      <trkpt lat="45.61758" lon="2.76919">
        <ele>1330</ele>
        <time>2013-09-22T08:04:30Z</time>
      </trkpt>
      <trkpt lat="45.61744" lon="2.76944">
        <ele>1335</ele>
        <time>2013-09-22T08:04:46Z</time>
      </trkpt>
      <trkpt lat="45.61725" lon="2.76964">
        <ele>1337</ele>
        <time>2013-09-22T08:05:05Z</time>
      </trkpt>
      <trkpt lat="45.61704" lon="2.76986">
        <ele>1338</ele>
        <time>2013-09-22T08:05:26Z</time>
      </trkpt>
      <trkpt lat="45.61687" lon="2.77007">
        <ele>1340</ele>
        <time>2013-09-22T08:05:45Z</time>
      </trkpt>
      <trkpt lat="45.6167" lon="2.77025">
        <ele>1341</ele>
        <time>2013-09-22T08:06:04Z</time>
      </trkpt>
      <trkpt lat="45.61652" lon="2.77043">
        <ele>1350</ele>
        <time>2013-09-22T08:06:22Z</time>
      </trkpt>
      <trkpt lat="45.61639" lon="2.77056">
        <ele>1351</ele>
        <time>2013-09-22T08:06:35Z</time>
      </trkpt>
      <trkpt lat="45.61625" lon="2.7707">
        <ele>1353</ele>
        <time>2013-09-22T08:06:49Z</time>
      </trkpt>
      <trkpt lat="45.6161" lon="2.77088">
        <ele>1358</ele>
        <time>2013-09-22T08:07:05Z</time>
      </trkpt>
      <trkpt lat="45.61595" lon="2.77107">
        <ele>1359</ele>
        <time>2013-09-22T08:07:22Z</time>
      </trkpt>
      <trkpt lat="45.61585" lon="2.77133">
        <ele>1360</ele>
        <time>2013-09-22T08:07:39Z</time>
      </trkpt>
      <trkpt lat="45.61572" lon="2.77167">
        <ele>1369</ele>
        <time>2013-09-22T08:07:59Z</time>
      </trkpt>
      <trkpt lat="45.6156" lon="2.77198">
        <ele>1373</ele>
        <time>2013-09-22T08:08:18Z</time>
      </trkpt>
      <trkpt lat="45.61549" lon="2.77226">
        <ele>1375</ele>
        <time>2013-09-22T08:08:36Z</time>
      </trkpt>
      <trkpt lat="45.61541" lon="2.77248">
        <ele>1376</ele>
        <time>2013-09-22T08:08:51Z</time>
      </trkpt>
      <trkpt lat="45.6153" lon="2.77276">
        <ele>1380</ele>
        <time>2013-09-22T08:09:08Z</time>
      </trkpt>
      <trkpt lat="45.61519" lon="2.77304">
        <ele>1381</ele>
        <time>2013-09-22T08:09:26Z</time>
      </trkpt>
      <trkpt lat="45.61509" lon="2.77332">
        <ele>1385</ele>
        <time>2013-09-22T08:09:44Z</time>
      </trkpt>
      <trkpt lat="45.61497" lon="2.77358">
        <ele>1394</ele>
        <time>2013-09-22T08:10:02Z</time>
      </trkpt>
      <trkpt lat="45.61487" lon="2.77385">
        <ele>1396</ele>
        <time>2013-09-22T08:10:20Z</time>
      </trkpt>
      <trkpt lat="45.61479" lon="2.77409">
        <ele>1396</ele>
        <time>2013-09-22T08:10:36Z</time>
      </trkpt>
      <trkpt lat="45.61474" lon="2.77422">
        <ele>1401</ele>
        <time>2013-09-22T08:10:44Z</time>
      </trkpt>
      <trkpt lat="45.61467" lon="2.77441">
        <ele>1404</ele>
        <time>2013-09-22T08:10:57Z</time>
      </trkpt>
      <trkpt lat="45.61466" lon="2.77464">
        <ele>1405</ele>
        <time>2013-09-22T08:11:11Z</time>
      </trkpt>
      <trkpt lat="45.61473" lon="2.77495">
        <ele>1405</ele>
        <time>2013-09-22T08:11:29Z</time>
      </trkpt>
      <trkpt lat="45.61476" lon="2.77511">
        <ele>1410</ele>
        <time>2013-09-22T08:11:39Z</time>
      </trkpt>
      <trkpt lat="45.61483" lon="2.77545">
        <ele>1412</ele>
        <time>2013-09-22T08:11:57Z</time>
      </trkpt>
      <trkpt lat="45.61493" lon="2.77579">
        <ele>1413</ele>
        <time>2013-09-22T08:12:16Z</time>
      </trkpt>
      <trkpt lat="45.61499" lon="2.77607">
        <ele>1419</ele>
        <time>2013-09-22T08:12:32Z</time>
      </trkpt>
      <trkpt lat="45.61486" lon="2.77623">
        <ele>1422</ele>
        <time>2013-09-22T08:12:47Z</time>
      </trkpt>
      <trkpt lat="45.6147" lon="2.77633">
        <ele>1424</ele>
        <time>2013-09-22T08:13:02Z</time>
      </trkpt>
      <trkpt lat="45.61454" lon="2.77643">
        <ele>1425</ele>
        <time>2013-09-22T08:13:17Z</time>
      </trkpt>
      <trkpt lat="45.61451" lon="2.77645">
        <ele>1426</ele>
        <time>2013-09-22T08:13:20Z</time>
      </trkpt>
      <trkpt lat="45.61432" lon="2.77659">
        <ele>1429</ele>
        <time>2013-09-22T08:13:37Z</time>
      </trkpt>
      <trkpt lat="45.61412" lon="2.77669">
        <ele>1436</ele>
        <time>2013-09-22T08:13:55Z</time>
      </trkpt>
      <trkpt lat="45.61394" lon="2.77679">
        <ele>1440</ele>
        <time>2013-09-22T08:14:12Z</time>
      </trkpt>
      <trkpt lat="45.61372" lon="2.77689">
        <ele>1443</ele>
        <time>2013-09-22T08:14:31Z</time>
      </trkpt>
      <trkpt lat="45.61353" lon="2.77698">
        <ele>1444</ele>
        <time>2013-09-22T08:14:47Z</time>
      </trkpt>
      <trkpt lat="45.61329" lon="2.77709">
        <ele>1445</ele>
        <time>2013-09-22T08:15:05Z</time>
      </trkpt>
      <trkpt lat="45.61314" lon="2.77716">
        <ele>1445</ele>
        <time>2013-09-22T08:15:17Z</time>
      </trkpt>
      <trkpt lat="45.61305" lon="2.77721">
        <ele>1445</ele>
        <time>2013-09-22T08:15:32Z</time>
      </trkpt>
      <trkpt lat="45.61303" lon="2.77721">
        <ele>1445</ele>
        <time>2013-09-22T08:15:43Z</time>
      </trkpt>
      <trkpt lat="45.61291" lon="2.7773">
        <ele>1445</ele>
        <time>2013-09-22T08:15:56Z</time>
      </trkpt>
      <trkpt lat="45.61291" lon="2.7773">
        <ele>1445</ele>
        <time>2013-09-22T08:16:14Z</time>
      </trkpt>
      <trkpt lat="45.61289" lon="2.77732">
        <ele>1444</ele>
        <time>2013-09-22T08:16:16Z</time>
      </trkpt>
      <trkpt lat="45.61279" lon="2.77747">
        <ele>1444</ele>
        <time>2013-09-22T08:16:22Z</time>
      </trkpt>
      <trkpt lat="45.6125" lon="2.77815">
        <ele>1440</ele>
        <time>2013-09-22T08:16:38Z</time>
      </trkpt>
      <trkpt lat="45.6122" lon="2.77884">
        <ele>1442</ele>
        <time>2013-09-22T08:16:52Z</time>
      </trkpt>
      <trkpt lat="45.61209" lon="2.77912">
        <ele>1441</ele>
        <time>2013-09-22T08:16:56Z</time>
      </trkpt>
      <trkpt lat="45.61189" lon="2.77961">
        <ele>1443</ele>
        <time>2013-09-22T08:17:03Z</time>
      </trkpt>
      <trkpt lat="45.61158" lon="2.78069">
        <ele>1434</ele>
        <time>2013-09-22T08:17:19Z</time>
      </trkpt>
      <trkpt lat="45.61157" lon="2.78105">
        <ele>1432</ele>
        <time>2013-09-22T08:17:24Z</time>
      </trkpt>
      <trkpt lat="45.61181" lon="2.78196">
        <ele>1435</ele>
        <time>2013-09-22T08:17:36Z</time>
      </trkpt>
      <trkpt lat="45.61186" lon="2.78215">
        <ele>1434</ele>
        <time>2013-09-22T08:17:38Z</time>
      </trkpt>
      <trkpt lat="45.61197" lon="2.78254">
        <ele>1427</ele>
        <time>2013-09-22T08:17:42Z</time>
      </trkpt>
      <trkpt lat="45.61211" lon="2.7829">
        <ele>1427</ele>
        <time>2013-09-22T08:17:46Z</time>
      </trkpt>
      <trkpt lat="45.61222" lon="2.78319">
        <ele>1426</ele>
        <time>2013-09-22T08:17:50Z</time>
      </trkpt>
      <trkpt lat="45.61232" lon="2.78348">
        <ele>1421</ele>
        <time>2013-09-22T08:17:54Z</time>
      </trkpt>
      <trkpt lat="45.61263" lon="2.78411">
        <ele>1421</ele>
        <time>2013-09-22T08:18:03Z</time>
      </trkpt>
      <trkpt lat="45.61285" lon="2.78443">
        <ele>1417</ele>
        <time>2013-09-22T08:18:08Z</time>
      </trkpt>
      <trkpt lat="45.61309" lon="2.78476">
        <ele>1416</ele>
        <time>2013-09-22T08:18:13Z</time>
      </trkpt>
      <trkpt lat="45.61314" lon="2.78483">
        <ele>1416</ele>
        <time>2013-09-22T08:18:14Z</time>
      </trkpt>
      <trkpt lat="45.61382" lon="2.78548">
        <ele>1414</ele>
        <time>2013-09-22T08:18:27Z</time>
      </trkpt>
      <trkpt lat="45.61405" lon="2.78568">
        <ele>1412</ele>
        <time>2013-09-22T08:18:32Z</time>
      </trkpt>
      <trkpt lat="45.61449" lon="2.78582">
        <ele>1416</ele>
        <time>2013-09-22T08:18:39Z</time>
      </trkpt>
      <trkpt lat="45.61482" lon="2.78603">
        <ele>1408</ele>
        <time>2013-09-22T08:18:44Z</time>
      </trkpt>
      <trkpt lat="45.61495" lon="2.7861">
        <ele>1408</ele>
        <time>2013-09-22T08:18:46Z</time>
      </trkpt>
      <trkpt lat="45.61529" lon="2.78634">
        <ele>1411</ele>
        <time>2013-09-22T08:18:52Z</time>
      </trkpt>
      <trkpt lat="45.61548" lon="2.78661">
        <ele>1410</ele>
        <time>2013-09-22T08:18:56Z</time>
      </trkpt>
      <trkpt lat="45.61567" lon="2.78714">
        <ele>1402</ele>
        <time>2013-09-22T08:19:02Z</time>
      </trkpt>
      <trkpt lat="45.61571" lon="2.78735">
        <ele>1401</ele>
        <time>2013-09-22T08:19:04Z</time>
      </trkpt>
      <trkpt lat="45.6158" lon="2.7878">
        <ele>1397</ele>
        <time>2013-09-22T08:19:09Z</time>
      </trkpt>
      <trkpt lat="45.61581" lon="2.78789">
        <ele>1396</ele>
        <time>2013-09-22T08:19:10Z</time>
      </trkpt>
      <trkpt lat="45.61588" lon="2.78805">
        <ele>1399</ele>
        <time>2013-09-22T08:19:12Z</time>
      </trkpt>
      <trkpt lat="45.61596" lon="2.78819">
        <ele>1398</ele>
        <time>2013-09-22T08:19:14Z</time>
      </trkpt>
      <trkpt lat="45.61652" lon="2.78905">
        <ele>1395</ele>
        <time>2013-09-22T08:19:29Z</time>
      </trkpt>
      <trkpt lat="45.61665" lon="2.78922">
        <ele>1394</ele>
        <time>2013-09-22T08:19:32Z</time>
      </trkpt>
      <trkpt lat="45.61688" lon="2.78963">
        <ele>1395</ele>
        <time>2013-09-22T08:19:38Z</time>
      </trkpt>
      <trkpt lat="45.61697" lon="2.78998">
        <ele>1394</ele>
        <time>2013-09-22T08:19:42Z</time>
      </trkpt>
      <trkpt lat="45.61701" lon="2.79054">
        <ele>1391</ele>
        <time>2013-09-22T08:19:47Z</time>
      </trkpt>
      <trkpt lat="45.61715" lon="2.79131">
        <ele>1387</ele>
        <time>2013-09-22T08:19:54Z</time>
      </trkpt>
      <trkpt lat="45.61736" lon="2.79208">
        <ele>1382</ele>
        <time>2013-09-22T08:20:01Z</time>
      </trkpt>
      <trkpt lat="45.61745" lon="2.7924">
        <ele>1382</ele>
        <time>2013-09-22T08:20:04Z</time>
      </trkpt>
      <trkpt lat="45.61748" lon="2.79252">
        <ele>1381</ele>
        <time>2013-09-22T08:20:05Z</time>
      </trkpt>
      <trkpt lat="45.6175" lon="2.79332">
        <ele>1376</ele>
        <time>2013-09-22T08:20:12Z</time>
      </trkpt>
      <trkpt lat="45.61747" lon="2.79426">
        <ele>1370</ele>
        <time>2013-09-22T08:20:20Z</time>
      </trkpt>
      <trkpt lat="45.61743" lon="2.79482">
        <ele>1369</ele>
        <time>2013-09-22T08:20:25Z</time>
      </trkpt>
      <trkpt lat="45.61743" lon="2.79506">
        <ele>1368</ele>
        <time>2013-09-22T08:20:27Z</time>
      </trkpt>
      <trkpt lat="45.61749" lon="2.79602">
        <ele>1365</ele>
        <time>2013-09-22T08:20:35Z</time>
      </trkpt>
      <trkpt lat="45.6175" lon="2.79614">
        <ele>1364</ele>
        <time>2013-09-22T08:20:36Z</time>
      </trkpt>
      <trkpt lat="45.61757" lon="2.79733">
        <ele>1362</ele>
        <time>2013-09-22T08:20:46Z</time>
      </trkpt>
      <trkpt lat="45.61766" lon="2.79882">
        <ele>1358</ele>
        <time>2013-09-22T08:21:00Z</time>
      </trkpt>
      <trkpt lat="45.61776" lon="2.80033">
        <ele>1356</ele>
        <time>2013-09-22T08:21:17Z</time>
      </trkpt>
      <trkpt lat="45.61781" lon="2.80078">
        <ele>1356</ele>
        <time>2013-09-22T08:21:23Z</time>
      </trkpt>
      <trkpt lat="45.61788" lon="2.80211">
        <ele>1352</ele>
        <time>2013-09-22T08:21:39Z</time>
      </trkpt>
      <trkpt lat="45.61789" lon="2.80313">
        <ele>1351</ele>
        <time>2013-09-22T08:21:50Z</time>
      </trkpt>
      <trkpt lat="45.6179" lon="2.80361">
        <ele>1350</ele>
        <time>2013-09-22T08:21:55Z</time>
      </trkpt>
      <trkpt lat="45.61789" lon="2.80415">
        <ele>1350</ele>
        <time>2013-09-22T08:22:01Z</time>
      </trkpt>
      <trkpt lat="45.61789" lon="2.80497">
        <ele>1350</ele>
        <time>2013-09-22T08:22:12Z</time>
      </trkpt>
      <trkpt lat="45.61782" lon="2.80603">
        <ele>1349</ele>
        <time>2013-09-22T08:22:24Z</time>
      </trkpt>
      <trkpt lat="45.61779" lon="2.80641">
        <ele>1348</ele>
        <time>2013-09-22T08:22:28Z</time>
      </trkpt>
      <trkpt lat="45.61772" lon="2.80756">
        <ele>1346</ele>
        <time>2013-09-22T08:22:42Z</time>
      </trkpt>
      <trkpt lat="45.61787" lon="2.80808">
        <ele>1345</ele>
        <time>2013-09-22T08:22:49Z</time>
      </trkpt>
      <trkpt lat="45.61825" lon="2.80877">
        <ele>1340</ele>
        <time>2013-09-22T08:22:58Z</time>
      </trkpt>
      <trkpt lat="45.61828" lon="2.80887">
        <ele>1340</ele>
        <time>2013-09-22T08:22:59Z</time>
      </trkpt>
      <trkpt lat="45.6184" lon="2.80931">
        <ele>1336</ele>
        <time>2013-09-22T08:23:03Z</time>
      </trkpt>
      <trkpt lat="45.61842" lon="2.80943">
        <ele>1336</ele>
        <time>2013-09-22T08:23:04Z</time>
      </trkpt>
      <trkpt lat="45.61847" lon="2.8098">
        <ele>1334</ele>
        <time>2013-09-22T08:23:07Z</time>
      </trkpt>
      <trkpt lat="45.61843" lon="2.8103">
        <ele>1332</ele>
        <time>2013-09-22T08:23:11Z</time>
      </trkpt>
      <trkpt lat="45.61833" lon="2.81103">
        <ele>1329</ele>
        <time>2013-09-22T08:23:18Z</time>
      </trkpt>
      <trkpt lat="45.61822" lon="2.81132">
        <ele>1327</ele>
        <time>2013-09-22T08:23:22Z</time>
      </trkpt>
      <trkpt lat="45.61819" lon="2.81139">
        <ele>1327</ele>
        <time>2013-09-22T08:23:23Z</time>
      </trkpt>
      <trkpt lat="45.6181" lon="2.81165">
        <ele>1327</ele>
        <time>2013-09-22T08:23:26Z</time>
      </trkpt>
      <trkpt lat="45.61807" lon="2.81174">
        <ele>1325</ele>
        <time>2013-09-22T08:23:27Z</time>
      </trkpt>
      <trkpt lat="45.61805" lon="2.81216">
        <ele>1324</ele>
        <time>2013-09-22T08:23:31Z</time>
      </trkpt>
      <trkpt lat="45.61808" lon="2.81226">
        <ele>1324</ele>
        <time>2013-09-22T08:23:32Z</time>
      </trkpt>
      <trkpt lat="45.6182" lon="2.81257">
        <ele>1321</ele>
        <time>2013-09-22T08:23:35Z</time>
      </trkpt>
      <trkpt lat="45.61837" lon="2.81294">
        <ele>1320</ele>
        <time>2013-09-22T08:23:39Z</time>
      </trkpt>
      <trkpt lat="45.6188" lon="2.81398">
        <ele>1315</ele>
        <time>2013-09-22T08:23:49Z</time>
      </trkpt>
      <trkpt lat="45.61885" lon="2.81409">
        <ele>1315</ele>
        <time>2013-09-22T08:23:50Z</time>
      </trkpt>
      <trkpt lat="45.61894" lon="2.81455">
        <ele>1310</ele>
        <time>2013-09-22T08:23:54Z</time>
      </trkpt>
      <trkpt lat="45.61893" lon="2.81505">
        <ele>1305</ele>
        <time>2013-09-22T08:23:58Z</time>
      </trkpt>
      <trkpt lat="45.61891" lon="2.8153">
        <ele>1302</ele>
        <time>2013-09-22T08:24:00Z</time>
      </trkpt>
      <trkpt lat="45.61897" lon="2.81578">
        <ele>1299</ele>
        <time>2013-09-22T08:24:04Z</time>
      </trkpt>
      <trkpt lat="45.619" lon="2.81586">
        <ele>1293</ele>
        <time>2013-09-22T08:24:05Z</time>
      </trkpt>
      <trkpt lat="45.61904" lon="2.81592">
        <ele>1293</ele>
        <time>2013-09-22T08:24:06Z</time>
      </trkpt>
      <trkpt lat="45.61908" lon="2.81598">
        <ele>1293</ele>
        <time>2013-09-22T08:24:07Z</time>
      </trkpt>
      <trkpt lat="45.61923" lon="2.81612">
        <ele>1294</ele>
        <time>2013-09-22T08:24:10Z</time>
      </trkpt>
      <trkpt lat="45.61949" lon="2.81626">
        <ele>1293</ele>
        <time>2013-09-22T08:24:15Z</time>
      </trkpt>
      <trkpt lat="45.61985" lon="2.81623">
        <ele>1295</ele>
        <time>2013-09-22T08:24:25Z</time>
      </trkpt>
      <trkpt lat="45.62026" lon="2.81619">
        <ele>1294</ele>
        <time>2013-09-22T08:24:38Z</time>
      </trkpt>
      <trkpt lat="45.6203" lon="2.81622">
        <ele>1294</ele>
        <time>2013-09-22T08:24:39Z</time>
      </trkpt>
      <trkpt lat="45.62034" lon="2.81625">
        <ele>1293</ele>
        <time>2013-09-22T08:24:40Z</time>
      </trkpt>
      <trkpt lat="45.62055" lon="2.81639">
        <ele>1292</ele>
        <time>2013-09-22T08:24:44Z</time>
      </trkpt>
      <trkpt lat="45.62061" lon="2.81645">
        <ele>1291</ele>
        <time>2013-09-22T08:24:45Z</time>
      </trkpt>
      <trkpt lat="45.62066" lon="2.81651">
        <ele>1291</ele>
        <time>2013-09-22T08:24:46Z</time>
      </trkpt>
      <trkpt lat="45.62081" lon="2.81666">
        <ele>1288</ele>
        <time>2013-09-22T08:24:49Z</time>
      </trkpt>
      <trkpt lat="45.62085" lon="2.81667">
        <ele>1288</ele>
        <time>2013-09-22T08:24:50Z</time>
      </trkpt>
      <trkpt lat="45.62089" lon="2.81667">
        <ele>1287</ele>
        <time>2013-09-22T08:24:51Z</time>
      </trkpt>
      <trkpt lat="45.62093" lon="2.81666">
        <ele>1287</ele>
        <time>2013-09-22T08:24:52Z</time>
      </trkpt>
      <trkpt lat="45.62096" lon="2.81665">
        <ele>1287</ele>
        <time>2013-09-22T08:24:53Z</time>
      </trkpt>
      <trkpt lat="45.62114" lon="2.81644">
        <ele>1287</ele>
        <time>2013-09-22T08:25:00Z</time>
      </trkpt>
      <trkpt lat="45.62144" lon="2.8163">
        <ele>1286</ele>
        <time>2013-09-22T08:25:11Z</time>
      </trkpt>
      <trkpt lat="45.62145" lon="2.81629">
        <ele>1286</ele>
        <time>2013-09-22T08:25:23Z</time>
      </trkpt>
      <trkpt lat="45.62145" lon="2.81634">
        <ele>1285</ele>
        <time>2013-09-22T08:25:34Z</time>
      </trkpt>
      <trkpt lat="45.62145" lon="2.81634">
        <ele>1285</ele>
        <time>2013-09-22T08:25:56Z</time>
      </trkpt>
      <trkpt lat="45.62145" lon="2.81634">
        <ele>1285</ele>
        <time>2013-09-22T08:26:18Z</time>
      </trkpt>
      <trkpt lat="45.62145" lon="2.81634">
        <ele>1285</ele>
        <time>2013-09-22T08:26:38Z</time>
      </trkpt>
      <trkpt lat="45.62145" lon="2.81633">
        <ele>1285</ele>
        <time>2013-09-22T08:26:54Z</time>
      </trkpt>
      <trkpt lat="45.62145" lon="2.81633">
        <ele>1285</ele>
        <time>2013-09-22T08:27:17Z</time>
      </trkpt>
      <trkpt lat="45.62145" lon="2.81633">
        <ele>1285</ele>
        <time>2013-09-22T08:27:35Z</time>
      </trkpt>
      <trkpt lat="45.62145" lon="2.81633">
        <ele>1285</ele>
        <time>2013-09-22T08:27:58Z</time>
      </trkpt>
      <trkpt lat="45.62145" lon="2.81631">
        <ele>1285</ele>
        <time>2013-09-22T08:28:18Z</time>
      </trkpt>
      <trkpt lat="45.62146" lon="2.81631">
        <ele>1285</ele>
        <time>2013-09-22T08:28:35Z</time>
      </trkpt>
      <trkpt lat="45.62145" lon="2.81631">
        <ele>1285</ele>
        <time>2013-09-22T08:28:53Z</time>
      </trkpt>
      <trkpt lat="45.62146" lon="2.8163">
        <ele>1285</ele>
        <time>2013-09-22T08:29:16Z</time>
      </trkpt>
      <trkpt lat="45.62146" lon="2.8163">
        <ele>1285</ele>
        <time>2013-09-22T08:29:41Z</time>
      </trkpt>
      <trkpt lat="45.62146" lon="2.8163">
        <ele>1285</ele>
        <time>2013-09-22T08:30:03Z</time>
      </trkpt>
      <trkpt lat="45.62144" lon="2.8163">
        <ele>1286</ele>
        <time>2013-09-22T08:30:18Z</time>
      </trkpt>
      <trkpt lat="45.62144" lon="2.8163">
        <ele>1286</ele>
        <time>2013-09-22T08:30:38Z</time>
      </trkpt>
      <trkpt lat="45.62145" lon="2.81628">
        <ele>1285</ele>
        <time>2013-09-22T08:30:43Z</time>
      </trkpt>
      <trkpt lat="45.62152" lon="2.81625">
        <ele>1285</ele>
        <time>2013-09-22T08:30:47Z</time>
      </trkpt>
      <trkpt lat="45.62177" lon="2.81612">
        <ele>1278</ele>
        <time>2013-09-22T08:30:57Z</time>
      </trkpt>
      <trkpt lat="45.62197" lon="2.81546">
        <ele>1276</ele>
        <time>2013-09-22T08:31:05Z</time>
      </trkpt>
      <trkpt lat="45.62199" lon="2.81524">
        <ele>1276</ele>
        <time>2013-09-22T08:31:07Z</time>
      </trkpt>
      <trkpt lat="45.62205" lon="2.81491">
        <ele>1277</ele>
        <time>2013-09-22T08:31:11Z</time>
      </trkpt>
      <trkpt lat="45.62223" lon="2.81465">
        <ele>1277</ele>
        <time>2013-09-22T08:31:16Z</time>
      </trkpt>
      <trkpt lat="45.62228" lon="2.81467">
        <ele>1277</ele>
        <time>2013-09-22T08:31:17Z</time>
      </trkpt>
      <trkpt lat="45.62238" lon="2.81479">
        <ele>1276</ele>
        <time>2013-09-22T08:31:20Z</time>
      </trkpt>
      <trkpt lat="45.62269" lon="2.8152">
        <ele>1269</ele>
        <time>2013-09-22T08:31:27Z</time>
      </trkpt>
      <trkpt lat="45.62359" lon="2.81589">
        <ele>1257</ele>
        <time>2013-09-22T08:31:38Z</time>
      </trkpt>
      <trkpt lat="45.62405" lon="2.81603">
        <ele>1255</ele>
        <time>2013-09-22T08:31:48Z</time>
      </trkpt>
      <trkpt lat="45.62424" lon="2.81574">
        <ele>1257</ele>
        <time>2013-09-22T08:31:54Z</time>
      </trkpt>
      <trkpt lat="45.62429" lon="2.81566">
        <ele>1257</ele>
        <time>2013-09-22T08:31:55Z</time>
      </trkpt>
      <trkpt lat="45.62442" lon="2.81532">
        <ele>1256</ele>
        <time>2013-09-22T08:32:00Z</time>
      </trkpt>
      <trkpt lat="45.6245" lon="2.81519">
        <ele>1255</ele>
        <time>2013-09-22T08:32:03Z</time>
      </trkpt>
      <trkpt lat="45.62455" lon="2.81513">
        <ele>1255</ele>
        <time>2013-09-22T08:32:05Z</time>
      </trkpt>
      <trkpt lat="45.6246" lon="2.81508">
        <ele>1255</ele>
        <time>2013-09-22T08:32:06Z</time>
      </trkpt>
      <trkpt lat="45.62467" lon="2.81494">
        <ele>1245</ele>
        <time>2013-09-22T08:32:07Z</time>
      </trkpt>
      <trkpt lat="45.62483" lon="2.81476">
        <ele>1243</ele>
        <time>2013-09-22T08:32:10Z</time>
      </trkpt>
      <trkpt lat="45.62508" lon="2.81453">
        <ele>1232</ele>
        <time>2013-09-22T08:32:12Z</time>
      </trkpt>
      <trkpt lat="45.6252" lon="2.81442">
        <ele>1230</ele>
        <time>2013-09-22T08:32:14Z</time>
      </trkpt>
      <trkpt lat="45.62541" lon="2.81427">
        <ele>1227</ele>
        <time>2013-09-22T08:32:18Z</time>
      </trkpt>
      <trkpt lat="45.62546" lon="2.81424">
        <ele>1227</ele>
        <time>2013-09-22T08:32:19Z</time>
      </trkpt>
      <trkpt lat="45.62557" lon="2.81418">
        <ele>1225</ele>
        <time>2013-09-22T08:32:22Z</time>
      </trkpt>
      <trkpt lat="45.62565" lon="2.81415">
        <ele>1216</ele>
        <time>2013-09-22T08:32:24Z</time>
      </trkpt>
      <trkpt lat="45.62574" lon="2.81417">
        <ele>1216</ele>
        <time>2013-09-22T08:32:26Z</time>
      </trkpt>
      <trkpt lat="45.62596" lon="2.8142">
        <ele>1214</ele>
        <time>2013-09-22T08:32:30Z</time>
      </trkpt>
      <trkpt lat="45.62601" lon="2.81418">
        <ele>1214</ele>
        <time>2013-09-22T08:32:31Z</time>
      </trkpt>
      <trkpt lat="45.62611" lon="2.81411">
        <ele>1207</ele>
        <time>2013-09-22T08:32:33Z</time>
      </trkpt>
      <trkpt lat="45.62618" lon="2.81411">
        <ele>1206</ele>
        <time>2013-09-22T08:32:35Z</time>
      </trkpt>
      <trkpt lat="45.62636" lon="2.81436">
        <ele>1210</ele>
        <time>2013-09-22T08:32:39Z</time>
      </trkpt>
      <trkpt lat="45.62639" lon="2.81432">
        <ele>1209</ele>
        <time>2013-09-22T08:32:40Z</time>
      </trkpt>
      <trkpt lat="45.62642" lon="2.81423">
        <ele>1208</ele>
        <time>2013-09-22T08:32:43Z</time>
      </trkpt>
      <trkpt lat="45.62643" lon="2.81421">
        <ele>1208</ele>
        <time>2013-09-22T08:32:44Z</time>
      </trkpt>
      <trkpt lat="45.62642" lon="2.81407">
        <ele>1203</ele>
        <time>2013-09-22T08:32:48Z</time>
      </trkpt>
      <trkpt lat="45.62623" lon="2.81379">
        <ele>1203</ele>
        <time>2013-09-22T08:32:53Z</time>
      </trkpt>
      <trkpt lat="45.62614" lon="2.81366">
        <ele>1203</ele>
        <time>2013-09-22T08:32:56Z</time>
      </trkpt>
      <trkpt lat="45.62623" lon="2.8136">
        <ele>1202</ele>
        <time>2013-09-22T08:32:59Z</time>
      </trkpt>
      <trkpt lat="45.62629" lon="2.81345">
        <ele>1200</ele>
        <time>2013-09-22T08:33:04Z</time>
      </trkpt>
      <trkpt lat="45.62632" lon="2.81339">
        <ele>1199</ele>
        <time>2013-09-22T08:33:05Z</time>
      </trkpt>
      <trkpt lat="45.62633" lon="2.81335">
        <ele>1199</ele>
        <time>2013-09-22T08:33:07Z</time>
      </trkpt>
      <trkpt lat="45.62635" lon="2.81333">
        <ele>1190</ele>
        <time>2013-09-22T08:33:08Z</time>
      </trkpt>
      <trkpt lat="45.62637" lon="2.81328">
        <ele>1190</ele>
        <time>2013-09-22T08:33:10Z</time>
      </trkpt>
      <trkpt lat="45.62637" lon="2.81326">
        <ele>1190</ele>
        <time>2013-09-22T08:33:11Z</time>
      </trkpt>
      <trkpt lat="45.62698" lon="2.81338">
        <ele>1185</ele>
        <time>2013-09-22T08:33:14Z</time>
      </trkpt>
      <trkpt lat="45.62733" lon="2.81328">
        <ele>1173</ele>
        <time>2013-09-22T08:33:20Z</time>
      </trkpt>
      <trkpt lat="45.62747" lon="2.81327">
        <ele>1173</ele>
        <time>2013-09-22T08:33:25Z</time>
      </trkpt>
      <trkpt lat="45.62758" lon="2.81327">
        <ele>1171</ele>
        <time>2013-09-22T08:33:28Z</time>
      </trkpt>
      <trkpt lat="45.62761" lon="2.81329">
        <ele>1171</ele>
        <time>2013-09-22T08:33:29Z</time>
      </trkpt>
      <trkpt lat="45.62771" lon="2.81324">
        <ele>1169</ele>
        <time>2013-09-22T08:33:34Z</time>
      </trkpt>
      <trkpt lat="45.62787" lon="2.81326">
        <ele>1168</ele>
        <time>2013-09-22T08:33:40Z</time>
      </trkpt>
      <trkpt lat="45.628" lon="2.81311">
        <ele>1167</ele>
        <time>2013-09-22T08:33:47Z</time>
      </trkpt>
      <trkpt lat="45.62794" lon="2.8129">
        <ele>1166</ele>
        <time>2013-09-22T08:33:53Z</time>
      </trkpt>
      <trkpt lat="45.62789" lon="2.81285">
        <ele>1165</ele>
        <time>2013-09-22T08:33:54Z</time>
      </trkpt>
      <trkpt lat="45.62783" lon="2.8128">
        <ele>1165</ele>
        <time>2013-09-22T08:33:57Z</time>
      </trkpt>
      <trkpt lat="45.62778" lon="2.81273">
        <ele>1164</ele>
        <time>2013-09-22T08:34:05Z</time>
      </trkpt>
      <trkpt lat="45.62783" lon="2.81261">
        <ele>1163</ele>
        <time>2013-09-22T08:34:14Z</time>
      </trkpt>
      <trkpt lat="45.62785" lon="2.81256">
        <ele>1163</ele>
        <time>2013-09-22T08:34:20Z</time>
      </trkpt>
      <trkpt lat="45.62783" lon="2.81245">
        <ele>1157</ele>
        <time>2013-09-22T08:34:24Z</time>
      </trkpt>
      <trkpt lat="45.62785" lon="2.81224">
        <ele>1156</ele>
        <time>2013-09-22T08:34:29Z</time>
      </trkpt>
      <trkpt lat="45.62803" lon="2.8117">
        <ele>1154</ele>
        <time>2013-09-22T08:34:35Z</time>
      </trkpt>
      <trkpt lat="45.6283" lon="2.81115">
        <ele>1146</ele>
        <time>2013-09-22T08:34:47Z</time>
      </trkpt>
      <trkpt lat="45.62858" lon="2.81033">
        <ele>1140</ele>
        <time>2013-09-22T08:35:05Z</time>
      </trkpt>
      <trkpt lat="45.629" lon="2.80982">
        <ele>1131</ele>
        <time>2013-09-22T08:35:13Z</time>
      </trkpt>
      <trkpt lat="45.62929" lon="2.80957">
        <ele>1125</ele>
        <time>2013-09-22T08:35:17Z</time>
      </trkpt>
      <trkpt lat="45.62986" lon="2.80925">
        <ele>1120</ele>
        <time>2013-09-22T08:35:25Z</time>
      </trkpt>
      <trkpt lat="45.63006" lon="2.80897">
        <ele>1115</ele>
        <time>2013-09-22T08:35:33Z</time>
      </trkpt>
      <trkpt lat="45.62984" lon="2.80858">
        <ele>1115</ele>
        <time>2013-09-22T08:35:44Z</time>
      </trkpt>
      <trkpt lat="45.62982" lon="2.80839">
        <ele>1114</ele>
        <time>2013-09-22T08:35:47Z</time>
      </trkpt>
      <trkpt lat="45.6294" lon="2.80739">
        <ele>1109</ele>
        <time>2013-09-22T08:35:57Z</time>
      </trkpt>
      <trkpt lat="45.62902" lon="2.80661">
        <ele>1118</ele>
        <time>2013-09-22T08:36:07Z</time>
      </trkpt>
      <trkpt lat="45.62906" lon="2.80605">
        <ele>1121</ele>
        <time>2013-09-22T08:36:13Z</time>
      </trkpt>
      <trkpt lat="45.62919" lon="2.80569">
        <ele>1112</ele>
        <time>2013-09-22T08:36:18Z</time>
      </trkpt>
      <trkpt lat="45.62943" lon="2.80498">
        <ele>1116</ele>
        <time>2013-09-22T08:36:30Z</time>
      </trkpt>
      <trkpt lat="45.62947" lon="2.80445">
        <ele>1117</ele>
        <time>2013-09-22T08:36:41Z</time>
      </trkpt>
      <trkpt lat="45.62949" lon="2.80431">
        <ele>1117</ele>
        <time>2013-09-22T08:36:47Z</time>
      </trkpt>
      <trkpt lat="45.62949" lon="2.80423">
        <ele>1117</ele>
        <time>2013-09-22T08:36:51Z</time>
      </trkpt>
      <trkpt lat="45.62946" lon="2.80404">
        <ele>1121</ele>
        <time>2013-09-22T08:37:04Z</time>
      </trkpt>
      <trkpt lat="45.62945" lon="2.80403">
        <ele>1121</ele>
        <time>2013-09-22T08:37:05Z</time>
      </trkpt>
      <trkpt lat="45.62945" lon="2.80399">
        <ele>1121</ele>
        <time>2013-09-22T08:37:19Z</time>
      </trkpt>
      <trkpt lat="45.62945" lon="2.80399">
        <ele>1121</ele>
        <time>2013-09-22T08:37:24Z</time>
      </trkpt>
      <trkpt lat="45.62945" lon="2.80393">
        <ele>1121</ele>
        <time>2013-09-22T08:37:30Z</time>
      </trkpt>
      <trkpt lat="45.62939" lon="2.80388">
        <ele>1121</ele>
        <time>2013-09-22T08:37:45Z</time>
      </trkpt>
      <trkpt lat="45.62939" lon="2.80384">
        <ele>1121</ele>
        <time>2013-09-22T08:38:00Z</time>
      </trkpt>
      <trkpt lat="45.62939" lon="2.80383">
        <ele>1121</ele>
        <time>2013-09-22T08:38:18Z</time>
      </trkpt>
      <trkpt lat="45.62939" lon="2.80383">
        <ele>1121</ele>
        <time>2013-09-22T08:38:36Z</time>
      </trkpt>
      <trkpt lat="45.6294" lon="2.80383">
        <ele>1121</ele>
        <time>2013-09-22T08:38:55Z</time>
      </trkpt>
      <trkpt lat="45.62941" lon="2.80382">
        <ele>1121</ele>
        <time>2013-09-22T08:39:13Z</time>
      </trkpt>
      <trkpt lat="45.62941" lon="2.80382">
        <ele>1121</ele>
        <time>2013-09-22T08:39:16Z</time>
      </trkpt>
      <trkpt lat="45.62941" lon="2.80377">
        <ele>1121</ele>
        <time>2013-09-22T08:39:32Z</time>
      </trkpt>
      <trkpt lat="45.62941" lon="2.80377">
        <ele>1121</ele>
        <time>2013-09-22T08:39:50Z</time>
      </trkpt>
      <trkpt lat="45.62941" lon="2.80378">
        <ele>1121</ele>
        <time>2013-09-22T08:40:13Z</time>
      </trkpt>
      <trkpt lat="45.62941" lon="2.80376">
        <ele>1121</ele>
        <time>2013-09-22T08:40:30Z</time>
      </trkpt>
      <trkpt lat="45.62941" lon="2.80376">
        <ele>1121</ele>
        <time>2013-09-22T08:40:42Z</time>
      </trkpt>
      <trkpt lat="45.62943" lon="2.80374">
        <ele>1121</ele>
        <time>2013-09-22T08:40:59Z</time>
      </trkpt>
      <trkpt lat="45.62943" lon="2.80374">
        <ele>1121</ele>
        <time>2013-09-22T08:41:15Z</time>
      </trkpt>
      <trkpt lat="45.62944" lon="2.80373">
        <ele>1121</ele>
        <time>2013-09-22T08:41:32Z</time>
      </trkpt>
      <trkpt lat="45.62945" lon="2.80373">
        <ele>1121</ele>
        <time>2013-09-22T08:41:48Z</time>
      </trkpt>
      <trkpt lat="45.62945" lon="2.80373">
        <ele>1121</ele>
        <time>2013-09-22T08:42:10Z</time>
      </trkpt>
      <trkpt lat="45.62944" lon="2.80373">
        <ele>1121</ele>
        <time>2013-09-22T08:42:25Z</time>
      </trkpt>
      <trkpt lat="45.62944" lon="2.80373">
        <ele>1121</ele>
        <time>2013-09-22T08:42:37Z</time>
      </trkpt>
      <trkpt lat="45.62943" lon="2.80373">
        <ele>1121</ele>
        <time>2013-09-22T08:42:53Z</time>
      </trkpt>
      <trkpt lat="45.62944" lon="2.80375">
        <ele>1121</ele>
        <time>2013-09-22T08:43:11Z</time>
      </trkpt>
      <trkpt lat="45.62944" lon="2.80378">
        <ele>1121</ele>
        <time>2013-09-22T08:43:29Z</time>
      </trkpt>
      <trkpt lat="45.62942" lon="2.80385">
        <ele>1121</ele>
        <time>2013-09-22T08:43:54Z</time>
      </trkpt>
      <trkpt lat="45.62943" lon="2.80385">
        <ele>1121</ele>
        <time>2013-09-22T08:44:03Z</time>
      </trkpt>
      <trkpt lat="45.62944" lon="2.80377">
        <ele>1121</ele>
        <time>2013-09-22T08:44:17Z</time>
      </trkpt>
      <trkpt lat="45.62954" lon="2.80354">
        <ele>1121</ele>
        <time>2013-09-22T08:44:30Z</time>
      </trkpt>
      <trkpt lat="45.62995" lon="2.80302">
        <ele>1123</ele>
        <time>2013-09-22T08:44:45Z</time>
      </trkpt>
      <trkpt lat="45.63022" lon="2.8029">
        <ele>1113</ele>
        <time>2013-09-22T08:44:51Z</time>
      </trkpt>
      <trkpt lat="45.6307" lon="2.80253">
        <ele>1109</ele>
        <time>2013-09-22T08:45:00Z</time>
      </trkpt>
      <trkpt lat="45.63084" lon="2.80245">
        <ele>1107</ele>
        <time>2013-09-22T08:45:02Z</time>
      </trkpt>
      <trkpt lat="45.6311" lon="2.80228">
        <ele>1108</ele>
        <time>2013-09-22T08:45:06Z</time>
      </trkpt>
      <trkpt lat="45.63128" lon="2.80224">
        <ele>1107</ele>
        <time>2013-09-22T08:45:08Z</time>
      </trkpt>
      <trkpt lat="45.63154" lon="2.80207">
        <ele>1106</ele>
        <time>2013-09-22T08:45:12Z</time>
      </trkpt>
      <trkpt lat="45.63176" lon="2.80187">
        <ele>1096</ele>
        <time>2013-09-22T08:45:14Z</time>
      </trkpt>
      <trkpt lat="45.63204" lon="2.80177">
        <ele>1091</ele>
        <time>2013-09-22T08:45:18Z</time>
      </trkpt>
      <trkpt lat="45.63208" lon="2.80178">
        <ele>1091</ele>
        <time>2013-09-22T08:45:19Z</time>
      </trkpt>
      <trkpt lat="45.63257" lon="2.80187">
        <ele>1073</ele>
        <time>2013-09-22T08:45:24Z</time>
      </trkpt>
      <trkpt lat="45.63278" lon="2.80192">
        <ele>1069</ele>
        <time>2013-09-22T08:45:27Z</time>
      </trkpt>
      <trkpt lat="45.63298" lon="2.802">
        <ele>1066</ele>
        <time>2013-09-22T08:45:30Z</time>
      </trkpt>
      <trkpt lat="45.63304" lon="2.80202">
        <ele>1065</ele>
        <time>2013-09-22T08:45:31Z</time>
      </trkpt>
      <trkpt lat="45.63313" lon="2.80212">
        <ele>1065</ele>
        <time>2013-09-22T08:45:33Z</time>
      </trkpt>
      <trkpt lat="45.63305" lon="2.8027">
        <ele>1068</ele>
        <time>2013-09-22T08:45:39Z</time>
      </trkpt>
      <trkpt lat="45.63299" lon="2.80258">
        <ele>1069</ele>
        <time>2013-09-22T08:45:44Z</time>
      </trkpt>
      <trkpt lat="45.63298" lon="2.80239">
        <ele>1068</ele>
        <time>2013-09-22T08:45:47Z</time>
      </trkpt>
      <trkpt lat="45.63313" lon="2.80233">
        <ele>1065</ele>
        <time>2013-09-22T08:45:53Z</time>
      </trkpt>
      <trkpt lat="45.63315" lon="2.80238">
        <ele>1065</ele>
        <time>2013-09-22T08:45:54Z</time>
      </trkpt>
      <trkpt lat="45.63321" lon="2.80258">
        <ele>1065</ele>
        <time>2013-09-22T08:45:56Z</time>
      </trkpt>
      <trkpt lat="45.63333" lon="2.80308">
        <ele>1065</ele>
        <time>2013-09-22T08:46:01Z</time>
      </trkpt>
      <trkpt lat="45.63336" lon="2.80322">
        <ele>1059</ele>
        <time>2013-09-22T08:46:03Z</time>
      </trkpt>
      <trkpt lat="45.63339" lon="2.80333">
        <ele>1060</ele>
        <time>2013-09-22T08:46:05Z</time>
      </trkpt>
      <trkpt lat="45.63339" lon="2.80338">
        <ele>1060</ele>
        <time>2013-09-22T08:46:06Z</time>
      </trkpt>
      <trkpt lat="45.63343" lon="2.80351">
        <ele>1060</ele>
        <time>2013-09-22T08:46:09Z</time>
      </trkpt>
      <trkpt lat="45.63345" lon="2.80358">
        <ele>1060</ele>
        <time>2013-09-22T08:46:10Z</time>
      </trkpt>
      <trkpt lat="45.63355" lon="2.80363">
        <ele>1060</ele>
        <time>2013-09-22T08:46:11Z</time>
      </trkpt>
      <trkpt lat="45.63373" lon="2.80385">
        <ele>1060</ele>
        <time>2013-09-22T08:46:16Z</time>
      </trkpt>
      <trkpt lat="45.63405" lon="2.80368">
        <ele>1058</ele>
        <time>2013-09-22T08:46:20Z</time>
      </trkpt>
      <trkpt lat="45.63423" lon="2.80359">
        <ele>1056</ele>
        <time>2013-09-22T08:46:23Z</time>
      </trkpt>
      <trkpt lat="45.63465" lon="2.80349">
        <ele>1056</ele>
        <time>2013-09-22T08:46:35Z</time>
      </trkpt>
      <trkpt lat="45.63516" lon="2.8032">
        <ele>1055</ele>
        <time>2013-09-22T08:46:46Z</time>
      </trkpt>
      <trkpt lat="45.63546" lon="2.80289">
        <ele>1057</ele>
        <time>2013-09-22T08:46:58Z</time>
      </trkpt>
      <trkpt lat="45.63566" lon="2.80265">
        <ele>1057</ele>
        <time>2013-09-22T08:47:12Z</time>
      </trkpt>
      <trkpt lat="45.63589" lon="2.80259">
        <ele>1060</ele>
        <time>2013-09-22T08:47:27Z</time>
      </trkpt>
      <trkpt lat="45.63596" lon="2.80257">
        <ele>1061</ele>
        <time>2013-09-22T08:47:34Z</time>
      </trkpt>
      <trkpt lat="45.63603" lon="2.80256">
        <ele>1062</ele>
        <time>2013-09-22T08:47:39Z</time>
      </trkpt>
      <trkpt lat="45.63634" lon="2.80269">
        <ele>1065</ele>
        <time>2013-09-22T08:47:53Z</time>
      </trkpt>
      <trkpt lat="45.63638" lon="2.80268">
        <ele>1065</ele>
        <time>2013-09-22T08:47:57Z</time>
      </trkpt>
      <trkpt lat="45.63674" lon="2.80261">
        <ele>1066</ele>
        <time>2013-09-22T08:48:15Z</time>
      </trkpt>
      <trkpt lat="45.63691" lon="2.80263">
        <ele>1067</ele>
        <time>2013-09-22T08:48:23Z</time>
      </trkpt>
      <trkpt lat="45.63721" lon="2.80304">
        <ele>1070</ele>
        <time>2013-09-22T08:48:38Z</time>
      </trkpt>
      <trkpt lat="45.63748" lon="2.80351">
        <ele>1077</ele>
        <time>2013-09-22T08:48:52Z</time>
      </trkpt>
      <trkpt lat="45.63804" lon="2.80375">
        <ele>1074</ele>
        <time>2013-09-22T08:49:08Z</time>
      </trkpt>
      <trkpt lat="45.63866" lon="2.80358">
        <ele>1072</ele>
        <time>2013-09-22T08:49:22Z</time>
      </trkpt>
      <trkpt lat="45.63904" lon="2.80329">
        <ele>1060</ele>
        <time>2013-09-22T08:49:29Z</time>
      </trkpt>
      <trkpt lat="45.63935" lon="2.8031">
        <ele>1062</ele>
        <time>2013-09-22T08:49:35Z</time>
      </trkpt>
      <trkpt lat="45.63989" lon="2.80272">
        <ele>1061</ele>
        <time>2013-09-22T08:49:48Z</time>
      </trkpt>
      <trkpt lat="45.64022" lon="2.80254">
        <ele>1066</ele>
        <time>2013-09-22T08:49:59Z</time>
      </trkpt>
      <trkpt lat="45.64055" lon="2.80235">
        <ele>1053</ele>
        <time>2013-09-22T08:50:11Z</time>
      </trkpt>
      <trkpt lat="45.64095" lon="2.80244">
        <ele>1059</ele>
        <time>2013-09-22T08:50:23Z</time>
      </trkpt>
      <trkpt lat="45.64126" lon="2.80247">
        <ele>1055</ele>
        <time>2013-09-22T08:50:35Z</time>
      </trkpt>
      <trkpt lat="45.64172" lon="2.80248">
        <ele>1059</ele>
        <time>2013-09-22T08:50:49Z</time>
      </trkpt>
      <trkpt lat="45.64222" lon="2.80261">
        <ele>1070</ele>
        <time>2013-09-22T08:51:03Z</time>
      </trkpt>
      <trkpt lat="45.64269" lon="2.80276">
        <ele>1068</ele>
        <time>2013-09-22T08:51:18Z</time>
      </trkpt>
      <trkpt lat="45.64325" lon="2.80283">
        <ele>1066</ele>
        <time>2013-09-22T08:51:34Z</time>
      </trkpt>
      <trkpt lat="45.64397" lon="2.80333">
        <ele>1069</ele>
        <time>2013-09-22T08:51:49Z</time>
      </trkpt>
      <trkpt lat="45.64447" lon="2.80407">
        <ele>1065</ele>
        <time>2013-09-22T08:52:02Z</time>
      </trkpt>
      <trkpt lat="45.64464" lon="2.80428">
        <ele>1067</ele>
        <time>2013-09-22T08:52:08Z</time>
      </trkpt>
      <trkpt lat="45.64469" lon="2.80432">
        <ele>1067</ele>
        <time>2013-09-22T08:52:10Z</time>
      </trkpt>
      <trkpt lat="45.64494" lon="2.80437">
        <ele>1065</ele>
        <time>2013-09-22T08:52:15Z</time>
      </trkpt>
      <trkpt lat="45.64533" lon="2.8042">
        <ele>1060</ele>
        <time>2013-09-22T08:52:20Z</time>
      </trkpt>
      <trkpt lat="45.64552" lon="2.80408">
        <ele>1055</ele>
        <time>2013-09-22T08:52:23Z</time>
      </trkpt>
      <trkpt lat="45.64586" lon="2.80393">
        <ele>1052</ele>
        <time>2013-09-22T08:52:28Z</time>
      </trkpt>
      <trkpt lat="45.64624" lon="2.80374">
        <ele>1050</ele>
        <time>2013-09-22T08:52:33Z</time>
      </trkpt>
      <trkpt lat="45.64635" lon="2.80367">
        <ele>1050</ele>
        <time>2013-09-22T08:52:35Z</time>
      </trkpt>
      <trkpt lat="45.6464" lon="2.80363">
        <ele>1050</ele>
        <time>2013-09-22T08:52:36Z</time>
      </trkpt>
      <trkpt lat="45.64659" lon="2.8034">
        <ele>1047</ele>
        <time>2013-09-22T08:52:41Z</time>
      </trkpt>
      <trkpt lat="45.64676" lon="2.80309">
        <ele>1043</ele>
        <time>2013-09-22T08:52:47Z</time>
      </trkpt>
      <trkpt lat="45.64682" lon="2.803">
        <ele>1042</ele>
        <time>2013-09-22T08:52:49Z</time>
      </trkpt>
      <trkpt lat="45.64704" lon="2.80275">
        <ele>1040</ele>
        <time>2013-09-22T08:52:55Z</time>
      </trkpt>
      <trkpt lat="45.64726" lon="2.80256">
        <ele>1039</ele>
        <time>2013-09-22T08:53:00Z</time>
      </trkpt>
      <trkpt lat="45.64737" lon="2.80247">
        <ele>1034</ele>
        <time>2013-09-22T08:53:02Z</time>
      </trkpt>
      <trkpt lat="45.64752" lon="2.80236">
        <ele>1033</ele>
        <time>2013-09-22T08:53:05Z</time>
      </trkpt>
      <trkpt lat="45.64763" lon="2.80221">
        <ele>1031</ele>
        <time>2013-09-22T08:53:09Z</time>
      </trkpt>
      <trkpt lat="45.64762" lon="2.80216">
        <ele>1031</ele>
        <time>2013-09-22T08:53:11Z</time>
      </trkpt>
      <trkpt lat="45.64758" lon="2.80206">
        <ele>1030</ele>
        <time>2013-09-22T08:53:14Z</time>
      </trkpt>
      <trkpt lat="45.64756" lon="2.80199">
        <ele>1029</ele>
        <time>2013-09-22T08:53:16Z</time>
      </trkpt>
      <trkpt lat="45.64751" lon="2.80186">
        <ele>1028</ele>
        <time>2013-09-22T08:53:20Z</time>
      </trkpt>
      <trkpt lat="45.64764" lon="2.80129">
        <ele>1020</ele>
        <time>2013-09-22T08:53:32Z</time>
      </trkpt>
      <trkpt lat="45.64782" lon="2.80116">
        <ele>1019</ele>
        <time>2013-09-22T08:53:39Z</time>
      </trkpt>
      <trkpt lat="45.6479" lon="2.80106">
        <ele>1018</ele>
        <time>2013-09-22T08:53:42Z</time>
      </trkpt>
      <trkpt lat="45.64813" lon="2.80067">
        <ele>1010</ele>
        <time>2013-09-22T08:53:52Z</time>
      </trkpt>
      <trkpt lat="45.64815" lon="2.80062">
        <ele>1010</ele>
        <time>2013-09-22T08:53:53Z</time>
      </trkpt>
      <trkpt lat="45.64846" lon="2.80026">
        <ele>1005</ele>
        <time>2013-09-22T08:53:58Z</time>
      </trkpt>
      <trkpt lat="45.64854" lon="2.80016">
        <ele>1005</ele>
        <time>2013-09-22T08:53:59Z</time>
      </trkpt>
      <trkpt lat="45.64872" lon="2.79997">
        <ele>999</ele>
        <time>2013-09-22T08:54:01Z</time>
      </trkpt>
      <trkpt lat="45.64905" lon="2.79959">
        <ele>997</ele>
        <time>2013-09-22T08:54:05Z</time>
      </trkpt>
      <trkpt lat="45.6493" lon="2.79933">
        <ele>994</ele>
        <time>2013-09-22T08:54:08Z</time>
      </trkpt>
      <trkpt lat="45.64944" lon="2.79916">
        <ele>990</ele>
        <time>2013-09-22T08:54:10Z</time>
      </trkpt>
      <trkpt lat="45.64958" lon="2.79897">
        <ele>989</ele>
        <time>2013-09-22T08:54:12Z</time>
      </trkpt>
      <trkpt lat="45.64987" lon="2.79833">
        <ele>985</ele>
        <time>2013-09-22T08:54:17Z</time>
      </trkpt>
      <trkpt lat="45.65011" lon="2.79808">
        <ele>983</ele>
        <time>2013-09-22T08:54:21Z</time>
      </trkpt>
      <trkpt lat="45.6503" lon="2.79807">
        <ele>983</ele>
        <time>2013-09-22T08:54:24Z</time>
      </trkpt>
      <trkpt lat="45.65053" lon="2.79816">
        <ele>982</ele>
        <time>2013-09-22T08:54:28Z</time>
      </trkpt>
      <trkpt lat="45.65088" lon="2.79804">
        <ele>977</ele>
        <time>2013-09-22T08:54:34Z</time>
      </trkpt>
      <trkpt lat="45.65142" lon="2.79739">
        <ele>975</ele>
        <time>2013-09-22T08:54:43Z</time>
      </trkpt>
      <trkpt lat="45.65149" lon="2.79731">
        <ele>974</ele>
        <time>2013-09-22T08:54:44Z</time>
      </trkpt>
      <trkpt lat="45.65176" lon="2.79698">
        <ele>968</ele>
        <time>2013-09-22T08:54:48Z</time>
      </trkpt>
      <trkpt lat="45.65223" lon="2.79647">
        <ele>967</ele>
        <time>2013-09-22T08:54:54Z</time>
      </trkpt>
      <trkpt lat="45.65252" lon="2.79617">
        <ele>963</ele>
        <time>2013-09-22T08:54:58Z</time>
      </trkpt>
      <trkpt lat="45.65339" lon="2.7953">
        <ele>962</ele>
        <time>2013-09-22T08:55:12Z</time>
      </trkpt>
      <trkpt lat="45.65378" lon="2.79491">
        <ele>962</ele>
        <time>2013-09-22T08:55:19Z</time>
      </trkpt>
      <trkpt lat="45.65433" lon="2.7944">
        <ele>958</ele>
        <time>2013-09-22T08:55:28Z</time>
      </trkpt>
      <trkpt lat="45.65447" lon="2.79434">
        <ele>957</ele>
        <time>2013-09-22T08:55:30Z</time>
      </trkpt>
      <trkpt lat="45.65462" lon="2.79435">
        <ele>956</ele>
        <time>2013-09-22T08:55:32Z</time>
      </trkpt>
      <trkpt lat="45.65507" lon="2.79448">
        <ele>952</ele>
        <time>2013-09-22T08:55:37Z</time>
      </trkpt>
      <trkpt lat="45.65527" lon="2.79448">
        <ele>952</ele>
        <time>2013-09-22T08:55:39Z</time>
      </trkpt>
      <trkpt lat="45.65552" lon="2.79428">
        <ele>951</ele>
        <time>2013-09-22T08:55:42Z</time>
      </trkpt>
      <trkpt lat="45.65627" lon="2.7937">
        <ele>952</ele>
        <time>2013-09-22T08:55:53Z</time>
      </trkpt>
      <trkpt lat="45.6567" lon="2.79344">
        <ele>954</ele>
        <time>2013-09-22T08:56:07Z</time>
      </trkpt>
      <trkpt lat="45.65699" lon="2.79325">
        <ele>958</ele>
        <time>2013-09-22T08:56:22Z</time>
      </trkpt>
      <trkpt lat="45.65726" lon="2.79305">
        <ele>959</ele>
        <time>2013-09-22T08:56:39Z</time>
      </trkpt>
      <trkpt lat="45.65744" lon="2.79276">
        <ele>960</ele>
        <time>2013-09-22T08:56:54Z</time>
      </trkpt>
      <trkpt lat="45.65755" lon="2.79254">
        <ele>962</ele>
        <time>2013-09-22T08:57:07Z</time>
      </trkpt>
      <trkpt lat="45.65765" lon="2.79224">
        <ele>963</ele>
        <time>2013-09-22T08:57:23Z</time>
      </trkpt>
      <trkpt lat="45.65767" lon="2.79187">
        <ele>965</ele>
        <time>2013-09-22T08:57:40Z</time>
      </trkpt>
      <trkpt lat="45.65769" lon="2.79144">
        <ele>968</ele>
        <time>2013-09-22T08:57:55Z</time>
      </trkpt>
      <trkpt lat="45.65791" lon="2.79107">
        <ele>970</ele>
        <time>2013-09-22T08:58:11Z</time>
      </trkpt>
      <trkpt lat="45.65809" lon="2.79069">
        <ele>973</ele>
        <time>2013-09-22T08:58:28Z</time>
      </trkpt>
      <trkpt lat="45.65852" lon="2.79026">
        <ele>973</ele>
        <time>2013-09-22T08:58:44Z</time>
      </trkpt>
      <trkpt lat="45.65875" lon="2.79">
        <ele>980</ele>
        <time>2013-09-22T08:58:57Z</time>
      </trkpt>
      <trkpt lat="45.65889" lon="2.78975">
        <ele>981</ele>
        <time>2013-09-22T08:59:11Z</time>
      </trkpt>
      <trkpt lat="45.65902" lon="2.78957">
        <ele>982</ele>
        <time>2013-09-22T08:59:26Z</time>
      </trkpt>
      <trkpt lat="45.65905" lon="2.78954">
        <ele>983</ele>
        <time>2013-09-22T08:59:32Z</time>
      </trkpt>
      <trkpt lat="45.65907" lon="2.78953">
        <ele>983</ele>
        <time>2013-09-22T08:59:34Z</time>
      </trkpt>
      <trkpt lat="45.65938" lon="2.78944">
        <ele>982</ele>
        <time>2013-09-22T08:59:52Z</time>
      </trkpt>
      <trkpt lat="45.65962" lon="2.78919">
        <ele>982</ele>
        <time>2013-09-22T09:00:08Z</time>
      </trkpt>
      <trkpt lat="45.6598" lon="2.78868">
        <ele>990</ele>
        <time>2013-09-22T09:00:24Z</time>
      </trkpt>
      <trkpt lat="45.65994" lon="2.78828">
        <ele>992</ele>
        <time>2013-09-22T09:00:39Z</time>
      </trkpt>
      <trkpt lat="45.6602" lon="2.78789">
        <ele>990</ele>
        <time>2013-09-22T09:00:52Z</time>
      </trkpt>
      <trkpt lat="45.66056" lon="2.7875">
        <ele>989</ele>
        <time>2013-09-22T09:01:07Z</time>
      </trkpt>
      <trkpt lat="45.66085" lon="2.78698">
        <ele>986</ele>
        <time>2013-09-22T09:01:22Z</time>
      </trkpt>
      <trkpt lat="45.661" lon="2.7863">
        <ele>999</ele>
        <time>2013-09-22T09:01:37Z</time>
      </trkpt>
      <trkpt lat="45.66132" lon="2.78588">
        <ele>999</ele>
        <time>2013-09-22T09:01:52Z</time>
      </trkpt>
      <trkpt lat="45.66177" lon="2.7854">
        <ele>1001</ele>
        <time>2013-09-22T09:02:10Z</time>
      </trkpt>
      <trkpt lat="45.66233" lon="2.78496">
        <ele>1005</ele>
        <time>2013-09-22T09:02:26Z</time>
      </trkpt>
      <trkpt lat="45.66282" lon="2.78447">
        <ele>998</ele>
        <time>2013-09-22T09:02:39Z</time>
      </trkpt>
      <trkpt lat="45.66329" lon="2.78422">
        <ele>997</ele>
        <time>2013-09-22T09:02:52Z</time>
      </trkpt>
      <trkpt lat="45.66383" lon="2.78389">
        <ele>996</ele>
        <time>2013-09-22T09:03:06Z</time>
      </trkpt>
      <trkpt lat="45.66472" lon="2.78348">
        <ele>991</ele>
        <time>2013-09-22T09:03:22Z</time>
      </trkpt>
      <trkpt lat="45.665" lon="2.78321">
        <ele>992</ele>
        <time>2013-09-22T09:03:35Z</time>
      </trkpt>
      <trkpt lat="45.6653" lon="2.78285">
        <ele>991</ele>
        <time>2013-09-22T09:03:51Z</time>
      </trkpt>
      <trkpt lat="45.66544" lon="2.7828">
        <ele>991</ele>
        <time>2013-09-22T09:03:56Z</time>
      </trkpt>
      <trkpt lat="45.66568" lon="2.78259">
        <ele>990</ele>
        <time>2013-09-22T09:04:02Z</time>
      </trkpt>
      <trkpt lat="45.66597" lon="2.78268">
        <ele>987</ele>
        <time>2013-09-22T09:04:09Z</time>
      </trkpt>
      <trkpt lat="45.66612" lon="2.783">
        <ele>986</ele>
        <time>2013-09-22T09:04:14Z</time>
      </trkpt>
      <trkpt lat="45.66618" lon="2.7832">
        <ele>987</ele>
        <time>2013-09-22T09:04:17Z</time>
      </trkpt>
      <trkpt lat="45.66653" lon="2.7841">
        <ele>988</ele>
        <time>2013-09-22T09:04:33Z</time>
      </trkpt>
      <trkpt lat="45.66665" lon="2.78438">
        <ele>989</ele>
        <time>2013-09-22T09:04:39Z</time>
      </trkpt>
      <trkpt lat="45.66696" lon="2.78437">
        <ele>989</ele>
        <time>2013-09-22T09:04:46Z</time>
      </trkpt>
      <trkpt lat="45.66708" lon="2.78421">
        <ele>989</ele>
        <time>2013-09-22T09:04:49Z</time>
      </trkpt>
      <trkpt lat="45.66726" lon="2.78387">
        <ele>984</ele>
        <time>2013-09-22T09:04:54Z</time>
      </trkpt>
      <trkpt lat="45.66743" lon="2.7837">
        <ele>983</ele>
        <time>2013-09-22T09:04:57Z</time>
      </trkpt>
      <trkpt lat="45.66785" lon="2.78366">
        <ele>979</ele>
        <time>2013-09-22T09:05:02Z</time>
      </trkpt>
      <trkpt lat="45.6682" lon="2.7838">
        <ele>978</ele>
        <time>2013-09-22T09:05:06Z</time>
      </trkpt>
      <trkpt lat="45.66837" lon="2.78386">
        <ele>975</ele>
        <time>2013-09-22T09:05:08Z</time>
      </trkpt>
      <trkpt lat="45.66882" lon="2.78384">
        <ele>974</ele>
        <time>2013-09-22T09:05:13Z</time>
      </trkpt>
      <trkpt lat="45.66958" lon="2.78401">
        <ele>970</ele>
        <time>2013-09-22T09:05:23Z</time>
      </trkpt>
      <trkpt lat="45.66969" lon="2.78409">
        <ele>970</ele>
        <time>2013-09-22T09:05:25Z</time>
      </trkpt>
      <trkpt lat="45.66974" lon="2.78413">
        <ele>970</ele>
        <time>2013-09-22T09:05:26Z</time>
      </trkpt>
      <trkpt lat="45.66993" lon="2.7844">
        <ele>977</ele>
        <time>2013-09-22T09:05:36Z</time>
      </trkpt>
      <trkpt lat="45.67005" lon="2.78484">
        <ele>977</ele>
        <time>2013-09-22T09:05:52Z</time>
      </trkpt>
      <trkpt lat="45.67029" lon="2.78549">
        <ele>981</ele>
        <time>2013-09-22T09:06:10Z</time>
      </trkpt>
      <trkpt lat="45.6705" lon="2.78585">
        <ele>981</ele>
        <time>2013-09-22T09:06:19Z</time>
      </trkpt>
      <trkpt lat="45.67053" lon="2.78588">
        <ele>981</ele>
        <time>2013-09-22T09:06:20Z</time>
      </trkpt>
      <trkpt lat="45.67057" lon="2.78592">
        <ele>981</ele>
        <time>2013-09-22T09:06:21Z</time>
      </trkpt>
      <trkpt lat="45.67062" lon="2.78595">
        <ele>981</ele>
        <time>2013-09-22T09:06:22Z</time>
      </trkpt>
      <trkpt lat="45.67066" lon="2.78597">
        <ele>980</ele>
        <time>2013-09-22T09:06:23Z</time>
      </trkpt>
      <trkpt lat="45.67072" lon="2.78599">
        <ele>980</ele>
        <time>2013-09-22T09:06:24Z</time>
      </trkpt>
      <trkpt lat="45.67077" lon="2.78601">
        <ele>980</ele>
        <time>2013-09-22T09:06:25Z</time>
      </trkpt>
      <trkpt lat="45.67135" lon="2.78617">
        <ele>977</ele>
        <time>2013-09-22T09:06:35Z</time>
      </trkpt>
      <trkpt lat="45.67185" lon="2.78649">
        <ele>975</ele>
        <time>2013-09-22T09:06:44Z</time>
      </trkpt>
      <trkpt lat="45.67192" lon="2.78656">
        <ele>975</ele>
        <time>2013-09-22T09:06:46Z</time>
      </trkpt>
      <trkpt lat="45.67196" lon="2.78658">
        <ele>975</ele>
        <time>2013-09-22T09:06:47Z</time>
      </trkpt>
      <trkpt lat="45.672" lon="2.78659">
        <ele>974</ele>
        <time>2013-09-22T09:06:48Z</time>
      </trkpt>
      <trkpt lat="45.67205" lon="2.78658">
        <ele>974</ele>
        <time>2013-09-22T09:06:49Z</time>
      </trkpt>
      <trkpt lat="45.67209" lon="2.78655">
        <ele>974</ele>
        <time>2013-09-22T09:06:50Z</time>
      </trkpt>
      <trkpt lat="45.67214" lon="2.78652">
        <ele>974</ele>
        <time>2013-09-22T09:06:51Z</time>
      </trkpt>
      <trkpt lat="45.6725" lon="2.78617">
        <ele>972</ele>
        <time>2013-09-22T09:06:59Z</time>
      </trkpt>
      <trkpt lat="45.67281" lon="2.78586">
        <ele>972</ele>
        <time>2013-09-22T09:07:06Z</time>
      </trkpt>
      <trkpt lat="45.67287" lon="2.78584">
        <ele>972</ele>
        <time>2013-09-22T09:07:07Z</time>
      </trkpt>
      <trkpt lat="45.67292" lon="2.78584">
        <ele>972</ele>
        <time>2013-09-22T09:07:08Z</time>
      </trkpt>
      <trkpt lat="45.67309" lon="2.78584">
        <ele>972</ele>
        <time>2013-09-22T09:07:11Z</time>
      </trkpt>
      <trkpt lat="45.67315" lon="2.78582">
        <ele>972</ele>
        <time>2013-09-22T09:07:12Z</time>
      </trkpt>
      <trkpt lat="45.67399" lon="2.78539">
        <ele>970</ele>
        <time>2013-09-22T09:07:29Z</time>
      </trkpt>
      <trkpt lat="45.67415" lon="2.78533">
        <ele>970</ele>
        <time>2013-09-22T09:07:32Z</time>
      </trkpt>
      <trkpt lat="45.6742" lon="2.78533">
        <ele>970</ele>
        <time>2013-09-22T09:07:33Z</time>
      </trkpt>
      <trkpt lat="45.67426" lon="2.78534">
        <ele>970</ele>
        <time>2013-09-22T09:07:34Z</time>
      </trkpt>
      <trkpt lat="45.67431" lon="2.78535">
        <ele>970</ele>
        <time>2013-09-22T09:07:35Z</time>
      </trkpt>
      <trkpt lat="45.67437" lon="2.78538">
        <ele>970</ele>
        <time>2013-09-22T09:07:36Z</time>
      </trkpt>
      <trkpt lat="45.67442" lon="2.78542">
        <ele>970</ele>
        <time>2013-09-22T09:07:37Z</time>
      </trkpt>
      <trkpt lat="45.67448" lon="2.78547">
        <ele>970</ele>
        <time>2013-09-22T09:07:38Z</time>
      </trkpt>
      <trkpt lat="45.67454" lon="2.78551">
        <ele>970</ele>
        <time>2013-09-22T09:07:39Z</time>
      </trkpt>
      <trkpt lat="45.67461" lon="2.78551">
        <ele>970</ele>
        <time>2013-09-22T09:07:40Z</time>
      </trkpt>
      <trkpt lat="45.67467" lon="2.78549">
        <ele>970</ele>
        <time>2013-09-22T09:07:41Z</time>
      </trkpt>
      <trkpt lat="45.67473" lon="2.78546">
        <ele>970</ele>
        <time>2013-09-22T09:07:42Z</time>
      </trkpt>
      <trkpt lat="45.67477" lon="2.78544">
        <ele>970</ele>
        <time>2013-09-22T09:07:43Z</time>
      </trkpt>
      <trkpt lat="45.67481" lon="2.78543">
        <ele>970</ele>
        <time>2013-09-22T09:07:44Z</time>
      </trkpt>
      <trkpt lat="45.67485" lon="2.7854">
        <ele>970</ele>
        <time>2013-09-22T09:07:45Z</time>
      </trkpt>
      <trkpt lat="45.67558" lon="2.78489">
        <ele>969</ele>
        <time>2013-09-22T09:08:04Z</time>
      </trkpt>
      <trkpt lat="45.67579" lon="2.78476">
        <ele>969</ele>
        <time>2013-09-22T09:08:09Z</time>
      </trkpt>
      <trkpt lat="45.67589" lon="2.78465">
        <ele>972</ele>
        <time>2013-09-22T09:08:12Z</time>
      </trkpt>
      <trkpt lat="45.67648" lon="2.78392">
        <ele>971</ele>
        <time>2013-09-22T09:08:28Z</time>
      </trkpt>
      <trkpt lat="45.67681" lon="2.7834">
        <ele>976</ele>
        <time>2013-09-22T09:08:41Z</time>
      </trkpt>
      <trkpt lat="45.67706" lon="2.78289">
        <ele>976</ele>
        <time>2013-09-22T09:08:56Z</time>
      </trkpt>
      <trkpt lat="45.67748" lon="2.78232">
        <ele>974</ele>
        <time>2013-09-22T09:09:12Z</time>
      </trkpt>
      <trkpt lat="45.67777" lon="2.7819">
        <ele>977</ele>
        <time>2013-09-22T09:09:21Z</time>
      </trkpt>
      <trkpt lat="45.6779" lon="2.78166">
        <ele>972</ele>
        <time>2013-09-22T09:09:25Z</time>
      </trkpt>
      <trkpt lat="45.67809" lon="2.78123">
        <ele>970</ele>
        <time>2013-09-22T09:09:30Z</time>
      </trkpt>
      <trkpt lat="45.67835" lon="2.78072">
        <ele>966</ele>
        <time>2013-09-22T09:09:35Z</time>
      </trkpt>
      <trkpt lat="45.67857" lon="2.7803">
        <ele>963</ele>
        <time>2013-09-22T09:09:39Z</time>
      </trkpt>
      <trkpt lat="45.67867" lon="2.78011">
        <ele>963</ele>
        <time>2013-09-22T09:09:41Z</time>
      </trkpt>
      <trkpt lat="45.67879" lon="2.77985">
        <ele>956</ele>
        <time>2013-09-22T09:09:44Z</time>
      </trkpt>
      <trkpt lat="45.67887" lon="2.77968">
        <ele>956</ele>
        <time>2013-09-22T09:09:46Z</time>
      </trkpt>
      <trkpt lat="45.67905" lon="2.7793">
        <ele>954</ele>
        <time>2013-09-22T09:09:50Z</time>
      </trkpt>
      <trkpt lat="45.67915" lon="2.77908">
        <ele>951</ele>
        <time>2013-09-22T09:09:52Z</time>
      </trkpt>
      <trkpt lat="45.67925" lon="2.77868">
        <ele>949</ele>
        <time>2013-09-22T09:09:55Z</time>
      </trkpt>
      <trkpt lat="45.67932" lon="2.77827">
        <ele>942</ele>
        <time>2013-09-22T09:09:58Z</time>
      </trkpt>
      <trkpt lat="45.67934" lon="2.77801">
        <ele>940</ele>
        <time>2013-09-22T09:10:00Z</time>
      </trkpt>
      <trkpt lat="45.67935" lon="2.77758">
        <ele>938</ele>
        <time>2013-09-22T09:10:03Z</time>
      </trkpt>
      <trkpt lat="45.67936" lon="2.77728">
        <ele>932</ele>
        <time>2013-09-22T09:10:05Z</time>
      </trkpt>
      <trkpt lat="45.67938" lon="2.77701">
        <ele>929</ele>
        <time>2013-09-22T09:10:07Z</time>
      </trkpt>
      <trkpt lat="45.67941" lon="2.77669">
        <ele>928</ele>
        <time>2013-09-22T09:10:10Z</time>
      </trkpt>
      <trkpt lat="45.67939" lon="2.77657">
        <ele>922</ele>
        <time>2013-09-22T09:10:12Z</time>
      </trkpt>
      <trkpt lat="45.67933" lon="2.77653">
        <ele>922</ele>
        <time>2013-09-22T09:10:14Z</time>
      </trkpt>
      <trkpt lat="45.679" lon="2.77644">
        <ele>921</ele>
        <time>2013-09-22T09:10:20Z</time>
      </trkpt>
      <trkpt lat="45.6788" lon="2.7764">
        <ele>920</ele>
        <time>2013-09-22T09:10:23Z</time>
      </trkpt>
      <trkpt lat="45.67835" lon="2.77648">
        <ele>920</ele>
        <time>2013-09-22T09:10:29Z</time>
      </trkpt>
      <trkpt lat="45.67828" lon="2.77649">
        <ele>919</ele>
        <time>2013-09-22T09:10:30Z</time>
      </trkpt>
      <trkpt lat="45.67819" lon="2.77639">
        <ele>917</ele>
        <time>2013-09-22T09:10:34Z</time>
      </trkpt>
      <trkpt lat="45.67865" lon="2.77576">
        <ele>912</ele>
        <time>2013-09-22T09:10:44Z</time>
      </trkpt>
      <trkpt lat="45.67872" lon="2.7757">
        <ele>912</ele>
        <time>2013-09-22T09:10:45Z</time>
      </trkpt>
      <trkpt lat="45.67923" lon="2.77528">
        <ele>911</ele>
        <time>2013-09-22T09:10:52Z</time>
      </trkpt>
      <trkpt lat="45.67942" lon="2.77494">
        <ele>906</ele>
        <time>2013-09-22T09:10:56Z</time>
      </trkpt>
      <trkpt lat="45.67947" lon="2.77477">
        <ele>906</ele>
        <time>2013-09-22T09:10:59Z</time>
      </trkpt>
      <trkpt lat="45.67949" lon="2.77472">
        <ele>906</ele>
        <time>2013-09-22T09:11:07Z</time>
      </trkpt>
      <trkpt lat="45.67941" lon="2.77445">
        <ele>905</ele>
        <time>2013-09-22T09:11:16Z</time>
      </trkpt>
      <trkpt lat="45.6794" lon="2.77442">
        <ele>905</ele>
        <time>2013-09-22T09:11:31Z</time>
      </trkpt>
      <trkpt lat="45.6794" lon="2.77442">
        <ele>905</ele>
        <time>2013-09-22T09:11:50Z</time>
      </trkpt>
      <trkpt lat="45.6794" lon="2.77442">
        <ele>905</ele>
        <time>2013-09-22T09:12:11Z</time>
      </trkpt>
      <trkpt lat="45.6794" lon="2.77442">
        <ele>905</ele>
        <time>2013-09-22T09:12:33Z</time>
      </trkpt>
      <trkpt lat="45.6794" lon="2.77442">
        <ele>905</ele>
        <time>2013-09-22T09:12:49Z</time>
      </trkpt>
      <trkpt lat="45.67942" lon="2.77443">
        <ele>905</ele>
        <time>2013-09-22T09:12:52Z</time>
      </trkpt>
      <trkpt lat="45.67951" lon="2.77449">
        <ele>905</ele>
        <time>2013-09-22T09:12:57Z</time>
      </trkpt>
      <trkpt lat="45.68" lon="2.77467">
        <ele>905</ele>
        <time>2013-09-22T09:13:12Z</time>
      </trkpt>
      <trkpt lat="45.68026" lon="2.77485">
        <ele>906</ele>
        <time>2013-09-22T09:13:24Z</time>
      </trkpt>
      <trkpt lat="45.68056" lon="2.77518">
        <ele>910</ele>
        <time>2013-09-22T09:13:39Z</time>
      </trkpt>
      <trkpt lat="45.68095" lon="2.77556">
        <ele>911</ele>
        <time>2013-09-22T09:13:57Z</time>
      </trkpt>
      <trkpt lat="45.68131" lon="2.77597">
        <ele>915</ele>
        <time>2013-09-22T09:14:15Z</time>
      </trkpt>
      <trkpt lat="45.68144" lon="2.7763">
        <ele>916</ele>
        <time>2013-09-22T09:14:29Z</time>
      </trkpt>
      <trkpt lat="45.68156" lon="2.77678">
        <ele>920</ele>
        <time>2013-09-22T09:14:47Z</time>
      </trkpt>
      <trkpt lat="45.68176" lon="2.77711">
        <ele>920</ele>
        <time>2013-09-22T09:15:00Z</time>
      </trkpt>
      <trkpt lat="45.68214" lon="2.77735">
        <ele>920</ele>
        <time>2013-09-22T09:15:15Z</time>
      </trkpt>
      <trkpt lat="45.68259" lon="2.77722">
        <ele>919</ele>
        <time>2013-09-22T09:15:28Z</time>
      </trkpt>
      <trkpt lat="45.68301" lon="2.77724">
        <ele>918</ele>
        <time>2013-09-22T09:15:33Z</time>
      </trkpt>
      <trkpt lat="45.68385" lon="2.77744">
        <ele>918</ele>
        <time>2013-09-22T09:15:49Z</time>
      </trkpt>
      <trkpt lat="45.68439" lon="2.77779">
        <ele>923</ele>
        <time>2013-09-22T09:16:02Z</time>
      </trkpt>
      <trkpt lat="45.68485" lon="2.77807">
        <ele>924</ele>
        <time>2013-09-22T09:16:16Z</time>
      </trkpt>
      <trkpt lat="45.68525" lon="2.7783">
        <ele>924</ele>
        <time>2013-09-22T09:16:30Z</time>
      </trkpt>
      <trkpt lat="45.68547" lon="2.77844">
        <ele>929</ele>
        <time>2013-09-22T09:16:41Z</time>
      </trkpt>
      <trkpt lat="45.6857" lon="2.77858">
        <ele>929</ele>
        <time>2013-09-22T09:16:54Z</time>
      </trkpt>
      <trkpt lat="45.68633" lon="2.77876">
        <ele>931</ele>
        <time>2013-09-22T09:17:09Z</time>
      </trkpt>
      <trkpt lat="45.68689" lon="2.77888">
        <ele>931</ele>
        <time>2013-09-22T09:17:27Z</time>
      </trkpt>
      <trkpt lat="45.68729" lon="2.77899">
        <ele>932</ele>
        <time>2013-09-22T09:17:41Z</time>
      </trkpt>
      <trkpt lat="45.68773" lon="2.77917">
        <ele>936</ele>
        <time>2013-09-22T09:17:55Z</time>
      </trkpt>
      <trkpt lat="45.68833" lon="2.77927">
        <ele>934</ele>
        <time>2013-09-22T09:18:10Z</time>
      </trkpt>
      <trkpt lat="45.68891" lon="2.77937">
        <ele>934</ele>
        <time>2013-09-22T09:18:22Z</time>
      </trkpt>
      <trkpt lat="45.68905" lon="2.7794">
        <ele>934</ele>
        <time>2013-09-22T09:18:25Z</time>
      </trkpt>
      <trkpt lat="45.68945" lon="2.77942">
        <ele>931</ele>
        <time>2013-09-22T09:18:32Z</time>
      </trkpt>
      <trkpt lat="45.69011" lon="2.77925">
        <ele>925</ele>
        <time>2013-09-22T09:18:41Z</time>
      </trkpt>
      <trkpt lat="45.69097" lon="2.77934">
        <ele>923</ele>
        <time>2013-09-22T09:18:53Z</time>
      </trkpt>
      <trkpt lat="45.69191" lon="2.77975">
        <ele>922</ele>
        <time>2013-09-22T09:19:07Z</time>
      </trkpt>
      <trkpt lat="45.69296" lon="2.78004">
        <ele>920</ele>
        <time>2013-09-22T09:19:22Z</time>
      </trkpt>
      <trkpt lat="45.69398" lon="2.78028">
        <ele>917</ele>
        <time>2013-09-22T09:19:37Z</time>
      </trkpt>
      <trkpt lat="45.69405" lon="2.78061">
        <ele>917</ele>
        <time>2013-09-22T09:19:43Z</time>
      </trkpt>
      <trkpt lat="45.69392" lon="2.78074">
        <ele>917</ele>
        <time>2013-09-22T09:19:46Z</time>
      </trkpt>
      <trkpt lat="45.69343" lon="2.78143">
        <ele>919</ele>
        <time>2013-09-22T09:20:00Z</time>
      </trkpt>
      <trkpt lat="45.69304" lon="2.78252">
        <ele>919</ele>
        <time>2013-09-22T09:20:16Z</time>
      </trkpt>
      <trkpt lat="45.69289" lon="2.78278">
        <ele>919</ele>
        <time>2013-09-22T09:20:20Z</time>
      </trkpt>
      <trkpt lat="45.69276" lon="2.78333">
        <ele>918</ele>
        <time>2013-09-22T09:20:28Z</time>
      </trkpt>
      <trkpt lat="45.69257" lon="2.78388">
        <ele>918</ele>
        <time>2013-09-22T09:20:37Z</time>
      </trkpt>
      <trkpt lat="45.69244" lon="2.78423">
        <ele>919</ele>
        <time>2013-09-22T09:20:43Z</time>
      </trkpt>
      <trkpt lat="45.69241" lon="2.78437">
        <ele>919</ele>
        <time>2013-09-22T09:20:45Z</time>
      </trkpt>
      <trkpt lat="45.69234" lon="2.78515">
        <ele>918</ele>
        <time>2013-09-22T09:20:55Z</time>
      </trkpt>
      <trkpt lat="45.69212" lon="2.78559">
        <ele>918</ele>
        <time>2013-09-22T09:21:02Z</time>
      </trkpt>
      <trkpt lat="45.69202" lon="2.78572">
        <ele>918</ele>
        <time>2013-09-22T09:21:05Z</time>
      </trkpt>
      <trkpt lat="45.69199" lon="2.78611">
        <ele>916</ele>
        <time>2013-09-22T09:21:11Z</time>
      </trkpt>
      <trkpt lat="45.69208" lon="2.78633">
        <ele>916</ele>
        <time>2013-09-22T09:21:14Z</time>
      </trkpt>
      <trkpt lat="45.69257" lon="2.78742">
        <ele>912</ele>
        <time>2013-09-22T09:21:28Z</time>
      </trkpt>
      <trkpt lat="45.69317" lon="2.78834">
        <ele>909</ele>
        <time>2013-09-22T09:21:43Z</time>
      </trkpt>
      <trkpt lat="45.69355" lon="2.78896">
        <ele>908</ele>
        <time>2013-09-22T09:21:52Z</time>
      </trkpt>
      <trkpt lat="45.69359" lon="2.78904">
        <ele>908</ele>
        <time>2013-09-22T09:21:53Z</time>
      </trkpt>
      <trkpt lat="45.69371" lon="2.7894">
        <ele>906</ele>
        <time>2013-09-22T09:21:57Z</time>
      </trkpt>
      <trkpt lat="45.69391" lon="2.7894">
        <ele>906</ele>
        <time>2013-09-22T09:22:03Z</time>
      </trkpt>
      <trkpt lat="45.69408" lon="2.78913">
        <ele>908</ele>
        <time>2013-09-22T09:22:10Z</time>
      </trkpt>
      <trkpt lat="45.69452" lon="2.78887">
        <ele>909</ele>
        <time>2013-09-22T09:22:24Z</time>
      </trkpt>
      <trkpt lat="45.69511" lon="2.78864">
        <ele>909</ele>
        <time>2013-09-22T09:22:37Z</time>
      </trkpt>
      <trkpt lat="45.69598" lon="2.78828">
        <ele>908</ele>
        <time>2013-09-22T09:22:52Z</time>
      </trkpt>
      <trkpt lat="45.69604" lon="2.78826">
        <ele>908</ele>
        <time>2013-09-22T09:22:53Z</time>
      </trkpt>
      <trkpt lat="45.69614" lon="2.78823">
        <ele>909</ele>
        <time>2013-09-22T09:22:55Z</time>
      </trkpt>
      <trkpt lat="45.69644" lon="2.78823">
        <ele>909</ele>
        <time>2013-09-22T09:23:00Z</time>
      </trkpt>
      <trkpt lat="45.69743" lon="2.78845">
        <ele>908</ele>
        <time>2013-09-22T09:23:16Z</time>
      </trkpt>
      <trkpt lat="45.69833" lon="2.7887">
        <ele>906</ele>
        <time>2013-09-22T09:23:30Z</time>
      </trkpt>
      <trkpt lat="45.69923" lon="2.78895">
        <ele>904</ele>
        <time>2013-09-22T09:23:45Z</time>
      </trkpt>
      <trkpt lat="45.70018" lon="2.78924">
        <ele>902</ele>
        <time>2013-09-22T09:24:00Z</time>
      </trkpt>
      <trkpt lat="45.70094" lon="2.78994">
        <ele>900</ele>
        <time>2013-09-22T09:24:14Z</time>
      </trkpt>
      <trkpt lat="45.70152" lon="2.79085">
        <ele>895</ele>
        <time>2013-09-22T09:24:27Z</time>
      </trkpt>
      <trkpt lat="45.70192" lon="2.7914">
        <ele>893</ele>
        <time>2013-09-22T09:24:35Z</time>
      </trkpt>
      <trkpt lat="45.70198" lon="2.79148">
        <ele>892</ele>
        <time>2013-09-22T09:24:36Z</time>
      </trkpt>
      <trkpt lat="45.70215" lon="2.79175">
        <ele>889</ele>
        <time>2013-09-22T09:24:39Z</time>
      </trkpt>
      <trkpt lat="45.70237" lon="2.79219">
        <ele>888</ele>
        <time>2013-09-22T09:24:43Z</time>
      </trkpt>
      <trkpt lat="45.70242" lon="2.7923">
        <ele>887</ele>
        <time>2013-09-22T09:24:44Z</time>
      </trkpt>
      <trkpt lat="45.70253" lon="2.79253">
        <ele>886</ele>
        <time>2013-09-22T09:24:46Z</time>
      </trkpt>
      <trkpt lat="45.70265" lon="2.79276">
        <ele>884</ele>
        <time>2013-09-22T09:24:48Z</time>
      </trkpt>
      <trkpt lat="45.7028" lon="2.79292">
        <ele>883</ele>
        <time>2013-09-22T09:24:50Z</time>
      </trkpt>
      <trkpt lat="45.70311" lon="2.79315">
        <ele>881</ele>
        <time>2013-09-22T09:24:54Z</time>
      </trkpt>
      <trkpt lat="45.70335" lon="2.79327">
        <ele>879</ele>
        <time>2013-09-22T09:24:57Z</time>
      </trkpt>
      <trkpt lat="45.70411" lon="2.79338">
        <ele>876</ele>
        <time>2013-09-22T09:25:06Z</time>
      </trkpt>
      <trkpt lat="45.70461" lon="2.79346">
        <ele>875</ele>
        <time>2013-09-22T09:25:12Z</time>
      </trkpt>
      <trkpt lat="45.7053" lon="2.79357">
        <ele>873</ele>
        <time>2013-09-22T09:25:20Z</time>
      </trkpt>
      <trkpt lat="45.70565" lon="2.79363">
        <ele>873</ele>
        <time>2013-09-22T09:25:24Z</time>
      </trkpt>
      <trkpt lat="45.70618" lon="2.79369">
        <ele>870</ele>
        <time>2013-09-22T09:25:30Z</time>
      </trkpt>
      <trkpt lat="45.70655" lon="2.79375">
        <ele>869</ele>
        <time>2013-09-22T09:25:34Z</time>
      </trkpt>
      <trkpt lat="45.70703" lon="2.7938">
        <ele>864</ele>
        <time>2013-09-22T09:25:39Z</time>
      </trkpt>
      <trkpt lat="45.70742" lon="2.79383">
        <ele>863</ele>
        <time>2013-09-22T09:25:43Z</time>
      </trkpt>
      <trkpt lat="45.70781" lon="2.79392">
        <ele>857</ele>
        <time>2013-09-22T09:25:47Z</time>
      </trkpt>
      <trkpt lat="45.708" lon="2.79397">
        <ele>856</ele>
        <time>2013-09-22T09:25:49Z</time>
      </trkpt>
      <trkpt lat="45.70836" lon="2.79406">
        <ele>851</ele>
        <time>2013-09-22T09:25:53Z</time>
      </trkpt>
      <trkpt lat="45.70861" lon="2.79422">
        <ele>849</ele>
        <time>2013-09-22T09:25:56Z</time>
      </trkpt>
      <trkpt lat="45.70888" lon="2.79453">
        <ele>847</ele>
        <time>2013-09-22T09:26:01Z</time>
      </trkpt>
      <trkpt lat="45.70903" lon="2.79442">
        <ele>845</ele>
        <time>2013-09-22T09:26:05Z</time>
      </trkpt>
      <trkpt lat="45.70906" lon="2.79415">
        <ele>841</ele>
        <time>2013-09-22T09:26:08Z</time>
      </trkpt>
      <trkpt lat="45.70907" lon="2.79392">
        <ele>844</ele>
        <time>2013-09-22T09:26:10Z</time>
      </trkpt>
      <trkpt lat="45.70919" lon="2.79348">
        <ele>843</ele>
        <time>2013-09-22T09:26:15Z</time>
      </trkpt>
      <trkpt lat="45.70939" lon="2.79343">
        <ele>841</ele>
        <time>2013-09-22T09:26:19Z</time>
      </trkpt>
      <trkpt lat="45.7096" lon="2.79346">
        <ele>840</ele>
        <time>2013-09-22T09:26:22Z</time>
      </trkpt>
      <trkpt lat="45.70993" lon="2.79357">
        <ele>839</ele>
        <time>2013-09-22T09:26:26Z</time>
      </trkpt>
      <trkpt lat="45.71018" lon="2.79351">
        <ele>836</ele>
        <time>2013-09-22T09:26:29Z</time>
      </trkpt>
      <trkpt lat="45.71066" lon="2.79329">
        <ele>839</ele>
        <time>2013-09-22T09:26:36Z</time>
      </trkpt>
      <trkpt lat="45.71104" lon="2.7934">
        <ele>834</ele>
        <time>2013-09-22T09:26:44Z</time>
      </trkpt>
      <trkpt lat="45.71129" lon="2.7935">
        <ele>833</ele>
        <time>2013-09-22T09:26:48Z</time>
      </trkpt>
      <trkpt lat="45.71143" lon="2.79378">
        <ele>833</ele>
        <time>2013-09-22T09:26:53Z</time>
      </trkpt>
      <trkpt lat="45.71123" lon="2.79412">
        <ele>832</ele>
        <time>2013-09-22T09:26:58Z</time>
      </trkpt>
      <trkpt lat="45.71098" lon="2.7944">
        <ele>828</ele>
        <time>2013-09-22T09:27:04Z</time>
      </trkpt>
      <trkpt lat="45.71098" lon="2.79446">
        <ele>828</ele>
        <time>2013-09-22T09:27:05Z</time>
      </trkpt>
      <trkpt lat="45.71122" lon="2.79469">
        <ele>828</ele>
        <time>2013-09-22T09:27:11Z</time>
      </trkpt>
      <trkpt lat="45.71149" lon="2.79479">
        <ele>828</ele>
        <time>2013-09-22T09:27:16Z</time>
      </trkpt>
      <trkpt lat="45.71159" lon="2.79483">
        <ele>828</ele>
        <time>2013-09-22T09:27:18Z</time>
      </trkpt>
      <trkpt lat="45.71211" lon="2.79509">
        <ele>822</ele>
        <time>2013-09-22T09:27:26Z</time>
      </trkpt>
      <trkpt lat="45.71219" lon="2.79513">
        <ele>822</ele>
        <time>2013-09-22T09:27:27Z</time>
      </trkpt>
      <trkpt lat="45.71245" lon="2.79523">
        <ele>821</ele>
        <time>2013-09-22T09:27:30Z</time>
      </trkpt>
      <trkpt lat="45.71261" lon="2.79529">
        <ele>818</ele>
        <time>2013-09-22T09:27:32Z</time>
      </trkpt>
      <trkpt lat="45.71279" lon="2.79542">
        <ele>816</ele>
        <time>2013-09-22T09:27:35Z</time>
      </trkpt>
      <trkpt lat="45.71298" lon="2.79556">
        <ele>815</ele>
        <time>2013-09-22T09:27:39Z</time>
      </trkpt>
      <trkpt lat="45.71308" lon="2.79561">
        <ele>814</ele>
        <time>2013-09-22T09:27:41Z</time>
      </trkpt>
      <trkpt lat="45.71331" lon="2.79581">
        <ele>810</ele>
        <time>2013-09-22T09:27:45Z</time>
      </trkpt>
      <trkpt lat="45.71342" lon="2.79591">
        <ele>807</ele>
        <time>2013-09-22T09:27:47Z</time>
      </trkpt>
      <trkpt lat="45.71355" lon="2.79602">
        <ele>805</ele>
        <time>2013-09-22T09:27:50Z</time>
      </trkpt>
      <trkpt lat="45.71362" lon="2.79608">
        <ele>804</ele>
        <time>2013-09-22T09:27:52Z</time>
      </trkpt>
      <trkpt lat="45.71366" lon="2.79612">
        <ele>804</ele>
        <time>2013-09-22T09:27:53Z</time>
      </trkpt>
      <trkpt lat="45.71381" lon="2.79625">
        <ele>802</ele>
        <time>2013-09-22T09:27:57Z</time>
      </trkpt>
      <trkpt lat="45.71388" lon="2.79632">
        <ele>802</ele>
        <time>2013-09-22T09:27:58Z</time>
      </trkpt>
      <trkpt lat="45.71394" lon="2.79639">
        <ele>801</ele>
        <time>2013-09-22T09:28:00Z</time>
      </trkpt>
      <trkpt lat="45.71418" lon="2.79654">
        <ele>799</ele>
        <time>2013-09-22T09:28:05Z</time>
      </trkpt>
      <trkpt lat="45.71421" lon="2.79655">
        <ele>798</ele>
        <time>2013-09-22T09:28:06Z</time>
      </trkpt>
      <trkpt lat="45.71425" lon="2.79659">
        <ele>798</ele>
        <time>2013-09-22T09:28:07Z</time>
      </trkpt>
      <trkpt lat="45.7143" lon="2.79661">
        <ele>799</ele>
        <time>2013-09-22T09:28:08Z</time>
      </trkpt>
      <trkpt lat="45.71446" lon="2.79669">
        <ele>792</ele>
        <time>2013-09-22T09:28:11Z</time>
      </trkpt>
      <trkpt lat="45.71468" lon="2.79679">
        <ele>792</ele>
        <time>2013-09-22T09:28:16Z</time>
      </trkpt>
      <trkpt lat="45.71478" lon="2.79681">
        <ele>792</ele>
        <time>2013-09-22T09:28:19Z</time>
      </trkpt>
      <trkpt lat="45.71494" lon="2.79678">
        <ele>794</ele>
        <time>2013-09-22T09:28:24Z</time>
      </trkpt>
      <trkpt lat="45.71524" lon="2.79674">
        <ele>792</ele>
        <time>2013-09-22T09:28:32Z</time>
      </trkpt>
      <trkpt lat="45.71563" lon="2.79678">
        <ele>791</ele>
        <time>2013-09-22T09:28:44Z</time>
      </trkpt>
      <trkpt lat="45.71603" lon="2.79677">
        <ele>791</ele>
        <time>2013-09-22T09:28:53Z</time>
      </trkpt>
      <trkpt lat="45.71611" lon="2.79675">
        <ele>791</ele>
        <time>2013-09-22T09:28:56Z</time>
      </trkpt>
      <trkpt lat="45.71626" lon="2.79678">
        <ele>790</ele>
        <time>2013-09-22T09:28:58Z</time>
      </trkpt>
      <trkpt lat="45.71681" lon="2.79701">
        <ele>788</ele>
        <time>2013-09-22T09:29:09Z</time>
      </trkpt>
      <trkpt lat="45.71726" lon="2.79713">
        <ele>785</ele>
        <time>2013-09-22T09:29:21Z</time>
      </trkpt>
      <trkpt lat="45.71761" lon="2.79723">
        <ele>781</ele>
        <time>2013-09-22T09:29:31Z</time>
      </trkpt>
      <trkpt lat="45.718" lon="2.79729">
        <ele>780</ele>
        <time>2013-09-22T09:29:42Z</time>
      </trkpt>
      <trkpt lat="45.7182" lon="2.79726">
        <ele>779</ele>
        <time>2013-09-22T09:29:47Z</time>
      </trkpt>
      <trkpt lat="45.71838" lon="2.79735">
        <ele>776</ele>
        <time>2013-09-22T09:29:52Z</time>
      </trkpt>
      <trkpt lat="45.71843" lon="2.79739">
        <ele>775</ele>
        <time>2013-09-22T09:29:53Z</time>
      </trkpt>
      <trkpt lat="45.71882" lon="2.79812">
        <ele>771</ele>
        <time>2013-09-22T09:30:04Z</time>
      </trkpt>
      <trkpt lat="45.71916" lon="2.79875">
        <ele>777</ele>
        <time>2013-09-22T09:30:17Z</time>
      </trkpt>
      <trkpt lat="45.71947" lon="2.79894">
        <ele>780</ele>
        <time>2013-09-22T09:30:31Z</time>
      </trkpt>
      <trkpt lat="45.71976" lon="2.79901">
        <ele>782</ele>
        <time>2013-09-22T09:30:45Z</time>
      </trkpt>
      <trkpt lat="45.7201" lon="2.79906">
        <ele>786</ele>
        <time>2013-09-22T09:31:00Z</time>
      </trkpt>
      <trkpt lat="45.72053" lon="2.79907">
        <ele>784</ele>
        <time>2013-09-22T09:31:17Z</time>
      </trkpt>
      <trkpt lat="45.72107" lon="2.79913">
        <ele>785</ele>
        <time>2013-09-22T09:31:36Z</time>
      </trkpt>
      <trkpt lat="45.72173" lon="2.79919">
        <ele>791</ele>
        <time>2013-09-22T09:31:55Z</time>
      </trkpt>
      <trkpt lat="45.72237" lon="2.7994">
        <ele>791</ele>
        <time>2013-09-22T09:32:13Z</time>
      </trkpt>
      <trkpt lat="45.72287" lon="2.79968">
        <ele>791</ele>
        <time>2013-09-22T09:32:28Z</time>
      </trkpt>
      <trkpt lat="45.72322" lon="2.80001">
        <ele>799</ele>
        <time>2013-09-22T09:32:43Z</time>
      </trkpt>
      <trkpt lat="45.72353" lon="2.79997">
        <ele>795</ele>
        <time>2013-09-22T09:32:56Z</time>
      </trkpt>
      <trkpt lat="45.7238" lon="2.80001">
        <ele>800</ele>
        <time>2013-09-22T09:33:10Z</time>
      </trkpt>
      <trkpt lat="45.72397" lon="2.80032">
        <ele>801</ele>
        <time>2013-09-22T09:33:25Z</time>
      </trkpt>
      <trkpt lat="45.72414" lon="2.80071">
        <ele>803</ele>
        <time>2013-09-22T09:33:39Z</time>
      </trkpt>
      <trkpt lat="45.72426" lon="2.80115">
        <ele>805</ele>
        <time>2013-09-22T09:33:55Z</time>
      </trkpt>
      <trkpt lat="45.72426" lon="2.80118">
        <ele>805</ele>
        <time>2013-09-22T09:34:12Z</time>
      </trkpt>
      <trkpt lat="45.72424" lon="2.8012">
        <ele>805</ele>
        <time>2013-09-22T09:34:31Z</time>
      </trkpt>
      <trkpt lat="45.72424" lon="2.8012">
        <ele>805</ele>
        <time>2013-09-22T09:34:48Z</time>
      </trkpt>
      <trkpt lat="45.72424" lon="2.8012">
        <ele>805</ele>
        <time>2013-09-22T09:35:05Z</time>
      </trkpt>
      <trkpt lat="45.72422" lon="2.80116">
        <ele>805</ele>
        <time>2013-09-22T09:35:21Z</time>
      </trkpt>
      <trkpt lat="45.72422" lon="2.80116">
        <ele>805</ele>
        <time>2013-09-22T09:35:38Z</time>
      </trkpt>
      <trkpt lat="45.72422" lon="2.80116">
        <ele>805</ele>
        <time>2013-09-22T09:35:57Z</time>
      </trkpt>
      <trkpt lat="45.72421" lon="2.80114">
        <ele>805</ele>
        <time>2013-09-22T09:36:15Z</time>
      </trkpt>
      <trkpt lat="45.72422" lon="2.80113">
        <ele>805</ele>
        <time>2013-09-22T09:36:24Z</time>
      </trkpt>
      <trkpt lat="45.72424" lon="2.80115">
        <ele>805</ele>
        <time>2013-09-22T09:36:45Z</time>
      </trkpt>
      <trkpt lat="45.72424" lon="2.80114">
        <ele>805</ele>
        <time>2013-09-22T09:36:59Z</time>
      </trkpt>
      <trkpt lat="45.72427" lon="2.80114">
        <ele>805</ele>
        <time>2013-09-22T09:37:09Z</time>
      </trkpt>
      <trkpt lat="45.72459" lon="2.80105">
        <ele>805</ele>
        <time>2013-09-22T09:37:21Z</time>
      </trkpt>
      <trkpt lat="45.72505" lon="2.80114">
        <ele>805</ele>
        <time>2013-09-22T09:37:35Z</time>
      </trkpt>
      <trkpt lat="45.72575" lon="2.80102">
        <ele>805</ele>
        <time>2013-09-22T09:37:52Z</time>
      </trkpt>
      <trkpt lat="45.72645" lon="2.80086">
        <ele>804</ele>
        <time>2013-09-22T09:38:07Z</time>
      </trkpt>
      <trkpt lat="45.72727" lon="2.80072">
        <ele>799</ele>
        <time>2013-09-22T09:38:21Z</time>
      </trkpt>
      <trkpt lat="45.72816" lon="2.80087">
        <ele>798</ele>
        <time>2013-09-22T09:38:36Z</time>
      </trkpt>
      <trkpt lat="45.7288" lon="2.80064">
        <ele>796</ele>
        <time>2013-09-22T09:38:47Z</time>
      </trkpt>
      <trkpt lat="45.72886" lon="2.8006">
        <ele>796</ele>
        <time>2013-09-22T09:38:48Z</time>
      </trkpt>
      <trkpt lat="45.72902" lon="2.80049">
        <ele>796</ele>
        <time>2013-09-22T09:38:51Z</time>
      </trkpt>
      <trkpt lat="45.72953" lon="2.80003">
        <ele>797</ele>
        <time>2013-09-22T09:39:01Z</time>
      </trkpt>
      <trkpt lat="45.72971" lon="2.7999">
        <ele>796</ele>
        <time>2013-09-22T09:39:05Z</time>
      </trkpt>
      <trkpt lat="45.72995" lon="2.79972">
        <ele>797</ele>
        <time>2013-09-22T09:39:11Z</time>
      </trkpt>
      <trkpt lat="45.73007" lon="2.79968">
        <ele>797</ele>
        <time>2013-09-22T09:39:14Z</time>
      </trkpt>
      <trkpt lat="45.73019" lon="2.79964">
        <ele>797</ele>
        <time>2013-09-22T09:39:17Z</time>
      </trkpt>
      <trkpt lat="45.73045" lon="2.79947">
        <ele>796</ele>
        <time>2013-09-22T09:39:23Z</time>
      </trkpt>
      <trkpt lat="45.73074" lon="2.79922">
        <ele>795</ele>
        <time>2013-09-22T09:39:29Z</time>
      </trkpt>
      <trkpt lat="45.73092" lon="2.79906">
        <ele>793</ele>
        <time>2013-09-22T09:39:32Z</time>
      </trkpt>
      <trkpt lat="45.73103" lon="2.79893">
        <ele>792</ele>
        <time>2013-09-22T09:39:34Z</time>
      </trkpt>
      <trkpt lat="45.73132" lon="2.7987">
        <ele>790</ele>
        <time>2013-09-22T09:39:39Z</time>
      </trkpt>
      <trkpt lat="45.73154" lon="2.79846">
        <ele>789</ele>
        <time>2013-09-22T09:39:43Z</time>
      </trkpt>
      <trkpt lat="45.73168" lon="2.79802">
        <ele>787</ele>
        <time>2013-09-22T09:39:48Z</time>
      </trkpt>
      <trkpt lat="45.73175" lon="2.79754">
        <ele>786</ele>
        <time>2013-09-22T09:39:53Z</time>
      </trkpt>
      <trkpt lat="45.73178" lon="2.79731">
        <ele>786</ele>
        <time>2013-09-22T09:39:56Z</time>
      </trkpt>
      <trkpt lat="45.73186" lon="2.79712">
        <ele>786</ele>
        <time>2013-09-22T09:39:59Z</time>
      </trkpt>
      <trkpt lat="45.7319" lon="2.79705">
        <ele>786</ele>
        <time>2013-09-22T09:40:00Z</time>
      </trkpt>
      <trkpt lat="45.73194" lon="2.79698">
        <ele>786</ele>
        <time>2013-09-22T09:40:01Z</time>
      </trkpt>
      <trkpt lat="45.73207" lon="2.79682">
        <ele>786</ele>
        <time>2013-09-22T09:40:03Z</time>
      </trkpt>
      <trkpt lat="45.73222" lon="2.79672">
        <ele>784</ele>
        <time>2013-09-22T09:40:05Z</time>
      </trkpt>
      <trkpt lat="45.7324" lon="2.79667">
        <ele>781</ele>
        <time>2013-09-22T09:40:07Z</time>
      </trkpt>
      <trkpt lat="45.73254" lon="2.79665">
        <ele>776</ele>
        <time>2013-09-22T09:40:08Z</time>
      </trkpt>
      <trkpt lat="45.73265" lon="2.79663">
        <ele>773</ele>
        <time>2013-09-22T09:40:09Z</time>
      </trkpt>
      <trkpt lat="45.73276" lon="2.79662">
        <ele>771</ele>
        <time>2013-09-22T09:40:10Z</time>
      </trkpt>
      <trkpt lat="45.73286" lon="2.79661">
        <ele>769</ele>
        <time>2013-09-22T09:40:11Z</time>
      </trkpt>
      <trkpt lat="45.73292" lon="2.79661">
        <ele>768</ele>
        <time>2013-09-22T09:40:12Z</time>
      </trkpt>
      <trkpt lat="45.73306" lon="2.79663">
        <ele>766</ele>
        <time>2013-09-22T09:40:13Z</time>
      </trkpt>
      <trkpt lat="45.7331" lon="2.79663">
        <ele>765</ele>
        <time>2013-09-22T09:40:14Z</time>
      </trkpt>
      <trkpt lat="45.73322" lon="2.79667">
        <ele>766</ele>
        <time>2013-09-22T09:40:15Z</time>
      </trkpt>
      <trkpt lat="45.7333" lon="2.79668">
        <ele>763</ele>
        <time>2013-09-22T09:40:16Z</time>
      </trkpt>
      <trkpt lat="45.73358" lon="2.79678">
        <ele>759</ele>
        <time>2013-09-22T09:40:19Z</time>
      </trkpt>
      <trkpt lat="45.73364" lon="2.7968">
        <ele>758</ele>
        <time>2013-09-22T09:40:20Z</time>
      </trkpt>
      <trkpt lat="45.73396" lon="2.79695">
        <ele>755</ele>
        <time>2013-09-22T09:40:24Z</time>
      </trkpt>
      <trkpt lat="45.73418" lon="2.79708">
        <ele>745</ele>
        <time>2013-09-22T09:40:27Z</time>
      </trkpt>
      <trkpt lat="45.73425" lon="2.79711">
        <ele>745</ele>
        <time>2013-09-22T09:40:28Z</time>
      </trkpt>
      <trkpt lat="45.73476" lon="2.79693">
        <ele>740</ele>
        <time>2013-09-22T09:40:35Z</time>
      </trkpt>
      <trkpt lat="45.73535" lon="2.79657">
        <ele>736</ele>
        <time>2013-09-22T09:40:46Z</time>
      </trkpt>
      <trkpt lat="45.73553" lon="2.79654">
        <ele>737</ele>
        <time>2013-09-22T09:40:50Z</time>
      </trkpt>
      <trkpt lat="45.73603" lon="2.7966">
        <ele>741</ele>
        <time>2013-09-22T09:41:04Z</time>
      </trkpt>
      <trkpt lat="45.73649" lon="2.79673">
        <ele>739</ele>
        <time>2013-09-22T09:41:19Z</time>
      </trkpt>
      <trkpt lat="45.73697" lon="2.79687">
        <ele>744</ele>
        <time>2013-09-22T09:41:36Z</time>
      </trkpt>
      <trkpt lat="45.73741" lon="2.79706">
        <ele>746</ele>
        <time>2013-09-22T09:41:52Z</time>
      </trkpt>
      <trkpt lat="45.73778" lon="2.79751">
        <ele>742</ele>
        <time>2013-09-22T09:42:09Z</time>
      </trkpt>
      <trkpt lat="45.73812" lon="2.79802">
        <ele>742</ele>
        <time>2013-09-22T09:42:25Z</time>
      </trkpt>
      <trkpt lat="45.73861" lon="2.79817">
        <ele>748</ele>
        <time>2013-09-22T09:42:41Z</time>
      </trkpt>
      <trkpt lat="45.73908" lon="2.79824">
        <ele>750</ele>
        <time>2013-09-22T09:42:58Z</time>
      </trkpt>
      <trkpt lat="45.73948" lon="2.79835">
        <ele>749</ele>
        <time>2013-09-22T09:43:15Z</time>
      </trkpt>
      <trkpt lat="45.73982" lon="2.79823">
        <ele>759</ele>
        <time>2013-09-22T09:43:33Z</time>
      </trkpt>
      <trkpt lat="45.74001" lon="2.79775">
        <ele>766</ele>
        <time>2013-09-22T09:43:52Z</time>
      </trkpt>
      <trkpt lat="45.74004" lon="2.7972">
        <ele>770</ele>
        <time>2013-09-22T09:44:12Z</time>
      </trkpt>
      <trkpt lat="45.74008" lon="2.79672">
        <ele>770</ele>
        <time>2013-09-22T09:44:29Z</time>
      </trkpt>
      <trkpt lat="45.74024" lon="2.79624">
        <ele>774</ele>
        <time>2013-09-22T09:44:49Z</time>
      </trkpt>
      <trkpt lat="45.74039" lon="2.79583">
        <ele>779</ele>
        <time>2013-09-22T09:45:06Z</time>
      </trkpt>
      <trkpt lat="45.74036" lon="2.79535">
        <ele>780</ele>
        <time>2013-09-22T09:45:24Z</time>
      </trkpt>
      <trkpt lat="45.74024" lon="2.79486">
        <ele>785</ele>
        <time>2013-09-22T09:45:43Z</time>
      </trkpt>
      <trkpt lat="45.74014" lon="2.79438">
        <ele>787</ele>
        <time>2013-09-22T09:46:01Z</time>
      </trkpt>
      <trkpt lat="45.74003" lon="2.79396">
        <ele>792</ele>
        <time>2013-09-22T09:46:17Z</time>
      </trkpt>
      <trkpt lat="45.7399" lon="2.79355">
        <ele>790</ele>
        <time>2013-09-22T09:46:33Z</time>
      </trkpt>
      <trkpt lat="45.73969" lon="2.7932">
        <ele>795</ele>
        <time>2013-09-22T09:46:49Z</time>
      </trkpt>
      <trkpt lat="45.73938" lon="2.79272">
        <ele>797</ele>
        <time>2013-09-22T09:47:09Z</time>
      </trkpt>
      <trkpt lat="45.73929" lon="2.79222">
        <ele>803</ele>
        <time>2013-09-22T09:47:28Z</time>
      </trkpt>
      <trkpt lat="45.73929" lon="2.79209">
        <ele>804</ele>
        <time>2013-09-22T09:47:34Z</time>
      </trkpt>
      <trkpt lat="45.73931" lon="2.7918">
        <ele>806</ele>
        <time>2013-09-22T09:47:49Z</time>
      </trkpt>
      <trkpt lat="45.73935" lon="2.79157">
        <ele>810</ele>
        <time>2013-09-22T09:48:01Z</time>
      </trkpt>
      <trkpt lat="45.73942" lon="2.79133">
        <ele>812</ele>
        <time>2013-09-22T09:48:15Z</time>
      </trkpt>
      <trkpt lat="45.73943" lon="2.7913">
        <ele>812</ele>
        <time>2013-09-22T09:48:17Z</time>
      </trkpt>
      <trkpt lat="45.73946" lon="2.79122">
        <ele>812</ele>
        <time>2013-09-22T09:48:22Z</time>
      </trkpt>
      <trkpt lat="45.73967" lon="2.79107">
        <ele>813</ele>
        <time>2013-09-22T09:48:38Z</time>
      </trkpt>
      <trkpt lat="45.73996" lon="2.79109">
        <ele>813</ele>
        <time>2013-09-22T09:48:53Z</time>
      </trkpt>
      <trkpt lat="45.74006" lon="2.79098">
        <ele>817</ele>
        <time>2013-09-22T09:49:00Z</time>
      </trkpt>
      <trkpt lat="45.74012" lon="2.79071">
        <ele>820</ele>
        <time>2013-09-22T09:49:14Z</time>
      </trkpt>
      <trkpt lat="45.74031" lon="2.79061">
        <ele>823</ele>
        <time>2013-09-22T09:49:29Z</time>
      </trkpt>
      <trkpt lat="45.74048" lon="2.79046">
        <ele>824</ele>
        <time>2013-09-22T09:49:43Z</time>
      </trkpt>
      <trkpt lat="45.74045" lon="2.79023">
        <ele>825</ele>
        <time>2013-09-22T09:49:55Z</time>
      </trkpt>
      <trkpt lat="45.74045" lon="2.79015">
        <ele>825</ele>
        <time>2013-09-22T09:49:59Z</time>
      </trkpt>
      <trkpt lat="45.74065" lon="2.79012">
        <ele>827</ele>
        <time>2013-09-22T09:50:13Z</time>
      </trkpt>
      <trkpt lat="45.74081" lon="2.78997">
        <ele>830</ele>
        <time>2013-09-22T09:50:27Z</time>
      </trkpt>
      <trkpt lat="45.74095" lon="2.78973">
        <ele>834</ele>
        <time>2013-09-22T09:50:44Z</time>
      </trkpt>
      <trkpt lat="45.74099" lon="2.78968">
        <ele>834</ele>
        <time>2013-09-22T09:50:48Z</time>
      </trkpt>
      <trkpt lat="45.74106" lon="2.78962">
        <ele>835</ele>
        <time>2013-09-22T09:50:55Z</time>
      </trkpt>
      <trkpt lat="45.7413" lon="2.78952">
        <ele>836</ele>
        <time>2013-09-22T09:51:12Z</time>
      </trkpt>
      <trkpt lat="45.74155" lon="2.78942">
        <ele>837</ele>
        <time>2013-09-22T09:51:29Z</time>
      </trkpt>
      <trkpt lat="45.74167" lon="2.78938">
        <ele>838</ele>
        <time>2013-09-22T09:51:36Z</time>
      </trkpt>
      <trkpt lat="45.74173" lon="2.78936">
        <ele>841</ele>
        <time>2013-09-22T09:51:40Z</time>
      </trkpt>
      <trkpt lat="45.74207" lon="2.78922">
        <ele>842</ele>
        <time>2013-09-22T09:51:59Z</time>
      </trkpt>
      <trkpt lat="45.74229" lon="2.78913">
        <ele>844</ele>
        <time>2013-09-22T09:52:11Z</time>
      </trkpt>
      <trkpt lat="45.74254" lon="2.78899">
        <ele>845</ele>
        <time>2013-09-22T09:52:25Z</time>
      </trkpt>
      <trkpt lat="45.74255" lon="2.78896">
        <ele>845</ele>
        <time>2013-09-22T09:52:26Z</time>
      </trkpt>
      <trkpt lat="45.74251" lon="2.78877">
        <ele>845</ele>
        <time>2013-09-22T09:52:32Z</time>
      </trkpt>
      <trkpt lat="45.74215" lon="2.78819">
        <ele>847</ele>
        <time>2013-09-22T09:52:52Z</time>
      </trkpt>
      <trkpt lat="45.7417" lon="2.78751">
        <ele>850</ele>
        <time>2013-09-22T09:53:15Z</time>
      </trkpt>
      <trkpt lat="45.74153" lon="2.7872">
        <ele>853</ele>
        <time>2013-09-22T09:53:30Z</time>
      </trkpt>
      <trkpt lat="45.74129" lon="2.78689">
        <ele>855</ele>
        <time>2013-09-22T09:53:48Z</time>
      </trkpt>
      <trkpt lat="45.74109" lon="2.78654">
        <ele>860</ele>
        <time>2013-09-22T09:54:06Z</time>
      </trkpt>
      <trkpt lat="45.74125" lon="2.78639">
        <ele>861</ele>
        <time>2013-09-22T09:54:18Z</time>
      </trkpt>
      <trkpt lat="45.7415" lon="2.78627">
        <ele>861</ele>
        <time>2013-09-22T09:54:31Z</time>
      </trkpt>
      <trkpt lat="45.7418" lon="2.78613">
        <ele>864</ele>
        <time>2013-09-22T09:54:47Z</time>
      </trkpt>
      <trkpt lat="45.74191" lon="2.78608">
        <ele>864</ele>
        <time>2013-09-22T09:54:54Z</time>
      </trkpt>
      <trkpt lat="45.74221" lon="2.78595">
        <ele>865</ele>
        <time>2013-09-22T09:55:11Z</time>
      </trkpt>
      <trkpt lat="45.74244" lon="2.78583">
        <ele>870</ele>
        <time>2013-09-22T09:55:25Z</time>
      </trkpt>
      <trkpt lat="45.74244" lon="2.78583">
        <ele>870</ele>
        <time>2013-09-22T09:55:39Z</time>
      </trkpt>
      <trkpt lat="45.74244" lon="2.78584">
        <ele>868</ele>
        <time>2013-09-22T09:55:52Z</time>
      </trkpt>
      <trkpt lat="45.74244" lon="2.78584">
        <ele>868</ele>
        <time>2013-09-22T09:56:14Z</time>
      </trkpt>
      <trkpt lat="45.74244" lon="2.78584">
        <ele>868</ele>
        <time>2013-09-22T09:56:37Z</time>
      </trkpt>
      <trkpt lat="45.74244" lon="2.78584">
        <ele>868</ele>
        <time>2013-09-22T09:56:51Z</time>
      </trkpt>
      <trkpt lat="45.7426" lon="2.78577">
        <ele>871</ele>
        <time>2013-09-22T09:57:03Z</time>
      </trkpt>
      <trkpt lat="45.74286" lon="2.78564">
        <ele>872</ele>
        <time>2013-09-22T09:57:15Z</time>
      </trkpt>
      <trkpt lat="45.74316" lon="2.78541">
        <ele>873</ele>
        <time>2013-09-22T09:57:32Z</time>
      </trkpt>
      <trkpt lat="45.74348" lon="2.78518">
        <ele>874</ele>
        <time>2013-09-22T09:57:50Z</time>
      </trkpt>
      <trkpt lat="45.74382" lon="2.78494">
        <ele>881</ele>
        <time>2013-09-22T09:58:08Z</time>
      </trkpt>
      <trkpt lat="45.74418" lon="2.78468">
        <ele>882</ele>
        <time>2013-09-22T09:58:26Z</time>
      </trkpt>
      <trkpt lat="45.7445" lon="2.78447">
        <ele>884</ele>
        <time>2013-09-22T09:58:44Z</time>
      </trkpt>
      <trkpt lat="45.74476" lon="2.78434">
        <ele>886</ele>
        <time>2013-09-22T09:59:00Z</time>
      </trkpt>
      <trkpt lat="45.74499" lon="2.78422">
        <ele>890</ele>
        <time>2013-09-22T09:59:15Z</time>
      </trkpt>
      <trkpt lat="45.7452" lon="2.78411">
        <ele>897</ele>
        <time>2013-09-22T09:59:30Z</time>
      </trkpt>
      <trkpt lat="45.74532" lon="2.784">
        <ele>899</ele>
        <time>2013-09-22T09:59:43Z</time>
      </trkpt>
      <trkpt lat="45.74532" lon="2.78401">
        <ele>899</ele>
        <time>2013-09-22T09:59:45Z</time>
      </trkpt>
      <trkpt lat="45.74529" lon="2.78402">
        <ele>899</ele>
        <time>2013-09-22T09:59:47Z</time>
      </trkpt>
      <trkpt lat="45.7451" lon="2.78399">
        <ele>897</ele>
        <time>2013-09-22T10:00:03Z</time>
      </trkpt>
      <trkpt lat="45.74489" lon="2.78386">
        <ele>898</ele>
        <time>2013-09-22T10:00:17Z</time>
      </trkpt>
      <trkpt lat="45.74465" lon="2.78364">
        <ele>900</ele>
        <time>2013-09-22T10:00:34Z</time>
      </trkpt>
      <trkpt lat="45.74446" lon="2.78331">
        <ele>911</ele>
        <time>2013-09-22T10:00:51Z</time>
      </trkpt>
      <trkpt lat="45.74432" lon="2.78305">
        <ele>912</ele>
        <time>2013-09-22T10:01:06Z</time>
      </trkpt>
      <trkpt lat="45.74427" lon="2.7828">
        <ele>914</ele>
        <time>2013-09-22T10:01:18Z</time>
      </trkpt>
      <trkpt lat="45.74425" lon="2.78257">
        <ele>916</ele>
        <time>2013-09-22T10:01:31Z</time>
      </trkpt>
      <trkpt lat="45.74434" lon="2.78254">
        <ele>916</ele>
        <time>2013-09-22T10:01:37Z</time>
      </trkpt>
      <trkpt lat="45.74456" lon="2.78249">
        <ele>927</ele>
        <time>2013-09-22T10:01:51Z</time>
      </trkpt>
      <trkpt lat="45.74463" lon="2.78248">
        <ele>927</ele>
        <time>2013-09-22T10:01:57Z</time>
      </trkpt>
      <trkpt lat="45.74466" lon="2.78248">
        <ele>928</ele>
        <time>2013-09-22T10:02:00Z</time>
      </trkpt>
      <trkpt lat="45.74488" lon="2.78236">
        <ele>929</ele>
        <time>2013-09-22T10:02:16Z</time>
      </trkpt>
      <trkpt lat="45.74506" lon="2.78239">
        <ele>934</ele>
        <time>2013-09-22T10:02:30Z</time>
      </trkpt>
      <trkpt lat="45.74528" lon="2.78242">
        <ele>937</ele>
        <time>2013-09-22T10:02:44Z</time>
      </trkpt>
      <trkpt lat="45.74558" lon="2.78245">
        <ele>939</ele>
        <time>2013-09-22T10:03:01Z</time>
      </trkpt>
      <trkpt lat="45.74582" lon="2.78246">
        <ele>937</ele>
        <time>2013-09-22T10:03:15Z</time>
      </trkpt>
      <trkpt lat="45.74615" lon="2.78252">
        <ele>931</ele>
        <time>2013-09-22T10:03:30Z</time>
      </trkpt>
      <trkpt lat="45.74653" lon="2.78269">
        <ele>933</ele>
        <time>2013-09-22T10:03:45Z</time>
      </trkpt>
      <trkpt lat="45.74689" lon="2.78291">
        <ele>938</ele>
        <time>2013-09-22T10:03:57Z</time>
      </trkpt>
      <trkpt lat="45.74744" lon="2.7835">
        <ele>930</ele>
        <time>2013-09-22T10:04:11Z</time>
      </trkpt>
      <trkpt lat="45.74796" lon="2.7841">
        <ele>938</ele>
        <time>2013-09-22T10:04:26Z</time>
      </trkpt>
      <trkpt lat="45.74845" lon="2.78453">
        <ele>939</ele>
        <time>2013-09-22T10:04:42Z</time>
      </trkpt>
      <trkpt lat="45.74884" lon="2.78486">
        <ele>940</ele>
        <time>2013-09-22T10:04:57Z</time>
      </trkpt>
      <trkpt lat="45.74904" lon="2.785">
        <ele>942</ele>
        <time>2013-09-22T10:05:10Z</time>
      </trkpt>
      <trkpt lat="45.74929" lon="2.78516">
        <ele>941</ele>
        <time>2013-09-22T10:05:22Z</time>
      </trkpt>
      <trkpt lat="45.74948" lon="2.78546">
        <ele>939</ele>
        <time>2013-09-22T10:05:31Z</time>
      </trkpt>
      <trkpt lat="45.74976" lon="2.78591">
        <ele>930</ele>
        <time>2013-09-22T10:05:42Z</time>
      </trkpt>
      <trkpt lat="45.75004" lon="2.7862">
        <ele>935</ele>
        <time>2013-09-22T10:05:48Z</time>
      </trkpt>
      <trkpt lat="45.75011" lon="2.78624">
        <ele>934</ele>
        <time>2013-09-22T10:05:50Z</time>
      </trkpt>
      <trkpt lat="45.7504" lon="2.78637">
        <ele>934</ele>
        <time>2013-09-22T10:05:54Z</time>
      </trkpt>
      <trkpt lat="45.75067" lon="2.78653">
        <ele>933</ele>
        <time>2013-09-22T10:05:57Z</time>
      </trkpt>
      <trkpt lat="45.75132" lon="2.78659">
        <ele>930</ele>
        <time>2013-09-22T10:06:06Z</time>
      </trkpt>
      <trkpt lat="45.75159" lon="2.78659">
        <ele>925</ele>
        <time>2013-09-22T10:06:10Z</time>
      </trkpt>
      <trkpt lat="45.75164" lon="2.78658">
        <ele>924</ele>
        <time>2013-09-22T10:06:11Z</time>
      </trkpt>
      <trkpt lat="45.75191" lon="2.78655">
        <ele>920</ele>
        <time>2013-09-22T10:06:15Z</time>
      </trkpt>
      <trkpt lat="45.75207" lon="2.78654">
        <ele>918</ele>
        <time>2013-09-22T10:06:18Z</time>
      </trkpt>
      <trkpt lat="45.75219" lon="2.78654">
        <ele>917</ele>
        <time>2013-09-22T10:06:21Z</time>
      </trkpt>
      <trkpt lat="45.75227" lon="2.78653">
        <ele>915</ele>
        <time>2013-09-22T10:06:23Z</time>
      </trkpt>
      <trkpt lat="45.75269" lon="2.78617">
        <ele>909</ele>
        <time>2013-09-22T10:06:33Z</time>
      </trkpt>
      <trkpt lat="45.75333" lon="2.78556">
        <ele>914</ele>
        <time>2013-09-22T10:06:47Z</time>
      </trkpt>
      <trkpt lat="45.75382" lon="2.78494">
        <ele>914</ele>
        <time>2013-09-22T10:06:58Z</time>
      </trkpt>
      <trkpt lat="45.75427" lon="2.78434">
        <ele>910</ele>
        <time>2013-09-22T10:07:11Z</time>
      </trkpt>
      <trkpt lat="45.75459" lon="2.78391">
        <ele>917</ele>
        <time>2013-09-22T10:07:25Z</time>
      </trkpt>
      <trkpt lat="45.75493" lon="2.78352">
        <ele>917</ele>
        <time>2013-09-22T10:07:43Z</time>
      </trkpt>
      <trkpt lat="45.75525" lon="2.78303">
        <ele>920</ele>
        <time>2013-09-22T10:07:59Z</time>
      </trkpt>
      <trkpt lat="45.75554" lon="2.78263">
        <ele>921</ele>
        <time>2013-09-22T10:08:15Z</time>
      </trkpt>
      <trkpt lat="45.75584" lon="2.78244">
        <ele>924</ele>
        <time>2013-09-22T10:08:30Z</time>
      </trkpt>
      <trkpt lat="45.7561" lon="2.78239">
        <ele>925</ele>
        <time>2013-09-22T10:08:45Z</time>
      </trkpt>
      <trkpt lat="45.75648" lon="2.78231">
        <ele>926</ele>
        <time>2013-09-22T10:09:00Z</time>
      </trkpt>
      <trkpt lat="45.75702" lon="2.78202">
        <ele>928</ele>
        <time>2013-09-22T10:09:15Z</time>
      </trkpt>
      <trkpt lat="45.75748" lon="2.78174">
        <ele>929</ele>
        <time>2013-09-22T10:09:31Z</time>
      </trkpt>
      <trkpt lat="45.75807" lon="2.78123">
        <ele>931</ele>
        <time>2013-09-22T10:09:49Z</time>
      </trkpt>
      <trkpt lat="45.75814" lon="2.78113">
        <ele>931</ele>
        <time>2013-09-22T10:09:51Z</time>
      </trkpt>
      <trkpt lat="45.75851" lon="2.78005">
        <ele>929</ele>
        <time>2013-09-22T10:10:08Z</time>
      </trkpt>
      <trkpt lat="45.75856" lon="2.77986">
        <ele>928</ele>
        <time>2013-09-22T10:10:11Z</time>
      </trkpt>
      <trkpt lat="45.75876" lon="2.77925">
        <ele>927</ele>
        <time>2013-09-22T10:10:19Z</time>
      </trkpt>
      <trkpt lat="45.75915" lon="2.77857">
        <ele>926</ele>
        <time>2013-09-22T10:10:27Z</time>
      </trkpt>
      <trkpt lat="45.75974" lon="2.77755">
        <ele>924</ele>
        <time>2013-09-22T10:10:40Z</time>
      </trkpt>
      <trkpt lat="45.75989" lon="2.77651">
        <ele>925</ele>
        <time>2013-09-22T10:10:52Z</time>
      </trkpt>
      <trkpt lat="45.7599" lon="2.77619">
        <ele>926</ele>
        <time>2013-09-22T10:10:55Z</time>
      </trkpt>
      <trkpt lat="45.76015" lon="2.77532">
        <ele>921</ele>
        <time>2013-09-22T10:11:04Z</time>
      </trkpt>
      <trkpt lat="45.76038" lon="2.77446">
        <ele>918</ele>
        <time>2013-09-22T10:11:11Z</time>
      </trkpt>
      <trkpt lat="45.76062" lon="2.77327">
        <ele>914</ele>
        <time>2013-09-22T10:11:20Z</time>
      </trkpt>
      <trkpt lat="45.76111" lon="2.77176">
        <ele>911</ele>
        <time>2013-09-22T10:11:32Z</time>
      </trkpt>
      <trkpt lat="45.7616" lon="2.77045">
        <ele>910</ele>
        <time>2013-09-22T10:11:45Z</time>
      </trkpt>
      <trkpt lat="45.76163" lon="2.77035">
        <ele>910</ele>
        <time>2013-09-22T10:11:46Z</time>
      </trkpt>
      <trkpt lat="45.76166" lon="2.77025">
        <ele>910</ele>
        <time>2013-09-22T10:11:47Z</time>
      </trkpt>
      <trkpt lat="45.76168" lon="2.77006">
        <ele>906</ele>
        <time>2013-09-22T10:11:49Z</time>
      </trkpt>
      <trkpt lat="45.76166" lon="2.76993">
        <ele>909</ele>
        <time>2013-09-22T10:11:51Z</time>
      </trkpt>
      <trkpt lat="45.76172" lon="2.76948">
        <ele>904</ele>
        <time>2013-09-22T10:12:01Z</time>
      </trkpt>
      <trkpt lat="45.76194" lon="2.76837">
        <ele>903</ele>
        <time>2013-09-22T10:12:15Z</time>
      </trkpt>
      <trkpt lat="45.76223" lon="2.76705">
        <ele>901</ele>
        <time>2013-09-22T10:12:29Z</time>
      </trkpt>
      <trkpt lat="45.76258" lon="2.76618">
        <ele>893</ele>
        <time>2013-09-22T10:12:38Z</time>
      </trkpt>
      <trkpt lat="45.76278" lon="2.76573">
        <ele>892</ele>
        <time>2013-09-22T10:12:42Z</time>
      </trkpt>
      <trkpt lat="45.76289" lon="2.76549">
        <ele>891</ele>
        <time>2013-09-22T10:12:44Z</time>
      </trkpt>
      <trkpt lat="45.76309" lon="2.765">
        <ele>890</ele>
        <time>2013-09-22T10:12:48Z</time>
      </trkpt>
      <trkpt lat="45.76315" lon="2.76488">
        <ele>889</ele>
        <time>2013-09-22T10:12:49Z</time>
      </trkpt>
      <trkpt lat="45.76365" lon="2.76436">
        <ele>885</ele>
        <time>2013-09-22T10:12:56Z</time>
      </trkpt>
      <trkpt lat="45.76389" lon="2.76417">
        <ele>883</ele>
        <time>2013-09-22T10:12:59Z</time>
      </trkpt>
      <trkpt lat="45.76441" lon="2.76375">
        <ele>874</ele>
        <time>2013-09-22T10:13:05Z</time>
      </trkpt>
      <trkpt lat="45.76464" lon="2.76355">
        <ele>872</ele>
        <time>2013-09-22T10:13:08Z</time>
      </trkpt>
      <trkpt lat="45.76471" lon="2.7635">
        <ele>871</ele>
        <time>2013-09-22T10:13:09Z</time>
      </trkpt>
      <trkpt lat="45.76497" lon="2.7635">
        <ele>869</ele>
        <time>2013-09-22T10:13:13Z</time>
      </trkpt>
      <trkpt lat="45.76554" lon="2.76393">
        <ele>863</ele>
        <time>2013-09-22T10:13:22Z</time>
      </trkpt>
      <trkpt lat="45.76572" lon="2.76416">
        <ele>862</ele>
        <time>2013-09-22T10:13:25Z</time>
      </trkpt>
      <trkpt lat="45.76582" lon="2.7643">
        <ele>863</ele>
        <time>2013-09-22T10:13:27Z</time>
      </trkpt>
      <trkpt lat="45.76598" lon="2.76441">
        <ele>857</ele>
        <time>2013-09-22T10:13:30Z</time>
      </trkpt>
      <trkpt lat="45.76636" lon="2.76453">
        <ele>855</ele>
        <time>2013-09-22T10:13:35Z</time>
      </trkpt>
      <trkpt lat="45.76644" lon="2.76456">
        <ele>854</ele>
        <time>2013-09-22T10:13:36Z</time>
      </trkpt>
      <trkpt lat="45.76659" lon="2.76463">
        <ele>854</ele>
        <time>2013-09-22T10:13:38Z</time>
      </trkpt>
      <trkpt lat="45.76674" lon="2.76454">
        <ele>849</ele>
        <time>2013-09-22T10:13:44Z</time>
      </trkpt>
      <trkpt lat="45.76639" lon="2.7641">
        <ele>852</ele>
        <time>2013-09-22T10:13:56Z</time>
      </trkpt>
      <trkpt lat="45.76595" lon="2.76311">
        <ele>851</ele>
        <time>2013-09-22T10:14:12Z</time>
      </trkpt>
      <trkpt lat="45.7656" lon="2.76211">
        <ele>852</ele>
        <time>2013-09-22T10:14:26Z</time>
      </trkpt>
      <trkpt lat="45.76544" lon="2.76097">
        <ele>850</ele>
        <time>2013-09-22T10:14:40Z</time>
      </trkpt>
      <trkpt lat="45.76561" lon="2.75972">
        <ele>849</ele>
        <time>2013-09-22T10:14:56Z</time>
      </trkpt>
      <trkpt lat="45.76564" lon="2.75946">
        <ele>849</ele>
        <time>2013-09-22T10:15:00Z</time>
      </trkpt>
      <trkpt lat="45.7658" lon="2.75885">
        <ele>848</ele>
        <time>2013-09-22T10:15:10Z</time>
      </trkpt>
      <trkpt lat="45.76582" lon="2.75776">
        <ele>847</ele>
        <time>2013-09-22T10:15:24Z</time>
      </trkpt>
      <trkpt lat="45.76577" lon="2.75732">
        <ele>847</ele>
        <time>2013-09-22T10:15:30Z</time>
      </trkpt>
      <trkpt lat="45.76589" lon="2.75696">
        <ele>847</ele>
        <time>2013-09-22T10:15:36Z</time>
      </trkpt>
      <trkpt lat="45.76617" lon="2.75714">
        <ele>847</ele>
        <time>2013-09-22T10:15:44Z</time>
      </trkpt>
      <trkpt lat="45.76652" lon="2.75749">
        <ele>847</ele>
        <time>2013-09-22T10:15:56Z</time>
      </trkpt>
      <trkpt lat="45.76659" lon="2.75745">
        <ele>847</ele>
        <time>2013-09-22T10:16:00Z</time>
      </trkpt>
      <trkpt lat="45.76664" lon="2.75707">
        <ele>847</ele>
        <time>2013-09-22T10:16:14Z</time>
      </trkpt>
      <trkpt lat="45.76668" lon="2.75684">
        <ele>847</ele>
        <time>2013-09-22T10:16:26Z</time>
      </trkpt>
      <trkpt lat="45.76667" lon="2.75675">
        <ele>847</ele>
        <time>2013-09-22T10:16:40Z</time>
      </trkpt>
      <trkpt lat="45.7667" lon="2.75668">
        <ele>847</ele>
        <time>2013-09-22T10:16:52Z</time>
      </trkpt>
      <trkpt lat="45.7667" lon="2.75668">
        <ele>847</ele>
        <time>2013-09-22T10:17:11Z</time>
      </trkpt>
      <trkpt lat="45.7667" lon="2.7567">
        <ele>847</ele>
        <time>2013-09-22T10:17:25Z</time>
      </trkpt>
      <trkpt lat="45.76669" lon="2.75682">
        <ele>847</ele>
        <time>2013-09-22T10:17:37Z</time>
      </trkpt>
      <trkpt lat="45.76664" lon="2.757">
        <ele>847</ele>
        <time>2013-09-22T10:17:52Z</time>
      </trkpt>
      <trkpt lat="45.76661" lon="2.75708">
        <ele>847</ele>
        <time>2013-09-22T10:18:00Z</time>
      </trkpt>
      <trkpt lat="45.76651" lon="2.75718">
        <ele>847</ele>
        <time>2013-09-22T10:18:16Z</time>
      </trkpt>
      <trkpt lat="45.76647" lon="2.75717">
        <ele>847</ele>
        <time>2013-09-22T10:18:31Z</time>
      </trkpt>
      <trkpt lat="45.76647" lon="2.75717">
        <ele>847</ele>
        <time>2013-09-22T10:18:56Z</time>
      </trkpt>
      <trkpt lat="45.76647" lon="2.75717">
        <ele>847</ele>
        <time>2013-09-22T10:19:18Z</time>
      </trkpt>
      <trkpt lat="45.76646" lon="2.75713">
        <ele>847</ele>
        <time>2013-09-22T10:19:44Z</time>
      </trkpt>
      <trkpt lat="45.76646" lon="2.75713">
        <ele>847</ele>
        <time>2013-09-22T10:20:12Z</time>
      </trkpt>
      <trkpt lat="45.76646" lon="2.75713">
        <ele>847</ele>
        <time>2013-09-22T10:20:37Z</time>
      </trkpt>
      <trkpt lat="45.76646" lon="2.75709">
        <ele>847</ele>
        <time>2013-09-22T10:20:55Z</time>
      </trkpt>
      <trkpt lat="45.76643" lon="2.75701">
        <ele>847</ele>
        <time>2013-09-22T10:21:09Z</time>
      </trkpt>
      <trkpt lat="45.76639" lon="2.75682">
        <ele>847</ele>
        <time>2013-09-22T10:21:25Z</time>
      </trkpt>
      <trkpt lat="45.76642" lon="2.75673">
        <ele>847</ele>
        <time>2013-09-22T10:21:39Z</time>
      </trkpt>
      <trkpt lat="45.76643" lon="2.75662">
        <ele>847</ele>
        <time>2013-09-22T10:21:52Z</time>
      </trkpt>
      <trkpt lat="45.76642" lon="2.75659">
        <ele>847</ele>
        <time>2013-09-22T10:21:59Z</time>
      </trkpt>
      <trkpt lat="45.76642" lon="2.75656">
        <ele>847</ele>
        <time>2013-09-22T10:22:13Z</time>
      </trkpt>
      <trkpt lat="45.7664" lon="2.75654">
        <ele>847</ele>
        <time>2013-09-22T10:22:25Z</time>
      </trkpt>
      <trkpt lat="45.76639" lon="2.75654">
        <ele>847</ele>
        <time>2013-09-22T10:23:05Z</time>
      </trkpt>
      <trkpt lat="45.76638" lon="2.75653">
        <ele>847</ele>
        <time>2013-09-22T10:23:45Z</time>
      </trkpt>
      <trkpt lat="45.76638" lon="2.75653">
        <ele>847</ele>
        <time>2013-09-22T10:24:26Z</time>
      </trkpt>
      <trkpt lat="45.76638" lon="2.75653">
        <ele>847</ele>
        <time>2013-09-22T10:24:49Z</time>
      </trkpt>
      <trkpt lat="45.76639" lon="2.75653">
        <ele>847</ele>
        <time>2013-09-22T10:25:25Z</time>
      </trkpt>
      <trkpt lat="45.76638" lon="2.75653">
        <ele>847</ele>
        <time>2013-09-22T10:25:58Z</time>
      </trkpt>
      <trkpt lat="45.76638" lon="2.75653">
        <ele>847</ele>
        <time>2013-09-22T10:26:30Z</time>
      </trkpt>
      <trkpt lat="45.76638" lon="2.75653">
        <ele>847</ele>
        <time>2013-09-22T10:27:05Z</time>
      </trkpt>
      <trkpt lat="45.76638" lon="2.75652">
        <ele>847</ele>
        <time>2013-09-22T10:27:25Z</time>
      </trkpt>
      <trkpt lat="45.76638" lon="2.75652">
        <ele>847</ele>
        <time>2013-09-22T10:28:03Z</time>
      </trkpt>
      <trkpt lat="45.76638" lon="2.75652">
        <ele>847</ele>
        <time>2013-09-22T10:28:36Z</time>
      </trkpt>
      <trkpt lat="45.76638" lon="2.75652">
        <ele>847</ele>
        <time>2013-09-22T10:29:10Z</time>
      </trkpt>
      <trkpt lat="45.76638" lon="2.75652">
        <ele>847</ele>
        <time>2013-09-22T10:29:54Z</time>
      </trkpt>
      <trkpt lat="45.76638" lon="2.75652">
        <ele>847</ele>
        <time>2013-09-22T10:30:34Z</time>
      </trkpt>
      <trkpt lat="45.76638" lon="2.75651">
        <ele>847</ele>
        <time>2013-09-22T10:31:19Z</time>
      </trkpt>
      <trkpt lat="45.76638" lon="2.75652">
        <ele>847</ele>
        <time>2013-09-22T10:31:59Z</time>
      </trkpt>
      <trkpt lat="45.76638" lon="2.75652">
        <ele>847</ele>
        <time>2013-09-22T10:32:40Z</time>
      </trkpt>
      <trkpt lat="45.76638" lon="2.75652">
        <ele>847</ele>
        <time>2013-09-22T10:33:19Z</time>
      </trkpt>
      <trkpt lat="45.76638" lon="2.75652">
        <ele>847</ele>
        <time>2013-09-22T10:33:47Z</time>
      </trkpt>
      <trkpt lat="45.76638" lon="2.75652">
        <ele>847</ele>
        <time>2013-09-22T10:34:31Z</time>
      </trkpt>
      <trkpt lat="45.76638" lon="2.75652">
        <ele>847</ele>
        <time>2013-09-22T10:35:08Z</time>
      </trkpt>
      <trkpt lat="45.76638" lon="2.75651">
        <ele>847</ele>
        <time>2013-09-22T10:35:46Z</time>
      </trkpt>
      <trkpt lat="45.76638" lon="2.75652">
        <ele>847</ele>
        <time>2013-09-22T10:36:28Z</time>
      </trkpt>
      <trkpt lat="45.76638" lon="2.75652">
        <ele>847</ele>
        <time>2013-09-22T10:37:10Z</time>
      </trkpt>
      <trkpt lat="45.76638" lon="2.75652">
        <ele>847</ele>
        <time>2013-09-22T10:37:40Z</time>
      </trkpt>
      <trkpt lat="45.76638" lon="2.75652">
        <ele>847</ele>
        <time>2013-09-22T10:38:16Z</time>
      </trkpt>
      <trkpt lat="45.76638" lon="2.75652">
        <ele>847</ele>
        <time>2013-09-22T10:38:54Z</time>
      </trkpt>
      <trkpt lat="45.76638" lon="2.75652">
        <ele>847</ele>
        <time>2013-09-22T10:39:34Z</time>
      </trkpt>
      <trkpt lat="45.76638" lon="2.75652">
        <ele>847</ele>
        <time>2013-09-22T10:40:08Z</time>
      </trkpt>
      <trkpt lat="45.76637" lon="2.75652">
        <ele>847</ele>
        <time>2013-09-22T10:40:43Z</time>
      </trkpt>
      <trkpt lat="45.76637" lon="2.75652">
        <ele>847</ele>
        <time>2013-09-22T10:41:19Z</time>
      </trkpt>
      <trkpt lat="45.76637" lon="2.75652">
        <ele>847</ele>
        <time>2013-09-22T10:41:59Z</time>
      </trkpt>
      <trkpt lat="45.76637" lon="2.75652">
        <ele>847</ele>
        <time>2013-09-22T10:42:38Z</time>
      </trkpt>
      <trkpt lat="45.76637" lon="2.75652">
        <ele>847</ele>
        <time>2013-09-22T10:42:56Z</time>
      </trkpt>
      <trkpt lat="45.76637" lon="2.75652">
        <ele>847</ele>
        <time>2013-09-22T10:42:57Z</time>
      </trkpt>
      <trkpt lat="45.76637" lon="2.75652">
        <ele>847</ele>
        <time>2013-09-22T10:43:24Z</time>
      </trkpt>
      <trkpt lat="45.76637" lon="2.75652">
        <ele>847</ele>
        <time>2013-09-22T10:44:02Z</time>
      </trkpt>
      <trkpt lat="45.76637" lon="2.75652">
        <ele>847</ele>
        <time>2013-09-22T10:44:19Z</time>
      </trkpt>
      <trkpt lat="45.76638" lon="2.75652">
        <ele>847</ele>
        <time>2013-09-22T10:45:03Z</time>
      </trkpt>
      <trkpt lat="45.76637" lon="2.75652">
        <ele>847</ele>
        <time>2013-09-22T10:45:46Z</time>
      </trkpt>
      <trkpt lat="45.76637" lon="2.75653">
        <ele>847</ele>
        <time>2013-09-22T10:46:30Z</time>
      </trkpt>
      <trkpt lat="45.76637" lon="2.75653">
        <ele>847</ele>
        <time>2013-09-22T10:47:12Z</time>
      </trkpt>
      <trkpt lat="45.76637" lon="2.75653">
        <ele>847</ele>
        <time>2013-09-22T10:47:53Z</time>
      </trkpt>
      <trkpt lat="45.76637" lon="2.75653">
        <ele>847</ele>
        <time>2013-09-22T10:48:37Z</time>
      </trkpt>
      <trkpt lat="45.76637" lon="2.75653">
        <ele>847</ele>
        <time>2013-09-22T10:49:22Z</time>
      </trkpt>
      <trkpt lat="45.76637" lon="2.75652">
        <ele>847</ele>
        <time>2013-09-22T10:50:00Z</time>
      </trkpt>
      <trkpt lat="45.76637" lon="2.75653">
        <ele>847</ele>
        <time>2013-09-22T10:50:46Z</time>
      </trkpt>
      <trkpt lat="45.76637" lon="2.75654">
        <ele>847</ele>
        <time>2013-09-22T10:51:29Z</time>
      </trkpt>
      <trkpt lat="45.76637" lon="2.75653">
        <ele>847</ele>
        <time>2013-09-22T10:52:12Z</time>
      </trkpt>
      <trkpt lat="45.76637" lon="2.75653">
        <ele>847</ele>
        <time>2013-09-22T10:52:55Z</time>
      </trkpt>
      <trkpt lat="45.76637" lon="2.75653">
        <ele>847</ele>
        <time>2013-09-22T10:53:39Z</time>
      </trkpt>
      <trkpt lat="45.76637" lon="2.75653">
        <ele>847</ele>
        <time>2013-09-22T10:54:19Z</time>
      </trkpt>
      <trkpt lat="45.76637" lon="2.75653">
        <ele>847</ele>
        <time>2013-09-22T10:55:05Z</time>
      </trkpt>
      <trkpt lat="45.76637" lon="2.75653">
        <ele>847</ele>
        <time>2013-09-22T10:55:47Z</time>
      </trkpt>
      <trkpt lat="45.76637" lon="2.75653">
        <ele>847</ele>
        <time>2013-09-22T10:56:31Z</time>
      </trkpt>
      <trkpt lat="45.76637" lon="2.75653">
        <ele>847</ele>
        <time>2013-09-22T10:57:15Z</time>
      </trkpt>
      <trkpt lat="45.76637" lon="2.75653">
        <ele>847</ele>
        <time>2013-09-22T10:57:57Z</time>
      </trkpt>
      <trkpt lat="45.76637" lon="2.75653">
        <ele>847</ele>
        <time>2013-09-22T10:58:42Z</time>
      </trkpt>
      <trkpt lat="45.76637" lon="2.75653">
        <ele>847</ele>
        <time>2013-09-22T10:59:19Z</time>
      </trkpt>
      <trkpt lat="45.76637" lon="2.75653">
        <ele>847</ele>
        <time>2013-09-22T10:59:57Z</time>
      </trkpt>
      <trkpt lat="45.76637" lon="2.75653">
        <ele>847</ele>
        <time>2013-09-22T11:00:34Z</time>
      </trkpt>
      <trkpt lat="45.76637" lon="2.75653">
        <ele>847</ele>
        <time>2013-09-22T11:01:10Z</time>
      </trkpt>
      <trkpt lat="45.76637" lon="2.75653">
        <ele>847</ele>
        <time>2013-09-22T11:01:41Z</time>
      </trkpt>
      <trkpt lat="45.76636" lon="2.75653">
        <ele>847</ele>
        <time>2013-09-22T11:02:17Z</time>
      </trkpt>
      <trkpt lat="45.76637" lon="2.75653">
        <ele>847</ele>
        <time>2013-09-22T11:02:54Z</time>
      </trkpt>
      <trkpt lat="45.76636" lon="2.75653">
        <ele>847</ele>
        <time>2013-09-22T11:03:33Z</time>
      </trkpt>
      <trkpt lat="45.76637" lon="2.75653">
        <ele>847</ele>
        <time>2013-09-22T11:04:03Z</time>
      </trkpt>
      <trkpt lat="45.76637" lon="2.75653">
        <ele>847</ele>
        <time>2013-09-22T11:04:36Z</time>
      </trkpt>
      <trkpt lat="45.76637" lon="2.75653">
        <ele>847</ele>
        <time>2013-09-22T11:05:03Z</time>
      </trkpt>
      <trkpt lat="45.76638" lon="2.75654">
        <ele>847</ele>
        <time>2013-09-22T11:05:20Z</time>
      </trkpt>
      <trkpt lat="45.76641" lon="2.75654">
        <ele>847</ele>
        <time>2013-09-22T11:05:33Z</time>
      </trkpt>
      <trkpt lat="45.76642" lon="2.75654">
        <ele>847</ele>
        <time>2013-09-22T11:05:47Z</time>
      </trkpt>
      <trkpt lat="45.76642" lon="2.75666">
        <ele>847</ele>
        <time>2013-09-22T11:05:59Z</time>
      </trkpt>
      <trkpt lat="45.76639" lon="2.75671">
        <ele>847</ele>
        <time>2013-09-22T11:06:04Z</time>
      </trkpt>
      <trkpt lat="45.7664" lon="2.75683">
        <ele>847</ele>
        <time>2013-09-22T11:06:19Z</time>
      </trkpt>
      <trkpt lat="45.76641" lon="2.75685">
        <ele>847</ele>
        <time>2013-09-22T11:06:30Z</time>
      </trkpt>
      <trkpt lat="45.76648" lon="2.75684">
        <ele>847</ele>
        <time>2013-09-22T11:06:47Z</time>
      </trkpt>
      <trkpt lat="45.76651" lon="2.75683">
        <ele>847</ele>
        <time>2013-09-22T11:07:03Z</time>
      </trkpt>
      <trkpt lat="45.76657" lon="2.7569">
        <ele>847</ele>
        <time>2013-09-22T11:07:22Z</time>
      </trkpt>
      <trkpt lat="45.76657" lon="2.75691">
        <ele>847</ele>
        <time>2013-09-22T11:07:37Z</time>
      </trkpt>
      <trkpt lat="45.76658" lon="2.75691">
        <ele>847</ele>
        <time>2013-09-22T11:07:54Z</time>
      </trkpt>
      <trkpt lat="45.76656" lon="2.75695">
        <ele>847</ele>
        <time>2013-09-22T11:08:12Z</time>
      </trkpt>
      <trkpt lat="45.76656" lon="2.75695">
        <ele>847</ele>
        <time>2013-09-22T11:08:36Z</time>
      </trkpt>
      <trkpt lat="45.76656" lon="2.75696">
        <ele>847</ele>
        <time>2013-09-22T11:08:51Z</time>
      </trkpt>
      <trkpt lat="45.76658" lon="2.75697">
        <ele>847</ele>
        <time>2013-09-22T11:09:09Z</time>
      </trkpt>
      <trkpt lat="45.76658" lon="2.75697">
        <ele>847</ele>
        <time>2013-09-22T11:09:26Z</time>
      </trkpt>
      <trkpt lat="45.76658" lon="2.75697">
        <ele>847</ele>
        <time>2013-09-22T11:09:50Z</time>
      </trkpt>
      <trkpt lat="45.76658" lon="2.75696">
        <ele>847</ele>
        <time>2013-09-22T11:10:08Z</time>
      </trkpt>
      <trkpt lat="45.76658" lon="2.75696">
        <ele>847</ele>
        <time>2013-09-22T11:10:30Z</time>
      </trkpt>
      <trkpt lat="45.76658" lon="2.75697">
        <ele>847</ele>
        <time>2013-09-22T11:10:50Z</time>
      </trkpt>
      <trkpt lat="45.76658" lon="2.75697">
        <ele>847</ele>
        <time>2013-09-22T11:11:14Z</time>
      </trkpt>
      <trkpt lat="45.76656" lon="2.75696">
        <ele>847</ele>
        <time>2013-09-22T11:11:29Z</time>
      </trkpt>
      <trkpt lat="45.76658" lon="2.75695">
        <ele>847</ele>
        <time>2013-09-22T11:11:47Z</time>
      </trkpt>
      <trkpt lat="45.76658" lon="2.75695">
        <ele>847</ele>
        <time>2013-09-22T11:12:11Z</time>
      </trkpt>
      <trkpt lat="45.76658" lon="2.75696">
        <ele>847</ele>
        <time>2013-09-22T11:12:34Z</time>
      </trkpt>
      <trkpt lat="45.76658" lon="2.75696">
        <ele>847</ele>
        <time>2013-09-22T11:12:55Z</time>
      </trkpt>
      <trkpt lat="45.76658" lon="2.75696">
        <ele>847</ele>
        <time>2013-09-22T11:13:15Z</time>
      </trkpt>
      <trkpt lat="45.76658" lon="2.75696">
        <ele>847</ele>
        <time>2013-09-22T11:13:41Z</time>
      </trkpt>
      <trkpt lat="45.76658" lon="2.75696">
        <ele>847</ele>
        <time>2013-09-22T11:14:07Z</time>
      </trkpt>
      <trkpt lat="45.76664" lon="2.75687">
        <ele>847</ele>
        <time>2013-09-22T11:14:21Z</time>
      </trkpt>
      <trkpt lat="45.76666" lon="2.7568">
        <ele>847</ele>
        <time>2013-09-22T11:14:34Z</time>
      </trkpt>
      <trkpt lat="45.76665" lon="2.75679">
        <ele>847</ele>
        <time>2013-09-22T11:14:45Z</time>
      </trkpt>
      <trkpt lat="45.76665" lon="2.75677">
        <ele>847</ele>
        <time>2013-09-22T11:15:00Z</time>
      </trkpt>
      <trkpt lat="45.76665" lon="2.75673">
        <ele>847</ele>
        <time>2013-09-22T11:15:17Z</time>
      </trkpt>
      <trkpt lat="45.76665" lon="2.75672">
        <ele>847</ele>
        <time>2013-09-22T11:15:36Z</time>
      </trkpt>
      <trkpt lat="45.76665" lon="2.75671">
        <ele>847</ele>
        <time>2013-09-22T11:15:52Z</time>
      </trkpt>
      <trkpt lat="45.76666" lon="2.75668">
        <ele>847</ele>
        <time>2013-09-22T11:16:20Z</time>
      </trkpt>
      <trkpt lat="45.76667" lon="2.75672">
        <ele>847</ele>
        <time>2013-09-22T11:16:38Z</time>
      </trkpt>
      <trkpt lat="45.76667" lon="2.75681">
        <ele>847</ele>
        <time>2013-09-22T11:16:51Z</time>
      </trkpt>
      <trkpt lat="45.76666" lon="2.75697">
        <ele>847</ele>
        <time>2013-09-22T11:17:07Z</time>
      </trkpt>
      <trkpt lat="45.76667" lon="2.75703">
        <ele>847</ele>
        <time>2013-09-22T11:17:22Z</time>
      </trkpt>
      <trkpt lat="45.76661" lon="2.75719">
        <ele>847</ele>
        <time>2013-09-22T11:17:37Z</time>
      </trkpt>
      <trkpt lat="45.76662" lon="2.75739">
        <ele>847</ele>
        <time>2013-09-22T11:17:49Z</time>
      </trkpt>
      <trkpt lat="45.76677" lon="2.75777">
        <ele>847</ele>
        <time>2013-09-22T11:18:02Z</time>
      </trkpt>
      <trkpt lat="45.76707" lon="2.75817">
        <ele>847</ele>
        <time>2013-09-22T11:18:17Z</time>
      </trkpt>
      <trkpt lat="45.76709" lon="2.75833">
        <ele>847</ele>
        <time>2013-09-22T11:18:21Z</time>
      </trkpt>
      <trkpt lat="45.76703" lon="2.7584">
        <ele>847</ele>
        <time>2013-09-22T11:18:35Z</time>
      </trkpt>
      <trkpt lat="45.76704" lon="2.75839">
        <ele>847</ele>
        <time>2013-09-22T11:18:48Z</time>
      </trkpt>
      <trkpt lat="45.76704" lon="2.75839">
        <ele>847</ele>
        <time>2013-09-22T11:19:00Z</time>
      </trkpt>
      <trkpt lat="45.76704" lon="2.75839">
        <ele>847</ele>
        <time>2013-09-22T11:19:17Z</time>
      </trkpt>
      <trkpt lat="45.76701" lon="2.75837">
        <ele>847</ele>
        <time>2013-09-22T11:19:33Z</time>
      </trkpt>
      <trkpt lat="45.76701" lon="2.75837">
        <ele>847</ele>
        <time>2013-09-22T11:19:49Z</time>
      </trkpt>
      <trkpt lat="45.76701" lon="2.75837">
        <ele>847</ele>
        <time>2013-09-22T11:20:11Z</time>
      </trkpt>
      <trkpt lat="45.76701" lon="2.75837">
        <ele>847</ele>
        <time>2013-09-22T11:20:26Z</time>
      </trkpt>
      <trkpt lat="45.767" lon="2.75837">
        <ele>847</ele>
        <time>2013-09-22T11:20:46Z</time>
      </trkpt>
      <trkpt lat="45.767" lon="2.75836">
        <ele>847</ele>
        <time>2013-09-22T11:21:33Z</time>
      </trkpt>
      <trkpt lat="45.767" lon="2.75836">
        <ele>847</ele>
        <time>2013-09-22T11:22:14Z</time>
      </trkpt>
      <trkpt lat="45.76699" lon="2.75836">
        <ele>847</ele>
        <time>2013-09-22T11:22:53Z</time>
      </trkpt>
      <trkpt lat="45.76698" lon="2.7584">
        <ele>847</ele>
        <time>2013-09-22T11:22:57Z</time>
      </trkpt>
      <trkpt lat="45.76697" lon="2.75843">
        <ele>847</ele>
        <time>2013-09-22T11:23:15Z</time>
      </trkpt>
      <trkpt lat="45.76697" lon="2.75843">
        <ele>847</ele>
        <time>2013-09-22T11:23:43Z</time>
      </trkpt>
      <trkpt lat="45.76697" lon="2.75843">
        <ele>847</ele>
        <time>2013-09-22T11:24:07Z</time>
      </trkpt>
      <trkpt lat="45.76696" lon="2.7584">
        <ele>847</ele>
        <time>2013-09-22T11:24:20Z</time>
      </trkpt>
      <trkpt lat="45.76696" lon="2.7584">
        <ele>847</ele>
        <time>2013-09-22T11:24:49Z</time>
      </trkpt>
      <trkpt lat="45.76697" lon="2.75838">
        <ele>847</ele>
        <time>2013-09-22T11:25:18Z</time>
      </trkpt>
      <trkpt lat="45.76698" lon="2.75837">
        <ele>847</ele>
        <time>2013-09-22T11:25:39Z</time>
      </trkpt>
      <trkpt lat="45.76698" lon="2.75837">
        <ele>847</ele>
        <time>2013-09-22T11:25:52Z</time>
      </trkpt>
      <trkpt lat="45.76706" lon="2.7586">
        <ele>847</ele>
        <time>2013-09-22T11:26:02Z</time>
      </trkpt>
      <trkpt lat="45.76708" lon="2.7593">
        <ele>848</ele>
        <time>2013-09-22T11:26:17Z</time>
      </trkpt>
      <trkpt lat="45.76728" lon="2.7598">
        <ele>849</ele>
        <time>2013-09-22T11:26:29Z</time>
      </trkpt>
      <trkpt lat="45.76747" lon="2.76001">
        <ele>850</ele>
        <time>2013-09-22T11:26:37Z</time>
      </trkpt>
      <trkpt lat="45.76792" lon="2.76039">
        <ele>851</ele>
        <time>2013-09-22T11:26:55Z</time>
      </trkpt>
      <trkpt lat="45.76802" lon="2.76047">
        <ele>852</ele>
        <time>2013-09-22T11:26:59Z</time>
      </trkpt>
      <trkpt lat="45.76831" lon="2.7609">
        <ele>853</ele>
        <time>2013-09-22T11:27:14Z</time>
      </trkpt>
      <trkpt lat="45.76851" lon="2.76154">
        <ele>854</ele>
        <time>2013-09-22T11:27:33Z</time>
      </trkpt>
      <trkpt lat="45.76868" lon="2.76211">
        <ele>857</ele>
        <time>2013-09-22T11:27:49Z</time>
      </trkpt>
      <trkpt lat="45.76883" lon="2.76277">
        <ele>857</ele>
        <time>2013-09-22T11:28:06Z</time>
      </trkpt>
      <trkpt lat="45.76909" lon="2.76343">
        <ele>857</ele>
        <time>2013-09-22T11:28:23Z</time>
      </trkpt>
      <trkpt lat="45.76934" lon="2.76406">
        <ele>858</ele>
        <time>2013-09-22T11:28:41Z</time>
      </trkpt>
      <trkpt lat="45.76973" lon="2.76395">
        <ele>858</ele>
        <time>2013-09-22T11:28:53Z</time>
      </trkpt>
      <trkpt lat="45.77003" lon="2.76427">
        <ele>857</ele>
        <time>2013-09-22T11:29:05Z</time>
      </trkpt>
      <trkpt lat="45.77062" lon="2.76463">
        <ele>855</ele>
        <time>2013-09-22T11:29:16Z</time>
      </trkpt>
      <trkpt lat="45.77102" lon="2.76483">
        <ele>852</ele>
        <time>2013-09-22T11:29:22Z</time>
      </trkpt>
      <trkpt lat="45.77131" lon="2.76497">
        <ele>852</ele>
        <time>2013-09-22T11:29:26Z</time>
      </trkpt>
      <trkpt lat="45.77151" lon="2.76514">
        <ele>851</ele>
        <time>2013-09-22T11:29:30Z</time>
      </trkpt>
      <trkpt lat="45.77156" lon="2.76519">
        <ele>850</ele>
        <time>2013-09-22T11:29:31Z</time>
      </trkpt>
      <trkpt lat="45.77197" lon="2.76584">
        <ele>850</ele>
        <time>2013-09-22T11:29:43Z</time>
      </trkpt>
      <trkpt lat="45.77204" lon="2.76623">
        <ele>850</ele>
        <time>2013-09-22T11:29:53Z</time>
      </trkpt>
      <trkpt lat="45.77193" lon="2.76668">
        <ele>850</ele>
        <time>2013-09-22T11:30:08Z</time>
      </trkpt>
      <trkpt lat="45.77181" lon="2.7673">
        <ele>850</ele>
        <time>2013-09-22T11:30:20Z</time>
      </trkpt>
      <trkpt lat="45.77179" lon="2.76766">
        <ele>849</ele>
        <time>2013-09-22T11:30:25Z</time>
      </trkpt>
      <trkpt lat="45.77169" lon="2.76868">
        <ele>849</ele>
        <time>2013-09-22T11:30:40Z</time>
      </trkpt>
      <trkpt lat="45.77166" lon="2.76902">
        <ele>845</ele>
        <time>2013-09-22T11:30:44Z</time>
      </trkpt>
      <trkpt lat="45.77165" lon="2.76922">
        <ele>845</ele>
        <time>2013-09-22T11:30:46Z</time>
      </trkpt>
      <trkpt lat="45.77158" lon="2.76965">
        <ele>843</ele>
        <time>2013-09-22T11:30:50Z</time>
      </trkpt>
      <trkpt lat="45.77157" lon="2.76976">
        <ele>843</ele>
        <time>2013-09-22T11:30:51Z</time>
      </trkpt>
      <trkpt lat="45.77154" lon="2.77018">
        <ele>843</ele>
        <time>2013-09-22T11:30:55Z</time>
      </trkpt>
      <trkpt lat="45.77154" lon="2.77026">
        <ele>843</ele>
        <time>2013-09-22T11:30:56Z</time>
      </trkpt>
      <trkpt lat="45.77155" lon="2.77038">
        <ele>843</ele>
        <time>2013-09-22T11:30:58Z</time>
      </trkpt>
      <trkpt lat="45.77157" lon="2.77047">
        <ele>843</ele>
        <time>2013-09-22T11:31:00Z</time>
      </trkpt>
      <trkpt lat="45.77176" lon="2.77114">
        <ele>845</ele>
        <time>2013-09-22T11:31:15Z</time>
      </trkpt>
      <trkpt lat="45.77199" lon="2.77202">
        <ele>845</ele>
        <time>2013-09-22T11:31:30Z</time>
      </trkpt>
      <trkpt lat="45.77222" lon="2.77288">
        <ele>845</ele>
        <time>2013-09-22T11:31:43Z</time>
      </trkpt>
      <trkpt lat="45.77234" lon="2.77337">
        <ele>846</ele>
        <time>2013-09-22T11:31:52Z</time>
      </trkpt>
      <trkpt lat="45.77225" lon="2.7735">
        <ele>846</ele>
        <time>2013-09-22T11:31:56Z</time>
      </trkpt>
      <trkpt lat="45.77148" lon="2.77366">
        <ele>844</ele>
        <time>2013-09-22T11:32:15Z</time>
      </trkpt>
      <trkpt lat="45.77095" lon="2.7738">
        <ele>843</ele>
        <time>2013-09-22T11:32:29Z</time>
      </trkpt>
      <trkpt lat="45.77036" lon="2.77413">
        <ele>842</ele>
        <time>2013-09-22T11:32:45Z</time>
      </trkpt>
      <trkpt lat="45.77033" lon="2.77449">
        <ele>843</ele>
        <time>2013-09-22T11:32:55Z</time>
      </trkpt>
      <trkpt lat="45.77045" lon="2.77491">
        <ele>844</ele>
        <time>2013-09-22T11:33:09Z</time>
      </trkpt>
      <trkpt lat="45.77046" lon="2.77553">
        <ele>845</ele>
        <time>2013-09-22T11:33:28Z</time>
      </trkpt>
      <trkpt lat="45.77052" lon="2.77608">
        <ele>849</ele>
        <time>2013-09-22T11:33:47Z</time>
      </trkpt>
      <trkpt lat="45.7705" lon="2.77642">
        <ele>850</ele>
        <time>2013-09-22T11:34:03Z</time>
      </trkpt>
      <trkpt lat="45.7705" lon="2.77668">
        <ele>853</ele>
        <time>2013-09-22T11:34:16Z</time>
      </trkpt>
      <trkpt lat="45.77054" lon="2.77696">
        <ele>854</ele>
        <time>2013-09-22T11:34:31Z</time>
      </trkpt>
      <trkpt lat="45.7707" lon="2.77723">
        <ele>856</ele>
        <time>2013-09-22T11:34:47Z</time>
      </trkpt>
      <trkpt lat="45.77098" lon="2.77761">
        <ele>865</ele>
        <time>2013-09-22T11:35:07Z</time>
      </trkpt>
      <trkpt lat="45.77116" lon="2.77801">
        <ele>866</ele>
        <time>2013-09-22T11:35:23Z</time>
      </trkpt>
      <trkpt lat="45.77127" lon="2.77856">
        <ele>869</ele>
        <time>2013-09-22T11:35:42Z</time>
      </trkpt>
      <trkpt lat="45.77136" lon="2.77902">
        <ele>870</ele>
        <time>2013-09-22T11:35:59Z</time>
      </trkpt>
      <trkpt lat="45.77137" lon="2.7796">
        <ele>872</ele>
        <time>2013-09-22T11:36:16Z</time>
      </trkpt>
      <trkpt lat="45.77118" lon="2.78013">
        <ele>875</ele>
        <time>2013-09-22T11:36:31Z</time>
      </trkpt>
      <trkpt lat="45.77079" lon="2.7807">
        <ele>870</ele>
        <time>2013-09-22T11:36:46Z</time>
      </trkpt>
      <trkpt lat="45.77056" lon="2.78103">
        <ele>868</ele>
        <time>2013-09-22T11:36:54Z</time>
      </trkpt>
      <trkpt lat="45.77044" lon="2.78139">
        <ele>867</ele>
        <time>2013-09-22T11:36:59Z</time>
      </trkpt>
      <trkpt lat="45.77037" lon="2.78183">
        <ele>868</ele>
        <time>2013-09-22T11:37:05Z</time>
      </trkpt>
      <trkpt lat="45.77041" lon="2.78237">
        <ele>869</ele>
        <time>2013-09-22T11:37:12Z</time>
      </trkpt>
      <trkpt lat="45.77033" lon="2.78355">
        <ele>865</ele>
        <time>2013-09-22T11:37:25Z</time>
      </trkpt>
      <trkpt lat="45.7703" lon="2.78476">
        <ele>864</ele>
        <time>2013-09-22T11:37:38Z</time>
      </trkpt>
      <trkpt lat="45.7703" lon="2.78491">
        <ele>863</ele>
        <time>2013-09-22T11:37:40Z</time>
      </trkpt>
      <trkpt lat="45.77036" lon="2.78554">
        <ele>865</ele>
        <time>2013-09-22T11:37:50Z</time>
      </trkpt>
      <trkpt lat="45.7701" lon="2.78637">
        <ele>866</ele>
        <time>2013-09-22T11:38:01Z</time>
      </trkpt>
      <trkpt lat="45.77007" lon="2.78646">
        <ele>865</ele>
        <time>2013-09-22T11:38:02Z</time>
      </trkpt>
      <trkpt lat="45.77005" lon="2.78725">
        <ele>862</ele>
        <time>2013-09-22T11:38:10Z</time>
      </trkpt>
      <trkpt lat="45.77017" lon="2.78757">
        <ele>856</ele>
        <time>2013-09-22T11:38:14Z</time>
      </trkpt>
      <trkpt lat="45.77034" lon="2.78779">
        <ele>857</ele>
        <time>2013-09-22T11:38:18Z</time>
      </trkpt>
      <trkpt lat="45.77082" lon="2.78814">
        <ele>860</ele>
        <time>2013-09-22T11:38:30Z</time>
      </trkpt>
      <trkpt lat="45.77118" lon="2.78829">
        <ele>868</ele>
        <time>2013-09-22T11:38:42Z</time>
      </trkpt>
      <trkpt lat="45.77177" lon="2.78851">
        <ele>866</ele>
        <time>2013-09-22T11:38:56Z</time>
      </trkpt>
      <trkpt lat="45.77255" lon="2.78888">
        <ele>867</ele>
        <time>2013-09-22T11:39:11Z</time>
      </trkpt>
      <trkpt lat="45.77272" lon="2.78939">
        <ele>861</ele>
        <time>2013-09-22T11:39:18Z</time>
      </trkpt>
      <trkpt lat="45.77274" lon="2.78999">
        <ele>858</ele>
        <time>2013-09-22T11:39:24Z</time>
      </trkpt>
      <trkpt lat="45.77277" lon="2.79038">
        <ele>855</ele>
        <time>2013-09-22T11:39:27Z</time>
      </trkpt>
      <trkpt lat="45.7728" lon="2.79081">
        <ele>854</ele>
        <time>2013-09-22T11:39:30Z</time>
      </trkpt>
      <trkpt lat="45.77284" lon="2.79191">
        <ele>853</ele>
        <time>2013-09-22T11:39:40Z</time>
      </trkpt>
      <trkpt lat="45.77284" lon="2.79238">
        <ele>852</ele>
        <time>2013-09-22T11:39:45Z</time>
      </trkpt>
      <trkpt lat="45.77286" lon="2.79274">
        <ele>850</ele>
        <time>2013-09-22T11:39:48Z</time>
      </trkpt>
      <trkpt lat="45.77288" lon="2.79286">
        <ele>850</ele>
        <time>2013-09-22T11:39:49Z</time>
      </trkpt>
      <trkpt lat="45.77309" lon="2.79383">
        <ele>851</ele>
        <time>2013-09-22T11:39:59Z</time>
      </trkpt>
      <trkpt lat="45.77301" lon="2.79433">
        <ele>853</ele>
        <time>2013-09-22T11:40:06Z</time>
      </trkpt>
      <trkpt lat="45.77263" lon="2.79489">
        <ele>853</ele>
        <time>2013-09-22T11:40:21Z</time>
      </trkpt>
      <trkpt lat="45.77216" lon="2.79557">
        <ele>855</ele>
        <time>2013-09-22T11:40:40Z</time>
      </trkpt>
      <trkpt lat="45.7719" lon="2.79602">
        <ele>858</ele>
        <time>2013-09-22T11:40:51Z</time>
      </trkpt>
      <trkpt lat="45.77203" lon="2.79613">
        <ele>858</ele>
        <time>2013-09-22T11:40:57Z</time>
      </trkpt>
      <trkpt lat="45.77259" lon="2.7961">
        <ele>860</ele>
        <time>2013-09-22T11:41:14Z</time>
      </trkpt>
      <trkpt lat="45.77267" lon="2.7961">
        <ele>860</ele>
        <time>2013-09-22T11:41:16Z</time>
      </trkpt>
      <trkpt lat="45.77313" lon="2.79626">
        <ele>861</ele>
        <time>2013-09-22T11:41:31Z</time>
      </trkpt>
      <trkpt lat="45.7732" lon="2.7967">
        <ele>863</ele>
        <time>2013-09-22T11:41:42Z</time>
      </trkpt>
      <trkpt lat="45.77336" lon="2.79737">
        <ele>865</ele>
        <time>2013-09-22T11:41:59Z</time>
      </trkpt>
      <trkpt lat="45.77353" lon="2.79805">
        <ele>862</ele>
        <time>2013-09-22T11:42:09Z</time>
      </trkpt>
      <trkpt lat="45.77381" lon="2.79911">
        <ele>859</ele>
        <time>2013-09-22T11:42:20Z</time>
      </trkpt>
      <trkpt lat="45.77393" lon="2.79941">
        <ele>857</ele>
        <time>2013-09-22T11:42:23Z</time>
      </trkpt>
      <trkpt lat="45.77449" lon="2.80066">
        <ele>858</ele>
        <time>2013-09-22T11:42:38Z</time>
      </trkpt>
      <trkpt lat="45.7748" lon="2.80139">
        <ele>858</ele>
        <time>2013-09-22T11:42:52Z</time>
      </trkpt>
      <trkpt lat="45.77505" lon="2.80172">
        <ele>861</ele>
        <time>2013-09-22T11:43:06Z</time>
      </trkpt>
      <trkpt lat="45.77541" lon="2.80209">
        <ele>862</ele>
        <time>2013-09-22T11:43:20Z</time>
      </trkpt>
      <trkpt lat="45.77587" lon="2.8024">
        <ele>865</ele>
        <time>2013-09-22T11:43:37Z</time>
      </trkpt>
      <trkpt lat="45.77597" lon="2.80242">
        <ele>865</ele>
        <time>2013-09-22T11:43:42Z</time>
      </trkpt>
      <trkpt lat="45.77639" lon="2.80245">
        <ele>864</ele>
        <time>2013-09-22T11:43:56Z</time>
      </trkpt>
      <trkpt lat="45.77642" lon="2.80242">
        <ele>864</ele>
        <time>2013-09-22T11:43:57Z</time>
      </trkpt>
      <trkpt lat="45.77672" lon="2.80244">
        <ele>863</ele>
        <time>2013-09-22T11:44:04Z</time>
      </trkpt>
      <trkpt lat="45.77682" lon="2.8025">
        <ele>862</ele>
        <time>2013-09-22T11:44:06Z</time>
      </trkpt>
      <trkpt lat="45.77704" lon="2.80311">
        <ele>860</ele>
        <time>2013-09-22T11:44:14Z</time>
      </trkpt>
      <trkpt lat="45.77708" lon="2.80348">
        <ele>857</ele>
        <time>2013-09-22T11:44:18Z</time>
      </trkpt>
      <trkpt lat="45.77708" lon="2.8038">
        <ele>856</ele>
        <time>2013-09-22T11:44:21Z</time>
      </trkpt>
      <trkpt lat="45.77709" lon="2.80418">
        <ele>851</ele>
        <time>2013-09-22T11:44:24Z</time>
      </trkpt>
      <trkpt lat="45.77711" lon="2.80446">
        <ele>851</ele>
        <time>2013-09-22T11:44:26Z</time>
      </trkpt>
      <trkpt lat="45.77712" lon="2.8046">
        <ele>850</ele>
        <time>2013-09-22T11:44:27Z</time>
      </trkpt>
      <trkpt lat="45.77713" lon="2.8048">
        <ele>850</ele>
        <time>2013-09-22T11:44:29Z</time>
      </trkpt>
      <trkpt lat="45.77713" lon="2.80494">
        <ele>850</ele>
        <time>2013-09-22T11:44:31Z</time>
      </trkpt>
      <trkpt lat="45.77726" lon="2.80497">
        <ele>849</ele>
        <time>2013-09-22T11:44:36Z</time>
      </trkpt>
      <trkpt lat="45.77744" lon="2.80483">
        <ele>849</ele>
        <time>2013-09-22T11:44:41Z</time>
      </trkpt>
      <trkpt lat="45.778" lon="2.80441">
        <ele>843</ele>
        <time>2013-09-22T11:44:54Z</time>
      </trkpt>
      <trkpt lat="45.7781" lon="2.80434">
        <ele>842</ele>
        <time>2013-09-22T11:44:56Z</time>
      </trkpt>
      <trkpt lat="45.77822" lon="2.80432">
        <ele>841</ele>
        <time>2013-09-22T11:44:59Z</time>
      </trkpt>
      <trkpt lat="45.77828" lon="2.8044">
        <ele>841</ele>
        <time>2013-09-22T11:45:01Z</time>
      </trkpt>
      <trkpt lat="45.77839" lon="2.80467">
        <ele>834</ele>
        <time>2013-09-22T11:45:05Z</time>
      </trkpt>
      <trkpt lat="45.77864" lon="2.80511">
        <ele>833</ele>
        <time>2013-09-22T11:45:10Z</time>
      </trkpt>
      <trkpt lat="45.77871" lon="2.8052">
        <ele>833</ele>
        <time>2013-09-22T11:45:11Z</time>
      </trkpt>
      <trkpt lat="45.77887" lon="2.80534">
        <ele>832</ele>
        <time>2013-09-22T11:45:13Z</time>
      </trkpt>
      <trkpt lat="45.77922" lon="2.80559">
        <ele>826</ele>
        <time>2013-09-22T11:45:17Z</time>
      </trkpt>
      <trkpt lat="45.77931" lon="2.80565">
        <ele>826</ele>
        <time>2013-09-22T11:45:18Z</time>
      </trkpt>
      <trkpt lat="45.77959" lon="2.80585">
        <ele>826</ele>
        <time>2013-09-22T11:45:21Z</time>
      </trkpt>
      <trkpt lat="45.77999" lon="2.80616">
        <ele>824</ele>
        <time>2013-09-22T11:45:25Z</time>
      </trkpt>
      <trkpt lat="45.78029" lon="2.80645">
        <ele>817</ele>
        <time>2013-09-22T11:45:28Z</time>
      </trkpt>
      <trkpt lat="45.78049" lon="2.80663">
        <ele>815</ele>
        <time>2013-09-22T11:45:30Z</time>
      </trkpt>
      <trkpt lat="45.78086" lon="2.80703">
        <ele>807</ele>
        <time>2013-09-22T11:45:34Z</time>
      </trkpt>
      <trkpt lat="45.78104" lon="2.80732">
        <ele>807</ele>
        <time>2013-09-22T11:45:37Z</time>
      </trkpt>
      <trkpt lat="45.7811" lon="2.80753">
        <ele>805</ele>
        <time>2013-09-22T11:45:39Z</time>
      </trkpt>
      <trkpt lat="45.78116" lon="2.80815">
        <ele>803</ele>
        <time>2013-09-22T11:45:44Z</time>
      </trkpt>
      <trkpt lat="45.7812" lon="2.80882">
        <ele>800</ele>
        <time>2013-09-22T11:45:49Z</time>
      </trkpt>
      <trkpt lat="45.78121" lon="2.80897">
        <ele>800</ele>
        <time>2013-09-22T11:45:50Z</time>
      </trkpt>
      <trkpt lat="45.78129" lon="2.80958">
        <ele>796</ele>
        <time>2013-09-22T11:45:54Z</time>
      </trkpt>
      <trkpt lat="45.78135" lon="2.80989">
        <ele>794</ele>
        <time>2013-09-22T11:45:56Z</time>
      </trkpt>
      <trkpt lat="45.78151" lon="2.81064">
        <ele>788</ele>
        <time>2013-09-22T11:46:01Z</time>
      </trkpt>
      <trkpt lat="45.78156" lon="2.81079">
        <ele>786</ele>
        <time>2013-09-22T11:46:02Z</time>
      </trkpt>
      <trkpt lat="45.78169" lon="2.81121">
        <ele>780</ele>
        <time>2013-09-22T11:46:05Z</time>
      </trkpt>
      <trkpt lat="45.78205" lon="2.81232">
        <ele>777</ele>
        <time>2013-09-22T11:46:13Z</time>
      </trkpt>
      <trkpt lat="45.78212" lon="2.81259">
        <ele>775</ele>
        <time>2013-09-22T11:46:15Z</time>
      </trkpt>
      <trkpt lat="45.78235" lon="2.81325">
        <ele>775</ele>
        <time>2013-09-22T11:46:20Z</time>
      </trkpt>
      <trkpt lat="45.78246" lon="2.81349">
        <ele>774</ele>
        <time>2013-09-22T11:46:22Z</time>
      </trkpt>
      <trkpt lat="45.78291" lon="2.8142">
        <ele>772</ele>
        <time>2013-09-22T11:46:29Z</time>
      </trkpt>
      <trkpt lat="45.78342" lon="2.81495">
        <ele>769</ele>
        <time>2013-09-22T11:46:37Z</time>
      </trkpt>
      <trkpt lat="45.78441" lon="2.81661">
        <ele>763</ele>
        <time>2013-09-22T11:46:55Z</time>
      </trkpt>
      <trkpt lat="45.7848" lon="2.81714">
        <ele>763</ele>
        <time>2013-09-22T11:47:02Z</time>
      </trkpt>
      <trkpt lat="45.78541" lon="2.81768">
        <ele>761</ele>
        <time>2013-09-22T11:47:11Z</time>
      </trkpt>
      <trkpt lat="45.78599" lon="2.81854">
        <ele>760</ele>
        <time>2013-09-22T11:47:22Z</time>
      </trkpt>
      <trkpt lat="45.78628" lon="2.81896">
        <ele>760</ele>
        <time>2013-09-22T11:47:28Z</time>
      </trkpt>
      <trkpt lat="45.78665" lon="2.81964">
        <ele>758</ele>
        <time>2013-09-22T11:47:37Z</time>
      </trkpt>
      <trkpt lat="45.78709" lon="2.82016">
        <ele>756</ele>
        <time>2013-09-22T11:47:45Z</time>
      </trkpt>
      <trkpt lat="45.78728" lon="2.82043">
        <ele>756</ele>
        <time>2013-09-22T11:47:49Z</time>
      </trkpt>
      <trkpt lat="45.78743" lon="2.82075">
        <ele>756</ele>
        <time>2013-09-22T11:47:53Z</time>
      </trkpt>
      <trkpt lat="45.78771" lon="2.82102">
        <ele>755</ele>
        <time>2013-09-22T11:47:59Z</time>
      </trkpt>
      <trkpt lat="45.78797" lon="2.82105">
        <ele>754</ele>
        <time>2013-09-22T11:48:03Z</time>
      </trkpt>
      <trkpt lat="45.78832" lon="2.82124">
        <ele>753</ele>
        <time>2013-09-22T11:48:08Z</time>
      </trkpt>
      <trkpt lat="45.78848" lon="2.82143">
        <ele>750</ele>
        <time>2013-09-22T11:48:11Z</time>
      </trkpt>
      <trkpt lat="45.7886" lon="2.82183">
        <ele>749</ele>
        <time>2013-09-22T11:48:15Z</time>
      </trkpt>
      <trkpt lat="45.78863" lon="2.82202">
        <ele>748</ele>
        <time>2013-09-22T11:48:17Z</time>
      </trkpt>
      <trkpt lat="45.78878" lon="2.82213">
        <ele>748</ele>
        <time>2013-09-22T11:48:23Z</time>
      </trkpt>
      <trkpt lat="45.78898" lon="2.82181">
        <ele>747</ele>
        <time>2013-09-22T11:48:28Z</time>
      </trkpt>
      <trkpt lat="45.78934" lon="2.82115">
        <ele>744</ele>
        <time>2013-09-22T11:48:36Z</time>
      </trkpt>
      <trkpt lat="45.78938" lon="2.82085">
        <ele>745</ele>
        <time>2013-09-22T11:48:39Z</time>
      </trkpt>
      <trkpt lat="45.78953" lon="2.82054">
        <ele>744</ele>
        <time>2013-09-22T11:48:43Z</time>
      </trkpt>
      <trkpt lat="45.78997" lon="2.82005">
        <ele>740</ele>
        <time>2013-09-22T11:48:51Z</time>
      </trkpt>
      <trkpt lat="45.79007" lon="2.81987">
        <ele>733</ele>
        <time>2013-09-22T11:48:53Z</time>
      </trkpt>
      <trkpt lat="45.79011" lon="2.81978">
        <ele>731</ele>
        <time>2013-09-22T11:48:54Z</time>
      </trkpt>
      <trkpt lat="45.79014" lon="2.81945">
        <ele>728</ele>
        <time>2013-09-22T11:48:59Z</time>
      </trkpt>
      <trkpt lat="45.78998" lon="2.81913">
        <ele>728</ele>
        <time>2013-09-22T11:49:02Z</time>
      </trkpt>
      <trkpt lat="45.78978" lon="2.81892">
        <ele>728</ele>
        <time>2013-09-22T11:49:04Z</time>
      </trkpt>
      <trkpt lat="45.78962" lon="2.81879">
        <ele>728</ele>
        <time>2013-09-22T11:49:06Z</time>
      </trkpt>
      <trkpt lat="45.78944" lon="2.81865">
        <ele>728</ele>
        <time>2013-09-22T11:49:13Z</time>
      </trkpt>
      <trkpt lat="45.78951" lon="2.81869">
        <ele>728</ele>
        <time>2013-09-22T11:49:16Z</time>
      </trkpt>
      <trkpt lat="45.78979" lon="2.81873">
        <ele>727</ele>
        <time>2013-09-22T11:49:20Z</time>
      </trkpt>
      <trkpt lat="45.79001" lon="2.81874">
        <ele>724</ele>
        <time>2013-09-22T11:49:24Z</time>
      </trkpt>
      <trkpt lat="45.79014" lon="2.81874">
        <ele>724</ele>
        <time>2013-09-22T11:49:27Z</time>
      </trkpt>
      <trkpt lat="45.79023" lon="2.81876">
        <ele>724</ele>
        <time>2013-09-22T11:49:29Z</time>
      </trkpt>
      <trkpt lat="45.79033" lon="2.81881">
        <ele>724</ele>
        <time>2013-09-22T11:49:31Z</time>
      </trkpt>
      <trkpt lat="45.79049" lon="2.81893">
        <ele>724</ele>
        <time>2013-09-22T11:49:34Z</time>
      </trkpt>
      <trkpt lat="45.79054" lon="2.81897">
        <ele>723</ele>
        <time>2013-09-22T11:49:35Z</time>
      </trkpt>
      <trkpt lat="45.79063" lon="2.81905">
        <ele>722</ele>
        <time>2013-09-22T11:49:37Z</time>
      </trkpt>
      <trkpt lat="45.79067" lon="2.81909">
        <ele>722</ele>
        <time>2013-09-22T11:49:38Z</time>
      </trkpt>
      <trkpt lat="45.79071" lon="2.81912">
        <ele>721</ele>
        <time>2013-09-22T11:49:39Z</time>
      </trkpt>
      <trkpt lat="45.79081" lon="2.81917">
        <ele>720</ele>
        <time>2013-09-22T11:49:41Z</time>
      </trkpt>
      <trkpt lat="45.79097" lon="2.81923">
        <ele>720</ele>
        <time>2013-09-22T11:49:45Z</time>
      </trkpt>
      <trkpt lat="45.79105" lon="2.81931">
        <ele>721</ele>
        <time>2013-09-22T11:49:49Z</time>
      </trkpt>
      <trkpt lat="45.79113" lon="2.81952">
        <ele>721</ele>
        <time>2013-09-22T11:49:54Z</time>
      </trkpt>
      <trkpt lat="45.79148" lon="2.81981">
        <ele>720</ele>
        <time>2013-09-22T11:50:06Z</time>
      </trkpt>
      <trkpt lat="45.79178" lon="2.8196">
        <ele>724</ele>
        <time>2013-09-22T11:50:20Z</time>
      </trkpt>
      <trkpt lat="45.79194" lon="2.81946">
        <ele>725</ele>
        <time>2013-09-22T11:50:30Z</time>
      </trkpt>
      <trkpt lat="45.79202" lon="2.81945">
        <ele>726</ele>
        <time>2013-09-22T11:50:35Z</time>
      </trkpt>
      <trkpt lat="45.79221" lon="2.81919">
        <ele>726</ele>
        <time>2013-09-22T11:50:48Z</time>
      </trkpt>
      <trkpt lat="45.79245" lon="2.81884">
        <ele>733</ele>
        <time>2013-09-22T11:51:04Z</time>
      </trkpt>
      <trkpt lat="45.79279" lon="2.81854">
        <ele>734</ele>
        <time>2013-09-22T11:51:20Z</time>
      </trkpt>
      <trkpt lat="45.79318" lon="2.81849">
        <ele>733</ele>
        <time>2013-09-22T11:51:37Z</time>
      </trkpt>
      <trkpt lat="45.79351" lon="2.8187">
        <ele>732</ele>
        <time>2013-09-22T11:51:53Z</time>
      </trkpt>
      <trkpt lat="45.79354" lon="2.81905">
        <ele>731</ele>
        <time>2013-09-22T11:52:07Z</time>
      </trkpt>
      <trkpt lat="45.79324" lon="2.81921">
        <ele>730</ele>
        <time>2013-09-22T11:52:21Z</time>
      </trkpt>
      <trkpt lat="45.79288" lon="2.81969">
        <ele>731</ele>
        <time>2013-09-22T11:52:31Z</time>
      </trkpt>
      <trkpt lat="45.79276" lon="2.81982">
        <ele>731</ele>
        <time>2013-09-22T11:52:34Z</time>
      </trkpt>
      <trkpt lat="45.7922" lon="2.82043">
        <ele>726</ele>
        <time>2013-09-22T11:52:49Z</time>
      </trkpt>
      <trkpt lat="45.7921" lon="2.82059">
        <ele>726</ele>
        <time>2013-09-22T11:52:52Z</time>
      </trkpt>
      <trkpt lat="45.79196" lon="2.82093">
        <ele>726</ele>
        <time>2013-09-22T11:52:55Z</time>
      </trkpt>
      <trkpt lat="45.79185" lon="2.82129">
        <ele>725</ele>
        <time>2013-09-22T11:52:58Z</time>
      </trkpt>
      <trkpt lat="45.79173" lon="2.82193">
        <ele>724</ele>
        <time>2013-09-22T11:53:03Z</time>
      </trkpt>
      <trkpt lat="45.79157" lon="2.82248">
        <ele>717</ele>
        <time>2013-09-22T11:53:07Z</time>
      </trkpt>
      <trkpt lat="45.79149" lon="2.82275">
        <ele>716</ele>
        <time>2013-09-22T11:53:09Z</time>
      </trkpt>
      <trkpt lat="45.79145" lon="2.82289">
        <ele>716</ele>
        <time>2013-09-22T11:53:10Z</time>
      </trkpt>
      <trkpt lat="45.79138" lon="2.82319">
        <ele>716</ele>
        <time>2013-09-22T11:53:12Z</time>
      </trkpt>
      <trkpt lat="45.79099" lon="2.82406">
        <ele>712</ele>
        <time>2013-09-22T11:53:19Z</time>
      </trkpt>
      <trkpt lat="45.79088" lon="2.82428">
        <ele>711</ele>
        <time>2013-09-22T11:53:21Z</time>
      </trkpt>
      <trkpt lat="45.79073" lon="2.8249">
        <ele>711</ele>
        <time>2013-09-22T11:53:26Z</time>
      </trkpt>
      <trkpt lat="45.79069" lon="2.82514">
        <ele>710</ele>
        <time>2013-09-22T11:53:28Z</time>
      </trkpt>
      <trkpt lat="45.79064" lon="2.8255">
        <ele>709</ele>
        <time>2013-09-22T11:53:31Z</time>
      </trkpt>
      <trkpt lat="45.79067" lon="2.82587">
        <ele>705</ele>
        <time>2013-09-22T11:53:34Z</time>
      </trkpt>
      <trkpt lat="45.7908" lon="2.82632">
        <ele>704</ele>
        <time>2013-09-22T11:53:38Z</time>
      </trkpt>
      <trkpt lat="45.79133" lon="2.8277">
        <ele>704</ele>
        <time>2013-09-22T11:53:51Z</time>
      </trkpt>
      <trkpt lat="45.79141" lon="2.82802">
        <ele>704</ele>
        <time>2013-09-22T11:53:54Z</time>
      </trkpt>
      <trkpt lat="45.79143" lon="2.82848">
        <ele>702</ele>
        <time>2013-09-22T11:53:58Z</time>
      </trkpt>
      <trkpt lat="45.79144" lon="2.82871">
        <ele>702</ele>
        <time>2013-09-22T11:54:00Z</time>
      </trkpt>
      <trkpt lat="45.79148" lon="2.82901">
        <ele>702</ele>
        <time>2013-09-22T11:54:03Z</time>
      </trkpt>
      <trkpt lat="45.79162" lon="2.83002">
        <ele>699</ele>
        <time>2013-09-22T11:54:13Z</time>
      </trkpt>
      <trkpt lat="45.79166" lon="2.83098">
        <ele>698</ele>
        <time>2013-09-22T11:54:22Z</time>
      </trkpt>
      <trkpt lat="45.7915" lon="2.83161">
        <ele>700</ele>
        <time>2013-09-22T11:54:28Z</time>
      </trkpt>
      <trkpt lat="45.79121" lon="2.83203">
        <ele>698</ele>
        <time>2013-09-22T11:54:33Z</time>
      </trkpt>
      <trkpt lat="45.79103" lon="2.83247">
        <ele>695</ele>
        <time>2013-09-22T11:54:37Z</time>
      </trkpt>
      <trkpt lat="45.79088" lon="2.83319">
        <ele>697</ele>
        <time>2013-09-22T11:54:43Z</time>
      </trkpt>
      <trkpt lat="45.79058" lon="2.83375">
        <ele>689</ele>
        <time>2013-09-22T11:54:49Z</time>
      </trkpt>
      <trkpt lat="45.79044" lon="2.83406">
        <ele>688</ele>
        <time>2013-09-22T11:54:52Z</time>
      </trkpt>
      <trkpt lat="45.7905" lon="2.83509">
        <ele>681</ele>
        <time>2013-09-22T11:55:01Z</time>
      </trkpt>
      <trkpt lat="45.79055" lon="2.83521">
        <ele>681</ele>
        <time>2013-09-22T11:55:08Z</time>
      </trkpt>
      <trkpt lat="45.79057" lon="2.83525">
        <ele>681</ele>
        <time>2013-09-22T11:55:14Z</time>
      </trkpt>
      <trkpt lat="45.79078" lon="2.83543">
        <ele>680</ele>
        <time>2013-09-22T11:55:22Z</time>
      </trkpt>
      <trkpt lat="45.79155" lon="2.83577">
        <ele>683</ele>
        <time>2013-09-22T11:55:38Z</time>
      </trkpt>
      <trkpt lat="45.79242" lon="2.83571">
        <ele>686</ele>
        <time>2013-09-22T11:55:53Z</time>
      </trkpt>
      <trkpt lat="45.79343" lon="2.83558">
        <ele>691</ele>
        <time>2013-09-22T11:56:10Z</time>
      </trkpt>
      <trkpt lat="45.79434" lon="2.83547">
        <ele>689</ele>
        <time>2013-09-22T11:56:25Z</time>
      </trkpt>
      <trkpt lat="45.79478" lon="2.83543">
        <ele>689</ele>
        <time>2013-09-22T11:56:34Z</time>
      </trkpt>
      <trkpt lat="45.79493" lon="2.83553">
        <ele>686</ele>
        <time>2013-09-22T11:56:38Z</time>
      </trkpt>
      <trkpt lat="45.79494" lon="2.83559">
        <ele>685</ele>
        <time>2013-09-22T11:56:39Z</time>
      </trkpt>
      <trkpt lat="45.79495" lon="2.83567">
        <ele>683</ele>
        <time>2013-09-22T11:56:40Z</time>
      </trkpt>
      <trkpt lat="45.79488" lon="2.83674">
        <ele>672</ele>
        <time>2013-09-22T11:56:54Z</time>
      </trkpt>
      <trkpt lat="45.79488" lon="2.83688">
        <ele>672</ele>
        <time>2013-09-22T11:56:56Z</time>
      </trkpt>
      <trkpt lat="45.79485" lon="2.83781">
        <ele>679</ele>
        <time>2013-09-22T11:57:12Z</time>
      </trkpt>
      <trkpt lat="45.7949" lon="2.83803">
        <ele>681</ele>
        <time>2013-09-22T11:57:16Z</time>
      </trkpt>
      <trkpt lat="45.79511" lon="2.83823">
        <ele>683</ele>
        <time>2013-09-22T11:57:22Z</time>
      </trkpt>
      <trkpt lat="45.79563" lon="2.8383">
        <ele>681</ele>
        <time>2013-09-22T11:57:40Z</time>
      </trkpt>
      <trkpt lat="45.79577" lon="2.83835">
        <ele>685</ele>
        <time>2013-09-22T11:57:48Z</time>
      </trkpt>
      <trkpt lat="45.79609" lon="2.83847">
        <ele>685</ele>
        <time>2013-09-22T11:58:05Z</time>
      </trkpt>
      <trkpt lat="45.79636" lon="2.83869">
        <ele>686</ele>
        <time>2013-09-22T11:58:23Z</time>
      </trkpt>
      <trkpt lat="45.79648" lon="2.8388">
        <ele>686</ele>
        <time>2013-09-22T11:58:32Z</time>
      </trkpt>
      <trkpt lat="45.79665" lon="2.83902">
        <ele>688</ele>
        <time>2013-09-22T11:58:48Z</time>
      </trkpt>
      <trkpt lat="45.79677" lon="2.8392">
        <ele>688</ele>
        <time>2013-09-22T11:59:02Z</time>
      </trkpt>
      <trkpt lat="45.79685" lon="2.83944">
        <ele>687</ele>
        <time>2013-09-22T11:59:17Z</time>
      </trkpt>
      <trkpt lat="45.79684" lon="2.83958">
        <ele>687</ele>
        <time>2013-09-22T11:59:25Z</time>
      </trkpt>
      <trkpt lat="45.79674" lon="2.83965">
        <ele>688</ele>
        <time>2013-09-22T11:59:40Z</time>
      </trkpt>
      <trkpt lat="45.79667" lon="2.8396">
        <ele>688</ele>
        <time>2013-09-22T11:59:47Z</time>
      </trkpt>
      <trkpt lat="45.79662" lon="2.83956">
        <ele>699</ele>
        <time>2013-09-22T11:59:51Z</time>
      </trkpt>
      <trkpt lat="45.79636" lon="2.83941">
        <ele>699</ele>
        <time>2013-09-22T12:00:10Z</time>
      </trkpt>
      <trkpt lat="45.79618" lon="2.83938">
        <ele>701</ele>
        <time>2013-09-22T12:00:25Z</time>
      </trkpt>
      <trkpt lat="45.79599" lon="2.83933">
        <ele>702</ele>
        <time>2013-09-22T12:00:41Z</time>
      </trkpt>
      <trkpt lat="45.79579" lon="2.83933">
        <ele>708</ele>
        <time>2013-09-22T12:00:59Z</time>
      </trkpt>
      <trkpt lat="45.79557" lon="2.83934">
        <ele>711</ele>
        <time>2013-09-22T12:01:17Z</time>
      </trkpt>
      <trkpt lat="45.79551" lon="2.83934">
        <ele>712</ele>
        <time>2013-09-22T12:01:23Z</time>
      </trkpt>
      <trkpt lat="45.7954" lon="2.83933">
        <ele>713</ele>
        <time>2013-09-22T12:01:30Z</time>
      </trkpt>
      <trkpt lat="45.79515" lon="2.83928">
        <ele>714</ele>
        <time>2013-09-22T12:01:48Z</time>
      </trkpt>
      <trkpt lat="45.79492" lon="2.83924">
        <ele>716</ele>
        <time>2013-09-22T12:02:05Z</time>
      </trkpt>
      <trkpt lat="45.79487" lon="2.83923">
        <ele>717</ele>
        <time>2013-09-22T12:02:09Z</time>
      </trkpt>
      <trkpt lat="45.79469" lon="2.83923">
        <ele>718</ele>
        <time>2013-09-22T12:02:23Z</time>
      </trkpt>
      <trkpt lat="45.79463" lon="2.83926">
        <ele>719</ele>
        <time>2013-09-22T12:02:27Z</time>
      </trkpt>
      <trkpt lat="45.79445" lon="2.83938">
        <ele>720</ele>
        <time>2013-09-22T12:02:41Z</time>
      </trkpt>
      <trkpt lat="45.7942" lon="2.83957">
        <ele>722</ele>
        <time>2013-09-22T12:02:57Z</time>
      </trkpt>
      <trkpt lat="45.79407" lon="2.83962">
        <ele>720</ele>
        <time>2013-09-22T12:03:05Z</time>
      </trkpt>
      <trkpt lat="45.79377" lon="2.83973">
        <ele>720</ele>
        <time>2013-09-22T12:03:19Z</time>
      </trkpt>
      <trkpt lat="45.79369" lon="2.83974">
        <ele>720</ele>
        <time>2013-09-22T12:03:22Z</time>
      </trkpt>
      <trkpt lat="45.79329" lon="2.83992">
        <ele>722</ele>
        <time>2013-09-22T12:03:32Z</time>
      </trkpt>
      <trkpt lat="45.79265" lon="2.84009">
        <ele>726</ele>
        <time>2013-09-22T12:03:47Z</time>
      </trkpt>
      <trkpt lat="45.79229" lon="2.84009">
        <ele>724</ele>
        <time>2013-09-22T12:03:56Z</time>
      </trkpt>
      <trkpt lat="45.79207" lon="2.84017">
        <ele>724</ele>
        <time>2013-09-22T12:04:07Z</time>
      </trkpt>
      <trkpt lat="45.79175" lon="2.84057">
        <ele>727</ele>
        <time>2013-09-22T12:04:22Z</time>
      </trkpt>
      <trkpt lat="45.79141" lon="2.84074">
        <ele>725</ele>
        <time>2013-09-22T12:04:32Z</time>
      </trkpt>
      <trkpt lat="45.79129" lon="2.84087">
        <ele>731</ele>
        <time>2013-09-22T12:04:36Z</time>
      </trkpt>
      <trkpt lat="45.79125" lon="2.84144">
        <ele>731</ele>
        <time>2013-09-22T12:04:44Z</time>
      </trkpt>
      <trkpt lat="45.79123" lon="2.84216">
        <ele>726</ele>
        <time>2013-09-22T12:04:53Z</time>
      </trkpt>
      <trkpt lat="45.79105" lon="2.84265">
        <ele>721</ele>
        <time>2013-09-22T12:04:59Z</time>
      </trkpt>
      <trkpt lat="45.79076" lon="2.84291">
        <ele>725</ele>
        <time>2013-09-22T12:05:04Z</time>
      </trkpt>
      <trkpt lat="45.79028" lon="2.84315">
        <ele>726</ele>
        <time>2013-09-22T12:05:14Z</time>
      </trkpt>
      <trkpt lat="45.79011" lon="2.84352">
        <ele>721</ele>
        <time>2013-09-22T12:05:19Z</time>
      </trkpt>
      <trkpt lat="45.79009" lon="2.84356">
        <ele>721</ele>
        <time>2013-09-22T12:05:20Z</time>
      </trkpt>
      <trkpt lat="45.79005" lon="2.84364">
        <ele>720</ele>
        <time>2013-09-22T12:05:21Z</time>
      </trkpt>
      <trkpt lat="45.79001" lon="2.84372">
        <ele>720</ele>
        <time>2013-09-22T12:05:22Z</time>
      </trkpt>
      <trkpt lat="45.78982" lon="2.84403">
        <ele>722</ele>
        <time>2013-09-22T12:05:26Z</time>
      </trkpt>
      <trkpt lat="45.78951" lon="2.84455">
        <ele>723</ele>
        <time>2013-09-22T12:05:31Z</time>
      </trkpt>
      <trkpt lat="45.78913" lon="2.84513">
        <ele>726</ele>
        <time>2013-09-22T12:05:37Z</time>
      </trkpt>
      <trkpt lat="45.78906" lon="2.84525">
        <ele>727</ele>
        <time>2013-09-22T12:05:39Z</time>
      </trkpt>
      <trkpt lat="45.78896" lon="2.84536">
        <ele>728</ele>
        <time>2013-09-22T12:05:40Z</time>
      </trkpt>
      <trkpt lat="45.78859" lon="2.84566">
        <ele>727</ele>
        <time>2013-09-22T12:05:50Z</time>
      </trkpt>
      <trkpt lat="45.78846" lon="2.84595">
        <ele>731</ele>
        <time>2013-09-22T12:06:02Z</time>
      </trkpt>
      <trkpt lat="45.78838" lon="2.8463">
        <ele>734</ele>
        <time>2013-09-22T12:06:17Z</time>
      </trkpt>
      <trkpt lat="45.78828" lon="2.84662">
        <ele>731</ele>
        <time>2013-09-22T12:06:32Z</time>
      </trkpt>
      <trkpt lat="45.78822" lon="2.84695">
        <ele>731</ele>
        <time>2013-09-22T12:06:46Z</time>
      </trkpt>
      <trkpt lat="45.7882" lon="2.84711">
        <ele>731</ele>
        <time>2013-09-22T12:06:53Z</time>
      </trkpt>
      <trkpt lat="45.78828" lon="2.84742">
        <ele>733</ele>
        <time>2013-09-22T12:07:07Z</time>
      </trkpt>
      <trkpt lat="45.78853" lon="2.84778">
        <ele>739</ele>
        <time>2013-09-22T12:07:23Z</time>
      </trkpt>
      <trkpt lat="45.78878" lon="2.84835">
        <ele>742</ele>
        <time>2013-09-22T12:07:42Z</time>
      </trkpt>
      <trkpt lat="45.78904" lon="2.84868">
        <ele>742</ele>
        <time>2013-09-22T12:07:57Z</time>
      </trkpt>
      <trkpt lat="45.78936" lon="2.84925">
        <ele>743</ele>
        <time>2013-09-22T12:08:14Z</time>
      </trkpt>
      <trkpt lat="45.78978" lon="2.85003">
        <ele>744</ele>
        <time>2013-09-22T12:08:30Z</time>
      </trkpt>
      <trkpt lat="45.79014" lon="2.85063">
        <ele>742</ele>
        <time>2013-09-22T12:08:41Z</time>
      </trkpt>
      <trkpt lat="45.79021" lon="2.85086">
        <ele>742</ele>
        <time>2013-09-22T12:08:44Z</time>
      </trkpt>
      <trkpt lat="45.79042" lon="2.8512">
        <ele>741</ele>
        <time>2013-09-22T12:08:49Z</time>
      </trkpt>
      <trkpt lat="45.79082" lon="2.85154">
        <ele>739</ele>
        <time>2013-09-22T12:08:56Z</time>
      </trkpt>
      <trkpt lat="45.79105" lon="2.8519">
        <ele>736</ele>
        <time>2013-09-22T12:09:03Z</time>
      </trkpt>
      <trkpt lat="45.79136" lon="2.85261">
        <ele>737</ele>
        <time>2013-09-22T12:09:17Z</time>
      </trkpt>
      <trkpt lat="45.79152" lon="2.85299">
        <ele>738</ele>
        <time>2013-09-22T12:09:24Z</time>
      </trkpt>
      <trkpt lat="45.79156" lon="2.85312">
        <ele>738</ele>
        <time>2013-09-22T12:09:26Z</time>
      </trkpt>
      <trkpt lat="45.7919" lon="2.85413">
        <ele>738</ele>
        <time>2013-09-22T12:09:42Z</time>
      </trkpt>
      <trkpt lat="45.79191" lon="2.85458">
        <ele>738</ele>
        <time>2013-09-22T12:09:48Z</time>
      </trkpt>
      <trkpt lat="45.7917" lon="2.85522">
        <ele>736</ele>
        <time>2013-09-22T12:09:56Z</time>
      </trkpt>
      <trkpt lat="45.79162" lon="2.85554">
        <ele>737</ele>
        <time>2013-09-22T12:09:59Z</time>
      </trkpt>
      <trkpt lat="45.79159" lon="2.85566">
        <ele>736</ele>
        <time>2013-09-22T12:10:00Z</time>
      </trkpt>
      <trkpt lat="45.79152" lon="2.85604">
        <ele>734</ele>
        <time>2013-09-22T12:10:03Z</time>
      </trkpt>
      <trkpt lat="45.79146" lon="2.85647">
        <ele>732</ele>
        <time>2013-09-22T12:10:06Z</time>
      </trkpt>
      <trkpt lat="45.79144" lon="2.85677">
        <ele>728</ele>
        <time>2013-09-22T12:10:08Z</time>
      </trkpt>
      <trkpt lat="45.79143" lon="2.85708">
        <ele>728</ele>
        <time>2013-09-22T12:10:10Z</time>
      </trkpt>
      <trkpt lat="45.7915" lon="2.85767">
        <ele>721</ele>
        <time>2013-09-22T12:10:14Z</time>
      </trkpt>
      <trkpt lat="45.79153" lon="2.85782">
        <ele>720</ele>
        <time>2013-09-22T12:10:15Z</time>
      </trkpt>
      <trkpt lat="45.79169" lon="2.85855">
        <ele>712</ele>
        <time>2013-09-22T12:10:20Z</time>
      </trkpt>
      <trkpt lat="45.79174" lon="2.85877">
        <ele>711</ele>
        <time>2013-09-22T12:10:22Z</time>
      </trkpt>
      <trkpt lat="45.79174" lon="2.85902">
        <ele>710</ele>
        <time>2013-09-22T12:10:26Z</time>
      </trkpt>
      <trkpt lat="45.79172" lon="2.85904">
        <ele>710</ele>
        <time>2013-09-22T12:10:27Z</time>
      </trkpt>
      <trkpt lat="45.79158" lon="2.85902">
        <ele>711</ele>
        <time>2013-09-22T12:10:31Z</time>
      </trkpt>
      <trkpt lat="45.79147" lon="2.85923">
        <ele>709</ele>
        <time>2013-09-22T12:10:34Z</time>
      </trkpt>
      <trkpt lat="45.7911" lon="2.86022">
        <ele>708</ele>
        <time>2013-09-22T12:10:47Z</time>
      </trkpt>
      <trkpt lat="45.79093" lon="2.86065">
        <ele>710</ele>
        <time>2013-09-22T12:10:59Z</time>
      </trkpt>
      <trkpt lat="45.79098" lon="2.86087">
        <ele>714</ele>
        <time>2013-09-22T12:11:10Z</time>
      </trkpt>
      <trkpt lat="45.79105" lon="2.8611">
        <ele>715</ele>
        <time>2013-09-22T12:11:23Z</time>
      </trkpt>
      <trkpt lat="45.79113" lon="2.86125">
        <ele>716</ele>
        <time>2013-09-22T12:11:34Z</time>
      </trkpt>
      <trkpt lat="45.79126" lon="2.86155">
        <ele>717</ele>
        <time>2013-09-22T12:11:52Z</time>
      </trkpt>
      <trkpt lat="45.79142" lon="2.86189">
        <ele>724</ele>
        <time>2013-09-22T12:12:10Z</time>
      </trkpt>
      <trkpt lat="45.79152" lon="2.86213">
        <ele>726</ele>
        <time>2013-09-22T12:12:25Z</time>
      </trkpt>
      <trkpt lat="45.79149" lon="2.86225">
        <ele>728</ele>
        <time>2013-09-22T12:12:36Z</time>
      </trkpt>
      <trkpt lat="45.79142" lon="2.86214">
        <ele>727</ele>
        <time>2013-09-22T12:12:44Z</time>
      </trkpt>
      <trkpt lat="45.79129" lon="2.86204">
        <ele>727</ele>
        <time>2013-09-22T12:12:52Z</time>
      </trkpt>
      <trkpt lat="45.79096" lon="2.8619">
        <ele>728</ele>
        <time>2013-09-22T12:13:09Z</time>
      </trkpt>
      <trkpt lat="45.79079" lon="2.86195">
        <ele>733</ele>
        <time>2013-09-22T12:13:21Z</time>
      </trkpt>
      <trkpt lat="45.79066" lon="2.86204">
        <ele>734</ele>
        <time>2013-09-22T12:13:32Z</time>
      </trkpt>
      <trkpt lat="45.79045" lon="2.86228">
        <ele>737</ele>
        <time>2013-09-22T12:13:52Z</time>
      </trkpt>
      <trkpt lat="45.7903" lon="2.86249">
        <ele>738</ele>
        <time>2013-09-22T12:14:07Z</time>
      </trkpt>
      <trkpt lat="45.79017" lon="2.8627">
        <ele>746</ele>
        <time>2013-09-22T12:14:21Z</time>
      </trkpt>
      <trkpt lat="45.79005" lon="2.86292">
        <ele>748</ele>
        <time>2013-09-22T12:14:36Z</time>
      </trkpt>
      <trkpt lat="45.78994" lon="2.86313">
        <ele>744</ele>
        <time>2013-09-22T12:14:50Z</time>
      </trkpt>
      <trkpt lat="45.78988" lon="2.86348">
        <ele>748</ele>
        <time>2013-09-22T12:15:07Z</time>
      </trkpt>
      <trkpt lat="45.78999" lon="2.86409">
        <ele>753</ele>
        <time>2013-09-22T12:15:29Z</time>
      </trkpt>
      <trkpt lat="45.79008" lon="2.86455">
        <ele>760</ele>
        <time>2013-09-22T12:15:46Z</time>
      </trkpt>
      <trkpt lat="45.79012" lon="2.86508">
        <ele>761</ele>
        <time>2013-09-22T12:16:07Z</time>
      </trkpt>
      <trkpt lat="45.79011" lon="2.86553">
        <ele>764</ele>
        <time>2013-09-22T12:16:22Z</time>
      </trkpt>
      <trkpt lat="45.79011" lon="2.86613">
        <ele>767</ele>
        <time>2013-09-22T12:16:42Z</time>
      </trkpt>
      <trkpt lat="45.7901" lon="2.86646">
        <ele>768</ele>
        <time>2013-09-22T12:16:57Z</time>
      </trkpt>
      <trkpt lat="45.79009" lon="2.86683">
        <ele>771</ele>
        <time>2013-09-22T12:17:15Z</time>
      </trkpt>
      <trkpt lat="45.79007" lon="2.86708">
        <ele>774</ele>
        <time>2013-09-22T12:17:28Z</time>
      </trkpt>
      <trkpt lat="45.79014" lon="2.86738">
        <ele>776</ele>
        <time>2013-09-22T12:17:44Z</time>
      </trkpt>
      <trkpt lat="45.79032" lon="2.86762">
        <ele>780</ele>
        <time>2013-09-22T12:18:01Z</time>
      </trkpt>
      <trkpt lat="45.79053" lon="2.86799">
        <ele>781</ele>
        <time>2013-09-22T12:18:17Z</time>
      </trkpt>
      <trkpt lat="45.7907" lon="2.86871">
        <ele>784</ele>
        <time>2013-09-22T12:18:32Z</time>
      </trkpt>
      <trkpt lat="45.79086" lon="2.86939">
        <ele>787</ele>
        <time>2013-09-22T12:18:48Z</time>
      </trkpt>
      <trkpt lat="45.79086" lon="2.86981">
        <ele>788</ele>
        <time>2013-09-22T12:19:02Z</time>
      </trkpt>
      <trkpt lat="45.7907" lon="2.87025">
        <ele>789</ele>
        <time>2013-09-22T12:19:19Z</time>
      </trkpt>
      <trkpt lat="45.79063" lon="2.87075">
        <ele>790</ele>
        <time>2013-09-22T12:19:34Z</time>
      </trkpt>
      <trkpt lat="45.7906" lon="2.87142">
        <ele>793</ele>
        <time>2013-09-22T12:19:51Z</time>
      </trkpt>
      <trkpt lat="45.79057" lon="2.87215">
        <ele>795</ele>
        <time>2013-09-22T12:20:11Z</time>
      </trkpt>
      <trkpt lat="45.79058" lon="2.87273">
        <ele>796</ele>
        <time>2013-09-22T12:20:28Z</time>
      </trkpt>
      <trkpt lat="45.79062" lon="2.87343">
        <ele>796</ele>
        <time>2013-09-22T12:20:42Z</time>
      </trkpt>
      <trkpt lat="45.79065" lon="2.87361">
        <ele>796</ele>
        <time>2013-09-22T12:20:45Z</time>
      </trkpt>
      <trkpt lat="45.79086" lon="2.87408">
        <ele>797</ele>
        <time>2013-09-22T12:20:53Z</time>
      </trkpt>
      <trkpt lat="45.79089" lon="2.87422">
        <ele>796</ele>
        <time>2013-09-22T12:20:55Z</time>
      </trkpt>
      <trkpt lat="45.7909" lon="2.87436">
        <ele>797</ele>
        <time>2013-09-22T12:20:57Z</time>
      </trkpt>
      <trkpt lat="45.79095" lon="2.87541">
        <ele>795</ele>
        <time>2013-09-22T12:21:14Z</time>
      </trkpt>
      <trkpt lat="45.79107" lon="2.87583">
        <ele>794</ele>
        <time>2013-09-22T12:21:21Z</time>
      </trkpt>
      <trkpt lat="45.79129" lon="2.87687">
        <ele>793</ele>
        <time>2013-09-22T12:21:37Z</time>
      </trkpt>
      <trkpt lat="45.79129" lon="2.87702">
        <ele>793</ele>
        <time>2013-09-22T12:21:39Z</time>
      </trkpt>
      <trkpt lat="45.79126" lon="2.87796">
        <ele>792</ele>
        <time>2013-09-22T12:21:51Z</time>
      </trkpt>
      <trkpt lat="45.79126" lon="2.87834">
        <ele>791</ele>
        <time>2013-09-22T12:21:55Z</time>
      </trkpt>
      <trkpt lat="45.79123" lon="2.87852">
        <ele>791</ele>
        <time>2013-09-22T12:21:57Z</time>
      </trkpt>
      <trkpt lat="45.79112" lon="2.8788">
        <ele>791</ele>
        <time>2013-09-22T12:22:01Z</time>
      </trkpt>
      <trkpt lat="45.79089" lon="2.87934">
        <ele>792</ele>
        <time>2013-09-22T12:22:13Z</time>
      </trkpt>
      <trkpt lat="45.79076" lon="2.8802">
        <ele>793</ele>
        <time>2013-09-22T12:22:28Z</time>
      </trkpt>
      <trkpt lat="45.79075" lon="2.88033">
        <ele>793</ele>
        <time>2013-09-22T12:22:30Z</time>
      </trkpt>
      <trkpt lat="45.79071" lon="2.88134">
        <ele>792</ele>
        <time>2013-09-22T12:22:44Z</time>
      </trkpt>
      <trkpt lat="45.79079" lon="2.88225">
        <ele>793</ele>
        <time>2013-09-22T12:22:56Z</time>
      </trkpt>
      <trkpt lat="45.79081" lon="2.88302">
        <ele>795</ele>
        <time>2013-09-22T12:23:10Z</time>
      </trkpt>
      <trkpt lat="45.79081" lon="2.88359">
        <ele>797</ele>
        <time>2013-09-22T12:23:24Z</time>
      </trkpt>
      <trkpt lat="45.79081" lon="2.88399">
        <ele>798</ele>
        <time>2013-09-22T12:23:35Z</time>
      </trkpt>
      <trkpt lat="45.79101" lon="2.88403">
        <ele>801</ele>
        <time>2013-09-22T12:23:46Z</time>
      </trkpt>
      <trkpt lat="45.79128" lon="2.88391">
        <ele>801</ele>
        <time>2013-09-22T12:24:02Z</time>
      </trkpt>
      <trkpt lat="45.79159" lon="2.88389">
        <ele>802</ele>
        <time>2013-09-22T12:24:15Z</time>
      </trkpt>
      <trkpt lat="45.79226" lon="2.8837">
        <ele>802</ele>
        <time>2013-09-22T12:24:30Z</time>
      </trkpt>
      <trkpt lat="45.79277" lon="2.88364">
        <ele>801</ele>
        <time>2013-09-22T12:24:39Z</time>
      </trkpt>
      <trkpt lat="45.79287" lon="2.88362">
        <ele>801</ele>
        <time>2013-09-22T12:24:41Z</time>
      </trkpt>
      <trkpt lat="45.79308" lon="2.88366">
        <ele>801</ele>
        <time>2013-09-22T12:24:45Z</time>
      </trkpt>
      <trkpt lat="45.79357" lon="2.88406">
        <ele>802</ele>
        <time>2013-09-22T12:24:58Z</time>
      </trkpt>
      <trkpt lat="45.79416" lon="2.88429">
        <ele>803</ele>
        <time>2013-09-22T12:25:13Z</time>
      </trkpt>
      <trkpt lat="45.79458" lon="2.88465">
        <ele>804</ele>
        <time>2013-09-22T12:25:26Z</time>
      </trkpt>
      <trkpt lat="45.79495" lon="2.88497">
        <ele>806</ele>
        <time>2013-09-22T12:25:38Z</time>
      </trkpt>
      <trkpt lat="45.79527" lon="2.8853">
        <ele>806</ele>
        <time>2013-09-22T12:25:51Z</time>
      </trkpt>
      <trkpt lat="45.79573" lon="2.88567">
        <ele>807</ele>
        <time>2013-09-22T12:26:06Z</time>
      </trkpt>
      <trkpt lat="45.79577" lon="2.8857">
        <ele>807</ele>
        <time>2013-09-22T12:26:07Z</time>
      </trkpt>
      <trkpt lat="45.79589" lon="2.88579">
        <ele>808</ele>
        <time>2013-09-22T12:26:10Z</time>
      </trkpt>
      <trkpt lat="45.79647" lon="2.88639">
        <ele>809</ele>
        <time>2013-09-22T12:26:26Z</time>
      </trkpt>
      <trkpt lat="45.79701" lon="2.88703">
        <ele>810</ele>
        <time>2013-09-22T12:26:42Z</time>
      </trkpt>
      <trkpt lat="45.79713" lon="2.88718">
        <ele>811</ele>
        <time>2013-09-22T12:26:46Z</time>
      </trkpt>
      <trkpt lat="45.79747" lon="2.88812">
        <ele>810</ele>
        <time>2013-09-22T12:27:01Z</time>
      </trkpt>
      <trkpt lat="45.79777" lon="2.88911">
        <ele>812</ele>
        <time>2013-09-22T12:27:16Z</time>
      </trkpt>
      <trkpt lat="45.79779" lon="2.88918">
        <ele>812</ele>
        <time>2013-09-22T12:27:17Z</time>
      </trkpt>
      <trkpt lat="45.79786" lon="2.88936">
        <ele>812</ele>
        <time>2013-09-22T12:27:20Z</time>
      </trkpt>
      <trkpt lat="45.79789" lon="2.88948">
        <ele>812</ele>
        <time>2013-09-22T12:27:22Z</time>
      </trkpt>
      <trkpt lat="45.79808" lon="2.89024">
        <ele>812</ele>
        <time>2013-09-22T12:27:34Z</time>
      </trkpt>
      <trkpt lat="45.79808" lon="2.89038">
        <ele>812</ele>
        <time>2013-09-22T12:27:36Z</time>
      </trkpt>
      <trkpt lat="45.79807" lon="2.8905">
        <ele>812</ele>
        <time>2013-09-22T12:27:38Z</time>
      </trkpt>
      <trkpt lat="45.79792" lon="2.89133">
        <ele>813</ele>
        <time>2013-09-22T12:27:53Z</time>
      </trkpt>
      <trkpt lat="45.798" lon="2.89214">
        <ele>813</ele>
        <time>2013-09-22T12:28:08Z</time>
      </trkpt>
      <trkpt lat="45.79809" lon="2.89293">
        <ele>814</ele>
        <time>2013-09-22T12:28:23Z</time>
      </trkpt>
      <trkpt lat="45.79821" lon="2.89369">
        <ele>815</ele>
        <time>2013-09-22T12:28:40Z</time>
      </trkpt>
      <trkpt lat="45.79823" lon="2.89458">
        <ele>814</ele>
        <time>2013-09-22T12:28:54Z</time>
      </trkpt>
      <trkpt lat="45.79822" lon="2.8949">
        <ele>813</ele>
        <time>2013-09-22T12:28:58Z</time>
      </trkpt>
      <trkpt lat="45.79821" lon="2.89498">
        <ele>813</ele>
        <time>2013-09-22T12:28:59Z</time>
      </trkpt>
      <trkpt lat="45.79791" lon="2.89603">
        <ele>810</ele>
        <time>2013-09-22T12:29:13Z</time>
      </trkpt>
      <trkpt lat="45.7978" lon="2.89636">
        <ele>810</ele>
        <time>2013-09-22T12:29:18Z</time>
      </trkpt>
      <trkpt lat="45.79775" lon="2.89673">
        <ele>809</ele>
        <time>2013-09-22T12:29:23Z</time>
      </trkpt>
      <trkpt lat="45.79781" lon="2.89782">
        <ele>807</ele>
        <time>2013-09-22T12:29:36Z</time>
      </trkpt>
      <trkpt lat="45.79791" lon="2.89933">
        <ele>806</ele>
        <time>2013-09-22T12:29:53Z</time>
      </trkpt>
      <trkpt lat="45.79791" lon="2.8998">
        <ele>807</ele>
        <time>2013-09-22T12:29:59Z</time>
      </trkpt>
      <trkpt lat="45.79789" lon="2.90005">
        <ele>812</ele>
        <time>2013-09-22T12:30:03Z</time>
      </trkpt>
      <trkpt lat="45.79764" lon="2.90084">
        <ele>819</ele>
        <time>2013-09-22T12:30:19Z</time>
      </trkpt>
      <trkpt lat="45.79756" lon="2.90132">
        <ele>824</ele>
        <time>2013-09-22T12:30:31Z</time>
      </trkpt>
      <trkpt lat="45.79754" lon="2.90148">
        <ele>825</ele>
        <time>2013-09-22T12:30:38Z</time>
      </trkpt>
      <trkpt lat="45.79748" lon="2.90158">
        <ele>824</ele>
        <time>2013-09-22T12:30:49Z</time>
      </trkpt>
      <trkpt lat="45.79748" lon="2.90173">
        <ele>827</ele>
        <time>2013-09-22T12:30:57Z</time>
      </trkpt>
      <trkpt lat="45.79744" lon="2.90206">
        <ele>830</ele>
        <time>2013-09-22T12:31:13Z</time>
      </trkpt>
      <trkpt lat="45.79746" lon="2.90229">
        <ele>833</ele>
        <time>2013-09-22T12:31:30Z</time>
      </trkpt>
      <trkpt lat="45.79747" lon="2.90236">
        <ele>834</ele>
        <time>2013-09-22T12:31:38Z</time>
      </trkpt>
      <trkpt lat="45.79745" lon="2.90241">
        <ele>835</ele>
        <time>2013-09-22T12:31:54Z</time>
      </trkpt>
      <trkpt lat="45.79744" lon="2.90244">
        <ele>836</ele>
        <time>2013-09-22T12:31:57Z</time>
      </trkpt>
      <trkpt lat="45.79743" lon="2.90261">
        <ele>838</ele>
        <time>2013-09-22T12:32:04Z</time>
      </trkpt>
      <trkpt lat="45.79737" lon="2.90268">
        <ele>837</ele>
        <time>2013-09-22T12:32:07Z</time>
      </trkpt>
      <trkpt lat="45.79731" lon="2.90274">
        <ele>837</ele>
        <time>2013-09-22T12:32:10Z</time>
      </trkpt>
      <trkpt lat="45.79709" lon="2.90305">
        <ele>837</ele>
        <time>2013-09-22T12:32:26Z</time>
      </trkpt>
      <trkpt lat="45.79709" lon="2.90314">
        <ele>837</ele>
        <time>2013-09-22T12:32:39Z</time>
      </trkpt>
      <trkpt lat="45.7971" lon="2.90316">
        <ele>837</ele>
        <time>2013-09-22T12:32:44Z</time>
      </trkpt>
      <trkpt lat="45.79715" lon="2.90337">
        <ele>839</ele>
        <time>2013-09-22T12:32:54Z</time>
      </trkpt>
      <trkpt lat="45.79729" lon="2.9037">
        <ele>839</ele>
        <time>2013-09-22T12:33:10Z</time>
      </trkpt>
      <trkpt lat="45.79742" lon="2.90398">
        <ele>840</ele>
        <time>2013-09-22T12:33:26Z</time>
      </trkpt>
      <trkpt lat="45.79743" lon="2.90399">
        <ele>840</ele>
        <time>2013-09-22T12:33:27Z</time>
      </trkpt>
      <trkpt lat="45.79775" lon="2.90427">
        <ele>842</ele>
        <time>2013-09-22T12:33:44Z</time>
      </trkpt>
      <trkpt lat="45.79823" lon="2.90441">
        <ele>844</ele>
        <time>2013-09-22T12:33:58Z</time>
      </trkpt>
      <trkpt lat="45.79866" lon="2.90438">
        <ele>848</ele>
        <time>2013-09-22T12:34:11Z</time>
      </trkpt>
      <trkpt lat="45.79905" lon="2.90438">
        <ele>848</ele>
        <time>2013-09-22T12:34:23Z</time>
      </trkpt>
      <trkpt lat="45.79934" lon="2.90426">
        <ele>849</ele>
        <time>2013-09-22T12:34:37Z</time>
      </trkpt>
      <trkpt lat="45.79947" lon="2.90417">
        <ele>847</ele>
        <time>2013-09-22T12:34:46Z</time>
      </trkpt>
      <trkpt lat="45.79975" lon="2.90369">
        <ele>846</ele>
        <time>2013-09-22T12:35:01Z</time>
      </trkpt>
      <trkpt lat="45.8002" lon="2.90357">
        <ele>849</ele>
        <time>2013-09-22T12:35:14Z</time>
      </trkpt>
      <trkpt lat="45.80036" lon="2.90348">
        <ele>850</ele>
        <time>2013-09-22T12:35:18Z</time>
      </trkpt>
      <trkpt lat="45.80076" lon="2.90377">
        <ele>851</ele>
        <time>2013-09-22T12:35:30Z</time>
      </trkpt>
      <trkpt lat="45.80089" lon="2.90378">
        <ele>853</ele>
        <time>2013-09-22T12:35:41Z</time>
      </trkpt>
      <trkpt lat="45.80092" lon="2.9038">
        <ele>853</ele>
        <time>2013-09-22T12:35:48Z</time>
      </trkpt>
      <trkpt lat="45.80104" lon="2.90373">
        <ele>853</ele>
        <time>2013-09-22T12:35:58Z</time>
      </trkpt>
      <trkpt lat="45.80106" lon="2.90373">
        <ele>853</ele>
        <time>2013-09-22T12:35:59Z</time>
      </trkpt>
      <trkpt lat="45.80135" lon="2.90353">
        <ele>854</ele>
        <time>2013-09-22T12:36:14Z</time>
      </trkpt>
      <trkpt lat="45.80154" lon="2.90342">
        <ele>854</ele>
        <time>2013-09-22T12:36:25Z</time>
      </trkpt>
      <trkpt lat="45.80169" lon="2.90337">
        <ele>854</ele>
        <time>2013-09-22T12:36:37Z</time>
      </trkpt>
      <trkpt lat="45.80164" lon="2.90392">
        <ele>854</ele>
        <time>2013-09-22T12:36:51Z</time>
      </trkpt>
      <trkpt lat="45.80169" lon="2.90448">
        <ele>855</ele>
        <time>2013-09-22T12:37:00Z</time>
      </trkpt>
      <trkpt lat="45.80177" lon="2.90471">
        <ele>856</ele>
        <time>2013-09-22T12:37:05Z</time>
      </trkpt>
      <trkpt lat="45.80189" lon="2.90491">
        <ele>856</ele>
        <time>2013-09-22T12:37:15Z</time>
      </trkpt>
      <trkpt lat="45.80193" lon="2.90498">
        <ele>856</ele>
        <time>2013-09-22T12:37:19Z</time>
      </trkpt>
      <trkpt lat="45.80199" lon="2.90515">
        <ele>858</ele>
        <time>2013-09-22T12:37:25Z</time>
      </trkpt>
      <trkpt lat="45.802" lon="2.90518">
        <ele>859</ele>
        <time>2013-09-22T12:37:26Z</time>
      </trkpt>
      <trkpt lat="45.8021" lon="2.90574">
        <ele>860</ele>
        <time>2013-09-22T12:37:42Z</time>
      </trkpt>
      <trkpt lat="45.80209" lon="2.90582">
        <ele>860</ele>
        <time>2013-09-22T12:37:47Z</time>
      </trkpt>
      <trkpt lat="45.80228" lon="2.90622">
        <ele>863</ele>
        <time>2013-09-22T12:38:03Z</time>
      </trkpt>
      <trkpt lat="45.80225" lon="2.9066">
        <ele>863</ele>
        <time>2013-09-22T12:38:16Z</time>
      </trkpt>
      <trkpt lat="45.80205" lon="2.90707">
        <ele>867</ele>
        <time>2013-09-22T12:38:31Z</time>
      </trkpt>
      <trkpt lat="45.80199" lon="2.90732">
        <ele>868</ele>
        <time>2013-09-22T12:38:42Z</time>
      </trkpt>
      <trkpt lat="45.80199" lon="2.90758">
        <ele>871</ele>
        <time>2013-09-22T12:38:55Z</time>
      </trkpt>
      <trkpt lat="45.802" lon="2.90777">
        <ele>872</ele>
        <time>2013-09-22T12:39:07Z</time>
      </trkpt>
      <trkpt lat="45.80197" lon="2.90782">
        <ele>872</ele>
        <time>2013-09-22T12:39:09Z</time>
      </trkpt>
      <trkpt lat="45.80204" lon="2.90807">
        <ele>872</ele>
        <time>2013-09-22T12:39:19Z</time>
      </trkpt>
      <trkpt lat="45.8022" lon="2.90835">
        <ele>874</ele>
        <time>2013-09-22T12:39:33Z</time>
      </trkpt>
      <trkpt lat="45.80235" lon="2.90861">
        <ele>874</ele>
        <time>2013-09-22T12:39:48Z</time>
      </trkpt>
      <trkpt lat="45.80236" lon="2.90869">
        <ele>874</ele>
        <time>2013-09-22T12:39:52Z</time>
      </trkpt>
      <trkpt lat="45.80241" lon="2.90884">
        <ele>875</ele>
        <time>2013-09-22T12:39:58Z</time>
      </trkpt>
      <trkpt lat="45.80243" lon="2.90896">
        <ele>875</ele>
        <time>2013-09-22T12:40:01Z</time>
      </trkpt>
      <trkpt lat="45.80246" lon="2.90906">
        <ele>875</ele>
        <time>2013-09-22T12:40:03Z</time>
      </trkpt>
      <trkpt lat="45.8025" lon="2.90945">
        <ele>878</ele>
        <time>2013-09-22T12:40:17Z</time>
      </trkpt>
      <trkpt lat="45.80247" lon="2.90967">
        <ele>880</ele>
        <time>2013-09-22T12:40:27Z</time>
      </trkpt>
      <trkpt lat="45.80246" lon="2.90969">
        <ele>880</ele>
        <time>2013-09-22T12:40:28Z</time>
      </trkpt>
      <trkpt lat="45.80244" lon="2.90978">
        <ele>880</ele>
        <time>2013-09-22T12:40:33Z</time>
      </trkpt>
      <trkpt lat="45.80241" lon="2.91013">
        <ele>882</ele>
        <time>2013-09-22T12:40:48Z</time>
      </trkpt>
      <trkpt lat="45.80232" lon="2.91022">
        <ele>883</ele>
        <time>2013-09-22T12:40:54Z</time>
      </trkpt>
      <trkpt lat="45.802" lon="2.91027">
        <ele>884</ele>
        <time>2013-09-22T12:41:10Z</time>
      </trkpt>
      <trkpt lat="45.80172" lon="2.91037">
        <ele>885</ele>
        <time>2013-09-22T12:41:23Z</time>
      </trkpt>
      <trkpt lat="45.8016" lon="2.91058">
        <ele>889</ele>
        <time>2013-09-22T12:41:32Z</time>
      </trkpt>
      <trkpt lat="45.80158" lon="2.91063">
        <ele>889</ele>
        <time>2013-09-22T12:41:35Z</time>
      </trkpt>
      <trkpt lat="45.80156" lon="2.91068">
        <ele>889</ele>
        <time>2013-09-22T12:41:37Z</time>
      </trkpt>
      <trkpt lat="45.80153" lon="2.91073">
        <ele>889</ele>
        <time>2013-09-22T12:41:40Z</time>
      </trkpt>
      <trkpt lat="45.80138" lon="2.91086">
        <ele>892</ele>
        <time>2013-09-22T12:41:51Z</time>
      </trkpt>
      <trkpt lat="45.8013" lon="2.91126">
        <ele>893</ele>
        <time>2013-09-22T12:42:06Z</time>
      </trkpt>
      <trkpt lat="45.80117" lon="2.91156">
        <ele>894</ele>
        <time>2013-09-22T12:42:20Z</time>
      </trkpt>
      <trkpt lat="45.80108" lon="2.91188">
        <ele>896</ele>
        <time>2013-09-22T12:42:36Z</time>
      </trkpt>
      <trkpt lat="45.80109" lon="2.9119">
        <ele>896</ele>
        <time>2013-09-22T12:42:37Z</time>
      </trkpt>
      <trkpt lat="45.80109" lon="2.91202">
        <ele>896</ele>
        <time>2013-09-22T12:42:41Z</time>
      </trkpt>
      <trkpt lat="45.80118" lon="2.91241">
        <ele>897</ele>
        <time>2013-09-22T12:42:56Z</time>
      </trkpt>
      <trkpt lat="45.80127" lon="2.91261">
        <ele>899</ele>
        <time>2013-09-22T12:43:04Z</time>
      </trkpt>
      <trkpt lat="45.80129" lon="2.91267">
        <ele>899</ele>
        <time>2013-09-22T12:43:06Z</time>
      </trkpt>
      <trkpt lat="45.80126" lon="2.91295">
        <ele>901</ele>
        <time>2013-09-22T12:43:14Z</time>
      </trkpt>
      <trkpt lat="45.80127" lon="2.91301">
        <ele>901</ele>
        <time>2013-09-22T12:43:16Z</time>
      </trkpt>
      <trkpt lat="45.8012" lon="2.91325">
        <ele>902</ele>
        <time>2013-09-22T12:43:27Z</time>
      </trkpt>
      <trkpt lat="45.80117" lon="2.91353">
        <ele>905</ele>
        <time>2013-09-22T12:43:40Z</time>
      </trkpt>
      <trkpt lat="45.80127" lon="2.91385">
        <ele>906</ele>
        <time>2013-09-22T12:43:54Z</time>
      </trkpt>
      <trkpt lat="45.80136" lon="2.91408">
        <ele>906</ele>
        <time>2013-09-22T12:44:08Z</time>
      </trkpt>
      <trkpt lat="45.80151" lon="2.91423">
        <ele>909</ele>
        <time>2013-09-22T12:44:21Z</time>
      </trkpt>
      <trkpt lat="45.80167" lon="2.91453">
        <ele>911</ele>
        <time>2013-09-22T12:44:35Z</time>
      </trkpt>
      <trkpt lat="45.8018" lon="2.91484">
        <ele>914</ele>
        <time>2013-09-22T12:44:51Z</time>
      </trkpt>
      <trkpt lat="45.80189" lon="2.915">
        <ele>917</ele>
        <time>2013-09-22T12:44:58Z</time>
      </trkpt>
      <trkpt lat="45.80197" lon="2.91518">
        <ele>917</ele>
        <time>2013-09-22T12:45:08Z</time>
      </trkpt>
      <trkpt lat="45.80213" lon="2.91551">
        <ele>918</ele>
        <time>2013-09-22T12:45:25Z</time>
      </trkpt>
      <trkpt lat="45.80231" lon="2.91586">
        <ele>919</ele>
        <time>2013-09-22T12:45:39Z</time>
      </trkpt>
      <trkpt lat="45.80228" lon="2.91605">
        <ele>919</ele>
        <time>2013-09-22T12:45:46Z</time>
      </trkpt>
      <trkpt lat="45.80226" lon="2.91609">
        <ele>919</ele>
        <time>2013-09-22T12:45:48Z</time>
      </trkpt>
      <trkpt lat="45.80215" lon="2.91648">
        <ele>919</ele>
        <time>2013-09-22T12:46:02Z</time>
      </trkpt>
      <trkpt lat="45.80212" lon="2.91699">
        <ele>920</ele>
        <time>2013-09-22T12:46:16Z</time>
      </trkpt>
      <trkpt lat="45.80211" lon="2.91704">
        <ele>921</ele>
        <time>2013-09-22T12:46:17Z</time>
      </trkpt>
      <trkpt lat="45.80207" lon="2.91725">
        <ele>921</ele>
        <time>2013-09-22T12:46:23Z</time>
      </trkpt>
      <trkpt lat="45.80189" lon="2.91759">
        <ele>924</ele>
        <time>2013-09-22T12:46:35Z</time>
      </trkpt>
      <trkpt lat="45.80182" lon="2.91805">
        <ele>925</ele>
        <time>2013-09-22T12:46:49Z</time>
      </trkpt>
      <trkpt lat="45.80177" lon="2.91823">
        <ele>926</ele>
        <time>2013-09-22T12:46:54Z</time>
      </trkpt>
      <trkpt lat="45.80172" lon="2.91846">
        <ele>927</ele>
        <time>2013-09-22T12:46:58Z</time>
      </trkpt>
      <trkpt lat="45.80173" lon="2.91927">
        <ele>929</ele>
        <time>2013-09-22T12:47:12Z</time>
      </trkpt>
      <trkpt lat="45.80176" lon="2.91969">
        <ele>928</ele>
        <time>2013-09-22T12:47:19Z</time>
      </trkpt>
      <trkpt lat="45.80153" lon="2.92052">
        <ele>929</ele>
        <time>2013-09-22T12:47:32Z</time>
      </trkpt>
      <trkpt lat="45.80086" lon="2.92113">
        <ele>932</ele>
        <time>2013-09-22T12:47:47Z</time>
      </trkpt>
      <trkpt lat="45.80065" lon="2.92138">
        <ele>931</ele>
        <time>2013-09-22T12:48:00Z</time>
      </trkpt>
      <trkpt lat="45.80063" lon="2.92147">
        <ele>932</ele>
        <time>2013-09-22T12:48:05Z</time>
      </trkpt>
      <trkpt lat="45.80055" lon="2.92181">
        <ele>933</ele>
        <time>2013-09-22T12:48:23Z</time>
      </trkpt>
      <trkpt lat="45.80049" lon="2.92208">
        <ele>933</ele>
        <time>2013-09-22T12:48:35Z</time>
      </trkpt>
      <trkpt lat="45.80049" lon="2.92258">
        <ele>937</ele>
        <time>2013-09-22T12:48:53Z</time>
      </trkpt>
      <trkpt lat="45.80043" lon="2.92285">
        <ele>938</ele>
        <time>2013-09-22T12:49:02Z</time>
      </trkpt>
      <trkpt lat="45.80047" lon="2.9233">
        <ele>939</ele>
        <time>2013-09-22T12:49:16Z</time>
      </trkpt>
      <trkpt lat="45.80063" lon="2.92371">
        <ele>945</ele>
        <time>2013-09-22T12:49:32Z</time>
      </trkpt>
      <trkpt lat="45.80071" lon="2.92391">
        <ele>946</ele>
        <time>2013-09-22T12:49:40Z</time>
      </trkpt>
      <trkpt lat="45.80086" lon="2.92425">
        <ele>949</ele>
        <time>2013-09-22T12:49:55Z</time>
      </trkpt>
      <trkpt lat="45.80095" lon="2.92465">
        <ele>950</ele>
        <time>2013-09-22T12:50:13Z</time>
      </trkpt>
      <trkpt lat="45.80096" lon="2.92504">
        <ele>954</ele>
        <time>2013-09-22T12:50:29Z</time>
      </trkpt>
      <trkpt lat="45.80102" lon="2.92549">
        <ele>955</ele>
        <time>2013-09-22T12:50:45Z</time>
      </trkpt>
      <trkpt lat="45.80102" lon="2.92587">
        <ele>959</ele>
        <time>2013-09-22T12:50:59Z</time>
      </trkpt>
      <trkpt lat="45.80081" lon="2.92627">
        <ele>962</ele>
        <time>2013-09-22T12:51:14Z</time>
      </trkpt>
      <trkpt lat="45.80047" lon="2.92657">
        <ele>963</ele>
        <time>2013-09-22T12:51:30Z</time>
      </trkpt>
      <trkpt lat="45.80046" lon="2.92661">
        <ele>963</ele>
        <time>2013-09-22T12:51:31Z</time>
      </trkpt>
      <trkpt lat="45.79971" lon="2.92739">
        <ele>965</ele>
        <time>2013-09-22T12:51:47Z</time>
      </trkpt>
      <trkpt lat="45.79964" lon="2.92742">
        <ele>965</ele>
        <time>2013-09-22T12:51:48Z</time>
      </trkpt>
      <trkpt lat="45.79934" lon="2.92784">
        <ele>967</ele>
        <time>2013-09-22T12:52:01Z</time>
      </trkpt>
      <trkpt lat="45.7992" lon="2.92846">
        <ele>968</ele>
        <time>2013-09-22T12:52:16Z</time>
      </trkpt>
      <trkpt lat="45.79916" lon="2.9291">
        <ele>970</ele>
        <time>2013-09-22T12:52:31Z</time>
      </trkpt>
      <trkpt lat="45.79912" lon="2.92927">
        <ele>971</ele>
        <time>2013-09-22T12:52:36Z</time>
      </trkpt>
      <trkpt lat="45.79912" lon="2.92985">
        <ele>972</ele>
        <time>2013-09-22T12:52:50Z</time>
      </trkpt>
      <trkpt lat="45.79911" lon="2.92991">
        <ele>972</ele>
        <time>2013-09-22T12:52:52Z</time>
      </trkpt>
      <trkpt lat="45.79907" lon="2.92996">
        <ele>972</ele>
        <time>2013-09-22T12:53:00Z</time>
      </trkpt>
      <trkpt lat="45.79907" lon="2.92995">
        <ele>972</ele>
        <time>2013-09-22T12:53:22Z</time>
      </trkpt>
      <trkpt lat="45.79907" lon="2.92995">
        <ele>972</ele>
        <time>2013-09-22T12:53:41Z</time>
      </trkpt>
      <trkpt lat="45.79903" lon="2.92992">
        <ele>972</ele>
        <time>2013-09-22T12:53:55Z</time>
      </trkpt>
      <trkpt lat="45.79902" lon="2.92991">
        <ele>972</ele>
        <time>2013-09-22T12:54:07Z</time>
      </trkpt>
      <trkpt lat="45.79902" lon="2.92991">
        <ele>972</ele>
        <time>2013-09-22T12:54:21Z</time>
      </trkpt>
      <trkpt lat="45.79902" lon="2.9299">
        <ele>972</ele>
        <time>2013-09-22T12:54:40Z</time>
      </trkpt>
      <trkpt lat="45.79902" lon="2.9299">
        <ele>972</ele>
        <time>2013-09-22T12:54:55Z</time>
      </trkpt>
      <trkpt lat="45.79902" lon="2.9299">
        <ele>972</ele>
        <time>2013-09-22T12:54:56Z</time>
      </trkpt>
      <trkpt lat="45.79902" lon="2.92991">
        <ele>972</ele>
        <time>2013-09-22T12:55:11Z</time>
      </trkpt>
      <trkpt lat="45.799" lon="2.9299">
        <ele>972</ele>
        <time>2013-09-22T12:55:27Z</time>
      </trkpt>
      <trkpt lat="45.799" lon="2.9299">
        <ele>972</ele>
        <time>2013-09-22T12:55:53Z</time>
      </trkpt>
      <trkpt lat="45.799" lon="2.92993">
        <ele>972</ele>
        <time>2013-09-22T12:56:12Z</time>
      </trkpt>
      <trkpt lat="45.79901" lon="2.92992">
        <ele>972</ele>
        <time>2013-09-22T12:56:24Z</time>
      </trkpt>
      <trkpt lat="45.79898" lon="2.92994">
        <ele>972</ele>
        <time>2013-09-22T12:56:38Z</time>
      </trkpt>
      <trkpt lat="45.79896" lon="2.92995">
        <ele>972</ele>
        <time>2013-09-22T12:56:46Z</time>
      </trkpt>
      <trkpt lat="45.79897" lon="2.92998">
        <ele>972</ele>
        <time>2013-09-22T12:57:04Z</time>
      </trkpt>
      <trkpt lat="45.79898" lon="2.92999">
        <ele>972</ele>
        <time>2013-09-22T12:57:33Z</time>
      </trkpt>
      <trkpt lat="45.79898" lon="2.92998">
        <ele>972</ele>
        <time>2013-09-22T12:58:11Z</time>
      </trkpt>
      <trkpt lat="45.79899" lon="2.92998">
        <ele>972</ele>
        <time>2013-09-22T12:58:51Z</time>
      </trkpt>
      <trkpt lat="45.79898" lon="2.92997">
        <ele>972</ele>
        <time>2013-09-22T12:59:23Z</time>
      </trkpt>
      <trkpt lat="45.79899" lon="2.92997">
        <ele>972</ele>
        <time>2013-09-22T12:59:41Z</time>
      </trkpt>
      <trkpt lat="45.79899" lon="2.92997">
        <ele>972</ele>
        <time>2013-09-22T12:59:42Z</time>
      </trkpt>
      <trkpt lat="45.79899" lon="2.92997">
        <ele>972</ele>
        <time>2013-09-22T12:59:59Z</time>
      </trkpt>
      <trkpt lat="45.79902" lon="2.93002">
        <ele>974</ele>
        <time>2013-09-22T13:00:18Z</time>
      </trkpt>
      <trkpt lat="45.79901" lon="2.93003">
        <ele>974</ele>
        <time>2013-09-22T13:00:33Z</time>
      </trkpt>
      <trkpt lat="45.79901" lon="2.93003">
        <ele>974</ele>
        <time>2013-09-22T13:00:35Z</time>
      </trkpt>
      <trkpt lat="45.79895" lon="2.93013">
        <ele>974</ele>
        <time>2013-09-22T13:00:41Z</time>
      </trkpt>
      <trkpt lat="45.79896" lon="2.93039">
        <ele>975</ele>
        <time>2013-09-22T13:00:56Z</time>
      </trkpt>
      <trkpt lat="45.79896" lon="2.93043">
        <ele>975</ele>
        <time>2013-09-22T13:00:58Z</time>
      </trkpt>
      <trkpt lat="45.79899" lon="2.93103">
        <ele>978</ele>
        <time>2013-09-22T13:01:13Z</time>
      </trkpt>
      <trkpt lat="45.79896" lon="2.93166">
        <ele>979</ele>
        <time>2013-09-22T13:01:27Z</time>
      </trkpt>
      <trkpt lat="45.79895" lon="2.93236">
        <ele>980</ele>
        <time>2013-09-22T13:01:40Z</time>
      </trkpt>
      <trkpt lat="45.79913" lon="2.93296">
        <ele>982</ele>
        <time>2013-09-22T13:01:54Z</time>
      </trkpt>
      <trkpt lat="45.79915" lon="2.93309">
        <ele>982</ele>
        <time>2013-09-22T13:01:58Z</time>
      </trkpt>
      <trkpt lat="45.7993" lon="2.93365">
        <ele>982</ele>
        <time>2013-09-22T13:02:11Z</time>
      </trkpt>
      <trkpt lat="45.79967" lon="2.9338">
        <ele>981</ele>
        <time>2013-09-22T13:02:24Z</time>
      </trkpt>
      <trkpt lat="45.79967" lon="2.9338">
        <ele>981</ele>
        <time>2013-09-22T13:02:54Z</time>
      </trkpt>
      <trkpt lat="45.79967" lon="2.9338">
        <ele>981</ele>
        <time>2013-09-22T13:03:25Z</time>
      </trkpt>
      <trkpt lat="45.79969" lon="2.93382">
        <ele>981</ele>
        <time>2013-09-22T13:03:38Z</time>
      </trkpt>
      <trkpt lat="45.79982" lon="2.93391">
        <ele>981</ele>
        <time>2013-09-22T13:03:43Z</time>
      </trkpt>
      <trkpt lat="45.80011" lon="2.93401">
        <ele>975</ele>
        <time>2013-09-22T13:03:51Z</time>
      </trkpt>
      <trkpt lat="45.80043" lon="2.93416">
        <ele>972</ele>
        <time>2013-09-22T13:03:58Z</time>
      </trkpt>
      <trkpt lat="45.80048" lon="2.93419">
        <ele>977</ele>
        <time>2013-09-22T13:03:59Z</time>
      </trkpt>
      <trkpt lat="45.80052" lon="2.93422">
        <ele>976</ele>
        <time>2013-09-22T13:04:00Z</time>
      </trkpt>
      <trkpt lat="45.80076" lon="2.93437">
        <ele>975</ele>
        <time>2013-09-22T13:04:05Z</time>
      </trkpt>
      <trkpt lat="45.80085" lon="2.93442">
        <ele>969</ele>
        <time>2013-09-22T13:04:06Z</time>
      </trkpt>
      <trkpt lat="45.80092" lon="2.93442">
        <ele>969</ele>
        <time>2013-09-22T13:04:07Z</time>
      </trkpt>
      <trkpt lat="45.80125" lon="2.93449">
        <ele>969</ele>
        <time>2013-09-22T13:04:11Z</time>
      </trkpt>
      <trkpt lat="45.80151" lon="2.93512">
        <ele>970</ele>
        <time>2013-09-22T13:04:24Z</time>
      </trkpt>
      <trkpt lat="45.80163" lon="2.9358">
        <ele>969</ele>
        <time>2013-09-22T13:04:34Z</time>
      </trkpt>
      <trkpt lat="45.80178" lon="2.93632">
        <ele>968</ele>
        <time>2013-09-22T13:04:46Z</time>
      </trkpt>
      <trkpt lat="45.80191" lon="2.93657">
        <ele>969</ele>
        <time>2013-09-22T13:04:52Z</time>
      </trkpt>
      <trkpt lat="45.80205" lon="2.9368">
        <ele>971</ele>
        <time>2013-09-22T13:04:57Z</time>
      </trkpt>
      <trkpt lat="45.80212" lon="2.93697">
        <ele>971</ele>
        <time>2013-09-22T13:05:00Z</time>
      </trkpt>
      <trkpt lat="45.8022" lon="2.93718">
        <ele>970</ele>
        <time>2013-09-22T13:05:03Z</time>
      </trkpt>
      <trkpt lat="45.80226" lon="2.93731">
        <ele>970</ele>
        <time>2013-09-22T13:05:05Z</time>
      </trkpt>
      <trkpt lat="45.80235" lon="2.9376">
        <ele>970</ele>
        <time>2013-09-22T13:05:09Z</time>
      </trkpt>
      <trkpt lat="45.80248" lon="2.93802">
        <ele>972</ele>
        <time>2013-09-22T13:05:14Z</time>
      </trkpt>
      <trkpt lat="45.80252" lon="2.93811">
        <ele>962</ele>
        <time>2013-09-22T13:05:15Z</time>
      </trkpt>
      <trkpt lat="45.80259" lon="2.93833">
        <ele>963</ele>
        <time>2013-09-22T13:05:17Z</time>
      </trkpt>
      <trkpt lat="45.80269" lon="2.93858">
        <ele>962</ele>
        <time>2013-09-22T13:05:20Z</time>
      </trkpt>
      <trkpt lat="45.80284" lon="2.9389">
        <ele>961</ele>
        <time>2013-09-22T13:05:25Z</time>
      </trkpt>
      <trkpt lat="45.80302" lon="2.9394">
        <ele>961</ele>
        <time>2013-09-22T13:05:31Z</time>
      </trkpt>
      <trkpt lat="45.80309" lon="2.93956">
        <ele>960</ele>
        <time>2013-09-22T13:05:33Z</time>
      </trkpt>
      <trkpt lat="45.80321" lon="2.93971">
        <ele>959</ele>
        <time>2013-09-22T13:05:36Z</time>
      </trkpt>
      <trkpt lat="45.80341" lon="2.9398">
        <ele>949</ele>
        <time>2013-09-22T13:05:40Z</time>
      </trkpt>
      <trkpt lat="45.80357" lon="2.93987">
        <ele>948</ele>
        <time>2013-09-22T13:05:44Z</time>
      </trkpt>
      <trkpt lat="45.80368" lon="2.93986">
        <ele>947</ele>
        <time>2013-09-22T13:05:47Z</time>
      </trkpt>
      <trkpt lat="45.80386" lon="2.93955">
        <ele>946</ele>
        <time>2013-09-22T13:05:55Z</time>
      </trkpt>
      <trkpt lat="45.80388" lon="2.93952">
        <ele>946</ele>
        <time>2013-09-22T13:05:56Z</time>
      </trkpt>
      <trkpt lat="45.80418" lon="2.93925">
        <ele>942</ele>
        <time>2013-09-22T13:06:05Z</time>
      </trkpt>
      <trkpt lat="45.80449" lon="2.93899">
        <ele>939</ele>
        <time>2013-09-22T13:06:12Z</time>
      </trkpt>
      <trkpt lat="45.80462" lon="2.93891">
        <ele>938</ele>
        <time>2013-09-22T13:06:15Z</time>
      </trkpt>
      <trkpt lat="45.80479" lon="2.93901">
        <ele>937</ele>
        <time>2013-09-22T13:06:19Z</time>
      </trkpt>
      <trkpt lat="45.80486" lon="2.93911">
        <ele>935</ele>
        <time>2013-09-22T13:06:21Z</time>
      </trkpt>
      <trkpt lat="45.80507" lon="2.94023">
        <ele>929</ele>
        <time>2013-09-22T13:06:38Z</time>
      </trkpt>
      <trkpt lat="45.80533" lon="2.94105">
        <ele>929</ele>
        <time>2013-09-22T13:06:52Z</time>
      </trkpt>
      <trkpt lat="45.80571" lon="2.94191">
        <ele>931</ele>
        <time>2013-09-22T13:07:06Z</time>
      </trkpt>
      <trkpt lat="45.80617" lon="2.9426">
        <ele>931</ele>
        <time>2013-09-22T13:07:19Z</time>
      </trkpt>
      <trkpt lat="45.80631" lon="2.9428">
        <ele>931</ele>
        <time>2013-09-22T13:07:23Z</time>
      </trkpt>
      <trkpt lat="45.80667" lon="2.94327">
        <ele>931</ele>
        <time>2013-09-22T13:07:34Z</time>
      </trkpt>
      <trkpt lat="45.80673" lon="2.94336">
        <ele>932</ele>
        <time>2013-09-22T13:07:36Z</time>
      </trkpt>
      <trkpt lat="45.80713" lon="2.94398">
        <ele>935</ele>
        <time>2013-09-22T13:07:50Z</time>
      </trkpt>
      <trkpt lat="45.80754" lon="2.94438">
        <ele>939</ele>
        <time>2013-09-22T13:08:05Z</time>
      </trkpt>
      <trkpt lat="45.80777" lon="2.94469">
        <ele>939</ele>
        <time>2013-09-22T13:08:17Z</time>
      </trkpt>
      <trkpt lat="45.80806" lon="2.94503">
        <ele>940</ele>
        <time>2013-09-22T13:08:30Z</time>
      </trkpt>
      <trkpt lat="45.8083" lon="2.94524">
        <ele>940</ele>
        <time>2013-09-22T13:08:42Z</time>
      </trkpt>
      <trkpt lat="45.80861" lon="2.94549">
        <ele>941</ele>
        <time>2013-09-22T13:08:56Z</time>
      </trkpt>
      <trkpt lat="45.80889" lon="2.94582">
        <ele>941</ele>
        <time>2013-09-22T13:09:11Z</time>
      </trkpt>
      <trkpt lat="45.80919" lon="2.94622">
        <ele>944</ele>
        <time>2013-09-22T13:09:27Z</time>
      </trkpt>
      <trkpt lat="45.80952" lon="2.94665">
        <ele>945</ele>
        <time>2013-09-22T13:09:44Z</time>
      </trkpt>
      <trkpt lat="45.80982" lon="2.94691">
        <ele>947</ele>
        <time>2013-09-22T13:09:58Z</time>
      </trkpt>
      <trkpt lat="45.81019" lon="2.94726">
        <ele>947</ele>
        <time>2013-09-22T13:10:14Z</time>
      </trkpt>
      <trkpt lat="45.81049" lon="2.94765">
        <ele>949</ele>
        <time>2013-09-22T13:10:28Z</time>
      </trkpt>
      <trkpt lat="45.81072" lon="2.94798">
        <ele>949</ele>
        <time>2013-09-22T13:10:42Z</time>
      </trkpt>
      <trkpt lat="45.81104" lon="2.94854">
        <ele>952</ele>
        <time>2013-09-22T13:10:59Z</time>
      </trkpt>
      <trkpt lat="45.81138" lon="2.94908">
        <ele>953</ele>
        <time>2013-09-22T13:11:15Z</time>
      </trkpt>
      <trkpt lat="45.81163" lon="2.94964">
        <ele>956</ele>
        <time>2013-09-22T13:11:30Z</time>
      </trkpt>
      <trkpt lat="45.81186" lon="2.95005">
        <ele>959</ele>
        <time>2013-09-22T13:11:43Z</time>
      </trkpt>
      <trkpt lat="45.81214" lon="2.95057">
        <ele>960</ele>
        <time>2013-09-22T13:11:57Z</time>
      </trkpt>
      <trkpt lat="45.81249" lon="2.95091">
        <ele>960</ele>
        <time>2013-09-22T13:12:09Z</time>
      </trkpt>
      <trkpt lat="45.81272" lon="2.95119">
        <ele>958</ele>
        <time>2013-09-22T13:12:19Z</time>
      </trkpt>
      <trkpt lat="45.8129" lon="2.95169">
        <ele>961</ele>
        <time>2013-09-22T13:12:30Z</time>
      </trkpt>
      <trkpt lat="45.81312" lon="2.95243">
        <ele>962</ele>
        <time>2013-09-22T13:12:44Z</time>
      </trkpt>
      <trkpt lat="45.81324" lon="2.9527">
        <ele>965</ele>
        <time>2013-09-22T13:12:50Z</time>
      </trkpt>
      <trkpt lat="45.81329" lon="2.95305">
        <ele>966</ele>
        <time>2013-09-22T13:12:56Z</time>
      </trkpt>
      <trkpt lat="45.81344" lon="2.95344">
        <ele>963</ele>
        <time>2013-09-22T13:13:04Z</time>
      </trkpt>
      <trkpt lat="45.81392" lon="2.95343">
        <ele>960</ele>
        <time>2013-09-22T13:13:15Z</time>
      </trkpt>
      <trkpt lat="45.81399" lon="2.95333">
        <ele>960</ele>
        <time>2013-09-22T13:13:17Z</time>
      </trkpt>
      <trkpt lat="45.8141" lon="2.95316">
        <ele>960</ele>
        <time>2013-09-22T13:13:21Z</time>
      </trkpt>
      <trkpt lat="45.81422" lon="2.95318">
        <ele>958</ele>
        <time>2013-09-22T13:13:30Z</time>
      </trkpt>
      <trkpt lat="45.81422" lon="2.95318">
        <ele>958</ele>
        <time>2013-09-22T13:13:38Z</time>
      </trkpt>
      <trkpt lat="45.81424" lon="2.95317">
        <ele>958</ele>
        <time>2013-09-22T13:13:40Z</time>
      </trkpt>
      <trkpt lat="45.81429" lon="2.95315">
        <ele>958</ele>
        <time>2013-09-22T13:13:43Z</time>
      </trkpt>
      <trkpt lat="45.81442" lon="2.95322">
        <ele>958</ele>
        <time>2013-09-22T13:13:50Z</time>
      </trkpt>
      <trkpt lat="45.81457" lon="2.95341">
        <ele>954</ele>
        <time>2013-09-22T13:13:56Z</time>
      </trkpt>
      <trkpt lat="45.81448" lon="2.95421">
        <ele>952</ele>
        <time>2013-09-22T13:14:09Z</time>
      </trkpt>
      <trkpt lat="45.81426" lon="2.95486">
        <ele>953</ele>
        <time>2013-09-22T13:14:22Z</time>
      </trkpt>
      <trkpt lat="45.81412" lon="2.95553">
        <ele>958</ele>
        <time>2013-09-22T13:14:34Z</time>
      </trkpt>
      <trkpt lat="45.81412" lon="2.95565">
        <ele>957</ele>
        <time>2013-09-22T13:14:36Z</time>
      </trkpt>
      <trkpt lat="45.81421" lon="2.95649">
        <ele>955</ele>
        <time>2013-09-22T13:14:51Z</time>
      </trkpt>
      <trkpt lat="45.81422" lon="2.95712">
        <ele>954</ele>
        <time>2013-09-22T13:15:04Z</time>
      </trkpt>
      <trkpt lat="45.81429" lon="2.95774">
        <ele>955</ele>
        <time>2013-09-22T13:15:18Z</time>
      </trkpt>
      <trkpt lat="45.81434" lon="2.95814">
        <ele>956</ele>
        <time>2013-09-22T13:15:29Z</time>
      </trkpt>
      <trkpt lat="45.81465" lon="2.95842">
        <ele>960</ele>
        <time>2013-09-22T13:15:40Z</time>
      </trkpt>
      <trkpt lat="45.81476" lon="2.95849">
        <ele>959</ele>
        <time>2013-09-22T13:15:43Z</time>
      </trkpt>
      <trkpt lat="45.81504" lon="2.95862">
        <ele>957</ele>
        <time>2013-09-22T13:15:50Z</time>
      </trkpt>
      <trkpt lat="45.81575" lon="2.95905">
        <ele>958</ele>
        <time>2013-09-22T13:16:07Z</time>
      </trkpt>
      <trkpt lat="45.81603" lon="2.95923">
        <ele>957</ele>
        <time>2013-09-22T13:16:13Z</time>
      </trkpt>
      <trkpt lat="45.81656" lon="2.95955">
        <ele>957</ele>
        <time>2013-09-22T13:16:25Z</time>
      </trkpt>
      <trkpt lat="45.81675" lon="2.95964">
        <ele>955</ele>
        <time>2013-09-22T13:16:29Z</time>
      </trkpt>
      <trkpt lat="45.81707" lon="2.95984">
        <ele>955</ele>
        <time>2013-09-22T13:16:36Z</time>
      </trkpt>
      <trkpt lat="45.81712" lon="2.95986">
        <ele>955</ele>
        <time>2013-09-22T13:16:37Z</time>
      </trkpt>
      <trkpt lat="45.81722" lon="2.95992">
        <ele>955</ele>
        <time>2013-09-22T13:16:39Z</time>
      </trkpt>
      <trkpt lat="45.81754" lon="2.96015">
        <ele>957</ele>
        <time>2013-09-22T13:16:48Z</time>
      </trkpt>
      <trkpt lat="45.81783" lon="2.96042">
        <ele>959</ele>
        <time>2013-09-22T13:16:59Z</time>
      </trkpt>
      <trkpt lat="45.81789" lon="2.96048">
        <ele>959</ele>
        <time>2013-09-22T13:17:01Z</time>
      </trkpt>
      <trkpt lat="45.81833" lon="2.9609">
        <ele>962</ele>
        <time>2013-09-22T13:17:12Z</time>
      </trkpt>
      <trkpt lat="45.81845" lon="2.96101">
        <ele>963</ele>
        <time>2013-09-22T13:17:15Z</time>
      </trkpt>
      <trkpt lat="45.81886" lon="2.96131">
        <ele>964</ele>
        <time>2013-09-22T13:17:27Z</time>
      </trkpt>
      <trkpt lat="45.81904" lon="2.96145">
        <ele>964</ele>
        <time>2013-09-22T13:17:32Z</time>
      </trkpt>
      <trkpt lat="45.81916" lon="2.96156">
        <ele>964</ele>
        <time>2013-09-22T13:17:35Z</time>
      </trkpt>
      <trkpt lat="45.81973" lon="2.96198">
        <ele>964</ele>
        <time>2013-09-22T13:17:50Z</time>
      </trkpt>
      <trkpt lat="45.82031" lon="2.9624">
        <ele>966</ele>
        <time>2013-09-22T13:18:06Z</time>
      </trkpt>
      <trkpt lat="45.82079" lon="2.96254">
        <ele>969</ele>
        <time>2013-09-22T13:18:19Z</time>
      </trkpt>
      <trkpt lat="45.82101" lon="2.96258">
        <ele>971</ele>
        <time>2013-09-22T13:18:25Z</time>
      </trkpt>
      <trkpt lat="45.82153" lon="2.96272">
        <ele>972</ele>
        <time>2013-09-22T13:18:39Z</time>
      </trkpt>
      <trkpt lat="45.82206" lon="2.9628">
        <ele>974</ele>
        <time>2013-09-22T13:18:53Z</time>
      </trkpt>
      <trkpt lat="45.82261" lon="2.9629">
        <ele>976</ele>
        <time>2013-09-22T13:19:08Z</time>
      </trkpt>
      <trkpt lat="45.82311" lon="2.9632">
        <ele>978</ele>
        <time>2013-09-22T13:19:23Z</time>
      </trkpt>
      <trkpt lat="45.82361" lon="2.9632">
        <ele>980</ele>
        <time>2013-09-22T13:19:37Z</time>
      </trkpt>
      <trkpt lat="45.82399" lon="2.96316">
        <ele>980</ele>
        <time>2013-09-22T13:19:50Z</time>
      </trkpt>
      <trkpt lat="45.82441" lon="2.96316">
        <ele>979</ele>
        <time>2013-09-22T13:20:04Z</time>
      </trkpt>
      <trkpt lat="45.82472" lon="2.96326">
        <ele>979</ele>
        <time>2013-09-22T13:20:15Z</time>
      </trkpt>
      <trkpt lat="45.82486" lon="2.9633">
        <ele>978</ele>
        <time>2013-09-22T13:20:17Z</time>
      </trkpt>
      <trkpt lat="45.82514" lon="2.96343">
        <ele>978</ele>
        <time>2013-09-22T13:20:23Z</time>
      </trkpt>
      <trkpt lat="45.82549" lon="2.9636">
        <ele>978</ele>
        <time>2013-09-22T13:20:30Z</time>
      </trkpt>
      <trkpt lat="45.82582" lon="2.96383">
        <ele>978</ele>
        <time>2013-09-22T13:20:36Z</time>
      </trkpt>
      <trkpt lat="45.82661" lon="2.96441">
        <ele>971</ele>
        <time>2013-09-22T13:20:48Z</time>
      </trkpt>
      <trkpt lat="45.82668" lon="2.96446">
        <ele>965</ele>
        <time>2013-09-22T13:20:49Z</time>
      </trkpt>
      <trkpt lat="45.82705" lon="2.9648">
        <ele>964</ele>
        <time>2013-09-22T13:20:54Z</time>
      </trkpt>
      <trkpt lat="45.82726" lon="2.96505">
        <ele>963</ele>
        <time>2013-09-22T13:20:57Z</time>
      </trkpt>
      <trkpt lat="45.82746" lon="2.96532">
        <ele>963</ele>
        <time>2013-09-22T13:21:00Z</time>
      </trkpt>
      <trkpt lat="45.82811" lon="2.9666">
        <ele>958</ele>
        <time>2013-09-22T13:21:13Z</time>
      </trkpt>
      <trkpt lat="45.82855" lon="2.96759">
        <ele>952</ele>
        <time>2013-09-22T13:21:24Z</time>
      </trkpt>
      <trkpt lat="45.82875" lon="2.96809">
        <ele>951</ele>
        <time>2013-09-22T13:21:29Z</time>
      </trkpt>
      <trkpt lat="45.829" lon="2.96846">
        <ele>950</ele>
        <time>2013-09-22T13:21:33Z</time>
      </trkpt>
      <trkpt lat="45.82908" lon="2.96855">
        <ele>950</ele>
        <time>2013-09-22T13:21:34Z</time>
      </trkpt>
      <trkpt lat="45.82928" lon="2.96884">
        <ele>944</ele>
        <time>2013-09-22T13:21:37Z</time>
      </trkpt>
      <trkpt lat="45.82947" lon="2.96915">
        <ele>943</ele>
        <time>2013-09-22T13:21:40Z</time>
      </trkpt>
      <trkpt lat="45.82958" lon="2.96934">
        <ele>942</ele>
        <time>2013-09-22T13:21:42Z</time>
      </trkpt>
      <trkpt lat="45.82965" lon="2.96953">
        <ele>942</ele>
        <time>2013-09-22T13:21:44Z</time>
      </trkpt>
      <trkpt lat="45.82968" lon="2.96963">
        <ele>942</ele>
        <time>2013-09-22T13:21:45Z</time>
      </trkpt>
      <trkpt lat="45.83002" lon="2.97108">
        <ele>937</ele>
        <time>2013-09-22T13:22:00Z</time>
      </trkpt>
      <trkpt lat="45.83005" lon="2.9713">
        <ele>937</ele>
        <time>2013-09-22T13:22:02Z</time>
      </trkpt>
      <trkpt lat="45.83032" lon="2.97244">
        <ele>932</ele>
        <time>2013-09-22T13:22:12Z</time>
      </trkpt>
      <trkpt lat="45.83034" lon="2.97256">
        <ele>930</ele>
        <time>2013-09-22T13:22:13Z</time>
      </trkpt>
      <trkpt lat="45.83041" lon="2.97308">
        <ele>929</ele>
        <time>2013-09-22T13:22:17Z</time>
      </trkpt>
      <trkpt lat="45.83045" lon="2.97336">
        <ele>927</ele>
        <time>2013-09-22T13:22:19Z</time>
      </trkpt>
      <trkpt lat="45.83051" lon="2.97362">
        <ele>926</ele>
        <time>2013-09-22T13:22:21Z</time>
      </trkpt>
      <trkpt lat="45.83062" lon="2.97393">
        <ele>923</ele>
        <time>2013-09-22T13:22:23Z</time>
      </trkpt>
      <trkpt lat="45.83072" lon="2.97425">
        <ele>918</ele>
        <time>2013-09-22T13:22:26Z</time>
      </trkpt>
      <trkpt lat="45.83085" lon="2.97466">
        <ele>911</ele>
        <time>2013-09-22T13:22:29Z</time>
      </trkpt>
      <trkpt lat="45.83098" lon="2.97507">
        <ele>909</ele>
        <time>2013-09-22T13:22:32Z</time>
      </trkpt>
      <trkpt lat="45.83102" lon="2.97523">
        <ele>908</ele>
        <time>2013-09-22T13:22:33Z</time>
      </trkpt>
      <trkpt lat="45.83114" lon="2.97572">
        <ele>906</ele>
        <time>2013-09-22T13:22:36Z</time>
      </trkpt>
      <trkpt lat="45.83117" lon="2.97587">
        <ele>904</ele>
        <time>2013-09-22T13:22:37Z</time>
      </trkpt>
      <trkpt lat="45.83122" lon="2.97631">
        <ele>902</ele>
        <time>2013-09-22T13:22:40Z</time>
      </trkpt>
      <trkpt lat="45.83115" lon="2.97702">
        <ele>900</ele>
        <time>2013-09-22T13:22:45Z</time>
      </trkpt>
      <trkpt lat="45.83106" lon="2.97754">
        <ele>898</ele>
        <time>2013-09-22T13:22:49Z</time>
      </trkpt>
      <trkpt lat="45.83101" lon="2.97795">
        <ele>898</ele>
        <time>2013-09-22T13:22:52Z</time>
      </trkpt>
      <trkpt lat="45.83082" lon="2.9792">
        <ele>896</ele>
        <time>2013-09-22T13:23:01Z</time>
      </trkpt>
      <trkpt lat="45.83079" lon="2.97933">
        <ele>897</ele>
        <time>2013-09-22T13:23:02Z</time>
      </trkpt>
      <trkpt lat="45.83074" lon="2.97958">
        <ele>897</ele>
        <time>2013-09-22T13:23:04Z</time>
      </trkpt>
      <trkpt lat="45.83062" lon="2.98032">
        <ele>893</ele>
        <time>2013-09-22T13:23:10Z</time>
      </trkpt>
      <trkpt lat="45.83052" lon="2.98067">
        <ele>892</ele>
        <time>2013-09-22T13:23:13Z</time>
      </trkpt>
      <trkpt lat="45.82996" lon="2.98163">
        <ele>884</ele>
        <time>2013-09-22T13:23:23Z</time>
      </trkpt>
      <trkpt lat="45.8294" lon="2.98218">
        <ele>882</ele>
        <time>2013-09-22T13:23:31Z</time>
      </trkpt>
      <trkpt lat="45.82859" lon="2.98278">
        <ele>886</ele>
        <time>2013-09-22T13:23:43Z</time>
      </trkpt>
      <trkpt lat="45.82792" lon="2.98314">
        <ele>889</ele>
        <time>2013-09-22T13:23:56Z</time>
      </trkpt>
      <trkpt lat="45.82777" lon="2.98326">
        <ele>888</ele>
        <time>2013-09-22T13:24:00Z</time>
      </trkpt>
      <trkpt lat="45.82718" lon="2.98349">
        <ele>889</ele>
        <time>2013-09-22T13:24:15Z</time>
      </trkpt>
      <trkpt lat="45.82706" lon="2.98354">
        <ele>889</ele>
        <time>2013-09-22T13:24:23Z</time>
      </trkpt>
      <trkpt lat="45.82706" lon="2.98354">
        <ele>889</ele>
        <time>2013-09-22T13:24:36Z</time>
      </trkpt>
      <trkpt lat="45.82706" lon="2.98354">
        <ele>889</ele>
        <time>2013-09-22T13:24:43Z</time>
      </trkpt>
      <trkpt lat="45.82715" lon="2.98369">
        <ele>889</ele>
        <time>2013-09-22T13:24:49Z</time>
      </trkpt>
      <trkpt lat="45.8274" lon="2.98408">
        <ele>887</ele>
        <time>2013-09-22T13:24:57Z</time>
      </trkpt>
      <trkpt lat="45.82743" lon="2.98433">
        <ele>886</ele>
        <time>2013-09-22T13:25:01Z</time>
      </trkpt>
      <trkpt lat="45.82738" lon="2.98446">
        <ele>887</ele>
        <time>2013-09-22T13:25:03Z</time>
      </trkpt>
      <trkpt lat="45.82717" lon="2.98533">
        <ele>887</ele>
        <time>2013-09-22T13:25:16Z</time>
      </trkpt>
      <trkpt lat="45.82709" lon="2.98551">
        <ele>887</ele>
        <time>2013-09-22T13:25:19Z</time>
      </trkpt>
      <trkpt lat="45.8269" lon="2.9858">
        <ele>887</ele>
        <time>2013-09-22T13:25:24Z</time>
      </trkpt>
      <trkpt lat="45.82649" lon="2.98648">
        <ele>888</ele>
        <time>2013-09-22T13:25:37Z</time>
      </trkpt>
      <trkpt lat="45.8263" lon="2.98686">
        <ele>885</ele>
        <time>2013-09-22T13:25:42Z</time>
      </trkpt>
      <trkpt lat="45.82605" lon="2.98729">
        <ele>883</ele>
        <time>2013-09-22T13:25:48Z</time>
      </trkpt>
      <trkpt lat="45.8259" lon="2.98752">
        <ele>880</ele>
        <time>2013-09-22T13:25:52Z</time>
      </trkpt>
      <trkpt lat="45.82563" lon="2.98808">
        <ele>884</ele>
        <time>2013-09-22T13:26:02Z</time>
      </trkpt>
      <trkpt lat="45.82553" lon="2.98825">
        <ele>884</ele>
        <time>2013-09-22T13:26:11Z</time>
      </trkpt>
      <trkpt lat="45.82549" lon="2.98835">
        <ele>888</ele>
        <time>2013-09-22T13:26:17Z</time>
      </trkpt>
      <trkpt lat="45.82549" lon="2.98868">
        <ele>890</ele>
        <time>2013-09-22T13:26:31Z</time>
      </trkpt>
      <trkpt lat="45.82544" lon="2.98882">
        <ele>891</ele>
        <time>2013-09-22T13:26:39Z</time>
      </trkpt>
      <trkpt lat="45.82536" lon="2.98908">
        <ele>892</ele>
        <time>2013-09-22T13:26:51Z</time>
      </trkpt>
      <trkpt lat="45.82531" lon="2.9895">
        <ele>895</ele>
        <time>2013-09-22T13:27:07Z</time>
      </trkpt>
      <trkpt lat="45.82529" lon="2.98956">
        <ele>895</ele>
        <time>2013-09-22T13:27:09Z</time>
      </trkpt>
      <trkpt lat="45.82517" lon="2.99016">
        <ele>895</ele>
        <time>2013-09-22T13:27:22Z</time>
      </trkpt>
      <trkpt lat="45.82507" lon="2.99087">
        <ele>894</ele>
        <time>2013-09-22T13:27:36Z</time>
      </trkpt>
      <trkpt lat="45.82491" lon="2.99173">
        <ele>894</ele>
        <time>2013-09-22T13:27:49Z</time>
      </trkpt>
      <trkpt lat="45.82473" lon="2.99239">
        <ele>894</ele>
        <time>2013-09-22T13:28:01Z</time>
      </trkpt>
      <trkpt lat="45.82466" lon="2.99265">
        <ele>896</ele>
        <time>2013-09-22T13:28:06Z</time>
      </trkpt>
      <trkpt lat="45.82443" lon="2.9935">
        <ele>895</ele>
        <time>2013-09-22T13:28:22Z</time>
      </trkpt>
      <trkpt lat="45.82428" lon="2.99438">
        <ele>892</ele>
        <time>2013-09-22T13:28:37Z</time>
      </trkpt>
      <trkpt lat="45.82409" lon="2.99509">
        <ele>895</ele>
        <time>2013-09-22T13:28:52Z</time>
      </trkpt>
      <trkpt lat="45.82376" lon="2.99502">
        <ele>898</ele>
        <time>2013-09-22T13:29:01Z</time>
      </trkpt>
      <trkpt lat="45.82327" lon="2.9951">
        <ele>903</ele>
        <time>2013-09-22T13:29:15Z</time>
      </trkpt>
      <trkpt lat="45.82272" lon="2.99514">
        <ele>902</ele>
        <time>2013-09-22T13:29:31Z</time>
      </trkpt>
      <trkpt lat="45.82227" lon="2.99511">
        <ele>899</ele>
        <time>2013-09-22T13:29:45Z</time>
      </trkpt>
      <trkpt lat="45.82174" lon="2.99504">
        <ele>897</ele>
        <time>2013-09-22T13:29:59Z</time>
      </trkpt>
      <trkpt lat="45.82155" lon="2.995">
        <ele>896</ele>
        <time>2013-09-22T13:30:04Z</time>
      </trkpt>
      <trkpt lat="45.82096" lon="2.995">
        <ele>898</ele>
        <time>2013-09-22T13:30:20Z</time>
      </trkpt>
      <trkpt lat="45.82042" lon="2.99505">
        <ele>898</ele>
        <time>2013-09-22T13:30:35Z</time>
      </trkpt>
      <trkpt lat="45.81989" lon="2.99492">
        <ele>899</ele>
        <time>2013-09-22T13:30:50Z</time>
      </trkpt>
      <trkpt lat="45.81935" lon="2.99477">
        <ele>901</ele>
        <time>2013-09-22T13:31:05Z</time>
      </trkpt>
      <trkpt lat="45.81891" lon="2.99457">
        <ele>902</ele>
        <time>2013-09-22T13:31:18Z</time>
      </trkpt>
      <trkpt lat="45.81842" lon="2.99441">
        <ele>902</ele>
        <time>2013-09-22T13:31:32Z</time>
      </trkpt>
      <trkpt lat="45.81783" lon="2.99432">
        <ele>904</ele>
        <time>2013-09-22T13:31:52Z</time>
      </trkpt>
      <trkpt lat="45.8174" lon="2.99429">
        <ele>906</ele>
        <time>2013-09-22T13:32:11Z</time>
      </trkpt>
      <trkpt lat="45.81724" lon="2.9946">
        <ele>908</ele>
        <time>2013-09-22T13:32:24Z</time>
      </trkpt>
      <trkpt lat="45.81714" lon="2.99489">
        <ele>909</ele>
        <time>2013-09-22T13:32:38Z</time>
      </trkpt>
      <trkpt lat="45.81702" lon="2.99518">
        <ele>913</ele>
        <time>2013-09-22T13:32:53Z</time>
      </trkpt>
      <trkpt lat="45.81697" lon="2.99557">
        <ele>914</ele>
        <time>2013-09-22T13:33:10Z</time>
      </trkpt>
      <trkpt lat="45.81697" lon="2.99572">
        <ele>915</ele>
        <time>2013-09-22T13:33:16Z</time>
      </trkpt>
      <trkpt lat="45.81692" lon="2.99608">
        <ele>918</ele>
        <time>2013-09-22T13:33:33Z</time>
      </trkpt>
      <trkpt lat="45.8169" lon="2.99636">
        <ele>919</ele>
        <time>2013-09-22T13:33:47Z</time>
      </trkpt>
      <trkpt lat="45.81688" lon="2.99669">
        <ele>923</ele>
        <time>2013-09-22T13:34:03Z</time>
      </trkpt>
      <trkpt lat="45.8169" lon="2.99708">
        <ele>922</ele>
        <time>2013-09-22T13:34:19Z</time>
      </trkpt>
      <trkpt lat="45.81689" lon="2.99744">
        <ele>924</ele>
        <time>2013-09-22T13:34:34Z</time>
      </trkpt>
      <trkpt lat="45.81696" lon="2.99806">
        <ele>923</ele>
        <time>2013-09-22T13:34:48Z</time>
      </trkpt>
      <trkpt lat="45.81711" lon="2.99913">
        <ele>923</ele>
        <time>2013-09-22T13:35:05Z</time>
      </trkpt>
      <trkpt lat="45.81723" lon="3.0001">
        <ele>925</ele>
        <time>2013-09-22T13:35:19Z</time>
      </trkpt>
      <trkpt lat="45.81723" lon="3.00024">
        <ele>924</ele>
        <time>2013-09-22T13:35:21Z</time>
      </trkpt>
      <trkpt lat="45.81717" lon="3.00051">
        <ele>924</ele>
        <time>2013-09-22T13:35:25Z</time>
      </trkpt>
      <trkpt lat="45.81691" lon="3.00086">
        <ele>923</ele>
        <time>2013-09-22T13:35:32Z</time>
      </trkpt>
      <trkpt lat="45.8166" lon="3.00104">
        <ele>922</ele>
        <time>2013-09-22T13:35:38Z</time>
      </trkpt>
      <trkpt lat="45.81631" lon="3.00121">
        <ele>922</ele>
        <time>2013-09-22T13:35:44Z</time>
      </trkpt>
      <trkpt lat="45.81608" lon="3.00137">
        <ele>922</ele>
        <time>2013-09-22T13:35:49Z</time>
      </trkpt>
      <trkpt lat="45.81607" lon="3.00174">
        <ele>921</ele>
        <time>2013-09-22T13:35:56Z</time>
      </trkpt>
      <trkpt lat="45.81649" lon="3.0023">
        <ele>921</ele>
        <time>2013-09-22T13:36:09Z</time>
      </trkpt>
      <trkpt lat="45.81675" lon="3.00249">
        <ele>923</ele>
        <time>2013-09-22T13:36:24Z</time>
      </trkpt>
      <trkpt lat="45.81693" lon="3.00282">
        <ele>923</ele>
        <time>2013-09-22T13:36:37Z</time>
      </trkpt>
      <trkpt lat="45.81683" lon="3.00341">
        <ele>921</ele>
        <time>2013-09-22T13:36:47Z</time>
      </trkpt>
      <trkpt lat="45.81673" lon="3.00426">
        <ele>919</ele>
        <time>2013-09-22T13:36:59Z</time>
      </trkpt>
      <trkpt lat="45.81673" lon="3.00437">
        <ele>918</ele>
        <time>2013-09-22T13:37:01Z</time>
      </trkpt>
      <trkpt lat="45.81671" lon="3.00462">
        <ele>917</ele>
        <time>2013-09-22T13:37:05Z</time>
      </trkpt>
      <trkpt lat="45.81659" lon="3.00526">
        <ele>913</ele>
        <time>2013-09-22T13:37:12Z</time>
      </trkpt>
      <trkpt lat="45.81658" lon="3.00548">
        <ele>912</ele>
        <time>2013-09-22T13:37:14Z</time>
      </trkpt>
      <trkpt lat="45.81659" lon="3.0057">
        <ele>912</ele>
        <time>2013-09-22T13:37:16Z</time>
      </trkpt>
      <trkpt lat="45.81665" lon="3.00603">
        <ele>910</ele>
        <time>2013-09-22T13:37:19Z</time>
      </trkpt>
      <trkpt lat="45.81671" lon="3.00625">
        <ele>909</ele>
        <time>2013-09-22T13:37:21Z</time>
      </trkpt>
      <trkpt lat="45.81686" lon="3.00652">
        <ele>909</ele>
        <time>2013-09-22T13:37:24Z</time>
      </trkpt>
      <trkpt lat="45.81709" lon="3.00688">
        <ele>905</ele>
        <time>2013-09-22T13:37:28Z</time>
      </trkpt>
      <trkpt lat="45.81716" lon="3.00696">
        <ele>905</ele>
        <time>2013-09-22T13:37:29Z</time>
      </trkpt>
      <trkpt lat="45.81733" lon="3.0071">
        <ele>904</ele>
        <time>2013-09-22T13:37:31Z</time>
      </trkpt>
      <trkpt lat="45.81757" lon="3.00747">
        <ele>899</ele>
        <time>2013-09-22T13:37:35Z</time>
      </trkpt>
      <trkpt lat="45.81764" lon="3.00757">
        <ele>897</ele>
        <time>2013-09-22T13:37:36Z</time>
      </trkpt>
      <trkpt lat="45.81794" lon="3.00783">
        <ele>894</ele>
        <time>2013-09-22T13:37:40Z</time>
      </trkpt>
      <trkpt lat="45.81812" lon="3.00808">
        <ele>893</ele>
        <time>2013-09-22T13:37:43Z</time>
      </trkpt>
      <trkpt lat="45.81831" lon="3.0083">
        <ele>891</ele>
        <time>2013-09-22T13:37:46Z</time>
      </trkpt>
      <trkpt lat="45.81842" lon="3.00836">
        <ele>889</ele>
        <time>2013-09-22T13:37:48Z</time>
      </trkpt>
      <trkpt lat="45.81849" lon="3.00835">
        <ele>888</ele>
        <time>2013-09-22T13:37:49Z</time>
      </trkpt>
      <trkpt lat="45.81868" lon="3.00832">
        <ele>888</ele>
        <time>2013-09-22T13:37:52Z</time>
      </trkpt>
      <trkpt lat="45.81876" lon="3.00831">
        <ele>888</ele>
        <time>2013-09-22T13:37:53Z</time>
      </trkpt>
      <trkpt lat="45.81902" lon="3.00845">
        <ele>884</ele>
        <time>2013-09-22T13:37:58Z</time>
      </trkpt>
      <trkpt lat="45.81891" lon="3.00909">
        <ele>883</ele>
        <time>2013-09-22T13:38:05Z</time>
      </trkpt>
      <trkpt lat="45.81889" lon="3.00933">
        <ele>880</ele>
        <time>2013-09-22T13:38:07Z</time>
      </trkpt>
      <trkpt lat="45.81888" lon="3.00961">
        <ele>880</ele>
        <time>2013-09-22T13:38:09Z</time>
      </trkpt>
      <trkpt lat="45.81889" lon="3.00999">
        <ele>878</ele>
        <time>2013-09-22T13:38:12Z</time>
      </trkpt>
      <trkpt lat="45.81894" lon="3.01048">
        <ele>871</ele>
        <time>2013-09-22T13:38:16Z</time>
      </trkpt>
      <trkpt lat="45.81896" lon="3.01069">
        <ele>869</ele>
        <time>2013-09-22T13:38:18Z</time>
      </trkpt>
      <trkpt lat="45.81899" lon="3.01094">
        <ele>862</ele>
        <time>2013-09-22T13:38:22Z</time>
      </trkpt>
      <trkpt lat="45.81899" lon="3.01109">
        <ele>862</ele>
        <time>2013-09-22T13:38:26Z</time>
      </trkpt>
      <trkpt lat="45.81887" lon="3.01141">
        <ele>860</ele>
        <time>2013-09-22T13:38:30Z</time>
      </trkpt>
      <trkpt lat="45.81872" lon="3.01184">
        <ele>851</ele>
        <time>2013-09-22T13:38:34Z</time>
      </trkpt>
      <trkpt lat="45.81861" lon="3.01205">
        <ele>850</ele>
        <time>2013-09-22T13:38:36Z</time>
      </trkpt>
      <trkpt lat="45.81856" lon="3.01217">
        <ele>849</ele>
        <time>2013-09-22T13:38:37Z</time>
      </trkpt>
      <trkpt lat="45.81844" lon="3.01241">
        <ele>848</ele>
        <time>2013-09-22T13:38:39Z</time>
      </trkpt>
      <trkpt lat="45.818" lon="3.0131">
        <ele>843</ele>
        <time>2013-09-22T13:38:45Z</time>
      </trkpt>
      <trkpt lat="45.81736" lon="3.01409">
        <ele>834</ele>
        <time>2013-09-22T13:38:55Z</time>
      </trkpt>
      <trkpt lat="45.81725" lon="3.01443">
        <ele>831</ele>
        <time>2013-09-22T13:38:58Z</time>
      </trkpt>
      <trkpt lat="45.8172" lon="3.01481">
        <ele>831</ele>
        <time>2013-09-22T13:39:02Z</time>
      </trkpt>
      <trkpt lat="45.81702" lon="3.01599">
        <ele>828</ele>
        <time>2013-09-22T13:39:14Z</time>
      </trkpt>
      <trkpt lat="45.81703" lon="3.0164">
        <ele>828</ele>
        <time>2013-09-22T13:39:18Z</time>
      </trkpt>
      <trkpt lat="45.81711" lon="3.01672">
        <ele>826</ele>
        <time>2013-09-22T13:39:21Z</time>
      </trkpt>
      <trkpt lat="45.81722" lon="3.0172">
        <ele>824</ele>
        <time>2013-09-22T13:39:25Z</time>
      </trkpt>
      <trkpt lat="45.81725" lon="3.0176">
        <ele>820</ele>
        <time>2013-09-22T13:39:28Z</time>
      </trkpt>
      <trkpt lat="45.81727" lon="3.01798">
        <ele>818</ele>
        <time>2013-09-22T13:39:32Z</time>
      </trkpt>
      <trkpt lat="45.81727" lon="3.0184">
        <ele>813</ele>
        <time>2013-09-22T13:39:36Z</time>
      </trkpt>
      <trkpt lat="45.81727" lon="3.01865">
        <ele>813</ele>
        <time>2013-09-22T13:39:38Z</time>
      </trkpt>
      <trkpt lat="45.81755" lon="3.01923">
        <ele>806</ele>
        <time>2013-09-22T13:39:43Z</time>
      </trkpt>
      <trkpt lat="45.81772" lon="3.01956">
        <ele>800</ele>
        <time>2013-09-22T13:39:46Z</time>
      </trkpt>
      <trkpt lat="45.81774" lon="3.01966">
        <ele>799</ele>
        <time>2013-09-22T13:39:47Z</time>
      </trkpt>
      <trkpt lat="45.81773" lon="3.01975">
        <ele>799</ele>
        <time>2013-09-22T13:39:48Z</time>
      </trkpt>
      <trkpt lat="45.81754" lon="3.01984">
        <ele>800</ele>
        <time>2013-09-22T13:39:50Z</time>
      </trkpt>
      <trkpt lat="45.81739" lon="3.02013">
        <ele>797</ele>
        <time>2013-09-22T13:39:55Z</time>
      </trkpt>
      <trkpt lat="45.81749" lon="3.02044">
        <ele>795</ele>
        <time>2013-09-22T13:39:58Z</time>
      </trkpt>
      <trkpt lat="45.81744" lon="3.02082">
        <ele>791</ele>
        <time>2013-09-22T13:40:02Z</time>
      </trkpt>
      <trkpt lat="45.81738" lon="3.02088">
        <ele>789</ele>
        <time>2013-09-22T13:40:03Z</time>
      </trkpt>
      <trkpt lat="45.81715" lon="3.02114">
        <ele>788</ele>
        <time>2013-09-22T13:40:07Z</time>
      </trkpt>
      <trkpt lat="45.8166" lon="3.02164">
        <ele>788</ele>
        <time>2013-09-22T13:40:15Z</time>
      </trkpt>
      <trkpt lat="45.81632" lon="3.02189">
        <ele>787</ele>
        <time>2013-09-22T13:40:19Z</time>
      </trkpt>
      <trkpt lat="45.81619" lon="3.02202">
        <ele>786</ele>
        <time>2013-09-22T13:40:21Z</time>
      </trkpt>
      <trkpt lat="45.81551" lon="3.02237">
        <ele>785</ele>
        <time>2013-09-22T13:40:29Z</time>
      </trkpt>
      <trkpt lat="45.81489" lon="3.02258">
        <ele>784</ele>
        <time>2013-09-22T13:40:36Z</time>
      </trkpt>
      <trkpt lat="45.81445" lon="3.02252">
        <ele>785</ele>
        <time>2013-09-22T13:40:42Z</time>
      </trkpt>
      <trkpt lat="45.81401" lon="3.02255">
        <ele>787</ele>
        <time>2013-09-22T13:40:49Z</time>
      </trkpt>
      <trkpt lat="45.81382" lon="3.0225">
        <ele>788</ele>
        <time>2013-09-22T13:40:52Z</time>
      </trkpt>
      <trkpt lat="45.8136" lon="3.02252">
        <ele>789</ele>
        <time>2013-09-22T13:40:55Z</time>
      </trkpt>
      <trkpt lat="45.81342" lon="3.02278">
        <ele>789</ele>
        <time>2013-09-22T13:41:01Z</time>
      </trkpt>
      <trkpt lat="45.81348" lon="3.02329">
        <ele>789</ele>
        <time>2013-09-22T13:41:13Z</time>
      </trkpt>
      <trkpt lat="45.81348" lon="3.02334">
        <ele>788</ele>
        <time>2013-09-22T13:41:14Z</time>
      </trkpt>
      <trkpt lat="45.81344" lon="3.02353">
        <ele>787</ele>
        <time>2013-09-22T13:41:18Z</time>
      </trkpt>
      <trkpt lat="45.813" lon="3.02362">
        <ele>789</ele>
        <time>2013-09-22T13:41:31Z</time>
      </trkpt>
      <trkpt lat="45.81269" lon="3.02363">
        <ele>789</ele>
        <time>2013-09-22T13:41:39Z</time>
      </trkpt>
      <trkpt lat="45.81261" lon="3.02366">
        <ele>788</ele>
        <time>2013-09-22T13:41:41Z</time>
      </trkpt>
      <trkpt lat="45.81257" lon="3.02382">
        <ele>788</ele>
        <time>2013-09-22T13:41:45Z</time>
      </trkpt>
      <trkpt lat="45.81256" lon="3.02443">
        <ele>786</ele>
        <time>2013-09-22T13:41:56Z</time>
      </trkpt>
      <trkpt lat="45.81256" lon="3.02449">
        <ele>786</ele>
        <time>2013-09-22T13:41:57Z</time>
      </trkpt>
      <trkpt lat="45.81254" lon="3.02477">
        <ele>785</ele>
        <time>2013-09-22T13:42:01Z</time>
      </trkpt>
      <trkpt lat="45.81251" lon="3.02501">
        <ele>784</ele>
        <time>2013-09-22T13:42:04Z</time>
      </trkpt>
      <trkpt lat="45.8125" lon="3.02517">
        <ele>783</ele>
        <time>2013-09-22T13:42:06Z</time>
      </trkpt>
      <trkpt lat="45.8125" lon="3.0255">
        <ele>779</ele>
        <time>2013-09-22T13:42:10Z</time>
      </trkpt>
      <trkpt lat="45.8125" lon="3.02563">
        <ele>780</ele>
        <time>2013-09-22T13:42:12Z</time>
      </trkpt>
      <trkpt lat="45.81247" lon="3.02588">
        <ele>777</ele>
        <time>2013-09-22T13:42:16Z</time>
      </trkpt>
      <trkpt lat="45.8124" lon="3.02615">
        <ele>773</ele>
        <time>2013-09-22T13:42:21Z</time>
      </trkpt>
      <trkpt lat="45.81238" lon="3.02619">
        <ele>772</ele>
        <time>2013-09-22T13:42:22Z</time>
      </trkpt>
      <trkpt lat="45.81234" lon="3.02629">
        <ele>772</ele>
        <time>2013-09-22T13:42:24Z</time>
      </trkpt>
      <trkpt lat="45.81228" lon="3.02643">
        <ele>771</ele>
        <time>2013-09-22T13:42:27Z</time>
      </trkpt>
      <trkpt lat="45.81222" lon="3.02658">
        <ele>770</ele>
        <time>2013-09-22T13:42:30Z</time>
      </trkpt>
      <trkpt lat="45.8122" lon="3.02663">
        <ele>770</ele>
        <time>2013-09-22T13:42:31Z</time>
      </trkpt>
      <trkpt lat="45.81216" lon="3.02672">
        <ele>765</ele>
        <time>2013-09-22T13:42:33Z</time>
      </trkpt>
      <trkpt lat="45.81214" lon="3.0268">
        <ele>764</ele>
        <time>2013-09-22T13:42:35Z</time>
      </trkpt>
      <trkpt lat="45.81214" lon="3.02695">
        <ele>764</ele>
        <time>2013-09-22T13:42:38Z</time>
      </trkpt>
      <trkpt lat="45.81214" lon="3.02716">
        <ele>763</ele>
        <time>2013-09-22T13:42:43Z</time>
      </trkpt>
      <trkpt lat="45.81214" lon="3.02721">
        <ele>762</ele>
        <time>2013-09-22T13:42:44Z</time>
      </trkpt>
      <trkpt lat="45.81215" lon="3.02732">
        <ele>762</ele>
        <time>2013-09-22T13:42:46Z</time>
      </trkpt>
      <trkpt lat="45.81216" lon="3.02751">
        <ele>756</ele>
        <time>2013-09-22T13:42:49Z</time>
      </trkpt>
      <trkpt lat="45.81218" lon="3.02775">
        <ele>756</ele>
        <time>2013-09-22T13:42:52Z</time>
      </trkpt>
      <trkpt lat="45.8122" lon="3.02811">
        <ele>754</ele>
        <time>2013-09-22T13:42:56Z</time>
      </trkpt>
      <trkpt lat="45.81229" lon="3.02846">
        <ele>749</ele>
        <time>2013-09-22T13:43:01Z</time>
      </trkpt>
      <trkpt lat="45.81233" lon="3.0289">
        <ele>747</ele>
        <time>2013-09-22T13:43:06Z</time>
      </trkpt>
      <trkpt lat="45.81238" lon="3.02924">
        <ele>743</ele>
        <time>2013-09-22T13:43:10Z</time>
      </trkpt>
      <trkpt lat="45.81232" lon="3.02943">
        <ele>740</ele>
        <time>2013-09-22T13:43:14Z</time>
      </trkpt>
      <trkpt lat="45.81223" lon="3.02951">
        <ele>739</ele>
        <time>2013-09-22T13:43:16Z</time>
      </trkpt>
      <trkpt lat="45.81218" lon="3.02965">
        <ele>738</ele>
        <time>2013-09-22T13:43:19Z</time>
      </trkpt>
      <trkpt lat="45.8122" lon="3.0297">
        <ele>738</ele>
        <time>2013-09-22T13:43:20Z</time>
      </trkpt>
      <trkpt lat="45.81231" lon="3.02988">
        <ele>738</ele>
        <time>2013-09-22T13:43:23Z</time>
      </trkpt>
      <trkpt lat="45.8126" lon="3.03026">
        <ele>737</ele>
        <time>2013-09-22T13:43:28Z</time>
      </trkpt>
      <trkpt lat="45.81267" lon="3.03034">
        <ele>736</ele>
        <time>2013-09-22T13:43:29Z</time>
      </trkpt>
      <trkpt lat="45.81292" lon="3.03059">
        <ele>736</ele>
        <time>2013-09-22T13:43:32Z</time>
      </trkpt>
      <trkpt lat="45.81343" lon="3.03107">
        <ele>732</ele>
        <time>2013-09-22T13:43:38Z</time>
      </trkpt>
      <trkpt lat="45.81366" lon="3.0313">
        <ele>729</ele>
        <time>2013-09-22T13:43:41Z</time>
      </trkpt>
      <trkpt lat="45.81382" lon="3.03147">
        <ele>728</ele>
        <time>2013-09-22T13:43:43Z</time>
      </trkpt>
      <trkpt lat="45.81438" lon="3.03178">
        <ele>718</ele>
        <time>2013-09-22T13:43:49Z</time>
      </trkpt>
      <trkpt lat="45.81447" lon="3.03183">
        <ele>717</ele>
        <time>2013-09-22T13:43:50Z</time>
      </trkpt>
      <trkpt lat="45.81463" lon="3.03194">
        <ele>716</ele>
        <time>2013-09-22T13:43:52Z</time>
      </trkpt>
      <trkpt lat="45.8147" lon="3.03201">
        <ele>716</ele>
        <time>2013-09-22T13:43:53Z</time>
      </trkpt>
      <trkpt lat="45.81477" lon="3.03208">
        <ele>715</ele>
        <time>2013-09-22T13:43:54Z</time>
      </trkpt>
      <trkpt lat="45.81497" lon="3.03237">
        <ele>711</ele>
        <time>2013-09-22T13:43:57Z</time>
      </trkpt>
      <trkpt lat="45.8151" lon="3.03261">
        <ele>705</ele>
        <time>2013-09-22T13:43:59Z</time>
      </trkpt>
      <trkpt lat="45.81523" lon="3.03297">
        <ele>700</ele>
        <time>2013-09-22T13:44:02Z</time>
      </trkpt>
      <trkpt lat="45.81533" lon="3.03317">
        <ele>699</ele>
        <time>2013-09-22T13:44:04Z</time>
      </trkpt>
      <trkpt lat="45.81538" lon="3.03326">
        <ele>698</ele>
        <time>2013-09-22T13:44:05Z</time>
      </trkpt>
      <trkpt lat="45.81559" lon="3.03327">
        <ele>696</ele>
        <time>2013-09-22T13:44:11Z</time>
      </trkpt>
      <trkpt lat="45.81562" lon="3.03321">
        <ele>696</ele>
        <time>2013-09-22T13:44:12Z</time>
      </trkpt>
      <trkpt lat="45.8159" lon="3.03256">
        <ele>695</ele>
        <time>2013-09-22T13:44:21Z</time>
      </trkpt>
      <trkpt lat="45.81613" lon="3.03228">
        <ele>698</ele>
        <time>2013-09-22T13:44:26Z</time>
      </trkpt>
      <trkpt lat="45.81714" lon="3.03176">
        <ele>690</ele>
        <time>2013-09-22T13:44:42Z</time>
      </trkpt>
      <trkpt lat="45.81799" lon="3.03138">
        <ele>689</ele>
        <time>2013-09-22T13:44:55Z</time>
      </trkpt>
      <trkpt lat="45.81819" lon="3.03148">
        <ele>687</ele>
        <time>2013-09-22T13:44:59Z</time>
      </trkpt>
      <trkpt lat="45.81847" lon="3.03221">
        <ele>679</ele>
        <time>2013-09-22T13:45:06Z</time>
      </trkpt>
      <trkpt lat="45.81853" lon="3.03232">
        <ele>679</ele>
        <time>2013-09-22T13:45:07Z</time>
      </trkpt>
      <trkpt lat="45.81864" lon="3.03255">
        <ele>676</ele>
        <time>2013-09-22T13:45:09Z</time>
      </trkpt>
      <trkpt lat="45.81876" lon="3.03278">
        <ele>675</ele>
        <time>2013-09-22T13:45:11Z</time>
      </trkpt>
      <trkpt lat="45.81906" lon="3.03336">
        <ele>671</ele>
        <time>2013-09-22T13:45:16Z</time>
      </trkpt>
      <trkpt lat="45.81916" lon="3.0336">
        <ele>671</ele>
        <time>2013-09-22T13:45:18Z</time>
      </trkpt>
      <trkpt lat="45.81942" lon="3.03419">
        <ele>669</ele>
        <time>2013-09-22T13:45:23Z</time>
      </trkpt>
      <trkpt lat="45.81965" lon="3.03461">
        <ele>668</ele>
        <time>2013-09-22T13:45:27Z</time>
      </trkpt>
      <trkpt lat="45.81976" lon="3.03495">
        <ele>668</ele>
        <time>2013-09-22T13:45:30Z</time>
      </trkpt>
      <trkpt lat="45.81978" lon="3.03508">
        <ele>667</ele>
        <time>2013-09-22T13:45:31Z</time>
      </trkpt>
      <trkpt lat="45.81978" lon="3.03535">
        <ele>667</ele>
        <time>2013-09-22T13:45:33Z</time>
      </trkpt>
      <trkpt lat="45.81987" lon="3.03626">
        <ele>665</ele>
        <time>2013-09-22T13:45:40Z</time>
      </trkpt>
      <trkpt lat="45.8199" lon="3.03637">
        <ele>664</ele>
        <time>2013-09-22T13:45:41Z</time>
      </trkpt>
      <trkpt lat="45.82007" lon="3.03693">
        <ele>662</ele>
        <time>2013-09-22T13:45:47Z</time>
      </trkpt>
      <trkpt lat="45.82022" lon="3.03698">
        <ele>661</ele>
        <time>2013-09-22T13:45:51Z</time>
      </trkpt>
      <trkpt lat="45.82058" lon="3.03689">
        <ele>661</ele>
        <time>2013-09-22T13:45:58Z</time>
      </trkpt>
      <trkpt lat="45.82075" lon="3.03688">
        <ele>661</ele>
        <time>2013-09-22T13:46:01Z</time>
      </trkpt>
      <trkpt lat="45.82123" lon="3.03703">
        <ele>658</ele>
        <time>2013-09-22T13:46:09Z</time>
      </trkpt>
      <trkpt lat="45.82136" lon="3.03704">
        <ele>658</ele>
        <time>2013-09-22T13:46:11Z</time>
      </trkpt>
      <trkpt lat="45.8215" lon="3.03701">
        <ele>657</ele>
        <time>2013-09-22T13:46:13Z</time>
      </trkpt>
      <trkpt lat="45.82173" lon="3.03683">
        <ele>657</ele>
        <time>2013-09-22T13:46:17Z</time>
      </trkpt>
      <trkpt lat="45.82199" lon="3.03679">
        <ele>657</ele>
        <time>2013-09-22T13:46:22Z</time>
      </trkpt>
      <trkpt lat="45.82222" lon="3.03671">
        <ele>657</ele>
        <time>2013-09-22T13:46:28Z</time>
      </trkpt>
      <trkpt lat="45.8225" lon="3.03644">
        <ele>658</ele>
        <time>2013-09-22T13:46:38Z</time>
      </trkpt>
      <trkpt lat="45.82286" lon="3.03657">
        <ele>660</ele>
        <time>2013-09-22T13:46:46Z</time>
      </trkpt>
      <trkpt lat="45.82313" lon="3.03668">
        <ele>662</ele>
        <time>2013-09-22T13:46:52Z</time>
      </trkpt>
      <trkpt lat="45.82335" lon="3.03663">
        <ele>664</ele>
        <time>2013-09-22T13:46:57Z</time>
      </trkpt>
      <trkpt lat="45.82351" lon="3.03648">
        <ele>662</ele>
        <time>2013-09-22T13:47:01Z</time>
      </trkpt>
      <trkpt lat="45.8236" lon="3.03641">
        <ele>662</ele>
        <time>2013-09-22T13:47:03Z</time>
      </trkpt>
      <trkpt lat="45.82384" lon="3.03633">
        <ele>661</ele>
        <time>2013-09-22T13:47:08Z</time>
      </trkpt>
      <trkpt lat="45.82412" lon="3.03638">
        <ele>661</ele>
        <time>2013-09-22T13:47:13Z</time>
      </trkpt>
      <trkpt lat="45.82445" lon="3.03657">
        <ele>659</ele>
        <time>2013-09-22T13:47:18Z</time>
      </trkpt>
      <trkpt lat="45.82453" lon="3.03663">
        <ele>658</ele>
        <time>2013-09-22T13:47:19Z</time>
      </trkpt>
      <trkpt lat="45.82471" lon="3.03675">
        <ele>654</ele>
        <time>2013-09-22T13:47:21Z</time>
      </trkpt>
      <trkpt lat="45.8248" lon="3.03682">
        <ele>653</ele>
        <time>2013-09-22T13:47:22Z</time>
      </trkpt>
      <trkpt lat="45.82498" lon="3.03697">
        <ele>652</ele>
        <time>2013-09-22T13:47:24Z</time>
      </trkpt>
      <trkpt lat="45.82525" lon="3.03722">
        <ele>648</ele>
        <time>2013-09-22T13:47:27Z</time>
      </trkpt>
      <trkpt lat="45.82555" lon="3.03755">
        <ele>641</ele>
        <time>2013-09-22T13:47:31Z</time>
      </trkpt>
      <trkpt lat="45.82583" lon="3.03765">
        <ele>642</ele>
        <time>2013-09-22T13:47:35Z</time>
      </trkpt>
      <trkpt lat="45.82606" lon="3.03772">
        <ele>641</ele>
        <time>2013-09-22T13:47:39Z</time>
      </trkpt>
      <trkpt lat="45.82609" lon="3.03776">
        <ele>641</ele>
        <time>2013-09-22T13:47:40Z</time>
      </trkpt>
      <trkpt lat="45.82611" lon="3.03781">
        <ele>641</ele>
        <time>2013-09-22T13:47:41Z</time>
      </trkpt>
      <trkpt lat="45.8262" lon="3.03812">
        <ele>639</ele>
        <time>2013-09-22T13:47:45Z</time>
      </trkpt>
      <trkpt lat="45.82624" lon="3.03831">
        <ele>638</ele>
        <time>2013-09-22T13:47:47Z</time>
      </trkpt>
      <trkpt lat="45.82635" lon="3.03868">
        <ele>633</ele>
        <time>2013-09-22T13:47:51Z</time>
      </trkpt>
      <trkpt lat="45.82639" lon="3.03883">
        <ele>632</ele>
        <time>2013-09-22T13:47:54Z</time>
      </trkpt>
      <trkpt lat="45.82649" lon="3.03889">
        <ele>632</ele>
        <time>2013-09-22T13:47:57Z</time>
      </trkpt>
      <trkpt lat="45.82669" lon="3.03897">
        <ele>629</ele>
        <time>2013-09-22T13:48:01Z</time>
      </trkpt>
      <trkpt lat="45.827" lon="3.03923">
        <ele>625</ele>
        <time>2013-09-22T13:48:07Z</time>
      </trkpt>
      <trkpt lat="45.8271" lon="3.03935">
        <ele>624</ele>
        <time>2013-09-22T13:48:09Z</time>
      </trkpt>
      <trkpt lat="45.82715" lon="3.03941">
        <ele>624</ele>
        <time>2013-09-22T13:48:10Z</time>
      </trkpt>
      <trkpt lat="45.82731" lon="3.03961">
        <ele>623</ele>
        <time>2013-09-22T13:48:14Z</time>
      </trkpt>
      <trkpt lat="45.82737" lon="3.03971">
        <ele>623</ele>
        <time>2013-09-22T13:48:16Z</time>
      </trkpt>
      <trkpt lat="45.82757" lon="3.03995">
        <ele>619</ele>
        <time>2013-09-22T13:48:21Z</time>
      </trkpt>
      <trkpt lat="45.82769" lon="3.04008">
        <ele>618</ele>
        <time>2013-09-22T13:48:24Z</time>
      </trkpt>
      <trkpt lat="45.82775" lon="3.04015">
        <ele>617</ele>
        <time>2013-09-22T13:48:26Z</time>
      </trkpt>
      <trkpt lat="45.8279" lon="3.04029">
        <ele>616</ele>
        <time>2013-09-22T13:48:30Z</time>
      </trkpt>
      <trkpt lat="45.82801" lon="3.04042">
        <ele>615</ele>
        <time>2013-09-22T13:48:34Z</time>
      </trkpt>
      <trkpt lat="45.82814" lon="3.04054">
        <ele>614</ele>
        <time>2013-09-22T13:48:38Z</time>
      </trkpt>
      <trkpt lat="45.82825" lon="3.04064">
        <ele>612</ele>
        <time>2013-09-22T13:48:41Z</time>
      </trkpt>
      <trkpt lat="45.82838" lon="3.04079">
        <ele>607</ele>
        <time>2013-09-22T13:48:44Z</time>
      </trkpt>
      <trkpt lat="45.82842" lon="3.04084">
        <ele>606</ele>
        <time>2013-09-22T13:48:45Z</time>
      </trkpt>
      <trkpt lat="45.82862" lon="3.04107">
        <ele>603</ele>
        <time>2013-09-22T13:48:51Z</time>
      </trkpt>
      <trkpt lat="45.82888" lon="3.04129">
        <ele>601</ele>
        <time>2013-09-22T13:48:58Z</time>
      </trkpt>
      <trkpt lat="45.82907" lon="3.04148">
        <ele>599</ele>
        <time>2013-09-22T13:49:04Z</time>
      </trkpt>
      <trkpt lat="45.82926" lon="3.04172">
        <ele>591</ele>
        <time>2013-09-22T13:49:11Z</time>
      </trkpt>
      <trkpt lat="45.82935" lon="3.04184">
        <ele>587</ele>
        <time>2013-09-22T13:49:14Z</time>
      </trkpt>
      <trkpt lat="45.82949" lon="3.04204">
        <ele>584</ele>
        <time>2013-09-22T13:49:18Z</time>
      </trkpt>
      <trkpt lat="45.82961" lon="3.04232">
        <ele>582</ele>
        <time>2013-09-22T13:49:23Z</time>
      </trkpt>
      <trkpt lat="45.82964" lon="3.04241">
        <ele>581</ele>
        <time>2013-09-22T13:49:25Z</time>
      </trkpt>
      <trkpt lat="45.82964" lon="3.04247">
        <ele>580</ele>
        <time>2013-09-22T13:49:26Z</time>
      </trkpt>
      <trkpt lat="45.82968" lon="3.0426">
        <ele>579</ele>
        <time>2013-09-22T13:49:28Z</time>
      </trkpt>
      <trkpt lat="45.8298" lon="3.04287">
        <ele>577</ele>
        <time>2013-09-22T13:49:32Z</time>
      </trkpt>
      <trkpt lat="45.82993" lon="3.04324">
        <ele>572</ele>
        <time>2013-09-22T13:49:37Z</time>
      </trkpt>
      <trkpt lat="45.82993" lon="3.04342">
        <ele>570</ele>
        <time>2013-09-22T13:49:39Z</time>
      </trkpt>
      <trkpt lat="45.82993" lon="3.04377">
        <ele>573</ele>
        <time>2013-09-22T13:49:43Z</time>
      </trkpt>
      <trkpt lat="45.83006" lon="3.0443">
        <ele>555</ele>
        <time>2013-09-22T13:49:49Z</time>
      </trkpt>
      <trkpt lat="45.83008" lon="3.04468">
        <ele>547</ele>
        <time>2013-09-22T13:49:53Z</time>
      </trkpt>
      <trkpt lat="45.83003" lon="3.04486">
        <ele>548</ele>
        <time>2013-09-22T13:49:55Z</time>
      </trkpt>
      <trkpt lat="45.8297" lon="3.04523">
        <ele>545</ele>
        <time>2013-09-22T13:50:01Z</time>
      </trkpt>
      <trkpt lat="45.82964" lon="3.04527">
        <ele>545</ele>
        <time>2013-09-22T13:50:02Z</time>
      </trkpt>
      <trkpt lat="45.82943" lon="3.04539">
        <ele>544</ele>
        <time>2013-09-22T13:50:05Z</time>
      </trkpt>
      <trkpt lat="45.82925" lon="3.04555">
        <ele>541</ele>
        <time>2013-09-22T13:50:08Z</time>
      </trkpt>
      <trkpt lat="45.82919" lon="3.0456">
        <ele>540</ele>
        <time>2013-09-22T13:50:09Z</time>
      </trkpt>
      <trkpt lat="45.82899" lon="3.04575">
        <ele>539</ele>
        <time>2013-09-22T13:50:12Z</time>
      </trkpt>
      <trkpt lat="45.82886" lon="3.04583">
        <ele>539</ele>
        <time>2013-09-22T13:50:14Z</time>
      </trkpt>
      <trkpt lat="45.82872" lon="3.04587">
        <ele>521</ele>
        <time>2013-09-22T13:50:16Z</time>
      </trkpt>
      <trkpt lat="45.82849" lon="3.04577">
        <ele>536</ele>
        <time>2013-09-22T13:50:20Z</time>
      </trkpt>
      <trkpt lat="45.82839" lon="3.04556">
        <ele>540</ele>
        <time>2013-09-22T13:50:23Z</time>
      </trkpt>
      <trkpt lat="45.82828" lon="3.04552">
        <ele>538</ele>
        <time>2013-09-22T13:50:28Z</time>
      </trkpt>
      <trkpt lat="45.82828" lon="3.04556">
        <ele>537</ele>
        <time>2013-09-22T13:50:29Z</time>
      </trkpt>
      <trkpt lat="45.82827" lon="3.04579">
        <ele>531</ele>
        <time>2013-09-22T13:50:33Z</time>
      </trkpt>
      <trkpt lat="45.82827" lon="3.04596">
        <ele>521</ele>
        <time>2013-09-22T13:50:35Z</time>
      </trkpt>
      <trkpt lat="45.82841" lon="3.0463">
        <ele>515</ele>
        <time>2013-09-22T13:50:40Z</time>
      </trkpt>
      <trkpt lat="45.82868" lon="3.0464">
        <ele>513</ele>
        <time>2013-09-22T13:50:45Z</time>
      </trkpt>
      <trkpt lat="45.82888" lon="3.04641">
        <ele>513</ele>
        <time>2013-09-22T13:50:48Z</time>
      </trkpt>
      <trkpt lat="45.82904" lon="3.04643">
        <ele>512</ele>
        <time>2013-09-22T13:50:50Z</time>
      </trkpt>
      <trkpt lat="45.82918" lon="3.04647">
        <ele>509</ele>
        <time>2013-09-22T13:50:52Z</time>
      </trkpt>
      <trkpt lat="45.82924" lon="3.04657">
        <ele>507</ele>
        <time>2013-09-22T13:50:55Z</time>
      </trkpt>
      <trkpt lat="45.82913" lon="3.04664">
        <ele>503</ele>
        <time>2013-09-22T13:50:59Z</time>
      </trkpt>
      <trkpt lat="45.82884" lon="3.04677">
        <ele>497</ele>
        <time>2013-09-22T13:51:06Z</time>
      </trkpt>
      <trkpt lat="45.82878" lon="3.047">
        <ele>495</ele>
        <time>2013-09-22T13:51:12Z</time>
      </trkpt>
      <trkpt lat="45.82882" lon="3.04702">
        <ele>495</ele>
        <time>2013-09-22T13:51:13Z</time>
      </trkpt>
      <trkpt lat="45.82919" lon="3.04708">
        <ele>492</ele>
        <time>2013-09-22T13:51:19Z</time>
      </trkpt>
      <trkpt lat="45.82946" lon="3.04712">
        <ele>492</ele>
        <time>2013-09-22T13:51:23Z</time>
      </trkpt>
      <trkpt lat="45.82975" lon="3.0472">
        <ele>490</ele>
        <time>2013-09-22T13:51:27Z</time>
      </trkpt>
      <trkpt lat="45.83001" lon="3.04743">
        <ele>484</ele>
        <time>2013-09-22T13:51:31Z</time>
      </trkpt>
      <trkpt lat="45.83008" lon="3.04766">
        <ele>482</ele>
        <time>2013-09-22T13:51:34Z</time>
      </trkpt>
      <trkpt lat="45.83007" lon="3.04774">
        <ele>482</ele>
        <time>2013-09-22T13:51:35Z</time>
      </trkpt>
      <trkpt lat="45.83006" lon="3.04778">
        <ele>482</ele>
        <time>2013-09-22T13:51:36Z</time>
      </trkpt>
      <trkpt lat="45.82946" lon="3.04807">
        <ele>481</ele>
        <time>2013-09-22T13:51:45Z</time>
      </trkpt>
      <trkpt lat="45.82858" lon="3.04873">
        <ele>476</ele>
        <time>2013-09-22T13:52:01Z</time>
      </trkpt>
      <trkpt lat="45.82839" lon="3.04887">
        <ele>476</ele>
        <time>2013-09-22T13:52:05Z</time>
      </trkpt>
      <trkpt lat="45.82804" lon="3.04908">
        <ele>474</ele>
        <time>2013-09-22T13:52:11Z</time>
      </trkpt>
      <trkpt lat="45.82785" lon="3.04914">
        <ele>473</ele>
        <time>2013-09-22T13:52:14Z</time>
      </trkpt>
      <trkpt lat="45.82768" lon="3.04926">
        <ele>468</ele>
        <time>2013-09-22T13:52:19Z</time>
      </trkpt>
      <trkpt lat="45.82759" lon="3.04946">
        <ele>467</ele>
        <time>2013-09-22T13:52:22Z</time>
      </trkpt>
      <trkpt lat="45.82745" lon="3.04982">
        <ele>463</ele>
        <time>2013-09-22T13:52:26Z</time>
      </trkpt>
      <trkpt lat="45.82735" lon="3.05012">
        <ele>459</ele>
        <time>2013-09-22T13:52:29Z</time>
      </trkpt>
      <trkpt lat="45.82724" lon="3.05038">
        <ele>457</ele>
        <time>2013-09-22T13:52:32Z</time>
      </trkpt>
      <trkpt lat="45.82722" lon="3.05044">
        <ele>457</ele>
        <time>2013-09-22T13:52:33Z</time>
      </trkpt>
      <trkpt lat="45.82718" lon="3.05055">
        <ele>456</ele>
        <time>2013-09-22T13:52:35Z</time>
      </trkpt>
      <trkpt lat="45.82729" lon="3.05092">
        <ele>454</ele>
        <time>2013-09-22T13:52:41Z</time>
      </trkpt>
      <trkpt lat="45.82761" lon="3.05136">
        <ele>457</ele>
        <time>2013-09-22T13:52:49Z</time>
      </trkpt>
      <trkpt lat="45.82759" lon="3.05171">
        <ele>456</ele>
        <time>2013-09-22T13:52:55Z</time>
      </trkpt>
      <trkpt lat="45.82744" lon="3.05183">
        <ele>452</ele>
        <time>2013-09-22T13:52:58Z</time>
      </trkpt>
      <trkpt lat="45.8269" lon="3.05218">
        <ele>450</ele>
        <time>2013-09-22T13:53:07Z</time>
      </trkpt>
      <trkpt lat="45.82678" lon="3.05226">
        <ele>450</ele>
        <time>2013-09-22T13:53:09Z</time>
      </trkpt>
      <trkpt lat="45.82657" lon="3.0527">
        <ele>447</ele>
        <time>2013-09-22T13:53:16Z</time>
      </trkpt>
      <trkpt lat="45.82641" lon="3.05276">
        <ele>446</ele>
        <time>2013-09-22T13:53:21Z</time>
      </trkpt>
      <trkpt lat="45.82625" lon="3.05275">
        <ele>445</ele>
        <time>2013-09-22T13:53:24Z</time>
      </trkpt>
      <trkpt lat="45.82602" lon="3.05266">
        <ele>443</ele>
        <time>2013-09-22T13:53:29Z</time>
      </trkpt>
      <trkpt lat="45.82595" lon="3.05277">
        <ele>443</ele>
        <time>2013-09-22T13:53:33Z</time>
      </trkpt>
      <trkpt lat="45.82587" lon="3.05334">
        <ele>439</ele>
        <time>2013-09-22T13:53:41Z</time>
      </trkpt>
      <trkpt lat="45.82568" lon="3.05339">
        <ele>437</ele>
        <time>2013-09-22T13:53:46Z</time>
      </trkpt>
      <trkpt lat="45.82549" lon="3.05306">
        <ele>438</ele>
        <time>2013-09-22T13:53:53Z</time>
      </trkpt>
      <trkpt lat="45.82546" lon="3.05307">
        <ele>438</ele>
        <time>2013-09-22T13:53:55Z</time>
      </trkpt>
      <trkpt lat="45.8255" lon="3.05319">
        <ele>438</ele>
        <time>2013-09-22T13:53:58Z</time>
      </trkpt>
      <trkpt lat="45.82538" lon="3.05347">
        <ele>436</ele>
        <time>2013-09-22T13:54:03Z</time>
      </trkpt>
      <trkpt lat="45.8253" lon="3.0538">
        <ele>435</ele>
        <time>2013-09-22T13:54:08Z</time>
      </trkpt>
      <trkpt lat="45.82505" lon="3.05447">
        <ele>433</ele>
        <time>2013-09-22T13:54:19Z</time>
      </trkpt>
      <trkpt lat="45.82477" lon="3.05491">
        <ele>430</ele>
        <time>2013-09-22T13:54:28Z</time>
      </trkpt>
      <trkpt lat="45.82457" lon="3.05522">
        <ele>427</ele>
        <time>2013-09-22T13:54:33Z</time>
      </trkpt>
      <trkpt lat="45.8244" lon="3.05595">
        <ele>424</ele>
        <time>2013-09-22T13:54:41Z</time>
      </trkpt>
      <trkpt lat="45.82438" lon="3.05604">
        <ele>424</ele>
        <time>2013-09-22T13:54:42Z</time>
      </trkpt>
      <trkpt lat="45.82418" lon="3.05646">
        <ele>423</ele>
        <time>2013-09-22T13:54:47Z</time>
      </trkpt>
      <trkpt lat="45.82401" lon="3.05665">
        <ele>422</ele>
        <time>2013-09-22T13:54:50Z</time>
      </trkpt>
      <trkpt lat="45.82382" lon="3.05697">
        <ele>421</ele>
        <time>2013-09-22T13:54:54Z</time>
      </trkpt>
      <trkpt lat="45.82332" lon="3.05798">
        <ele>417</ele>
        <time>2013-09-22T13:55:06Z</time>
      </trkpt>
      <trkpt lat="45.82315" lon="3.05819">
        <ele>417</ele>
        <time>2013-09-22T13:55:09Z</time>
      </trkpt>
      <trkpt lat="45.8231" lon="3.05827">
        <ele>416</ele>
        <time>2013-09-22T13:55:10Z</time>
      </trkpt>
      <trkpt lat="45.82315" lon="3.05861">
        <ele>416</ele>
        <time>2013-09-22T13:55:16Z</time>
      </trkpt>
      <trkpt lat="45.8232" lon="3.05891">
        <ele>416</ele>
        <time>2013-09-22T13:55:21Z</time>
      </trkpt>
      <trkpt lat="45.82274" lon="3.06017">
        <ele>418</ele>
        <time>2013-09-22T13:55:37Z</time>
      </trkpt>
      <trkpt lat="45.82215" lon="3.06115">
        <ele>414</ele>
        <time>2013-09-22T13:55:51Z</time>
      </trkpt>
      <trkpt lat="45.82161" lon="3.06206">
        <ele>409</ele>
        <time>2013-09-22T13:56:05Z</time>
      </trkpt>
      <trkpt lat="45.8215" lon="3.06224">
        <ele>409</ele>
        <time>2013-09-22T13:56:08Z</time>
      </trkpt>
      <trkpt lat="45.8214" lon="3.06254">
        <ele>409</ele>
        <time>2013-09-22T13:56:12Z</time>
      </trkpt>
      <trkpt lat="45.82126" lon="3.06319">
        <ele>408</ele>
        <time>2013-09-22T13:56:18Z</time>
      </trkpt>
      <trkpt lat="45.82122" lon="3.06371">
        <ele>406</ele>
        <time>2013-09-22T13:56:22Z</time>
      </trkpt>
      <trkpt lat="45.82122" lon="3.06434">
        <ele>403</ele>
        <time>2013-09-22T13:56:27Z</time>
      </trkpt>
      <trkpt lat="45.82121" lon="3.06455">
        <ele>402</ele>
        <time>2013-09-22T13:56:29Z</time>
      </trkpt>
      <trkpt lat="45.8212" lon="3.06469">
        <ele>402</ele>
        <time>2013-09-22T13:56:31Z</time>
      </trkpt>
      <trkpt lat="45.82118" lon="3.06482">
        <ele>401</ele>
        <time>2013-09-22T13:56:35Z</time>
      </trkpt>
      <trkpt lat="45.821" lon="3.06484">
        <ele>399</ele>
        <time>2013-09-22T13:56:41Z</time>
      </trkpt>
      <trkpt lat="45.82029" lon="3.06502">
        <ele>397</ele>
        <time>2013-09-22T13:56:56Z</time>
      </trkpt>
      <trkpt lat="45.82013" lon="3.06508">
        <ele>397</ele>
        <time>2013-09-22T13:57:01Z</time>
      </trkpt>
      <trkpt lat="45.81974" lon="3.0658">
        <ele>400</ele>
        <time>2013-09-22T13:57:12Z</time>
      </trkpt>
      <trkpt lat="45.81971" lon="3.06587">
        <ele>402</ele>
        <time>2013-09-22T13:57:13Z</time>
      </trkpt>
      <trkpt lat="45.81968" lon="3.0662">
        <ele>404</ele>
        <time>2013-09-22T13:57:17Z</time>
      </trkpt>
      <trkpt lat="45.81974" lon="3.0665">
        <ele>404</ele>
        <time>2013-09-22T13:57:21Z</time>
      </trkpt>
      <trkpt lat="45.81988" lon="3.06682">
        <ele>406</ele>
        <time>2013-09-22T13:57:26Z</time>
      </trkpt>
      <trkpt lat="45.82033" lon="3.0679">
        <ele>402</ele>
        <time>2013-09-22T13:57:42Z</time>
      </trkpt>
      <trkpt lat="45.82056" lon="3.06846">
        <ele>402</ele>
        <time>2013-09-22T13:57:50Z</time>
      </trkpt>
      <trkpt lat="45.82087" lon="3.06911">
        <ele>393</ele>
        <time>2013-09-22T13:57:59Z</time>
      </trkpt>
      <trkpt lat="45.8209" lon="3.06917">
        <ele>393</ele>
        <time>2013-09-22T13:58:00Z</time>
      </trkpt>
      <trkpt lat="45.82096" lon="3.06939">
        <ele>392</ele>
        <time>2013-09-22T13:58:04Z</time>
      </trkpt>
      <trkpt lat="45.82101" lon="3.06956">
        <ele>392</ele>
        <time>2013-09-22T13:58:07Z</time>
      </trkpt>
      <trkpt lat="45.82151" lon="3.0704">
        <ele>391</ele>
        <time>2013-09-22T13:58:20Z</time>
      </trkpt>
      <trkpt lat="45.8217" lon="3.07087">
        <ele>387</ele>
        <time>2013-09-22T13:58:26Z</time>
      </trkpt>
      <trkpt lat="45.82187" lon="3.07231">
        <ele>385</ele>
        <time>2013-09-22T13:58:41Z</time>
      </trkpt>
      <trkpt lat="45.82194" lon="3.07285">
        <ele>383</ele>
        <time>2013-09-22T13:58:46Z</time>
      </trkpt>
      <trkpt lat="45.82204" lon="3.07356">
        <ele>381</ele>
        <time>2013-09-22T13:58:53Z</time>
      </trkpt>
      <trkpt lat="45.82213" lon="3.07524">
        <ele>378</ele>
        <time>2013-09-22T13:59:10Z</time>
      </trkpt>
      <trkpt lat="45.82213" lon="3.07532">
        <ele>378</ele>
        <time>2013-09-22T13:59:11Z</time>
      </trkpt>
      <trkpt lat="45.82212" lon="3.07549">
        <ele>378</ele>
        <time>2013-09-22T13:59:13Z</time>
      </trkpt>
      <trkpt lat="45.82206" lon="3.0767">
        <ele>379</ele>
        <time>2013-09-22T13:59:28Z</time>
      </trkpt>
      <trkpt lat="45.82207" lon="3.07752">
        <ele>380</ele>
        <time>2013-09-22T13:59:41Z</time>
      </trkpt>
      <trkpt lat="45.82211" lon="3.0778">
        <ele>380</ele>
        <time>2013-09-22T13:59:46Z</time>
      </trkpt>
      <trkpt lat="45.82215" lon="3.07805">
        <ele>379</ele>
        <time>2013-09-22T13:59:51Z</time>
      </trkpt>
      <trkpt lat="45.82206" lon="3.07817">
        <ele>379</ele>
        <time>2013-09-22T13:59:56Z</time>
      </trkpt>
      <trkpt lat="45.82201" lon="3.0782">
        <ele>380</ele>
        <time>2013-09-22T14:00:06Z</time>
      </trkpt>
      <trkpt lat="45.82196" lon="3.07816">
        <ele>380</ele>
        <time>2013-09-22T14:00:21Z</time>
      </trkpt>
      <trkpt lat="45.82196" lon="3.07816">
        <ele>380</ele>
        <time>2013-09-22T14:00:23Z</time>
      </trkpt>
      <trkpt lat="45.82192" lon="3.07817">
        <ele>380</ele>
        <time>2013-09-22T14:00:26Z</time>
      </trkpt>
      <trkpt lat="45.82179" lon="3.07824">
        <ele>380</ele>
        <time>2013-09-22T14:00:34Z</time>
      </trkpt>
      <trkpt lat="45.82175" lon="3.07823">
        <ele>380</ele>
        <time>2013-09-22T14:00:39Z</time>
      </trkpt>
      <trkpt lat="45.82173" lon="3.07822">
        <ele>380</ele>
        <time>2013-09-22T14:00:49Z</time>
      </trkpt>
      <trkpt lat="45.8217" lon="3.0781">
        <ele>380</ele>
        <time>2013-09-22T14:00:54Z</time>
      </trkpt>
      <trkpt lat="45.82163" lon="3.07778">
        <ele>382</ele>
        <time>2013-09-22T14:01:08Z</time>
      </trkpt>
      <trkpt lat="45.82153" lon="3.07756">
        <ele>382</ele>
        <time>2013-09-22T14:01:22Z</time>
      </trkpt>
      <trkpt lat="45.82153" lon="3.07756">
        <ele>382</ele>
        <time>2013-09-22T14:01:36Z</time>
      </trkpt>
      <trkpt lat="45.82153" lon="3.07757">
        <ele>382</ele>
        <time>2013-09-22T14:01:52Z</time>
      </trkpt>
      <trkpt lat="45.82153" lon="3.07757">
        <ele>382</ele>
        <time>2013-09-22T14:02:05Z</time>
      </trkpt>
      <trkpt lat="45.82153" lon="3.07757">
        <ele>382</ele>
        <time>2013-09-22T14:02:27Z</time>
      </trkpt>
      <trkpt lat="45.82153" lon="3.07756">
        <ele>382</ele>
        <time>2013-09-22T14:02:49Z</time>
      </trkpt>
      <trkpt lat="45.82155" lon="3.07756">
        <ele>382</ele>
        <time>2013-09-22T14:03:05Z</time>
      </trkpt>
      <trkpt lat="45.82155" lon="3.07756">
        <ele>382</ele>
        <time>2013-09-22T14:03:18Z</time>
      </trkpt>
      <trkpt lat="45.82155" lon="3.07754">
        <ele>382</ele>
        <time>2013-09-22T14:03:33Z</time>
      </trkpt>
      <trkpt lat="45.82154" lon="3.07754">
        <ele>382</ele>
        <time>2013-09-22T14:03:46Z</time>
      </trkpt>
      <trkpt lat="45.82155" lon="3.07757">
        <ele>382</ele>
        <time>2013-09-22T14:04:00Z</time>
      </trkpt>
      <trkpt lat="45.82155" lon="3.07758">
        <ele>382</ele>
        <time>2013-09-22T14:04:17Z</time>
      </trkpt>
      <trkpt lat="45.82155" lon="3.07757">
        <ele>382</ele>
        <time>2013-09-22T14:04:33Z</time>
      </trkpt>
      <trkpt lat="45.82155" lon="3.07757">
        <ele>382</ele>
        <time>2013-09-22T14:04:58Z</time>
      </trkpt>
      <trkpt lat="45.82154" lon="3.07757">
        <ele>382</ele>
        <time>2013-09-22T14:05:26Z</time>
      </trkpt>
      <trkpt lat="45.82154" lon="3.07754">
        <ele>382</ele>
        <time>2013-09-22T14:05:40Z</time>
      </trkpt>
      <trkpt lat="45.82154" lon="3.07754">
        <ele>382</ele>
        <time>2013-09-22T14:06:00Z</time>
      </trkpt>
      <trkpt lat="45.82154" lon="3.07754">
        <ele>382</ele>
        <time>2013-09-22T14:06:17Z</time>
      </trkpt>
      <trkpt lat="45.82153" lon="3.07753">
        <ele>382</ele>
        <time>2013-09-22T14:06:30Z</time>
      </trkpt>
      <trkpt lat="45.82154" lon="3.07753">
        <ele>382</ele>
        <time>2013-09-22T14:06:47Z</time>
      </trkpt>
      <trkpt lat="45.82155" lon="3.07754">
        <ele>382</ele>
        <time>2013-09-22T14:07:02Z</time>
      </trkpt>
      <trkpt lat="45.82154" lon="3.07754">
        <ele>382</ele>
        <time>2013-09-22T14:07:20Z</time>
      </trkpt>
      <trkpt lat="45.82154" lon="3.07754">
        <ele>382</ele>
        <time>2013-09-22T14:07:48Z</time>
      </trkpt>
      <trkpt lat="45.82154" lon="3.07754">
        <ele>382</ele>
        <time>2013-09-22T14:08:08Z</time>
      </trkpt>
      <trkpt lat="45.82154" lon="3.07755">
        <ele>382</ele>
        <time>2013-09-22T14:08:27Z</time>
      </trkpt>
      <trkpt lat="45.82154" lon="3.07755">
        <ele>382</ele>
        <time>2013-09-22T14:08:41Z</time>
      </trkpt>
    </trkseg>
  </trk>
</gpx>